<?xml version="1.0" encoding="UTF-8" standalone="no" ?>
<gpx xmlns="http://www.topografix.com/GPX/1/1" xmlns:xsi="http://www.w3.org/2001/XMLSchema-instance" xsi:schemaLocation="http://www.topografix.com/GPX/1/1 http://www.topografix.com/GPX/1/1/gpx.xsd" version="1.1" creator="VisuGPX - https://www.visugpx.com">
  <metadata>
    <name>Plusieurs cols dont le chant du vent</name>
  </metadata>
  <trk>
    <name><![CDATA[Plusieurs cols dont le chant du vent_1]]></name>
    <trkseg>
      <trkpt lat="48.00664" lon="6.72012">
        <ele>410.6</ele>
        <time>2022-07-29T07:06:34Z</time>
      </trkpt>
      <trkpt lat="48.00662" lon="6.71997">
        <ele>411.2</ele>
        <time>2022-07-29T07:06:41Z</time>
      </trkpt>
      <trkpt lat="48.00661" lon="6.71998">
        <ele>411</ele>
        <time>2022-07-29T07:06:42Z</time>
      </trkpt>
      <trkpt lat="48.00661" lon="6.72003">
        <ele>411</ele>
        <time>2022-07-29T07:06:47Z</time>
      </trkpt>
      <trkpt lat="48.00663" lon="6.72007">
        <ele>411</ele>
        <time>2022-07-29T07:06:49Z</time>
      </trkpt>
      <trkpt lat="48.00664" lon="6.72008">
        <ele>411</ele>
        <time>2022-07-29T07:06:50Z</time>
      </trkpt>
      <trkpt lat="48.00666" lon="6.72009">
        <ele>411</ele>
        <time>2022-07-29T07:06:51Z</time>
      </trkpt>
      <trkpt lat="48.00671" lon="6.72009">
        <ele>410.8</ele>
        <time>2022-07-29T07:06:53Z</time>
      </trkpt>
      <trkpt lat="48.00673" lon="6.72008">
        <ele>410.8</ele>
        <time>2022-07-29T07:06:54Z</time>
      </trkpt>
      <trkpt lat="48.00675" lon="6.72007">
        <ele>410.8</ele>
        <time>2022-07-29T07:06:55Z</time>
      </trkpt>
      <trkpt lat="48.00677" lon="6.72005">
        <ele>410.8</ele>
        <time>2022-07-29T07:06:56Z</time>
      </trkpt>
      <trkpt lat="48.00683" lon="6.71998">
        <ele>410.8</ele>
        <time>2022-07-29T07:06:59Z</time>
      </trkpt>
      <trkpt lat="48.00684" lon="6.71995">
        <ele>410.8</ele>
        <time>2022-07-29T07:07:00Z</time>
      </trkpt>
      <trkpt lat="48.00686" lon="6.71992">
        <ele>410.8</ele>
        <time>2022-07-29T07:07:01Z</time>
      </trkpt>
      <trkpt lat="48.00687" lon="6.71988">
        <ele>410.8</ele>
        <time>2022-07-29T07:07:02Z</time>
      </trkpt>
      <trkpt lat="48.00692" lon="6.71981">
        <ele>410.8</ele>
        <time>2022-07-29T07:07:05Z</time>
      </trkpt>
      <trkpt lat="48.00694" lon="6.71981">
        <ele>410.8</ele>
        <time>2022-07-29T07:07:06Z</time>
      </trkpt>
      <trkpt lat="48.00697" lon="6.71987">
        <ele>411</ele>
        <time>2022-07-29T07:07:08Z</time>
      </trkpt>
      <trkpt lat="48.00696" lon="6.72015">
        <ele>411</ele>
        <time>2022-07-29T07:07:15Z</time>
      </trkpt>
      <trkpt lat="48.00703" lon="6.72048">
        <ele>411.2</ele>
        <time>2022-07-29T07:07:23Z</time>
      </trkpt>
      <trkpt lat="48.00708" lon="6.72065">
        <ele>411.2</ele>
        <time>2022-07-29T07:07:27Z</time>
      </trkpt>
      <trkpt lat="48.0071" lon="6.72069">
        <ele>411.2</ele>
        <time>2022-07-29T07:07:28Z</time>
      </trkpt>
      <trkpt lat="48.00711" lon="6.72072">
        <ele>411.2</ele>
        <time>2022-07-29T07:07:29Z</time>
      </trkpt>
      <trkpt lat="48.00712" lon="6.72075">
        <ele>411.4</ele>
        <time>2022-07-29T07:07:30Z</time>
      </trkpt>
      <trkpt lat="48.00714" lon="6.72079">
        <ele>411.4</ele>
        <time>2022-07-29T07:07:31Z</time>
      </trkpt>
      <trkpt lat="48.00715" lon="6.72082">
        <ele>411.4</ele>
        <time>2022-07-29T07:07:32Z</time>
      </trkpt>
      <trkpt lat="48.00716" lon="6.72086">
        <ele>411.4</ele>
        <time>2022-07-29T07:07:33Z</time>
      </trkpt>
      <trkpt lat="48.00717" lon="6.72094">
        <ele>411.4</ele>
        <time>2022-07-29T07:07:35Z</time>
      </trkpt>
      <trkpt lat="48.00717" lon="6.72097">
        <ele>411.6</ele>
        <time>2022-07-29T07:07:36Z</time>
      </trkpt>
      <trkpt lat="48.00717" lon="6.72101">
        <ele>411.6</ele>
        <time>2022-07-29T07:07:37Z</time>
      </trkpt>
      <trkpt lat="48.00715" lon="6.72105">
        <ele>411.6</ele>
        <time>2022-07-29T07:07:38Z</time>
      </trkpt>
      <trkpt lat="48.00713" lon="6.72109">
        <ele>411.6</ele>
        <time>2022-07-29T07:07:39Z</time>
      </trkpt>
      <trkpt lat="48.00711" lon="6.72111">
        <ele>411.6</ele>
        <time>2022-07-29T07:07:40Z</time>
      </trkpt>
      <trkpt lat="48.00708" lon="6.72114">
        <ele>411.6</ele>
        <time>2022-07-29T07:07:41Z</time>
      </trkpt>
      <trkpt lat="48.00706" lon="6.72117">
        <ele>411.6</ele>
        <time>2022-07-29T07:07:42Z</time>
      </trkpt>
      <trkpt lat="48.00683" lon="6.72143">
        <ele>411.6</ele>
        <time>2022-07-29T07:07:50Z</time>
      </trkpt>
      <trkpt lat="48.0066" lon="6.72171">
        <ele>411.6</ele>
        <time>2022-07-29T07:07:58Z</time>
      </trkpt>
      <trkpt lat="48.00654" lon="6.72178">
        <ele>411.6</ele>
        <time>2022-07-29T07:08:00Z</time>
      </trkpt>
      <trkpt lat="48.00623" lon="6.72215">
        <ele>411.6</ele>
        <time>2022-07-29T07:08:10Z</time>
      </trkpt>
      <trkpt lat="48.00605" lon="6.72238">
        <ele>411.4</ele>
        <time>2022-07-29T07:08:16Z</time>
      </trkpt>
      <trkpt lat="48.00599" lon="6.72252">
        <ele>411.4</ele>
        <time>2022-07-29T07:08:19Z</time>
      </trkpt>
      <trkpt lat="48.00599" lon="6.72258">
        <ele>411.4</ele>
        <time>2022-07-29T07:08:20Z</time>
      </trkpt>
      <trkpt lat="48.006" lon="6.72262">
        <ele>411.4</ele>
        <time>2022-07-29T07:08:21Z</time>
      </trkpt>
      <trkpt lat="48.00601" lon="6.72266">
        <ele>411.4</ele>
        <time>2022-07-29T07:08:22Z</time>
      </trkpt>
      <trkpt lat="48.00602" lon="6.7227">
        <ele>411.4</ele>
        <time>2022-07-29T07:08:23Z</time>
      </trkpt>
      <trkpt lat="48.00602" lon="6.72274">
        <ele>411.4</ele>
        <time>2022-07-29T07:08:24Z</time>
      </trkpt>
      <trkpt lat="48.00603" lon="6.72276">
        <ele>411.4</ele>
        <time>2022-07-29T07:08:25Z</time>
      </trkpt>
      <trkpt lat="48.00604" lon="6.72278">
        <ele>411.6</ele>
        <time>2022-07-29T07:08:26Z</time>
      </trkpt>
      <trkpt lat="48.00606" lon="6.72281">
        <ele>411.8</ele>
        <time>2022-07-29T07:08:27Z</time>
      </trkpt>
      <trkpt lat="48.00606" lon="6.72283">
        <ele>411.8</ele>
        <time>2022-07-29T07:08:28Z</time>
      </trkpt>
      <trkpt lat="48.00607" lon="6.72286">
        <ele>412</ele>
        <time>2022-07-29T07:08:29Z</time>
      </trkpt>
      <trkpt lat="48.00607" lon="6.72288">
        <ele>412</ele>
        <time>2022-07-29T07:08:30Z</time>
      </trkpt>
      <trkpt lat="48.00607" lon="6.72291">
        <ele>412.2</ele>
        <time>2022-07-29T07:08:31Z</time>
      </trkpt>
      <trkpt lat="48.00608" lon="6.72295">
        <ele>412.6</ele>
        <time>2022-07-29T07:08:32Z</time>
      </trkpt>
      <trkpt lat="48.0061" lon="6.72298">
        <ele>413.2</ele>
        <time>2022-07-29T07:08:33Z</time>
      </trkpt>
      <trkpt lat="48.00611" lon="6.723">
        <ele>413.4</ele>
        <time>2022-07-29T07:08:34Z</time>
      </trkpt>
      <trkpt lat="48.00611" lon="6.72302">
        <ele>413.6</ele>
        <time>2022-07-29T07:08:35Z</time>
      </trkpt>
      <trkpt lat="48.00611" lon="6.72305">
        <ele>413.8</ele>
        <time>2022-07-29T07:08:36Z</time>
      </trkpt>
      <trkpt lat="48.00611" lon="6.72307">
        <ele>413.8</ele>
        <time>2022-07-29T07:08:37Z</time>
      </trkpt>
      <trkpt lat="48.00611" lon="6.72311">
        <ele>414</ele>
        <time>2022-07-29T07:08:38Z</time>
      </trkpt>
      <trkpt lat="48.00611" lon="6.72313">
        <ele>414</ele>
        <time>2022-07-29T07:08:39Z</time>
      </trkpt>
      <trkpt lat="48.00612" lon="6.72316">
        <ele>414.4</ele>
        <time>2022-07-29T07:08:40Z</time>
      </trkpt>
      <trkpt lat="48.00613" lon="6.72318">
        <ele>414.6</ele>
        <time>2022-07-29T07:08:41Z</time>
      </trkpt>
      <trkpt lat="48.00614" lon="6.7232">
        <ele>414.8</ele>
        <time>2022-07-29T07:08:42Z</time>
      </trkpt>
      <trkpt lat="48.00615" lon="6.72322">
        <ele>415</ele>
        <time>2022-07-29T07:08:43Z</time>
      </trkpt>
      <trkpt lat="48.00616" lon="6.72323">
        <ele>415.4</ele>
        <time>2022-07-29T07:08:44Z</time>
      </trkpt>
      <trkpt lat="48.00616" lon="6.72326">
        <ele>415.6</ele>
        <time>2022-07-29T07:08:45Z</time>
      </trkpt>
      <trkpt lat="48.00617" lon="6.72329">
        <ele>416</ele>
        <time>2022-07-29T07:08:46Z</time>
      </trkpt>
      <trkpt lat="48.00618" lon="6.7233">
        <ele>416.2</ele>
        <time>2022-07-29T07:08:47Z</time>
      </trkpt>
      <trkpt lat="48.00619" lon="6.72331">
        <ele>416.2</ele>
        <time>2022-07-29T07:08:48Z</time>
      </trkpt>
      <trkpt lat="48.00621" lon="6.72333">
        <ele>416.4</ele>
        <time>2022-07-29T07:08:49Z</time>
      </trkpt>
      <trkpt lat="48.00623" lon="6.72336">
        <ele>416.4</ele>
        <time>2022-07-29T07:08:50Z</time>
      </trkpt>
      <trkpt lat="48.00625" lon="6.72338">
        <ele>416.4</ele>
        <time>2022-07-29T07:08:51Z</time>
      </trkpt>
      <trkpt lat="48.00628" lon="6.7234">
        <ele>416.4</ele>
        <time>2022-07-29T07:08:52Z</time>
      </trkpt>
      <trkpt lat="48.0063" lon="6.72342">
        <ele>416.4</ele>
        <time>2022-07-29T07:08:53Z</time>
      </trkpt>
      <trkpt lat="48.00632" lon="6.72345">
        <ele>416.2</ele>
        <time>2022-07-29T07:08:54Z</time>
      </trkpt>
      <trkpt lat="48.00634" lon="6.72348">
        <ele>416.2</ele>
        <time>2022-07-29T07:08:55Z</time>
      </trkpt>
      <trkpt lat="48.00636" lon="6.72352">
        <ele>416</ele>
        <time>2022-07-29T07:08:56Z</time>
      </trkpt>
      <trkpt lat="48.00637" lon="6.72355">
        <ele>416</ele>
        <time>2022-07-29T07:08:57Z</time>
      </trkpt>
      <trkpt lat="48.00639" lon="6.72358">
        <ele>415.8</ele>
        <time>2022-07-29T07:08:58Z</time>
      </trkpt>
      <trkpt lat="48.00641" lon="6.72361">
        <ele>415.8</ele>
        <time>2022-07-29T07:08:59Z</time>
      </trkpt>
      <trkpt lat="48.00644" lon="6.72364">
        <ele>415.8</ele>
        <time>2022-07-29T07:09:00Z</time>
      </trkpt>
      <trkpt lat="48.00647" lon="6.72366">
        <ele>415.8</ele>
        <time>2022-07-29T07:09:01Z</time>
      </trkpt>
      <trkpt lat="48.00649" lon="6.72369">
        <ele>415.8</ele>
        <time>2022-07-29T07:09:02Z</time>
      </trkpt>
      <trkpt lat="48.00652" lon="6.72371">
        <ele>415.8</ele>
        <time>2022-07-29T07:09:03Z</time>
      </trkpt>
      <trkpt lat="48.00655" lon="6.72373">
        <ele>415.8</ele>
        <time>2022-07-29T07:09:04Z</time>
      </trkpt>
      <trkpt lat="48.00671" lon="6.72379">
        <ele>416</ele>
        <time>2022-07-29T07:09:10Z</time>
      </trkpt>
      <trkpt lat="48.00676" lon="6.72379">
        <ele>416.2</ele>
        <time>2022-07-29T07:09:12Z</time>
      </trkpt>
      <trkpt lat="48.00681" lon="6.72378">
        <ele>416.2</ele>
        <time>2022-07-29T07:09:14Z</time>
      </trkpt>
      <trkpt lat="48.00683" lon="6.72378">
        <ele>416.4</ele>
        <time>2022-07-29T07:09:15Z</time>
      </trkpt>
      <trkpt lat="48.00686" lon="6.72378">
        <ele>416.4</ele>
        <time>2022-07-29T07:09:16Z</time>
      </trkpt>
      <trkpt lat="48.00688" lon="6.72378">
        <ele>416.6</ele>
        <time>2022-07-29T07:09:17Z</time>
      </trkpt>
      <trkpt lat="48.0069" lon="6.72378">
        <ele>416.6</ele>
        <time>2022-07-29T07:09:18Z</time>
      </trkpt>
      <trkpt lat="48.00693" lon="6.72379">
        <ele>416.6</ele>
        <time>2022-07-29T07:09:19Z</time>
      </trkpt>
      <trkpt lat="48.00698" lon="6.7238">
        <ele>416.6</ele>
        <time>2022-07-29T07:09:21Z</time>
      </trkpt>
      <trkpt lat="48.00707" lon="6.72383">
        <ele>416.8</ele>
        <time>2022-07-29T07:09:24Z</time>
      </trkpt>
      <trkpt lat="48.00726" lon="6.72391">
        <ele>416.6</ele>
        <time>2022-07-29T07:09:29Z</time>
      </trkpt>
      <trkpt lat="48.00731" lon="6.72392">
        <ele>416.6</ele>
        <time>2022-07-29T07:09:30Z</time>
      </trkpt>
      <trkpt lat="48.00746" lon="6.72396">
        <ele>416.2</ele>
        <time>2022-07-29T07:09:33Z</time>
      </trkpt>
      <trkpt lat="48.00756" lon="6.72401">
        <ele>415.8</ele>
        <time>2022-07-29T07:09:35Z</time>
      </trkpt>
      <trkpt lat="48.00767" lon="6.7241">
        <ele>415.4</ele>
        <time>2022-07-29T07:09:37Z</time>
      </trkpt>
      <trkpt lat="48.00772" lon="6.72416">
        <ele>415.2</ele>
        <time>2022-07-29T07:09:38Z</time>
      </trkpt>
      <trkpt lat="48.00775" lon="6.72422">
        <ele>414.6</ele>
        <time>2022-07-29T07:09:39Z</time>
      </trkpt>
      <trkpt lat="48.00779" lon="6.72429">
        <ele>414.2</ele>
        <time>2022-07-29T07:09:40Z</time>
      </trkpt>
      <trkpt lat="48.00782" lon="6.72435">
        <ele>413.6</ele>
        <time>2022-07-29T07:09:41Z</time>
      </trkpt>
      <trkpt lat="48.00785" lon="6.72441">
        <ele>413.6</ele>
        <time>2022-07-29T07:09:42Z</time>
      </trkpt>
      <trkpt lat="48.00788" lon="6.72446">
        <ele>413.2</ele>
        <time>2022-07-29T07:09:43Z</time>
      </trkpt>
      <trkpt lat="48.00791" lon="6.72452">
        <ele>413</ele>
        <time>2022-07-29T07:09:44Z</time>
      </trkpt>
      <trkpt lat="48.00794" lon="6.72457">
        <ele>413</ele>
        <time>2022-07-29T07:09:45Z</time>
      </trkpt>
      <trkpt lat="48.00795" lon="6.72463">
        <ele>412.8</ele>
        <time>2022-07-29T07:09:46Z</time>
      </trkpt>
      <trkpt lat="48.00794" lon="6.7247">
        <ele>412.8</ele>
        <time>2022-07-29T07:09:47Z</time>
      </trkpt>
      <trkpt lat="48.00793" lon="6.72475">
        <ele>412.8</ele>
        <time>2022-07-29T07:09:48Z</time>
      </trkpt>
      <trkpt lat="48.00791" lon="6.7248">
        <ele>412.8</ele>
        <time>2022-07-29T07:09:49Z</time>
      </trkpt>
      <trkpt lat="48.00789" lon="6.72484">
        <ele>412.6</ele>
        <time>2022-07-29T07:09:50Z</time>
      </trkpt>
      <trkpt lat="48.00787" lon="6.72487">
        <ele>412.6</ele>
        <time>2022-07-29T07:09:51Z</time>
      </trkpt>
      <trkpt lat="48.00785" lon="6.72491">
        <ele>412.6</ele>
        <time>2022-07-29T07:09:52Z</time>
      </trkpt>
      <trkpt lat="48.00783" lon="6.72494">
        <ele>412.6</ele>
        <time>2022-07-29T07:09:53Z</time>
      </trkpt>
      <trkpt lat="48.00781" lon="6.72498">
        <ele>412.4</ele>
        <time>2022-07-29T07:09:54Z</time>
      </trkpt>
      <trkpt lat="48.00778" lon="6.72506">
        <ele>412.4</ele>
        <time>2022-07-29T07:09:56Z</time>
      </trkpt>
      <trkpt lat="48.00777" lon="6.72509">
        <ele>412.4</ele>
        <time>2022-07-29T07:09:57Z</time>
      </trkpt>
      <trkpt lat="48.00775" lon="6.72518">
        <ele>412.4</ele>
        <time>2022-07-29T07:09:59Z</time>
      </trkpt>
      <trkpt lat="48.00773" lon="6.72522">
        <ele>412.4</ele>
        <time>2022-07-29T07:10:00Z</time>
      </trkpt>
      <trkpt lat="48.00773" lon="6.72527">
        <ele>412.4</ele>
        <time>2022-07-29T07:10:01Z</time>
      </trkpt>
      <trkpt lat="48.00772" lon="6.72531">
        <ele>412.6</ele>
        <time>2022-07-29T07:10:02Z</time>
      </trkpt>
      <trkpt lat="48.00771" lon="6.72535">
        <ele>412.6</ele>
        <time>2022-07-29T07:10:03Z</time>
      </trkpt>
      <trkpt lat="48.00771" lon="6.7254">
        <ele>412.6</ele>
        <time>2022-07-29T07:10:04Z</time>
      </trkpt>
      <trkpt lat="48.00771" lon="6.72544">
        <ele>412.8</ele>
        <time>2022-07-29T07:10:05Z</time>
      </trkpt>
      <trkpt lat="48.00772" lon="6.72548">
        <ele>412.8</ele>
        <time>2022-07-29T07:10:06Z</time>
      </trkpt>
      <trkpt lat="48.00773" lon="6.72552">
        <ele>413</ele>
        <time>2022-07-29T07:10:07Z</time>
      </trkpt>
      <trkpt lat="48.00774" lon="6.72555">
        <ele>413</ele>
        <time>2022-07-29T07:10:08Z</time>
      </trkpt>
      <trkpt lat="48.00776" lon="6.72558">
        <ele>413.2</ele>
        <time>2022-07-29T07:10:09Z</time>
      </trkpt>
      <trkpt lat="48.00778" lon="6.72561">
        <ele>413.2</ele>
        <time>2022-07-29T07:10:10Z</time>
      </trkpt>
      <trkpt lat="48.0078" lon="6.72564">
        <ele>413.4</ele>
        <time>2022-07-29T07:10:11Z</time>
      </trkpt>
      <trkpt lat="48.00782" lon="6.72566">
        <ele>413.6</ele>
        <time>2022-07-29T07:10:12Z</time>
      </trkpt>
      <trkpt lat="48.00783" lon="6.72569">
        <ele>413.6</ele>
        <time>2022-07-29T07:10:13Z</time>
      </trkpt>
      <trkpt lat="48.00784" lon="6.72572">
        <ele>413.6</ele>
        <time>2022-07-29T07:10:14Z</time>
      </trkpt>
      <trkpt lat="48.00786" lon="6.72574">
        <ele>413.8</ele>
        <time>2022-07-29T07:10:15Z</time>
      </trkpt>
      <trkpt lat="48.00787" lon="6.72577">
        <ele>414</ele>
        <time>2022-07-29T07:10:16Z</time>
      </trkpt>
      <trkpt lat="48.00789" lon="6.72579">
        <ele>414.4</ele>
        <time>2022-07-29T07:10:17Z</time>
      </trkpt>
      <trkpt lat="48.00791" lon="6.72581">
        <ele>414.6</ele>
        <time>2022-07-29T07:10:18Z</time>
      </trkpt>
      <trkpt lat="48.00792" lon="6.72583">
        <ele>414.8</ele>
        <time>2022-07-29T07:10:19Z</time>
      </trkpt>
      <trkpt lat="48.00794" lon="6.72584">
        <ele>415.2</ele>
        <time>2022-07-29T07:10:20Z</time>
      </trkpt>
      <trkpt lat="48.00795" lon="6.72586">
        <ele>415.2</ele>
        <time>2022-07-29T07:10:21Z</time>
      </trkpt>
      <trkpt lat="48.00797" lon="6.72588">
        <ele>415.4</ele>
        <time>2022-07-29T07:10:22Z</time>
      </trkpt>
      <trkpt lat="48.00798" lon="6.72591">
        <ele>415.6</ele>
        <time>2022-07-29T07:10:23Z</time>
      </trkpt>
      <trkpt lat="48.00799" lon="6.72593">
        <ele>415.6</ele>
        <time>2022-07-29T07:10:24Z</time>
      </trkpt>
      <trkpt lat="48.008" lon="6.72595">
        <ele>415.6</ele>
        <time>2022-07-29T07:10:25Z</time>
      </trkpt>
      <trkpt lat="48.00802" lon="6.72598">
        <ele>415.8</ele>
        <time>2022-07-29T07:10:26Z</time>
      </trkpt>
      <trkpt lat="48.00803" lon="6.72601">
        <ele>416</ele>
        <time>2022-07-29T07:10:27Z</time>
      </trkpt>
      <trkpt lat="48.00804" lon="6.72603">
        <ele>416</ele>
        <time>2022-07-29T07:10:28Z</time>
      </trkpt>
      <trkpt lat="48.00805" lon="6.72605">
        <ele>416.4</ele>
        <time>2022-07-29T07:10:29Z</time>
      </trkpt>
      <trkpt lat="48.00807" lon="6.72607">
        <ele>416.4</ele>
        <time>2022-07-29T07:10:30Z</time>
      </trkpt>
      <trkpt lat="48.00808" lon="6.72609">
        <ele>416.6</ele>
        <time>2022-07-29T07:10:31Z</time>
      </trkpt>
      <trkpt lat="48.00808" lon="6.72613">
        <ele>416.6</ele>
        <time>2022-07-29T07:10:32Z</time>
      </trkpt>
      <trkpt lat="48.00809" lon="6.72615">
        <ele>416.8</ele>
        <time>2022-07-29T07:10:33Z</time>
      </trkpt>
      <trkpt lat="48.00811" lon="6.72619">
        <ele>417</ele>
        <time>2022-07-29T07:10:34Z</time>
      </trkpt>
      <trkpt lat="48.00812" lon="6.7262">
        <ele>417.2</ele>
        <time>2022-07-29T07:10:35Z</time>
      </trkpt>
      <trkpt lat="48.00813" lon="6.72621">
        <ele>417.4</ele>
        <time>2022-07-29T07:10:36Z</time>
      </trkpt>
      <trkpt lat="48.00814" lon="6.72622">
        <ele>417.6</ele>
        <time>2022-07-29T07:10:37Z</time>
      </trkpt>
      <trkpt lat="48.00814" lon="6.72623">
        <ele>418</ele>
        <time>2022-07-29T07:10:38Z</time>
      </trkpt>
      <trkpt lat="48.00816" lon="6.72625">
        <ele>418.2</ele>
        <time>2022-07-29T07:10:39Z</time>
      </trkpt>
      <trkpt lat="48.00817" lon="6.72626">
        <ele>418.4</ele>
        <time>2022-07-29T07:10:40Z</time>
      </trkpt>
      <trkpt lat="48.00819" lon="6.72628">
        <ele>418.6</ele>
        <time>2022-07-29T07:10:41Z</time>
      </trkpt>
      <trkpt lat="48.0082" lon="6.72629">
        <ele>418.6</ele>
        <time>2022-07-29T07:10:42Z</time>
      </trkpt>
      <trkpt lat="48.00821" lon="6.72629">
        <ele>418.8</ele>
        <time>2022-07-29T07:10:43Z</time>
      </trkpt>
      <trkpt lat="48.00823" lon="6.72629">
        <ele>419</ele>
        <time>2022-07-29T07:10:44Z</time>
      </trkpt>
      <trkpt lat="48.00824" lon="6.72629">
        <ele>419.2</ele>
        <time>2022-07-29T07:10:45Z</time>
      </trkpt>
      <trkpt lat="48.00826" lon="6.72629">
        <ele>419.2</ele>
        <time>2022-07-29T07:10:46Z</time>
      </trkpt>
      <trkpt lat="48.00827" lon="6.72629">
        <ele>419.4</ele>
        <time>2022-07-29T07:10:47Z</time>
      </trkpt>
      <trkpt lat="48.00829" lon="6.7263">
        <ele>419.4</ele>
        <time>2022-07-29T07:10:48Z</time>
      </trkpt>
      <trkpt lat="48.0083" lon="6.72631">
        <ele>419.8</ele>
        <time>2022-07-29T07:10:49Z</time>
      </trkpt>
      <trkpt lat="48.0083" lon="6.7263">
        <ele>419.8</ele>
        <time>2022-07-29T07:10:50Z</time>
      </trkpt>
      <trkpt lat="48.00832" lon="6.7263">
        <ele>420.4</ele>
        <time>2022-07-29T07:10:51Z</time>
      </trkpt>
      <trkpt lat="48.00834" lon="6.72631">
        <ele>420.6</ele>
        <time>2022-07-29T07:10:52Z</time>
      </trkpt>
      <trkpt lat="48.00835" lon="6.72631">
        <ele>420.8</ele>
        <time>2022-07-29T07:10:53Z</time>
      </trkpt>
      <trkpt lat="48.00837" lon="6.72632">
        <ele>421.2</ele>
        <time>2022-07-29T07:10:54Z</time>
      </trkpt>
      <trkpt lat="48.00838" lon="6.72632">
        <ele>421.4</ele>
        <time>2022-07-29T07:10:55Z</time>
      </trkpt>
      <trkpt lat="48.00839" lon="6.72633">
        <ele>421.6</ele>
        <time>2022-07-29T07:10:56Z</time>
      </trkpt>
      <trkpt lat="48.0084" lon="6.72633">
        <ele>421.6</ele>
        <time>2022-07-29T07:10:57Z</time>
      </trkpt>
      <trkpt lat="48.00841" lon="6.72635">
        <ele>421.8</ele>
        <time>2022-07-29T07:10:58Z</time>
      </trkpt>
      <trkpt lat="48.00842" lon="6.72637">
        <ele>421.8</ele>
        <time>2022-07-29T07:10:59Z</time>
      </trkpt>
      <trkpt lat="48.00841" lon="6.72638">
        <ele>422</ele>
        <time>2022-07-29T07:11:00Z</time>
      </trkpt>
      <trkpt lat="48.00841" lon="6.72639">
        <ele>422.2</ele>
        <time>2022-07-29T07:11:01Z</time>
      </trkpt>
      <trkpt lat="48.0084" lon="6.7264">
        <ele>422.4</ele>
        <time>2022-07-29T07:11:02Z</time>
      </trkpt>
      <trkpt lat="48.00839" lon="6.72642">
        <ele>422.6</ele>
        <time>2022-07-29T07:11:03Z</time>
      </trkpt>
      <trkpt lat="48.00838" lon="6.72644">
        <ele>422.8</ele>
        <time>2022-07-29T07:11:04Z</time>
      </trkpt>
      <trkpt lat="48.00838" lon="6.72646">
        <ele>423</ele>
        <time>2022-07-29T07:11:05Z</time>
      </trkpt>
      <trkpt lat="48.00837" lon="6.72648">
        <ele>423</ele>
        <time>2022-07-29T07:11:06Z</time>
      </trkpt>
      <trkpt lat="48.00836" lon="6.72651">
        <ele>423.4</ele>
        <time>2022-07-29T07:11:07Z</time>
      </trkpt>
      <trkpt lat="48.00836" lon="6.72653">
        <ele>423.4</ele>
        <time>2022-07-29T07:11:08Z</time>
      </trkpt>
      <trkpt lat="48.00835" lon="6.72655">
        <ele>423.6</ele>
        <time>2022-07-29T07:11:09Z</time>
      </trkpt>
      <trkpt lat="48.00835" lon="6.72657">
        <ele>423.8</ele>
        <time>2022-07-29T07:11:10Z</time>
      </trkpt>
      <trkpt lat="48.00835" lon="6.7266">
        <ele>424</ele>
        <time>2022-07-29T07:11:11Z</time>
      </trkpt>
      <trkpt lat="48.00835" lon="6.72662">
        <ele>424</ele>
        <time>2022-07-29T07:11:12Z</time>
      </trkpt>
      <trkpt lat="48.00834" lon="6.72664">
        <ele>424.2</ele>
        <time>2022-07-29T07:11:13Z</time>
      </trkpt>
      <trkpt lat="48.00834" lon="6.72667">
        <ele>424.6</ele>
        <time>2022-07-29T07:11:14Z</time>
      </trkpt>
      <trkpt lat="48.00833" lon="6.72669">
        <ele>424.8</ele>
        <time>2022-07-29T07:11:15Z</time>
      </trkpt>
      <trkpt lat="48.00833" lon="6.72671">
        <ele>425</ele>
        <time>2022-07-29T07:11:16Z</time>
      </trkpt>
      <trkpt lat="48.00832" lon="6.72673">
        <ele>425</ele>
        <time>2022-07-29T07:11:17Z</time>
      </trkpt>
      <trkpt lat="48.00832" lon="6.72675">
        <ele>425.4</ele>
        <time>2022-07-29T07:11:18Z</time>
      </trkpt>
      <trkpt lat="48.00831" lon="6.72677">
        <ele>425.6</ele>
        <time>2022-07-29T07:11:19Z</time>
      </trkpt>
      <trkpt lat="48.00831" lon="6.72679">
        <ele>425.8</ele>
        <time>2022-07-29T07:11:20Z</time>
      </trkpt>
      <trkpt lat="48.00832" lon="6.72681">
        <ele>426</ele>
        <time>2022-07-29T07:11:21Z</time>
      </trkpt>
      <trkpt lat="48.00833" lon="6.72684">
        <ele>426</ele>
        <time>2022-07-29T07:11:22Z</time>
      </trkpt>
      <trkpt lat="48.00833" lon="6.72685">
        <ele>426.2</ele>
        <time>2022-07-29T07:11:23Z</time>
      </trkpt>
      <trkpt lat="48.00834" lon="6.72687">
        <ele>426.6</ele>
        <time>2022-07-29T07:11:24Z</time>
      </trkpt>
      <trkpt lat="48.00835" lon="6.72688">
        <ele>426.8</ele>
        <time>2022-07-29T07:11:25Z</time>
      </trkpt>
      <trkpt lat="48.00836" lon="6.72688">
        <ele>427</ele>
        <time>2022-07-29T07:11:26Z</time>
      </trkpt>
      <trkpt lat="48.00838" lon="6.72689">
        <ele>427.4</ele>
        <time>2022-07-29T07:11:27Z</time>
      </trkpt>
      <trkpt lat="48.00839" lon="6.72691">
        <ele>427.6</ele>
        <time>2022-07-29T07:11:28Z</time>
      </trkpt>
      <trkpt lat="48.0084" lon="6.72692">
        <ele>427.6</ele>
        <time>2022-07-29T07:11:29Z</time>
      </trkpt>
      <trkpt lat="48.00841" lon="6.72694">
        <ele>427.6</ele>
        <time>2022-07-29T07:11:30Z</time>
      </trkpt>
      <trkpt lat="48.00841" lon="6.72696">
        <ele>427.6</ele>
        <time>2022-07-29T07:11:31Z</time>
      </trkpt>
      <trkpt lat="48.00841" lon="6.72698">
        <ele>427.8</ele>
        <time>2022-07-29T07:11:32Z</time>
      </trkpt>
      <trkpt lat="48.0084" lon="6.727">
        <ele>427.8</ele>
        <time>2022-07-29T07:11:33Z</time>
      </trkpt>
      <trkpt lat="48.0084" lon="6.72702">
        <ele>427.8</ele>
        <time>2022-07-29T07:11:34Z</time>
      </trkpt>
      <trkpt lat="48.00841" lon="6.72705">
        <ele>427.8</ele>
        <time>2022-07-29T07:11:35Z</time>
      </trkpt>
      <trkpt lat="48.00841" lon="6.72707">
        <ele>428</ele>
        <time>2022-07-29T07:11:36Z</time>
      </trkpt>
      <trkpt lat="48.00842" lon="6.72709">
        <ele>428.2</ele>
        <time>2022-07-29T07:11:37Z</time>
      </trkpt>
      <trkpt lat="48.00842" lon="6.7271">
        <ele>428.2</ele>
        <time>2022-07-29T07:11:38Z</time>
      </trkpt>
      <trkpt lat="48.00842" lon="6.72713">
        <ele>428.4</ele>
        <time>2022-07-29T07:11:39Z</time>
      </trkpt>
      <trkpt lat="48.00842" lon="6.72716">
        <ele>428.4</ele>
        <time>2022-07-29T07:11:40Z</time>
      </trkpt>
      <trkpt lat="48.00842" lon="6.72718">
        <ele>429</ele>
        <time>2022-07-29T07:11:41Z</time>
      </trkpt>
      <trkpt lat="48.00842" lon="6.7272">
        <ele>429.2</ele>
        <time>2022-07-29T07:11:42Z</time>
      </trkpt>
      <trkpt lat="48.00842" lon="6.72723">
        <ele>429.4</ele>
        <time>2022-07-29T07:11:43Z</time>
      </trkpt>
      <trkpt lat="48.00841" lon="6.72725">
        <ele>429.6</ele>
        <time>2022-07-29T07:11:44Z</time>
      </trkpt>
      <trkpt lat="48.0084" lon="6.72727">
        <ele>429.8</ele>
        <time>2022-07-29T07:11:45Z</time>
      </trkpt>
      <trkpt lat="48.00839" lon="6.72728">
        <ele>430</ele>
        <time>2022-07-29T07:11:46Z</time>
      </trkpt>
      <trkpt lat="48.00838" lon="6.72729">
        <ele>430.2</ele>
        <time>2022-07-29T07:11:47Z</time>
      </trkpt>
      <trkpt lat="48.00837" lon="6.72732">
        <ele>430.2</ele>
        <time>2022-07-29T07:11:48Z</time>
      </trkpt>
      <trkpt lat="48.00836" lon="6.72734">
        <ele>430.2</ele>
        <time>2022-07-29T07:11:49Z</time>
      </trkpt>
      <trkpt lat="48.00836" lon="6.72737">
        <ele>430.6</ele>
        <time>2022-07-29T07:11:50Z</time>
      </trkpt>
      <trkpt lat="48.00835" lon="6.72739">
        <ele>430.6</ele>
        <time>2022-07-29T07:11:51Z</time>
      </trkpt>
      <trkpt lat="48.00835" lon="6.72741">
        <ele>430.8</ele>
        <time>2022-07-29T07:11:52Z</time>
      </trkpt>
      <trkpt lat="48.00835" lon="6.72743">
        <ele>431</ele>
        <time>2022-07-29T07:11:53Z</time>
      </trkpt>
      <trkpt lat="48.00835" lon="6.72745">
        <ele>431</ele>
        <time>2022-07-29T07:11:54Z</time>
      </trkpt>
      <trkpt lat="48.00837" lon="6.72748">
        <ele>431</ele>
        <time>2022-07-29T07:11:55Z</time>
      </trkpt>
      <trkpt lat="48.00838" lon="6.72751">
        <ele>431.2</ele>
        <time>2022-07-29T07:11:56Z</time>
      </trkpt>
      <trkpt lat="48.00839" lon="6.72753">
        <ele>431.2</ele>
        <time>2022-07-29T07:11:57Z</time>
      </trkpt>
      <trkpt lat="48.00839" lon="6.72754">
        <ele>431.2</ele>
        <time>2022-07-29T07:11:58Z</time>
      </trkpt>
      <trkpt lat="48.0084" lon="6.72756">
        <ele>431.6</ele>
        <time>2022-07-29T07:11:59Z</time>
      </trkpt>
      <trkpt lat="48.00841" lon="6.72758">
        <ele>431.6</ele>
        <time>2022-07-29T07:12:00Z</time>
      </trkpt>
      <trkpt lat="48.00841" lon="6.72759">
        <ele>432</ele>
        <time>2022-07-29T07:12:01Z</time>
      </trkpt>
      <trkpt lat="48.00842" lon="6.72761">
        <ele>432</ele>
        <time>2022-07-29T07:12:02Z</time>
      </trkpt>
      <trkpt lat="48.00843" lon="6.72763">
        <ele>432.2</ele>
        <time>2022-07-29T07:12:03Z</time>
      </trkpt>
      <trkpt lat="48.00844" lon="6.72765">
        <ele>432.6</ele>
        <time>2022-07-29T07:12:04Z</time>
      </trkpt>
      <trkpt lat="48.00845" lon="6.72767">
        <ele>432.8</ele>
        <time>2022-07-29T07:12:05Z</time>
      </trkpt>
      <trkpt lat="48.00846" lon="6.72769">
        <ele>433</ele>
        <time>2022-07-29T07:12:06Z</time>
      </trkpt>
      <trkpt lat="48.00847" lon="6.72771">
        <ele>433.2</ele>
        <time>2022-07-29T07:12:07Z</time>
      </trkpt>
      <trkpt lat="48.00848" lon="6.72773">
        <ele>433.4</ele>
        <time>2022-07-29T07:12:08Z</time>
      </trkpt>
      <trkpt lat="48.00849" lon="6.72776">
        <ele>433.6</ele>
        <time>2022-07-29T07:12:09Z</time>
      </trkpt>
      <trkpt lat="48.00851" lon="6.72778">
        <ele>433.8</ele>
        <time>2022-07-29T07:12:10Z</time>
      </trkpt>
      <trkpt lat="48.00852" lon="6.72779">
        <ele>434</ele>
        <time>2022-07-29T07:12:11Z</time>
      </trkpt>
      <trkpt lat="48.00853" lon="6.7278">
        <ele>434.2</ele>
        <time>2022-07-29T07:12:12Z</time>
      </trkpt>
      <trkpt lat="48.00853" lon="6.72782">
        <ele>434.6</ele>
        <time>2022-07-29T07:12:13Z</time>
      </trkpt>
      <trkpt lat="48.00854" lon="6.72785">
        <ele>434.8</ele>
        <time>2022-07-29T07:12:14Z</time>
      </trkpt>
      <trkpt lat="48.00854" lon="6.72787">
        <ele>435.2</ele>
        <time>2022-07-29T07:12:15Z</time>
      </trkpt>
      <trkpt lat="48.00854" lon="6.7279">
        <ele>435.4</ele>
        <time>2022-07-29T07:12:16Z</time>
      </trkpt>
      <trkpt lat="48.00854" lon="6.72792">
        <ele>435.8</ele>
        <time>2022-07-29T07:12:17Z</time>
      </trkpt>
      <trkpt lat="48.00855" lon="6.72794">
        <ele>436</ele>
        <time>2022-07-29T07:12:18Z</time>
      </trkpt>
      <trkpt lat="48.00855" lon="6.72796">
        <ele>436.2</ele>
        <time>2022-07-29T07:12:19Z</time>
      </trkpt>
      <trkpt lat="48.00856" lon="6.72799">
        <ele>436.8</ele>
        <time>2022-07-29T07:12:20Z</time>
      </trkpt>
      <trkpt lat="48.00856" lon="6.72801">
        <ele>436.8</ele>
        <time>2022-07-29T07:12:21Z</time>
      </trkpt>
      <trkpt lat="48.00856" lon="6.72803">
        <ele>437.2</ele>
        <time>2022-07-29T07:12:22Z</time>
      </trkpt>
      <trkpt lat="48.00856" lon="6.72805">
        <ele>437.4</ele>
        <time>2022-07-29T07:12:23Z</time>
      </trkpt>
      <trkpt lat="48.00856" lon="6.72808">
        <ele>437.6</ele>
        <time>2022-07-29T07:12:24Z</time>
      </trkpt>
      <trkpt lat="48.00856" lon="6.7281">
        <ele>437.6</ele>
        <time>2022-07-29T07:12:25Z</time>
      </trkpt>
      <trkpt lat="48.00856" lon="6.72813">
        <ele>437.6</ele>
        <time>2022-07-29T07:12:26Z</time>
      </trkpt>
      <trkpt lat="48.00856" lon="6.72814">
        <ele>437.6</ele>
        <time>2022-07-29T07:12:27Z</time>
      </trkpt>
      <trkpt lat="48.00856" lon="6.72816">
        <ele>437.8</ele>
        <time>2022-07-29T07:12:28Z</time>
      </trkpt>
      <trkpt lat="48.00855" lon="6.72819">
        <ele>437.8</ele>
        <time>2022-07-29T07:12:29Z</time>
      </trkpt>
      <trkpt lat="48.00855" lon="6.72821">
        <ele>438</ele>
        <time>2022-07-29T07:12:30Z</time>
      </trkpt>
      <trkpt lat="48.00854" lon="6.72823">
        <ele>438</ele>
        <time>2022-07-29T07:12:31Z</time>
      </trkpt>
      <trkpt lat="48.00854" lon="6.72825">
        <ele>438.2</ele>
        <time>2022-07-29T07:12:32Z</time>
      </trkpt>
      <trkpt lat="48.00853" lon="6.72827">
        <ele>438.4</ele>
        <time>2022-07-29T07:12:33Z</time>
      </trkpt>
      <trkpt lat="48.00852" lon="6.72829">
        <ele>438.4</ele>
        <time>2022-07-29T07:12:34Z</time>
      </trkpt>
      <trkpt lat="48.00851" lon="6.72831">
        <ele>438.6</ele>
        <time>2022-07-29T07:12:35Z</time>
      </trkpt>
      <trkpt lat="48.0085" lon="6.72833">
        <ele>438.6</ele>
        <time>2022-07-29T07:12:36Z</time>
      </trkpt>
      <trkpt lat="48.00849" lon="6.72834">
        <ele>438.8</ele>
        <time>2022-07-29T07:12:37Z</time>
      </trkpt>
      <trkpt lat="48.00849" lon="6.72835">
        <ele>439</ele>
        <time>2022-07-29T07:12:38Z</time>
      </trkpt>
      <trkpt lat="48.00848" lon="6.72837">
        <ele>439.2</ele>
        <time>2022-07-29T07:12:39Z</time>
      </trkpt>
      <trkpt lat="48.00847" lon="6.72839">
        <ele>439.8</ele>
        <time>2022-07-29T07:12:40Z</time>
      </trkpt>
      <trkpt lat="48.00846" lon="6.7284">
        <ele>440</ele>
        <time>2022-07-29T07:12:41Z</time>
      </trkpt>
      <trkpt lat="48.00844" lon="6.72842">
        <ele>440.6</ele>
        <time>2022-07-29T07:12:42Z</time>
      </trkpt>
      <trkpt lat="48.00843" lon="6.72843">
        <ele>440.8</ele>
        <time>2022-07-29T07:12:43Z</time>
      </trkpt>
      <trkpt lat="48.00842" lon="6.72845">
        <ele>441</ele>
        <time>2022-07-29T07:12:44Z</time>
      </trkpt>
      <trkpt lat="48.00841" lon="6.72847">
        <ele>441.2</ele>
        <time>2022-07-29T07:12:45Z</time>
      </trkpt>
      <trkpt lat="48.0084" lon="6.72849">
        <ele>441.4</ele>
        <time>2022-07-29T07:12:46Z</time>
      </trkpt>
      <trkpt lat="48.00839" lon="6.7285">
        <ele>441.6</ele>
        <time>2022-07-29T07:12:47Z</time>
      </trkpt>
      <trkpt lat="48.00837" lon="6.72852">
        <ele>441.6</ele>
        <time>2022-07-29T07:12:48Z</time>
      </trkpt>
      <trkpt lat="48.00836" lon="6.72854">
        <ele>442</ele>
        <time>2022-07-29T07:12:49Z</time>
      </trkpt>
      <trkpt lat="48.00836" lon="6.72855">
        <ele>442</ele>
        <time>2022-07-29T07:12:50Z</time>
      </trkpt>
      <trkpt lat="48.00835" lon="6.72856">
        <ele>442.4</ele>
        <time>2022-07-29T07:12:51Z</time>
      </trkpt>
      <trkpt lat="48.00835" lon="6.72858">
        <ele>442.6</ele>
        <time>2022-07-29T07:12:52Z</time>
      </trkpt>
      <trkpt lat="48.00834" lon="6.72861">
        <ele>442.6</ele>
        <time>2022-07-29T07:12:53Z</time>
      </trkpt>
      <trkpt lat="48.00834" lon="6.72863">
        <ele>442.8</ele>
        <time>2022-07-29T07:12:54Z</time>
      </trkpt>
      <trkpt lat="48.00833" lon="6.72864">
        <ele>443</ele>
        <time>2022-07-29T07:12:55Z</time>
      </trkpt>
      <trkpt lat="48.00833" lon="6.72867">
        <ele>443.2</ele>
        <time>2022-07-29T07:12:56Z</time>
      </trkpt>
      <trkpt lat="48.00832" lon="6.72868">
        <ele>443.2</ele>
        <time>2022-07-29T07:12:57Z</time>
      </trkpt>
      <trkpt lat="48.00831" lon="6.72868">
        <ele>443.2</ele>
        <time>2022-07-29T07:12:58Z</time>
      </trkpt>
      <trkpt lat="48.0083" lon="6.72867">
        <ele>443.4</ele>
        <time>2022-07-29T07:12:59Z</time>
      </trkpt>
      <trkpt lat="48.0083" lon="6.72866">
        <ele>443.4</ele>
        <time>2022-07-29T07:13:00Z</time>
      </trkpt>
      <trkpt lat="48.00829" lon="6.72865">
        <ele>443.4</ele>
        <time>2022-07-29T07:13:01Z</time>
      </trkpt>
      <trkpt lat="48.00829" lon="6.72865">
        <ele>443.4</ele>
        <time>2022-07-29T07:13:02Z</time>
      </trkpt>
      <trkpt lat="48.00829" lon="6.72864">
        <ele>443.4</ele>
        <time>2022-07-29T07:13:04Z</time>
      </trkpt>
      <trkpt lat="48.00828" lon="6.72864">
        <ele>443.2</ele>
        <time>2022-07-29T07:13:17Z</time>
      </trkpt>
      <trkpt lat="48.00825" lon="6.72859">
        <ele>443.4</ele>
        <time>2022-07-29T07:13:20Z</time>
      </trkpt>
      <trkpt lat="48.00823" lon="6.72856">
        <ele>443.4</ele>
        <time>2022-07-29T07:13:22Z</time>
      </trkpt>
      <trkpt lat="48.00822" lon="6.72855">
        <ele>443.4</ele>
        <time>2022-07-29T07:13:23Z</time>
      </trkpt>
      <trkpt lat="48.00819" lon="6.72854">
        <ele>443.4</ele>
        <time>2022-07-29T07:13:25Z</time>
      </trkpt>
      <trkpt lat="48.00817" lon="6.72854">
        <ele>443.4</ele>
        <time>2022-07-29T07:13:26Z</time>
      </trkpt>
      <trkpt lat="48.00812" lon="6.7285">
        <ele>443.6</ele>
        <time>2022-07-29T07:13:29Z</time>
      </trkpt>
      <trkpt lat="48.00806" lon="6.72849">
        <ele>443.6</ele>
        <time>2022-07-29T07:13:32Z</time>
      </trkpt>
      <trkpt lat="48.00792" lon="6.72852">
        <ele>443.8</ele>
        <time>2022-07-29T07:13:39Z</time>
      </trkpt>
      <trkpt lat="48.00791" lon="6.72851">
        <ele>444</ele>
        <time>2022-07-29T07:13:40Z</time>
      </trkpt>
      <trkpt lat="48.00789" lon="6.7285">
        <ele>444.2</ele>
        <time>2022-07-29T07:13:41Z</time>
      </trkpt>
      <trkpt lat="48.00787" lon="6.72848">
        <ele>444.2</ele>
        <time>2022-07-29T07:13:42Z</time>
      </trkpt>
      <trkpt lat="48.00784" lon="6.72846">
        <ele>444.4</ele>
        <time>2022-07-29T07:13:43Z</time>
      </trkpt>
      <trkpt lat="48.00779" lon="6.72841">
        <ele>444.6</ele>
        <time>2022-07-29T07:13:45Z</time>
      </trkpt>
      <trkpt lat="48.00771" lon="6.72829">
        <ele>444.6</ele>
        <time>2022-07-29T07:13:48Z</time>
      </trkpt>
      <trkpt lat="48.00769" lon="6.72825">
        <ele>444.6</ele>
        <time>2022-07-29T07:13:49Z</time>
      </trkpt>
      <trkpt lat="48.00761" lon="6.72814">
        <ele>444.2</ele>
        <time>2022-07-29T07:13:52Z</time>
      </trkpt>
      <trkpt lat="48.00758" lon="6.72811">
        <ele>444.2</ele>
        <time>2022-07-29T07:13:53Z</time>
      </trkpt>
      <trkpt lat="48.00754" lon="6.72809">
        <ele>444</ele>
        <time>2022-07-29T07:13:54Z</time>
      </trkpt>
      <trkpt lat="48.0075" lon="6.72807">
        <ele>444</ele>
        <time>2022-07-29T07:13:55Z</time>
      </trkpt>
      <trkpt lat="48.00747" lon="6.72806">
        <ele>443.8</ele>
        <time>2022-07-29T07:13:56Z</time>
      </trkpt>
      <trkpt lat="48.00734" lon="6.72798">
        <ele>443.8</ele>
        <time>2022-07-29T07:14:00Z</time>
      </trkpt>
      <trkpt lat="48.0073" lon="6.72795">
        <ele>443.8</ele>
        <time>2022-07-29T07:14:01Z</time>
      </trkpt>
      <trkpt lat="48.00728" lon="6.72794">
        <ele>443.8</ele>
        <time>2022-07-29T07:14:02Z</time>
      </trkpt>
      <trkpt lat="48.00725" lon="6.72793">
        <ele>443.8</ele>
        <time>2022-07-29T07:14:03Z</time>
      </trkpt>
      <trkpt lat="48.00723" lon="6.72792">
        <ele>444</ele>
        <time>2022-07-29T07:14:04Z</time>
      </trkpt>
      <trkpt lat="48.00719" lon="6.72791">
        <ele>444</ele>
        <time>2022-07-29T07:14:05Z</time>
      </trkpt>
      <trkpt lat="48.0071" lon="6.72788">
        <ele>444</ele>
        <time>2022-07-29T07:14:08Z</time>
      </trkpt>
      <trkpt lat="48.00706" lon="6.72784">
        <ele>444.4</ele>
        <time>2022-07-29T07:14:10Z</time>
      </trkpt>
      <trkpt lat="48.00704" lon="6.72782">
        <ele>444.4</ele>
        <time>2022-07-29T07:14:11Z</time>
      </trkpt>
      <trkpt lat="48.00702" lon="6.72779">
        <ele>444.8</ele>
        <time>2022-07-29T07:14:12Z</time>
      </trkpt>
      <trkpt lat="48.00693" lon="6.72769">
        <ele>445.2</ele>
        <time>2022-07-29T07:14:15Z</time>
      </trkpt>
      <trkpt lat="48.00685" lon="6.72762">
        <ele>445.6</ele>
        <time>2022-07-29T07:14:18Z</time>
      </trkpt>
      <trkpt lat="48.00683" lon="6.72762">
        <ele>445.6</ele>
        <time>2022-07-29T07:14:19Z</time>
      </trkpt>
      <trkpt lat="48.00681" lon="6.72763">
        <ele>445.8</ele>
        <time>2022-07-29T07:14:20Z</time>
      </trkpt>
      <trkpt lat="48.00677" lon="6.72763">
        <ele>445.8</ele>
        <time>2022-07-29T07:14:21Z</time>
      </trkpt>
      <trkpt lat="48.00674" lon="6.72762">
        <ele>445.8</ele>
        <time>2022-07-29T07:14:22Z</time>
      </trkpt>
      <trkpt lat="48.00671" lon="6.72759">
        <ele>445.8</ele>
        <time>2022-07-29T07:14:23Z</time>
      </trkpt>
      <trkpt lat="48.00668" lon="6.72756">
        <ele>446.2</ele>
        <time>2022-07-29T07:14:24Z</time>
      </trkpt>
      <trkpt lat="48.00666" lon="6.72755">
        <ele>446.4</ele>
        <time>2022-07-29T07:14:25Z</time>
      </trkpt>
      <trkpt lat="48.00666" lon="6.72753">
        <ele>446.6</ele>
        <time>2022-07-29T07:14:26Z</time>
      </trkpt>
      <trkpt lat="48.00665" lon="6.72752">
        <ele>446.6</ele>
        <time>2022-07-29T07:14:27Z</time>
      </trkpt>
      <trkpt lat="48.00663" lon="6.72752">
        <ele>447</ele>
        <time>2022-07-29T07:14:28Z</time>
      </trkpt>
      <trkpt lat="48.00661" lon="6.72752">
        <ele>447</ele>
        <time>2022-07-29T07:14:29Z</time>
      </trkpt>
      <trkpt lat="48.00658" lon="6.72752">
        <ele>447.2</ele>
        <time>2022-07-29T07:14:30Z</time>
      </trkpt>
      <trkpt lat="48.00655" lon="6.72753">
        <ele>447.4</ele>
        <time>2022-07-29T07:14:31Z</time>
      </trkpt>
      <trkpt lat="48.00653" lon="6.72753">
        <ele>447.6</ele>
        <time>2022-07-29T07:14:32Z</time>
      </trkpt>
      <trkpt lat="48.0065" lon="6.72753">
        <ele>448.2</ele>
        <time>2022-07-29T07:14:33Z</time>
      </trkpt>
      <trkpt lat="48.00647" lon="6.72753">
        <ele>448.4</ele>
        <time>2022-07-29T07:14:34Z</time>
      </trkpt>
      <trkpt lat="48.00644" lon="6.72753">
        <ele>448.6</ele>
        <time>2022-07-29T07:14:35Z</time>
      </trkpt>
      <trkpt lat="48.00643" lon="6.72752">
        <ele>448.6</ele>
        <time>2022-07-29T07:14:36Z</time>
      </trkpt>
      <trkpt lat="48.0064" lon="6.72751">
        <ele>448.8</ele>
        <time>2022-07-29T07:14:37Z</time>
      </trkpt>
      <trkpt lat="48.00639" lon="6.7275">
        <ele>448.8</ele>
        <time>2022-07-29T07:14:38Z</time>
      </trkpt>
      <trkpt lat="48.00636" lon="6.72749">
        <ele>449</ele>
        <time>2022-07-29T07:14:39Z</time>
      </trkpt>
      <trkpt lat="48.00632" lon="6.72749">
        <ele>449</ele>
        <time>2022-07-29T07:14:40Z</time>
      </trkpt>
      <trkpt lat="48.00627" lon="6.72751">
        <ele>449</ele>
        <time>2022-07-29T07:14:41Z</time>
      </trkpt>
      <trkpt lat="48.00622" lon="6.72753">
        <ele>449</ele>
        <time>2022-07-29T07:14:42Z</time>
      </trkpt>
      <trkpt lat="48.00617" lon="6.72757">
        <ele>449</ele>
        <time>2022-07-29T07:14:43Z</time>
      </trkpt>
      <trkpt lat="48.00613" lon="6.7276">
        <ele>449</ele>
        <time>2022-07-29T07:14:44Z</time>
      </trkpt>
      <trkpt lat="48.00609" lon="6.72763">
        <ele>449</ele>
        <time>2022-07-29T07:14:45Z</time>
      </trkpt>
      <trkpt lat="48.00606" lon="6.72766">
        <ele>448.8</ele>
        <time>2022-07-29T07:14:46Z</time>
      </trkpt>
      <trkpt lat="48.00603" lon="6.7277">
        <ele>448.6</ele>
        <time>2022-07-29T07:14:47Z</time>
      </trkpt>
      <trkpt lat="48.006" lon="6.72776">
        <ele>448.2</ele>
        <time>2022-07-29T07:14:48Z</time>
      </trkpt>
      <trkpt lat="48.00596" lon="6.72782">
        <ele>448.2</ele>
        <time>2022-07-29T07:14:49Z</time>
      </trkpt>
      <trkpt lat="48.00592" lon="6.72787">
        <ele>448</ele>
        <time>2022-07-29T07:14:50Z</time>
      </trkpt>
      <trkpt lat="48.00586" lon="6.7279">
        <ele>448</ele>
        <time>2022-07-29T07:14:51Z</time>
      </trkpt>
      <trkpt lat="48.00579" lon="6.72791">
        <ele>447.8</ele>
        <time>2022-07-29T07:14:52Z</time>
      </trkpt>
      <trkpt lat="48.00574" lon="6.72793">
        <ele>447</ele>
        <time>2022-07-29T07:14:53Z</time>
      </trkpt>
      <trkpt lat="48.00568" lon="6.72795">
        <ele>446.8</ele>
        <time>2022-07-29T07:14:54Z</time>
      </trkpt>
      <trkpt lat="48.00564" lon="6.72797">
        <ele>446.4</ele>
        <time>2022-07-29T07:14:55Z</time>
      </trkpt>
      <trkpt lat="48.00561" lon="6.72799">
        <ele>446.4</ele>
        <time>2022-07-29T07:14:56Z</time>
      </trkpt>
      <trkpt lat="48.00559" lon="6.72801">
        <ele>446.4</ele>
        <time>2022-07-29T07:14:57Z</time>
      </trkpt>
      <trkpt lat="48.00557" lon="6.72804">
        <ele>446.2</ele>
        <time>2022-07-29T07:14:58Z</time>
      </trkpt>
      <trkpt lat="48.00556" lon="6.72807">
        <ele>446.2</ele>
        <time>2022-07-29T07:14:59Z</time>
      </trkpt>
      <trkpt lat="48.00554" lon="6.72811">
        <ele>446.6</ele>
        <time>2022-07-29T07:15:00Z</time>
      </trkpt>
      <trkpt lat="48.00553" lon="6.72815">
        <ele>446.8</ele>
        <time>2022-07-29T07:15:01Z</time>
      </trkpt>
      <trkpt lat="48.00549" lon="6.72822">
        <ele>447</ele>
        <time>2022-07-29T07:15:03Z</time>
      </trkpt>
      <trkpt lat="48.00546" lon="6.72827">
        <ele>447.2</ele>
        <time>2022-07-29T07:15:05Z</time>
      </trkpt>
      <trkpt lat="48.00545" lon="6.72831">
        <ele>447.2</ele>
        <time>2022-07-29T07:15:06Z</time>
      </trkpt>
      <trkpt lat="48.00543" lon="6.72834">
        <ele>447.2</ele>
        <time>2022-07-29T07:15:07Z</time>
      </trkpt>
      <trkpt lat="48.00541" lon="6.7284">
        <ele>447.4</ele>
        <time>2022-07-29T07:15:09Z</time>
      </trkpt>
      <trkpt lat="48.00538" lon="6.72846">
        <ele>447.6</ele>
        <time>2022-07-29T07:15:11Z</time>
      </trkpt>
      <trkpt lat="48.00537" lon="6.72849">
        <ele>447.4</ele>
        <time>2022-07-29T07:15:12Z</time>
      </trkpt>
      <trkpt lat="48.00536" lon="6.72852">
        <ele>447.6</ele>
        <time>2022-07-29T07:15:13Z</time>
      </trkpt>
      <trkpt lat="48.00533" lon="6.72861">
        <ele>448</ele>
        <time>2022-07-29T07:15:16Z</time>
      </trkpt>
      <trkpt lat="48.00532" lon="6.72864">
        <ele>448</ele>
        <time>2022-07-29T07:15:17Z</time>
      </trkpt>
      <trkpt lat="48.00531" lon="6.72867">
        <ele>448.2</ele>
        <time>2022-07-29T07:15:18Z</time>
      </trkpt>
      <trkpt lat="48.0053" lon="6.72869">
        <ele>448.4</ele>
        <time>2022-07-29T07:15:19Z</time>
      </trkpt>
      <trkpt lat="48.00528" lon="6.7287">
        <ele>448.6</ele>
        <time>2022-07-29T07:15:20Z</time>
      </trkpt>
      <trkpt lat="48.00526" lon="6.72871">
        <ele>448.6</ele>
        <time>2022-07-29T07:15:21Z</time>
      </trkpt>
      <trkpt lat="48.00524" lon="6.72872">
        <ele>448.6</ele>
        <time>2022-07-29T07:15:22Z</time>
      </trkpt>
      <trkpt lat="48.00522" lon="6.72873">
        <ele>448.6</ele>
        <time>2022-07-29T07:15:23Z</time>
      </trkpt>
      <trkpt lat="48.00519" lon="6.72873">
        <ele>448.6</ele>
        <time>2022-07-29T07:15:24Z</time>
      </trkpt>
      <trkpt lat="48.00517" lon="6.72874">
        <ele>448.6</ele>
        <time>2022-07-29T07:15:25Z</time>
      </trkpt>
      <trkpt lat="48.00515" lon="6.72876">
        <ele>448.4</ele>
        <time>2022-07-29T07:15:26Z</time>
      </trkpt>
      <trkpt lat="48.00511" lon="6.72879">
        <ele>448</ele>
        <time>2022-07-29T07:15:28Z</time>
      </trkpt>
      <trkpt lat="48.0051" lon="6.72881">
        <ele>447.6</ele>
        <time>2022-07-29T07:15:29Z</time>
      </trkpt>
      <trkpt lat="48.00509" lon="6.72883">
        <ele>447.2</ele>
        <time>2022-07-29T07:15:30Z</time>
      </trkpt>
      <trkpt lat="48.00508" lon="6.72886">
        <ele>447</ele>
        <time>2022-07-29T07:15:31Z</time>
      </trkpt>
      <trkpt lat="48.00505" lon="6.72891">
        <ele>446.6</ele>
        <time>2022-07-29T07:15:33Z</time>
      </trkpt>
      <trkpt lat="48.005" lon="6.72914">
        <ele>446.8</ele>
        <time>2022-07-29T07:15:41Z</time>
      </trkpt>
      <trkpt lat="48.00499" lon="6.72916">
        <ele>447.2</ele>
        <time>2022-07-29T07:15:42Z</time>
      </trkpt>
      <trkpt lat="48.00499" lon="6.72919">
        <ele>447.6</ele>
        <time>2022-07-29T07:15:43Z</time>
      </trkpt>
      <trkpt lat="48.00498" lon="6.72921">
        <ele>447.8</ele>
        <time>2022-07-29T07:15:44Z</time>
      </trkpt>
      <trkpt lat="48.00497" lon="6.72924">
        <ele>448.2</ele>
        <time>2022-07-29T07:15:45Z</time>
      </trkpt>
      <trkpt lat="48.00497" lon="6.72926">
        <ele>448.4</ele>
        <time>2022-07-29T07:15:46Z</time>
      </trkpt>
      <trkpt lat="48.00497" lon="6.72928">
        <ele>449</ele>
        <time>2022-07-29T07:15:47Z</time>
      </trkpt>
      <trkpt lat="48.00496" lon="6.7293">
        <ele>449.2</ele>
        <time>2022-07-29T07:15:48Z</time>
      </trkpt>
      <trkpt lat="48.00495" lon="6.72932">
        <ele>449.8</ele>
        <time>2022-07-29T07:15:49Z</time>
      </trkpt>
      <trkpt lat="48.00493" lon="6.72932">
        <ele>450</ele>
        <time>2022-07-29T07:15:50Z</time>
      </trkpt>
      <trkpt lat="48.00492" lon="6.72934">
        <ele>450</ele>
        <time>2022-07-29T07:15:51Z</time>
      </trkpt>
      <trkpt lat="48.00491" lon="6.72935">
        <ele>450.2</ele>
        <time>2022-07-29T07:15:52Z</time>
      </trkpt>
      <trkpt lat="48.00488" lon="6.7294">
        <ele>450.2</ele>
        <time>2022-07-29T07:15:54Z</time>
      </trkpt>
      <trkpt lat="48.00487" lon="6.72942">
        <ele>450.4</ele>
        <time>2022-07-29T07:15:55Z</time>
      </trkpt>
      <trkpt lat="48.00486" lon="6.72944">
        <ele>450.4</ele>
        <time>2022-07-29T07:15:56Z</time>
      </trkpt>
      <trkpt lat="48.00485" lon="6.72947">
        <ele>450.4</ele>
        <time>2022-07-29T07:15:57Z</time>
      </trkpt>
      <trkpt lat="48.00484" lon="6.7295">
        <ele>450.4</ele>
        <time>2022-07-29T07:15:58Z</time>
      </trkpt>
      <trkpt lat="48.00483" lon="6.72952">
        <ele>450.6</ele>
        <time>2022-07-29T07:15:59Z</time>
      </trkpt>
      <trkpt lat="48.00481" lon="6.72954">
        <ele>450.6</ele>
        <time>2022-07-29T07:16:00Z</time>
      </trkpt>
      <trkpt lat="48.0048" lon="6.72955">
        <ele>450.8</ele>
        <time>2022-07-29T07:16:01Z</time>
      </trkpt>
      <trkpt lat="48.00478" lon="6.72955">
        <ele>450.8</ele>
        <time>2022-07-29T07:16:02Z</time>
      </trkpt>
      <trkpt lat="48.00476" lon="6.72956">
        <ele>450.8</ele>
        <time>2022-07-29T07:16:03Z</time>
      </trkpt>
      <trkpt lat="48.00475" lon="6.72958">
        <ele>450.8</ele>
        <time>2022-07-29T07:16:04Z</time>
      </trkpt>
      <trkpt lat="48.00473" lon="6.7296">
        <ele>451</ele>
        <time>2022-07-29T07:16:05Z</time>
      </trkpt>
      <trkpt lat="48.00472" lon="6.72963">
        <ele>451</ele>
        <time>2022-07-29T07:16:06Z</time>
      </trkpt>
      <trkpt lat="48.00471" lon="6.72966">
        <ele>451.2</ele>
        <time>2022-07-29T07:16:07Z</time>
      </trkpt>
      <trkpt lat="48.00471" lon="6.7297">
        <ele>451</ele>
        <time>2022-07-29T07:16:08Z</time>
      </trkpt>
      <trkpt lat="48.00471" lon="6.72974">
        <ele>451</ele>
        <time>2022-07-29T07:16:09Z</time>
      </trkpt>
      <trkpt lat="48.0047" lon="6.72977">
        <ele>450.8</ele>
        <time>2022-07-29T07:16:10Z</time>
      </trkpt>
      <trkpt lat="48.0047" lon="6.7298">
        <ele>450.8</ele>
        <time>2022-07-29T07:16:11Z</time>
      </trkpt>
      <trkpt lat="48.00471" lon="6.72983">
        <ele>451</ele>
        <time>2022-07-29T07:16:12Z</time>
      </trkpt>
      <trkpt lat="48.00472" lon="6.72984">
        <ele>451</ele>
        <time>2022-07-29T07:16:13Z</time>
      </trkpt>
      <trkpt lat="48.00477" lon="6.72986">
        <ele>451</ele>
        <time>2022-07-29T07:16:16Z</time>
      </trkpt>
      <trkpt lat="48.00479" lon="6.72985">
        <ele>451.2</ele>
        <time>2022-07-29T07:16:17Z</time>
      </trkpt>
      <trkpt lat="48.0048" lon="6.72984">
        <ele>451.2</ele>
        <time>2022-07-29T07:16:18Z</time>
      </trkpt>
      <trkpt lat="48.00482" lon="6.72983">
        <ele>451.4</ele>
        <time>2022-07-29T07:16:19Z</time>
      </trkpt>
      <trkpt lat="48.00483" lon="6.72982">
        <ele>451.4</ele>
        <time>2022-07-29T07:16:20Z</time>
      </trkpt>
      <trkpt lat="48.00484" lon="6.72981">
        <ele>451.6</ele>
        <time>2022-07-29T07:16:21Z</time>
      </trkpt>
      <trkpt lat="48.00486" lon="6.72979">
        <ele>451.6</ele>
        <time>2022-07-29T07:16:22Z</time>
      </trkpt>
      <trkpt lat="48.00487" lon="6.72977">
        <ele>452</ele>
        <time>2022-07-29T07:16:23Z</time>
      </trkpt>
      <trkpt lat="48.00489" lon="6.72976">
        <ele>452.2</ele>
        <time>2022-07-29T07:16:24Z</time>
      </trkpt>
      <trkpt lat="48.00492" lon="6.72973">
        <ele>453</ele>
        <time>2022-07-29T07:16:26Z</time>
      </trkpt>
      <trkpt lat="48.00493" lon="6.72971">
        <ele>453.2</ele>
        <time>2022-07-29T07:16:27Z</time>
      </trkpt>
      <trkpt lat="48.00496" lon="6.72964">
        <ele>453.6</ele>
        <time>2022-07-29T07:16:30Z</time>
      </trkpt>
      <trkpt lat="48.00498" lon="6.72963">
        <ele>453.6</ele>
        <time>2022-07-29T07:16:31Z</time>
      </trkpt>
      <trkpt lat="48.00499" lon="6.72961">
        <ele>453.8</ele>
        <time>2022-07-29T07:16:32Z</time>
      </trkpt>
      <trkpt lat="48.00501" lon="6.72959">
        <ele>453.8</ele>
        <time>2022-07-29T07:16:33Z</time>
      </trkpt>
      <trkpt lat="48.00502" lon="6.72958">
        <ele>454</ele>
        <time>2022-07-29T07:16:34Z</time>
      </trkpt>
      <trkpt lat="48.00504" lon="6.72957">
        <ele>454.2</ele>
        <time>2022-07-29T07:16:35Z</time>
      </trkpt>
      <trkpt lat="48.00506" lon="6.72956">
        <ele>454.2</ele>
        <time>2022-07-29T07:16:36Z</time>
      </trkpt>
      <trkpt lat="48.00508" lon="6.72956">
        <ele>454.4</ele>
        <time>2022-07-29T07:16:37Z</time>
      </trkpt>
      <trkpt lat="48.0051" lon="6.72956">
        <ele>454.4</ele>
        <time>2022-07-29T07:16:38Z</time>
      </trkpt>
      <trkpt lat="48.00512" lon="6.72955">
        <ele>454.4</ele>
        <time>2022-07-29T07:16:39Z</time>
      </trkpt>
      <trkpt lat="48.00513" lon="6.72953">
        <ele>454.4</ele>
        <time>2022-07-29T07:16:40Z</time>
      </trkpt>
      <trkpt lat="48.00515" lon="6.72952">
        <ele>454.6</ele>
        <time>2022-07-29T07:16:41Z</time>
      </trkpt>
      <trkpt lat="48.00517" lon="6.72951">
        <ele>454.6</ele>
        <time>2022-07-29T07:16:42Z</time>
      </trkpt>
      <trkpt lat="48.00518" lon="6.72951">
        <ele>454.6</ele>
        <time>2022-07-29T07:16:43Z</time>
      </trkpt>
      <trkpt lat="48.0052" lon="6.7295">
        <ele>455</ele>
        <time>2022-07-29T07:16:44Z</time>
      </trkpt>
      <trkpt lat="48.00521" lon="6.7295">
        <ele>455</ele>
        <time>2022-07-29T07:16:45Z</time>
      </trkpt>
      <trkpt lat="48.00523" lon="6.7295">
        <ele>455.4</ele>
        <time>2022-07-29T07:16:46Z</time>
      </trkpt>
      <trkpt lat="48.00525" lon="6.72949">
        <ele>455.4</ele>
        <time>2022-07-29T07:16:47Z</time>
      </trkpt>
      <trkpt lat="48.00526" lon="6.72948">
        <ele>456</ele>
        <time>2022-07-29T07:16:48Z</time>
      </trkpt>
      <trkpt lat="48.00528" lon="6.72948">
        <ele>456</ele>
        <time>2022-07-29T07:16:49Z</time>
      </trkpt>
      <trkpt lat="48.00529" lon="6.72949">
        <ele>456.4</ele>
        <time>2022-07-29T07:16:50Z</time>
      </trkpt>
      <trkpt lat="48.00531" lon="6.72947">
        <ele>456.2</ele>
        <time>2022-07-29T07:16:51Z</time>
      </trkpt>
      <trkpt lat="48.00532" lon="6.72945">
        <ele>456.2</ele>
        <time>2022-07-29T07:16:52Z</time>
      </trkpt>
      <trkpt lat="48.00534" lon="6.72944">
        <ele>456.4</ele>
        <time>2022-07-29T07:16:53Z</time>
      </trkpt>
      <trkpt lat="48.00536" lon="6.72943">
        <ele>456.4</ele>
        <time>2022-07-29T07:16:54Z</time>
      </trkpt>
      <trkpt lat="48.00538" lon="6.72941">
        <ele>456.4</ele>
        <time>2022-07-29T07:16:55Z</time>
      </trkpt>
      <trkpt lat="48.0054" lon="6.72939">
        <ele>456.4</ele>
        <time>2022-07-29T07:16:56Z</time>
      </trkpt>
      <trkpt lat="48.00541" lon="6.72937">
        <ele>456.4</ele>
        <time>2022-07-29T07:16:57Z</time>
      </trkpt>
      <trkpt lat="48.00543" lon="6.72935">
        <ele>456.6</ele>
        <time>2022-07-29T07:16:58Z</time>
      </trkpt>
      <trkpt lat="48.00544" lon="6.72932">
        <ele>456.6</ele>
        <time>2022-07-29T07:16:59Z</time>
      </trkpt>
      <trkpt lat="48.00545" lon="6.72929">
        <ele>456.6</ele>
        <time>2022-07-29T07:17:00Z</time>
      </trkpt>
      <trkpt lat="48.00546" lon="6.72927">
        <ele>456.6</ele>
        <time>2022-07-29T07:17:01Z</time>
      </trkpt>
      <trkpt lat="48.00548" lon="6.72924">
        <ele>456.8</ele>
        <time>2022-07-29T07:17:02Z</time>
      </trkpt>
      <trkpt lat="48.0055" lon="6.72923">
        <ele>456.8</ele>
        <time>2022-07-29T07:17:03Z</time>
      </trkpt>
      <trkpt lat="48.00551" lon="6.72921">
        <ele>456.8</ele>
        <time>2022-07-29T07:17:04Z</time>
      </trkpt>
      <trkpt lat="48.00553" lon="6.7292">
        <ele>456.8</ele>
        <time>2022-07-29T07:17:05Z</time>
      </trkpt>
      <trkpt lat="48.00555" lon="6.72919">
        <ele>456.8</ele>
        <time>2022-07-29T07:17:06Z</time>
      </trkpt>
      <trkpt lat="48.00557" lon="6.72918">
        <ele>457</ele>
        <time>2022-07-29T07:17:07Z</time>
      </trkpt>
      <trkpt lat="48.00558" lon="6.72916">
        <ele>457</ele>
        <time>2022-07-29T07:17:08Z</time>
      </trkpt>
      <trkpt lat="48.00561" lon="6.72912">
        <ele>457.2</ele>
        <time>2022-07-29T07:17:10Z</time>
      </trkpt>
      <trkpt lat="48.00562" lon="6.7291">
        <ele>457.2</ele>
        <time>2022-07-29T07:17:11Z</time>
      </trkpt>
      <trkpt lat="48.00563" lon="6.72909">
        <ele>457.4</ele>
        <time>2022-07-29T07:17:12Z</time>
      </trkpt>
      <trkpt lat="48.00565" lon="6.72907">
        <ele>457.4</ele>
        <time>2022-07-29T07:17:13Z</time>
      </trkpt>
      <trkpt lat="48.00567" lon="6.72902">
        <ele>457.8</ele>
        <time>2022-07-29T07:17:15Z</time>
      </trkpt>
      <trkpt lat="48.00569" lon="6.729">
        <ele>458</ele>
        <time>2022-07-29T07:17:16Z</time>
      </trkpt>
      <trkpt lat="48.00571" lon="6.72895">
        <ele>458.2</ele>
        <time>2022-07-29T07:17:18Z</time>
      </trkpt>
      <trkpt lat="48.00572" lon="6.72894">
        <ele>458.4</ele>
        <time>2022-07-29T07:17:19Z</time>
      </trkpt>
      <trkpt lat="48.00574" lon="6.72892">
        <ele>458.6</ele>
        <time>2022-07-29T07:17:20Z</time>
      </trkpt>
      <trkpt lat="48.00575" lon="6.7289">
        <ele>458.8</ele>
        <time>2022-07-29T07:17:21Z</time>
      </trkpt>
      <trkpt lat="48.00575" lon="6.72889">
        <ele>458.8</ele>
        <time>2022-07-29T07:17:22Z</time>
      </trkpt>
      <trkpt lat="48.00577" lon="6.72887">
        <ele>458.8</ele>
        <time>2022-07-29T07:17:23Z</time>
      </trkpt>
      <trkpt lat="48.00578" lon="6.72885">
        <ele>458.8</ele>
        <time>2022-07-29T07:17:24Z</time>
      </trkpt>
      <trkpt lat="48.0058" lon="6.72883">
        <ele>459</ele>
        <time>2022-07-29T07:17:25Z</time>
      </trkpt>
      <trkpt lat="48.00581" lon="6.7288">
        <ele>459.2</ele>
        <time>2022-07-29T07:17:26Z</time>
      </trkpt>
      <trkpt lat="48.00583" lon="6.72878">
        <ele>459.4</ele>
        <time>2022-07-29T07:17:27Z</time>
      </trkpt>
      <trkpt lat="48.00585" lon="6.72876">
        <ele>459.4</ele>
        <time>2022-07-29T07:17:28Z</time>
      </trkpt>
      <trkpt lat="48.00588" lon="6.72874">
        <ele>459.4</ele>
        <time>2022-07-29T07:17:29Z</time>
      </trkpt>
      <trkpt lat="48.0059" lon="6.72873">
        <ele>459.6</ele>
        <time>2022-07-29T07:17:30Z</time>
      </trkpt>
      <trkpt lat="48.00592" lon="6.72872">
        <ele>459.6</ele>
        <time>2022-07-29T07:17:31Z</time>
      </trkpt>
      <trkpt lat="48.00595" lon="6.72871">
        <ele>459.6</ele>
        <time>2022-07-29T07:17:32Z</time>
      </trkpt>
      <trkpt lat="48.00597" lon="6.72871">
        <ele>459.6</ele>
        <time>2022-07-29T07:17:33Z</time>
      </trkpt>
      <trkpt lat="48.00599" lon="6.72872">
        <ele>459.8</ele>
        <time>2022-07-29T07:17:34Z</time>
      </trkpt>
      <trkpt lat="48.006" lon="6.72873">
        <ele>459.8</ele>
        <time>2022-07-29T07:17:35Z</time>
      </trkpt>
      <trkpt lat="48.00601" lon="6.72874">
        <ele>460</ele>
        <time>2022-07-29T07:17:36Z</time>
      </trkpt>
      <trkpt lat="48.006" lon="6.72876">
        <ele>460</ele>
        <time>2022-07-29T07:17:37Z</time>
      </trkpt>
      <trkpt lat="48.00599" lon="6.72876">
        <ele>460</ele>
        <time>2022-07-29T07:17:38Z</time>
      </trkpt>
      <trkpt lat="48.00598" lon="6.72876">
        <ele>460.2</ele>
        <time>2022-07-29T07:17:39Z</time>
      </trkpt>
      <trkpt lat="48.00597" lon="6.72877">
        <ele>460.4</ele>
        <time>2022-07-29T07:17:40Z</time>
      </trkpt>
      <trkpt lat="48.00596" lon="6.72878">
        <ele>460.6</ele>
        <time>2022-07-29T07:17:41Z</time>
      </trkpt>
      <trkpt lat="48.00594" lon="6.72879">
        <ele>460.8</ele>
        <time>2022-07-29T07:17:42Z</time>
      </trkpt>
      <trkpt lat="48.00592" lon="6.72879">
        <ele>460.8</ele>
        <time>2022-07-29T07:17:43Z</time>
      </trkpt>
      <trkpt lat="48.0059" lon="6.7288">
        <ele>460.8</ele>
        <time>2022-07-29T07:17:44Z</time>
      </trkpt>
      <trkpt lat="48.00589" lon="6.72881">
        <ele>461</ele>
        <time>2022-07-29T07:17:45Z</time>
      </trkpt>
      <trkpt lat="48.00587" lon="6.72882">
        <ele>461</ele>
        <time>2022-07-29T07:17:46Z</time>
      </trkpt>
      <trkpt lat="48.00585" lon="6.72884">
        <ele>460.8</ele>
        <time>2022-07-29T07:17:47Z</time>
      </trkpt>
      <trkpt lat="48.00584" lon="6.72886">
        <ele>460.8</ele>
        <time>2022-07-29T07:17:48Z</time>
      </trkpt>
      <trkpt lat="48.00582" lon="6.72889">
        <ele>460.8</ele>
        <time>2022-07-29T07:17:49Z</time>
      </trkpt>
      <trkpt lat="48.0058" lon="6.72892">
        <ele>461</ele>
        <time>2022-07-29T07:17:50Z</time>
      </trkpt>
      <trkpt lat="48.00578" lon="6.72895">
        <ele>461</ele>
        <time>2022-07-29T07:17:51Z</time>
      </trkpt>
      <trkpt lat="48.00569" lon="6.72913">
        <ele>460.8</ele>
        <time>2022-07-29T07:17:56Z</time>
      </trkpt>
      <trkpt lat="48.00558" lon="6.72933">
        <ele>460.6</ele>
        <time>2022-07-29T07:18:02Z</time>
      </trkpt>
      <trkpt lat="48.00552" lon="6.72943">
        <ele>460.6</ele>
        <time>2022-07-29T07:18:05Z</time>
      </trkpt>
      <trkpt lat="48.00546" lon="6.72954">
        <ele>460.6</ele>
        <time>2022-07-29T07:18:08Z</time>
      </trkpt>
      <trkpt lat="48.00533" lon="6.72971">
        <ele>460.4</ele>
        <time>2022-07-29T07:18:13Z</time>
      </trkpt>
      <trkpt lat="48.00532" lon="6.72974">
        <ele>460.2</ele>
        <time>2022-07-29T07:18:14Z</time>
      </trkpt>
      <trkpt lat="48.00532" lon="6.72979">
        <ele>460.2</ele>
        <time>2022-07-29T07:18:15Z</time>
      </trkpt>
      <trkpt lat="48.00531" lon="6.72982">
        <ele>460.2</ele>
        <time>2022-07-29T07:18:16Z</time>
      </trkpt>
      <trkpt lat="48.0053" lon="6.72985">
        <ele>460</ele>
        <time>2022-07-29T07:18:17Z</time>
      </trkpt>
      <trkpt lat="48.00528" lon="6.72988">
        <ele>460</ele>
        <time>2022-07-29T07:18:18Z</time>
      </trkpt>
      <trkpt lat="48.00526" lon="6.72989">
        <ele>460</ele>
        <time>2022-07-29T07:18:19Z</time>
      </trkpt>
      <trkpt lat="48.00523" lon="6.72991">
        <ele>460</ele>
        <time>2022-07-29T07:18:20Z</time>
      </trkpt>
      <trkpt lat="48.0052" lon="6.72992">
        <ele>460</ele>
        <time>2022-07-29T07:18:21Z</time>
      </trkpt>
      <trkpt lat="48.00517" lon="6.72993">
        <ele>460</ele>
        <time>2022-07-29T07:18:22Z</time>
      </trkpt>
      <trkpt lat="48.00512" lon="6.72994">
        <ele>460</ele>
        <time>2022-07-29T07:18:24Z</time>
      </trkpt>
      <trkpt lat="48.00509" lon="6.72993">
        <ele>459.8</ele>
        <time>2022-07-29T07:18:25Z</time>
      </trkpt>
      <trkpt lat="48.00506" lon="6.72993">
        <ele>459.8</ele>
        <time>2022-07-29T07:18:26Z</time>
      </trkpt>
      <trkpt lat="48.00503" lon="6.72995">
        <ele>459.8</ele>
        <time>2022-07-29T07:18:27Z</time>
      </trkpt>
      <trkpt lat="48.00501" lon="6.72998">
        <ele>459.6</ele>
        <time>2022-07-29T07:18:28Z</time>
      </trkpt>
      <trkpt lat="48.00499" lon="6.73002">
        <ele>459.4</ele>
        <time>2022-07-29T07:18:29Z</time>
      </trkpt>
      <trkpt lat="48.00497" lon="6.73005">
        <ele>459</ele>
        <time>2022-07-29T07:18:30Z</time>
      </trkpt>
      <trkpt lat="48.00495" lon="6.73009">
        <ele>459</ele>
        <time>2022-07-29T07:18:31Z</time>
      </trkpt>
      <trkpt lat="48.00494" lon="6.73012">
        <ele>458.6</ele>
        <time>2022-07-29T07:18:32Z</time>
      </trkpt>
      <trkpt lat="48.00493" lon="6.73016">
        <ele>458.6</ele>
        <time>2022-07-29T07:18:33Z</time>
      </trkpt>
      <trkpt lat="48.00492" lon="6.7302">
        <ele>458.4</ele>
        <time>2022-07-29T07:18:34Z</time>
      </trkpt>
      <trkpt lat="48.00492" lon="6.73024">
        <ele>458.4</ele>
        <time>2022-07-29T07:18:35Z</time>
      </trkpt>
      <trkpt lat="48.00491" lon="6.73028">
        <ele>458.4</ele>
        <time>2022-07-29T07:18:36Z</time>
      </trkpt>
      <trkpt lat="48.00491" lon="6.73031">
        <ele>458.4</ele>
        <time>2022-07-29T07:18:37Z</time>
      </trkpt>
      <trkpt lat="48.0049" lon="6.73035">
        <ele>458.4</ele>
        <time>2022-07-29T07:18:38Z</time>
      </trkpt>
      <trkpt lat="48.00489" lon="6.73038">
        <ele>458.4</ele>
        <time>2022-07-29T07:18:39Z</time>
      </trkpt>
      <trkpt lat="48.00488" lon="6.7304">
        <ele>458.4</ele>
        <time>2022-07-29T07:18:40Z</time>
      </trkpt>
      <trkpt lat="48.00487" lon="6.73043">
        <ele>458.4</ele>
        <time>2022-07-29T07:18:41Z</time>
      </trkpt>
      <trkpt lat="48.00486" lon="6.73049">
        <ele>458.4</ele>
        <time>2022-07-29T07:18:43Z</time>
      </trkpt>
      <trkpt lat="48.00485" lon="6.73053">
        <ele>458.4</ele>
        <time>2022-07-29T07:18:44Z</time>
      </trkpt>
      <trkpt lat="48.00485" lon="6.73057">
        <ele>458.6</ele>
        <time>2022-07-29T07:18:45Z</time>
      </trkpt>
      <trkpt lat="48.00484" lon="6.73061">
        <ele>458.6</ele>
        <time>2022-07-29T07:18:46Z</time>
      </trkpt>
      <trkpt lat="48.00484" lon="6.73064">
        <ele>458.6</ele>
        <time>2022-07-29T07:18:47Z</time>
      </trkpt>
      <trkpt lat="48.00484" lon="6.73068">
        <ele>458.6</ele>
        <time>2022-07-29T07:18:48Z</time>
      </trkpt>
      <trkpt lat="48.00483" lon="6.73072">
        <ele>458.8</ele>
        <time>2022-07-29T07:18:49Z</time>
      </trkpt>
      <trkpt lat="48.00483" lon="6.73076">
        <ele>458.8</ele>
        <time>2022-07-29T07:18:50Z</time>
      </trkpt>
      <trkpt lat="48.00482" lon="6.73083">
        <ele>459</ele>
        <time>2022-07-29T07:18:52Z</time>
      </trkpt>
      <trkpt lat="48.00481" lon="6.731">
        <ele>459</ele>
        <time>2022-07-29T07:18:56Z</time>
      </trkpt>
      <trkpt lat="48.00483" lon="6.73113">
        <ele>459.2</ele>
        <time>2022-07-29T07:18:59Z</time>
      </trkpt>
      <trkpt lat="48.00486" lon="6.73116">
        <ele>459.2</ele>
        <time>2022-07-29T07:19:00Z</time>
      </trkpt>
      <trkpt lat="48.00488" lon="6.73118">
        <ele>459.4</ele>
        <time>2022-07-29T07:19:01Z</time>
      </trkpt>
      <trkpt lat="48.0049" lon="6.73118">
        <ele>459.4</ele>
        <time>2022-07-29T07:19:02Z</time>
      </trkpt>
      <trkpt lat="48.00495" lon="6.73116">
        <ele>459.6</ele>
        <time>2022-07-29T07:19:04Z</time>
      </trkpt>
      <trkpt lat="48.00496" lon="6.73114">
        <ele>459.8</ele>
        <time>2022-07-29T07:19:05Z</time>
      </trkpt>
      <trkpt lat="48.00496" lon="6.73112">
        <ele>460.2</ele>
        <time>2022-07-29T07:19:06Z</time>
      </trkpt>
      <trkpt lat="48.00497" lon="6.7311">
        <ele>460.4</ele>
        <time>2022-07-29T07:19:07Z</time>
      </trkpt>
      <trkpt lat="48.00497" lon="6.73107">
        <ele>460.8</ele>
        <time>2022-07-29T07:19:08Z</time>
      </trkpt>
      <trkpt lat="48.00497" lon="6.73104">
        <ele>461</ele>
        <time>2022-07-29T07:19:09Z</time>
      </trkpt>
      <trkpt lat="48.00497" lon="6.73101">
        <ele>461.4</ele>
        <time>2022-07-29T07:19:10Z</time>
      </trkpt>
      <trkpt lat="48.00498" lon="6.73098">
        <ele>461.4</ele>
        <time>2022-07-29T07:19:11Z</time>
      </trkpt>
      <trkpt lat="48.00498" lon="6.73094">
        <ele>462</ele>
        <time>2022-07-29T07:19:12Z</time>
      </trkpt>
      <trkpt lat="48.00499" lon="6.73092">
        <ele>462.4</ele>
        <time>2022-07-29T07:19:13Z</time>
      </trkpt>
      <trkpt lat="48.005" lon="6.73089">
        <ele>462.8</ele>
        <time>2022-07-29T07:19:14Z</time>
      </trkpt>
      <trkpt lat="48.005" lon="6.73086">
        <ele>463</ele>
        <time>2022-07-29T07:19:15Z</time>
      </trkpt>
      <trkpt lat="48.005" lon="6.73083">
        <ele>463.2</ele>
        <time>2022-07-29T07:19:16Z</time>
      </trkpt>
      <trkpt lat="48.00501" lon="6.73079">
        <ele>463</ele>
        <time>2022-07-29T07:19:17Z</time>
      </trkpt>
      <trkpt lat="48.00502" lon="6.73076">
        <ele>463.2</ele>
        <time>2022-07-29T07:19:18Z</time>
      </trkpt>
      <trkpt lat="48.00502" lon="6.73073">
        <ele>463.2</ele>
        <time>2022-07-29T07:19:19Z</time>
      </trkpt>
      <trkpt lat="48.00503" lon="6.7307">
        <ele>463.2</ele>
        <time>2022-07-29T07:19:20Z</time>
      </trkpt>
      <trkpt lat="48.00503" lon="6.73067">
        <ele>463.4</ele>
        <time>2022-07-29T07:19:21Z</time>
      </trkpt>
      <trkpt lat="48.00503" lon="6.73064">
        <ele>463.4</ele>
        <time>2022-07-29T07:19:22Z</time>
      </trkpt>
      <trkpt lat="48.00504" lon="6.7306">
        <ele>463.4</ele>
        <time>2022-07-29T07:19:23Z</time>
      </trkpt>
      <trkpt lat="48.00505" lon="6.73057">
        <ele>463.4</ele>
        <time>2022-07-29T07:19:24Z</time>
      </trkpt>
      <trkpt lat="48.00506" lon="6.73056">
        <ele>463.4</ele>
        <time>2022-07-29T07:19:25Z</time>
      </trkpt>
      <trkpt lat="48.00508" lon="6.73056">
        <ele>463.6</ele>
        <time>2022-07-29T07:19:26Z</time>
      </trkpt>
      <trkpt lat="48.00509" lon="6.73057">
        <ele>463.8</ele>
        <time>2022-07-29T07:19:27Z</time>
      </trkpt>
      <trkpt lat="48.0051" lon="6.7306">
        <ele>463.8</ele>
        <time>2022-07-29T07:19:28Z</time>
      </trkpt>
      <trkpt lat="48.0051" lon="6.73064">
        <ele>463.8</ele>
        <time>2022-07-29T07:19:29Z</time>
      </trkpt>
      <trkpt lat="48.0051" lon="6.73067">
        <ele>464</ele>
        <time>2022-07-29T07:19:30Z</time>
      </trkpt>
      <trkpt lat="48.0051" lon="6.73071">
        <ele>464.2</ele>
        <time>2022-07-29T07:19:31Z</time>
      </trkpt>
      <trkpt lat="48.0051" lon="6.73074">
        <ele>464.2</ele>
        <time>2022-07-29T07:19:32Z</time>
      </trkpt>
      <trkpt lat="48.00509" lon="6.73077">
        <ele>464.2</ele>
        <time>2022-07-29T07:19:33Z</time>
      </trkpt>
      <trkpt lat="48.00509" lon="6.7308">
        <ele>464.4</ele>
        <time>2022-07-29T07:19:34Z</time>
      </trkpt>
      <trkpt lat="48.00509" lon="6.73083">
        <ele>464.4</ele>
        <time>2022-07-29T07:19:35Z</time>
      </trkpt>
      <trkpt lat="48.00509" lon="6.73086">
        <ele>464.4</ele>
        <time>2022-07-29T07:19:36Z</time>
      </trkpt>
      <trkpt lat="48.00509" lon="6.73089">
        <ele>464.6</ele>
        <time>2022-07-29T07:19:37Z</time>
      </trkpt>
      <trkpt lat="48.00508" lon="6.73092">
        <ele>464.6</ele>
        <time>2022-07-29T07:19:38Z</time>
      </trkpt>
      <trkpt lat="48.00508" lon="6.73095">
        <ele>464.8</ele>
        <time>2022-07-29T07:19:39Z</time>
      </trkpt>
      <trkpt lat="48.00507" lon="6.73097">
        <ele>464.6</ele>
        <time>2022-07-29T07:19:40Z</time>
      </trkpt>
      <trkpt lat="48.00508" lon="6.731">
        <ele>464.6</ele>
        <time>2022-07-29T07:19:41Z</time>
      </trkpt>
      <trkpt lat="48.0051" lon="6.73102">
        <ele>464.8</ele>
        <time>2022-07-29T07:19:42Z</time>
      </trkpt>
      <trkpt lat="48.00511" lon="6.73101">
        <ele>464.6</ele>
        <time>2022-07-29T07:19:43Z</time>
      </trkpt>
      <trkpt lat="48.00512" lon="6.73099">
        <ele>464.6</ele>
        <time>2022-07-29T07:19:44Z</time>
      </trkpt>
      <trkpt lat="48.00513" lon="6.73097">
        <ele>464.8</ele>
        <time>2022-07-29T07:19:45Z</time>
      </trkpt>
      <trkpt lat="48.00514" lon="6.73094">
        <ele>464.8</ele>
        <time>2022-07-29T07:19:46Z</time>
      </trkpt>
      <trkpt lat="48.00515" lon="6.73091">
        <ele>465</ele>
        <time>2022-07-29T07:19:47Z</time>
      </trkpt>
      <trkpt lat="48.00516" lon="6.73087">
        <ele>465</ele>
        <time>2022-07-29T07:19:48Z</time>
      </trkpt>
      <trkpt lat="48.00521" lon="6.73076">
        <ele>465.6</ele>
        <time>2022-07-29T07:19:52Z</time>
      </trkpt>
      <trkpt lat="48.00522" lon="6.73073">
        <ele>465.8</ele>
        <time>2022-07-29T07:19:53Z</time>
      </trkpt>
      <trkpt lat="48.00528" lon="6.73055">
        <ele>466.6</ele>
        <time>2022-07-29T07:19:58Z</time>
      </trkpt>
      <trkpt lat="48.0053" lon="6.73047">
        <ele>466.6</ele>
        <time>2022-07-29T07:20:00Z</time>
      </trkpt>
      <trkpt lat="48.00531" lon="6.73043">
        <ele>466.6</ele>
        <time>2022-07-29T07:20:01Z</time>
      </trkpt>
      <trkpt lat="48.00532" lon="6.73039">
        <ele>466.6</ele>
        <time>2022-07-29T07:20:02Z</time>
      </trkpt>
      <trkpt lat="48.00533" lon="6.73036">
        <ele>466.6</ele>
        <time>2022-07-29T07:20:03Z</time>
      </trkpt>
      <trkpt lat="48.00535" lon="6.73033">
        <ele>466.8</ele>
        <time>2022-07-29T07:20:04Z</time>
      </trkpt>
      <trkpt lat="48.00536" lon="6.73029">
        <ele>466.8</ele>
        <time>2022-07-29T07:20:05Z</time>
      </trkpt>
      <trkpt lat="48.00538" lon="6.73026">
        <ele>466.8</ele>
        <time>2022-07-29T07:20:06Z</time>
      </trkpt>
      <trkpt lat="48.00539" lon="6.73024">
        <ele>466.8</ele>
        <time>2022-07-29T07:20:07Z</time>
      </trkpt>
      <trkpt lat="48.00542" lon="6.73023">
        <ele>466.8</ele>
        <time>2022-07-29T07:20:08Z</time>
      </trkpt>
      <trkpt lat="48.00544" lon="6.73024">
        <ele>466.8</ele>
        <time>2022-07-29T07:20:09Z</time>
      </trkpt>
      <trkpt lat="48.00544" lon="6.73029">
        <ele>466.8</ele>
        <time>2022-07-29T07:20:11Z</time>
      </trkpt>
      <trkpt lat="48.00543" lon="6.73032">
        <ele>467</ele>
        <time>2022-07-29T07:20:12Z</time>
      </trkpt>
      <trkpt lat="48.00542" lon="6.73035">
        <ele>467</ele>
        <time>2022-07-29T07:20:13Z</time>
      </trkpt>
      <trkpt lat="48.00541" lon="6.73038">
        <ele>467.2</ele>
        <time>2022-07-29T07:20:14Z</time>
      </trkpt>
      <trkpt lat="48.0054" lon="6.73041">
        <ele>467.2</ele>
        <time>2022-07-29T07:20:15Z</time>
      </trkpt>
      <trkpt lat="48.00535" lon="6.73051">
        <ele>467.2</ele>
        <time>2022-07-29T07:20:18Z</time>
      </trkpt>
      <trkpt lat="48.00535" lon="6.73056">
        <ele>467.2</ele>
        <time>2022-07-29T07:20:19Z</time>
      </trkpt>
      <trkpt lat="48.00535" lon="6.7306">
        <ele>467.4</ele>
        <time>2022-07-29T07:20:20Z</time>
      </trkpt>
      <trkpt lat="48.00536" lon="6.73064">
        <ele>467.4</ele>
        <time>2022-07-29T07:20:21Z</time>
      </trkpt>
      <trkpt lat="48.00538" lon="6.73067">
        <ele>467.6</ele>
        <time>2022-07-29T07:20:22Z</time>
      </trkpt>
      <trkpt lat="48.00539" lon="6.7307">
        <ele>467.6</ele>
        <time>2022-07-29T07:20:23Z</time>
      </trkpt>
      <trkpt lat="48.0054" lon="6.73073">
        <ele>467.6</ele>
        <time>2022-07-29T07:20:24Z</time>
      </trkpt>
      <trkpt lat="48.00541" lon="6.73076">
        <ele>467.8</ele>
        <time>2022-07-29T07:20:25Z</time>
      </trkpt>
      <trkpt lat="48.00544" lon="6.73094">
        <ele>468.2</ele>
        <time>2022-07-29T07:20:30Z</time>
      </trkpt>
      <trkpt lat="48.00544" lon="6.73097">
        <ele>468.6</ele>
        <time>2022-07-29T07:20:31Z</time>
      </trkpt>
      <trkpt lat="48.00543" lon="6.731">
        <ele>468.6</ele>
        <time>2022-07-29T07:20:32Z</time>
      </trkpt>
      <trkpt lat="48.00542" lon="6.73103">
        <ele>468.8</ele>
        <time>2022-07-29T07:20:33Z</time>
      </trkpt>
      <trkpt lat="48.00542" lon="6.73107">
        <ele>468.8</ele>
        <time>2022-07-29T07:20:34Z</time>
      </trkpt>
      <trkpt lat="48.00541" lon="6.73109">
        <ele>468.8</ele>
        <time>2022-07-29T07:20:35Z</time>
      </trkpt>
      <trkpt lat="48.00541" lon="6.73112">
        <ele>469</ele>
        <time>2022-07-29T07:20:36Z</time>
      </trkpt>
      <trkpt lat="48.0054" lon="6.73115">
        <ele>469.2</ele>
        <time>2022-07-29T07:20:37Z</time>
      </trkpt>
      <trkpt lat="48.0054" lon="6.73118">
        <ele>469</ele>
        <time>2022-07-29T07:20:38Z</time>
      </trkpt>
      <trkpt lat="48.00541" lon="6.73122">
        <ele>469.2</ele>
        <time>2022-07-29T07:20:39Z</time>
      </trkpt>
      <trkpt lat="48.00542" lon="6.73124">
        <ele>469.4</ele>
        <time>2022-07-29T07:20:40Z</time>
      </trkpt>
      <trkpt lat="48.00544" lon="6.73125">
        <ele>469.6</ele>
        <time>2022-07-29T07:20:41Z</time>
      </trkpt>
      <trkpt lat="48.00545" lon="6.73124">
        <ele>469.6</ele>
        <time>2022-07-29T07:20:42Z</time>
      </trkpt>
      <trkpt lat="48.00547" lon="6.73122">
        <ele>469.8</ele>
        <time>2022-07-29T07:20:43Z</time>
      </trkpt>
      <trkpt lat="48.00548" lon="6.7312">
        <ele>470</ele>
        <time>2022-07-29T07:20:44Z</time>
      </trkpt>
      <trkpt lat="48.00549" lon="6.73118">
        <ele>470.2</ele>
        <time>2022-07-29T07:20:45Z</time>
      </trkpt>
      <trkpt lat="48.0055" lon="6.73116">
        <ele>470.2</ele>
        <time>2022-07-29T07:20:46Z</time>
      </trkpt>
      <trkpt lat="48.00551" lon="6.73114">
        <ele>470.4</ele>
        <time>2022-07-29T07:20:47Z</time>
      </trkpt>
      <trkpt lat="48.00552" lon="6.73112">
        <ele>470.4</ele>
        <time>2022-07-29T07:20:48Z</time>
      </trkpt>
      <trkpt lat="48.00552" lon="6.7311">
        <ele>470.6</ele>
        <time>2022-07-29T07:20:49Z</time>
      </trkpt>
      <trkpt lat="48.00553" lon="6.73107">
        <ele>470.8</ele>
        <time>2022-07-29T07:20:50Z</time>
      </trkpt>
      <trkpt lat="48.00554" lon="6.73104">
        <ele>470.8</ele>
        <time>2022-07-29T07:20:51Z</time>
      </trkpt>
      <trkpt lat="48.00555" lon="6.73101">
        <ele>471</ele>
        <time>2022-07-29T07:20:52Z</time>
      </trkpt>
      <trkpt lat="48.00555" lon="6.73096">
        <ele>471.2</ele>
        <time>2022-07-29T07:20:53Z</time>
      </trkpt>
      <trkpt lat="48.00556" lon="6.73093">
        <ele>471.4</ele>
        <time>2022-07-29T07:20:54Z</time>
      </trkpt>
      <trkpt lat="48.00557" lon="6.73091">
        <ele>471.2</ele>
        <time>2022-07-29T07:20:55Z</time>
      </trkpt>
      <trkpt lat="48.00558" lon="6.7309">
        <ele>471.4</ele>
        <time>2022-07-29T07:20:56Z</time>
      </trkpt>
      <trkpt lat="48.0056" lon="6.7309">
        <ele>471.6</ele>
        <time>2022-07-29T07:20:57Z</time>
      </trkpt>
      <trkpt lat="48.00561" lon="6.73092">
        <ele>471.8</ele>
        <time>2022-07-29T07:20:58Z</time>
      </trkpt>
      <trkpt lat="48.00562" lon="6.73095">
        <ele>472</ele>
        <time>2022-07-29T07:20:59Z</time>
      </trkpt>
      <trkpt lat="48.00562" lon="6.73099">
        <ele>472.2</ele>
        <time>2022-07-29T07:21:00Z</time>
      </trkpt>
      <trkpt lat="48.00561" lon="6.73102">
        <ele>472.2</ele>
        <time>2022-07-29T07:21:01Z</time>
      </trkpt>
      <trkpt lat="48.0056" lon="6.73105">
        <ele>472.4</ele>
        <time>2022-07-29T07:21:02Z</time>
      </trkpt>
      <trkpt lat="48.0056" lon="6.73109">
        <ele>472.8</ele>
        <time>2022-07-29T07:21:03Z</time>
      </trkpt>
      <trkpt lat="48.00559" lon="6.73112">
        <ele>472.8</ele>
        <time>2022-07-29T07:21:04Z</time>
      </trkpt>
      <trkpt lat="48.00558" lon="6.73115">
        <ele>473</ele>
        <time>2022-07-29T07:21:05Z</time>
      </trkpt>
      <trkpt lat="48.00558" lon="6.73117">
        <ele>473</ele>
        <time>2022-07-29T07:21:06Z</time>
      </trkpt>
      <trkpt lat="48.00557" lon="6.7312">
        <ele>473</ele>
        <time>2022-07-29T07:21:07Z</time>
      </trkpt>
      <trkpt lat="48.00557" lon="6.73122">
        <ele>473</ele>
        <time>2022-07-29T07:21:08Z</time>
      </trkpt>
      <trkpt lat="48.00556" lon="6.73125">
        <ele>473</ele>
        <time>2022-07-29T07:21:09Z</time>
      </trkpt>
      <trkpt lat="48.00556" lon="6.73129">
        <ele>473.2</ele>
        <time>2022-07-29T07:21:10Z</time>
      </trkpt>
      <trkpt lat="48.00556" lon="6.73133">
        <ele>473.2</ele>
        <time>2022-07-29T07:21:11Z</time>
      </trkpt>
      <trkpt lat="48.00556" lon="6.73137">
        <ele>473.2</ele>
        <time>2022-07-29T07:21:12Z</time>
      </trkpt>
      <trkpt lat="48.00556" lon="6.7314">
        <ele>473.2</ele>
        <time>2022-07-29T07:21:13Z</time>
      </trkpt>
      <trkpt lat="48.00556" lon="6.73145">
        <ele>473.4</ele>
        <time>2022-07-29T07:21:14Z</time>
      </trkpt>
      <trkpt lat="48.00556" lon="6.73149">
        <ele>473.4</ele>
        <time>2022-07-29T07:21:15Z</time>
      </trkpt>
      <trkpt lat="48.00556" lon="6.73153">
        <ele>473.6</ele>
        <time>2022-07-29T07:21:16Z</time>
      </trkpt>
      <trkpt lat="48.00556" lon="6.73157">
        <ele>473.8</ele>
        <time>2022-07-29T07:21:17Z</time>
      </trkpt>
      <trkpt lat="48.00556" lon="6.7316">
        <ele>473.8</ele>
        <time>2022-07-29T07:21:18Z</time>
      </trkpt>
      <trkpt lat="48.00556" lon="6.73164">
        <ele>474.2</ele>
        <time>2022-07-29T07:21:19Z</time>
      </trkpt>
      <trkpt lat="48.00556" lon="6.73167">
        <ele>474.2</ele>
        <time>2022-07-29T07:21:20Z</time>
      </trkpt>
      <trkpt lat="48.00556" lon="6.7317">
        <ele>474.2</ele>
        <time>2022-07-29T07:21:21Z</time>
      </trkpt>
      <trkpt lat="48.00556" lon="6.73174">
        <ele>474.6</ele>
        <time>2022-07-29T07:21:22Z</time>
      </trkpt>
      <trkpt lat="48.00555" lon="6.73177">
        <ele>474.8</ele>
        <time>2022-07-29T07:21:23Z</time>
      </trkpt>
      <trkpt lat="48.00554" lon="6.7318">
        <ele>475</ele>
        <time>2022-07-29T07:21:24Z</time>
      </trkpt>
      <trkpt lat="48.00553" lon="6.73183">
        <ele>475</ele>
        <time>2022-07-29T07:21:25Z</time>
      </trkpt>
      <trkpt lat="48.00552" lon="6.73185">
        <ele>475.2</ele>
        <time>2022-07-29T07:21:26Z</time>
      </trkpt>
      <trkpt lat="48.00551" lon="6.73188">
        <ele>475.2</ele>
        <time>2022-07-29T07:21:27Z</time>
      </trkpt>
      <trkpt lat="48.0055" lon="6.73191">
        <ele>475.4</ele>
        <time>2022-07-29T07:21:28Z</time>
      </trkpt>
      <trkpt lat="48.0055" lon="6.73195">
        <ele>475.4</ele>
        <time>2022-07-29T07:21:29Z</time>
      </trkpt>
      <trkpt lat="48.00549" lon="6.73199">
        <ele>475.6</ele>
        <time>2022-07-29T07:21:30Z</time>
      </trkpt>
      <trkpt lat="48.00549" lon="6.73203">
        <ele>475.8</ele>
        <time>2022-07-29T07:21:31Z</time>
      </trkpt>
      <trkpt lat="48.00548" lon="6.73206">
        <ele>475.8</ele>
        <time>2022-07-29T07:21:32Z</time>
      </trkpt>
      <trkpt lat="48.00548" lon="6.73209">
        <ele>476</ele>
        <time>2022-07-29T07:21:33Z</time>
      </trkpt>
      <trkpt lat="48.00547" lon="6.73212">
        <ele>476</ele>
        <time>2022-07-29T07:21:34Z</time>
      </trkpt>
      <trkpt lat="48.00547" lon="6.73215">
        <ele>476.2</ele>
        <time>2022-07-29T07:21:35Z</time>
      </trkpt>
      <trkpt lat="48.00547" lon="6.73219">
        <ele>476.2</ele>
        <time>2022-07-29T07:21:36Z</time>
      </trkpt>
      <trkpt lat="48.00546" lon="6.73223">
        <ele>476.2</ele>
        <time>2022-07-29T07:21:37Z</time>
      </trkpt>
      <trkpt lat="48.00546" lon="6.73228">
        <ele>476.2</ele>
        <time>2022-07-29T07:21:38Z</time>
      </trkpt>
      <trkpt lat="48.00544" lon="6.73231">
        <ele>476.2</ele>
        <time>2022-07-29T07:21:39Z</time>
      </trkpt>
      <trkpt lat="48.00542" lon="6.73234">
        <ele>476.4</ele>
        <time>2022-07-29T07:21:40Z</time>
      </trkpt>
      <trkpt lat="48.00539" lon="6.73236">
        <ele>476.4</ele>
        <time>2022-07-29T07:21:41Z</time>
      </trkpt>
      <trkpt lat="48.00538" lon="6.7324">
        <ele>476.4</ele>
        <time>2022-07-29T07:21:42Z</time>
      </trkpt>
      <trkpt lat="48.00537" lon="6.73244">
        <ele>476.4</ele>
        <time>2022-07-29T07:21:43Z</time>
      </trkpt>
      <trkpt lat="48.00536" lon="6.73248">
        <ele>476.4</ele>
        <time>2022-07-29T07:21:44Z</time>
      </trkpt>
      <trkpt lat="48.00535" lon="6.73252">
        <ele>476.4</ele>
        <time>2022-07-29T07:21:45Z</time>
      </trkpt>
      <trkpt lat="48.00534" lon="6.73255">
        <ele>476.2</ele>
        <time>2022-07-29T07:21:46Z</time>
      </trkpt>
      <trkpt lat="48.00532" lon="6.73258">
        <ele>476.2</ele>
        <time>2022-07-29T07:21:47Z</time>
      </trkpt>
      <trkpt lat="48.00532" lon="6.73262">
        <ele>476.2</ele>
        <time>2022-07-29T07:21:48Z</time>
      </trkpt>
      <trkpt lat="48.00531" lon="6.7327">
        <ele>476</ele>
        <time>2022-07-29T07:21:50Z</time>
      </trkpt>
      <trkpt lat="48.00531" lon="6.73273">
        <ele>476</ele>
        <time>2022-07-29T07:21:51Z</time>
      </trkpt>
      <trkpt lat="48.00531" lon="6.73276">
        <ele>476</ele>
        <time>2022-07-29T07:21:52Z</time>
      </trkpt>
      <trkpt lat="48.0053" lon="6.73279">
        <ele>476.2</ele>
        <time>2022-07-29T07:21:53Z</time>
      </trkpt>
      <trkpt lat="48.00529" lon="6.73282">
        <ele>476.2</ele>
        <time>2022-07-29T07:21:54Z</time>
      </trkpt>
      <trkpt lat="48.00527" lon="6.73285">
        <ele>476.2</ele>
        <time>2022-07-29T07:21:55Z</time>
      </trkpt>
      <trkpt lat="48.00526" lon="6.73289">
        <ele>476.2</ele>
        <time>2022-07-29T07:21:56Z</time>
      </trkpt>
      <trkpt lat="48.00525" lon="6.73293">
        <ele>476.2</ele>
        <time>2022-07-29T07:21:57Z</time>
      </trkpt>
      <trkpt lat="48.0052" lon="6.73303">
        <ele>476.2</ele>
        <time>2022-07-29T07:22:00Z</time>
      </trkpt>
      <trkpt lat="48.00516" lon="6.73313">
        <ele>476</ele>
        <time>2022-07-29T07:22:03Z</time>
      </trkpt>
      <trkpt lat="48.00512" lon="6.7332">
        <ele>475.6</ele>
        <time>2022-07-29T07:22:05Z</time>
      </trkpt>
      <trkpt lat="48.00507" lon="6.73338">
        <ele>475.2</ele>
        <time>2022-07-29T07:22:08Z</time>
      </trkpt>
      <trkpt lat="48.00506" lon="6.73343">
        <ele>475</ele>
        <time>2022-07-29T07:22:09Z</time>
      </trkpt>
      <trkpt lat="48.00506" lon="6.73345">
        <ele>474.8</ele>
        <time>2022-07-29T07:22:10Z</time>
      </trkpt>
      <trkpt lat="48.00506" lon="6.73348">
        <ele>474.8</ele>
        <time>2022-07-29T07:22:11Z</time>
      </trkpt>
      <trkpt lat="48.00507" lon="6.73352">
        <ele>474.8</ele>
        <time>2022-07-29T07:22:12Z</time>
      </trkpt>
      <trkpt lat="48.00508" lon="6.73357">
        <ele>474.8</ele>
        <time>2022-07-29T07:22:13Z</time>
      </trkpt>
      <trkpt lat="48.00508" lon="6.73362">
        <ele>474.8</ele>
        <time>2022-07-29T07:22:14Z</time>
      </trkpt>
      <trkpt lat="48.00509" lon="6.73373">
        <ele>474.8</ele>
        <time>2022-07-29T07:22:16Z</time>
      </trkpt>
      <trkpt lat="48.00509" lon="6.73377">
        <ele>475</ele>
        <time>2022-07-29T07:22:17Z</time>
      </trkpt>
      <trkpt lat="48.00509" lon="6.73381">
        <ele>475</ele>
        <time>2022-07-29T07:22:18Z</time>
      </trkpt>
      <trkpt lat="48.00509" lon="6.73384">
        <ele>475</ele>
        <time>2022-07-29T07:22:19Z</time>
      </trkpt>
      <trkpt lat="48.00511" lon="6.73397">
        <ele>475.6</ele>
        <time>2022-07-29T07:22:23Z</time>
      </trkpt>
      <trkpt lat="48.00511" lon="6.73401">
        <ele>475.8</ele>
        <time>2022-07-29T07:22:25Z</time>
      </trkpt>
      <trkpt lat="48.00511" lon="6.73405">
        <ele>476.6</ele>
        <time>2022-07-29T07:22:27Z</time>
      </trkpt>
      <trkpt lat="48.00511" lon="6.73407">
        <ele>476.8</ele>
        <time>2022-07-29T07:22:28Z</time>
      </trkpt>
      <trkpt lat="48.00512" lon="6.73409">
        <ele>477</ele>
        <time>2022-07-29T07:22:29Z</time>
      </trkpt>
      <trkpt lat="48.00513" lon="6.73412">
        <ele>477</ele>
        <time>2022-07-29T07:22:30Z</time>
      </trkpt>
      <trkpt lat="48.00514" lon="6.73414">
        <ele>477.2</ele>
        <time>2022-07-29T07:22:31Z</time>
      </trkpt>
      <trkpt lat="48.00515" lon="6.73417">
        <ele>477.2</ele>
        <time>2022-07-29T07:22:32Z</time>
      </trkpt>
      <trkpt lat="48.00515" lon="6.7342">
        <ele>477.4</ele>
        <time>2022-07-29T07:22:33Z</time>
      </trkpt>
      <trkpt lat="48.00516" lon="6.73423">
        <ele>477.6</ele>
        <time>2022-07-29T07:22:34Z</time>
      </trkpt>
      <trkpt lat="48.00517" lon="6.73425">
        <ele>478</ele>
        <time>2022-07-29T07:22:35Z</time>
      </trkpt>
      <trkpt lat="48.00517" lon="6.73427">
        <ele>478.2</ele>
        <time>2022-07-29T07:22:36Z</time>
      </trkpt>
      <trkpt lat="48.00517" lon="6.7343">
        <ele>478.4</ele>
        <time>2022-07-29T07:22:37Z</time>
      </trkpt>
      <trkpt lat="48.00517" lon="6.73434">
        <ele>478.8</ele>
        <time>2022-07-29T07:22:38Z</time>
      </trkpt>
      <trkpt lat="48.00517" lon="6.73439">
        <ele>478.8</ele>
        <time>2022-07-29T07:22:39Z</time>
      </trkpt>
      <trkpt lat="48.00518" lon="6.73444">
        <ele>479</ele>
        <time>2022-07-29T07:22:40Z</time>
      </trkpt>
      <trkpt lat="48.00518" lon="6.73447">
        <ele>479.2</ele>
        <time>2022-07-29T07:22:41Z</time>
      </trkpt>
      <trkpt lat="48.00518" lon="6.73451">
        <ele>479.4</ele>
        <time>2022-07-29T07:22:42Z</time>
      </trkpt>
      <trkpt lat="48.00518" lon="6.73455">
        <ele>479.4</ele>
        <time>2022-07-29T07:22:43Z</time>
      </trkpt>
      <trkpt lat="48.00518" lon="6.73458">
        <ele>479.6</ele>
        <time>2022-07-29T07:22:44Z</time>
      </trkpt>
      <trkpt lat="48.00519" lon="6.73463">
        <ele>479.8</ele>
        <time>2022-07-29T07:22:45Z</time>
      </trkpt>
      <trkpt lat="48.00519" lon="6.73468">
        <ele>479.8</ele>
        <time>2022-07-29T07:22:46Z</time>
      </trkpt>
      <trkpt lat="48.00519" lon="6.73473">
        <ele>480.2</ele>
        <time>2022-07-29T07:22:47Z</time>
      </trkpt>
      <trkpt lat="48.0052" lon="6.73476">
        <ele>480.2</ele>
        <time>2022-07-29T07:22:48Z</time>
      </trkpt>
      <trkpt lat="48.0052" lon="6.73479">
        <ele>480.4</ele>
        <time>2022-07-29T07:22:49Z</time>
      </trkpt>
      <trkpt lat="48.00521" lon="6.73481">
        <ele>480.4</ele>
        <time>2022-07-29T07:22:50Z</time>
      </trkpt>
      <trkpt lat="48.0052" lon="6.73484">
        <ele>480.6</ele>
        <time>2022-07-29T07:22:51Z</time>
      </trkpt>
      <trkpt lat="48.0052" lon="6.73487">
        <ele>480.8</ele>
        <time>2022-07-29T07:22:52Z</time>
      </trkpt>
      <trkpt lat="48.0052" lon="6.73492">
        <ele>481.2</ele>
        <time>2022-07-29T07:22:53Z</time>
      </trkpt>
      <trkpt lat="48.0052" lon="6.73497">
        <ele>481.4</ele>
        <time>2022-07-29T07:22:54Z</time>
      </trkpt>
      <trkpt lat="48.0052" lon="6.735">
        <ele>481.6</ele>
        <time>2022-07-29T07:22:55Z</time>
      </trkpt>
      <trkpt lat="48.00521" lon="6.73503">
        <ele>481.8</ele>
        <time>2022-07-29T07:22:56Z</time>
      </trkpt>
      <trkpt lat="48.00521" lon="6.73505">
        <ele>482</ele>
        <time>2022-07-29T07:22:57Z</time>
      </trkpt>
      <trkpt lat="48.00522" lon="6.73508">
        <ele>482.2</ele>
        <time>2022-07-29T07:22:58Z</time>
      </trkpt>
      <trkpt lat="48.00521" lon="6.7351">
        <ele>482.4</ele>
        <time>2022-07-29T07:22:59Z</time>
      </trkpt>
      <trkpt lat="48.00521" lon="6.73513">
        <ele>482.6</ele>
        <time>2022-07-29T07:23:00Z</time>
      </trkpt>
      <trkpt lat="48.00521" lon="6.73515">
        <ele>482.6</ele>
        <time>2022-07-29T07:23:01Z</time>
      </trkpt>
      <trkpt lat="48.00521" lon="6.73518">
        <ele>482.8</ele>
        <time>2022-07-29T07:23:02Z</time>
      </trkpt>
      <trkpt lat="48.00522" lon="6.7352">
        <ele>482.8</ele>
        <time>2022-07-29T07:23:03Z</time>
      </trkpt>
      <trkpt lat="48.00523" lon="6.73523">
        <ele>483</ele>
        <time>2022-07-29T07:23:04Z</time>
      </trkpt>
      <trkpt lat="48.00524" lon="6.73525">
        <ele>483.2</ele>
        <time>2022-07-29T07:23:05Z</time>
      </trkpt>
      <trkpt lat="48.00524" lon="6.73527">
        <ele>483.4</ele>
        <time>2022-07-29T07:23:06Z</time>
      </trkpt>
      <trkpt lat="48.00524" lon="6.7353">
        <ele>483.6</ele>
        <time>2022-07-29T07:23:07Z</time>
      </trkpt>
      <trkpt lat="48.00525" lon="6.73533">
        <ele>483.8</ele>
        <time>2022-07-29T07:23:08Z</time>
      </trkpt>
      <trkpt lat="48.00525" lon="6.73536">
        <ele>484.2</ele>
        <time>2022-07-29T07:23:09Z</time>
      </trkpt>
      <trkpt lat="48.00526" lon="6.73537">
        <ele>484.4</ele>
        <time>2022-07-29T07:23:10Z</time>
      </trkpt>
      <trkpt lat="48.00526" lon="6.7354">
        <ele>484.4</ele>
        <time>2022-07-29T07:23:11Z</time>
      </trkpt>
      <trkpt lat="48.00526" lon="6.73542">
        <ele>484.8</ele>
        <time>2022-07-29T07:23:12Z</time>
      </trkpt>
      <trkpt lat="48.00527" lon="6.73544">
        <ele>484.8</ele>
        <time>2022-07-29T07:23:13Z</time>
      </trkpt>
      <trkpt lat="48.00528" lon="6.73547">
        <ele>485.2</ele>
        <time>2022-07-29T07:23:14Z</time>
      </trkpt>
      <trkpt lat="48.00529" lon="6.7355">
        <ele>485.4</ele>
        <time>2022-07-29T07:23:15Z</time>
      </trkpt>
      <trkpt lat="48.0053" lon="6.73553">
        <ele>485.4</ele>
        <time>2022-07-29T07:23:16Z</time>
      </trkpt>
      <trkpt lat="48.00531" lon="6.73555">
        <ele>485.6</ele>
        <time>2022-07-29T07:23:17Z</time>
      </trkpt>
      <trkpt lat="48.00532" lon="6.73558">
        <ele>485.8</ele>
        <time>2022-07-29T07:23:18Z</time>
      </trkpt>
      <trkpt lat="48.00532" lon="6.73561">
        <ele>486.2</ele>
        <time>2022-07-29T07:23:19Z</time>
      </trkpt>
      <trkpt lat="48.00533" lon="6.73564">
        <ele>486.4</ele>
        <time>2022-07-29T07:23:20Z</time>
      </trkpt>
      <trkpt lat="48.00534" lon="6.73566">
        <ele>486.4</ele>
        <time>2022-07-29T07:23:21Z</time>
      </trkpt>
      <trkpt lat="48.00535" lon="6.73569">
        <ele>486.6</ele>
        <time>2022-07-29T07:23:22Z</time>
      </trkpt>
      <trkpt lat="48.00536" lon="6.73572">
        <ele>486.8</ele>
        <time>2022-07-29T07:23:23Z</time>
      </trkpt>
      <trkpt lat="48.00536" lon="6.73574">
        <ele>487</ele>
        <time>2022-07-29T07:23:24Z</time>
      </trkpt>
      <trkpt lat="48.00536" lon="6.73577">
        <ele>487.2</ele>
        <time>2022-07-29T07:23:25Z</time>
      </trkpt>
      <trkpt lat="48.00537" lon="6.7358">
        <ele>487.2</ele>
        <time>2022-07-29T07:23:26Z</time>
      </trkpt>
      <trkpt lat="48.00537" lon="6.73583">
        <ele>487.6</ele>
        <time>2022-07-29T07:23:27Z</time>
      </trkpt>
      <trkpt lat="48.00537" lon="6.73587">
        <ele>487.8</ele>
        <time>2022-07-29T07:23:28Z</time>
      </trkpt>
      <trkpt lat="48.00538" lon="6.7359">
        <ele>487.8</ele>
        <time>2022-07-29T07:23:29Z</time>
      </trkpt>
      <trkpt lat="48.00538" lon="6.73594">
        <ele>488</ele>
        <time>2022-07-29T07:23:30Z</time>
      </trkpt>
      <trkpt lat="48.00539" lon="6.73597">
        <ele>488</ele>
        <time>2022-07-29T07:23:31Z</time>
      </trkpt>
      <trkpt lat="48.00539" lon="6.736">
        <ele>488.4</ele>
        <time>2022-07-29T07:23:32Z</time>
      </trkpt>
      <trkpt lat="48.00539" lon="6.73603">
        <ele>488.6</ele>
        <time>2022-07-29T07:23:33Z</time>
      </trkpt>
      <trkpt lat="48.0054" lon="6.73605">
        <ele>488.8</ele>
        <time>2022-07-29T07:23:34Z</time>
      </trkpt>
      <trkpt lat="48.0054" lon="6.73608">
        <ele>488.8</ele>
        <time>2022-07-29T07:23:35Z</time>
      </trkpt>
      <trkpt lat="48.0054" lon="6.7361">
        <ele>489</ele>
        <time>2022-07-29T07:23:36Z</time>
      </trkpt>
      <trkpt lat="48.0054" lon="6.73613">
        <ele>489.2</ele>
        <time>2022-07-29T07:23:37Z</time>
      </trkpt>
      <trkpt lat="48.00541" lon="6.73616">
        <ele>489.4</ele>
        <time>2022-07-29T07:23:38Z</time>
      </trkpt>
      <trkpt lat="48.00541" lon="6.73619">
        <ele>489.6</ele>
        <time>2022-07-29T07:23:39Z</time>
      </trkpt>
      <trkpt lat="48.00541" lon="6.73622">
        <ele>489.8</ele>
        <time>2022-07-29T07:23:40Z</time>
      </trkpt>
      <trkpt lat="48.00542" lon="6.73625">
        <ele>490</ele>
        <time>2022-07-29T07:23:41Z</time>
      </trkpt>
      <trkpt lat="48.00542" lon="6.73627">
        <ele>490.2</ele>
        <time>2022-07-29T07:23:42Z</time>
      </trkpt>
      <trkpt lat="48.00542" lon="6.7363">
        <ele>490.2</ele>
        <time>2022-07-29T07:23:43Z</time>
      </trkpt>
      <trkpt lat="48.00543" lon="6.73632">
        <ele>490.4</ele>
        <time>2022-07-29T07:23:44Z</time>
      </trkpt>
      <trkpt lat="48.00543" lon="6.73635">
        <ele>490.6</ele>
        <time>2022-07-29T07:23:45Z</time>
      </trkpt>
      <trkpt lat="48.00544" lon="6.73638">
        <ele>490.8</ele>
        <time>2022-07-29T07:23:46Z</time>
      </trkpt>
      <trkpt lat="48.00544" lon="6.7364">
        <ele>490.8</ele>
        <time>2022-07-29T07:23:47Z</time>
      </trkpt>
      <trkpt lat="48.00546" lon="6.73643">
        <ele>490.8</ele>
        <time>2022-07-29T07:23:48Z</time>
      </trkpt>
      <trkpt lat="48.00547" lon="6.73645">
        <ele>491</ele>
        <time>2022-07-29T07:23:49Z</time>
      </trkpt>
      <trkpt lat="48.00548" lon="6.73648">
        <ele>491.4</ele>
        <time>2022-07-29T07:23:50Z</time>
      </trkpt>
      <trkpt lat="48.00549" lon="6.7365">
        <ele>491.2</ele>
        <time>2022-07-29T07:23:51Z</time>
      </trkpt>
      <trkpt lat="48.0055" lon="6.73653">
        <ele>491.6</ele>
        <time>2022-07-29T07:23:52Z</time>
      </trkpt>
      <trkpt lat="48.0055" lon="6.73656">
        <ele>491.8</ele>
        <time>2022-07-29T07:23:53Z</time>
      </trkpt>
      <trkpt lat="48.00551" lon="6.73658">
        <ele>492</ele>
        <time>2022-07-29T07:23:54Z</time>
      </trkpt>
      <trkpt lat="48.00553" lon="6.73661">
        <ele>492.2</ele>
        <time>2022-07-29T07:23:55Z</time>
      </trkpt>
      <trkpt lat="48.00554" lon="6.73663">
        <ele>492.2</ele>
        <time>2022-07-29T07:23:56Z</time>
      </trkpt>
      <trkpt lat="48.00555" lon="6.73665">
        <ele>492.6</ele>
        <time>2022-07-29T07:23:57Z</time>
      </trkpt>
      <trkpt lat="48.00555" lon="6.73668">
        <ele>492.8</ele>
        <time>2022-07-29T07:23:58Z</time>
      </trkpt>
      <trkpt lat="48.00556" lon="6.7367">
        <ele>493</ele>
        <time>2022-07-29T07:23:59Z</time>
      </trkpt>
      <trkpt lat="48.00557" lon="6.73673">
        <ele>493.2</ele>
        <time>2022-07-29T07:24:00Z</time>
      </trkpt>
      <trkpt lat="48.00557" lon="6.73676">
        <ele>493.4</ele>
        <time>2022-07-29T07:24:01Z</time>
      </trkpt>
      <trkpt lat="48.00558" lon="6.73679">
        <ele>493.4</ele>
        <time>2022-07-29T07:24:02Z</time>
      </trkpt>
      <trkpt lat="48.00559" lon="6.73682">
        <ele>493.8</ele>
        <time>2022-07-29T07:24:03Z</time>
      </trkpt>
      <trkpt lat="48.00559" lon="6.73684">
        <ele>494</ele>
        <time>2022-07-29T07:24:04Z</time>
      </trkpt>
      <trkpt lat="48.0056" lon="6.73687">
        <ele>494</ele>
        <time>2022-07-29T07:24:05Z</time>
      </trkpt>
      <trkpt lat="48.00561" lon="6.73689">
        <ele>494.2</ele>
        <time>2022-07-29T07:24:06Z</time>
      </trkpt>
      <trkpt lat="48.00562" lon="6.73692">
        <ele>494.2</ele>
        <time>2022-07-29T07:24:07Z</time>
      </trkpt>
      <trkpt lat="48.00562" lon="6.73695">
        <ele>494.4</ele>
        <time>2022-07-29T07:24:08Z</time>
      </trkpt>
      <trkpt lat="48.00563" lon="6.73698">
        <ele>494.4</ele>
        <time>2022-07-29T07:24:09Z</time>
      </trkpt>
      <trkpt lat="48.00564" lon="6.737">
        <ele>494.6</ele>
        <time>2022-07-29T07:24:10Z</time>
      </trkpt>
      <trkpt lat="48.00564" lon="6.73703">
        <ele>494.8</ele>
        <time>2022-07-29T07:24:11Z</time>
      </trkpt>
      <trkpt lat="48.00565" lon="6.73705">
        <ele>495.2</ele>
        <time>2022-07-29T07:24:12Z</time>
      </trkpt>
      <trkpt lat="48.00565" lon="6.73708">
        <ele>495.6</ele>
        <time>2022-07-29T07:24:13Z</time>
      </trkpt>
      <trkpt lat="48.00566" lon="6.7371">
        <ele>495.6</ele>
        <time>2022-07-29T07:24:14Z</time>
      </trkpt>
      <trkpt lat="48.00566" lon="6.73713">
        <ele>495.8</ele>
        <time>2022-07-29T07:24:15Z</time>
      </trkpt>
      <trkpt lat="48.00567" lon="6.73716">
        <ele>496</ele>
        <time>2022-07-29T07:24:16Z</time>
      </trkpt>
      <trkpt lat="48.00568" lon="6.73718">
        <ele>496.2</ele>
        <time>2022-07-29T07:24:17Z</time>
      </trkpt>
      <trkpt lat="48.00569" lon="6.7372">
        <ele>496.2</ele>
        <time>2022-07-29T07:24:18Z</time>
      </trkpt>
      <trkpt lat="48.0057" lon="6.73722">
        <ele>496.4</ele>
        <time>2022-07-29T07:24:19Z</time>
      </trkpt>
      <trkpt lat="48.00572" lon="6.73724">
        <ele>496.4</ele>
        <time>2022-07-29T07:24:20Z</time>
      </trkpt>
      <trkpt lat="48.00572" lon="6.73726">
        <ele>496.8</ele>
        <time>2022-07-29T07:24:21Z</time>
      </trkpt>
      <trkpt lat="48.00573" lon="6.73728">
        <ele>497</ele>
        <time>2022-07-29T07:24:22Z</time>
      </trkpt>
      <trkpt lat="48.00573" lon="6.73731">
        <ele>497</ele>
        <time>2022-07-29T07:24:23Z</time>
      </trkpt>
      <trkpt lat="48.00574" lon="6.73733">
        <ele>497.2</ele>
        <time>2022-07-29T07:24:24Z</time>
      </trkpt>
      <trkpt lat="48.00575" lon="6.73734">
        <ele>497.4</ele>
        <time>2022-07-29T07:24:25Z</time>
      </trkpt>
      <trkpt lat="48.00576" lon="6.73737">
        <ele>497.6</ele>
        <time>2022-07-29T07:24:26Z</time>
      </trkpt>
      <trkpt lat="48.00577" lon="6.73739">
        <ele>497.8</ele>
        <time>2022-07-29T07:24:27Z</time>
      </trkpt>
      <trkpt lat="48.00577" lon="6.73741">
        <ele>498</ele>
        <time>2022-07-29T07:24:28Z</time>
      </trkpt>
      <trkpt lat="48.00578" lon="6.73743">
        <ele>498.2</ele>
        <time>2022-07-29T07:24:29Z</time>
      </trkpt>
      <trkpt lat="48.00578" lon="6.73746">
        <ele>498.2</ele>
        <time>2022-07-29T07:24:30Z</time>
      </trkpt>
      <trkpt lat="48.00578" lon="6.73748">
        <ele>498.2</ele>
        <time>2022-07-29T07:24:31Z</time>
      </trkpt>
      <trkpt lat="48.00579" lon="6.73751">
        <ele>498.4</ele>
        <time>2022-07-29T07:24:32Z</time>
      </trkpt>
      <trkpt lat="48.00578" lon="6.73753">
        <ele>498.6</ele>
        <time>2022-07-29T07:24:33Z</time>
      </trkpt>
      <trkpt lat="48.00578" lon="6.73755">
        <ele>498.8</ele>
        <time>2022-07-29T07:24:34Z</time>
      </trkpt>
      <trkpt lat="48.00579" lon="6.73757">
        <ele>499</ele>
        <time>2022-07-29T07:24:35Z</time>
      </trkpt>
      <trkpt lat="48.00579" lon="6.7376">
        <ele>499.2</ele>
        <time>2022-07-29T07:24:36Z</time>
      </trkpt>
      <trkpt lat="48.0058" lon="6.73762">
        <ele>499.4</ele>
        <time>2022-07-29T07:24:37Z</time>
      </trkpt>
      <trkpt lat="48.0058" lon="6.73765">
        <ele>499.8</ele>
        <time>2022-07-29T07:24:38Z</time>
      </trkpt>
      <trkpt lat="48.00581" lon="6.73768">
        <ele>499.8</ele>
        <time>2022-07-29T07:24:39Z</time>
      </trkpt>
      <trkpt lat="48.00581" lon="6.7377">
        <ele>500.2</ele>
        <time>2022-07-29T07:24:40Z</time>
      </trkpt>
      <trkpt lat="48.00581" lon="6.73772">
        <ele>500.2</ele>
        <time>2022-07-29T07:24:41Z</time>
      </trkpt>
      <trkpt lat="48.00581" lon="6.73775">
        <ele>500.6</ele>
        <time>2022-07-29T07:24:42Z</time>
      </trkpt>
      <trkpt lat="48.00582" lon="6.73778">
        <ele>500.8</ele>
        <time>2022-07-29T07:24:43Z</time>
      </trkpt>
      <trkpt lat="48.00582" lon="6.7378">
        <ele>500.8</ele>
        <time>2022-07-29T07:24:44Z</time>
      </trkpt>
      <trkpt lat="48.00583" lon="6.73783">
        <ele>501</ele>
        <time>2022-07-29T07:24:45Z</time>
      </trkpt>
      <trkpt lat="48.00583" lon="6.73786">
        <ele>501</ele>
        <time>2022-07-29T07:24:46Z</time>
      </trkpt>
      <trkpt lat="48.00583" lon="6.7379">
        <ele>501.4</ele>
        <time>2022-07-29T07:24:47Z</time>
      </trkpt>
      <trkpt lat="48.00584" lon="6.73793">
        <ele>501.4</ele>
        <time>2022-07-29T07:24:48Z</time>
      </trkpt>
      <trkpt lat="48.00584" lon="6.73796">
        <ele>501.6</ele>
        <time>2022-07-29T07:24:49Z</time>
      </trkpt>
      <trkpt lat="48.00585" lon="6.73799">
        <ele>501.4</ele>
        <time>2022-07-29T07:24:50Z</time>
      </trkpt>
      <trkpt lat="48.00586" lon="6.73802">
        <ele>501.6</ele>
        <time>2022-07-29T07:24:51Z</time>
      </trkpt>
      <trkpt lat="48.00587" lon="6.73805">
        <ele>501.8</ele>
        <time>2022-07-29T07:24:52Z</time>
      </trkpt>
      <trkpt lat="48.00589" lon="6.73807">
        <ele>502</ele>
        <time>2022-07-29T07:24:53Z</time>
      </trkpt>
      <trkpt lat="48.0059" lon="6.7381">
        <ele>502.2</ele>
        <time>2022-07-29T07:24:54Z</time>
      </trkpt>
      <trkpt lat="48.0059" lon="6.73813">
        <ele>502.4</ele>
        <time>2022-07-29T07:24:55Z</time>
      </trkpt>
      <trkpt lat="48.00591" lon="6.73816">
        <ele>502.4</ele>
        <time>2022-07-29T07:24:56Z</time>
      </trkpt>
      <trkpt lat="48.00592" lon="6.73819">
        <ele>502.6</ele>
        <time>2022-07-29T07:24:57Z</time>
      </trkpt>
      <trkpt lat="48.00592" lon="6.73822">
        <ele>503</ele>
        <time>2022-07-29T07:24:58Z</time>
      </trkpt>
      <trkpt lat="48.00593" lon="6.73825">
        <ele>503.2</ele>
        <time>2022-07-29T07:24:59Z</time>
      </trkpt>
      <trkpt lat="48.00594" lon="6.73828">
        <ele>503.4</ele>
        <time>2022-07-29T07:25:00Z</time>
      </trkpt>
      <trkpt lat="48.00595" lon="6.7383">
        <ele>503.4</ele>
        <time>2022-07-29T07:25:01Z</time>
      </trkpt>
      <trkpt lat="48.00597" lon="6.73833">
        <ele>503.6</ele>
        <time>2022-07-29T07:25:02Z</time>
      </trkpt>
      <trkpt lat="48.00598" lon="6.73835">
        <ele>503.6</ele>
        <time>2022-07-29T07:25:03Z</time>
      </trkpt>
      <trkpt lat="48.00599" lon="6.73838">
        <ele>503.8</ele>
        <time>2022-07-29T07:25:04Z</time>
      </trkpt>
      <trkpt lat="48.006" lon="6.73841">
        <ele>503.8</ele>
        <time>2022-07-29T07:25:05Z</time>
      </trkpt>
      <trkpt lat="48.006" lon="6.73844">
        <ele>504</ele>
        <time>2022-07-29T07:25:06Z</time>
      </trkpt>
      <trkpt lat="48.00602" lon="6.73846">
        <ele>504.4</ele>
        <time>2022-07-29T07:25:07Z</time>
      </trkpt>
      <trkpt lat="48.00603" lon="6.73848">
        <ele>504.6</ele>
        <time>2022-07-29T07:25:08Z</time>
      </trkpt>
      <trkpt lat="48.00604" lon="6.7385">
        <ele>505</ele>
        <time>2022-07-29T07:25:09Z</time>
      </trkpt>
      <trkpt lat="48.00605" lon="6.73853">
        <ele>505.2</ele>
        <time>2022-07-29T07:25:10Z</time>
      </trkpt>
      <trkpt lat="48.00607" lon="6.73857">
        <ele>505.4</ele>
        <time>2022-07-29T07:25:11Z</time>
      </trkpt>
      <trkpt lat="48.00608" lon="6.73859">
        <ele>505.4</ele>
        <time>2022-07-29T07:25:12Z</time>
      </trkpt>
      <trkpt lat="48.00609" lon="6.73861">
        <ele>505.6</ele>
        <time>2022-07-29T07:25:13Z</time>
      </trkpt>
      <trkpt lat="48.00611" lon="6.73863">
        <ele>505.8</ele>
        <time>2022-07-29T07:25:14Z</time>
      </trkpt>
      <trkpt lat="48.00612" lon="6.73866">
        <ele>505.6</ele>
        <time>2022-07-29T07:25:15Z</time>
      </trkpt>
      <trkpt lat="48.00614" lon="6.73867">
        <ele>505.8</ele>
        <time>2022-07-29T07:25:16Z</time>
      </trkpt>
      <trkpt lat="48.00615" lon="6.73869">
        <ele>506</ele>
        <time>2022-07-29T07:25:17Z</time>
      </trkpt>
      <trkpt lat="48.00616" lon="6.73871">
        <ele>506.2</ele>
        <time>2022-07-29T07:25:18Z</time>
      </trkpt>
      <trkpt lat="48.00618" lon="6.73873">
        <ele>506.4</ele>
        <time>2022-07-29T07:25:19Z</time>
      </trkpt>
      <trkpt lat="48.00619" lon="6.73875">
        <ele>506.6</ele>
        <time>2022-07-29T07:25:20Z</time>
      </trkpt>
      <trkpt lat="48.00619" lon="6.73876">
        <ele>506.8</ele>
        <time>2022-07-29T07:25:21Z</time>
      </trkpt>
      <trkpt lat="48.0062" lon="6.73878">
        <ele>507</ele>
        <time>2022-07-29T07:25:22Z</time>
      </trkpt>
      <trkpt lat="48.0062" lon="6.7388">
        <ele>507.2</ele>
        <time>2022-07-29T07:25:23Z</time>
      </trkpt>
      <trkpt lat="48.0062" lon="6.73883">
        <ele>507.2</ele>
        <time>2022-07-29T07:25:24Z</time>
      </trkpt>
      <trkpt lat="48.00621" lon="6.73886">
        <ele>507.2</ele>
        <time>2022-07-29T07:25:25Z</time>
      </trkpt>
      <trkpt lat="48.00622" lon="6.73888">
        <ele>507.2</ele>
        <time>2022-07-29T07:25:26Z</time>
      </trkpt>
      <trkpt lat="48.00623" lon="6.7389">
        <ele>507.2</ele>
        <time>2022-07-29T07:25:27Z</time>
      </trkpt>
      <trkpt lat="48.00625" lon="6.73892">
        <ele>507.2</ele>
        <time>2022-07-29T07:25:28Z</time>
      </trkpt>
      <trkpt lat="48.00626" lon="6.73894">
        <ele>507.4</ele>
        <time>2022-07-29T07:25:29Z</time>
      </trkpt>
      <trkpt lat="48.00626" lon="6.73896">
        <ele>507.4</ele>
        <time>2022-07-29T07:25:30Z</time>
      </trkpt>
      <trkpt lat="48.00627" lon="6.73898">
        <ele>507.4</ele>
        <time>2022-07-29T07:25:31Z</time>
      </trkpt>
      <trkpt lat="48.00628" lon="6.739">
        <ele>507.6</ele>
        <time>2022-07-29T07:25:32Z</time>
      </trkpt>
      <trkpt lat="48.00629" lon="6.73904">
        <ele>507.6</ele>
        <time>2022-07-29T07:25:33Z</time>
      </trkpt>
      <trkpt lat="48.0063" lon="6.73907">
        <ele>507.6</ele>
        <time>2022-07-29T07:25:34Z</time>
      </trkpt>
      <trkpt lat="48.00631" lon="6.7391">
        <ele>507.6</ele>
        <time>2022-07-29T07:25:35Z</time>
      </trkpt>
      <trkpt lat="48.00632" lon="6.73913">
        <ele>507.8</ele>
        <time>2022-07-29T07:25:36Z</time>
      </trkpt>
      <trkpt lat="48.00633" lon="6.73916">
        <ele>507.8</ele>
        <time>2022-07-29T07:25:37Z</time>
      </trkpt>
      <trkpt lat="48.00634" lon="6.73919">
        <ele>507.8</ele>
        <time>2022-07-29T07:25:38Z</time>
      </trkpt>
      <trkpt lat="48.00636" lon="6.73923">
        <ele>508</ele>
        <time>2022-07-29T07:25:39Z</time>
      </trkpt>
      <trkpt lat="48.00637" lon="6.73926">
        <ele>508</ele>
        <time>2022-07-29T07:25:40Z</time>
      </trkpt>
      <trkpt lat="48.00638" lon="6.7393">
        <ele>508</ele>
        <time>2022-07-29T07:25:41Z</time>
      </trkpt>
      <trkpt lat="48.00639" lon="6.73933">
        <ele>508</ele>
        <time>2022-07-29T07:25:42Z</time>
      </trkpt>
      <trkpt lat="48.00642" lon="6.73941">
        <ele>508.2</ele>
        <time>2022-07-29T07:25:44Z</time>
      </trkpt>
      <trkpt lat="48.00649" lon="6.73962">
        <ele>508.6</ele>
        <time>2022-07-29T07:25:50Z</time>
      </trkpt>
      <trkpt lat="48.00651" lon="6.7397">
        <ele>508.6</ele>
        <time>2022-07-29T07:25:52Z</time>
      </trkpt>
      <trkpt lat="48.00653" lon="6.73973">
        <ele>508.6</ele>
        <time>2022-07-29T07:25:53Z</time>
      </trkpt>
      <trkpt lat="48.00655" lon="6.73977">
        <ele>508.8</ele>
        <time>2022-07-29T07:25:54Z</time>
      </trkpt>
      <trkpt lat="48.00656" lon="6.7398">
        <ele>508.8</ele>
        <time>2022-07-29T07:25:55Z</time>
      </trkpt>
      <trkpt lat="48.00657" lon="6.73989">
        <ele>509</ele>
        <time>2022-07-29T07:25:57Z</time>
      </trkpt>
      <trkpt lat="48.00666" lon="6.74013">
        <ele>509</ele>
        <time>2022-07-29T07:26:04Z</time>
      </trkpt>
      <trkpt lat="48.00672" lon="6.74029">
        <ele>509.4</ele>
        <time>2022-07-29T07:26:09Z</time>
      </trkpt>
      <trkpt lat="48.00674" lon="6.74032">
        <ele>509.6</ele>
        <time>2022-07-29T07:26:10Z</time>
      </trkpt>
      <trkpt lat="48.00677" lon="6.74039">
        <ele>509.6</ele>
        <time>2022-07-29T07:26:12Z</time>
      </trkpt>
      <trkpt lat="48.00687" lon="6.74057">
        <ele>510.2</ele>
        <time>2022-07-29T07:26:18Z</time>
      </trkpt>
      <trkpt lat="48.00694" lon="6.74073">
        <ele>510.6</ele>
        <time>2022-07-29T07:26:23Z</time>
      </trkpt>
      <trkpt lat="48.00695" lon="6.74076">
        <ele>511</ele>
        <time>2022-07-29T07:26:24Z</time>
      </trkpt>
      <trkpt lat="48.00698" lon="6.74086">
        <ele>511.2</ele>
        <time>2022-07-29T07:26:27Z</time>
      </trkpt>
      <trkpt lat="48.00699" lon="6.74089">
        <ele>511.4</ele>
        <time>2022-07-29T07:26:28Z</time>
      </trkpt>
      <trkpt lat="48.007" lon="6.74092">
        <ele>511.4</ele>
        <time>2022-07-29T07:26:29Z</time>
      </trkpt>
      <trkpt lat="48.00701" lon="6.74094">
        <ele>511.6</ele>
        <time>2022-07-29T07:26:30Z</time>
      </trkpt>
      <trkpt lat="48.00701" lon="6.74097">
        <ele>511.6</ele>
        <time>2022-07-29T07:26:31Z</time>
      </trkpt>
      <trkpt lat="48.00702" lon="6.741">
        <ele>511.8</ele>
        <time>2022-07-29T07:26:32Z</time>
      </trkpt>
      <trkpt lat="48.00703" lon="6.74103">
        <ele>512.2</ele>
        <time>2022-07-29T07:26:33Z</time>
      </trkpt>
      <trkpt lat="48.00707" lon="6.74113">
        <ele>512.6</ele>
        <time>2022-07-29T07:26:36Z</time>
      </trkpt>
      <trkpt lat="48.00709" lon="6.74115">
        <ele>512.6</ele>
        <time>2022-07-29T07:26:37Z</time>
      </trkpt>
      <trkpt lat="48.0071" lon="6.74118">
        <ele>512.6</ele>
        <time>2022-07-29T07:26:38Z</time>
      </trkpt>
      <trkpt lat="48.00711" lon="6.7412">
        <ele>512.8</ele>
        <time>2022-07-29T07:26:39Z</time>
      </trkpt>
      <trkpt lat="48.00713" lon="6.74123">
        <ele>512.8</ele>
        <time>2022-07-29T07:26:40Z</time>
      </trkpt>
      <trkpt lat="48.00714" lon="6.74126">
        <ele>513</ele>
        <time>2022-07-29T07:26:41Z</time>
      </trkpt>
      <trkpt lat="48.00716" lon="6.74128">
        <ele>513</ele>
        <time>2022-07-29T07:26:42Z</time>
      </trkpt>
      <trkpt lat="48.00717" lon="6.7413">
        <ele>513.2</ele>
        <time>2022-07-29T07:26:43Z</time>
      </trkpt>
      <trkpt lat="48.00718" lon="6.74132">
        <ele>513.2</ele>
        <time>2022-07-29T07:26:44Z</time>
      </trkpt>
      <trkpt lat="48.00719" lon="6.74135">
        <ele>513.2</ele>
        <time>2022-07-29T07:26:45Z</time>
      </trkpt>
      <trkpt lat="48.00721" lon="6.74137">
        <ele>513.4</ele>
        <time>2022-07-29T07:26:46Z</time>
      </trkpt>
      <trkpt lat="48.00722" lon="6.74139">
        <ele>513.4</ele>
        <time>2022-07-29T07:26:47Z</time>
      </trkpt>
      <trkpt lat="48.00724" lon="6.7414">
        <ele>513.6</ele>
        <time>2022-07-29T07:26:48Z</time>
      </trkpt>
      <trkpt lat="48.00726" lon="6.74143">
        <ele>513.8</ele>
        <time>2022-07-29T07:26:49Z</time>
      </trkpt>
      <trkpt lat="48.00727" lon="6.74146">
        <ele>513.8</ele>
        <time>2022-07-29T07:26:50Z</time>
      </trkpt>
      <trkpt lat="48.00729" lon="6.74149">
        <ele>514</ele>
        <time>2022-07-29T07:26:51Z</time>
      </trkpt>
      <trkpt lat="48.0073" lon="6.74151">
        <ele>514.2</ele>
        <time>2022-07-29T07:26:52Z</time>
      </trkpt>
      <trkpt lat="48.00732" lon="6.74154">
        <ele>514.4</ele>
        <time>2022-07-29T07:26:53Z</time>
      </trkpt>
      <trkpt lat="48.00733" lon="6.74156">
        <ele>514.4</ele>
        <time>2022-07-29T07:26:54Z</time>
      </trkpt>
      <trkpt lat="48.00734" lon="6.74159">
        <ele>514.6</ele>
        <time>2022-07-29T07:26:55Z</time>
      </trkpt>
      <trkpt lat="48.00736" lon="6.74162">
        <ele>514.8</ele>
        <time>2022-07-29T07:26:56Z</time>
      </trkpt>
      <trkpt lat="48.00738" lon="6.74164">
        <ele>514.8</ele>
        <time>2022-07-29T07:26:57Z</time>
      </trkpt>
      <trkpt lat="48.00739" lon="6.74167">
        <ele>515</ele>
        <time>2022-07-29T07:26:58Z</time>
      </trkpt>
      <trkpt lat="48.0074" lon="6.74169">
        <ele>515.2</ele>
        <time>2022-07-29T07:26:59Z</time>
      </trkpt>
      <trkpt lat="48.00742" lon="6.74171">
        <ele>515.4</ele>
        <time>2022-07-29T07:27:00Z</time>
      </trkpt>
      <trkpt lat="48.00743" lon="6.74173">
        <ele>515.4</ele>
        <time>2022-07-29T07:27:01Z</time>
      </trkpt>
      <trkpt lat="48.00744" lon="6.74176">
        <ele>515.6</ele>
        <time>2022-07-29T07:27:02Z</time>
      </trkpt>
      <trkpt lat="48.00745" lon="6.74178">
        <ele>515.6</ele>
        <time>2022-07-29T07:27:03Z</time>
      </trkpt>
      <trkpt lat="48.00747" lon="6.74181">
        <ele>515.8</ele>
        <time>2022-07-29T07:27:04Z</time>
      </trkpt>
      <trkpt lat="48.00748" lon="6.74184">
        <ele>516</ele>
        <time>2022-07-29T07:27:05Z</time>
      </trkpt>
      <trkpt lat="48.00749" lon="6.74187">
        <ele>516</ele>
        <time>2022-07-29T07:27:06Z</time>
      </trkpt>
      <trkpt lat="48.0075" lon="6.7419">
        <ele>516</ele>
        <time>2022-07-29T07:27:07Z</time>
      </trkpt>
      <trkpt lat="48.00752" lon="6.74193">
        <ele>516</ele>
        <time>2022-07-29T07:27:08Z</time>
      </trkpt>
      <trkpt lat="48.00753" lon="6.74196">
        <ele>516</ele>
        <time>2022-07-29T07:27:09Z</time>
      </trkpt>
      <trkpt lat="48.00754" lon="6.742">
        <ele>516</ele>
        <time>2022-07-29T07:27:10Z</time>
      </trkpt>
      <trkpt lat="48.00754" lon="6.74203">
        <ele>516</ele>
        <time>2022-07-29T07:27:11Z</time>
      </trkpt>
      <trkpt lat="48.00755" lon="6.74206">
        <ele>516</ele>
        <time>2022-07-29T07:27:12Z</time>
      </trkpt>
      <trkpt lat="48.00756" lon="6.7421">
        <ele>516</ele>
        <time>2022-07-29T07:27:13Z</time>
      </trkpt>
      <trkpt lat="48.00757" lon="6.74213">
        <ele>516</ele>
        <time>2022-07-29T07:27:14Z</time>
      </trkpt>
      <trkpt lat="48.00758" lon="6.74217">
        <ele>515.8</ele>
        <time>2022-07-29T07:27:15Z</time>
      </trkpt>
      <trkpt lat="48.00759" lon="6.74221">
        <ele>515.8</ele>
        <time>2022-07-29T07:27:16Z</time>
      </trkpt>
      <trkpt lat="48.0076" lon="6.74225">
        <ele>515.6</ele>
        <time>2022-07-29T07:27:17Z</time>
      </trkpt>
      <trkpt lat="48.00762" lon="6.74255">
        <ele>515.6</ele>
        <time>2022-07-29T07:27:23Z</time>
      </trkpt>
      <trkpt lat="48.00761" lon="6.74281">
        <ele>515.2</ele>
        <time>2022-07-29T07:27:26Z</time>
      </trkpt>
      <trkpt lat="48.0076" lon="6.74291">
        <ele>514.8</ele>
        <time>2022-07-29T07:27:27Z</time>
      </trkpt>
      <trkpt lat="48.0076" lon="6.74301">
        <ele>514.6</ele>
        <time>2022-07-29T07:27:28Z</time>
      </trkpt>
      <trkpt lat="48.00762" lon="6.74309">
        <ele>514</ele>
        <time>2022-07-29T07:27:29Z</time>
      </trkpt>
      <trkpt lat="48.00764" lon="6.74317">
        <ele>513.4</ele>
        <time>2022-07-29T07:27:30Z</time>
      </trkpt>
      <trkpt lat="48.00766" lon="6.74324">
        <ele>512.2</ele>
        <time>2022-07-29T07:27:31Z</time>
      </trkpt>
      <trkpt lat="48.00767" lon="6.7433">
        <ele>511.8</ele>
        <time>2022-07-29T07:27:32Z</time>
      </trkpt>
      <trkpt lat="48.00769" lon="6.74336">
        <ele>511.2</ele>
        <time>2022-07-29T07:27:33Z</time>
      </trkpt>
      <trkpt lat="48.0077" lon="6.74341">
        <ele>511</ele>
        <time>2022-07-29T07:27:34Z</time>
      </trkpt>
      <trkpt lat="48.00771" lon="6.74346">
        <ele>511</ele>
        <time>2022-07-29T07:27:35Z</time>
      </trkpt>
      <trkpt lat="48.00772" lon="6.7435">
        <ele>511</ele>
        <time>2022-07-29T07:27:36Z</time>
      </trkpt>
      <trkpt lat="48.00773" lon="6.74354">
        <ele>511</ele>
        <time>2022-07-29T07:27:37Z</time>
      </trkpt>
      <trkpt lat="48.00773" lon="6.74357">
        <ele>511</ele>
        <time>2022-07-29T07:27:38Z</time>
      </trkpt>
      <trkpt lat="48.00774" lon="6.74361">
        <ele>511</ele>
        <time>2022-07-29T07:27:39Z</time>
      </trkpt>
      <trkpt lat="48.00774" lon="6.74364">
        <ele>511</ele>
        <time>2022-07-29T07:27:40Z</time>
      </trkpt>
      <trkpt lat="48.00775" lon="6.74376">
        <ele>511.2</ele>
        <time>2022-07-29T07:27:43Z</time>
      </trkpt>
      <trkpt lat="48.00778" lon="6.7439">
        <ele>511.4</ele>
        <time>2022-07-29T07:27:47Z</time>
      </trkpt>
      <trkpt lat="48.00779" lon="6.74393">
        <ele>511.4</ele>
        <time>2022-07-29T07:27:48Z</time>
      </trkpt>
      <trkpt lat="48.00779" lon="6.74399">
        <ele>511.4</ele>
        <time>2022-07-29T07:27:49Z</time>
      </trkpt>
      <trkpt lat="48.00782" lon="6.74429">
        <ele>511.4</ele>
        <time>2022-07-29T07:27:55Z</time>
      </trkpt>
      <trkpt lat="48.00782" lon="6.74433">
        <ele>511.4</ele>
        <time>2022-07-29T07:27:56Z</time>
      </trkpt>
      <trkpt lat="48.00787" lon="6.7445">
        <ele>511.6</ele>
        <time>2022-07-29T07:28:00Z</time>
      </trkpt>
      <trkpt lat="48.00795" lon="6.74475">
        <ele>511.8</ele>
        <time>2022-07-29T07:28:06Z</time>
      </trkpt>
      <trkpt lat="48.00798" lon="6.74482">
        <ele>512</ele>
        <time>2022-07-29T07:28:08Z</time>
      </trkpt>
      <trkpt lat="48.00803" lon="6.74489">
        <ele>512.4</ele>
        <time>2022-07-29T07:28:11Z</time>
      </trkpt>
      <trkpt lat="48.00805" lon="6.74492">
        <ele>512.6</ele>
        <time>2022-07-29T07:28:12Z</time>
      </trkpt>
      <trkpt lat="48.00808" lon="6.74499">
        <ele>512.8</ele>
        <time>2022-07-29T07:28:14Z</time>
      </trkpt>
      <trkpt lat="48.00809" lon="6.74502">
        <ele>512.8</ele>
        <time>2022-07-29T07:28:15Z</time>
      </trkpt>
      <trkpt lat="48.0081" lon="6.74505">
        <ele>513</ele>
        <time>2022-07-29T07:28:16Z</time>
      </trkpt>
      <trkpt lat="48.00812" lon="6.74509">
        <ele>513</ele>
        <time>2022-07-29T07:28:17Z</time>
      </trkpt>
      <trkpt lat="48.00814" lon="6.74513">
        <ele>513</ele>
        <time>2022-07-29T07:28:18Z</time>
      </trkpt>
      <trkpt lat="48.00815" lon="6.74516">
        <ele>513.2</ele>
        <time>2022-07-29T07:28:19Z</time>
      </trkpt>
      <trkpt lat="48.00818" lon="6.74523">
        <ele>513.8</ele>
        <time>2022-07-29T07:28:21Z</time>
      </trkpt>
      <trkpt lat="48.00821" lon="6.74529">
        <ele>514.4</ele>
        <time>2022-07-29T07:28:23Z</time>
      </trkpt>
      <trkpt lat="48.00827" lon="6.74538">
        <ele>516</ele>
        <time>2022-07-29T07:28:26Z</time>
      </trkpt>
      <trkpt lat="48.00828" lon="6.7454">
        <ele>516</ele>
        <time>2022-07-29T07:28:27Z</time>
      </trkpt>
      <trkpt lat="48.0083" lon="6.74543">
        <ele>516.4</ele>
        <time>2022-07-29T07:28:28Z</time>
      </trkpt>
      <trkpt lat="48.00831" lon="6.74545">
        <ele>516.4</ele>
        <time>2022-07-29T07:28:29Z</time>
      </trkpt>
      <trkpt lat="48.00833" lon="6.74548">
        <ele>516.8</ele>
        <time>2022-07-29T07:28:30Z</time>
      </trkpt>
      <trkpt lat="48.00834" lon="6.7455">
        <ele>517.2</ele>
        <time>2022-07-29T07:28:31Z</time>
      </trkpt>
      <trkpt lat="48.00836" lon="6.74552">
        <ele>517.6</ele>
        <time>2022-07-29T07:28:32Z</time>
      </trkpt>
      <trkpt lat="48.00838" lon="6.74553">
        <ele>517.8</ele>
        <time>2022-07-29T07:28:33Z</time>
      </trkpt>
      <trkpt lat="48.0084" lon="6.74554">
        <ele>518.2</ele>
        <time>2022-07-29T07:28:34Z</time>
      </trkpt>
      <trkpt lat="48.00842" lon="6.74554">
        <ele>518.6</ele>
        <time>2022-07-29T07:28:35Z</time>
      </trkpt>
      <trkpt lat="48.00844" lon="6.74554">
        <ele>518.6</ele>
        <time>2022-07-29T07:28:36Z</time>
      </trkpt>
      <trkpt lat="48.00846" lon="6.74554">
        <ele>519</ele>
        <time>2022-07-29T07:28:37Z</time>
      </trkpt>
      <trkpt lat="48.00848" lon="6.74555">
        <ele>519.2</ele>
        <time>2022-07-29T07:28:38Z</time>
      </trkpt>
      <trkpt lat="48.0085" lon="6.74556">
        <ele>519.4</ele>
        <time>2022-07-29T07:28:39Z</time>
      </trkpt>
      <trkpt lat="48.00852" lon="6.74557">
        <ele>519.4</ele>
        <time>2022-07-29T07:28:40Z</time>
      </trkpt>
      <trkpt lat="48.00853" lon="6.74559">
        <ele>519.6</ele>
        <time>2022-07-29T07:28:41Z</time>
      </trkpt>
      <trkpt lat="48.00855" lon="6.74561">
        <ele>519.6</ele>
        <time>2022-07-29T07:28:42Z</time>
      </trkpt>
      <trkpt lat="48.00857" lon="6.74563">
        <ele>519.8</ele>
        <time>2022-07-29T07:28:43Z</time>
      </trkpt>
      <trkpt lat="48.00859" lon="6.74565">
        <ele>520.2</ele>
        <time>2022-07-29T07:28:44Z</time>
      </trkpt>
      <trkpt lat="48.0086" lon="6.74567">
        <ele>520.6</ele>
        <time>2022-07-29T07:28:45Z</time>
      </trkpt>
      <trkpt lat="48.00862" lon="6.7457">
        <ele>520.8</ele>
        <time>2022-07-29T07:28:46Z</time>
      </trkpt>
      <trkpt lat="48.00864" lon="6.74572">
        <ele>521</ele>
        <time>2022-07-29T07:28:47Z</time>
      </trkpt>
      <trkpt lat="48.00865" lon="6.74574">
        <ele>521.2</ele>
        <time>2022-07-29T07:28:48Z</time>
      </trkpt>
      <trkpt lat="48.00867" lon="6.74576">
        <ele>521.2</ele>
        <time>2022-07-29T07:28:49Z</time>
      </trkpt>
      <trkpt lat="48.00869" lon="6.74577">
        <ele>521.4</ele>
        <time>2022-07-29T07:28:50Z</time>
      </trkpt>
      <trkpt lat="48.00871" lon="6.74578">
        <ele>521.4</ele>
        <time>2022-07-29T07:28:51Z</time>
      </trkpt>
      <trkpt lat="48.00873" lon="6.74578">
        <ele>521.6</ele>
        <time>2022-07-29T07:28:52Z</time>
      </trkpt>
      <trkpt lat="48.00875" lon="6.74579">
        <ele>521.8</ele>
        <time>2022-07-29T07:28:53Z</time>
      </trkpt>
      <trkpt lat="48.00877" lon="6.74579">
        <ele>521.8</ele>
        <time>2022-07-29T07:28:54Z</time>
      </trkpt>
      <trkpt lat="48.00879" lon="6.74579">
        <ele>522</ele>
        <time>2022-07-29T07:28:55Z</time>
      </trkpt>
      <trkpt lat="48.00881" lon="6.7458">
        <ele>522</ele>
        <time>2022-07-29T07:28:56Z</time>
      </trkpt>
      <trkpt lat="48.00883" lon="6.7458">
        <ele>522.4</ele>
        <time>2022-07-29T07:28:57Z</time>
      </trkpt>
      <trkpt lat="48.00885" lon="6.74581">
        <ele>522.4</ele>
        <time>2022-07-29T07:28:58Z</time>
      </trkpt>
      <trkpt lat="48.00887" lon="6.74582">
        <ele>522.6</ele>
        <time>2022-07-29T07:28:59Z</time>
      </trkpt>
      <trkpt lat="48.00889" lon="6.74582">
        <ele>522.8</ele>
        <time>2022-07-29T07:29:00Z</time>
      </trkpt>
      <trkpt lat="48.00892" lon="6.74582">
        <ele>523.2</ele>
        <time>2022-07-29T07:29:01Z</time>
      </trkpt>
      <trkpt lat="48.00894" lon="6.74583">
        <ele>523.2</ele>
        <time>2022-07-29T07:29:02Z</time>
      </trkpt>
      <trkpt lat="48.00896" lon="6.74583">
        <ele>523.4</ele>
        <time>2022-07-29T07:29:03Z</time>
      </trkpt>
      <trkpt lat="48.00898" lon="6.74583">
        <ele>523.4</ele>
        <time>2022-07-29T07:29:04Z</time>
      </trkpt>
      <trkpt lat="48.009" lon="6.74583">
        <ele>523.6</ele>
        <time>2022-07-29T07:29:05Z</time>
      </trkpt>
      <trkpt lat="48.00902" lon="6.74584">
        <ele>524</ele>
        <time>2022-07-29T07:29:06Z</time>
      </trkpt>
      <trkpt lat="48.00904" lon="6.74584">
        <ele>524</ele>
        <time>2022-07-29T07:29:07Z</time>
      </trkpt>
      <trkpt lat="48.00906" lon="6.74586">
        <ele>524.2</ele>
        <time>2022-07-29T07:29:08Z</time>
      </trkpt>
      <trkpt lat="48.00908" lon="6.74587">
        <ele>524.2</ele>
        <time>2022-07-29T07:29:09Z</time>
      </trkpt>
      <trkpt lat="48.0091" lon="6.74588">
        <ele>524.4</ele>
        <time>2022-07-29T07:29:10Z</time>
      </trkpt>
      <trkpt lat="48.00911" lon="6.7459">
        <ele>524.6</ele>
        <time>2022-07-29T07:29:11Z</time>
      </trkpt>
      <trkpt lat="48.00913" lon="6.74591">
        <ele>524.8</ele>
        <time>2022-07-29T07:29:12Z</time>
      </trkpt>
      <trkpt lat="48.00915" lon="6.74593">
        <ele>525</ele>
        <time>2022-07-29T07:29:13Z</time>
      </trkpt>
      <trkpt lat="48.00916" lon="6.74594">
        <ele>525</ele>
        <time>2022-07-29T07:29:14Z</time>
      </trkpt>
      <trkpt lat="48.00918" lon="6.74595">
        <ele>525.2</ele>
        <time>2022-07-29T07:29:15Z</time>
      </trkpt>
      <trkpt lat="48.00919" lon="6.74597">
        <ele>525.4</ele>
        <time>2022-07-29T07:29:16Z</time>
      </trkpt>
      <trkpt lat="48.00921" lon="6.74598">
        <ele>525.8</ele>
        <time>2022-07-29T07:29:17Z</time>
      </trkpt>
      <trkpt lat="48.00923" lon="6.746">
        <ele>525.8</ele>
        <time>2022-07-29T07:29:18Z</time>
      </trkpt>
      <trkpt lat="48.00924" lon="6.74601">
        <ele>526.2</ele>
        <time>2022-07-29T07:29:19Z</time>
      </trkpt>
      <trkpt lat="48.00926" lon="6.74603">
        <ele>526.2</ele>
        <time>2022-07-29T07:29:20Z</time>
      </trkpt>
      <trkpt lat="48.00928" lon="6.74604">
        <ele>526.4</ele>
        <time>2022-07-29T07:29:21Z</time>
      </trkpt>
      <trkpt lat="48.0093" lon="6.74606">
        <ele>526.4</ele>
        <time>2022-07-29T07:29:22Z</time>
      </trkpt>
      <trkpt lat="48.00931" lon="6.74607">
        <ele>526.6</ele>
        <time>2022-07-29T07:29:23Z</time>
      </trkpt>
      <trkpt lat="48.00933" lon="6.74609">
        <ele>527.2</ele>
        <time>2022-07-29T07:29:24Z</time>
      </trkpt>
      <trkpt lat="48.00935" lon="6.74611">
        <ele>527.4</ele>
        <time>2022-07-29T07:29:25Z</time>
      </trkpt>
      <trkpt lat="48.00937" lon="6.74613">
        <ele>527.8</ele>
        <time>2022-07-29T07:29:26Z</time>
      </trkpt>
      <trkpt lat="48.00939" lon="6.74615">
        <ele>528</ele>
        <time>2022-07-29T07:29:27Z</time>
      </trkpt>
      <trkpt lat="48.00941" lon="6.74618">
        <ele>528.2</ele>
        <time>2022-07-29T07:29:28Z</time>
      </trkpt>
      <trkpt lat="48.00943" lon="6.74621">
        <ele>528.4</ele>
        <time>2022-07-29T07:29:29Z</time>
      </trkpt>
      <trkpt lat="48.00944" lon="6.74623">
        <ele>528.4</ele>
        <time>2022-07-29T07:29:30Z</time>
      </trkpt>
      <trkpt lat="48.00946" lon="6.74626">
        <ele>528.6</ele>
        <time>2022-07-29T07:29:31Z</time>
      </trkpt>
      <trkpt lat="48.00947" lon="6.74629">
        <ele>528.8</ele>
        <time>2022-07-29T07:29:32Z</time>
      </trkpt>
      <trkpt lat="48.00949" lon="6.74631">
        <ele>529</ele>
        <time>2022-07-29T07:29:33Z</time>
      </trkpt>
      <trkpt lat="48.0095" lon="6.74634">
        <ele>529</ele>
        <time>2022-07-29T07:29:34Z</time>
      </trkpt>
      <trkpt lat="48.00952" lon="6.74637">
        <ele>529</ele>
        <time>2022-07-29T07:29:35Z</time>
      </trkpt>
      <trkpt lat="48.00953" lon="6.74641">
        <ele>529</ele>
        <time>2022-07-29T07:29:36Z</time>
      </trkpt>
      <trkpt lat="48.00954" lon="6.74645">
        <ele>529.2</ele>
        <time>2022-07-29T07:29:37Z</time>
      </trkpt>
      <trkpt lat="48.00955" lon="6.74649">
        <ele>529.2</ele>
        <time>2022-07-29T07:29:38Z</time>
      </trkpt>
      <trkpt lat="48.00957" lon="6.74653">
        <ele>529.2</ele>
        <time>2022-07-29T07:29:39Z</time>
      </trkpt>
      <trkpt lat="48.00958" lon="6.74657">
        <ele>529.2</ele>
        <time>2022-07-29T07:29:40Z</time>
      </trkpt>
      <trkpt lat="48.0096" lon="6.74662">
        <ele>529.2</ele>
        <time>2022-07-29T07:29:41Z</time>
      </trkpt>
      <trkpt lat="48.00961" lon="6.74666">
        <ele>529.2</ele>
        <time>2022-07-29T07:29:42Z</time>
      </trkpt>
      <trkpt lat="48.00963" lon="6.74671">
        <ele>529</ele>
        <time>2022-07-29T07:29:43Z</time>
      </trkpt>
      <trkpt lat="48.00965" lon="6.74675">
        <ele>528.8</ele>
        <time>2022-07-29T07:29:44Z</time>
      </trkpt>
      <trkpt lat="48.00967" lon="6.74679">
        <ele>528.8</ele>
        <time>2022-07-29T07:29:45Z</time>
      </trkpt>
      <trkpt lat="48.0097" lon="6.74684">
        <ele>528.8</ele>
        <time>2022-07-29T07:29:46Z</time>
      </trkpt>
      <trkpt lat="48.00973" lon="6.74688">
        <ele>528.8</ele>
        <time>2022-07-29T07:29:47Z</time>
      </trkpt>
      <trkpt lat="48.00975" lon="6.74692">
        <ele>528.6</ele>
        <time>2022-07-29T07:29:48Z</time>
      </trkpt>
      <trkpt lat="48.00978" lon="6.74696">
        <ele>528.6</ele>
        <time>2022-07-29T07:29:49Z</time>
      </trkpt>
      <trkpt lat="48.00984" lon="6.74702">
        <ele>528.4</ele>
        <time>2022-07-29T07:29:51Z</time>
      </trkpt>
      <trkpt lat="48.0099" lon="6.74705">
        <ele>528.2</ele>
        <time>2022-07-29T07:29:53Z</time>
      </trkpt>
      <trkpt lat="48.00993" lon="6.74705">
        <ele>528</ele>
        <time>2022-07-29T07:29:54Z</time>
      </trkpt>
      <trkpt lat="48.00996" lon="6.74705">
        <ele>528</ele>
        <time>2022-07-29T07:29:55Z</time>
      </trkpt>
      <trkpt lat="48.00999" lon="6.74705">
        <ele>527.8</ele>
        <time>2022-07-29T07:29:56Z</time>
      </trkpt>
      <trkpt lat="48.01004" lon="6.74703">
        <ele>527.8</ele>
        <time>2022-07-29T07:29:58Z</time>
      </trkpt>
      <trkpt lat="48.01006" lon="6.74703">
        <ele>527.8</ele>
        <time>2022-07-29T07:29:59Z</time>
      </trkpt>
      <trkpt lat="48.01008" lon="6.74703">
        <ele>527.8</ele>
        <time>2022-07-29T07:30:00Z</time>
      </trkpt>
      <trkpt lat="48.01009" lon="6.74704">
        <ele>527.8</ele>
        <time>2022-07-29T07:30:01Z</time>
      </trkpt>
      <trkpt lat="48.01013" lon="6.74723">
        <ele>527.6</ele>
        <time>2022-07-29T07:30:05Z</time>
      </trkpt>
      <trkpt lat="48.01014" lon="6.74727">
        <ele>527.6</ele>
        <time>2022-07-29T07:30:06Z</time>
      </trkpt>
      <trkpt lat="48.01014" lon="6.74731">
        <ele>527.6</ele>
        <time>2022-07-29T07:30:07Z</time>
      </trkpt>
      <trkpt lat="48.01015" lon="6.74733">
        <ele>527.6</ele>
        <time>2022-07-29T07:30:08Z</time>
      </trkpt>
      <trkpt lat="48.01014" lon="6.74736">
        <ele>527.6</ele>
        <time>2022-07-29T07:30:09Z</time>
      </trkpt>
      <trkpt lat="48.01014" lon="6.74738">
        <ele>527.6</ele>
        <time>2022-07-29T07:30:10Z</time>
      </trkpt>
      <trkpt lat="48.01014" lon="6.74741">
        <ele>527.6</ele>
        <time>2022-07-29T07:30:11Z</time>
      </trkpt>
      <trkpt lat="48.01012" lon="6.74749">
        <ele>527.8</ele>
        <time>2022-07-29T07:30:14Z</time>
      </trkpt>
      <trkpt lat="48.01011" lon="6.74753">
        <ele>528</ele>
        <time>2022-07-29T07:30:15Z</time>
      </trkpt>
      <trkpt lat="48.01011" lon="6.74756">
        <ele>528.2</ele>
        <time>2022-07-29T07:30:16Z</time>
      </trkpt>
      <trkpt lat="48.0101" lon="6.74759">
        <ele>528.2</ele>
        <time>2022-07-29T07:30:17Z</time>
      </trkpt>
      <trkpt lat="48.0101" lon="6.74762">
        <ele>528.4</ele>
        <time>2022-07-29T07:30:18Z</time>
      </trkpt>
      <trkpt lat="48.01009" lon="6.74764">
        <ele>528.8</ele>
        <time>2022-07-29T07:30:19Z</time>
      </trkpt>
      <trkpt lat="48.01009" lon="6.74768">
        <ele>529.4</ele>
        <time>2022-07-29T07:30:20Z</time>
      </trkpt>
      <trkpt lat="48.01008" lon="6.74771">
        <ele>529.6</ele>
        <time>2022-07-29T07:30:21Z</time>
      </trkpt>
      <trkpt lat="48.01006" lon="6.74781">
        <ele>530.8</ele>
        <time>2022-07-29T07:30:25Z</time>
      </trkpt>
      <trkpt lat="48.01006" lon="6.74783">
        <ele>531</ele>
        <time>2022-07-29T07:30:26Z</time>
      </trkpt>
      <trkpt lat="48.01005" lon="6.74786">
        <ele>531</ele>
        <time>2022-07-29T07:30:27Z</time>
      </trkpt>
      <trkpt lat="48.01004" lon="6.74789">
        <ele>531.2</ele>
        <time>2022-07-29T07:30:28Z</time>
      </trkpt>
      <trkpt lat="48.01004" lon="6.74792">
        <ele>531.2</ele>
        <time>2022-07-29T07:30:29Z</time>
      </trkpt>
      <trkpt lat="48.01004" lon="6.74795">
        <ele>531.2</ele>
        <time>2022-07-29T07:30:30Z</time>
      </trkpt>
      <trkpt lat="48.01003" lon="6.74799">
        <ele>531.2</ele>
        <time>2022-07-29T07:30:31Z</time>
      </trkpt>
      <trkpt lat="48.01002" lon="6.74802">
        <ele>531.4</ele>
        <time>2022-07-29T07:30:32Z</time>
      </trkpt>
      <trkpt lat="48.01002" lon="6.74806">
        <ele>531.4</ele>
        <time>2022-07-29T07:30:33Z</time>
      </trkpt>
      <trkpt lat="48.01001" lon="6.7481">
        <ele>531.4</ele>
        <time>2022-07-29T07:30:34Z</time>
      </trkpt>
      <trkpt lat="48.01001" lon="6.74815">
        <ele>531.4</ele>
        <time>2022-07-29T07:30:35Z</time>
      </trkpt>
      <trkpt lat="48.01" lon="6.7482">
        <ele>531.2</ele>
        <time>2022-07-29T07:30:36Z</time>
      </trkpt>
      <trkpt lat="48.01" lon="6.74824">
        <ele>531.2</ele>
        <time>2022-07-29T07:30:37Z</time>
      </trkpt>
      <trkpt lat="48.00999" lon="6.74829">
        <ele>531</ele>
        <time>2022-07-29T07:30:38Z</time>
      </trkpt>
      <trkpt lat="48.01" lon="6.74833">
        <ele>531</ele>
        <time>2022-07-29T07:30:39Z</time>
      </trkpt>
      <trkpt lat="48.01001" lon="6.74837">
        <ele>531</ele>
        <time>2022-07-29T07:30:40Z</time>
      </trkpt>
      <trkpt lat="48.01001" lon="6.74841">
        <ele>530.8</ele>
        <time>2022-07-29T07:30:41Z</time>
      </trkpt>
      <trkpt lat="48.01001" lon="6.74845">
        <ele>530.8</ele>
        <time>2022-07-29T07:30:42Z</time>
      </trkpt>
      <trkpt lat="48.01001" lon="6.74849">
        <ele>530.4</ele>
        <time>2022-07-29T07:30:43Z</time>
      </trkpt>
      <trkpt lat="48.01001" lon="6.74854">
        <ele>530.4</ele>
        <time>2022-07-29T07:30:44Z</time>
      </trkpt>
      <trkpt lat="48.01001" lon="6.74863">
        <ele>529.6</ele>
        <time>2022-07-29T07:30:46Z</time>
      </trkpt>
      <trkpt lat="48.01" lon="6.74878">
        <ele>528.2</ele>
        <time>2022-07-29T07:30:49Z</time>
      </trkpt>
      <trkpt lat="48.01" lon="6.74884">
        <ele>527.6</ele>
        <time>2022-07-29T07:30:50Z</time>
      </trkpt>
      <trkpt lat="48.01003" lon="6.74895">
        <ele>527</ele>
        <time>2022-07-29T07:30:52Z</time>
      </trkpt>
      <trkpt lat="48.01007" lon="6.74901">
        <ele>526.6</ele>
        <time>2022-07-29T07:30:53Z</time>
      </trkpt>
      <trkpt lat="48.0101" lon="6.74907">
        <ele>525.4</ele>
        <time>2022-07-29T07:30:54Z</time>
      </trkpt>
      <trkpt lat="48.01014" lon="6.74914">
        <ele>525</ele>
        <time>2022-07-29T07:30:55Z</time>
      </trkpt>
      <trkpt lat="48.01019" lon="6.7492">
        <ele>524</ele>
        <time>2022-07-29T07:30:56Z</time>
      </trkpt>
      <trkpt lat="48.01024" lon="6.74929">
        <ele>523.6</ele>
        <time>2022-07-29T07:30:57Z</time>
      </trkpt>
      <trkpt lat="48.01028" lon="6.74938">
        <ele>522.8</ele>
        <time>2022-07-29T07:30:58Z</time>
      </trkpt>
      <trkpt lat="48.0103" lon="6.74945">
        <ele>521.4</ele>
        <time>2022-07-29T07:30:59Z</time>
      </trkpt>
      <trkpt lat="48.0103" lon="6.74954">
        <ele>521</ele>
        <time>2022-07-29T07:31:00Z</time>
      </trkpt>
      <trkpt lat="48.0103" lon="6.74964">
        <ele>520</ele>
        <time>2022-07-29T07:31:01Z</time>
      </trkpt>
      <trkpt lat="48.01029" lon="6.74973">
        <ele>519.8</ele>
        <time>2022-07-29T07:31:02Z</time>
      </trkpt>
      <trkpt lat="48.01028" lon="6.74981">
        <ele>519.2</ele>
        <time>2022-07-29T07:31:03Z</time>
      </trkpt>
      <trkpt lat="48.0103" lon="6.74996">
        <ele>518.6</ele>
        <time>2022-07-29T07:31:05Z</time>
      </trkpt>
      <trkpt lat="48.01033" lon="6.75004">
        <ele>518.4</ele>
        <time>2022-07-29T07:31:06Z</time>
      </trkpt>
      <trkpt lat="48.01036" lon="6.7501">
        <ele>518</ele>
        <time>2022-07-29T07:31:07Z</time>
      </trkpt>
      <trkpt lat="48.01041" lon="6.75016">
        <ele>517.6</ele>
        <time>2022-07-29T07:31:08Z</time>
      </trkpt>
      <trkpt lat="48.01045" lon="6.75022">
        <ele>517.4</ele>
        <time>2022-07-29T07:31:09Z</time>
      </trkpt>
      <trkpt lat="48.01051" lon="6.75028">
        <ele>517.2</ele>
        <time>2022-07-29T07:31:10Z</time>
      </trkpt>
      <trkpt lat="48.0107" lon="6.75044">
        <ele>516.4</ele>
        <time>2022-07-29T07:31:13Z</time>
      </trkpt>
      <trkpt lat="48.01085" lon="6.75052">
        <ele>515.2</ele>
        <time>2022-07-29T07:31:15Z</time>
      </trkpt>
      <trkpt lat="48.01092" lon="6.75053">
        <ele>514.8</ele>
        <time>2022-07-29T07:31:16Z</time>
      </trkpt>
      <trkpt lat="48.01097" lon="6.75051">
        <ele>513.8</ele>
        <time>2022-07-29T07:31:17Z</time>
      </trkpt>
      <trkpt lat="48.01101" lon="6.75048">
        <ele>513.4</ele>
        <time>2022-07-29T07:31:18Z</time>
      </trkpt>
      <trkpt lat="48.01104" lon="6.75044">
        <ele>512.6</ele>
        <time>2022-07-29T07:31:19Z</time>
      </trkpt>
      <trkpt lat="48.01107" lon="6.7504">
        <ele>512</ele>
        <time>2022-07-29T07:31:20Z</time>
      </trkpt>
      <trkpt lat="48.0111" lon="6.75036">
        <ele>511.2</ele>
        <time>2022-07-29T07:31:21Z</time>
      </trkpt>
      <trkpt lat="48.01117" lon="6.75028">
        <ele>510.8</ele>
        <time>2022-07-29T07:31:23Z</time>
      </trkpt>
      <trkpt lat="48.0112" lon="6.75024">
        <ele>510.6</ele>
        <time>2022-07-29T07:31:24Z</time>
      </trkpt>
      <trkpt lat="48.01123" lon="6.7502">
        <ele>510.2</ele>
        <time>2022-07-29T07:31:25Z</time>
      </trkpt>
      <trkpt lat="48.01127" lon="6.75015">
        <ele>509.6</ele>
        <time>2022-07-29T07:31:26Z</time>
      </trkpt>
      <trkpt lat="48.01135" lon="6.75003">
        <ele>508.8</ele>
        <time>2022-07-29T07:31:28Z</time>
      </trkpt>
      <trkpt lat="48.01143" lon="6.7499">
        <ele>508</ele>
        <time>2022-07-29T07:31:30Z</time>
      </trkpt>
      <trkpt lat="48.01146" lon="6.74984">
        <ele>507.8</ele>
        <time>2022-07-29T07:31:31Z</time>
      </trkpt>
      <trkpt lat="48.01149" lon="6.74979">
        <ele>506.8</ele>
        <time>2022-07-29T07:31:32Z</time>
      </trkpt>
      <trkpt lat="48.01153" lon="6.74974">
        <ele>506</ele>
        <time>2022-07-29T07:31:33Z</time>
      </trkpt>
      <trkpt lat="48.01157" lon="6.74971">
        <ele>504.4</ele>
        <time>2022-07-29T07:31:34Z</time>
      </trkpt>
      <trkpt lat="48.0116" lon="6.74968">
        <ele>503.6</ele>
        <time>2022-07-29T07:31:35Z</time>
      </trkpt>
      <trkpt lat="48.01164" lon="6.74964">
        <ele>502.8</ele>
        <time>2022-07-29T07:31:36Z</time>
      </trkpt>
      <trkpt lat="48.01168" lon="6.74959">
        <ele>501.8</ele>
        <time>2022-07-29T07:31:37Z</time>
      </trkpt>
      <trkpt lat="48.01171" lon="6.74954">
        <ele>501.6</ele>
        <time>2022-07-29T07:31:38Z</time>
      </trkpt>
      <trkpt lat="48.0118" lon="6.74936">
        <ele>500.6</ele>
        <time>2022-07-29T07:31:41Z</time>
      </trkpt>
      <trkpt lat="48.01186" lon="6.74925">
        <ele>500.2</ele>
        <time>2022-07-29T07:31:43Z</time>
      </trkpt>
      <trkpt lat="48.0119" lon="6.7492">
        <ele>499.4</ele>
        <time>2022-07-29T07:31:44Z</time>
      </trkpt>
      <trkpt lat="48.01194" lon="6.74917">
        <ele>499</ele>
        <time>2022-07-29T07:31:45Z</time>
      </trkpt>
      <trkpt lat="48.01199" lon="6.74916">
        <ele>498.2</ele>
        <time>2022-07-29T07:31:46Z</time>
      </trkpt>
      <trkpt lat="48.01204" lon="6.74917">
        <ele>497.6</ele>
        <time>2022-07-29T07:31:47Z</time>
      </trkpt>
      <trkpt lat="48.01208" lon="6.7492">
        <ele>496.4</ele>
        <time>2022-07-29T07:31:48Z</time>
      </trkpt>
      <trkpt lat="48.01211" lon="6.74925">
        <ele>496</ele>
        <time>2022-07-29T07:31:49Z</time>
      </trkpt>
      <trkpt lat="48.01212" lon="6.7493">
        <ele>495.4</ele>
        <time>2022-07-29T07:31:50Z</time>
      </trkpt>
      <trkpt lat="48.01213" lon="6.74936">
        <ele>495.2</ele>
        <time>2022-07-29T07:31:51Z</time>
      </trkpt>
      <trkpt lat="48.01211" lon="6.74942">
        <ele>494.4</ele>
        <time>2022-07-29T07:31:52Z</time>
      </trkpt>
      <trkpt lat="48.0121" lon="6.74948">
        <ele>494</ele>
        <time>2022-07-29T07:31:53Z</time>
      </trkpt>
      <trkpt lat="48.01209" lon="6.74953">
        <ele>494</ele>
        <time>2022-07-29T07:31:54Z</time>
      </trkpt>
      <trkpt lat="48.01208" lon="6.74959">
        <ele>493.4</ele>
        <time>2022-07-29T07:31:55Z</time>
      </trkpt>
      <trkpt lat="48.01206" lon="6.74964">
        <ele>493.2</ele>
        <time>2022-07-29T07:31:56Z</time>
      </trkpt>
      <trkpt lat="48.01205" lon="6.74969">
        <ele>493.2</ele>
        <time>2022-07-29T07:31:57Z</time>
      </trkpt>
      <trkpt lat="48.01203" lon="6.74974">
        <ele>493</ele>
        <time>2022-07-29T07:31:58Z</time>
      </trkpt>
      <trkpt lat="48.01202" lon="6.74979">
        <ele>492.8</ele>
        <time>2022-07-29T07:31:59Z</time>
      </trkpt>
      <trkpt lat="48.01197" lon="6.74994">
        <ele>492.6</ele>
        <time>2022-07-29T07:32:02Z</time>
      </trkpt>
      <trkpt lat="48.01195" lon="6.74998">
        <ele>492.6</ele>
        <time>2022-07-29T07:32:03Z</time>
      </trkpt>
      <trkpt lat="48.01193" lon="6.75002">
        <ele>492.8</ele>
        <time>2022-07-29T07:32:04Z</time>
      </trkpt>
      <trkpt lat="48.01191" lon="6.75006">
        <ele>492.8</ele>
        <time>2022-07-29T07:32:05Z</time>
      </trkpt>
      <trkpt lat="48.0119" lon="6.75011">
        <ele>493</ele>
        <time>2022-07-29T07:32:06Z</time>
      </trkpt>
      <trkpt lat="48.01188" lon="6.75015">
        <ele>493</ele>
        <time>2022-07-29T07:32:07Z</time>
      </trkpt>
      <trkpt lat="48.01187" lon="6.7502">
        <ele>493</ele>
        <time>2022-07-29T07:32:08Z</time>
      </trkpt>
      <trkpt lat="48.01186" lon="6.75024">
        <ele>492.8</ele>
        <time>2022-07-29T07:32:09Z</time>
      </trkpt>
      <trkpt lat="48.01184" lon="6.75028">
        <ele>493</ele>
        <time>2022-07-29T07:32:10Z</time>
      </trkpt>
      <trkpt lat="48.01182" lon="6.75032">
        <ele>493</ele>
        <time>2022-07-29T07:32:11Z</time>
      </trkpt>
      <trkpt lat="48.01181" lon="6.75036">
        <ele>493</ele>
        <time>2022-07-29T07:32:12Z</time>
      </trkpt>
      <trkpt lat="48.01179" lon="6.7504">
        <ele>493</ele>
        <time>2022-07-29T07:32:13Z</time>
      </trkpt>
      <trkpt lat="48.01178" lon="6.75044">
        <ele>493</ele>
        <time>2022-07-29T07:32:14Z</time>
      </trkpt>
      <trkpt lat="48.01176" lon="6.75048">
        <ele>493</ele>
        <time>2022-07-29T07:32:15Z</time>
      </trkpt>
      <trkpt lat="48.01175" lon="6.75052">
        <ele>493</ele>
        <time>2022-07-29T07:32:16Z</time>
      </trkpt>
      <trkpt lat="48.01172" lon="6.75055">
        <ele>493</ele>
        <time>2022-07-29T07:32:17Z</time>
      </trkpt>
      <trkpt lat="48.0117" lon="6.75058">
        <ele>493.2</ele>
        <time>2022-07-29T07:32:18Z</time>
      </trkpt>
      <trkpt lat="48.01168" lon="6.75062">
        <ele>493.2</ele>
        <time>2022-07-29T07:32:19Z</time>
      </trkpt>
      <trkpt lat="48.01167" lon="6.75065">
        <ele>493.4</ele>
        <time>2022-07-29T07:32:20Z</time>
      </trkpt>
      <trkpt lat="48.01165" lon="6.75069">
        <ele>493.6</ele>
        <time>2022-07-29T07:32:21Z</time>
      </trkpt>
      <trkpt lat="48.0116" lon="6.7508">
        <ele>494</ele>
        <time>2022-07-29T07:32:24Z</time>
      </trkpt>
      <trkpt lat="48.01158" lon="6.75083">
        <ele>494</ele>
        <time>2022-07-29T07:32:25Z</time>
      </trkpt>
      <trkpt lat="48.01157" lon="6.75087">
        <ele>494.2</ele>
        <time>2022-07-29T07:32:26Z</time>
      </trkpt>
      <trkpt lat="48.01155" lon="6.7509">
        <ele>494.2</ele>
        <time>2022-07-29T07:32:27Z</time>
      </trkpt>
      <trkpt lat="48.01153" lon="6.75093">
        <ele>494</ele>
        <time>2022-07-29T07:32:28Z</time>
      </trkpt>
      <trkpt lat="48.01152" lon="6.75095">
        <ele>494</ele>
        <time>2022-07-29T07:32:29Z</time>
      </trkpt>
      <trkpt lat="48.0115" lon="6.75099">
        <ele>494</ele>
        <time>2022-07-29T07:32:30Z</time>
      </trkpt>
      <trkpt lat="48.01147" lon="6.75106">
        <ele>493.8</ele>
        <time>2022-07-29T07:32:32Z</time>
      </trkpt>
      <trkpt lat="48.01139" lon="6.75116">
        <ele>493.4</ele>
        <time>2022-07-29T07:32:35Z</time>
      </trkpt>
      <trkpt lat="48.0113" lon="6.75129">
        <ele>492.8</ele>
        <time>2022-07-29T07:32:38Z</time>
      </trkpt>
      <trkpt lat="48.01123" lon="6.75141">
        <ele>492.2</ele>
        <time>2022-07-29T07:32:41Z</time>
      </trkpt>
      <trkpt lat="48.01117" lon="6.7515">
        <ele>491.6</ele>
        <time>2022-07-29T07:32:43Z</time>
      </trkpt>
      <trkpt lat="48.01111" lon="6.75162">
        <ele>491</ele>
        <time>2022-07-29T07:32:46Z</time>
      </trkpt>
      <trkpt lat="48.01108" lon="6.75165">
        <ele>490.8</ele>
        <time>2022-07-29T07:32:47Z</time>
      </trkpt>
      <trkpt lat="48.01104" lon="6.75169">
        <ele>490.6</ele>
        <time>2022-07-29T07:32:48Z</time>
      </trkpt>
      <trkpt lat="48.01091" lon="6.75185">
        <ele>489.6</ele>
        <time>2022-07-29T07:32:52Z</time>
      </trkpt>
      <trkpt lat="48.01081" lon="6.75194">
        <ele>489.2</ele>
        <time>2022-07-29T07:32:54Z</time>
      </trkpt>
      <trkpt lat="48.01073" lon="6.75206">
        <ele>488.2</ele>
        <time>2022-07-29T07:32:56Z</time>
      </trkpt>
      <trkpt lat="48.01068" lon="6.75212">
        <ele>488</ele>
        <time>2022-07-29T07:32:57Z</time>
      </trkpt>
      <trkpt lat="48.01066" lon="6.75215">
        <ele>487.8</ele>
        <time>2022-07-29T07:32:58Z</time>
      </trkpt>
      <trkpt lat="48.01064" lon="6.75222">
        <ele>487.6</ele>
        <time>2022-07-29T07:32:59Z</time>
      </trkpt>
      <trkpt lat="48.01061" lon="6.75228">
        <ele>487.4</ele>
        <time>2022-07-29T07:33:00Z</time>
      </trkpt>
      <trkpt lat="48.01059" lon="6.75232">
        <ele>487.4</ele>
        <time>2022-07-29T07:33:01Z</time>
      </trkpt>
      <trkpt lat="48.01056" lon="6.75236">
        <ele>487</ele>
        <time>2022-07-29T07:33:02Z</time>
      </trkpt>
      <trkpt lat="48.01054" lon="6.75239">
        <ele>487</ele>
        <time>2022-07-29T07:33:03Z</time>
      </trkpt>
      <trkpt lat="48.01044" lon="6.75248">
        <ele>486.8</ele>
        <time>2022-07-29T07:33:05Z</time>
      </trkpt>
      <trkpt lat="48.01033" lon="6.75256">
        <ele>486.6</ele>
        <time>2022-07-29T07:33:07Z</time>
      </trkpt>
      <trkpt lat="48.0103" lon="6.75263">
        <ele>486.4</ele>
        <time>2022-07-29T07:33:08Z</time>
      </trkpt>
      <trkpt lat="48.01024" lon="6.75277">
        <ele>486.4</ele>
        <time>2022-07-29T07:33:10Z</time>
      </trkpt>
      <trkpt lat="48.01023" lon="6.75284">
        <ele>486</ele>
        <time>2022-07-29T07:33:11Z</time>
      </trkpt>
      <trkpt lat="48.01021" lon="6.75288">
        <ele>486.2</ele>
        <time>2022-07-29T07:33:12Z</time>
      </trkpt>
      <trkpt lat="48.01018" lon="6.75293">
        <ele>486</ele>
        <time>2022-07-29T07:33:13Z</time>
      </trkpt>
      <trkpt lat="48.01015" lon="6.75297">
        <ele>486</ele>
        <time>2022-07-29T07:33:14Z</time>
      </trkpt>
      <trkpt lat="48.01012" lon="6.753">
        <ele>486</ele>
        <time>2022-07-29T07:33:15Z</time>
      </trkpt>
      <trkpt lat="48.01008" lon="6.75303">
        <ele>485.8</ele>
        <time>2022-07-29T07:33:16Z</time>
      </trkpt>
      <trkpt lat="48.01004" lon="6.75307">
        <ele>485.8</ele>
        <time>2022-07-29T07:33:17Z</time>
      </trkpt>
      <trkpt lat="48.00988" lon="6.75316">
        <ele>485.4</ele>
        <time>2022-07-29T07:33:20Z</time>
      </trkpt>
      <trkpt lat="48.00983" lon="6.75318">
        <ele>485.4</ele>
        <time>2022-07-29T07:33:21Z</time>
      </trkpt>
      <trkpt lat="48.00979" lon="6.7532">
        <ele>485.2</ele>
        <time>2022-07-29T07:33:22Z</time>
      </trkpt>
      <trkpt lat="48.00976" lon="6.75321">
        <ele>484.8</ele>
        <time>2022-07-29T07:33:23Z</time>
      </trkpt>
      <trkpt lat="48.00973" lon="6.75322">
        <ele>484.6</ele>
        <time>2022-07-29T07:33:24Z</time>
      </trkpt>
      <trkpt lat="48.00971" lon="6.75322">
        <ele>484.8</ele>
        <time>2022-07-29T07:33:25Z</time>
      </trkpt>
      <trkpt lat="48.00969" lon="6.75322">
        <ele>484.8</ele>
        <time>2022-07-29T07:33:26Z</time>
      </trkpt>
      <trkpt lat="48.00967" lon="6.75323">
        <ele>484.8</ele>
        <time>2022-07-29T07:33:27Z</time>
      </trkpt>
      <trkpt lat="48.00965" lon="6.75323">
        <ele>484.8</ele>
        <time>2022-07-29T07:33:28Z</time>
      </trkpt>
      <trkpt lat="48.00963" lon="6.75324">
        <ele>485.2</ele>
        <time>2022-07-29T07:33:29Z</time>
      </trkpt>
      <trkpt lat="48.00961" lon="6.75324">
        <ele>485.2</ele>
        <time>2022-07-29T07:33:30Z</time>
      </trkpt>
      <trkpt lat="48.00959" lon="6.75325">
        <ele>485.6</ele>
        <time>2022-07-29T07:33:31Z</time>
      </trkpt>
      <trkpt lat="48.00957" lon="6.75326">
        <ele>486</ele>
        <time>2022-07-29T07:33:32Z</time>
      </trkpt>
      <trkpt lat="48.00956" lon="6.75328">
        <ele>486</ele>
        <time>2022-07-29T07:33:33Z</time>
      </trkpt>
      <trkpt lat="48.00955" lon="6.7533">
        <ele>486.2</ele>
        <time>2022-07-29T07:33:34Z</time>
      </trkpt>
      <trkpt lat="48.00955" lon="6.75333">
        <ele>486.2</ele>
        <time>2022-07-29T07:33:35Z</time>
      </trkpt>
      <trkpt lat="48.00954" lon="6.75336">
        <ele>486.2</ele>
        <time>2022-07-29T07:33:36Z</time>
      </trkpt>
      <trkpt lat="48.00953" lon="6.75339">
        <ele>486.2</ele>
        <time>2022-07-29T07:33:37Z</time>
      </trkpt>
      <trkpt lat="48.00949" lon="6.75351">
        <ele>486.2</ele>
        <time>2022-07-29T07:33:41Z</time>
      </trkpt>
      <trkpt lat="48.00943" lon="6.75373">
        <ele>485.8</ele>
        <time>2022-07-29T07:33:46Z</time>
      </trkpt>
      <trkpt lat="48.00942" lon="6.75376">
        <ele>485.6</ele>
        <time>2022-07-29T07:33:47Z</time>
      </trkpt>
      <trkpt lat="48.00941" lon="6.7538">
        <ele>485.6</ele>
        <time>2022-07-29T07:33:48Z</time>
      </trkpt>
      <trkpt lat="48.0094" lon="6.75383">
        <ele>485.4</ele>
        <time>2022-07-29T07:33:49Z</time>
      </trkpt>
      <trkpt lat="48.00939" lon="6.75394">
        <ele>485.2</ele>
        <time>2022-07-29T07:33:52Z</time>
      </trkpt>
      <trkpt lat="48.0094" lon="6.75398">
        <ele>485.2</ele>
        <time>2022-07-29T07:33:53Z</time>
      </trkpt>
      <trkpt lat="48.00941" lon="6.75402">
        <ele>485.2</ele>
        <time>2022-07-29T07:33:54Z</time>
      </trkpt>
      <trkpt lat="48.00942" lon="6.75407">
        <ele>485.2</ele>
        <time>2022-07-29T07:33:55Z</time>
      </trkpt>
      <trkpt lat="48.00946" lon="6.75419">
        <ele>485.2</ele>
        <time>2022-07-29T07:33:58Z</time>
      </trkpt>
      <trkpt lat="48.0095" lon="6.75433">
        <ele>485</ele>
        <time>2022-07-29T07:34:01Z</time>
      </trkpt>
      <trkpt lat="48.00963" lon="6.75476">
        <ele>484.6</ele>
        <time>2022-07-29T07:34:10Z</time>
      </trkpt>
      <trkpt lat="48.00977" lon="6.75509">
        <ele>484.4</ele>
        <time>2022-07-29T07:34:17Z</time>
      </trkpt>
      <trkpt lat="48.00983" lon="6.75521">
        <ele>484.2</ele>
        <time>2022-07-29T07:34:20Z</time>
      </trkpt>
      <trkpt lat="48.00985" lon="6.75525">
        <ele>484</ele>
        <time>2022-07-29T07:34:21Z</time>
      </trkpt>
      <trkpt lat="48.00987" lon="6.75526">
        <ele>484</ele>
        <time>2022-07-29T07:34:22Z</time>
      </trkpt>
      <trkpt lat="48.00988" lon="6.75526">
        <ele>484</ele>
        <time>2022-07-29T07:34:23Z</time>
      </trkpt>
      <trkpt lat="48.00989" lon="6.75525">
        <ele>484</ele>
        <time>2022-07-29T07:34:24Z</time>
      </trkpt>
      <trkpt lat="48.00989" lon="6.75524">
        <ele>484</ele>
        <time>2022-07-29T07:34:25Z</time>
      </trkpt>
      <trkpt lat="48.0099" lon="6.7552">
        <ele>484</ele>
        <time>2022-07-29T07:34:27Z</time>
      </trkpt>
      <trkpt lat="48.0099" lon="6.75519">
        <ele>483.8</ele>
        <time>2022-07-29T07:34:28Z</time>
      </trkpt>
      <trkpt lat="48.0099" lon="6.75519">
        <ele>483.6</ele>
        <time>2022-07-29T07:34:32Z</time>
      </trkpt>
      <trkpt lat="48.0099" lon="6.75518">
        <ele>483.2</ele>
        <time>2022-07-29T07:34:50Z</time>
      </trkpt>
      <trkpt lat="48.0099" lon="6.75518">
        <ele>483.2</ele>
        <time>2022-07-29T07:35:02Z</time>
      </trkpt>
      <trkpt lat="48.0099" lon="6.75518">
        <ele>483.4</ele>
        <time>2022-07-29T07:35:39Z</time>
      </trkpt>
      <trkpt lat="48.0099" lon="6.75518">
        <ele>483.2</ele>
        <time>2022-07-29T07:35:56Z</time>
      </trkpt>
      <trkpt lat="48.00987" lon="6.75516">
        <ele>483.2</ele>
        <time>2022-07-29T07:35:58Z</time>
      </trkpt>
      <trkpt lat="48.00985" lon="6.75512">
        <ele>483.2</ele>
        <time>2022-07-29T07:36:00Z</time>
      </trkpt>
      <trkpt lat="48.00983" lon="6.7551">
        <ele>483.4</ele>
        <time>2022-07-29T07:36:01Z</time>
      </trkpt>
      <trkpt lat="48.0098" lon="6.75507">
        <ele>483.4</ele>
        <time>2022-07-29T07:36:03Z</time>
      </trkpt>
      <trkpt lat="48.00973" lon="6.755">
        <ele>483.6</ele>
        <time>2022-07-29T07:36:07Z</time>
      </trkpt>
      <trkpt lat="48.0096" lon="6.75478">
        <ele>484.2</ele>
        <time>2022-07-29T07:36:15Z</time>
      </trkpt>
      <trkpt lat="48.0095" lon="6.75447">
        <ele>484.6</ele>
        <time>2022-07-29T07:36:23Z</time>
      </trkpt>
      <trkpt lat="48.0094" lon="6.75414">
        <ele>485</ele>
        <time>2022-07-29T07:36:31Z</time>
      </trkpt>
      <trkpt lat="48.00938" lon="6.75406">
        <ele>485</ele>
        <time>2022-07-29T07:36:33Z</time>
      </trkpt>
      <trkpt lat="48.00928" lon="6.75375">
        <ele>491.4</ele>
        <time>2022-07-29T07:36:40Z</time>
      </trkpt>
      <trkpt lat="48.00916" lon="6.75337">
        <ele>486.2</ele>
        <time>2022-07-29T07:36:49Z</time>
      </trkpt>
      <trkpt lat="48.00909" lon="6.75316">
        <ele>486.4</ele>
        <time>2022-07-29T07:36:54Z</time>
      </trkpt>
      <trkpt lat="48.00905" lon="6.75303">
        <ele>486.6</ele>
        <time>2022-07-29T07:36:57Z</time>
      </trkpt>
      <trkpt lat="48.00888" lon="6.7527">
        <ele>486.8</ele>
        <time>2022-07-29T07:37:05Z</time>
      </trkpt>
      <trkpt lat="48.00875" lon="6.75253">
        <ele>487</ele>
        <time>2022-07-29T07:37:10Z</time>
      </trkpt>
      <trkpt lat="48.00872" lon="6.7525">
        <ele>487</ele>
        <time>2022-07-29T07:37:11Z</time>
      </trkpt>
      <trkpt lat="48.00863" lon="6.75242">
        <ele>487.4</ele>
        <time>2022-07-29T07:37:14Z</time>
      </trkpt>
      <trkpt lat="48.00849" lon="6.75228">
        <ele>487.8</ele>
        <time>2022-07-29T07:37:19Z</time>
      </trkpt>
      <trkpt lat="48.00841" lon="6.75221">
        <ele>488</ele>
        <time>2022-07-29T07:37:22Z</time>
      </trkpt>
      <trkpt lat="48.00838" lon="6.75219">
        <ele>488.2</ele>
        <time>2022-07-29T07:37:23Z</time>
      </trkpt>
      <trkpt lat="48.00835" lon="6.75216">
        <ele>488.4</ele>
        <time>2022-07-29T07:37:24Z</time>
      </trkpt>
      <trkpt lat="48.00832" lon="6.75214">
        <ele>488.4</ele>
        <time>2022-07-29T07:37:25Z</time>
      </trkpt>
      <trkpt lat="48.00829" lon="6.75211">
        <ele>488.6</ele>
        <time>2022-07-29T07:37:26Z</time>
      </trkpt>
      <trkpt lat="48.0081" lon="6.75189">
        <ele>488.8</ele>
        <time>2022-07-29T07:37:33Z</time>
      </trkpt>
      <trkpt lat="48.0079" lon="6.75159">
        <ele>489.2</ele>
        <time>2022-07-29T07:37:41Z</time>
      </trkpt>
      <trkpt lat="48.00788" lon="6.75154">
        <ele>489.4</ele>
        <time>2022-07-29T07:37:42Z</time>
      </trkpt>
      <trkpt lat="48.00763" lon="6.75109">
        <ele>489.2</ele>
        <time>2022-07-29T07:37:52Z</time>
      </trkpt>
      <trkpt lat="48.00733" lon="6.75057">
        <ele>489</ele>
        <time>2022-07-29T07:38:03Z</time>
      </trkpt>
      <trkpt lat="48.00706" lon="6.75009">
        <ele>489</ele>
        <time>2022-07-29T07:38:13Z</time>
      </trkpt>
      <trkpt lat="48.00703" lon="6.75004">
        <ele>489</ele>
        <time>2022-07-29T07:38:14Z</time>
      </trkpt>
      <trkpt lat="48.00698" lon="6.74994">
        <ele>489</ele>
        <time>2022-07-29T07:38:16Z</time>
      </trkpt>
      <trkpt lat="48.00696" lon="6.74989">
        <ele>489</ele>
        <time>2022-07-29T07:38:17Z</time>
      </trkpt>
      <trkpt lat="48.00693" lon="6.74985">
        <ele>489</ele>
        <time>2022-07-29T07:38:18Z</time>
      </trkpt>
      <trkpt lat="48.00677" lon="6.74955">
        <ele>489.2</ele>
        <time>2022-07-29T07:38:24Z</time>
      </trkpt>
      <trkpt lat="48.00664" lon="6.74934">
        <ele>489.2</ele>
        <time>2022-07-29T07:38:28Z</time>
      </trkpt>
      <trkpt lat="48.00658" lon="6.74923">
        <ele>489</ele>
        <time>2022-07-29T07:38:30Z</time>
      </trkpt>
      <trkpt lat="48.00651" lon="6.74913">
        <ele>489</ele>
        <time>2022-07-29T07:38:32Z</time>
      </trkpt>
      <trkpt lat="48.00643" lon="6.74907">
        <ele>488.8</ele>
        <time>2022-07-29T07:38:34Z</time>
      </trkpt>
      <trkpt lat="48.00638" lon="6.74907">
        <ele>488.6</ele>
        <time>2022-07-29T07:38:35Z</time>
      </trkpt>
      <trkpt lat="48.00634" lon="6.74908">
        <ele>488.6</ele>
        <time>2022-07-29T07:38:36Z</time>
      </trkpt>
      <trkpt lat="48.00626" lon="6.74913">
        <ele>488.6</ele>
        <time>2022-07-29T07:38:38Z</time>
      </trkpt>
      <trkpt lat="48.00622" lon="6.74916">
        <ele>488.6</ele>
        <time>2022-07-29T07:38:39Z</time>
      </trkpt>
      <trkpt lat="48.00618" lon="6.74918">
        <ele>488.6</ele>
        <time>2022-07-29T07:38:40Z</time>
      </trkpt>
      <trkpt lat="48.00615" lon="6.74919">
        <ele>488.6</ele>
        <time>2022-07-29T07:38:41Z</time>
      </trkpt>
      <trkpt lat="48.00611" lon="6.74919">
        <ele>488.6</ele>
        <time>2022-07-29T07:38:42Z</time>
      </trkpt>
      <trkpt lat="48.00608" lon="6.74919">
        <ele>488.6</ele>
        <time>2022-07-29T07:38:43Z</time>
      </trkpt>
      <trkpt lat="48.00604" lon="6.74918">
        <ele>488.6</ele>
        <time>2022-07-29T07:38:44Z</time>
      </trkpt>
      <trkpt lat="48.00601" lon="6.74916">
        <ele>488.8</ele>
        <time>2022-07-29T07:38:45Z</time>
      </trkpt>
      <trkpt lat="48.00598" lon="6.74914">
        <ele>488.8</ele>
        <time>2022-07-29T07:38:46Z</time>
      </trkpt>
      <trkpt lat="48.00592" lon="6.74911">
        <ele>489</ele>
        <time>2022-07-29T07:38:48Z</time>
      </trkpt>
      <trkpt lat="48.00589" lon="6.74909">
        <ele>489.4</ele>
        <time>2022-07-29T07:38:49Z</time>
      </trkpt>
      <trkpt lat="48.00586" lon="6.74908">
        <ele>489.6</ele>
        <time>2022-07-29T07:38:50Z</time>
      </trkpt>
      <trkpt lat="48.00583" lon="6.74907">
        <ele>489.8</ele>
        <time>2022-07-29T07:38:51Z</time>
      </trkpt>
      <trkpt lat="48.0058" lon="6.74905">
        <ele>490</ele>
        <time>2022-07-29T07:38:52Z</time>
      </trkpt>
      <trkpt lat="48.00577" lon="6.74905">
        <ele>490</ele>
        <time>2022-07-29T07:38:53Z</time>
      </trkpt>
      <trkpt lat="48.00568" lon="6.74904">
        <ele>491.2</ele>
        <time>2022-07-29T07:38:56Z</time>
      </trkpt>
      <trkpt lat="48.00565" lon="6.74905">
        <ele>491.4</ele>
        <time>2022-07-29T07:38:57Z</time>
      </trkpt>
      <trkpt lat="48.00553" lon="6.74908">
        <ele>492</ele>
        <time>2022-07-29T07:39:01Z</time>
      </trkpt>
      <trkpt lat="48.0055" lon="6.74909">
        <ele>492.2</ele>
        <time>2022-07-29T07:39:02Z</time>
      </trkpt>
      <trkpt lat="48.00547" lon="6.7491">
        <ele>492.4</ele>
        <time>2022-07-29T07:39:03Z</time>
      </trkpt>
      <trkpt lat="48.00544" lon="6.7491">
        <ele>492.4</ele>
        <time>2022-07-29T07:39:04Z</time>
      </trkpt>
      <trkpt lat="48.00541" lon="6.74911">
        <ele>492.6</ele>
        <time>2022-07-29T07:39:05Z</time>
      </trkpt>
      <trkpt lat="48.00538" lon="6.74912">
        <ele>492.6</ele>
        <time>2022-07-29T07:39:06Z</time>
      </trkpt>
      <trkpt lat="48.00535" lon="6.74913">
        <ele>492.6</ele>
        <time>2022-07-29T07:39:07Z</time>
      </trkpt>
      <trkpt lat="48.00532" lon="6.74914">
        <ele>492.8</ele>
        <time>2022-07-29T07:39:08Z</time>
      </trkpt>
      <trkpt lat="48.00529" lon="6.74915">
        <ele>492.8</ele>
        <time>2022-07-29T07:39:09Z</time>
      </trkpt>
      <trkpt lat="48.00525" lon="6.74915">
        <ele>492.8</ele>
        <time>2022-07-29T07:39:10Z</time>
      </trkpt>
      <trkpt lat="48.00522" lon="6.74916">
        <ele>493</ele>
        <time>2022-07-29T07:39:11Z</time>
      </trkpt>
      <trkpt lat="48.00519" lon="6.74917">
        <ele>493.2</ele>
        <time>2022-07-29T07:39:12Z</time>
      </trkpt>
      <trkpt lat="48.00516" lon="6.74918">
        <ele>493.2</ele>
        <time>2022-07-29T07:39:13Z</time>
      </trkpt>
      <trkpt lat="48.00512" lon="6.74918">
        <ele>493</ele>
        <time>2022-07-29T07:39:14Z</time>
      </trkpt>
      <trkpt lat="48.00509" lon="6.74919">
        <ele>493</ele>
        <time>2022-07-29T07:39:15Z</time>
      </trkpt>
      <trkpt lat="48.00506" lon="6.7492">
        <ele>493.4</ele>
        <time>2022-07-29T07:39:16Z</time>
      </trkpt>
      <trkpt lat="48.00503" lon="6.74921">
        <ele>493.4</ele>
        <time>2022-07-29T07:39:17Z</time>
      </trkpt>
      <trkpt lat="48.00499" lon="6.74922">
        <ele>493.4</ele>
        <time>2022-07-29T07:39:18Z</time>
      </trkpt>
      <trkpt lat="48.00496" lon="6.74923">
        <ele>493.4</ele>
        <time>2022-07-29T07:39:19Z</time>
      </trkpt>
      <trkpt lat="48.00493" lon="6.74924">
        <ele>493.6</ele>
        <time>2022-07-29T07:39:20Z</time>
      </trkpt>
      <trkpt lat="48.00489" lon="6.74925">
        <ele>493.6</ele>
        <time>2022-07-29T07:39:21Z</time>
      </trkpt>
      <trkpt lat="48.00486" lon="6.74927">
        <ele>493.6</ele>
        <time>2022-07-29T07:39:22Z</time>
      </trkpt>
      <trkpt lat="48.00483" lon="6.74928">
        <ele>493.8</ele>
        <time>2022-07-29T07:39:23Z</time>
      </trkpt>
      <trkpt lat="48.00474" lon="6.74933">
        <ele>494.2</ele>
        <time>2022-07-29T07:39:26Z</time>
      </trkpt>
      <trkpt lat="48.00468" lon="6.74939">
        <ele>494.2</ele>
        <time>2022-07-29T07:39:28Z</time>
      </trkpt>
      <trkpt lat="48.00463" lon="6.74946">
        <ele>494.4</ele>
        <time>2022-07-29T07:39:30Z</time>
      </trkpt>
      <trkpt lat="48.00461" lon="6.7495">
        <ele>494.6</ele>
        <time>2022-07-29T07:39:31Z</time>
      </trkpt>
      <trkpt lat="48.0046" lon="6.74954">
        <ele>494.6</ele>
        <time>2022-07-29T07:39:32Z</time>
      </trkpt>
      <trkpt lat="48.00458" lon="6.74958">
        <ele>494.6</ele>
        <time>2022-07-29T07:39:33Z</time>
      </trkpt>
      <trkpt lat="48.00456" lon="6.74973">
        <ele>495</ele>
        <time>2022-07-29T07:39:36Z</time>
      </trkpt>
      <trkpt lat="48.00455" lon="6.74983">
        <ele>495</ele>
        <time>2022-07-29T07:39:38Z</time>
      </trkpt>
      <trkpt lat="48.00456" lon="6.75008">
        <ele>495.4</ele>
        <time>2022-07-29T07:39:43Z</time>
      </trkpt>
      <trkpt lat="48.00456" lon="6.75036">
        <ele>495.4</ele>
        <time>2022-07-29T07:39:48Z</time>
      </trkpt>
      <trkpt lat="48.00455" lon="6.75053">
        <ele>495.6</ele>
        <time>2022-07-29T07:39:51Z</time>
      </trkpt>
      <trkpt lat="48.00442" lon="6.75082">
        <ele>495.8</ele>
        <time>2022-07-29T07:39:57Z</time>
      </trkpt>
      <trkpt lat="48.00421" lon="6.75097">
        <ele>495.8</ele>
        <time>2022-07-29T07:40:03Z</time>
      </trkpt>
      <trkpt lat="48.0041" lon="6.75101">
        <ele>496</ele>
        <time>2022-07-29T07:40:06Z</time>
      </trkpt>
      <trkpt lat="48.00406" lon="6.75103">
        <ele>496</ele>
        <time>2022-07-29T07:40:07Z</time>
      </trkpt>
      <trkpt lat="48.00391" lon="6.75108">
        <ele>496</ele>
        <time>2022-07-29T07:40:11Z</time>
      </trkpt>
      <trkpt lat="48.00373" lon="6.75113">
        <ele>496.4</ele>
        <time>2022-07-29T07:40:16Z</time>
      </trkpt>
      <trkpt lat="48.00369" lon="6.75113">
        <ele>496.6</ele>
        <time>2022-07-29T07:40:17Z</time>
      </trkpt>
      <trkpt lat="48.00366" lon="6.75114">
        <ele>496.6</ele>
        <time>2022-07-29T07:40:18Z</time>
      </trkpt>
      <trkpt lat="48.00363" lon="6.75114">
        <ele>496.8</ele>
        <time>2022-07-29T07:40:19Z</time>
      </trkpt>
      <trkpt lat="48.00359" lon="6.75115">
        <ele>496.8</ele>
        <time>2022-07-29T07:40:20Z</time>
      </trkpt>
      <trkpt lat="48.00356" lon="6.75116">
        <ele>496.8</ele>
        <time>2022-07-29T07:40:21Z</time>
      </trkpt>
      <trkpt lat="48.00353" lon="6.75119">
        <ele>496.8</ele>
        <time>2022-07-29T07:40:22Z</time>
      </trkpt>
      <trkpt lat="48.00351" lon="6.75121">
        <ele>496.8</ele>
        <time>2022-07-29T07:40:23Z</time>
      </trkpt>
      <trkpt lat="48.00349" lon="6.75125">
        <ele>497.2</ele>
        <time>2022-07-29T07:40:24Z</time>
      </trkpt>
      <trkpt lat="48.00349" lon="6.75129">
        <ele>497.2</ele>
        <time>2022-07-29T07:40:25Z</time>
      </trkpt>
      <trkpt lat="48.00349" lon="6.75133">
        <ele>497.6</ele>
        <time>2022-07-29T07:40:26Z</time>
      </trkpt>
      <trkpt lat="48.0035" lon="6.75137">
        <ele>497.8</ele>
        <time>2022-07-29T07:40:27Z</time>
      </trkpt>
      <trkpt lat="48.00352" lon="6.7514">
        <ele>498</ele>
        <time>2022-07-29T07:40:28Z</time>
      </trkpt>
      <trkpt lat="48.00355" lon="6.75143">
        <ele>498.2</ele>
        <time>2022-07-29T07:40:29Z</time>
      </trkpt>
      <trkpt lat="48.00357" lon="6.75146">
        <ele>498.2</ele>
        <time>2022-07-29T07:40:30Z</time>
      </trkpt>
      <trkpt lat="48.00359" lon="6.7515">
        <ele>498.4</ele>
        <time>2022-07-29T07:40:31Z</time>
      </trkpt>
      <trkpt lat="48.00365" lon="6.75156">
        <ele>498.6</ele>
        <time>2022-07-29T07:40:33Z</time>
      </trkpt>
      <trkpt lat="48.00378" lon="6.75177">
        <ele>499</ele>
        <time>2022-07-29T07:40:39Z</time>
      </trkpt>
      <trkpt lat="48.0038" lon="6.7518">
        <ele>499</ele>
        <time>2022-07-29T07:40:40Z</time>
      </trkpt>
      <trkpt lat="48.00382" lon="6.75184">
        <ele>499.2</ele>
        <time>2022-07-29T07:40:41Z</time>
      </trkpt>
      <trkpt lat="48.00384" lon="6.75187">
        <ele>499.6</ele>
        <time>2022-07-29T07:40:42Z</time>
      </trkpt>
      <trkpt lat="48.00385" lon="6.75191">
        <ele>499.6</ele>
        <time>2022-07-29T07:40:43Z</time>
      </trkpt>
      <trkpt lat="48.00387" lon="6.75195">
        <ele>499.8</ele>
        <time>2022-07-29T07:40:44Z</time>
      </trkpt>
      <trkpt lat="48.00389" lon="6.75198">
        <ele>500</ele>
        <time>2022-07-29T07:40:45Z</time>
      </trkpt>
      <trkpt lat="48.0039" lon="6.75201">
        <ele>500.2</ele>
        <time>2022-07-29T07:40:46Z</time>
      </trkpt>
      <trkpt lat="48.00392" lon="6.75205">
        <ele>500.4</ele>
        <time>2022-07-29T07:40:47Z</time>
      </trkpt>
      <trkpt lat="48.00393" lon="6.75208">
        <ele>500.6</ele>
        <time>2022-07-29T07:40:48Z</time>
      </trkpt>
      <trkpt lat="48.00394" lon="6.75212">
        <ele>500.8</ele>
        <time>2022-07-29T07:40:49Z</time>
      </trkpt>
      <trkpt lat="48.00395" lon="6.75215">
        <ele>501</ele>
        <time>2022-07-29T07:40:50Z</time>
      </trkpt>
      <trkpt lat="48.00396" lon="6.75218">
        <ele>501.4</ele>
        <time>2022-07-29T07:40:51Z</time>
      </trkpt>
      <trkpt lat="48.00397" lon="6.75222">
        <ele>501.6</ele>
        <time>2022-07-29T07:40:52Z</time>
      </trkpt>
      <trkpt lat="48.00398" lon="6.75226">
        <ele>502</ele>
        <time>2022-07-29T07:40:53Z</time>
      </trkpt>
      <trkpt lat="48.00399" lon="6.7523">
        <ele>502.2</ele>
        <time>2022-07-29T07:40:54Z</time>
      </trkpt>
      <trkpt lat="48.004" lon="6.75234">
        <ele>502.2</ele>
        <time>2022-07-29T07:40:55Z</time>
      </trkpt>
      <trkpt lat="48.004" lon="6.75237">
        <ele>502.4</ele>
        <time>2022-07-29T07:40:56Z</time>
      </trkpt>
      <trkpt lat="48.00401" lon="6.75241">
        <ele>502.4</ele>
        <time>2022-07-29T07:40:57Z</time>
      </trkpt>
      <trkpt lat="48.00402" lon="6.75245">
        <ele>502.6</ele>
        <time>2022-07-29T07:40:58Z</time>
      </trkpt>
      <trkpt lat="48.00403" lon="6.75249">
        <ele>502.6</ele>
        <time>2022-07-29T07:40:59Z</time>
      </trkpt>
      <trkpt lat="48.00404" lon="6.75253">
        <ele>502.8</ele>
        <time>2022-07-29T07:41:00Z</time>
      </trkpt>
      <trkpt lat="48.00405" lon="6.75257">
        <ele>502.8</ele>
        <time>2022-07-29T07:41:01Z</time>
      </trkpt>
      <trkpt lat="48.00406" lon="6.75261">
        <ele>503</ele>
        <time>2022-07-29T07:41:02Z</time>
      </trkpt>
      <trkpt lat="48.00407" lon="6.75264">
        <ele>503</ele>
        <time>2022-07-29T07:41:03Z</time>
      </trkpt>
      <trkpt lat="48.00408" lon="6.75268">
        <ele>503.2</ele>
        <time>2022-07-29T07:41:04Z</time>
      </trkpt>
      <trkpt lat="48.0041" lon="6.75271">
        <ele>503.4</ele>
        <time>2022-07-29T07:41:05Z</time>
      </trkpt>
      <trkpt lat="48.00411" lon="6.75275">
        <ele>503.4</ele>
        <time>2022-07-29T07:41:06Z</time>
      </trkpt>
      <trkpt lat="48.00413" lon="6.75278">
        <ele>503.6</ele>
        <time>2022-07-29T07:41:07Z</time>
      </trkpt>
      <trkpt lat="48.00414" lon="6.75282">
        <ele>503.8</ele>
        <time>2022-07-29T07:41:08Z</time>
      </trkpt>
      <trkpt lat="48.00416" lon="6.75285">
        <ele>504</ele>
        <time>2022-07-29T07:41:09Z</time>
      </trkpt>
      <trkpt lat="48.00417" lon="6.75289">
        <ele>504</ele>
        <time>2022-07-29T07:41:10Z</time>
      </trkpt>
      <trkpt lat="48.00419" lon="6.75292">
        <ele>504.2</ele>
        <time>2022-07-29T07:41:11Z</time>
      </trkpt>
      <trkpt lat="48.00421" lon="6.75296">
        <ele>504.4</ele>
        <time>2022-07-29T07:41:12Z</time>
      </trkpt>
      <trkpt lat="48.00422" lon="6.753">
        <ele>504.4</ele>
        <time>2022-07-29T07:41:13Z</time>
      </trkpt>
      <trkpt lat="48.00424" lon="6.75303">
        <ele>504.4</ele>
        <time>2022-07-29T07:41:14Z</time>
      </trkpt>
      <trkpt lat="48.00425" lon="6.75307">
        <ele>504.6</ele>
        <time>2022-07-29T07:41:15Z</time>
      </trkpt>
      <trkpt lat="48.00427" lon="6.75311">
        <ele>504.8</ele>
        <time>2022-07-29T07:41:16Z</time>
      </trkpt>
      <trkpt lat="48.00429" lon="6.75314">
        <ele>504.8</ele>
        <time>2022-07-29T07:41:17Z</time>
      </trkpt>
      <trkpt lat="48.00431" lon="6.75317">
        <ele>504.8</ele>
        <time>2022-07-29T07:41:18Z</time>
      </trkpt>
      <trkpt lat="48.00433" lon="6.75321">
        <ele>505</ele>
        <time>2022-07-29T07:41:19Z</time>
      </trkpt>
      <trkpt lat="48.00435" lon="6.75324">
        <ele>505</ele>
        <time>2022-07-29T07:41:20Z</time>
      </trkpt>
      <trkpt lat="48.00437" lon="6.75328">
        <ele>505</ele>
        <time>2022-07-29T07:41:21Z</time>
      </trkpt>
      <trkpt lat="48.0044" lon="6.75331">
        <ele>505</ele>
        <time>2022-07-29T07:41:22Z</time>
      </trkpt>
      <trkpt lat="48.00442" lon="6.75335">
        <ele>505</ele>
        <time>2022-07-29T07:41:23Z</time>
      </trkpt>
      <trkpt lat="48.00445" lon="6.75338">
        <ele>505</ele>
        <time>2022-07-29T07:41:24Z</time>
      </trkpt>
      <trkpt lat="48.00447" lon="6.75342">
        <ele>505</ele>
        <time>2022-07-29T07:41:25Z</time>
      </trkpt>
      <trkpt lat="48.0045" lon="6.75346">
        <ele>505.2</ele>
        <time>2022-07-29T07:41:26Z</time>
      </trkpt>
      <trkpt lat="48.00452" lon="6.75349">
        <ele>505.2</ele>
        <time>2022-07-29T07:41:27Z</time>
      </trkpt>
      <trkpt lat="48.00454" lon="6.75353">
        <ele>505.2</ele>
        <time>2022-07-29T07:41:28Z</time>
      </trkpt>
      <trkpt lat="48.00456" lon="6.75357">
        <ele>505.2</ele>
        <time>2022-07-29T07:41:29Z</time>
      </trkpt>
      <trkpt lat="48.00465" lon="6.7538">
        <ele>505.2</ele>
        <time>2022-07-29T07:41:34Z</time>
      </trkpt>
      <trkpt lat="48.00467" lon="6.75413">
        <ele>505.2</ele>
        <time>2022-07-29T07:41:40Z</time>
      </trkpt>
      <trkpt lat="48.00475" lon="6.75441">
        <ele>505.6</ele>
        <time>2022-07-29T07:41:46Z</time>
      </trkpt>
      <trkpt lat="48.00478" lon="6.75444">
        <ele>505.6</ele>
        <time>2022-07-29T07:41:47Z</time>
      </trkpt>
      <trkpt lat="48.0048" lon="6.75448">
        <ele>505.6</ele>
        <time>2022-07-29T07:41:48Z</time>
      </trkpt>
      <trkpt lat="48.00483" lon="6.75451">
        <ele>505.8</ele>
        <time>2022-07-29T07:41:49Z</time>
      </trkpt>
      <trkpt lat="48.00498" lon="6.75467">
        <ele>506</ele>
        <time>2022-07-29T07:41:54Z</time>
      </trkpt>
      <trkpt lat="48.00509" lon="6.7548">
        <ele>506.4</ele>
        <time>2022-07-29T07:41:58Z</time>
      </trkpt>
      <trkpt lat="48.00516" lon="6.75492">
        <ele>506.4</ele>
        <time>2022-07-29T07:42:01Z</time>
      </trkpt>
      <trkpt lat="48.00527" lon="6.75507">
        <ele>506.8</ele>
        <time>2022-07-29T07:42:05Z</time>
      </trkpt>
      <trkpt lat="48.00538" lon="6.75519">
        <ele>507.2</ele>
        <time>2022-07-29T07:42:09Z</time>
      </trkpt>
      <trkpt lat="48.00565" lon="6.75546">
        <ele>508</ele>
        <time>2022-07-29T07:42:18Z</time>
      </trkpt>
      <trkpt lat="48.00568" lon="6.75548">
        <ele>508</ele>
        <time>2022-07-29T07:42:19Z</time>
      </trkpt>
      <trkpt lat="48.00576" lon="6.75555">
        <ele>508.4</ele>
        <time>2022-07-29T07:42:22Z</time>
      </trkpt>
      <trkpt lat="48.00579" lon="6.75557">
        <ele>508.4</ele>
        <time>2022-07-29T07:42:23Z</time>
      </trkpt>
      <trkpt lat="48.00581" lon="6.75559">
        <ele>508.6</ele>
        <time>2022-07-29T07:42:24Z</time>
      </trkpt>
      <trkpt lat="48.00584" lon="6.75561">
        <ele>508.8</ele>
        <time>2022-07-29T07:42:25Z</time>
      </trkpt>
      <trkpt lat="48.00586" lon="6.75563">
        <ele>508.8</ele>
        <time>2022-07-29T07:42:26Z</time>
      </trkpt>
      <trkpt lat="48.00588" lon="6.75565">
        <ele>509</ele>
        <time>2022-07-29T07:42:27Z</time>
      </trkpt>
      <trkpt lat="48.00589" lon="6.75567">
        <ele>509.4</ele>
        <time>2022-07-29T07:42:28Z</time>
      </trkpt>
      <trkpt lat="48.00591" lon="6.75569">
        <ele>509.4</ele>
        <time>2022-07-29T07:42:29Z</time>
      </trkpt>
      <trkpt lat="48.00593" lon="6.7557">
        <ele>509.6</ele>
        <time>2022-07-29T07:42:30Z</time>
      </trkpt>
      <trkpt lat="48.00595" lon="6.75572">
        <ele>509.8</ele>
        <time>2022-07-29T07:42:31Z</time>
      </trkpt>
      <trkpt lat="48.00597" lon="6.75574">
        <ele>510</ele>
        <time>2022-07-29T07:42:32Z</time>
      </trkpt>
      <trkpt lat="48.00599" lon="6.75576">
        <ele>510.2</ele>
        <time>2022-07-29T07:42:33Z</time>
      </trkpt>
      <trkpt lat="48.006" lon="6.75578">
        <ele>510.4</ele>
        <time>2022-07-29T07:42:34Z</time>
      </trkpt>
      <trkpt lat="48.00602" lon="6.7558">
        <ele>510.6</ele>
        <time>2022-07-29T07:42:35Z</time>
      </trkpt>
      <trkpt lat="48.00604" lon="6.75582">
        <ele>510.8</ele>
        <time>2022-07-29T07:42:36Z</time>
      </trkpt>
      <trkpt lat="48.00606" lon="6.75584">
        <ele>511</ele>
        <time>2022-07-29T07:42:37Z</time>
      </trkpt>
      <trkpt lat="48.00607" lon="6.75586">
        <ele>511</ele>
        <time>2022-07-29T07:42:38Z</time>
      </trkpt>
      <trkpt lat="48.00609" lon="6.75588">
        <ele>511.4</ele>
        <time>2022-07-29T07:42:39Z</time>
      </trkpt>
      <trkpt lat="48.0061" lon="6.75591">
        <ele>511.4</ele>
        <time>2022-07-29T07:42:40Z</time>
      </trkpt>
      <trkpt lat="48.00611" lon="6.75594">
        <ele>511.6</ele>
        <time>2022-07-29T07:42:41Z</time>
      </trkpt>
      <trkpt lat="48.00612" lon="6.75596">
        <ele>511.6</ele>
        <time>2022-07-29T07:42:42Z</time>
      </trkpt>
      <trkpt lat="48.00614" lon="6.75598">
        <ele>511.8</ele>
        <time>2022-07-29T07:42:43Z</time>
      </trkpt>
      <trkpt lat="48.00615" lon="6.75601">
        <ele>512</ele>
        <time>2022-07-29T07:42:44Z</time>
      </trkpt>
      <trkpt lat="48.00616" lon="6.75603">
        <ele>512.2</ele>
        <time>2022-07-29T07:42:45Z</time>
      </trkpt>
      <trkpt lat="48.00618" lon="6.75605">
        <ele>512.6</ele>
        <time>2022-07-29T07:42:46Z</time>
      </trkpt>
      <trkpt lat="48.00619" lon="6.75608">
        <ele>512.8</ele>
        <time>2022-07-29T07:42:47Z</time>
      </trkpt>
      <trkpt lat="48.0062" lon="6.7561">
        <ele>513</ele>
        <time>2022-07-29T07:42:48Z</time>
      </trkpt>
      <trkpt lat="48.00622" lon="6.75613">
        <ele>513.2</ele>
        <time>2022-07-29T07:42:49Z</time>
      </trkpt>
      <trkpt lat="48.00624" lon="6.75615">
        <ele>513.4</ele>
        <time>2022-07-29T07:42:50Z</time>
      </trkpt>
      <trkpt lat="48.00625" lon="6.75619">
        <ele>513.6</ele>
        <time>2022-07-29T07:42:51Z</time>
      </trkpt>
      <trkpt lat="48.00627" lon="6.75622">
        <ele>513.8</ele>
        <time>2022-07-29T07:42:52Z</time>
      </trkpt>
      <trkpt lat="48.00629" lon="6.75626">
        <ele>513.8</ele>
        <time>2022-07-29T07:42:53Z</time>
      </trkpt>
      <trkpt lat="48.0063" lon="6.75629">
        <ele>514</ele>
        <time>2022-07-29T07:42:54Z</time>
      </trkpt>
      <trkpt lat="48.00632" lon="6.75633">
        <ele>514.2</ele>
        <time>2022-07-29T07:42:55Z</time>
      </trkpt>
      <trkpt lat="48.00634" lon="6.75637">
        <ele>514.4</ele>
        <time>2022-07-29T07:42:56Z</time>
      </trkpt>
      <trkpt lat="48.00636" lon="6.7564">
        <ele>514.4</ele>
        <time>2022-07-29T07:42:57Z</time>
      </trkpt>
      <trkpt lat="48.00639" lon="6.75643">
        <ele>514.4</ele>
        <time>2022-07-29T07:42:58Z</time>
      </trkpt>
      <trkpt lat="48.00641" lon="6.75646">
        <ele>514.4</ele>
        <time>2022-07-29T07:42:59Z</time>
      </trkpt>
      <trkpt lat="48.00644" lon="6.7565">
        <ele>514.4</ele>
        <time>2022-07-29T07:43:00Z</time>
      </trkpt>
      <trkpt lat="48.00647" lon="6.75653">
        <ele>514.4</ele>
        <time>2022-07-29T07:43:01Z</time>
      </trkpt>
      <trkpt lat="48.00649" lon="6.75656">
        <ele>514.4</ele>
        <time>2022-07-29T07:43:02Z</time>
      </trkpt>
      <trkpt lat="48.00652" lon="6.75659">
        <ele>514.4</ele>
        <time>2022-07-29T07:43:03Z</time>
      </trkpt>
      <trkpt lat="48.00654" lon="6.75662">
        <ele>514.4</ele>
        <time>2022-07-29T07:43:04Z</time>
      </trkpt>
      <trkpt lat="48.00656" lon="6.75665">
        <ele>514.4</ele>
        <time>2022-07-29T07:43:05Z</time>
      </trkpt>
      <trkpt lat="48.00659" lon="6.75668">
        <ele>514.4</ele>
        <time>2022-07-29T07:43:06Z</time>
      </trkpt>
      <trkpt lat="48.00661" lon="6.75671">
        <ele>514.4</ele>
        <time>2022-07-29T07:43:07Z</time>
      </trkpt>
      <trkpt lat="48.00663" lon="6.75673">
        <ele>514.6</ele>
        <time>2022-07-29T07:43:08Z</time>
      </trkpt>
      <trkpt lat="48.00665" lon="6.75676">
        <ele>514.6</ele>
        <time>2022-07-29T07:43:09Z</time>
      </trkpt>
      <trkpt lat="48.00667" lon="6.75678">
        <ele>514.8</ele>
        <time>2022-07-29T07:43:10Z</time>
      </trkpt>
      <trkpt lat="48.00669" lon="6.75681">
        <ele>514.8</ele>
        <time>2022-07-29T07:43:11Z</time>
      </trkpt>
      <trkpt lat="48.00671" lon="6.75683">
        <ele>514.8</ele>
        <time>2022-07-29T07:43:12Z</time>
      </trkpt>
      <trkpt lat="48.00673" lon="6.75686">
        <ele>515</ele>
        <time>2022-07-29T07:43:13Z</time>
      </trkpt>
      <trkpt lat="48.00674" lon="6.75688">
        <ele>515</ele>
        <time>2022-07-29T07:43:14Z</time>
      </trkpt>
      <trkpt lat="48.00676" lon="6.7569">
        <ele>515.4</ele>
        <time>2022-07-29T07:43:15Z</time>
      </trkpt>
      <trkpt lat="48.00678" lon="6.75693">
        <ele>515.4</ele>
        <time>2022-07-29T07:43:16Z</time>
      </trkpt>
      <trkpt lat="48.00679" lon="6.75695">
        <ele>515.8</ele>
        <time>2022-07-29T07:43:17Z</time>
      </trkpt>
      <trkpt lat="48.00681" lon="6.75698">
        <ele>515.8</ele>
        <time>2022-07-29T07:43:18Z</time>
      </trkpt>
      <trkpt lat="48.00682" lon="6.75701">
        <ele>516</ele>
        <time>2022-07-29T07:43:19Z</time>
      </trkpt>
      <trkpt lat="48.00684" lon="6.75703">
        <ele>516.4</ele>
        <time>2022-07-29T07:43:20Z</time>
      </trkpt>
      <trkpt lat="48.00685" lon="6.75706">
        <ele>516.4</ele>
        <time>2022-07-29T07:43:21Z</time>
      </trkpt>
      <trkpt lat="48.00687" lon="6.75708">
        <ele>516.8</ele>
        <time>2022-07-29T07:43:22Z</time>
      </trkpt>
      <trkpt lat="48.00688" lon="6.7571">
        <ele>517</ele>
        <time>2022-07-29T07:43:23Z</time>
      </trkpt>
      <trkpt lat="48.0069" lon="6.75713">
        <ele>517.2</ele>
        <time>2022-07-29T07:43:24Z</time>
      </trkpt>
      <trkpt lat="48.00691" lon="6.75716">
        <ele>517.4</ele>
        <time>2022-07-29T07:43:25Z</time>
      </trkpt>
      <trkpt lat="48.00692" lon="6.75719">
        <ele>517.6</ele>
        <time>2022-07-29T07:43:26Z</time>
      </trkpt>
      <trkpt lat="48.00693" lon="6.75722">
        <ele>517.6</ele>
        <time>2022-07-29T07:43:27Z</time>
      </trkpt>
      <trkpt lat="48.00694" lon="6.75725">
        <ele>518</ele>
        <time>2022-07-29T07:43:28Z</time>
      </trkpt>
      <trkpt lat="48.00695" lon="6.75728">
        <ele>518</ele>
        <time>2022-07-29T07:43:29Z</time>
      </trkpt>
      <trkpt lat="48.00696" lon="6.75732">
        <ele>518.2</ele>
        <time>2022-07-29T07:43:30Z</time>
      </trkpt>
      <trkpt lat="48.00697" lon="6.75736">
        <ele>518.2</ele>
        <time>2022-07-29T07:43:31Z</time>
      </trkpt>
      <trkpt lat="48.00698" lon="6.7574">
        <ele>518.2</ele>
        <time>2022-07-29T07:43:32Z</time>
      </trkpt>
      <trkpt lat="48.00698" lon="6.75744">
        <ele>518.4</ele>
        <time>2022-07-29T07:43:33Z</time>
      </trkpt>
      <trkpt lat="48.00699" lon="6.75749">
        <ele>518.4</ele>
        <time>2022-07-29T07:43:34Z</time>
      </trkpt>
      <trkpt lat="48.007" lon="6.75753">
        <ele>518.4</ele>
        <time>2022-07-29T07:43:35Z</time>
      </trkpt>
      <trkpt lat="48.00701" lon="6.75758">
        <ele>518.4</ele>
        <time>2022-07-29T07:43:36Z</time>
      </trkpt>
      <trkpt lat="48.00702" lon="6.75762">
        <ele>518.4</ele>
        <time>2022-07-29T07:43:37Z</time>
      </trkpt>
      <trkpt lat="48.00704" lon="6.75766">
        <ele>518.6</ele>
        <time>2022-07-29T07:43:38Z</time>
      </trkpt>
      <trkpt lat="48.00706" lon="6.75769">
        <ele>518.6</ele>
        <time>2022-07-29T07:43:39Z</time>
      </trkpt>
      <trkpt lat="48.00708" lon="6.75772">
        <ele>518.8</ele>
        <time>2022-07-29T07:43:40Z</time>
      </trkpt>
      <trkpt lat="48.0071" lon="6.75775">
        <ele>518.8</ele>
        <time>2022-07-29T07:43:41Z</time>
      </trkpt>
      <trkpt lat="48.00712" lon="6.75778">
        <ele>518.6</ele>
        <time>2022-07-29T07:43:42Z</time>
      </trkpt>
      <trkpt lat="48.00714" lon="6.7578">
        <ele>518.6</ele>
        <time>2022-07-29T07:43:43Z</time>
      </trkpt>
      <trkpt lat="48.00716" lon="6.75783">
        <ele>518.8</ele>
        <time>2022-07-29T07:43:44Z</time>
      </trkpt>
      <trkpt lat="48.00718" lon="6.75785">
        <ele>519</ele>
        <time>2022-07-29T07:43:45Z</time>
      </trkpt>
      <trkpt lat="48.00719" lon="6.75787">
        <ele>519</ele>
        <time>2022-07-29T07:43:46Z</time>
      </trkpt>
      <trkpt lat="48.0072" lon="6.75789">
        <ele>519.2</ele>
        <time>2022-07-29T07:43:47Z</time>
      </trkpt>
      <trkpt lat="48.00721" lon="6.75791">
        <ele>519.4</ele>
        <time>2022-07-29T07:43:48Z</time>
      </trkpt>
      <trkpt lat="48.00725" lon="6.75803">
        <ele>520.2</ele>
        <time>2022-07-29T07:43:53Z</time>
      </trkpt>
      <trkpt lat="48.00726" lon="6.75806">
        <ele>520.4</ele>
        <time>2022-07-29T07:43:54Z</time>
      </trkpt>
      <trkpt lat="48.00726" lon="6.75808">
        <ele>520.6</ele>
        <time>2022-07-29T07:43:55Z</time>
      </trkpt>
      <trkpt lat="48.00727" lon="6.75811">
        <ele>520.8</ele>
        <time>2022-07-29T07:43:56Z</time>
      </trkpt>
      <trkpt lat="48.00727" lon="6.75813">
        <ele>520.8</ele>
        <time>2022-07-29T07:43:57Z</time>
      </trkpt>
      <trkpt lat="48.00727" lon="6.75816">
        <ele>521.2</ele>
        <time>2022-07-29T07:43:58Z</time>
      </trkpt>
      <trkpt lat="48.00728" lon="6.75818">
        <ele>521.2</ele>
        <time>2022-07-29T07:43:59Z</time>
      </trkpt>
      <trkpt lat="48.00728" lon="6.75821">
        <ele>521.4</ele>
        <time>2022-07-29T07:44:00Z</time>
      </trkpt>
      <trkpt lat="48.00729" lon="6.75823">
        <ele>521.6</ele>
        <time>2022-07-29T07:44:01Z</time>
      </trkpt>
      <trkpt lat="48.00729" lon="6.75825">
        <ele>521.8</ele>
        <time>2022-07-29T07:44:02Z</time>
      </trkpt>
      <trkpt lat="48.00729" lon="6.75827">
        <ele>521.8</ele>
        <time>2022-07-29T07:44:03Z</time>
      </trkpt>
      <trkpt lat="48.0073" lon="6.75829">
        <ele>522</ele>
        <time>2022-07-29T07:44:04Z</time>
      </trkpt>
      <trkpt lat="48.0073" lon="6.75831">
        <ele>522.2</ele>
        <time>2022-07-29T07:44:05Z</time>
      </trkpt>
      <trkpt lat="48.00731" lon="6.75833">
        <ele>522.4</ele>
        <time>2022-07-29T07:44:06Z</time>
      </trkpt>
      <trkpt lat="48.00731" lon="6.75836">
        <ele>522.6</ele>
        <time>2022-07-29T07:44:07Z</time>
      </trkpt>
      <trkpt lat="48.00731" lon="6.75837">
        <ele>522.8</ele>
        <time>2022-07-29T07:44:08Z</time>
      </trkpt>
      <trkpt lat="48.00731" lon="6.75839">
        <ele>523</ele>
        <time>2022-07-29T07:44:09Z</time>
      </trkpt>
      <trkpt lat="48.00732" lon="6.75841">
        <ele>523</ele>
        <time>2022-07-29T07:44:10Z</time>
      </trkpt>
      <trkpt lat="48.00732" lon="6.75843">
        <ele>523.2</ele>
        <time>2022-07-29T07:44:11Z</time>
      </trkpt>
      <trkpt lat="48.00733" lon="6.75846">
        <ele>523.4</ele>
        <time>2022-07-29T07:44:12Z</time>
      </trkpt>
      <trkpt lat="48.00733" lon="6.75848">
        <ele>523.4</ele>
        <time>2022-07-29T07:44:13Z</time>
      </trkpt>
      <trkpt lat="48.00734" lon="6.7585">
        <ele>523.6</ele>
        <time>2022-07-29T07:44:14Z</time>
      </trkpt>
      <trkpt lat="48.00734" lon="6.75852">
        <ele>523.8</ele>
        <time>2022-07-29T07:44:15Z</time>
      </trkpt>
      <trkpt lat="48.00735" lon="6.75854">
        <ele>524.2</ele>
        <time>2022-07-29T07:44:16Z</time>
      </trkpt>
      <trkpt lat="48.00735" lon="6.75856">
        <ele>524.2</ele>
        <time>2022-07-29T07:44:17Z</time>
      </trkpt>
      <trkpt lat="48.00736" lon="6.75857">
        <ele>524.4</ele>
        <time>2022-07-29T07:44:18Z</time>
      </trkpt>
      <trkpt lat="48.00736" lon="6.75859">
        <ele>524.6</ele>
        <time>2022-07-29T07:44:19Z</time>
      </trkpt>
      <trkpt lat="48.00737" lon="6.75861">
        <ele>525</ele>
        <time>2022-07-29T07:44:20Z</time>
      </trkpt>
      <trkpt lat="48.00737" lon="6.75863">
        <ele>525.2</ele>
        <time>2022-07-29T07:44:21Z</time>
      </trkpt>
      <trkpt lat="48.00738" lon="6.75864">
        <ele>525.4</ele>
        <time>2022-07-29T07:44:22Z</time>
      </trkpt>
      <trkpt lat="48.00738" lon="6.75867">
        <ele>525.6</ele>
        <time>2022-07-29T07:44:23Z</time>
      </trkpt>
      <trkpt lat="48.00738" lon="6.75868">
        <ele>525.8</ele>
        <time>2022-07-29T07:44:24Z</time>
      </trkpt>
      <trkpt lat="48.00739" lon="6.7587">
        <ele>526</ele>
        <time>2022-07-29T07:44:25Z</time>
      </trkpt>
      <trkpt lat="48.0074" lon="6.75872">
        <ele>526.2</ele>
        <time>2022-07-29T07:44:26Z</time>
      </trkpt>
      <trkpt lat="48.0074" lon="6.75874">
        <ele>526.4</ele>
        <time>2022-07-29T07:44:27Z</time>
      </trkpt>
      <trkpt lat="48.00741" lon="6.75875">
        <ele>526.4</ele>
        <time>2022-07-29T07:44:28Z</time>
      </trkpt>
      <trkpt lat="48.00742" lon="6.75877">
        <ele>526.8</ele>
        <time>2022-07-29T07:44:29Z</time>
      </trkpt>
      <trkpt lat="48.00742" lon="6.75879">
        <ele>527</ele>
        <time>2022-07-29T07:44:30Z</time>
      </trkpt>
      <trkpt lat="48.00743" lon="6.7588">
        <ele>527</ele>
        <time>2022-07-29T07:44:31Z</time>
      </trkpt>
      <trkpt lat="48.00744" lon="6.75882">
        <ele>527.4</ele>
        <time>2022-07-29T07:44:32Z</time>
      </trkpt>
      <trkpt lat="48.00744" lon="6.75884">
        <ele>527.4</ele>
        <time>2022-07-29T07:44:33Z</time>
      </trkpt>
      <trkpt lat="48.00745" lon="6.75886">
        <ele>527.8</ele>
        <time>2022-07-29T07:44:34Z</time>
      </trkpt>
      <trkpt lat="48.00746" lon="6.75888">
        <ele>527.8</ele>
        <time>2022-07-29T07:44:35Z</time>
      </trkpt>
      <trkpt lat="48.00746" lon="6.7589">
        <ele>528.2</ele>
        <time>2022-07-29T07:44:36Z</time>
      </trkpt>
      <trkpt lat="48.00747" lon="6.75892">
        <ele>528.2</ele>
        <time>2022-07-29T07:44:37Z</time>
      </trkpt>
      <trkpt lat="48.00747" lon="6.75893">
        <ele>528.4</ele>
        <time>2022-07-29T07:44:38Z</time>
      </trkpt>
      <trkpt lat="48.00748" lon="6.75895">
        <ele>528.8</ele>
        <time>2022-07-29T07:44:39Z</time>
      </trkpt>
      <trkpt lat="48.00749" lon="6.75896">
        <ele>529</ele>
        <time>2022-07-29T07:44:40Z</time>
      </trkpt>
      <trkpt lat="48.0075" lon="6.75898">
        <ele>529.2</ele>
        <time>2022-07-29T07:44:41Z</time>
      </trkpt>
      <trkpt lat="48.0075" lon="6.759">
        <ele>529.2</ele>
        <time>2022-07-29T07:44:42Z</time>
      </trkpt>
      <trkpt lat="48.00751" lon="6.75901">
        <ele>529.4</ele>
        <time>2022-07-29T07:44:43Z</time>
      </trkpt>
      <trkpt lat="48.00752" lon="6.75903">
        <ele>529.4</ele>
        <time>2022-07-29T07:44:44Z</time>
      </trkpt>
      <trkpt lat="48.00752" lon="6.75905">
        <ele>529.6</ele>
        <time>2022-07-29T07:44:45Z</time>
      </trkpt>
      <trkpt lat="48.00753" lon="6.75906">
        <ele>530</ele>
        <time>2022-07-29T07:44:46Z</time>
      </trkpt>
      <trkpt lat="48.00754" lon="6.75908">
        <ele>530</ele>
        <time>2022-07-29T07:44:47Z</time>
      </trkpt>
      <trkpt lat="48.00755" lon="6.7591">
        <ele>530.4</ele>
        <time>2022-07-29T07:44:48Z</time>
      </trkpt>
      <trkpt lat="48.00756" lon="6.75912">
        <ele>530.4</ele>
        <time>2022-07-29T07:44:49Z</time>
      </trkpt>
      <trkpt lat="48.00757" lon="6.75914">
        <ele>530.6</ele>
        <time>2022-07-29T07:44:50Z</time>
      </trkpt>
      <trkpt lat="48.00758" lon="6.75915">
        <ele>530.8</ele>
        <time>2022-07-29T07:44:51Z</time>
      </trkpt>
      <trkpt lat="48.00759" lon="6.75917">
        <ele>531</ele>
        <time>2022-07-29T07:44:52Z</time>
      </trkpt>
      <trkpt lat="48.0076" lon="6.75918">
        <ele>531</ele>
        <time>2022-07-29T07:44:53Z</time>
      </trkpt>
      <trkpt lat="48.00761" lon="6.75919">
        <ele>531.4</ele>
        <time>2022-07-29T07:44:54Z</time>
      </trkpt>
      <trkpt lat="48.00762" lon="6.75921">
        <ele>531.6</ele>
        <time>2022-07-29T07:44:55Z</time>
      </trkpt>
      <trkpt lat="48.00763" lon="6.75922">
        <ele>531.6</ele>
        <time>2022-07-29T07:44:56Z</time>
      </trkpt>
      <trkpt lat="48.00764" lon="6.75924">
        <ele>531.8</ele>
        <time>2022-07-29T07:44:57Z</time>
      </trkpt>
      <trkpt lat="48.00765" lon="6.75925">
        <ele>532</ele>
        <time>2022-07-29T07:44:58Z</time>
      </trkpt>
      <trkpt lat="48.00766" lon="6.75927">
        <ele>532.2</ele>
        <time>2022-07-29T07:44:59Z</time>
      </trkpt>
      <trkpt lat="48.00766" lon="6.75928">
        <ele>532.4</ele>
        <time>2022-07-29T07:45:00Z</time>
      </trkpt>
      <trkpt lat="48.00767" lon="6.7593">
        <ele>532.6</ele>
        <time>2022-07-29T07:45:01Z</time>
      </trkpt>
      <trkpt lat="48.00768" lon="6.75931">
        <ele>532.6</ele>
        <time>2022-07-29T07:45:02Z</time>
      </trkpt>
      <trkpt lat="48.00768" lon="6.75933">
        <ele>533</ele>
        <time>2022-07-29T07:45:03Z</time>
      </trkpt>
      <trkpt lat="48.00769" lon="6.75935">
        <ele>533.2</ele>
        <time>2022-07-29T07:45:04Z</time>
      </trkpt>
      <trkpt lat="48.0077" lon="6.75936">
        <ele>533.4</ele>
        <time>2022-07-29T07:45:05Z</time>
      </trkpt>
      <trkpt lat="48.00771" lon="6.75938">
        <ele>533.6</ele>
        <time>2022-07-29T07:45:06Z</time>
      </trkpt>
      <trkpt lat="48.00772" lon="6.7594">
        <ele>533.8</ele>
        <time>2022-07-29T07:45:07Z</time>
      </trkpt>
      <trkpt lat="48.00772" lon="6.75942">
        <ele>534</ele>
        <time>2022-07-29T07:45:08Z</time>
      </trkpt>
      <trkpt lat="48.00773" lon="6.75943">
        <ele>534.2</ele>
        <time>2022-07-29T07:45:09Z</time>
      </trkpt>
      <trkpt lat="48.00774" lon="6.75946">
        <ele>534.4</ele>
        <time>2022-07-29T07:45:10Z</time>
      </trkpt>
      <trkpt lat="48.00774" lon="6.75948">
        <ele>534.6</ele>
        <time>2022-07-29T07:45:11Z</time>
      </trkpt>
      <trkpt lat="48.00775" lon="6.7595">
        <ele>534.8</ele>
        <time>2022-07-29T07:45:12Z</time>
      </trkpt>
      <trkpt lat="48.00776" lon="6.75951">
        <ele>535</ele>
        <time>2022-07-29T07:45:13Z</time>
      </trkpt>
      <trkpt lat="48.00777" lon="6.75953">
        <ele>535</ele>
        <time>2022-07-29T07:45:14Z</time>
      </trkpt>
      <trkpt lat="48.00778" lon="6.75955">
        <ele>535.4</ele>
        <time>2022-07-29T07:45:15Z</time>
      </trkpt>
      <trkpt lat="48.00778" lon="6.75957">
        <ele>535.4</ele>
        <time>2022-07-29T07:45:16Z</time>
      </trkpt>
      <trkpt lat="48.00779" lon="6.75959">
        <ele>535.8</ele>
        <time>2022-07-29T07:45:17Z</time>
      </trkpt>
      <trkpt lat="48.0078" lon="6.75961">
        <ele>536</ele>
        <time>2022-07-29T07:45:18Z</time>
      </trkpt>
      <trkpt lat="48.00781" lon="6.75963">
        <ele>536.2</ele>
        <time>2022-07-29T07:45:19Z</time>
      </trkpt>
      <trkpt lat="48.00782" lon="6.75965">
        <ele>536.2</ele>
        <time>2022-07-29T07:45:20Z</time>
      </trkpt>
      <trkpt lat="48.00782" lon="6.75966">
        <ele>536.4</ele>
        <time>2022-07-29T07:45:21Z</time>
      </trkpt>
      <trkpt lat="48.00784" lon="6.75968">
        <ele>536.6</ele>
        <time>2022-07-29T07:45:22Z</time>
      </trkpt>
      <trkpt lat="48.00785" lon="6.7597">
        <ele>536.8</ele>
        <time>2022-07-29T07:45:23Z</time>
      </trkpt>
      <trkpt lat="48.00786" lon="6.75971">
        <ele>537.2</ele>
        <time>2022-07-29T07:45:24Z</time>
      </trkpt>
      <trkpt lat="48.00787" lon="6.75972">
        <ele>537.2</ele>
        <time>2022-07-29T07:45:25Z</time>
      </trkpt>
      <trkpt lat="48.00788" lon="6.75973">
        <ele>537.6</ele>
        <time>2022-07-29T07:45:26Z</time>
      </trkpt>
      <trkpt lat="48.00789" lon="6.75974">
        <ele>537.8</ele>
        <time>2022-07-29T07:45:27Z</time>
      </trkpt>
      <trkpt lat="48.0079" lon="6.75975">
        <ele>538</ele>
        <time>2022-07-29T07:45:28Z</time>
      </trkpt>
      <trkpt lat="48.00791" lon="6.75976">
        <ele>538.2</ele>
        <time>2022-07-29T07:45:29Z</time>
      </trkpt>
      <trkpt lat="48.00792" lon="6.75978">
        <ele>538.2</ele>
        <time>2022-07-29T07:45:30Z</time>
      </trkpt>
      <trkpt lat="48.00792" lon="6.75979">
        <ele>538.6</ele>
        <time>2022-07-29T07:45:31Z</time>
      </trkpt>
      <trkpt lat="48.00794" lon="6.7598">
        <ele>538.6</ele>
        <time>2022-07-29T07:45:32Z</time>
      </trkpt>
      <trkpt lat="48.00795" lon="6.75981">
        <ele>538.8</ele>
        <time>2022-07-29T07:45:33Z</time>
      </trkpt>
      <trkpt lat="48.00796" lon="6.75983">
        <ele>539</ele>
        <time>2022-07-29T07:45:34Z</time>
      </trkpt>
      <trkpt lat="48.00797" lon="6.75984">
        <ele>539.2</ele>
        <time>2022-07-29T07:45:35Z</time>
      </trkpt>
      <trkpt lat="48.00799" lon="6.75986">
        <ele>539.4</ele>
        <time>2022-07-29T07:45:36Z</time>
      </trkpt>
      <trkpt lat="48.008" lon="6.75987">
        <ele>539.6</ele>
        <time>2022-07-29T07:45:37Z</time>
      </trkpt>
      <trkpt lat="48.00801" lon="6.75988">
        <ele>539.8</ele>
        <time>2022-07-29T07:45:38Z</time>
      </trkpt>
      <trkpt lat="48.00802" lon="6.7599">
        <ele>539.8</ele>
        <time>2022-07-29T07:45:39Z</time>
      </trkpt>
      <trkpt lat="48.00803" lon="6.75991">
        <ele>540</ele>
        <time>2022-07-29T07:45:40Z</time>
      </trkpt>
      <trkpt lat="48.00804" lon="6.75993">
        <ele>540.2</ele>
        <time>2022-07-29T07:45:41Z</time>
      </trkpt>
      <trkpt lat="48.00806" lon="6.75994">
        <ele>540.4</ele>
        <time>2022-07-29T07:45:42Z</time>
      </trkpt>
      <trkpt lat="48.00807" lon="6.75995">
        <ele>540.6</ele>
        <time>2022-07-29T07:45:43Z</time>
      </trkpt>
      <trkpt lat="48.00808" lon="6.75997">
        <ele>541</ele>
        <time>2022-07-29T07:45:44Z</time>
      </trkpt>
      <trkpt lat="48.00809" lon="6.75998">
        <ele>541.2</ele>
        <time>2022-07-29T07:45:45Z</time>
      </trkpt>
      <trkpt lat="48.0081" lon="6.76">
        <ele>541.4</ele>
        <time>2022-07-29T07:45:46Z</time>
      </trkpt>
      <trkpt lat="48.00811" lon="6.76002">
        <ele>541.6</ele>
        <time>2022-07-29T07:45:47Z</time>
      </trkpt>
      <trkpt lat="48.00812" lon="6.76003">
        <ele>541.6</ele>
        <time>2022-07-29T07:45:48Z</time>
      </trkpt>
      <trkpt lat="48.00813" lon="6.76005">
        <ele>541.8</ele>
        <time>2022-07-29T07:45:49Z</time>
      </trkpt>
      <trkpt lat="48.00814" lon="6.76007">
        <ele>542</ele>
        <time>2022-07-29T07:45:50Z</time>
      </trkpt>
      <trkpt lat="48.00815" lon="6.76009">
        <ele>542.2</ele>
        <time>2022-07-29T07:45:51Z</time>
      </trkpt>
      <trkpt lat="48.00816" lon="6.7601">
        <ele>542.6</ele>
        <time>2022-07-29T07:45:52Z</time>
      </trkpt>
      <trkpt lat="48.00818" lon="6.76011">
        <ele>542.8</ele>
        <time>2022-07-29T07:45:53Z</time>
      </trkpt>
      <trkpt lat="48.00819" lon="6.76013">
        <ele>542.8</ele>
        <time>2022-07-29T07:45:54Z</time>
      </trkpt>
      <trkpt lat="48.0082" lon="6.76014">
        <ele>543</ele>
        <time>2022-07-29T07:45:55Z</time>
      </trkpt>
      <trkpt lat="48.00821" lon="6.76015">
        <ele>543.2</ele>
        <time>2022-07-29T07:45:56Z</time>
      </trkpt>
      <trkpt lat="48.00822" lon="6.76017">
        <ele>543.4</ele>
        <time>2022-07-29T07:45:57Z</time>
      </trkpt>
      <trkpt lat="48.00823" lon="6.76019">
        <ele>543.6</ele>
        <time>2022-07-29T07:45:58Z</time>
      </trkpt>
      <trkpt lat="48.00824" lon="6.76021">
        <ele>543.6</ele>
        <time>2022-07-29T07:45:59Z</time>
      </trkpt>
      <trkpt lat="48.00826" lon="6.76023">
        <ele>543.6</ele>
        <time>2022-07-29T07:46:00Z</time>
      </trkpt>
      <trkpt lat="48.00827" lon="6.76024">
        <ele>543.8</ele>
        <time>2022-07-29T07:46:01Z</time>
      </trkpt>
      <trkpt lat="48.00829" lon="6.76026">
        <ele>544</ele>
        <time>2022-07-29T07:46:02Z</time>
      </trkpt>
      <trkpt lat="48.0083" lon="6.76028">
        <ele>544</ele>
        <time>2022-07-29T07:46:03Z</time>
      </trkpt>
      <trkpt lat="48.00831" lon="6.7603">
        <ele>544.2</ele>
        <time>2022-07-29T07:46:04Z</time>
      </trkpt>
      <trkpt lat="48.00833" lon="6.76032">
        <ele>544.4</ele>
        <time>2022-07-29T07:46:05Z</time>
      </trkpt>
      <trkpt lat="48.00834" lon="6.76034">
        <ele>544.6</ele>
        <time>2022-07-29T07:46:06Z</time>
      </trkpt>
      <trkpt lat="48.00836" lon="6.76036">
        <ele>544.8</ele>
        <time>2022-07-29T07:46:07Z</time>
      </trkpt>
      <trkpt lat="48.00837" lon="6.76038">
        <ele>545</ele>
        <time>2022-07-29T07:46:08Z</time>
      </trkpt>
      <trkpt lat="48.00839" lon="6.7604">
        <ele>545.2</ele>
        <time>2022-07-29T07:46:09Z</time>
      </trkpt>
      <trkpt lat="48.0084" lon="6.76042">
        <ele>545.2</ele>
        <time>2022-07-29T07:46:10Z</time>
      </trkpt>
      <trkpt lat="48.00841" lon="6.76043">
        <ele>545.4</ele>
        <time>2022-07-29T07:46:11Z</time>
      </trkpt>
      <trkpt lat="48.00843" lon="6.76045">
        <ele>545.4</ele>
        <time>2022-07-29T07:46:12Z</time>
      </trkpt>
      <trkpt lat="48.00844" lon="6.76046">
        <ele>545.6</ele>
        <time>2022-07-29T07:46:13Z</time>
      </trkpt>
      <trkpt lat="48.00845" lon="6.76048">
        <ele>545.8</ele>
        <time>2022-07-29T07:46:14Z</time>
      </trkpt>
      <trkpt lat="48.00846" lon="6.76049">
        <ele>545.8</ele>
        <time>2022-07-29T07:46:15Z</time>
      </trkpt>
      <trkpt lat="48.00847" lon="6.7605">
        <ele>546</ele>
        <time>2022-07-29T07:46:16Z</time>
      </trkpt>
      <trkpt lat="48.00848" lon="6.76051">
        <ele>546</ele>
        <time>2022-07-29T07:46:17Z</time>
      </trkpt>
      <trkpt lat="48.0085" lon="6.76053">
        <ele>546.2</ele>
        <time>2022-07-29T07:46:18Z</time>
      </trkpt>
      <trkpt lat="48.00851" lon="6.76055">
        <ele>546.2</ele>
        <time>2022-07-29T07:46:19Z</time>
      </trkpt>
      <trkpt lat="48.00851" lon="6.76056">
        <ele>546.4</ele>
        <time>2022-07-29T07:46:20Z</time>
      </trkpt>
      <trkpt lat="48.00852" lon="6.76057">
        <ele>546.4</ele>
        <time>2022-07-29T07:46:21Z</time>
      </trkpt>
      <trkpt lat="48.00853" lon="6.76059">
        <ele>546.6</ele>
        <time>2022-07-29T07:46:22Z</time>
      </trkpt>
      <trkpt lat="48.00855" lon="6.76061">
        <ele>546.8</ele>
        <time>2022-07-29T07:46:23Z</time>
      </trkpt>
      <trkpt lat="48.00856" lon="6.76062">
        <ele>547</ele>
        <time>2022-07-29T07:46:24Z</time>
      </trkpt>
      <trkpt lat="48.00858" lon="6.76064">
        <ele>547.2</ele>
        <time>2022-07-29T07:46:25Z</time>
      </trkpt>
      <trkpt lat="48.00859" lon="6.76066">
        <ele>547.4</ele>
        <time>2022-07-29T07:46:26Z</time>
      </trkpt>
      <trkpt lat="48.0086" lon="6.76069">
        <ele>547.4</ele>
        <time>2022-07-29T07:46:27Z</time>
      </trkpt>
      <trkpt lat="48.00861" lon="6.76071">
        <ele>547.6</ele>
        <time>2022-07-29T07:46:28Z</time>
      </trkpt>
      <trkpt lat="48.00863" lon="6.76073">
        <ele>547.6</ele>
        <time>2022-07-29T07:46:29Z</time>
      </trkpt>
      <trkpt lat="48.00864" lon="6.76075">
        <ele>547.8</ele>
        <time>2022-07-29T07:46:30Z</time>
      </trkpt>
      <trkpt lat="48.00865" lon="6.76077">
        <ele>548</ele>
        <time>2022-07-29T07:46:31Z</time>
      </trkpt>
      <trkpt lat="48.00866" lon="6.76079">
        <ele>548.2</ele>
        <time>2022-07-29T07:46:32Z</time>
      </trkpt>
      <trkpt lat="48.00868" lon="6.76083">
        <ele>548.2</ele>
        <time>2022-07-29T07:46:33Z</time>
      </trkpt>
      <trkpt lat="48.00869" lon="6.76086">
        <ele>548.4</ele>
        <time>2022-07-29T07:46:34Z</time>
      </trkpt>
      <trkpt lat="48.00871" lon="6.76089">
        <ele>548.4</ele>
        <time>2022-07-29T07:46:35Z</time>
      </trkpt>
      <trkpt lat="48.00872" lon="6.76092">
        <ele>548.6</ele>
        <time>2022-07-29T07:46:36Z</time>
      </trkpt>
      <trkpt lat="48.00874" lon="6.76095">
        <ele>548.6</ele>
        <time>2022-07-29T07:46:37Z</time>
      </trkpt>
      <trkpt lat="48.00875" lon="6.76097">
        <ele>548.8</ele>
        <time>2022-07-29T07:46:38Z</time>
      </trkpt>
      <trkpt lat="48.00877" lon="6.761">
        <ele>549</ele>
        <time>2022-07-29T07:46:39Z</time>
      </trkpt>
      <trkpt lat="48.00878" lon="6.76103">
        <ele>549.2</ele>
        <time>2022-07-29T07:46:40Z</time>
      </trkpt>
      <trkpt lat="48.00879" lon="6.76106">
        <ele>549.2</ele>
        <time>2022-07-29T07:46:41Z</time>
      </trkpt>
      <trkpt lat="48.0088" lon="6.76109">
        <ele>549.4</ele>
        <time>2022-07-29T07:46:42Z</time>
      </trkpt>
      <trkpt lat="48.00881" lon="6.76111">
        <ele>549.4</ele>
        <time>2022-07-29T07:46:43Z</time>
      </trkpt>
      <trkpt lat="48.00883" lon="6.76113">
        <ele>549.6</ele>
        <time>2022-07-29T07:46:44Z</time>
      </trkpt>
      <trkpt lat="48.00884" lon="6.76116">
        <ele>549.8</ele>
        <time>2022-07-29T07:46:45Z</time>
      </trkpt>
      <trkpt lat="48.00885" lon="6.76119">
        <ele>549.8</ele>
        <time>2022-07-29T07:46:46Z</time>
      </trkpt>
      <trkpt lat="48.00886" lon="6.76122">
        <ele>550</ele>
        <time>2022-07-29T07:46:47Z</time>
      </trkpt>
      <trkpt lat="48.00887" lon="6.76125">
        <ele>550</ele>
        <time>2022-07-29T07:46:48Z</time>
      </trkpt>
      <trkpt lat="48.00889" lon="6.76127">
        <ele>550</ele>
        <time>2022-07-29T07:46:49Z</time>
      </trkpt>
      <trkpt lat="48.00891" lon="6.7613">
        <ele>550</ele>
        <time>2022-07-29T07:46:50Z</time>
      </trkpt>
      <trkpt lat="48.00892" lon="6.76134">
        <ele>550.2</ele>
        <time>2022-07-29T07:46:51Z</time>
      </trkpt>
      <trkpt lat="48.00893" lon="6.76138">
        <ele>550.2</ele>
        <time>2022-07-29T07:46:52Z</time>
      </trkpt>
      <trkpt lat="48.00895" lon="6.76143">
        <ele>550.2</ele>
        <time>2022-07-29T07:46:53Z</time>
      </trkpt>
      <trkpt lat="48.00896" lon="6.76148">
        <ele>550.2</ele>
        <time>2022-07-29T07:46:54Z</time>
      </trkpt>
      <trkpt lat="48.00897" lon="6.76152">
        <ele>550.2</ele>
        <time>2022-07-29T07:46:55Z</time>
      </trkpt>
      <trkpt lat="48.009" lon="6.76156">
        <ele>550.2</ele>
        <time>2022-07-29T07:46:56Z</time>
      </trkpt>
      <trkpt lat="48.00902" lon="6.7616">
        <ele>550</ele>
        <time>2022-07-29T07:46:57Z</time>
      </trkpt>
      <trkpt lat="48.00904" lon="6.76162">
        <ele>550</ele>
        <time>2022-07-29T07:46:58Z</time>
      </trkpt>
      <trkpt lat="48.00907" lon="6.76166">
        <ele>550</ele>
        <time>2022-07-29T07:46:59Z</time>
      </trkpt>
      <trkpt lat="48.00909" lon="6.76169">
        <ele>550</ele>
        <time>2022-07-29T07:47:00Z</time>
      </trkpt>
      <trkpt lat="48.00911" lon="6.76171">
        <ele>550</ele>
        <time>2022-07-29T07:47:01Z</time>
      </trkpt>
      <trkpt lat="48.00912" lon="6.76172">
        <ele>550</ele>
        <time>2022-07-29T07:47:02Z</time>
      </trkpt>
      <trkpt lat="48.00914" lon="6.76174">
        <ele>550</ele>
        <time>2022-07-29T07:47:03Z</time>
      </trkpt>
      <trkpt lat="48.00917" lon="6.76176">
        <ele>550.2</ele>
        <time>2022-07-29T07:47:04Z</time>
      </trkpt>
      <trkpt lat="48.00919" lon="6.76179">
        <ele>550.2</ele>
        <time>2022-07-29T07:47:05Z</time>
      </trkpt>
      <trkpt lat="48.00934" lon="6.76191">
        <ele>550.4</ele>
        <time>2022-07-29T07:47:10Z</time>
      </trkpt>
      <trkpt lat="48.00935" lon="6.76191">
        <ele>550.6</ele>
        <time>2022-07-29T07:47:11Z</time>
      </trkpt>
      <trkpt lat="48.00938" lon="6.76193">
        <ele>550.8</ele>
        <time>2022-07-29T07:47:12Z</time>
      </trkpt>
      <trkpt lat="48.00953" lon="6.76204">
        <ele>551.4</ele>
        <time>2022-07-29T07:47:16Z</time>
      </trkpt>
      <trkpt lat="48.00957" lon="6.76207">
        <ele>551.6</ele>
        <time>2022-07-29T07:47:18Z</time>
      </trkpt>
      <trkpt lat="48.00961" lon="6.76207">
        <ele>551.8</ele>
        <time>2022-07-29T07:47:20Z</time>
      </trkpt>
      <trkpt lat="48.00962" lon="6.76209">
        <ele>551.8</ele>
        <time>2022-07-29T07:47:21Z</time>
      </trkpt>
      <trkpt lat="48.00964" lon="6.7621">
        <ele>552</ele>
        <time>2022-07-29T07:47:22Z</time>
      </trkpt>
      <trkpt lat="48.00965" lon="6.76211">
        <ele>552.2</ele>
        <time>2022-07-29T07:47:23Z</time>
      </trkpt>
      <trkpt lat="48.00967" lon="6.76212">
        <ele>552.4</ele>
        <time>2022-07-29T07:47:24Z</time>
      </trkpt>
      <trkpt lat="48.00969" lon="6.76213">
        <ele>552.4</ele>
        <time>2022-07-29T07:47:25Z</time>
      </trkpt>
      <trkpt lat="48.00971" lon="6.76214">
        <ele>552.6</ele>
        <time>2022-07-29T07:47:26Z</time>
      </trkpt>
      <trkpt lat="48.00973" lon="6.76215">
        <ele>552.6</ele>
        <time>2022-07-29T07:47:27Z</time>
      </trkpt>
      <trkpt lat="48.00975" lon="6.76216">
        <ele>552.8</ele>
        <time>2022-07-29T07:47:28Z</time>
      </trkpt>
      <trkpt lat="48.00982" lon="6.76219">
        <ele>553.4</ele>
        <time>2022-07-29T07:47:31Z</time>
      </trkpt>
      <trkpt lat="48.00984" lon="6.76219">
        <ele>553.6</ele>
        <time>2022-07-29T07:47:32Z</time>
      </trkpt>
      <trkpt lat="48.00985" lon="6.76218">
        <ele>553.8</ele>
        <time>2022-07-29T07:47:33Z</time>
      </trkpt>
      <trkpt lat="48.00987" lon="6.76218">
        <ele>553.8</ele>
        <time>2022-07-29T07:47:34Z</time>
      </trkpt>
      <trkpt lat="48.00988" lon="6.76217">
        <ele>554</ele>
        <time>2022-07-29T07:47:35Z</time>
      </trkpt>
      <trkpt lat="48.00989" lon="6.76217">
        <ele>554.2</ele>
        <time>2022-07-29T07:47:36Z</time>
      </trkpt>
      <trkpt lat="48.0099" lon="6.76217">
        <ele>554.4</ele>
        <time>2022-07-29T07:47:37Z</time>
      </trkpt>
      <trkpt lat="48.0099" lon="6.76216">
        <ele>554.6</ele>
        <time>2022-07-29T07:47:38Z</time>
      </trkpt>
      <trkpt lat="48.00992" lon="6.76215">
        <ele>554.6</ele>
        <time>2022-07-29T07:47:39Z</time>
      </trkpt>
      <trkpt lat="48.00993" lon="6.76214">
        <ele>554.6</ele>
        <time>2022-07-29T07:47:40Z</time>
      </trkpt>
      <trkpt lat="48.00995" lon="6.76213">
        <ele>554.8</ele>
        <time>2022-07-29T07:47:41Z</time>
      </trkpt>
      <trkpt lat="48.00996" lon="6.76212">
        <ele>554.8</ele>
        <time>2022-07-29T07:47:42Z</time>
      </trkpt>
      <trkpt lat="48.00998" lon="6.7621">
        <ele>554.8</ele>
        <time>2022-07-29T07:47:43Z</time>
      </trkpt>
      <trkpt lat="48.01001" lon="6.76208">
        <ele>554.8</ele>
        <time>2022-07-29T07:47:44Z</time>
      </trkpt>
      <trkpt lat="48.01003" lon="6.76205">
        <ele>554.8</ele>
        <time>2022-07-29T07:47:45Z</time>
      </trkpt>
      <trkpt lat="48.01007" lon="6.76202">
        <ele>554.8</ele>
        <time>2022-07-29T07:47:46Z</time>
      </trkpt>
      <trkpt lat="48.0101" lon="6.76199">
        <ele>554.8</ele>
        <time>2022-07-29T07:47:47Z</time>
      </trkpt>
      <trkpt lat="48.01013" lon="6.76196">
        <ele>554.6</ele>
        <time>2022-07-29T07:47:48Z</time>
      </trkpt>
      <trkpt lat="48.01017" lon="6.76193">
        <ele>554.4</ele>
        <time>2022-07-29T07:47:49Z</time>
      </trkpt>
      <trkpt lat="48.0102" lon="6.76191">
        <ele>554.2</ele>
        <time>2022-07-29T07:47:50Z</time>
      </trkpt>
      <trkpt lat="48.01023" lon="6.76189">
        <ele>553.8</ele>
        <time>2022-07-29T07:47:51Z</time>
      </trkpt>
      <trkpt lat="48.01027" lon="6.76186">
        <ele>553.6</ele>
        <time>2022-07-29T07:47:52Z</time>
      </trkpt>
      <trkpt lat="48.0103" lon="6.76183">
        <ele>553.2</ele>
        <time>2022-07-29T07:47:53Z</time>
      </trkpt>
      <trkpt lat="48.01035" lon="6.76179">
        <ele>553</ele>
        <time>2022-07-29T07:47:54Z</time>
      </trkpt>
      <trkpt lat="48.01046" lon="6.76171">
        <ele>552.8</ele>
        <time>2022-07-29T07:47:56Z</time>
      </trkpt>
      <trkpt lat="48.01061" lon="6.7616">
        <ele>551.8</ele>
        <time>2022-07-29T07:47:59Z</time>
      </trkpt>
      <trkpt lat="48.01071" lon="6.76153">
        <ele>551</ele>
        <time>2022-07-29T07:48:01Z</time>
      </trkpt>
      <trkpt lat="48.01075" lon="6.76151">
        <ele>550.2</ele>
        <time>2022-07-29T07:48:02Z</time>
      </trkpt>
      <trkpt lat="48.0108" lon="6.76149">
        <ele>549.8</ele>
        <time>2022-07-29T07:48:03Z</time>
      </trkpt>
      <trkpt lat="48.01085" lon="6.76147">
        <ele>549</ele>
        <time>2022-07-29T07:48:04Z</time>
      </trkpt>
      <trkpt lat="48.01095" lon="6.76145">
        <ele>548.4</ele>
        <time>2022-07-29T07:48:06Z</time>
      </trkpt>
      <trkpt lat="48.01101" lon="6.76143">
        <ele>548.2</ele>
        <time>2022-07-29T07:48:07Z</time>
      </trkpt>
      <trkpt lat="48.01107" lon="6.7614">
        <ele>548</ele>
        <time>2022-07-29T07:48:08Z</time>
      </trkpt>
      <trkpt lat="48.01114" lon="6.7614">
        <ele>547.8</ele>
        <time>2022-07-29T07:48:09Z</time>
      </trkpt>
      <trkpt lat="48.01122" lon="6.7614">
        <ele>547.6</ele>
        <time>2022-07-29T07:48:10Z</time>
      </trkpt>
      <trkpt lat="48.01129" lon="6.76143">
        <ele>547.2</ele>
        <time>2022-07-29T07:48:11Z</time>
      </trkpt>
      <trkpt lat="48.01135" lon="6.76146">
        <ele>547</ele>
        <time>2022-07-29T07:48:12Z</time>
      </trkpt>
      <trkpt lat="48.0114" lon="6.7615">
        <ele>546.6</ele>
        <time>2022-07-29T07:48:13Z</time>
      </trkpt>
      <trkpt lat="48.01143" lon="6.76153">
        <ele>546.4</ele>
        <time>2022-07-29T07:48:14Z</time>
      </trkpt>
      <trkpt lat="48.01146" lon="6.76156">
        <ele>546.2</ele>
        <time>2022-07-29T07:48:15Z</time>
      </trkpt>
      <trkpt lat="48.01149" lon="6.76159">
        <ele>546.2</ele>
        <time>2022-07-29T07:48:16Z</time>
      </trkpt>
      <trkpt lat="48.01152" lon="6.76162">
        <ele>545.8</ele>
        <time>2022-07-29T07:48:17Z</time>
      </trkpt>
      <trkpt lat="48.01164" lon="6.76177">
        <ele>545.6</ele>
        <time>2022-07-29T07:48:21Z</time>
      </trkpt>
      <trkpt lat="48.0117" lon="6.76184">
        <ele>545.6</ele>
        <time>2022-07-29T07:48:23Z</time>
      </trkpt>
      <trkpt lat="48.01183" lon="6.76199">
        <ele>545.4</ele>
        <time>2022-07-29T07:48:27Z</time>
      </trkpt>
      <trkpt lat="48.01191" lon="6.7621">
        <ele>545.4</ele>
        <time>2022-07-29T07:48:30Z</time>
      </trkpt>
      <trkpt lat="48.01193" lon="6.76214">
        <ele>545.4</ele>
        <time>2022-07-29T07:48:31Z</time>
      </trkpt>
      <trkpt lat="48.01195" lon="6.76217">
        <ele>545.4</ele>
        <time>2022-07-29T07:48:32Z</time>
      </trkpt>
      <trkpt lat="48.01198" lon="6.76221">
        <ele>545.2</ele>
        <time>2022-07-29T07:48:33Z</time>
      </trkpt>
      <trkpt lat="48.012" lon="6.76224">
        <ele>545.2</ele>
        <time>2022-07-29T07:48:34Z</time>
      </trkpt>
      <trkpt lat="48.01203" lon="6.76227">
        <ele>545.4</ele>
        <time>2022-07-29T07:48:35Z</time>
      </trkpt>
      <trkpt lat="48.01205" lon="6.7623">
        <ele>545.4</ele>
        <time>2022-07-29T07:48:36Z</time>
      </trkpt>
      <trkpt lat="48.01207" lon="6.76233">
        <ele>545.4</ele>
        <time>2022-07-29T07:48:37Z</time>
      </trkpt>
      <trkpt lat="48.01209" lon="6.76235">
        <ele>545.6</ele>
        <time>2022-07-29T07:48:38Z</time>
      </trkpt>
      <trkpt lat="48.01211" lon="6.76237">
        <ele>545.8</ele>
        <time>2022-07-29T07:48:39Z</time>
      </trkpt>
      <trkpt lat="48.01213" lon="6.7624">
        <ele>546.2</ele>
        <time>2022-07-29T07:48:40Z</time>
      </trkpt>
      <trkpt lat="48.01215" lon="6.76243">
        <ele>546.4</ele>
        <time>2022-07-29T07:48:41Z</time>
      </trkpt>
      <trkpt lat="48.01217" lon="6.76245">
        <ele>546.6</ele>
        <time>2022-07-29T07:48:42Z</time>
      </trkpt>
      <trkpt lat="48.01223" lon="6.76255">
        <ele>547.2</ele>
        <time>2022-07-29T07:48:45Z</time>
      </trkpt>
      <trkpt lat="48.01225" lon="6.76256">
        <ele>547.4</ele>
        <time>2022-07-29T07:48:46Z</time>
      </trkpt>
      <trkpt lat="48.01227" lon="6.76258">
        <ele>547.6</ele>
        <time>2022-07-29T07:48:47Z</time>
      </trkpt>
      <trkpt lat="48.01229" lon="6.76261">
        <ele>547.6</ele>
        <time>2022-07-29T07:48:48Z</time>
      </trkpt>
      <trkpt lat="48.01231" lon="6.76263">
        <ele>548</ele>
        <time>2022-07-29T07:48:49Z</time>
      </trkpt>
      <trkpt lat="48.01233" lon="6.76266">
        <ele>548.2</ele>
        <time>2022-07-29T07:48:50Z</time>
      </trkpt>
      <trkpt lat="48.01236" lon="6.76268">
        <ele>548.6</ele>
        <time>2022-07-29T07:48:51Z</time>
      </trkpt>
      <trkpt lat="48.01238" lon="6.7627">
        <ele>548.8</ele>
        <time>2022-07-29T07:48:52Z</time>
      </trkpt>
      <trkpt lat="48.01243" lon="6.76278">
        <ele>549.2</ele>
        <time>2022-07-29T07:48:55Z</time>
      </trkpt>
      <trkpt lat="48.01245" lon="6.76281">
        <ele>549.6</ele>
        <time>2022-07-29T07:48:56Z</time>
      </trkpt>
      <trkpt lat="48.01247" lon="6.76283">
        <ele>549.8</ele>
        <time>2022-07-29T07:48:57Z</time>
      </trkpt>
      <trkpt lat="48.01249" lon="6.76285">
        <ele>550</ele>
        <time>2022-07-29T07:48:58Z</time>
      </trkpt>
      <trkpt lat="48.01252" lon="6.76289">
        <ele>550.2</ele>
        <time>2022-07-29T07:48:59Z</time>
      </trkpt>
      <trkpt lat="48.01254" lon="6.76291">
        <ele>550.4</ele>
        <time>2022-07-29T07:49:00Z</time>
      </trkpt>
      <trkpt lat="48.01255" lon="6.76294">
        <ele>550.6</ele>
        <time>2022-07-29T07:49:01Z</time>
      </trkpt>
      <trkpt lat="48.01256" lon="6.76298">
        <ele>550.8</ele>
        <time>2022-07-29T07:49:02Z</time>
      </trkpt>
      <trkpt lat="48.01257" lon="6.76301">
        <ele>551</ele>
        <time>2022-07-29T07:49:03Z</time>
      </trkpt>
      <trkpt lat="48.01258" lon="6.76304">
        <ele>551</ele>
        <time>2022-07-29T07:49:04Z</time>
      </trkpt>
      <trkpt lat="48.0126" lon="6.76308">
        <ele>551</ele>
        <time>2022-07-29T07:49:05Z</time>
      </trkpt>
      <trkpt lat="48.01261" lon="6.76311">
        <ele>551</ele>
        <time>2022-07-29T07:49:06Z</time>
      </trkpt>
      <trkpt lat="48.01262" lon="6.76315">
        <ele>551.2</ele>
        <time>2022-07-29T07:49:07Z</time>
      </trkpt>
      <trkpt lat="48.01263" lon="6.76319">
        <ele>551.2</ele>
        <time>2022-07-29T07:49:08Z</time>
      </trkpt>
      <trkpt lat="48.01264" lon="6.76323">
        <ele>551.2</ele>
        <time>2022-07-29T07:49:09Z</time>
      </trkpt>
      <trkpt lat="48.01266" lon="6.76327">
        <ele>551.2</ele>
        <time>2022-07-29T07:49:10Z</time>
      </trkpt>
      <trkpt lat="48.01267" lon="6.76331">
        <ele>551.2</ele>
        <time>2022-07-29T07:49:11Z</time>
      </trkpt>
      <trkpt lat="48.01268" lon="6.76335">
        <ele>551.2</ele>
        <time>2022-07-29T07:49:12Z</time>
      </trkpt>
      <trkpt lat="48.01269" lon="6.76339">
        <ele>551.2</ele>
        <time>2022-07-29T07:49:13Z</time>
      </trkpt>
      <trkpt lat="48.01269" lon="6.76342">
        <ele>551.2</ele>
        <time>2022-07-29T07:49:14Z</time>
      </trkpt>
      <trkpt lat="48.0127" lon="6.76346">
        <ele>551.2</ele>
        <time>2022-07-29T07:49:15Z</time>
      </trkpt>
      <trkpt lat="48.01271" lon="6.76349">
        <ele>551.4</ele>
        <time>2022-07-29T07:49:16Z</time>
      </trkpt>
      <trkpt lat="48.01272" lon="6.76353">
        <ele>551.4</ele>
        <time>2022-07-29T07:49:17Z</time>
      </trkpt>
      <trkpt lat="48.01273" lon="6.76356">
        <ele>551.4</ele>
        <time>2022-07-29T07:49:18Z</time>
      </trkpt>
      <trkpt lat="48.01274" lon="6.7636">
        <ele>551.4</ele>
        <time>2022-07-29T07:49:19Z</time>
      </trkpt>
      <trkpt lat="48.01275" lon="6.76364">
        <ele>551.4</ele>
        <time>2022-07-29T07:49:20Z</time>
      </trkpt>
      <trkpt lat="48.01275" lon="6.76366">
        <ele>551.6</ele>
        <time>2022-07-29T07:49:21Z</time>
      </trkpt>
      <trkpt lat="48.01275" lon="6.76368">
        <ele>551.6</ele>
        <time>2022-07-29T07:49:22Z</time>
      </trkpt>
      <trkpt lat="48.01274" lon="6.76372">
        <ele>551.8</ele>
        <time>2022-07-29T07:49:23Z</time>
      </trkpt>
      <trkpt lat="48.01274" lon="6.76379">
        <ele>551.8</ele>
        <time>2022-07-29T07:49:25Z</time>
      </trkpt>
      <trkpt lat="48.01272" lon="6.76387">
        <ele>552.2</ele>
        <time>2022-07-29T07:49:27Z</time>
      </trkpt>
      <trkpt lat="48.01271" lon="6.76397">
        <ele>552.2</ele>
        <time>2022-07-29T07:49:29Z</time>
      </trkpt>
      <trkpt lat="48.01271" lon="6.76403">
        <ele>552.2</ele>
        <time>2022-07-29T07:49:30Z</time>
      </trkpt>
      <trkpt lat="48.01272" lon="6.76409">
        <ele>552.2</ele>
        <time>2022-07-29T07:49:31Z</time>
      </trkpt>
      <trkpt lat="48.01273" lon="6.76413">
        <ele>552.2</ele>
        <time>2022-07-29T07:49:32Z</time>
      </trkpt>
      <trkpt lat="48.01274" lon="6.76417">
        <ele>552.2</ele>
        <time>2022-07-29T07:49:33Z</time>
      </trkpt>
      <trkpt lat="48.01275" lon="6.76423">
        <ele>552.2</ele>
        <time>2022-07-29T07:49:34Z</time>
      </trkpt>
      <trkpt lat="48.01276" lon="6.76429">
        <ele>552</ele>
        <time>2022-07-29T07:49:35Z</time>
      </trkpt>
      <trkpt lat="48.01285" lon="6.76472">
        <ele>551.2</ele>
        <time>2022-07-29T07:49:42Z</time>
      </trkpt>
      <trkpt lat="48.01287" lon="6.76477">
        <ele>551.2</ele>
        <time>2022-07-29T07:49:43Z</time>
      </trkpt>
      <trkpt lat="48.01289" lon="6.76481">
        <ele>551.2</ele>
        <time>2022-07-29T07:49:44Z</time>
      </trkpt>
      <trkpt lat="48.0129" lon="6.76485">
        <ele>551.2</ele>
        <time>2022-07-29T07:49:45Z</time>
      </trkpt>
      <trkpt lat="48.0129" lon="6.76488">
        <ele>551.4</ele>
        <time>2022-07-29T07:49:46Z</time>
      </trkpt>
      <trkpt lat="48.0129" lon="6.76493">
        <ele>551.4</ele>
        <time>2022-07-29T07:49:47Z</time>
      </trkpt>
      <trkpt lat="48.01295" lon="6.76523">
        <ele>551.2</ele>
        <time>2022-07-29T07:49:52Z</time>
      </trkpt>
      <trkpt lat="48.01298" lon="6.76536">
        <ele>551</ele>
        <time>2022-07-29T07:49:54Z</time>
      </trkpt>
      <trkpt lat="48.013" lon="6.7654">
        <ele>551</ele>
        <time>2022-07-29T07:49:55Z</time>
      </trkpt>
      <trkpt lat="48.01302" lon="6.76546">
        <ele>551</ele>
        <time>2022-07-29T07:49:56Z</time>
      </trkpt>
      <trkpt lat="48.01305" lon="6.7655">
        <ele>550.8</ele>
        <time>2022-07-29T07:49:57Z</time>
      </trkpt>
      <trkpt lat="48.01307" lon="6.76552">
        <ele>550.8</ele>
        <time>2022-07-29T07:49:58Z</time>
      </trkpt>
      <trkpt lat="48.01309" lon="6.76556">
        <ele>550.8</ele>
        <time>2022-07-29T07:49:59Z</time>
      </trkpt>
      <trkpt lat="48.0131" lon="6.76557">
        <ele>550.8</ele>
        <time>2022-07-29T07:50:00Z</time>
      </trkpt>
      <trkpt lat="48.01314" lon="6.76559">
        <ele>550.8</ele>
        <time>2022-07-29T07:50:01Z</time>
      </trkpt>
      <trkpt lat="48.01317" lon="6.76563">
        <ele>550.8</ele>
        <time>2022-07-29T07:50:02Z</time>
      </trkpt>
      <trkpt lat="48.01318" lon="6.76566">
        <ele>551.2</ele>
        <time>2022-07-29T07:50:04Z</time>
      </trkpt>
      <trkpt lat="48.01319" lon="6.76569">
        <ele>551.4</ele>
        <time>2022-07-29T07:50:05Z</time>
      </trkpt>
      <trkpt lat="48.0132" lon="6.7657">
        <ele>551.6</ele>
        <time>2022-07-29T07:50:06Z</time>
      </trkpt>
      <trkpt lat="48.01321" lon="6.76571">
        <ele>551.6</ele>
        <time>2022-07-29T07:50:07Z</time>
      </trkpt>
      <trkpt lat="48.01321" lon="6.76572">
        <ele>551.8</ele>
        <time>2022-07-29T07:50:08Z</time>
      </trkpt>
      <trkpt lat="48.01322" lon="6.76573">
        <ele>552</ele>
        <time>2022-07-29T07:50:09Z</time>
      </trkpt>
      <trkpt lat="48.01323" lon="6.76575">
        <ele>552.2</ele>
        <time>2022-07-29T07:50:10Z</time>
      </trkpt>
      <trkpt lat="48.01326" lon="6.76581">
        <ele>552.4</ele>
        <time>2022-07-29T07:50:12Z</time>
      </trkpt>
      <trkpt lat="48.01333" lon="6.76588">
        <ele>552.6</ele>
        <time>2022-07-29T07:50:15Z</time>
      </trkpt>
      <trkpt lat="48.01335" lon="6.7659">
        <ele>553</ele>
        <time>2022-07-29T07:50:16Z</time>
      </trkpt>
      <trkpt lat="48.01337" lon="6.76591">
        <ele>553.6</ele>
        <time>2022-07-29T07:50:17Z</time>
      </trkpt>
      <trkpt lat="48.01343" lon="6.76597">
        <ele>554.6</ele>
        <time>2022-07-29T07:50:21Z</time>
      </trkpt>
      <trkpt lat="48.01345" lon="6.76599">
        <ele>554.8</ele>
        <time>2022-07-29T07:50:22Z</time>
      </trkpt>
      <trkpt lat="48.01347" lon="6.76602">
        <ele>554.8</ele>
        <time>2022-07-29T07:50:23Z</time>
      </trkpt>
      <trkpt lat="48.01349" lon="6.76605">
        <ele>555</ele>
        <time>2022-07-29T07:50:24Z</time>
      </trkpt>
      <trkpt lat="48.0135" lon="6.76607">
        <ele>555</ele>
        <time>2022-07-29T07:50:25Z</time>
      </trkpt>
      <trkpt lat="48.01351" lon="6.76609">
        <ele>555.2</ele>
        <time>2022-07-29T07:50:26Z</time>
      </trkpt>
      <trkpt lat="48.01352" lon="6.76612">
        <ele>555.4</ele>
        <time>2022-07-29T07:50:27Z</time>
      </trkpt>
      <trkpt lat="48.01354" lon="6.76617">
        <ele>556</ele>
        <time>2022-07-29T07:50:28Z</time>
      </trkpt>
      <trkpt lat="48.01356" lon="6.76621">
        <ele>556.4</ele>
        <time>2022-07-29T07:50:29Z</time>
      </trkpt>
      <trkpt lat="48.01357" lon="6.76624">
        <ele>556.4</ele>
        <time>2022-07-29T07:50:30Z</time>
      </trkpt>
      <trkpt lat="48.01359" lon="6.76628">
        <ele>556.4</ele>
        <time>2022-07-29T07:50:31Z</time>
      </trkpt>
      <trkpt lat="48.0136" lon="6.76632">
        <ele>556.4</ele>
        <time>2022-07-29T07:50:32Z</time>
      </trkpt>
      <trkpt lat="48.01361" lon="6.76636">
        <ele>556.6</ele>
        <time>2022-07-29T07:50:33Z</time>
      </trkpt>
      <trkpt lat="48.01362" lon="6.7664">
        <ele>556.6</ele>
        <time>2022-07-29T07:50:34Z</time>
      </trkpt>
      <trkpt lat="48.01363" lon="6.76643">
        <ele>556.6</ele>
        <time>2022-07-29T07:50:35Z</time>
      </trkpt>
      <trkpt lat="48.01364" lon="6.76648">
        <ele>556.6</ele>
        <time>2022-07-29T07:50:36Z</time>
      </trkpt>
      <trkpt lat="48.01365" lon="6.76652">
        <ele>556.6</ele>
        <time>2022-07-29T07:50:37Z</time>
      </trkpt>
      <trkpt lat="48.01367" lon="6.76655">
        <ele>556.6</ele>
        <time>2022-07-29T07:50:38Z</time>
      </trkpt>
      <trkpt lat="48.01368" lon="6.76658">
        <ele>556.8</ele>
        <time>2022-07-29T07:50:39Z</time>
      </trkpt>
      <trkpt lat="48.0137" lon="6.76661">
        <ele>556.8</ele>
        <time>2022-07-29T07:50:40Z</time>
      </trkpt>
      <trkpt lat="48.01371" lon="6.76663">
        <ele>556.8</ele>
        <time>2022-07-29T07:50:41Z</time>
      </trkpt>
      <trkpt lat="48.01373" lon="6.76666">
        <ele>556.8</ele>
        <time>2022-07-29T07:50:42Z</time>
      </trkpt>
      <trkpt lat="48.01375" lon="6.76668">
        <ele>556.8</ele>
        <time>2022-07-29T07:50:43Z</time>
      </trkpt>
      <trkpt lat="48.01376" lon="6.76669">
        <ele>557</ele>
        <time>2022-07-29T07:50:44Z</time>
      </trkpt>
      <trkpt lat="48.01377" lon="6.76671">
        <ele>557.2</ele>
        <time>2022-07-29T07:50:45Z</time>
      </trkpt>
      <trkpt lat="48.01379" lon="6.76673">
        <ele>557.2</ele>
        <time>2022-07-29T07:50:46Z</time>
      </trkpt>
      <trkpt lat="48.01381" lon="6.76675">
        <ele>557.4</ele>
        <time>2022-07-29T07:50:47Z</time>
      </trkpt>
      <trkpt lat="48.01383" lon="6.76677">
        <ele>557.4</ele>
        <time>2022-07-29T07:50:48Z</time>
      </trkpt>
      <trkpt lat="48.01385" lon="6.76678">
        <ele>557.6</ele>
        <time>2022-07-29T07:50:49Z</time>
      </trkpt>
      <trkpt lat="48.01387" lon="6.7668">
        <ele>557.6</ele>
        <time>2022-07-29T07:50:50Z</time>
      </trkpt>
      <trkpt lat="48.01389" lon="6.76682">
        <ele>557.6</ele>
        <time>2022-07-29T07:50:51Z</time>
      </trkpt>
      <trkpt lat="48.01391" lon="6.76684">
        <ele>557.8</ele>
        <time>2022-07-29T07:50:52Z</time>
      </trkpt>
      <trkpt lat="48.01393" lon="6.76685">
        <ele>558</ele>
        <time>2022-07-29T07:50:53Z</time>
      </trkpt>
      <trkpt lat="48.01394" lon="6.76687">
        <ele>558.2</ele>
        <time>2022-07-29T07:50:54Z</time>
      </trkpt>
      <trkpt lat="48.014" lon="6.76692">
        <ele>558.6</ele>
        <time>2022-07-29T07:50:57Z</time>
      </trkpt>
      <trkpt lat="48.01401" lon="6.76694">
        <ele>559</ele>
        <time>2022-07-29T07:50:58Z</time>
      </trkpt>
      <trkpt lat="48.01403" lon="6.76696">
        <ele>559</ele>
        <time>2022-07-29T07:50:59Z</time>
      </trkpt>
      <trkpt lat="48.01405" lon="6.76697">
        <ele>559.2</ele>
        <time>2022-07-29T07:51:00Z</time>
      </trkpt>
      <trkpt lat="48.01406" lon="6.76699">
        <ele>559.2</ele>
        <time>2022-07-29T07:51:01Z</time>
      </trkpt>
      <trkpt lat="48.01408" lon="6.76701">
        <ele>559.4</ele>
        <time>2022-07-29T07:51:02Z</time>
      </trkpt>
      <trkpt lat="48.0141" lon="6.76703">
        <ele>559.6</ele>
        <time>2022-07-29T07:51:03Z</time>
      </trkpt>
      <trkpt lat="48.01411" lon="6.76705">
        <ele>559.8</ele>
        <time>2022-07-29T07:51:04Z</time>
      </trkpt>
      <trkpt lat="48.01412" lon="6.76707">
        <ele>560</ele>
        <time>2022-07-29T07:51:05Z</time>
      </trkpt>
      <trkpt lat="48.01413" lon="6.76709">
        <ele>560</ele>
        <time>2022-07-29T07:51:06Z</time>
      </trkpt>
      <trkpt lat="48.01414" lon="6.76712">
        <ele>560.2</ele>
        <time>2022-07-29T07:51:07Z</time>
      </trkpt>
      <trkpt lat="48.01416" lon="6.76714">
        <ele>560.4</ele>
        <time>2022-07-29T07:51:08Z</time>
      </trkpt>
      <trkpt lat="48.01417" lon="6.76717">
        <ele>560.6</ele>
        <time>2022-07-29T07:51:09Z</time>
      </trkpt>
      <trkpt lat="48.01418" lon="6.76719">
        <ele>560.8</ele>
        <time>2022-07-29T07:51:10Z</time>
      </trkpt>
      <trkpt lat="48.01419" lon="6.76722">
        <ele>560.8</ele>
        <time>2022-07-29T07:51:11Z</time>
      </trkpt>
      <trkpt lat="48.0142" lon="6.76725">
        <ele>561</ele>
        <time>2022-07-29T07:51:12Z</time>
      </trkpt>
      <trkpt lat="48.01421" lon="6.76728">
        <ele>561</ele>
        <time>2022-07-29T07:51:13Z</time>
      </trkpt>
      <trkpt lat="48.01422" lon="6.76731">
        <ele>561</ele>
        <time>2022-07-29T07:51:14Z</time>
      </trkpt>
      <trkpt lat="48.01423" lon="6.76734">
        <ele>561.2</ele>
        <time>2022-07-29T07:51:15Z</time>
      </trkpt>
      <trkpt lat="48.01424" lon="6.76737">
        <ele>561.2</ele>
        <time>2022-07-29T07:51:16Z</time>
      </trkpt>
      <trkpt lat="48.01426" lon="6.7674">
        <ele>561.2</ele>
        <time>2022-07-29T07:51:17Z</time>
      </trkpt>
      <trkpt lat="48.01427" lon="6.76743">
        <ele>561.4</ele>
        <time>2022-07-29T07:51:18Z</time>
      </trkpt>
      <trkpt lat="48.01427" lon="6.76746">
        <ele>561.4</ele>
        <time>2022-07-29T07:51:19Z</time>
      </trkpt>
      <trkpt lat="48.01428" lon="6.7675">
        <ele>561.6</ele>
        <time>2022-07-29T07:51:20Z</time>
      </trkpt>
      <trkpt lat="48.01429" lon="6.76753">
        <ele>561.8</ele>
        <time>2022-07-29T07:51:21Z</time>
      </trkpt>
      <trkpt lat="48.0143" lon="6.76756">
        <ele>562</ele>
        <time>2022-07-29T07:51:22Z</time>
      </trkpt>
      <trkpt lat="48.0143" lon="6.7676">
        <ele>562</ele>
        <time>2022-07-29T07:51:23Z</time>
      </trkpt>
      <trkpt lat="48.01431" lon="6.76763">
        <ele>562.2</ele>
        <time>2022-07-29T07:51:24Z</time>
      </trkpt>
      <trkpt lat="48.01432" lon="6.76767">
        <ele>562.6</ele>
        <time>2022-07-29T07:51:25Z</time>
      </trkpt>
      <trkpt lat="48.01432" lon="6.7677">
        <ele>562.4</ele>
        <time>2022-07-29T07:51:26Z</time>
      </trkpt>
      <trkpt lat="48.01433" lon="6.76772">
        <ele>562.6</ele>
        <time>2022-07-29T07:51:27Z</time>
      </trkpt>
      <trkpt lat="48.01433" lon="6.76775">
        <ele>562.6</ele>
        <time>2022-07-29T07:51:28Z</time>
      </trkpt>
      <trkpt lat="48.01434" lon="6.76779">
        <ele>562.8</ele>
        <time>2022-07-29T07:51:29Z</time>
      </trkpt>
      <trkpt lat="48.01434" lon="6.76782">
        <ele>562.8</ele>
        <time>2022-07-29T07:51:30Z</time>
      </trkpt>
      <trkpt lat="48.01434" lon="6.76786">
        <ele>562.8</ele>
        <time>2022-07-29T07:51:31Z</time>
      </trkpt>
      <trkpt lat="48.01434" lon="6.7679">
        <ele>563.2</ele>
        <time>2022-07-29T07:51:32Z</time>
      </trkpt>
      <trkpt lat="48.01435" lon="6.76793">
        <ele>563.2</ele>
        <time>2022-07-29T07:51:33Z</time>
      </trkpt>
      <trkpt lat="48.01435" lon="6.76797">
        <ele>563</ele>
        <time>2022-07-29T07:51:34Z</time>
      </trkpt>
      <trkpt lat="48.01436" lon="6.76801">
        <ele>563</ele>
        <time>2022-07-29T07:51:35Z</time>
      </trkpt>
      <trkpt lat="48.01436" lon="6.76805">
        <ele>563.2</ele>
        <time>2022-07-29T07:51:36Z</time>
      </trkpt>
      <trkpt lat="48.01437" lon="6.76809">
        <ele>563</ele>
        <time>2022-07-29T07:51:37Z</time>
      </trkpt>
      <trkpt lat="48.01437" lon="6.76814">
        <ele>562.8</ele>
        <time>2022-07-29T07:51:38Z</time>
      </trkpt>
      <trkpt lat="48.01438" lon="6.76819">
        <ele>562.8</ele>
        <time>2022-07-29T07:51:39Z</time>
      </trkpt>
      <trkpt lat="48.0144" lon="6.76834">
        <ele>562.4</ele>
        <time>2022-07-29T07:51:42Z</time>
      </trkpt>
      <trkpt lat="48.0144" lon="6.76846">
        <ele>561.8</ele>
        <time>2022-07-29T07:51:44Z</time>
      </trkpt>
      <trkpt lat="48.01441" lon="6.76864">
        <ele>561</ele>
        <time>2022-07-29T07:51:47Z</time>
      </trkpt>
      <trkpt lat="48.01442" lon="6.76871">
        <ele>561</ele>
        <time>2022-07-29T07:51:48Z</time>
      </trkpt>
      <trkpt lat="48.01444" lon="6.76884">
        <ele>560.2</ele>
        <time>2022-07-29T07:51:50Z</time>
      </trkpt>
      <trkpt lat="48.01445" lon="6.7689">
        <ele>560.2</ele>
        <time>2022-07-29T07:51:51Z</time>
      </trkpt>
      <trkpt lat="48.01446" lon="6.76895">
        <ele>560</ele>
        <time>2022-07-29T07:51:52Z</time>
      </trkpt>
      <trkpt lat="48.01451" lon="6.76906">
        <ele>559.8</ele>
        <time>2022-07-29T07:51:54Z</time>
      </trkpt>
      <trkpt lat="48.01458" lon="6.76921">
        <ele>559.8</ele>
        <time>2022-07-29T07:51:57Z</time>
      </trkpt>
      <trkpt lat="48.0146" lon="6.76926">
        <ele>559.8</ele>
        <time>2022-07-29T07:51:58Z</time>
      </trkpt>
      <trkpt lat="48.01462" lon="6.7693">
        <ele>559.8</ele>
        <time>2022-07-29T07:51:59Z</time>
      </trkpt>
      <trkpt lat="48.01464" lon="6.76934">
        <ele>559.8</ele>
        <time>2022-07-29T07:52:00Z</time>
      </trkpt>
      <trkpt lat="48.01466" lon="6.76938">
        <ele>559.8</ele>
        <time>2022-07-29T07:52:01Z</time>
      </trkpt>
      <trkpt lat="48.01469" lon="6.76941">
        <ele>559.8</ele>
        <time>2022-07-29T07:52:02Z</time>
      </trkpt>
      <trkpt lat="48.01471" lon="6.76943">
        <ele>559.8</ele>
        <time>2022-07-29T07:52:03Z</time>
      </trkpt>
      <trkpt lat="48.01474" lon="6.76947">
        <ele>559.8</ele>
        <time>2022-07-29T07:52:04Z</time>
      </trkpt>
      <trkpt lat="48.01477" lon="6.7695">
        <ele>559.8</ele>
        <time>2022-07-29T07:52:05Z</time>
      </trkpt>
      <trkpt lat="48.0148" lon="6.76953">
        <ele>559.8</ele>
        <time>2022-07-29T07:52:06Z</time>
      </trkpt>
      <trkpt lat="48.01482" lon="6.76956">
        <ele>559.8</ele>
        <time>2022-07-29T07:52:07Z</time>
      </trkpt>
      <trkpt lat="48.01485" lon="6.76958">
        <ele>559.6</ele>
        <time>2022-07-29T07:52:08Z</time>
      </trkpt>
      <trkpt lat="48.01487" lon="6.76961">
        <ele>559.6</ele>
        <time>2022-07-29T07:52:09Z</time>
      </trkpt>
      <trkpt lat="48.0149" lon="6.76963">
        <ele>559.6</ele>
        <time>2022-07-29T07:52:10Z</time>
      </trkpt>
      <trkpt lat="48.01499" lon="6.76972">
        <ele>559.6</ele>
        <time>2022-07-29T07:52:13Z</time>
      </trkpt>
      <trkpt lat="48.01502" lon="6.76974">
        <ele>559.6</ele>
        <time>2022-07-29T07:52:14Z</time>
      </trkpt>
      <trkpt lat="48.01505" lon="6.76976">
        <ele>559.6</ele>
        <time>2022-07-29T07:52:15Z</time>
      </trkpt>
      <trkpt lat="48.01525" lon="6.76982">
        <ele>559.6</ele>
        <time>2022-07-29T07:52:22Z</time>
      </trkpt>
      <trkpt lat="48.01528" lon="6.76982">
        <ele>559.6</ele>
        <time>2022-07-29T07:52:23Z</time>
      </trkpt>
      <trkpt lat="48.01531" lon="6.76983">
        <ele>559.6</ele>
        <time>2022-07-29T07:52:24Z</time>
      </trkpt>
      <trkpt lat="48.01554" lon="6.76992">
        <ele>559.6</ele>
        <time>2022-07-29T07:52:31Z</time>
      </trkpt>
      <trkpt lat="48.01558" lon="6.76995">
        <ele>559.4</ele>
        <time>2022-07-29T07:52:32Z</time>
      </trkpt>
      <trkpt lat="48.01571" lon="6.77005">
        <ele>559.2</ele>
        <time>2022-07-29T07:52:36Z</time>
      </trkpt>
      <trkpt lat="48.01574" lon="6.77007">
        <ele>559</ele>
        <time>2022-07-29T07:52:37Z</time>
      </trkpt>
      <trkpt lat="48.01577" lon="6.77009">
        <ele>559</ele>
        <time>2022-07-29T07:52:38Z</time>
      </trkpt>
      <trkpt lat="48.01591" lon="6.77016">
        <ele>558.2</ele>
        <time>2022-07-29T07:52:42Z</time>
      </trkpt>
      <trkpt lat="48.01607" lon="6.77034">
        <ele>557.8</ele>
        <time>2022-07-29T07:52:47Z</time>
      </trkpt>
      <trkpt lat="48.01609" lon="6.77039">
        <ele>557.6</ele>
        <time>2022-07-29T07:52:48Z</time>
      </trkpt>
      <trkpt lat="48.0161" lon="6.77045">
        <ele>557.6</ele>
        <time>2022-07-29T07:52:49Z</time>
      </trkpt>
      <trkpt lat="48.01611" lon="6.77051">
        <ele>557.4</ele>
        <time>2022-07-29T07:52:50Z</time>
      </trkpt>
      <trkpt lat="48.01611" lon="6.77057">
        <ele>557.2</ele>
        <time>2022-07-29T07:52:51Z</time>
      </trkpt>
      <trkpt lat="48.01611" lon="6.77063">
        <ele>557.2</ele>
        <time>2022-07-29T07:52:52Z</time>
      </trkpt>
      <trkpt lat="48.0161" lon="6.77069">
        <ele>557</ele>
        <time>2022-07-29T07:52:53Z</time>
      </trkpt>
      <trkpt lat="48.01609" lon="6.7709">
        <ele>556.8</ele>
        <time>2022-07-29T07:52:56Z</time>
      </trkpt>
      <trkpt lat="48.0161" lon="6.77098">
        <ele>556.2</ele>
        <time>2022-07-29T07:52:57Z</time>
      </trkpt>
      <trkpt lat="48.01612" lon="6.77107">
        <ele>556</ele>
        <time>2022-07-29T07:52:58Z</time>
      </trkpt>
      <trkpt lat="48.01614" lon="6.77114">
        <ele>555.4</ele>
        <time>2022-07-29T07:52:59Z</time>
      </trkpt>
      <trkpt lat="48.01617" lon="6.77121">
        <ele>554.8</ele>
        <time>2022-07-29T07:53:00Z</time>
      </trkpt>
      <trkpt lat="48.0162" lon="6.77127">
        <ele>554.4</ele>
        <time>2022-07-29T07:53:01Z</time>
      </trkpt>
      <trkpt lat="48.01624" lon="6.77132">
        <ele>554</ele>
        <time>2022-07-29T07:53:02Z</time>
      </trkpt>
      <trkpt lat="48.01629" lon="6.77136">
        <ele>554</ele>
        <time>2022-07-29T07:53:03Z</time>
      </trkpt>
      <trkpt lat="48.01634" lon="6.7714">
        <ele>553.8</ele>
        <time>2022-07-29T07:53:04Z</time>
      </trkpt>
      <trkpt lat="48.01639" lon="6.77145">
        <ele>553.8</ele>
        <time>2022-07-29T07:53:05Z</time>
      </trkpt>
      <trkpt lat="48.01643" lon="6.77149">
        <ele>553.4</ele>
        <time>2022-07-29T07:53:06Z</time>
      </trkpt>
      <trkpt lat="48.01648" lon="6.77154">
        <ele>553.2</ele>
        <time>2022-07-29T07:53:07Z</time>
      </trkpt>
      <trkpt lat="48.01654" lon="6.77168">
        <ele>552.8</ele>
        <time>2022-07-29T07:53:09Z</time>
      </trkpt>
      <trkpt lat="48.01656" lon="6.77175">
        <ele>552.8</ele>
        <time>2022-07-29T07:53:10Z</time>
      </trkpt>
      <trkpt lat="48.01658" lon="6.77183">
        <ele>552.6</ele>
        <time>2022-07-29T07:53:11Z</time>
      </trkpt>
      <trkpt lat="48.01661" lon="6.772">
        <ele>552.2</ele>
        <time>2022-07-29T07:53:13Z</time>
      </trkpt>
      <trkpt lat="48.01661" lon="6.77208">
        <ele>552</ele>
        <time>2022-07-29T07:53:14Z</time>
      </trkpt>
      <trkpt lat="48.0166" lon="6.77232">
        <ele>551</ele>
        <time>2022-07-29T07:53:17Z</time>
      </trkpt>
      <trkpt lat="48.0166" lon="6.77239">
        <ele>550.8</ele>
        <time>2022-07-29T07:53:18Z</time>
      </trkpt>
      <trkpt lat="48.01659" lon="6.77244">
        <ele>550.6</ele>
        <time>2022-07-29T07:53:19Z</time>
      </trkpt>
      <trkpt lat="48.01657" lon="6.77252">
        <ele>550.4</ele>
        <time>2022-07-29T07:53:20Z</time>
      </trkpt>
      <trkpt lat="48.01655" lon="6.77258">
        <ele>550.2</ele>
        <time>2022-07-29T07:53:21Z</time>
      </trkpt>
      <trkpt lat="48.01654" lon="6.77264">
        <ele>550</ele>
        <time>2022-07-29T07:53:22Z</time>
      </trkpt>
      <trkpt lat="48.01654" lon="6.77271">
        <ele>549.8</ele>
        <time>2022-07-29T07:53:23Z</time>
      </trkpt>
      <trkpt lat="48.01655" lon="6.77277">
        <ele>549.8</ele>
        <time>2022-07-29T07:53:24Z</time>
      </trkpt>
      <trkpt lat="48.01657" lon="6.77281">
        <ele>549.8</ele>
        <time>2022-07-29T07:53:25Z</time>
      </trkpt>
      <trkpt lat="48.0166" lon="6.77285">
        <ele>549.8</ele>
        <time>2022-07-29T07:53:26Z</time>
      </trkpt>
      <trkpt lat="48.01663" lon="6.77288">
        <ele>549.8</ele>
        <time>2022-07-29T07:53:27Z</time>
      </trkpt>
      <trkpt lat="48.01665" lon="6.7729">
        <ele>549.8</ele>
        <time>2022-07-29T07:53:28Z</time>
      </trkpt>
      <trkpt lat="48.01668" lon="6.77291">
        <ele>549.8</ele>
        <time>2022-07-29T07:53:29Z</time>
      </trkpt>
      <trkpt lat="48.01671" lon="6.77293">
        <ele>550</ele>
        <time>2022-07-29T07:53:30Z</time>
      </trkpt>
      <trkpt lat="48.01677" lon="6.77297">
        <ele>550.4</ele>
        <time>2022-07-29T07:53:32Z</time>
      </trkpt>
      <trkpt lat="48.0168" lon="6.773">
        <ele>550.6</ele>
        <time>2022-07-29T07:53:33Z</time>
      </trkpt>
      <trkpt lat="48.01683" lon="6.77303">
        <ele>550.6</ele>
        <time>2022-07-29T07:53:34Z</time>
      </trkpt>
      <trkpt lat="48.01685" lon="6.77306">
        <ele>551</ele>
        <time>2022-07-29T07:53:35Z</time>
      </trkpt>
      <trkpt lat="48.01687" lon="6.77309">
        <ele>551</ele>
        <time>2022-07-29T07:53:36Z</time>
      </trkpt>
      <trkpt lat="48.01689" lon="6.77313">
        <ele>551.2</ele>
        <time>2022-07-29T07:53:37Z</time>
      </trkpt>
      <trkpt lat="48.01691" lon="6.77316">
        <ele>551.4</ele>
        <time>2022-07-29T07:53:38Z</time>
      </trkpt>
      <trkpt lat="48.01694" lon="6.7732">
        <ele>551.6</ele>
        <time>2022-07-29T07:53:39Z</time>
      </trkpt>
      <trkpt lat="48.01698" lon="6.77333">
        <ele>551.8</ele>
        <time>2022-07-29T07:53:42Z</time>
      </trkpt>
      <trkpt lat="48.01704" lon="6.77347">
        <ele>551.8</ele>
        <time>2022-07-29T07:53:45Z</time>
      </trkpt>
      <trkpt lat="48.01706" lon="6.77351">
        <ele>552</ele>
        <time>2022-07-29T07:53:46Z</time>
      </trkpt>
      <trkpt lat="48.01708" lon="6.77354">
        <ele>552</ele>
        <time>2022-07-29T07:53:47Z</time>
      </trkpt>
      <trkpt lat="48.01709" lon="6.77358">
        <ele>552</ele>
        <time>2022-07-29T07:53:48Z</time>
      </trkpt>
      <trkpt lat="48.01711" lon="6.77361">
        <ele>551.8</ele>
        <time>2022-07-29T07:53:49Z</time>
      </trkpt>
      <trkpt lat="48.01712" lon="6.77363">
        <ele>551.8</ele>
        <time>2022-07-29T07:53:50Z</time>
      </trkpt>
      <trkpt lat="48.01714" lon="6.77365">
        <ele>551.8</ele>
        <time>2022-07-29T07:53:51Z</time>
      </trkpt>
      <trkpt lat="48.01715" lon="6.77367">
        <ele>552.2</ele>
        <time>2022-07-29T07:53:52Z</time>
      </trkpt>
      <trkpt lat="48.01717" lon="6.77368">
        <ele>552.4</ele>
        <time>2022-07-29T07:53:53Z</time>
      </trkpt>
      <trkpt lat="48.01718" lon="6.7737">
        <ele>552.8</ele>
        <time>2022-07-29T07:53:54Z</time>
      </trkpt>
      <trkpt lat="48.0172" lon="6.77373">
        <ele>553</ele>
        <time>2022-07-29T07:53:55Z</time>
      </trkpt>
      <trkpt lat="48.01721" lon="6.77376">
        <ele>553.2</ele>
        <time>2022-07-29T07:53:56Z</time>
      </trkpt>
      <trkpt lat="48.01728" lon="6.77386">
        <ele>553.6</ele>
        <time>2022-07-29T07:53:59Z</time>
      </trkpt>
      <trkpt lat="48.0174" lon="6.77404">
        <ele>553.4</ele>
        <time>2022-07-29T07:54:04Z</time>
      </trkpt>
      <trkpt lat="48.01747" lon="6.77418">
        <ele>553.4</ele>
        <time>2022-07-29T07:54:07Z</time>
      </trkpt>
      <trkpt lat="48.01756" lon="6.77444">
        <ele>553.2</ele>
        <time>2022-07-29T07:54:12Z</time>
      </trkpt>
      <trkpt lat="48.01764" lon="6.77468">
        <ele>552.6</ele>
        <time>2022-07-29T07:54:16Z</time>
      </trkpt>
      <trkpt lat="48.01766" lon="6.77474">
        <ele>552.4</ele>
        <time>2022-07-29T07:54:17Z</time>
      </trkpt>
      <trkpt lat="48.0177" lon="6.77484">
        <ele>551.8</ele>
        <time>2022-07-29T07:54:19Z</time>
      </trkpt>
      <trkpt lat="48.01772" lon="6.7749">
        <ele>551.8</ele>
        <time>2022-07-29T07:54:20Z</time>
      </trkpt>
      <trkpt lat="48.01773" lon="6.77495">
        <ele>551.6</ele>
        <time>2022-07-29T07:54:21Z</time>
      </trkpt>
      <trkpt lat="48.01775" lon="6.77499">
        <ele>551.6</ele>
        <time>2022-07-29T07:54:22Z</time>
      </trkpt>
      <trkpt lat="48.01777" lon="6.77504">
        <ele>551.6</ele>
        <time>2022-07-29T07:54:23Z</time>
      </trkpt>
      <trkpt lat="48.0178" lon="6.77514">
        <ele>551.2</ele>
        <time>2022-07-29T07:54:25Z</time>
      </trkpt>
      <trkpt lat="48.01792" lon="6.77553">
        <ele>551</ele>
        <time>2022-07-29T07:54:32Z</time>
      </trkpt>
      <trkpt lat="48.018" lon="6.77575">
        <ele>550.8</ele>
        <time>2022-07-29T07:54:36Z</time>
      </trkpt>
      <trkpt lat="48.01809" lon="6.77594">
        <ele>550.6</ele>
        <time>2022-07-29T07:54:40Z</time>
      </trkpt>
      <trkpt lat="48.01811" lon="6.77598">
        <ele>550.6</ele>
        <time>2022-07-29T07:54:41Z</time>
      </trkpt>
      <trkpt lat="48.01813" lon="6.77602">
        <ele>550.6</ele>
        <time>2022-07-29T07:54:42Z</time>
      </trkpt>
      <trkpt lat="48.01815" lon="6.77605">
        <ele>551</ele>
        <time>2022-07-29T07:54:43Z</time>
      </trkpt>
      <trkpt lat="48.01816" lon="6.77609">
        <ele>550.8</ele>
        <time>2022-07-29T07:54:44Z</time>
      </trkpt>
      <trkpt lat="48.01817" lon="6.77613">
        <ele>551.2</ele>
        <time>2022-07-29T07:54:45Z</time>
      </trkpt>
      <trkpt lat="48.01825" lon="6.7764">
        <ele>551.4</ele>
        <time>2022-07-29T07:54:51Z</time>
      </trkpt>
      <trkpt lat="48.01827" lon="6.77643">
        <ele>551.4</ele>
        <time>2022-07-29T07:54:52Z</time>
      </trkpt>
      <trkpt lat="48.0183" lon="6.77645">
        <ele>551.6</ele>
        <time>2022-07-29T07:54:53Z</time>
      </trkpt>
      <trkpt lat="48.01832" lon="6.77648">
        <ele>551.6</ele>
        <time>2022-07-29T07:54:54Z</time>
      </trkpt>
      <trkpt lat="48.01834" lon="6.77651">
        <ele>551.6</ele>
        <time>2022-07-29T07:54:55Z</time>
      </trkpt>
      <trkpt lat="48.01837" lon="6.77655">
        <ele>551.6</ele>
        <time>2022-07-29T07:54:56Z</time>
      </trkpt>
      <trkpt lat="48.01842" lon="6.77664">
        <ele>551.6</ele>
        <time>2022-07-29T07:54:58Z</time>
      </trkpt>
      <trkpt lat="48.01851" lon="6.77689">
        <ele>552</ele>
        <time>2022-07-29T07:55:03Z</time>
      </trkpt>
      <trkpt lat="48.01852" lon="6.77693">
        <ele>552.2</ele>
        <time>2022-07-29T07:55:04Z</time>
      </trkpt>
      <trkpt lat="48.01855" lon="6.77708">
        <ele>552.8</ele>
        <time>2022-07-29T07:55:08Z</time>
      </trkpt>
      <trkpt lat="48.01856" lon="6.77711">
        <ele>553</ele>
        <time>2022-07-29T07:55:09Z</time>
      </trkpt>
      <trkpt lat="48.01857" lon="6.77714">
        <ele>553</ele>
        <time>2022-07-29T07:55:10Z</time>
      </trkpt>
      <trkpt lat="48.01858" lon="6.77718">
        <ele>553.2</ele>
        <time>2022-07-29T07:55:11Z</time>
      </trkpt>
      <trkpt lat="48.01858" lon="6.77721">
        <ele>553.4</ele>
        <time>2022-07-29T07:55:12Z</time>
      </trkpt>
      <trkpt lat="48.01858" lon="6.77725">
        <ele>553.6</ele>
        <time>2022-07-29T07:55:13Z</time>
      </trkpt>
      <trkpt lat="48.01859" lon="6.77729">
        <ele>553.8</ele>
        <time>2022-07-29T07:55:14Z</time>
      </trkpt>
      <trkpt lat="48.01859" lon="6.77732">
        <ele>554.2</ele>
        <time>2022-07-29T07:55:15Z</time>
      </trkpt>
      <trkpt lat="48.01859" lon="6.77736">
        <ele>554.4</ele>
        <time>2022-07-29T07:55:16Z</time>
      </trkpt>
      <trkpt lat="48.01859" lon="6.77739">
        <ele>554.6</ele>
        <time>2022-07-29T07:55:17Z</time>
      </trkpt>
      <trkpt lat="48.01859" lon="6.77742">
        <ele>554.8</ele>
        <time>2022-07-29T07:55:18Z</time>
      </trkpt>
      <trkpt lat="48.01859" lon="6.77745">
        <ele>555.2</ele>
        <time>2022-07-29T07:55:19Z</time>
      </trkpt>
      <trkpt lat="48.01859" lon="6.77748">
        <ele>555.4</ele>
        <time>2022-07-29T07:55:20Z</time>
      </trkpt>
      <trkpt lat="48.01859" lon="6.77751">
        <ele>555.6</ele>
        <time>2022-07-29T07:55:21Z</time>
      </trkpt>
      <trkpt lat="48.01858" lon="6.77754">
        <ele>555.8</ele>
        <time>2022-07-29T07:55:22Z</time>
      </trkpt>
      <trkpt lat="48.01858" lon="6.77757">
        <ele>555.8</ele>
        <time>2022-07-29T07:55:23Z</time>
      </trkpt>
      <trkpt lat="48.01857" lon="6.7776">
        <ele>556.2</ele>
        <time>2022-07-29T07:55:24Z</time>
      </trkpt>
      <trkpt lat="48.01857" lon="6.77763">
        <ele>556.2</ele>
        <time>2022-07-29T07:55:25Z</time>
      </trkpt>
      <trkpt lat="48.01856" lon="6.77766">
        <ele>556.6</ele>
        <time>2022-07-29T07:55:26Z</time>
      </trkpt>
      <trkpt lat="48.01856" lon="6.77769">
        <ele>556.8</ele>
        <time>2022-07-29T07:55:27Z</time>
      </trkpt>
      <trkpt lat="48.01855" lon="6.77772">
        <ele>556.8</ele>
        <time>2022-07-29T07:55:28Z</time>
      </trkpt>
      <trkpt lat="48.01854" lon="6.77774">
        <ele>557</ele>
        <time>2022-07-29T07:55:29Z</time>
      </trkpt>
      <trkpt lat="48.01854" lon="6.77777">
        <ele>557.2</ele>
        <time>2022-07-29T07:55:30Z</time>
      </trkpt>
      <trkpt lat="48.01853" lon="6.7778">
        <ele>557.6</ele>
        <time>2022-07-29T07:55:31Z</time>
      </trkpt>
      <trkpt lat="48.01853" lon="6.77782">
        <ele>557.8</ele>
        <time>2022-07-29T07:55:32Z</time>
      </trkpt>
      <trkpt lat="48.01852" lon="6.77784">
        <ele>558.2</ele>
        <time>2022-07-29T07:55:33Z</time>
      </trkpt>
      <trkpt lat="48.01851" lon="6.77787">
        <ele>558.4</ele>
        <time>2022-07-29T07:55:34Z</time>
      </trkpt>
      <trkpt lat="48.01852" lon="6.77789">
        <ele>558.6</ele>
        <time>2022-07-29T07:55:35Z</time>
      </trkpt>
      <trkpt lat="48.01852" lon="6.77792">
        <ele>558.8</ele>
        <time>2022-07-29T07:55:36Z</time>
      </trkpt>
      <trkpt lat="48.01852" lon="6.77796">
        <ele>559.2</ele>
        <time>2022-07-29T07:55:37Z</time>
      </trkpt>
      <trkpt lat="48.01852" lon="6.77798">
        <ele>559.4</ele>
        <time>2022-07-29T07:55:38Z</time>
      </trkpt>
      <trkpt lat="48.01853" lon="6.778">
        <ele>559.4</ele>
        <time>2022-07-29T07:55:39Z</time>
      </trkpt>
      <trkpt lat="48.01854" lon="6.77803">
        <ele>559.6</ele>
        <time>2022-07-29T07:55:40Z</time>
      </trkpt>
      <trkpt lat="48.01855" lon="6.77805">
        <ele>559.6</ele>
        <time>2022-07-29T07:55:41Z</time>
      </trkpt>
      <trkpt lat="48.01858" lon="6.77807">
        <ele>559.6</ele>
        <time>2022-07-29T07:55:42Z</time>
      </trkpt>
      <trkpt lat="48.0186" lon="6.7781">
        <ele>559.6</ele>
        <time>2022-07-29T07:55:43Z</time>
      </trkpt>
      <trkpt lat="48.01863" lon="6.77813">
        <ele>559.6</ele>
        <time>2022-07-29T07:55:44Z</time>
      </trkpt>
      <trkpt lat="48.01865" lon="6.77816">
        <ele>559.6</ele>
        <time>2022-07-29T07:55:45Z</time>
      </trkpt>
      <trkpt lat="48.01868" lon="6.7782">
        <ele>559.6</ele>
        <time>2022-07-29T07:55:46Z</time>
      </trkpt>
      <trkpt lat="48.0187" lon="6.77824">
        <ele>559.6</ele>
        <time>2022-07-29T07:55:47Z</time>
      </trkpt>
      <trkpt lat="48.01872" lon="6.77829">
        <ele>559.6</ele>
        <time>2022-07-29T07:55:48Z</time>
      </trkpt>
      <trkpt lat="48.01875" lon="6.77833">
        <ele>559.6</ele>
        <time>2022-07-29T07:55:49Z</time>
      </trkpt>
      <trkpt lat="48.01878" lon="6.77836">
        <ele>559.6</ele>
        <time>2022-07-29T07:55:50Z</time>
      </trkpt>
      <trkpt lat="48.01881" lon="6.7784">
        <ele>559.4</ele>
        <time>2022-07-29T07:55:51Z</time>
      </trkpt>
      <trkpt lat="48.01884" lon="6.77843">
        <ele>559.2</ele>
        <time>2022-07-29T07:55:52Z</time>
      </trkpt>
      <trkpt lat="48.01886" lon="6.77847">
        <ele>558.8</ele>
        <time>2022-07-29T07:55:53Z</time>
      </trkpt>
      <trkpt lat="48.01888" lon="6.77849">
        <ele>558.8</ele>
        <time>2022-07-29T07:55:54Z</time>
      </trkpt>
      <trkpt lat="48.0189" lon="6.77854">
        <ele>558.6</ele>
        <time>2022-07-29T07:55:55Z</time>
      </trkpt>
      <trkpt lat="48.01891" lon="6.77858">
        <ele>558.6</ele>
        <time>2022-07-29T07:55:56Z</time>
      </trkpt>
      <trkpt lat="48.01893" lon="6.77863">
        <ele>558.6</ele>
        <time>2022-07-29T07:55:57Z</time>
      </trkpt>
      <trkpt lat="48.01896" lon="6.77871">
        <ele>558.6</ele>
        <time>2022-07-29T07:55:59Z</time>
      </trkpt>
      <trkpt lat="48.01899" lon="6.77878">
        <ele>558.8</ele>
        <time>2022-07-29T07:56:01Z</time>
      </trkpt>
      <trkpt lat="48.019" lon="6.77882">
        <ele>559</ele>
        <time>2022-07-29T07:56:02Z</time>
      </trkpt>
      <trkpt lat="48.019" lon="6.77891">
        <ele>559</ele>
        <time>2022-07-29T07:56:04Z</time>
      </trkpt>
      <trkpt lat="48.01899" lon="6.77896">
        <ele>559.2</ele>
        <time>2022-07-29T07:56:05Z</time>
      </trkpt>
      <trkpt lat="48.01898" lon="6.77901">
        <ele>559.2</ele>
        <time>2022-07-29T07:56:06Z</time>
      </trkpt>
      <trkpt lat="48.01896" lon="6.77906">
        <ele>559.2</ele>
        <time>2022-07-29T07:56:07Z</time>
      </trkpt>
      <trkpt lat="48.01896" lon="6.77923">
        <ele>559</ele>
        <time>2022-07-29T07:56:11Z</time>
      </trkpt>
      <trkpt lat="48.01897" lon="6.77928">
        <ele>559</ele>
        <time>2022-07-29T07:56:12Z</time>
      </trkpt>
      <trkpt lat="48.01897" lon="6.77933">
        <ele>559</ele>
        <time>2022-07-29T07:56:13Z</time>
      </trkpt>
      <trkpt lat="48.01905" lon="6.77954">
        <ele>559.2</ele>
        <time>2022-07-29T07:56:18Z</time>
      </trkpt>
      <trkpt lat="48.01905" lon="6.77958">
        <ele>559.2</ele>
        <time>2022-07-29T07:56:19Z</time>
      </trkpt>
      <trkpt lat="48.01906" lon="6.77971">
        <ele>559.4</ele>
        <time>2022-07-29T07:56:22Z</time>
      </trkpt>
      <trkpt lat="48.01905" lon="6.77981">
        <ele>559.6</ele>
        <time>2022-07-29T07:56:24Z</time>
      </trkpt>
      <trkpt lat="48.019" lon="6.78005">
        <ele>559.6</ele>
        <time>2022-07-29T07:56:29Z</time>
      </trkpt>
      <trkpt lat="48.019" lon="6.78011">
        <ele>559.6</ele>
        <time>2022-07-29T07:56:30Z</time>
      </trkpt>
      <trkpt lat="48.01901" lon="6.78017">
        <ele>559.4</ele>
        <time>2022-07-29T07:56:31Z</time>
      </trkpt>
      <trkpt lat="48.01906" lon="6.78037">
        <ele>558</ele>
        <time>2022-07-29T07:56:34Z</time>
      </trkpt>
      <trkpt lat="48.0191" lon="6.78043">
        <ele>557.8</ele>
        <time>2022-07-29T07:56:35Z</time>
      </trkpt>
      <trkpt lat="48.01914" lon="6.78048">
        <ele>557.2</ele>
        <time>2022-07-29T07:56:36Z</time>
      </trkpt>
      <trkpt lat="48.01918" lon="6.78052">
        <ele>557</ele>
        <time>2022-07-29T07:56:37Z</time>
      </trkpt>
      <trkpt lat="48.01921" lon="6.78055">
        <ele>556.6</ele>
        <time>2022-07-29T07:56:38Z</time>
      </trkpt>
      <trkpt lat="48.01924" lon="6.78058">
        <ele>556.6</ele>
        <time>2022-07-29T07:56:39Z</time>
      </trkpt>
      <trkpt lat="48.01927" lon="6.78061">
        <ele>556.4</ele>
        <time>2022-07-29T07:56:40Z</time>
      </trkpt>
      <trkpt lat="48.01929" lon="6.78064">
        <ele>556.4</ele>
        <time>2022-07-29T07:56:41Z</time>
      </trkpt>
      <trkpt lat="48.01931" lon="6.78066">
        <ele>556.4</ele>
        <time>2022-07-29T07:56:42Z</time>
      </trkpt>
      <trkpt lat="48.01933" lon="6.78069">
        <ele>556.4</ele>
        <time>2022-07-29T07:56:43Z</time>
      </trkpt>
      <trkpt lat="48.01935" lon="6.78072">
        <ele>556.4</ele>
        <time>2022-07-29T07:56:44Z</time>
      </trkpt>
      <trkpt lat="48.01938" lon="6.78079">
        <ele>556.6</ele>
        <time>2022-07-29T07:56:46Z</time>
      </trkpt>
      <trkpt lat="48.01941" lon="6.78092">
        <ele>557.4</ele>
        <time>2022-07-29T07:56:49Z</time>
      </trkpt>
      <trkpt lat="48.01951" lon="6.7812">
        <ele>557.6</ele>
        <time>2022-07-29T07:56:54Z</time>
      </trkpt>
      <trkpt lat="48.01961" lon="6.78148">
        <ele>556.8</ele>
        <time>2022-07-29T07:56:58Z</time>
      </trkpt>
      <trkpt lat="48.01963" lon="6.78155">
        <ele>556.6</ele>
        <time>2022-07-29T07:56:59Z</time>
      </trkpt>
      <trkpt lat="48.01964" lon="6.78162">
        <ele>556.6</ele>
        <time>2022-07-29T07:57:00Z</time>
      </trkpt>
      <trkpt lat="48.01972" lon="6.78195">
        <ele>556.2</ele>
        <time>2022-07-29T07:57:05Z</time>
      </trkpt>
      <trkpt lat="48.01973" lon="6.78201">
        <ele>556.2</ele>
        <time>2022-07-29T07:57:06Z</time>
      </trkpt>
      <trkpt lat="48.01974" lon="6.78207">
        <ele>556</ele>
        <time>2022-07-29T07:57:07Z</time>
      </trkpt>
      <trkpt lat="48.01975" lon="6.78212">
        <ele>555.8</ele>
        <time>2022-07-29T07:57:08Z</time>
      </trkpt>
      <trkpt lat="48.01977" lon="6.78218">
        <ele>555.8</ele>
        <time>2022-07-29T07:57:09Z</time>
      </trkpt>
      <trkpt lat="48.01979" lon="6.78224">
        <ele>555.6</ele>
        <time>2022-07-29T07:57:10Z</time>
      </trkpt>
      <trkpt lat="48.01987" lon="6.7825">
        <ele>555.2</ele>
        <time>2022-07-29T07:57:14Z</time>
      </trkpt>
      <trkpt lat="48.0199" lon="6.78259">
        <ele>554.8</ele>
        <time>2022-07-29T07:57:16Z</time>
      </trkpt>
      <trkpt lat="48.01991" lon="6.7826">
        <ele>554.6</ele>
        <time>2022-07-29T07:57:17Z</time>
      </trkpt>
      <trkpt lat="48.01991" lon="6.7826">
        <ele>554.6</ele>
        <time>2022-07-29T07:57:18Z</time>
      </trkpt>
      <trkpt lat="48.01991" lon="6.7826">
        <ele>553.4</ele>
        <time>2022-07-29T07:57:24Z</time>
      </trkpt>
      <trkpt lat="48.01991" lon="6.7826">
        <ele>553.8</ele>
        <time>2022-07-29T07:57:49Z</time>
      </trkpt>
      <trkpt lat="48.01991" lon="6.7826">
        <ele>553.8</ele>
        <time>2022-07-29T07:58:27Z</time>
      </trkpt>
      <trkpt lat="48.01993" lon="6.78267">
        <ele>553.6</ele>
        <time>2022-07-29T07:58:54Z</time>
      </trkpt>
      <trkpt lat="48.01993" lon="6.7827">
        <ele>553.6</ele>
        <time>2022-07-29T07:58:55Z</time>
      </trkpt>
      <trkpt lat="48.01997" lon="6.78285">
        <ele>553.6</ele>
        <time>2022-07-29T07:58:59Z</time>
      </trkpt>
      <trkpt lat="48.01998" lon="6.78293">
        <ele>553.6</ele>
        <time>2022-07-29T07:59:01Z</time>
      </trkpt>
      <trkpt lat="48.01998" lon="6.78297">
        <ele>553.6</ele>
        <time>2022-07-29T07:59:02Z</time>
      </trkpt>
      <trkpt lat="48.01997" lon="6.783">
        <ele>553.6</ele>
        <time>2022-07-29T07:59:03Z</time>
      </trkpt>
      <trkpt lat="48.01997" lon="6.78303">
        <ele>553.6</ele>
        <time>2022-07-29T07:59:04Z</time>
      </trkpt>
      <trkpt lat="48.01996" lon="6.78306">
        <ele>553.6</ele>
        <time>2022-07-29T07:59:05Z</time>
      </trkpt>
      <trkpt lat="48.01994" lon="6.78316">
        <ele>553.8</ele>
        <time>2022-07-29T07:59:08Z</time>
      </trkpt>
      <trkpt lat="48.01994" lon="6.78318">
        <ele>554.2</ele>
        <time>2022-07-29T07:59:09Z</time>
      </trkpt>
      <trkpt lat="48.01993" lon="6.78321">
        <ele>554.6</ele>
        <time>2022-07-29T07:59:10Z</time>
      </trkpt>
      <trkpt lat="48.01992" lon="6.78324">
        <ele>554.8</ele>
        <time>2022-07-29T07:59:11Z</time>
      </trkpt>
      <trkpt lat="48.01992" lon="6.78327">
        <ele>555</ele>
        <time>2022-07-29T07:59:12Z</time>
      </trkpt>
      <trkpt lat="48.01991" lon="6.78329">
        <ele>555.2</ele>
        <time>2022-07-29T07:59:13Z</time>
      </trkpt>
      <trkpt lat="48.0199" lon="6.78332">
        <ele>555.4</ele>
        <time>2022-07-29T07:59:14Z</time>
      </trkpt>
      <trkpt lat="48.0199" lon="6.78335">
        <ele>555.4</ele>
        <time>2022-07-29T07:59:15Z</time>
      </trkpt>
      <trkpt lat="48.01989" lon="6.78337">
        <ele>555.8</ele>
        <time>2022-07-29T07:59:16Z</time>
      </trkpt>
      <trkpt lat="48.01988" lon="6.7834">
        <ele>556</ele>
        <time>2022-07-29T07:59:17Z</time>
      </trkpt>
      <trkpt lat="48.01988" lon="6.78343">
        <ele>556.2</ele>
        <time>2022-07-29T07:59:18Z</time>
      </trkpt>
      <trkpt lat="48.01987" lon="6.78345">
        <ele>556.4</ele>
        <time>2022-07-29T07:59:19Z</time>
      </trkpt>
      <trkpt lat="48.01986" lon="6.78347">
        <ele>556.4</ele>
        <time>2022-07-29T07:59:20Z</time>
      </trkpt>
      <trkpt lat="48.01985" lon="6.7835">
        <ele>556.6</ele>
        <time>2022-07-29T07:59:21Z</time>
      </trkpt>
      <trkpt lat="48.01984" lon="6.78352">
        <ele>556.8</ele>
        <time>2022-07-29T07:59:22Z</time>
      </trkpt>
      <trkpt lat="48.01984" lon="6.78355">
        <ele>556.8</ele>
        <time>2022-07-29T07:59:23Z</time>
      </trkpt>
      <trkpt lat="48.01983" lon="6.78357">
        <ele>556.8</ele>
        <time>2022-07-29T07:59:24Z</time>
      </trkpt>
      <trkpt lat="48.01982" lon="6.7836">
        <ele>557.2</ele>
        <time>2022-07-29T07:59:25Z</time>
      </trkpt>
      <trkpt lat="48.01982" lon="6.78362">
        <ele>557.2</ele>
        <time>2022-07-29T07:59:26Z</time>
      </trkpt>
      <trkpt lat="48.01981" lon="6.78364">
        <ele>557.6</ele>
        <time>2022-07-29T07:59:27Z</time>
      </trkpt>
      <trkpt lat="48.0198" lon="6.78366">
        <ele>558</ele>
        <time>2022-07-29T07:59:28Z</time>
      </trkpt>
      <trkpt lat="48.01979" lon="6.78369">
        <ele>558.2</ele>
        <time>2022-07-29T07:59:29Z</time>
      </trkpt>
      <trkpt lat="48.01978" lon="6.78371">
        <ele>558.4</ele>
        <time>2022-07-29T07:59:30Z</time>
      </trkpt>
      <trkpt lat="48.01978" lon="6.78373">
        <ele>558.6</ele>
        <time>2022-07-29T07:59:31Z</time>
      </trkpt>
      <trkpt lat="48.01977" lon="6.78376">
        <ele>558.8</ele>
        <time>2022-07-29T07:59:32Z</time>
      </trkpt>
      <trkpt lat="48.01977" lon="6.78378">
        <ele>558.8</ele>
        <time>2022-07-29T07:59:33Z</time>
      </trkpt>
      <trkpt lat="48.01976" lon="6.78381">
        <ele>559.2</ele>
        <time>2022-07-29T07:59:34Z</time>
      </trkpt>
      <trkpt lat="48.01975" lon="6.78383">
        <ele>559.2</ele>
        <time>2022-07-29T07:59:35Z</time>
      </trkpt>
      <trkpt lat="48.01975" lon="6.78386">
        <ele>559.6</ele>
        <time>2022-07-29T07:59:36Z</time>
      </trkpt>
      <trkpt lat="48.01974" lon="6.78388">
        <ele>559.8</ele>
        <time>2022-07-29T07:59:37Z</time>
      </trkpt>
      <trkpt lat="48.01974" lon="6.78391">
        <ele>560</ele>
        <time>2022-07-29T07:59:38Z</time>
      </trkpt>
      <trkpt lat="48.01974" lon="6.78393">
        <ele>560.2</ele>
        <time>2022-07-29T07:59:39Z</time>
      </trkpt>
      <trkpt lat="48.01974" lon="6.78396">
        <ele>560.2</ele>
        <time>2022-07-29T07:59:40Z</time>
      </trkpt>
      <trkpt lat="48.01974" lon="6.78399">
        <ele>560.4</ele>
        <time>2022-07-29T07:59:41Z</time>
      </trkpt>
      <trkpt lat="48.01974" lon="6.78401">
        <ele>560.6</ele>
        <time>2022-07-29T07:59:42Z</time>
      </trkpt>
      <trkpt lat="48.01974" lon="6.78404">
        <ele>560.8</ele>
        <time>2022-07-29T07:59:43Z</time>
      </trkpt>
      <trkpt lat="48.01974" lon="6.78406">
        <ele>561</ele>
        <time>2022-07-29T07:59:44Z</time>
      </trkpt>
      <trkpt lat="48.01974" lon="6.78409">
        <ele>561.2</ele>
        <time>2022-07-29T07:59:45Z</time>
      </trkpt>
      <trkpt lat="48.01973" lon="6.78411">
        <ele>561.4</ele>
        <time>2022-07-29T07:59:46Z</time>
      </trkpt>
      <trkpt lat="48.01973" lon="6.78414">
        <ele>561.6</ele>
        <time>2022-07-29T07:59:47Z</time>
      </trkpt>
      <trkpt lat="48.01973" lon="6.78416">
        <ele>561.8</ele>
        <time>2022-07-29T07:59:48Z</time>
      </trkpt>
      <trkpt lat="48.01973" lon="6.78419">
        <ele>562</ele>
        <time>2022-07-29T07:59:49Z</time>
      </trkpt>
      <trkpt lat="48.01973" lon="6.78422">
        <ele>562</ele>
        <time>2022-07-29T07:59:50Z</time>
      </trkpt>
      <trkpt lat="48.01973" lon="6.78424">
        <ele>562.2</ele>
        <time>2022-07-29T07:59:51Z</time>
      </trkpt>
      <trkpt lat="48.01973" lon="6.78427">
        <ele>562.2</ele>
        <time>2022-07-29T07:59:52Z</time>
      </trkpt>
      <trkpt lat="48.01973" lon="6.78429">
        <ele>562.2</ele>
        <time>2022-07-29T07:59:53Z</time>
      </trkpt>
      <trkpt lat="48.01973" lon="6.78432">
        <ele>562.6</ele>
        <time>2022-07-29T07:59:54Z</time>
      </trkpt>
      <trkpt lat="48.01973" lon="6.78435">
        <ele>562.8</ele>
        <time>2022-07-29T07:59:55Z</time>
      </trkpt>
      <trkpt lat="48.01973" lon="6.78438">
        <ele>563</ele>
        <time>2022-07-29T07:59:56Z</time>
      </trkpt>
      <trkpt lat="48.01973" lon="6.78441">
        <ele>563.2</ele>
        <time>2022-07-29T07:59:57Z</time>
      </trkpt>
      <trkpt lat="48.01973" lon="6.78443">
        <ele>563.2</ele>
        <time>2022-07-29T07:59:58Z</time>
      </trkpt>
      <trkpt lat="48.01973" lon="6.78446">
        <ele>563.4</ele>
        <time>2022-07-29T07:59:59Z</time>
      </trkpt>
      <trkpt lat="48.01973" lon="6.78449">
        <ele>563.4</ele>
        <time>2022-07-29T08:00:00Z</time>
      </trkpt>
      <trkpt lat="48.01973" lon="6.78451">
        <ele>563.8</ele>
        <time>2022-07-29T08:00:01Z</time>
      </trkpt>
      <trkpt lat="48.01973" lon="6.78454">
        <ele>563.8</ele>
        <time>2022-07-29T08:00:02Z</time>
      </trkpt>
      <trkpt lat="48.01973" lon="6.78457">
        <ele>564</ele>
        <time>2022-07-29T08:00:03Z</time>
      </trkpt>
      <trkpt lat="48.01972" lon="6.78459">
        <ele>564.2</ele>
        <time>2022-07-29T08:00:04Z</time>
      </trkpt>
      <trkpt lat="48.01972" lon="6.78462">
        <ele>564.2</ele>
        <time>2022-07-29T08:00:05Z</time>
      </trkpt>
      <trkpt lat="48.01972" lon="6.78464">
        <ele>564.4</ele>
        <time>2022-07-29T08:00:06Z</time>
      </trkpt>
      <trkpt lat="48.01972" lon="6.78467">
        <ele>564.4</ele>
        <time>2022-07-29T08:00:07Z</time>
      </trkpt>
      <trkpt lat="48.01972" lon="6.78469">
        <ele>564.6</ele>
        <time>2022-07-29T08:00:08Z</time>
      </trkpt>
      <trkpt lat="48.01972" lon="6.78472">
        <ele>564.8</ele>
        <time>2022-07-29T08:00:09Z</time>
      </trkpt>
      <trkpt lat="48.01972" lon="6.78474">
        <ele>565</ele>
        <time>2022-07-29T08:00:10Z</time>
      </trkpt>
      <trkpt lat="48.01972" lon="6.78477">
        <ele>565.2</ele>
        <time>2022-07-29T08:00:11Z</time>
      </trkpt>
      <trkpt lat="48.01972" lon="6.78479">
        <ele>565.4</ele>
        <time>2022-07-29T08:00:12Z</time>
      </trkpt>
      <trkpt lat="48.01972" lon="6.78482">
        <ele>565.6</ele>
        <time>2022-07-29T08:00:13Z</time>
      </trkpt>
      <trkpt lat="48.01972" lon="6.78485">
        <ele>565.6</ele>
        <time>2022-07-29T08:00:14Z</time>
      </trkpt>
      <trkpt lat="48.01972" lon="6.78488">
        <ele>565.8</ele>
        <time>2022-07-29T08:00:15Z</time>
      </trkpt>
      <trkpt lat="48.01972" lon="6.78491">
        <ele>566</ele>
        <time>2022-07-29T08:00:16Z</time>
      </trkpt>
      <trkpt lat="48.01972" lon="6.78493">
        <ele>566.2</ele>
        <time>2022-07-29T08:00:17Z</time>
      </trkpt>
      <trkpt lat="48.01972" lon="6.78496">
        <ele>566.2</ele>
        <time>2022-07-29T08:00:18Z</time>
      </trkpt>
      <trkpt lat="48.01972" lon="6.78498">
        <ele>566.4</ele>
        <time>2022-07-29T08:00:19Z</time>
      </trkpt>
      <trkpt lat="48.01973" lon="6.78501">
        <ele>566.4</ele>
        <time>2022-07-29T08:00:20Z</time>
      </trkpt>
      <trkpt lat="48.01973" lon="6.78503">
        <ele>566.6</ele>
        <time>2022-07-29T08:00:21Z</time>
      </trkpt>
      <trkpt lat="48.01973" lon="6.78507">
        <ele>566.8</ele>
        <time>2022-07-29T08:00:22Z</time>
      </trkpt>
      <trkpt lat="48.01973" lon="6.78509">
        <ele>566.8</ele>
        <time>2022-07-29T08:00:23Z</time>
      </trkpt>
      <trkpt lat="48.01973" lon="6.78512">
        <ele>567</ele>
        <time>2022-07-29T08:00:24Z</time>
      </trkpt>
      <trkpt lat="48.01973" lon="6.78515">
        <ele>567.2</ele>
        <time>2022-07-29T08:00:25Z</time>
      </trkpt>
      <trkpt lat="48.01974" lon="6.78518">
        <ele>567.4</ele>
        <time>2022-07-29T08:00:26Z</time>
      </trkpt>
      <trkpt lat="48.01974" lon="6.78521">
        <ele>567.4</ele>
        <time>2022-07-29T08:00:27Z</time>
      </trkpt>
      <trkpt lat="48.01975" lon="6.78523">
        <ele>567.6</ele>
        <time>2022-07-29T08:00:28Z</time>
      </trkpt>
      <trkpt lat="48.01975" lon="6.78526">
        <ele>567.6</ele>
        <time>2022-07-29T08:00:29Z</time>
      </trkpt>
      <trkpt lat="48.01975" lon="6.78529">
        <ele>568</ele>
        <time>2022-07-29T08:00:30Z</time>
      </trkpt>
      <trkpt lat="48.01975" lon="6.78532">
        <ele>568.4</ele>
        <time>2022-07-29T08:00:31Z</time>
      </trkpt>
      <trkpt lat="48.01976" lon="6.78534">
        <ele>568.4</ele>
        <time>2022-07-29T08:00:32Z</time>
      </trkpt>
      <trkpt lat="48.01976" lon="6.78537">
        <ele>568.6</ele>
        <time>2022-07-29T08:00:33Z</time>
      </trkpt>
      <trkpt lat="48.01977" lon="6.7854">
        <ele>568.8</ele>
        <time>2022-07-29T08:00:34Z</time>
      </trkpt>
      <trkpt lat="48.01978" lon="6.78542">
        <ele>569</ele>
        <time>2022-07-29T08:00:35Z</time>
      </trkpt>
      <trkpt lat="48.01978" lon="6.78545">
        <ele>569</ele>
        <time>2022-07-29T08:00:36Z</time>
      </trkpt>
      <trkpt lat="48.01978" lon="6.78548">
        <ele>569</ele>
        <time>2022-07-29T08:00:37Z</time>
      </trkpt>
      <trkpt lat="48.01979" lon="6.7855">
        <ele>569.2</ele>
        <time>2022-07-29T08:00:38Z</time>
      </trkpt>
      <trkpt lat="48.01979" lon="6.78553">
        <ele>569.4</ele>
        <time>2022-07-29T08:00:39Z</time>
      </trkpt>
      <trkpt lat="48.01979" lon="6.78556">
        <ele>569.6</ele>
        <time>2022-07-29T08:00:40Z</time>
      </trkpt>
      <trkpt lat="48.0198" lon="6.78559">
        <ele>569.8</ele>
        <time>2022-07-29T08:00:41Z</time>
      </trkpt>
      <trkpt lat="48.0198" lon="6.78562">
        <ele>569.8</ele>
        <time>2022-07-29T08:00:42Z</time>
      </trkpt>
      <trkpt lat="48.01981" lon="6.78565">
        <ele>570</ele>
        <time>2022-07-29T08:00:43Z</time>
      </trkpt>
      <trkpt lat="48.01981" lon="6.78567">
        <ele>570</ele>
        <time>2022-07-29T08:00:44Z</time>
      </trkpt>
      <trkpt lat="48.01981" lon="6.78571">
        <ele>570.2</ele>
        <time>2022-07-29T08:00:45Z</time>
      </trkpt>
      <trkpt lat="48.01982" lon="6.78574">
        <ele>570.4</ele>
        <time>2022-07-29T08:00:46Z</time>
      </trkpt>
      <trkpt lat="48.01983" lon="6.78577">
        <ele>570.4</ele>
        <time>2022-07-29T08:00:47Z</time>
      </trkpt>
      <trkpt lat="48.01983" lon="6.7858">
        <ele>570.6</ele>
        <time>2022-07-29T08:00:48Z</time>
      </trkpt>
      <trkpt lat="48.01984" lon="6.78583">
        <ele>570.8</ele>
        <time>2022-07-29T08:00:49Z</time>
      </trkpt>
      <trkpt lat="48.01984" lon="6.78586">
        <ele>570.8</ele>
        <time>2022-07-29T08:00:50Z</time>
      </trkpt>
      <trkpt lat="48.01985" lon="6.78589">
        <ele>571</ele>
        <time>2022-07-29T08:00:51Z</time>
      </trkpt>
      <trkpt lat="48.01985" lon="6.78592">
        <ele>571</ele>
        <time>2022-07-29T08:00:52Z</time>
      </trkpt>
      <trkpt lat="48.01985" lon="6.78595">
        <ele>571.2</ele>
        <time>2022-07-29T08:00:53Z</time>
      </trkpt>
      <trkpt lat="48.01986" lon="6.78599">
        <ele>571.4</ele>
        <time>2022-07-29T08:00:54Z</time>
      </trkpt>
      <trkpt lat="48.01986" lon="6.78602">
        <ele>571.6</ele>
        <time>2022-07-29T08:00:55Z</time>
      </trkpt>
      <trkpt lat="48.01986" lon="6.78605">
        <ele>571.8</ele>
        <time>2022-07-29T08:00:56Z</time>
      </trkpt>
      <trkpt lat="48.01986" lon="6.78608">
        <ele>572</ele>
        <time>2022-07-29T08:00:57Z</time>
      </trkpt>
      <trkpt lat="48.01986" lon="6.78611">
        <ele>572</ele>
        <time>2022-07-29T08:00:58Z</time>
      </trkpt>
      <trkpt lat="48.01986" lon="6.78615">
        <ele>572</ele>
        <time>2022-07-29T08:00:59Z</time>
      </trkpt>
      <trkpt lat="48.01987" lon="6.78618">
        <ele>572.2</ele>
        <time>2022-07-29T08:01:00Z</time>
      </trkpt>
      <trkpt lat="48.01987" lon="6.78621">
        <ele>572.2</ele>
        <time>2022-07-29T08:01:01Z</time>
      </trkpt>
      <trkpt lat="48.01987" lon="6.78625">
        <ele>572.4</ele>
        <time>2022-07-29T08:01:02Z</time>
      </trkpt>
      <trkpt lat="48.01988" lon="6.78628">
        <ele>572.6</ele>
        <time>2022-07-29T08:01:03Z</time>
      </trkpt>
      <trkpt lat="48.01988" lon="6.78631">
        <ele>572.6</ele>
        <time>2022-07-29T08:01:04Z</time>
      </trkpt>
      <trkpt lat="48.01989" lon="6.78634">
        <ele>572.8</ele>
        <time>2022-07-29T08:01:05Z</time>
      </trkpt>
      <trkpt lat="48.01989" lon="6.78637">
        <ele>572.8</ele>
        <time>2022-07-29T08:01:06Z</time>
      </trkpt>
      <trkpt lat="48.0199" lon="6.7864">
        <ele>573</ele>
        <time>2022-07-29T08:01:07Z</time>
      </trkpt>
      <trkpt lat="48.01991" lon="6.78643">
        <ele>573</ele>
        <time>2022-07-29T08:01:08Z</time>
      </trkpt>
      <trkpt lat="48.01991" lon="6.78646">
        <ele>573.2</ele>
        <time>2022-07-29T08:01:09Z</time>
      </trkpt>
      <trkpt lat="48.01992" lon="6.78649">
        <ele>573.4</ele>
        <time>2022-07-29T08:01:10Z</time>
      </trkpt>
      <trkpt lat="48.01993" lon="6.78652">
        <ele>573.6</ele>
        <time>2022-07-29T08:01:11Z</time>
      </trkpt>
      <trkpt lat="48.01994" lon="6.78655">
        <ele>573.8</ele>
        <time>2022-07-29T08:01:12Z</time>
      </trkpt>
      <trkpt lat="48.01994" lon="6.78658">
        <ele>574</ele>
        <time>2022-07-29T08:01:13Z</time>
      </trkpt>
      <trkpt lat="48.01995" lon="6.78661">
        <ele>574.2</ele>
        <time>2022-07-29T08:01:14Z</time>
      </trkpt>
      <trkpt lat="48.01995" lon="6.78664">
        <ele>574.2</ele>
        <time>2022-07-29T08:01:15Z</time>
      </trkpt>
      <trkpt lat="48.01996" lon="6.78666">
        <ele>574.4</ele>
        <time>2022-07-29T08:01:16Z</time>
      </trkpt>
      <trkpt lat="48.01996" lon="6.78669">
        <ele>574.4</ele>
        <time>2022-07-29T08:01:17Z</time>
      </trkpt>
      <trkpt lat="48.01997" lon="6.78672">
        <ele>575</ele>
        <time>2022-07-29T08:01:18Z</time>
      </trkpt>
      <trkpt lat="48.01998" lon="6.78675">
        <ele>575</ele>
        <time>2022-07-29T08:01:19Z</time>
      </trkpt>
      <trkpt lat="48.01998" lon="6.78679">
        <ele>575.2</ele>
        <time>2022-07-29T08:01:20Z</time>
      </trkpt>
      <trkpt lat="48.01998" lon="6.78682">
        <ele>575.2</ele>
        <time>2022-07-29T08:01:21Z</time>
      </trkpt>
      <trkpt lat="48.01999" lon="6.78685">
        <ele>575.2</ele>
        <time>2022-07-29T08:01:22Z</time>
      </trkpt>
      <trkpt lat="48.01999" lon="6.78688">
        <ele>575.6</ele>
        <time>2022-07-29T08:01:23Z</time>
      </trkpt>
      <trkpt lat="48.01999" lon="6.78692">
        <ele>575.6</ele>
        <time>2022-07-29T08:01:24Z</time>
      </trkpt>
      <trkpt lat="48.01999" lon="6.78695">
        <ele>575.8</ele>
        <time>2022-07-29T08:01:25Z</time>
      </trkpt>
      <trkpt lat="48.01999" lon="6.78698">
        <ele>576</ele>
        <time>2022-07-29T08:01:26Z</time>
      </trkpt>
      <trkpt lat="48.01999" lon="6.78701">
        <ele>576.2</ele>
        <time>2022-07-29T08:01:27Z</time>
      </trkpt>
      <trkpt lat="48.01999" lon="6.78704">
        <ele>576.2</ele>
        <time>2022-07-29T08:01:28Z</time>
      </trkpt>
      <trkpt lat="48.01998" lon="6.78708">
        <ele>576.4</ele>
        <time>2022-07-29T08:01:29Z</time>
      </trkpt>
      <trkpt lat="48.01998" lon="6.78711">
        <ele>576.4</ele>
        <time>2022-07-29T08:01:30Z</time>
      </trkpt>
      <trkpt lat="48.01997" lon="6.78714">
        <ele>576.6</ele>
        <time>2022-07-29T08:01:31Z</time>
      </trkpt>
      <trkpt lat="48.01996" lon="6.78717">
        <ele>576.8</ele>
        <time>2022-07-29T08:01:32Z</time>
      </trkpt>
      <trkpt lat="48.01995" lon="6.7872">
        <ele>577</ele>
        <time>2022-07-29T08:01:33Z</time>
      </trkpt>
      <trkpt lat="48.01995" lon="6.78723">
        <ele>577.2</ele>
        <time>2022-07-29T08:01:34Z</time>
      </trkpt>
      <trkpt lat="48.01994" lon="6.78726">
        <ele>577.4</ele>
        <time>2022-07-29T08:01:35Z</time>
      </trkpt>
      <trkpt lat="48.01993" lon="6.78729">
        <ele>577.6</ele>
        <time>2022-07-29T08:01:36Z</time>
      </trkpt>
      <trkpt lat="48.01993" lon="6.78733">
        <ele>577.6</ele>
        <time>2022-07-29T08:01:37Z</time>
      </trkpt>
      <trkpt lat="48.01992" lon="6.78736">
        <ele>577.8</ele>
        <time>2022-07-29T08:01:38Z</time>
      </trkpt>
      <trkpt lat="48.01991" lon="6.78739">
        <ele>578</ele>
        <time>2022-07-29T08:01:39Z</time>
      </trkpt>
      <trkpt lat="48.0199" lon="6.78743">
        <ele>578.2</ele>
        <time>2022-07-29T08:01:40Z</time>
      </trkpt>
      <trkpt lat="48.0199" lon="6.78746">
        <ele>578.4</ele>
        <time>2022-07-29T08:01:41Z</time>
      </trkpt>
      <trkpt lat="48.01989" lon="6.7875">
        <ele>578.4</ele>
        <time>2022-07-29T08:01:42Z</time>
      </trkpt>
      <trkpt lat="48.01989" lon="6.78753">
        <ele>578.6</ele>
        <time>2022-07-29T08:01:43Z</time>
      </trkpt>
      <trkpt lat="48.01988" lon="6.78757">
        <ele>578.6</ele>
        <time>2022-07-29T08:01:44Z</time>
      </trkpt>
      <trkpt lat="48.01987" lon="6.7876">
        <ele>579</ele>
        <time>2022-07-29T08:01:45Z</time>
      </trkpt>
      <trkpt lat="48.01986" lon="6.78764">
        <ele>579</ele>
        <time>2022-07-29T08:01:46Z</time>
      </trkpt>
      <trkpt lat="48.01985" lon="6.78767">
        <ele>579.2</ele>
        <time>2022-07-29T08:01:47Z</time>
      </trkpt>
      <trkpt lat="48.01984" lon="6.78771">
        <ele>579.2</ele>
        <time>2022-07-29T08:01:48Z</time>
      </trkpt>
      <trkpt lat="48.01983" lon="6.78774">
        <ele>579.2</ele>
        <time>2022-07-29T08:01:49Z</time>
      </trkpt>
      <trkpt lat="48.01982" lon="6.78778">
        <ele>579.6</ele>
        <time>2022-07-29T08:01:50Z</time>
      </trkpt>
      <trkpt lat="48.01981" lon="6.78781">
        <ele>579.6</ele>
        <time>2022-07-29T08:01:51Z</time>
      </trkpt>
      <trkpt lat="48.0198" lon="6.78784">
        <ele>579.8</ele>
        <time>2022-07-29T08:01:52Z</time>
      </trkpt>
      <trkpt lat="48.01978" lon="6.78787">
        <ele>579.8</ele>
        <time>2022-07-29T08:01:53Z</time>
      </trkpt>
      <trkpt lat="48.01977" lon="6.7879">
        <ele>579.8</ele>
        <time>2022-07-29T08:01:54Z</time>
      </trkpt>
      <trkpt lat="48.01975" lon="6.78793">
        <ele>580</ele>
        <time>2022-07-29T08:01:55Z</time>
      </trkpt>
      <trkpt lat="48.01973" lon="6.78796">
        <ele>580</ele>
        <time>2022-07-29T08:01:56Z</time>
      </trkpt>
      <trkpt lat="48.01971" lon="6.78799">
        <ele>580</ele>
        <time>2022-07-29T08:01:57Z</time>
      </trkpt>
      <trkpt lat="48.0197" lon="6.78802">
        <ele>580.2</ele>
        <time>2022-07-29T08:01:58Z</time>
      </trkpt>
      <trkpt lat="48.01968" lon="6.78805">
        <ele>580.2</ele>
        <time>2022-07-29T08:01:59Z</time>
      </trkpt>
      <trkpt lat="48.01967" lon="6.78809">
        <ele>580.2</ele>
        <time>2022-07-29T08:02:00Z</time>
      </trkpt>
      <trkpt lat="48.01965" lon="6.78812">
        <ele>580.4</ele>
        <time>2022-07-29T08:02:01Z</time>
      </trkpt>
      <trkpt lat="48.01964" lon="6.78814">
        <ele>580.4</ele>
        <time>2022-07-29T08:02:02Z</time>
      </trkpt>
      <trkpt lat="48.01963" lon="6.78817">
        <ele>580.6</ele>
        <time>2022-07-29T08:02:03Z</time>
      </trkpt>
      <trkpt lat="48.01962" lon="6.78821">
        <ele>580.8</ele>
        <time>2022-07-29T08:02:04Z</time>
      </trkpt>
      <trkpt lat="48.01961" lon="6.78824">
        <ele>581</ele>
        <time>2022-07-29T08:02:05Z</time>
      </trkpt>
      <trkpt lat="48.0196" lon="6.78827">
        <ele>581</ele>
        <time>2022-07-29T08:02:06Z</time>
      </trkpt>
      <trkpt lat="48.0196" lon="6.78831">
        <ele>581</ele>
        <time>2022-07-29T08:02:07Z</time>
      </trkpt>
      <trkpt lat="48.0196" lon="6.78834">
        <ele>581</ele>
        <time>2022-07-29T08:02:08Z</time>
      </trkpt>
      <trkpt lat="48.0196" lon="6.78838">
        <ele>581.2</ele>
        <time>2022-07-29T08:02:09Z</time>
      </trkpt>
      <trkpt lat="48.0196" lon="6.78841">
        <ele>581.2</ele>
        <time>2022-07-29T08:02:10Z</time>
      </trkpt>
      <trkpt lat="48.01961" lon="6.78844">
        <ele>581.4</ele>
        <time>2022-07-29T08:02:11Z</time>
      </trkpt>
      <trkpt lat="48.01961" lon="6.78847">
        <ele>581.8</ele>
        <time>2022-07-29T08:02:12Z</time>
      </trkpt>
      <trkpt lat="48.01962" lon="6.7885">
        <ele>581.8</ele>
        <time>2022-07-29T08:02:13Z</time>
      </trkpt>
      <trkpt lat="48.01963" lon="6.78853">
        <ele>582.2</ele>
        <time>2022-07-29T08:02:14Z</time>
      </trkpt>
      <trkpt lat="48.01964" lon="6.78856">
        <ele>582.4</ele>
        <time>2022-07-29T08:02:15Z</time>
      </trkpt>
      <trkpt lat="48.01964" lon="6.78859">
        <ele>582.4</ele>
        <time>2022-07-29T08:02:16Z</time>
      </trkpt>
      <trkpt lat="48.01965" lon="6.78862">
        <ele>582.6</ele>
        <time>2022-07-29T08:02:17Z</time>
      </trkpt>
      <trkpt lat="48.01965" lon="6.78864">
        <ele>582.8</ele>
        <time>2022-07-29T08:02:18Z</time>
      </trkpt>
      <trkpt lat="48.01966" lon="6.78867">
        <ele>583.2</ele>
        <time>2022-07-29T08:02:19Z</time>
      </trkpt>
      <trkpt lat="48.01966" lon="6.7887">
        <ele>583.4</ele>
        <time>2022-07-29T08:02:20Z</time>
      </trkpt>
      <trkpt lat="48.01967" lon="6.78873">
        <ele>583.6</ele>
        <time>2022-07-29T08:02:21Z</time>
      </trkpt>
      <trkpt lat="48.01967" lon="6.78875">
        <ele>583.6</ele>
        <time>2022-07-29T08:02:22Z</time>
      </trkpt>
      <trkpt lat="48.01967" lon="6.78878">
        <ele>583.8</ele>
        <time>2022-07-29T08:02:23Z</time>
      </trkpt>
      <trkpt lat="48.01968" lon="6.78881">
        <ele>584</ele>
        <time>2022-07-29T08:02:24Z</time>
      </trkpt>
      <trkpt lat="48.01968" lon="6.78884">
        <ele>584</ele>
        <time>2022-07-29T08:02:25Z</time>
      </trkpt>
      <trkpt lat="48.01968" lon="6.78887">
        <ele>584.2</ele>
        <time>2022-07-29T08:02:26Z</time>
      </trkpt>
      <trkpt lat="48.01968" lon="6.7889">
        <ele>584.4</ele>
        <time>2022-07-29T08:02:27Z</time>
      </trkpt>
      <trkpt lat="48.01969" lon="6.78893">
        <ele>584.6</ele>
        <time>2022-07-29T08:02:28Z</time>
      </trkpt>
      <trkpt lat="48.01969" lon="6.78896">
        <ele>584.8</ele>
        <time>2022-07-29T08:02:29Z</time>
      </trkpt>
      <trkpt lat="48.01969" lon="6.78899">
        <ele>585</ele>
        <time>2022-07-29T08:02:30Z</time>
      </trkpt>
      <trkpt lat="48.0197" lon="6.78902">
        <ele>585.2</ele>
        <time>2022-07-29T08:02:31Z</time>
      </trkpt>
      <trkpt lat="48.0197" lon="6.78905">
        <ele>585.4</ele>
        <time>2022-07-29T08:02:32Z</time>
      </trkpt>
      <trkpt lat="48.0197" lon="6.78908">
        <ele>585.6</ele>
        <time>2022-07-29T08:02:33Z</time>
      </trkpt>
      <trkpt lat="48.0197" lon="6.78911">
        <ele>585.6</ele>
        <time>2022-07-29T08:02:34Z</time>
      </trkpt>
      <trkpt lat="48.0197" lon="6.78914">
        <ele>585.8</ele>
        <time>2022-07-29T08:02:35Z</time>
      </trkpt>
      <trkpt lat="48.01971" lon="6.78917">
        <ele>585.8</ele>
        <time>2022-07-29T08:02:36Z</time>
      </trkpt>
      <trkpt lat="48.01971" lon="6.7892">
        <ele>586</ele>
        <time>2022-07-29T08:02:37Z</time>
      </trkpt>
      <trkpt lat="48.01972" lon="6.78922">
        <ele>586.2</ele>
        <time>2022-07-29T08:02:38Z</time>
      </trkpt>
      <trkpt lat="48.01972" lon="6.78925">
        <ele>586.4</ele>
        <time>2022-07-29T08:02:39Z</time>
      </trkpt>
      <trkpt lat="48.01972" lon="6.78928">
        <ele>586.6</ele>
        <time>2022-07-29T08:02:40Z</time>
      </trkpt>
      <trkpt lat="48.01972" lon="6.78931">
        <ele>586.8</ele>
        <time>2022-07-29T08:02:41Z</time>
      </trkpt>
      <trkpt lat="48.01972" lon="6.78933">
        <ele>587</ele>
        <time>2022-07-29T08:02:42Z</time>
      </trkpt>
      <trkpt lat="48.01971" lon="6.78935">
        <ele>587.2</ele>
        <time>2022-07-29T08:02:43Z</time>
      </trkpt>
      <trkpt lat="48.01971" lon="6.78937">
        <ele>587.4</ele>
        <time>2022-07-29T08:02:44Z</time>
      </trkpt>
      <trkpt lat="48.01971" lon="6.7894">
        <ele>587.4</ele>
        <time>2022-07-29T08:02:45Z</time>
      </trkpt>
      <trkpt lat="48.01971" lon="6.78942">
        <ele>587.6</ele>
        <time>2022-07-29T08:02:46Z</time>
      </trkpt>
      <trkpt lat="48.01972" lon="6.78945">
        <ele>587.8</ele>
        <time>2022-07-29T08:02:47Z</time>
      </trkpt>
      <trkpt lat="48.01972" lon="6.78948">
        <ele>588</ele>
        <time>2022-07-29T08:02:48Z</time>
      </trkpt>
      <trkpt lat="48.01972" lon="6.78951">
        <ele>588</ele>
        <time>2022-07-29T08:02:49Z</time>
      </trkpt>
      <trkpt lat="48.01972" lon="6.78953">
        <ele>588.2</ele>
        <time>2022-07-29T08:02:50Z</time>
      </trkpt>
      <trkpt lat="48.01972" lon="6.78956">
        <ele>588.4</ele>
        <time>2022-07-29T08:02:51Z</time>
      </trkpt>
      <trkpt lat="48.01972" lon="6.78959">
        <ele>588.4</ele>
        <time>2022-07-29T08:02:52Z</time>
      </trkpt>
      <trkpt lat="48.01972" lon="6.78962">
        <ele>588.4</ele>
        <time>2022-07-29T08:02:53Z</time>
      </trkpt>
      <trkpt lat="48.01972" lon="6.78965">
        <ele>588.6</ele>
        <time>2022-07-29T08:02:54Z</time>
      </trkpt>
      <trkpt lat="48.01971" lon="6.78968">
        <ele>588.8</ele>
        <time>2022-07-29T08:02:55Z</time>
      </trkpt>
      <trkpt lat="48.01971" lon="6.78972">
        <ele>588.8</ele>
        <time>2022-07-29T08:02:56Z</time>
      </trkpt>
      <trkpt lat="48.01971" lon="6.78975">
        <ele>589.2</ele>
        <time>2022-07-29T08:02:57Z</time>
      </trkpt>
      <trkpt lat="48.0197" lon="6.78978">
        <ele>589.2</ele>
        <time>2022-07-29T08:02:58Z</time>
      </trkpt>
      <trkpt lat="48.0197" lon="6.7898">
        <ele>589.4</ele>
        <time>2022-07-29T08:02:59Z</time>
      </trkpt>
      <trkpt lat="48.01969" lon="6.78983">
        <ele>589.6</ele>
        <time>2022-07-29T08:03:00Z</time>
      </trkpt>
      <trkpt lat="48.01969" lon="6.78986">
        <ele>589.8</ele>
        <time>2022-07-29T08:03:01Z</time>
      </trkpt>
      <trkpt lat="48.01968" lon="6.78989">
        <ele>590</ele>
        <time>2022-07-29T08:03:02Z</time>
      </trkpt>
      <trkpt lat="48.01967" lon="6.78992">
        <ele>590.2</ele>
        <time>2022-07-29T08:03:03Z</time>
      </trkpt>
      <trkpt lat="48.01967" lon="6.78995">
        <ele>590.2</ele>
        <time>2022-07-29T08:03:04Z</time>
      </trkpt>
      <trkpt lat="48.01966" lon="6.78998">
        <ele>590.6</ele>
        <time>2022-07-29T08:03:05Z</time>
      </trkpt>
      <trkpt lat="48.01966" lon="6.79001">
        <ele>590.8</ele>
        <time>2022-07-29T08:03:06Z</time>
      </trkpt>
      <trkpt lat="48.01965" lon="6.79003">
        <ele>590.8</ele>
        <time>2022-07-29T08:03:07Z</time>
      </trkpt>
      <trkpt lat="48.01965" lon="6.79006">
        <ele>591.2</ele>
        <time>2022-07-29T08:03:08Z</time>
      </trkpt>
      <trkpt lat="48.01964" lon="6.79009">
        <ele>591.4</ele>
        <time>2022-07-29T08:03:09Z</time>
      </trkpt>
      <trkpt lat="48.01964" lon="6.79012">
        <ele>591.6</ele>
        <time>2022-07-29T08:03:10Z</time>
      </trkpt>
      <trkpt lat="48.01963" lon="6.79015">
        <ele>591.8</ele>
        <time>2022-07-29T08:03:11Z</time>
      </trkpt>
      <trkpt lat="48.01962" lon="6.79018">
        <ele>591.8</ele>
        <time>2022-07-29T08:03:12Z</time>
      </trkpt>
      <trkpt lat="48.01962" lon="6.79021">
        <ele>592</ele>
        <time>2022-07-29T08:03:13Z</time>
      </trkpt>
      <trkpt lat="48.01962" lon="6.79024">
        <ele>592.2</ele>
        <time>2022-07-29T08:03:14Z</time>
      </trkpt>
      <trkpt lat="48.01961" lon="6.79027">
        <ele>592.4</ele>
        <time>2022-07-29T08:03:15Z</time>
      </trkpt>
      <trkpt lat="48.01961" lon="6.7903">
        <ele>592.6</ele>
        <time>2022-07-29T08:03:16Z</time>
      </trkpt>
      <trkpt lat="48.0196" lon="6.79032">
        <ele>592.6</ele>
        <time>2022-07-29T08:03:17Z</time>
      </trkpt>
      <trkpt lat="48.0196" lon="6.79035">
        <ele>592.8</ele>
        <time>2022-07-29T08:03:18Z</time>
      </trkpt>
      <trkpt lat="48.01959" lon="6.79038">
        <ele>593</ele>
        <time>2022-07-29T08:03:19Z</time>
      </trkpt>
      <trkpt lat="48.01959" lon="6.79041">
        <ele>593.2</ele>
        <time>2022-07-29T08:03:20Z</time>
      </trkpt>
      <trkpt lat="48.01959" lon="6.79044">
        <ele>593.2</ele>
        <time>2022-07-29T08:03:21Z</time>
      </trkpt>
      <trkpt lat="48.01959" lon="6.79046">
        <ele>593.4</ele>
        <time>2022-07-29T08:03:22Z</time>
      </trkpt>
      <trkpt lat="48.01959" lon="6.79049">
        <ele>593.6</ele>
        <time>2022-07-29T08:03:23Z</time>
      </trkpt>
      <trkpt lat="48.01958" lon="6.79052">
        <ele>593.8</ele>
        <time>2022-07-29T08:03:24Z</time>
      </trkpt>
      <trkpt lat="48.01958" lon="6.79055">
        <ele>594</ele>
        <time>2022-07-29T08:03:25Z</time>
      </trkpt>
      <trkpt lat="48.01958" lon="6.79057">
        <ele>594</ele>
        <time>2022-07-29T08:03:26Z</time>
      </trkpt>
      <trkpt lat="48.01958" lon="6.7906">
        <ele>594.2</ele>
        <time>2022-07-29T08:03:27Z</time>
      </trkpt>
      <trkpt lat="48.01958" lon="6.79063">
        <ele>594.4</ele>
        <time>2022-07-29T08:03:28Z</time>
      </trkpt>
      <trkpt lat="48.01958" lon="6.79066">
        <ele>594.6</ele>
        <time>2022-07-29T08:03:29Z</time>
      </trkpt>
      <trkpt lat="48.01958" lon="6.79067">
        <ele>594.6</ele>
        <time>2022-07-29T08:03:30Z</time>
      </trkpt>
      <trkpt lat="48.01958" lon="6.79069">
        <ele>595</ele>
        <time>2022-07-29T08:03:31Z</time>
      </trkpt>
      <trkpt lat="48.01958" lon="6.79069">
        <ele>595.4</ele>
        <time>2022-07-29T08:03:33Z</time>
      </trkpt>
      <trkpt lat="48.01957" lon="6.79069">
        <ele>595.6</ele>
        <time>2022-07-29T08:03:34Z</time>
      </trkpt>
      <trkpt lat="48.01957" lon="6.79069">
        <ele>596</ele>
        <time>2022-07-29T08:04:03Z</time>
      </trkpt>
      <trkpt lat="48.01957" lon="6.79074">
        <ele>596.2</ele>
        <time>2022-07-29T08:04:31Z</time>
      </trkpt>
      <trkpt lat="48.01956" lon="6.79076">
        <ele>596.2</ele>
        <time>2022-07-29T08:04:32Z</time>
      </trkpt>
      <trkpt lat="48.01955" lon="6.79092">
        <ele>596.4</ele>
        <time>2022-07-29T08:04:38Z</time>
      </trkpt>
      <trkpt lat="48.01955" lon="6.79094">
        <ele>596.4</ele>
        <time>2022-07-29T08:04:39Z</time>
      </trkpt>
      <trkpt lat="48.01955" lon="6.79101">
        <ele>597</ele>
        <time>2022-07-29T08:04:42Z</time>
      </trkpt>
      <trkpt lat="48.01954" lon="6.79108">
        <ele>597.6</ele>
        <time>2022-07-29T08:04:45Z</time>
      </trkpt>
      <trkpt lat="48.01954" lon="6.79109">
        <ele>598</ele>
        <time>2022-07-29T08:04:46Z</time>
      </trkpt>
      <trkpt lat="48.01953" lon="6.79111">
        <ele>598</ele>
        <time>2022-07-29T08:04:47Z</time>
      </trkpt>
      <trkpt lat="48.01953" lon="6.79113">
        <ele>598.2</ele>
        <time>2022-07-29T08:04:48Z</time>
      </trkpt>
      <trkpt lat="48.01952" lon="6.79115">
        <ele>598.4</ele>
        <time>2022-07-29T08:04:49Z</time>
      </trkpt>
      <trkpt lat="48.01952" lon="6.79121">
        <ele>599</ele>
        <time>2022-07-29T08:04:52Z</time>
      </trkpt>
      <trkpt lat="48.01952" lon="6.79123">
        <ele>599.4</ele>
        <time>2022-07-29T08:04:53Z</time>
      </trkpt>
      <trkpt lat="48.01952" lon="6.79125">
        <ele>599.4</ele>
        <time>2022-07-29T08:04:54Z</time>
      </trkpt>
      <trkpt lat="48.01952" lon="6.79127">
        <ele>599.6</ele>
        <time>2022-07-29T08:04:55Z</time>
      </trkpt>
      <trkpt lat="48.01951" lon="6.79129">
        <ele>599.8</ele>
        <time>2022-07-29T08:04:56Z</time>
      </trkpt>
      <trkpt lat="48.01951" lon="6.79131">
        <ele>600</ele>
        <time>2022-07-29T08:04:57Z</time>
      </trkpt>
      <trkpt lat="48.01951" lon="6.79132">
        <ele>600.2</ele>
        <time>2022-07-29T08:04:58Z</time>
      </trkpt>
      <trkpt lat="48.01951" lon="6.79134">
        <ele>600.4</ele>
        <time>2022-07-29T08:04:59Z</time>
      </trkpt>
      <trkpt lat="48.01951" lon="6.79136">
        <ele>600.4</ele>
        <time>2022-07-29T08:05:00Z</time>
      </trkpt>
      <trkpt lat="48.0195" lon="6.79138">
        <ele>600.6</ele>
        <time>2022-07-29T08:05:01Z</time>
      </trkpt>
      <trkpt lat="48.0195" lon="6.7914">
        <ele>600.8</ele>
        <time>2022-07-29T08:05:02Z</time>
      </trkpt>
      <trkpt lat="48.0195" lon="6.79142">
        <ele>601</ele>
        <time>2022-07-29T08:05:03Z</time>
      </trkpt>
      <trkpt lat="48.0195" lon="6.79144">
        <ele>601.2</ele>
        <time>2022-07-29T08:05:04Z</time>
      </trkpt>
      <trkpt lat="48.0195" lon="6.79146">
        <ele>601.4</ele>
        <time>2022-07-29T08:05:05Z</time>
      </trkpt>
      <trkpt lat="48.0195" lon="6.79148">
        <ele>601.6</ele>
        <time>2022-07-29T08:05:06Z</time>
      </trkpt>
      <trkpt lat="48.0195" lon="6.7915">
        <ele>601.6</ele>
        <time>2022-07-29T08:05:07Z</time>
      </trkpt>
      <trkpt lat="48.01949" lon="6.79152">
        <ele>601.8</ele>
        <time>2022-07-29T08:05:08Z</time>
      </trkpt>
      <trkpt lat="48.01949" lon="6.79154">
        <ele>602</ele>
        <time>2022-07-29T08:05:09Z</time>
      </trkpt>
      <trkpt lat="48.01948" lon="6.79155">
        <ele>602.4</ele>
        <time>2022-07-29T08:05:10Z</time>
      </trkpt>
      <trkpt lat="48.01948" lon="6.79157">
        <ele>602.6</ele>
        <time>2022-07-29T08:05:11Z</time>
      </trkpt>
      <trkpt lat="48.01948" lon="6.79159">
        <ele>602.8</ele>
        <time>2022-07-29T08:05:12Z</time>
      </trkpt>
      <trkpt lat="48.01948" lon="6.79161">
        <ele>603</ele>
        <time>2022-07-29T08:05:13Z</time>
      </trkpt>
      <trkpt lat="48.01948" lon="6.79162">
        <ele>603.2</ele>
        <time>2022-07-29T08:05:14Z</time>
      </trkpt>
      <trkpt lat="48.01948" lon="6.79164">
        <ele>603.4</ele>
        <time>2022-07-29T08:05:15Z</time>
      </trkpt>
      <trkpt lat="48.01948" lon="6.79166">
        <ele>603.4</ele>
        <time>2022-07-29T08:05:16Z</time>
      </trkpt>
      <trkpt lat="48.01948" lon="6.79168">
        <ele>603.6</ele>
        <time>2022-07-29T08:05:17Z</time>
      </trkpt>
      <trkpt lat="48.01947" lon="6.7917">
        <ele>603.8</ele>
        <time>2022-07-29T08:05:18Z</time>
      </trkpt>
      <trkpt lat="48.01947" lon="6.79172">
        <ele>604</ele>
        <time>2022-07-29T08:05:19Z</time>
      </trkpt>
      <trkpt lat="48.01947" lon="6.79174">
        <ele>604.2</ele>
        <time>2022-07-29T08:05:20Z</time>
      </trkpt>
      <trkpt lat="48.01946" lon="6.79176">
        <ele>604.2</ele>
        <time>2022-07-29T08:05:21Z</time>
      </trkpt>
      <trkpt lat="48.01946" lon="6.79178">
        <ele>604.6</ele>
        <time>2022-07-29T08:05:22Z</time>
      </trkpt>
      <trkpt lat="48.01946" lon="6.7918">
        <ele>604.8</ele>
        <time>2022-07-29T08:05:23Z</time>
      </trkpt>
      <trkpt lat="48.01945" lon="6.79182">
        <ele>605</ele>
        <time>2022-07-29T08:05:24Z</time>
      </trkpt>
      <trkpt lat="48.01945" lon="6.79184">
        <ele>605.2</ele>
        <time>2022-07-29T08:05:25Z</time>
      </trkpt>
      <trkpt lat="48.01945" lon="6.79186">
        <ele>605.4</ele>
        <time>2022-07-29T08:05:26Z</time>
      </trkpt>
      <trkpt lat="48.01944" lon="6.79188">
        <ele>605.6</ele>
        <time>2022-07-29T08:05:27Z</time>
      </trkpt>
      <trkpt lat="48.01944" lon="6.7919">
        <ele>606</ele>
        <time>2022-07-29T08:05:28Z</time>
      </trkpt>
      <trkpt lat="48.01945" lon="6.79192">
        <ele>606.4</ele>
        <time>2022-07-29T08:05:29Z</time>
      </trkpt>
      <trkpt lat="48.01945" lon="6.79193">
        <ele>606.4</ele>
        <time>2022-07-29T08:05:30Z</time>
      </trkpt>
      <trkpt lat="48.01945" lon="6.79195">
        <ele>606.8</ele>
        <time>2022-07-29T08:05:31Z</time>
      </trkpt>
      <trkpt lat="48.01944" lon="6.79197">
        <ele>606.8</ele>
        <time>2022-07-29T08:05:32Z</time>
      </trkpt>
      <trkpt lat="48.01944" lon="6.79199">
        <ele>607</ele>
        <time>2022-07-29T08:05:33Z</time>
      </trkpt>
      <trkpt lat="48.01944" lon="6.79201">
        <ele>607.2</ele>
        <time>2022-07-29T08:05:34Z</time>
      </trkpt>
      <trkpt lat="48.01944" lon="6.79203">
        <ele>607.4</ele>
        <time>2022-07-29T08:05:35Z</time>
      </trkpt>
      <trkpt lat="48.01944" lon="6.79205">
        <ele>607.4</ele>
        <time>2022-07-29T08:05:36Z</time>
      </trkpt>
      <trkpt lat="48.01943" lon="6.79207">
        <ele>607.6</ele>
        <time>2022-07-29T08:05:37Z</time>
      </trkpt>
      <trkpt lat="48.01944" lon="6.79209">
        <ele>607.8</ele>
        <time>2022-07-29T08:05:38Z</time>
      </trkpt>
      <trkpt lat="48.01944" lon="6.79211">
        <ele>608</ele>
        <time>2022-07-29T08:05:39Z</time>
      </trkpt>
      <trkpt lat="48.01944" lon="6.79213">
        <ele>608.2</ele>
        <time>2022-07-29T08:05:40Z</time>
      </trkpt>
      <trkpt lat="48.01944" lon="6.79215">
        <ele>608.4</ele>
        <time>2022-07-29T08:05:41Z</time>
      </trkpt>
      <trkpt lat="48.01944" lon="6.79217">
        <ele>608.6</ele>
        <time>2022-07-29T08:05:42Z</time>
      </trkpt>
      <trkpt lat="48.01944" lon="6.79218">
        <ele>608.6</ele>
        <time>2022-07-29T08:05:43Z</time>
      </trkpt>
      <trkpt lat="48.01944" lon="6.7922">
        <ele>608.8</ele>
        <time>2022-07-29T08:05:44Z</time>
      </trkpt>
      <trkpt lat="48.01944" lon="6.79222">
        <ele>609</ele>
        <time>2022-07-29T08:05:45Z</time>
      </trkpt>
      <trkpt lat="48.01944" lon="6.79224">
        <ele>609.2</ele>
        <time>2022-07-29T08:05:46Z</time>
      </trkpt>
      <trkpt lat="48.01945" lon="6.79226">
        <ele>609.6</ele>
        <time>2022-07-29T08:05:47Z</time>
      </trkpt>
      <trkpt lat="48.01945" lon="6.79227">
        <ele>609.6</ele>
        <time>2022-07-29T08:05:48Z</time>
      </trkpt>
      <trkpt lat="48.01945" lon="6.79229">
        <ele>610</ele>
        <time>2022-07-29T08:05:49Z</time>
      </trkpt>
      <trkpt lat="48.01945" lon="6.79231">
        <ele>610</ele>
        <time>2022-07-29T08:05:50Z</time>
      </trkpt>
      <trkpt lat="48.01945" lon="6.79233">
        <ele>610.4</ele>
        <time>2022-07-29T08:05:51Z</time>
      </trkpt>
      <trkpt lat="48.01945" lon="6.79235">
        <ele>610.4</ele>
        <time>2022-07-29T08:05:52Z</time>
      </trkpt>
      <trkpt lat="48.01945" lon="6.79237">
        <ele>610.6</ele>
        <time>2022-07-29T08:05:53Z</time>
      </trkpt>
      <trkpt lat="48.01945" lon="6.79239">
        <ele>610.8</ele>
        <time>2022-07-29T08:05:54Z</time>
      </trkpt>
      <trkpt lat="48.01946" lon="6.79241">
        <ele>611.2</ele>
        <time>2022-07-29T08:05:55Z</time>
      </trkpt>
      <trkpt lat="48.01946" lon="6.79243">
        <ele>611.2</ele>
        <time>2022-07-29T08:05:56Z</time>
      </trkpt>
      <trkpt lat="48.01946" lon="6.79245">
        <ele>611.4</ele>
        <time>2022-07-29T08:05:57Z</time>
      </trkpt>
      <trkpt lat="48.01946" lon="6.79247">
        <ele>611.4</ele>
        <time>2022-07-29T08:05:58Z</time>
      </trkpt>
      <trkpt lat="48.01946" lon="6.79249">
        <ele>611.6</ele>
        <time>2022-07-29T08:05:59Z</time>
      </trkpt>
      <trkpt lat="48.01946" lon="6.79251">
        <ele>611.8</ele>
        <time>2022-07-29T08:06:00Z</time>
      </trkpt>
      <trkpt lat="48.01946" lon="6.79253">
        <ele>611.8</ele>
        <time>2022-07-29T08:06:01Z</time>
      </trkpt>
      <trkpt lat="48.01946" lon="6.79254">
        <ele>612.2</ele>
        <time>2022-07-29T08:06:02Z</time>
      </trkpt>
      <trkpt lat="48.01946" lon="6.79256">
        <ele>612.2</ele>
        <time>2022-07-29T08:06:03Z</time>
      </trkpt>
      <trkpt lat="48.01946" lon="6.79258">
        <ele>612.4</ele>
        <time>2022-07-29T08:06:04Z</time>
      </trkpt>
      <trkpt lat="48.01946" lon="6.7926">
        <ele>612.8</ele>
        <time>2022-07-29T08:06:05Z</time>
      </trkpt>
      <trkpt lat="48.01946" lon="6.79262">
        <ele>612.8</ele>
        <time>2022-07-29T08:06:06Z</time>
      </trkpt>
      <trkpt lat="48.01946" lon="6.79264">
        <ele>613</ele>
        <time>2022-07-29T08:06:07Z</time>
      </trkpt>
      <trkpt lat="48.01946" lon="6.79266">
        <ele>613</ele>
        <time>2022-07-29T08:06:08Z</time>
      </trkpt>
      <trkpt lat="48.01946" lon="6.79268">
        <ele>613.2</ele>
        <time>2022-07-29T08:06:09Z</time>
      </trkpt>
      <trkpt lat="48.01945" lon="6.7927">
        <ele>613.2</ele>
        <time>2022-07-29T08:06:10Z</time>
      </trkpt>
      <trkpt lat="48.01945" lon="6.79272">
        <ele>613.4</ele>
        <time>2022-07-29T08:06:11Z</time>
      </trkpt>
      <trkpt lat="48.01945" lon="6.79274">
        <ele>613.6</ele>
        <time>2022-07-29T08:06:12Z</time>
      </trkpt>
      <trkpt lat="48.01945" lon="6.79276">
        <ele>613.8</ele>
        <time>2022-07-29T08:06:13Z</time>
      </trkpt>
      <trkpt lat="48.01945" lon="6.79278">
        <ele>614</ele>
        <time>2022-07-29T08:06:14Z</time>
      </trkpt>
      <trkpt lat="48.01945" lon="6.79279">
        <ele>614.2</ele>
        <time>2022-07-29T08:06:15Z</time>
      </trkpt>
      <trkpt lat="48.01945" lon="6.79281">
        <ele>614.4</ele>
        <time>2022-07-29T08:06:16Z</time>
      </trkpt>
      <trkpt lat="48.01946" lon="6.79283">
        <ele>614.6</ele>
        <time>2022-07-29T08:06:17Z</time>
      </trkpt>
      <trkpt lat="48.01946" lon="6.79285">
        <ele>615</ele>
        <time>2022-07-29T08:06:18Z</time>
      </trkpt>
      <trkpt lat="48.01946" lon="6.79287">
        <ele>615</ele>
        <time>2022-07-29T08:06:19Z</time>
      </trkpt>
      <trkpt lat="48.01946" lon="6.79289">
        <ele>615.2</ele>
        <time>2022-07-29T08:06:20Z</time>
      </trkpt>
      <trkpt lat="48.01947" lon="6.79291">
        <ele>615.4</ele>
        <time>2022-07-29T08:06:21Z</time>
      </trkpt>
      <trkpt lat="48.01947" lon="6.79293">
        <ele>615.2</ele>
        <time>2022-07-29T08:06:22Z</time>
      </trkpt>
      <trkpt lat="48.01947" lon="6.79295">
        <ele>615.6</ele>
        <time>2022-07-29T08:06:23Z</time>
      </trkpt>
      <trkpt lat="48.01947" lon="6.79296">
        <ele>615.8</ele>
        <time>2022-07-29T08:06:24Z</time>
      </trkpt>
      <trkpt lat="48.01947" lon="6.79298">
        <ele>615.8</ele>
        <time>2022-07-29T08:06:25Z</time>
      </trkpt>
      <trkpt lat="48.01948" lon="6.79299">
        <ele>616.2</ele>
        <time>2022-07-29T08:06:26Z</time>
      </trkpt>
      <trkpt lat="48.01948" lon="6.79301">
        <ele>616.4</ele>
        <time>2022-07-29T08:06:27Z</time>
      </trkpt>
      <trkpt lat="48.01948" lon="6.79303">
        <ele>616.4</ele>
        <time>2022-07-29T08:06:28Z</time>
      </trkpt>
      <trkpt lat="48.01949" lon="6.79304">
        <ele>616.4</ele>
        <time>2022-07-29T08:06:29Z</time>
      </trkpt>
      <trkpt lat="48.01949" lon="6.79305">
        <ele>616.8</ele>
        <time>2022-07-29T08:06:30Z</time>
      </trkpt>
      <trkpt lat="48.0195" lon="6.79307">
        <ele>617</ele>
        <time>2022-07-29T08:06:31Z</time>
      </trkpt>
      <trkpt lat="48.0195" lon="6.79309">
        <ele>617.2</ele>
        <time>2022-07-29T08:06:32Z</time>
      </trkpt>
      <trkpt lat="48.01951" lon="6.79311">
        <ele>617.4</ele>
        <time>2022-07-29T08:06:33Z</time>
      </trkpt>
      <trkpt lat="48.01952" lon="6.79313">
        <ele>617.6</ele>
        <time>2022-07-29T08:06:34Z</time>
      </trkpt>
      <trkpt lat="48.01952" lon="6.79315">
        <ele>617.6</ele>
        <time>2022-07-29T08:06:35Z</time>
      </trkpt>
      <trkpt lat="48.01953" lon="6.79317">
        <ele>617.8</ele>
        <time>2022-07-29T08:06:36Z</time>
      </trkpt>
      <trkpt lat="48.01954" lon="6.79319">
        <ele>618.2</ele>
        <time>2022-07-29T08:06:37Z</time>
      </trkpt>
      <trkpt lat="48.01954" lon="6.79321">
        <ele>618.4</ele>
        <time>2022-07-29T08:06:38Z</time>
      </trkpt>
      <trkpt lat="48.01954" lon="6.79322">
        <ele>618.8</ele>
        <time>2022-07-29T08:06:39Z</time>
      </trkpt>
      <trkpt lat="48.01955" lon="6.79324">
        <ele>618.8</ele>
        <time>2022-07-29T08:06:40Z</time>
      </trkpt>
      <trkpt lat="48.01955" lon="6.79326">
        <ele>619</ele>
        <time>2022-07-29T08:06:41Z</time>
      </trkpt>
      <trkpt lat="48.01955" lon="6.79327">
        <ele>619</ele>
        <time>2022-07-29T08:06:42Z</time>
      </trkpt>
      <trkpt lat="48.01956" lon="6.79329">
        <ele>619</ele>
        <time>2022-07-29T08:06:43Z</time>
      </trkpt>
      <trkpt lat="48.01956" lon="6.79331">
        <ele>619.4</ele>
        <time>2022-07-29T08:06:44Z</time>
      </trkpt>
      <trkpt lat="48.01956" lon="6.79333">
        <ele>619.6</ele>
        <time>2022-07-29T08:06:45Z</time>
      </trkpt>
      <trkpt lat="48.01956" lon="6.79336">
        <ele>619.8</ele>
        <time>2022-07-29T08:06:46Z</time>
      </trkpt>
      <trkpt lat="48.01957" lon="6.79338">
        <ele>620</ele>
        <time>2022-07-29T08:06:47Z</time>
      </trkpt>
      <trkpt lat="48.01957" lon="6.7934">
        <ele>620</ele>
        <time>2022-07-29T08:06:48Z</time>
      </trkpt>
      <trkpt lat="48.01957" lon="6.79343">
        <ele>620.2</ele>
        <time>2022-07-29T08:06:49Z</time>
      </trkpt>
      <trkpt lat="48.01958" lon="6.79345">
        <ele>620.2</ele>
        <time>2022-07-29T08:06:50Z</time>
      </trkpt>
      <trkpt lat="48.01958" lon="6.79348">
        <ele>620.6</ele>
        <time>2022-07-29T08:06:51Z</time>
      </trkpt>
      <trkpt lat="48.01959" lon="6.7935">
        <ele>620.6</ele>
        <time>2022-07-29T08:06:52Z</time>
      </trkpt>
      <trkpt lat="48.01959" lon="6.79352">
        <ele>620.8</ele>
        <time>2022-07-29T08:06:53Z</time>
      </trkpt>
      <trkpt lat="48.01959" lon="6.79353">
        <ele>621</ele>
        <time>2022-07-29T08:06:54Z</time>
      </trkpt>
      <trkpt lat="48.01958" lon="6.79355">
        <ele>621</ele>
        <time>2022-07-29T08:06:55Z</time>
      </trkpt>
      <trkpt lat="48.01958" lon="6.79356">
        <ele>621.2</ele>
        <time>2022-07-29T08:06:56Z</time>
      </trkpt>
      <trkpt lat="48.01958" lon="6.79357">
        <ele>621.4</ele>
        <time>2022-07-29T08:06:57Z</time>
      </trkpt>
      <trkpt lat="48.01958" lon="6.79358">
        <ele>621.6</ele>
        <time>2022-07-29T08:06:58Z</time>
      </trkpt>
      <trkpt lat="48.01958" lon="6.79358">
        <ele>621.8</ele>
        <time>2022-07-29T08:06:59Z</time>
      </trkpt>
      <trkpt lat="48.01959" lon="6.7936">
        <ele>621.8</ele>
        <time>2022-07-29T08:07:00Z</time>
      </trkpt>
      <trkpt lat="48.01959" lon="6.79362">
        <ele>622</ele>
        <time>2022-07-29T08:07:01Z</time>
      </trkpt>
      <trkpt lat="48.01959" lon="6.79364">
        <ele>622.2</ele>
        <time>2022-07-29T08:07:02Z</time>
      </trkpt>
      <trkpt lat="48.01958" lon="6.79366">
        <ele>622.6</ele>
        <time>2022-07-29T08:07:03Z</time>
      </trkpt>
      <trkpt lat="48.01958" lon="6.79367">
        <ele>622.6</ele>
        <time>2022-07-29T08:07:04Z</time>
      </trkpt>
      <trkpt lat="48.01958" lon="6.7937">
        <ele>622.8</ele>
        <time>2022-07-29T08:07:05Z</time>
      </trkpt>
      <trkpt lat="48.01957" lon="6.79372">
        <ele>623</ele>
        <time>2022-07-29T08:07:06Z</time>
      </trkpt>
      <trkpt lat="48.01956" lon="6.79374">
        <ele>623.2</ele>
        <time>2022-07-29T08:07:07Z</time>
      </trkpt>
      <trkpt lat="48.01956" lon="6.79375">
        <ele>623.4</ele>
        <time>2022-07-29T08:07:08Z</time>
      </trkpt>
      <trkpt lat="48.01956" lon="6.79375">
        <ele>623.6</ele>
        <time>2022-07-29T08:07:09Z</time>
      </trkpt>
      <trkpt lat="48.01955" lon="6.79377">
        <ele>623.8</ele>
        <time>2022-07-29T08:07:10Z</time>
      </trkpt>
      <trkpt lat="48.01954" lon="6.79379">
        <ele>624</ele>
        <time>2022-07-29T08:07:11Z</time>
      </trkpt>
      <trkpt lat="48.01953" lon="6.7938">
        <ele>624.4</ele>
        <time>2022-07-29T08:07:12Z</time>
      </trkpt>
      <trkpt lat="48.01953" lon="6.79381">
        <ele>624.4</ele>
        <time>2022-07-29T08:07:13Z</time>
      </trkpt>
      <trkpt lat="48.01952" lon="6.79383">
        <ele>624.8</ele>
        <time>2022-07-29T08:07:14Z</time>
      </trkpt>
      <trkpt lat="48.01951" lon="6.79386">
        <ele>625</ele>
        <time>2022-07-29T08:07:15Z</time>
      </trkpt>
      <trkpt lat="48.0195" lon="6.79388">
        <ele>625</ele>
        <time>2022-07-29T08:07:16Z</time>
      </trkpt>
      <trkpt lat="48.0195" lon="6.79391">
        <ele>625.2</ele>
        <time>2022-07-29T08:07:17Z</time>
      </trkpt>
      <trkpt lat="48.01949" lon="6.79393">
        <ele>625.4</ele>
        <time>2022-07-29T08:07:18Z</time>
      </trkpt>
      <trkpt lat="48.01949" lon="6.79394">
        <ele>625.6</ele>
        <time>2022-07-29T08:07:19Z</time>
      </trkpt>
      <trkpt lat="48.01948" lon="6.79395">
        <ele>625.8</ele>
        <time>2022-07-29T08:07:20Z</time>
      </trkpt>
      <trkpt lat="48.01947" lon="6.79397">
        <ele>626.2</ele>
        <time>2022-07-29T08:07:21Z</time>
      </trkpt>
      <trkpt lat="48.01947" lon="6.79399">
        <ele>626.2</ele>
        <time>2022-07-29T08:07:22Z</time>
      </trkpt>
      <trkpt lat="48.01947" lon="6.79401">
        <ele>626.4</ele>
        <time>2022-07-29T08:07:23Z</time>
      </trkpt>
      <trkpt lat="48.01946" lon="6.79403">
        <ele>626.8</ele>
        <time>2022-07-29T08:07:24Z</time>
      </trkpt>
      <trkpt lat="48.01946" lon="6.79406">
        <ele>626.8</ele>
        <time>2022-07-29T08:07:25Z</time>
      </trkpt>
      <trkpt lat="48.01946" lon="6.79408">
        <ele>627.2</ele>
        <time>2022-07-29T08:07:26Z</time>
      </trkpt>
      <trkpt lat="48.01945" lon="6.79409">
        <ele>627.2</ele>
        <time>2022-07-29T08:07:27Z</time>
      </trkpt>
      <trkpt lat="48.01944" lon="6.79411">
        <ele>627.4</ele>
        <time>2022-07-29T08:07:28Z</time>
      </trkpt>
      <trkpt lat="48.01943" lon="6.79413">
        <ele>627.4</ele>
        <time>2022-07-29T08:07:29Z</time>
      </trkpt>
      <trkpt lat="48.01942" lon="6.79413">
        <ele>627.6</ele>
        <time>2022-07-29T08:07:30Z</time>
      </trkpt>
      <trkpt lat="48.01941" lon="6.79415">
        <ele>627.8</ele>
        <time>2022-07-29T08:07:31Z</time>
      </trkpt>
      <trkpt lat="48.01941" lon="6.79417">
        <ele>628.2</ele>
        <time>2022-07-29T08:07:32Z</time>
      </trkpt>
      <trkpt lat="48.0194" lon="6.79419">
        <ele>628.4</ele>
        <time>2022-07-29T08:07:33Z</time>
      </trkpt>
      <trkpt lat="48.0194" lon="6.79421">
        <ele>628.6</ele>
        <time>2022-07-29T08:07:34Z</time>
      </trkpt>
      <trkpt lat="48.01939" lon="6.79422">
        <ele>628.8</ele>
        <time>2022-07-29T08:07:35Z</time>
      </trkpt>
      <trkpt lat="48.01939" lon="6.79424">
        <ele>629</ele>
        <time>2022-07-29T08:07:36Z</time>
      </trkpt>
      <trkpt lat="48.01938" lon="6.79425">
        <ele>629.2</ele>
        <time>2022-07-29T08:07:37Z</time>
      </trkpt>
      <trkpt lat="48.01937" lon="6.79427">
        <ele>629</ele>
        <time>2022-07-29T08:07:38Z</time>
      </trkpt>
      <trkpt lat="48.01937" lon="6.79428">
        <ele>629.4</ele>
        <time>2022-07-29T08:07:39Z</time>
      </trkpt>
      <trkpt lat="48.01937" lon="6.7943">
        <ele>629.4</ele>
        <time>2022-07-29T08:07:40Z</time>
      </trkpt>
      <trkpt lat="48.01937" lon="6.79432">
        <ele>629.8</ele>
        <time>2022-07-29T08:07:41Z</time>
      </trkpt>
      <trkpt lat="48.01937" lon="6.79434">
        <ele>630</ele>
        <time>2022-07-29T08:07:42Z</time>
      </trkpt>
      <trkpt lat="48.01936" lon="6.79435">
        <ele>630.2</ele>
        <time>2022-07-29T08:07:43Z</time>
      </trkpt>
      <trkpt lat="48.01936" lon="6.79437">
        <ele>630.4</ele>
        <time>2022-07-29T08:07:44Z</time>
      </trkpt>
      <trkpt lat="48.01936" lon="6.79439">
        <ele>630.6</ele>
        <time>2022-07-29T08:07:45Z</time>
      </trkpt>
      <trkpt lat="48.01936" lon="6.79441">
        <ele>630.8</ele>
        <time>2022-07-29T08:07:46Z</time>
      </trkpt>
      <trkpt lat="48.01936" lon="6.79443">
        <ele>630.8</ele>
        <time>2022-07-29T08:07:47Z</time>
      </trkpt>
      <trkpt lat="48.01936" lon="6.79445">
        <ele>631.2</ele>
        <time>2022-07-29T08:07:48Z</time>
      </trkpt>
      <trkpt lat="48.01936" lon="6.79447">
        <ele>631.4</ele>
        <time>2022-07-29T08:07:49Z</time>
      </trkpt>
      <trkpt lat="48.01935" lon="6.7945">
        <ele>631.6</ele>
        <time>2022-07-29T08:07:50Z</time>
      </trkpt>
      <trkpt lat="48.01935" lon="6.79452">
        <ele>632</ele>
        <time>2022-07-29T08:07:51Z</time>
      </trkpt>
      <trkpt lat="48.01933" lon="6.79454">
        <ele>632</ele>
        <time>2022-07-29T08:07:52Z</time>
      </trkpt>
      <trkpt lat="48.01933" lon="6.79457">
        <ele>632.2</ele>
        <time>2022-07-29T08:07:53Z</time>
      </trkpt>
      <trkpt lat="48.01933" lon="6.79459">
        <ele>632.4</ele>
        <time>2022-07-29T08:07:54Z</time>
      </trkpt>
      <trkpt lat="48.01932" lon="6.79461">
        <ele>632.8</ele>
        <time>2022-07-29T08:07:55Z</time>
      </trkpt>
      <trkpt lat="48.01931" lon="6.79464">
        <ele>632.8</ele>
        <time>2022-07-29T08:07:56Z</time>
      </trkpt>
      <trkpt lat="48.01931" lon="6.79466">
        <ele>633</ele>
        <time>2022-07-29T08:07:57Z</time>
      </trkpt>
      <trkpt lat="48.0193" lon="6.79469">
        <ele>633.2</ele>
        <time>2022-07-29T08:07:58Z</time>
      </trkpt>
      <trkpt lat="48.01929" lon="6.79471">
        <ele>633.4</ele>
        <time>2022-07-29T08:07:59Z</time>
      </trkpt>
      <trkpt lat="48.01929" lon="6.79474">
        <ele>633.8</ele>
        <time>2022-07-29T08:08:00Z</time>
      </trkpt>
      <trkpt lat="48.01929" lon="6.79476">
        <ele>634</ele>
        <time>2022-07-29T08:08:01Z</time>
      </trkpt>
      <trkpt lat="48.01929" lon="6.79478">
        <ele>634.2</ele>
        <time>2022-07-29T08:08:02Z</time>
      </trkpt>
      <trkpt lat="48.01929" lon="6.7948">
        <ele>634.2</ele>
        <time>2022-07-29T08:08:03Z</time>
      </trkpt>
      <trkpt lat="48.01929" lon="6.79483">
        <ele>634.4</ele>
        <time>2022-07-29T08:08:04Z</time>
      </trkpt>
      <trkpt lat="48.01929" lon="6.79485">
        <ele>634.4</ele>
        <time>2022-07-29T08:08:05Z</time>
      </trkpt>
      <trkpt lat="48.01929" lon="6.79486">
        <ele>634.8</ele>
        <time>2022-07-29T08:08:06Z</time>
      </trkpt>
      <trkpt lat="48.01928" lon="6.79488">
        <ele>635</ele>
        <time>2022-07-29T08:08:07Z</time>
      </trkpt>
      <trkpt lat="48.01928" lon="6.7949">
        <ele>635.2</ele>
        <time>2022-07-29T08:08:08Z</time>
      </trkpt>
      <trkpt lat="48.01927" lon="6.79492">
        <ele>635.4</ele>
        <time>2022-07-29T08:08:09Z</time>
      </trkpt>
      <trkpt lat="48.01927" lon="6.79494">
        <ele>635.6</ele>
        <time>2022-07-29T08:08:10Z</time>
      </trkpt>
      <trkpt lat="48.01927" lon="6.79496">
        <ele>635.4</ele>
        <time>2022-07-29T08:08:11Z</time>
      </trkpt>
      <trkpt lat="48.01926" lon="6.79498">
        <ele>635.6</ele>
        <time>2022-07-29T08:08:12Z</time>
      </trkpt>
      <trkpt lat="48.01926" lon="6.795">
        <ele>636</ele>
        <time>2022-07-29T08:08:13Z</time>
      </trkpt>
      <trkpt lat="48.01925" lon="6.79502">
        <ele>636</ele>
        <time>2022-07-29T08:08:14Z</time>
      </trkpt>
      <trkpt lat="48.01925" lon="6.79504">
        <ele>636.4</ele>
        <time>2022-07-29T08:08:15Z</time>
      </trkpt>
      <trkpt lat="48.01925" lon="6.79505">
        <ele>636.6</ele>
        <time>2022-07-29T08:08:16Z</time>
      </trkpt>
      <trkpt lat="48.01925" lon="6.79507">
        <ele>636.8</ele>
        <time>2022-07-29T08:08:17Z</time>
      </trkpt>
      <trkpt lat="48.01924" lon="6.7951">
        <ele>637</ele>
        <time>2022-07-29T08:08:18Z</time>
      </trkpt>
      <trkpt lat="48.01924" lon="6.79512">
        <ele>637.2</ele>
        <time>2022-07-29T08:08:19Z</time>
      </trkpt>
      <trkpt lat="48.01924" lon="6.79514">
        <ele>637.6</ele>
        <time>2022-07-29T08:08:20Z</time>
      </trkpt>
      <trkpt lat="48.01924" lon="6.79516">
        <ele>637.6</ele>
        <time>2022-07-29T08:08:21Z</time>
      </trkpt>
      <trkpt lat="48.01924" lon="6.79518">
        <ele>637.8</ele>
        <time>2022-07-29T08:08:22Z</time>
      </trkpt>
      <trkpt lat="48.01923" lon="6.7952">
        <ele>638</ele>
        <time>2022-07-29T08:08:23Z</time>
      </trkpt>
      <trkpt lat="48.01923" lon="6.79521">
        <ele>638.2</ele>
        <time>2022-07-29T08:08:24Z</time>
      </trkpt>
      <trkpt lat="48.01922" lon="6.79523">
        <ele>638.8</ele>
        <time>2022-07-29T08:08:25Z</time>
      </trkpt>
      <trkpt lat="48.01922" lon="6.79525">
        <ele>639</ele>
        <time>2022-07-29T08:08:26Z</time>
      </trkpt>
      <trkpt lat="48.01921" lon="6.79527">
        <ele>639.2</ele>
        <time>2022-07-29T08:08:27Z</time>
      </trkpt>
      <trkpt lat="48.0192" lon="6.79528">
        <ele>639.4</ele>
        <time>2022-07-29T08:08:28Z</time>
      </trkpt>
      <trkpt lat="48.01919" lon="6.7953">
        <ele>639.6</ele>
        <time>2022-07-29T08:08:29Z</time>
      </trkpt>
      <trkpt lat="48.01918" lon="6.79531">
        <ele>639.8</ele>
        <time>2022-07-29T08:08:30Z</time>
      </trkpt>
      <trkpt lat="48.01918" lon="6.79532">
        <ele>640</ele>
        <time>2022-07-29T08:08:31Z</time>
      </trkpt>
      <trkpt lat="48.01917" lon="6.79534">
        <ele>640.2</ele>
        <time>2022-07-29T08:08:32Z</time>
      </trkpt>
      <trkpt lat="48.01915" lon="6.79535">
        <ele>640.4</ele>
        <time>2022-07-29T08:08:33Z</time>
      </trkpt>
      <trkpt lat="48.01914" lon="6.79535">
        <ele>640.8</ele>
        <time>2022-07-29T08:08:34Z</time>
      </trkpt>
      <trkpt lat="48.01913" lon="6.79536">
        <ele>640.8</ele>
        <time>2022-07-29T08:08:35Z</time>
      </trkpt>
      <trkpt lat="48.01911" lon="6.79535">
        <ele>641</ele>
        <time>2022-07-29T08:08:36Z</time>
      </trkpt>
      <trkpt lat="48.0191" lon="6.79535">
        <ele>641.2</ele>
        <time>2022-07-29T08:08:37Z</time>
      </trkpt>
      <trkpt lat="48.01908" lon="6.79534">
        <ele>641.6</ele>
        <time>2022-07-29T08:08:38Z</time>
      </trkpt>
      <trkpt lat="48.01907" lon="6.79533">
        <ele>641.8</ele>
        <time>2022-07-29T08:08:39Z</time>
      </trkpt>
      <trkpt lat="48.01906" lon="6.79531">
        <ele>642.2</ele>
        <time>2022-07-29T08:08:40Z</time>
      </trkpt>
      <trkpt lat="48.01905" lon="6.79529">
        <ele>642.2</ele>
        <time>2022-07-29T08:08:41Z</time>
      </trkpt>
      <trkpt lat="48.01905" lon="6.79527">
        <ele>642.4</ele>
        <time>2022-07-29T08:08:42Z</time>
      </trkpt>
      <trkpt lat="48.01904" lon="6.79524">
        <ele>642.6</ele>
        <time>2022-07-29T08:08:43Z</time>
      </trkpt>
      <trkpt lat="48.01903" lon="6.79522">
        <ele>642.6</ele>
        <time>2022-07-29T08:08:44Z</time>
      </trkpt>
      <trkpt lat="48.01902" lon="6.79519">
        <ele>642.8</ele>
        <time>2022-07-29T08:08:45Z</time>
      </trkpt>
      <trkpt lat="48.01902" lon="6.79517">
        <ele>643</ele>
        <time>2022-07-29T08:08:46Z</time>
      </trkpt>
      <trkpt lat="48.01901" lon="6.79515">
        <ele>643.2</ele>
        <time>2022-07-29T08:08:47Z</time>
      </trkpt>
      <trkpt lat="48.01901" lon="6.79513">
        <ele>643.4</ele>
        <time>2022-07-29T08:08:48Z</time>
      </trkpt>
      <trkpt lat="48.019" lon="6.7951">
        <ele>643.4</ele>
        <time>2022-07-29T08:08:49Z</time>
      </trkpt>
      <trkpt lat="48.01899" lon="6.79508">
        <ele>643.6</ele>
        <time>2022-07-29T08:08:50Z</time>
      </trkpt>
      <trkpt lat="48.01899" lon="6.79505">
        <ele>643.8</ele>
        <time>2022-07-29T08:08:51Z</time>
      </trkpt>
      <trkpt lat="48.01898" lon="6.79503">
        <ele>643.8</ele>
        <time>2022-07-29T08:08:52Z</time>
      </trkpt>
      <trkpt lat="48.01898" lon="6.795">
        <ele>644</ele>
        <time>2022-07-29T08:08:53Z</time>
      </trkpt>
      <trkpt lat="48.01897" lon="6.79497">
        <ele>644</ele>
        <time>2022-07-29T08:08:54Z</time>
      </trkpt>
      <trkpt lat="48.01897" lon="6.79494">
        <ele>644.2</ele>
        <time>2022-07-29T08:08:55Z</time>
      </trkpt>
      <trkpt lat="48.01896" lon="6.79492">
        <ele>644.4</ele>
        <time>2022-07-29T08:08:56Z</time>
      </trkpt>
      <trkpt lat="48.01895" lon="6.79489">
        <ele>644.4</ele>
        <time>2022-07-29T08:08:57Z</time>
      </trkpt>
      <trkpt lat="48.01895" lon="6.79486">
        <ele>644.4</ele>
        <time>2022-07-29T08:08:58Z</time>
      </trkpt>
      <trkpt lat="48.01894" lon="6.79484">
        <ele>644.6</ele>
        <time>2022-07-29T08:08:59Z</time>
      </trkpt>
      <trkpt lat="48.01893" lon="6.79481">
        <ele>644.6</ele>
        <time>2022-07-29T08:09:00Z</time>
      </trkpt>
      <trkpt lat="48.01893" lon="6.79479">
        <ele>644.8</ele>
        <time>2022-07-29T08:09:01Z</time>
      </trkpt>
      <trkpt lat="48.01892" lon="6.79477">
        <ele>644.8</ele>
        <time>2022-07-29T08:09:02Z</time>
      </trkpt>
      <trkpt lat="48.01891" lon="6.79474">
        <ele>645</ele>
        <time>2022-07-29T08:09:03Z</time>
      </trkpt>
      <trkpt lat="48.0189" lon="6.79471">
        <ele>645</ele>
        <time>2022-07-29T08:09:04Z</time>
      </trkpt>
      <trkpt lat="48.0189" lon="6.79469">
        <ele>645</ele>
        <time>2022-07-29T08:09:05Z</time>
      </trkpt>
      <trkpt lat="48.01889" lon="6.79467">
        <ele>645</ele>
        <time>2022-07-29T08:09:06Z</time>
      </trkpt>
      <trkpt lat="48.01889" lon="6.79465">
        <ele>645.2</ele>
        <time>2022-07-29T08:09:07Z</time>
      </trkpt>
      <trkpt lat="48.01888" lon="6.79462">
        <ele>645.2</ele>
        <time>2022-07-29T08:09:08Z</time>
      </trkpt>
      <trkpt lat="48.01887" lon="6.7946">
        <ele>645.2</ele>
        <time>2022-07-29T08:09:09Z</time>
      </trkpt>
      <trkpt lat="48.01886" lon="6.79457">
        <ele>645.4</ele>
        <time>2022-07-29T08:09:10Z</time>
      </trkpt>
      <trkpt lat="48.01885" lon="6.79455">
        <ele>645.4</ele>
        <time>2022-07-29T08:09:11Z</time>
      </trkpt>
      <trkpt lat="48.01885" lon="6.79452">
        <ele>645.6</ele>
        <time>2022-07-29T08:09:12Z</time>
      </trkpt>
      <trkpt lat="48.01884" lon="6.7945">
        <ele>645.8</ele>
        <time>2022-07-29T08:09:13Z</time>
      </trkpt>
      <trkpt lat="48.01883" lon="6.79448">
        <ele>645.8</ele>
        <time>2022-07-29T08:09:14Z</time>
      </trkpt>
      <trkpt lat="48.01882" lon="6.79445">
        <ele>646</ele>
        <time>2022-07-29T08:09:15Z</time>
      </trkpt>
      <trkpt lat="48.01881" lon="6.79443">
        <ele>646</ele>
        <time>2022-07-29T08:09:16Z</time>
      </trkpt>
      <trkpt lat="48.01881" lon="6.7944">
        <ele>646.2</ele>
        <time>2022-07-29T08:09:17Z</time>
      </trkpt>
      <trkpt lat="48.0188" lon="6.79437">
        <ele>646.2</ele>
        <time>2022-07-29T08:09:18Z</time>
      </trkpt>
      <trkpt lat="48.01879" lon="6.79435">
        <ele>646.4</ele>
        <time>2022-07-29T08:09:19Z</time>
      </trkpt>
      <trkpt lat="48.01878" lon="6.79432">
        <ele>646.4</ele>
        <time>2022-07-29T08:09:20Z</time>
      </trkpt>
      <trkpt lat="48.01877" lon="6.79429">
        <ele>646.6</ele>
        <time>2022-07-29T08:09:21Z</time>
      </trkpt>
      <trkpt lat="48.01876" lon="6.79427">
        <ele>646.8</ele>
        <time>2022-07-29T08:09:22Z</time>
      </trkpt>
      <trkpt lat="48.01875" lon="6.79424">
        <ele>647</ele>
        <time>2022-07-29T08:09:23Z</time>
      </trkpt>
      <trkpt lat="48.01874" lon="6.79421">
        <ele>647</ele>
        <time>2022-07-29T08:09:24Z</time>
      </trkpt>
      <trkpt lat="48.01874" lon="6.79418">
        <ele>647.2</ele>
        <time>2022-07-29T08:09:25Z</time>
      </trkpt>
      <trkpt lat="48.01873" lon="6.79416">
        <ele>647.2</ele>
        <time>2022-07-29T08:09:26Z</time>
      </trkpt>
      <trkpt lat="48.01872" lon="6.79413">
        <ele>647.4</ele>
        <time>2022-07-29T08:09:27Z</time>
      </trkpt>
      <trkpt lat="48.01871" lon="6.79411">
        <ele>647.4</ele>
        <time>2022-07-29T08:09:28Z</time>
      </trkpt>
      <trkpt lat="48.0187" lon="6.79409">
        <ele>647.6</ele>
        <time>2022-07-29T08:09:29Z</time>
      </trkpt>
      <trkpt lat="48.0187" lon="6.79406">
        <ele>647.8</ele>
        <time>2022-07-29T08:09:30Z</time>
      </trkpt>
      <trkpt lat="48.01869" lon="6.79404">
        <ele>648</ele>
        <time>2022-07-29T08:09:31Z</time>
      </trkpt>
      <trkpt lat="48.01868" lon="6.79402">
        <ele>648.2</ele>
        <time>2022-07-29T08:09:32Z</time>
      </trkpt>
      <trkpt lat="48.01867" lon="6.794">
        <ele>648.4</ele>
        <time>2022-07-29T08:09:33Z</time>
      </trkpt>
      <trkpt lat="48.01865" lon="6.79398">
        <ele>648.6</ele>
        <time>2022-07-29T08:09:34Z</time>
      </trkpt>
      <trkpt lat="48.01864" lon="6.79396">
        <ele>649</ele>
        <time>2022-07-29T08:09:35Z</time>
      </trkpt>
      <trkpt lat="48.01863" lon="6.79395">
        <ele>649</ele>
        <time>2022-07-29T08:09:36Z</time>
      </trkpt>
      <trkpt lat="48.01862" lon="6.79393">
        <ele>649.2</ele>
        <time>2022-07-29T08:09:37Z</time>
      </trkpt>
      <trkpt lat="48.0186" lon="6.79392">
        <ele>649.4</ele>
        <time>2022-07-29T08:09:38Z</time>
      </trkpt>
      <trkpt lat="48.01859" lon="6.79391">
        <ele>649.6</ele>
        <time>2022-07-29T08:09:39Z</time>
      </trkpt>
      <trkpt lat="48.01858" lon="6.7939">
        <ele>649.8</ele>
        <time>2022-07-29T08:09:40Z</time>
      </trkpt>
      <trkpt lat="48.01856" lon="6.7939">
        <ele>649.8</ele>
        <time>2022-07-29T08:09:41Z</time>
      </trkpt>
      <trkpt lat="48.01855" lon="6.79389">
        <ele>650</ele>
        <time>2022-07-29T08:09:42Z</time>
      </trkpt>
      <trkpt lat="48.01853" lon="6.79388">
        <ele>650.2</ele>
        <time>2022-07-29T08:09:43Z</time>
      </trkpt>
      <trkpt lat="48.01852" lon="6.79388">
        <ele>650.4</ele>
        <time>2022-07-29T08:09:44Z</time>
      </trkpt>
      <trkpt lat="48.0185" lon="6.79388">
        <ele>650.4</ele>
        <time>2022-07-29T08:09:45Z</time>
      </trkpt>
      <trkpt lat="48.01849" lon="6.79389">
        <ele>650.8</ele>
        <time>2022-07-29T08:09:46Z</time>
      </trkpt>
      <trkpt lat="48.01848" lon="6.7939">
        <ele>650.8</ele>
        <time>2022-07-29T08:09:47Z</time>
      </trkpt>
      <trkpt lat="48.01847" lon="6.79391">
        <ele>651.2</ele>
        <time>2022-07-29T08:09:48Z</time>
      </trkpt>
      <trkpt lat="48.01846" lon="6.79392">
        <ele>651.4</ele>
        <time>2022-07-29T08:09:49Z</time>
      </trkpt>
      <trkpt lat="48.01845" lon="6.79394">
        <ele>651.6</ele>
        <time>2022-07-29T08:09:50Z</time>
      </trkpt>
      <trkpt lat="48.01844" lon="6.79395">
        <ele>651.8</ele>
        <time>2022-07-29T08:09:51Z</time>
      </trkpt>
      <trkpt lat="48.01843" lon="6.79397">
        <ele>652</ele>
        <time>2022-07-29T08:09:52Z</time>
      </trkpt>
      <trkpt lat="48.01843" lon="6.79399">
        <ele>652.4</ele>
        <time>2022-07-29T08:09:53Z</time>
      </trkpt>
      <trkpt lat="48.01842" lon="6.794">
        <ele>652.4</ele>
        <time>2022-07-29T08:09:54Z</time>
      </trkpt>
      <trkpt lat="48.01841" lon="6.79401">
        <ele>652.8</ele>
        <time>2022-07-29T08:09:55Z</time>
      </trkpt>
      <trkpt lat="48.0184" lon="6.79403">
        <ele>652.8</ele>
        <time>2022-07-29T08:09:56Z</time>
      </trkpt>
      <trkpt lat="48.0184" lon="6.79404">
        <ele>653.2</ele>
        <time>2022-07-29T08:09:57Z</time>
      </trkpt>
      <trkpt lat="48.0184" lon="6.79406">
        <ele>653.4</ele>
        <time>2022-07-29T08:09:58Z</time>
      </trkpt>
      <trkpt lat="48.01839" lon="6.79408">
        <ele>653.6</ele>
        <time>2022-07-29T08:09:59Z</time>
      </trkpt>
      <trkpt lat="48.01839" lon="6.7941">
        <ele>653.8</ele>
        <time>2022-07-29T08:10:00Z</time>
      </trkpt>
      <trkpt lat="48.01838" lon="6.79411">
        <ele>654.2</ele>
        <time>2022-07-29T08:10:01Z</time>
      </trkpt>
      <trkpt lat="48.01838" lon="6.79413">
        <ele>654.4</ele>
        <time>2022-07-29T08:10:02Z</time>
      </trkpt>
      <trkpt lat="48.01838" lon="6.79415">
        <ele>654.6</ele>
        <time>2022-07-29T08:10:03Z</time>
      </trkpt>
      <trkpt lat="48.01837" lon="6.79417">
        <ele>654.8</ele>
        <time>2022-07-29T08:10:04Z</time>
      </trkpt>
      <trkpt lat="48.01837" lon="6.79419">
        <ele>655</ele>
        <time>2022-07-29T08:10:05Z</time>
      </trkpt>
      <trkpt lat="48.01837" lon="6.79421">
        <ele>655.2</ele>
        <time>2022-07-29T08:10:06Z</time>
      </trkpt>
      <trkpt lat="48.01837" lon="6.79423">
        <ele>655.4</ele>
        <time>2022-07-29T08:10:07Z</time>
      </trkpt>
      <trkpt lat="48.01837" lon="6.79425">
        <ele>655.6</ele>
        <time>2022-07-29T08:10:08Z</time>
      </trkpt>
      <trkpt lat="48.01837" lon="6.79427">
        <ele>656</ele>
        <time>2022-07-29T08:10:09Z</time>
      </trkpt>
      <trkpt lat="48.01837" lon="6.79429">
        <ele>656.2</ele>
        <time>2022-07-29T08:10:10Z</time>
      </trkpt>
      <trkpt lat="48.01836" lon="6.79431">
        <ele>656.4</ele>
        <time>2022-07-29T08:10:11Z</time>
      </trkpt>
      <trkpt lat="48.01836" lon="6.79433">
        <ele>656.6</ele>
        <time>2022-07-29T08:10:12Z</time>
      </trkpt>
      <trkpt lat="48.01836" lon="6.79435">
        <ele>656.8</ele>
        <time>2022-07-29T08:10:13Z</time>
      </trkpt>
      <trkpt lat="48.01836" lon="6.79437">
        <ele>657</ele>
        <time>2022-07-29T08:10:14Z</time>
      </trkpt>
      <trkpt lat="48.01836" lon="6.79438">
        <ele>657.2</ele>
        <time>2022-07-29T08:10:15Z</time>
      </trkpt>
      <trkpt lat="48.01836" lon="6.7944">
        <ele>657.4</ele>
        <time>2022-07-29T08:10:16Z</time>
      </trkpt>
      <trkpt lat="48.01836" lon="6.79443">
        <ele>657.6</ele>
        <time>2022-07-29T08:10:17Z</time>
      </trkpt>
      <trkpt lat="48.01836" lon="6.79445">
        <ele>657.8</ele>
        <time>2022-07-29T08:10:18Z</time>
      </trkpt>
      <trkpt lat="48.01836" lon="6.79447">
        <ele>657.8</ele>
        <time>2022-07-29T08:10:19Z</time>
      </trkpt>
      <trkpt lat="48.01836" lon="6.79449">
        <ele>658</ele>
        <time>2022-07-29T08:10:20Z</time>
      </trkpt>
      <trkpt lat="48.01836" lon="6.7945">
        <ele>658.2</ele>
        <time>2022-07-29T08:10:21Z</time>
      </trkpt>
      <trkpt lat="48.01836" lon="6.79452">
        <ele>658.4</ele>
        <time>2022-07-29T08:10:22Z</time>
      </trkpt>
      <trkpt lat="48.01836" lon="6.79454">
        <ele>658.4</ele>
        <time>2022-07-29T08:10:23Z</time>
      </trkpt>
      <trkpt lat="48.01836" lon="6.79455">
        <ele>658.8</ele>
        <time>2022-07-29T08:10:24Z</time>
      </trkpt>
      <trkpt lat="48.01836" lon="6.79457">
        <ele>659</ele>
        <time>2022-07-29T08:10:25Z</time>
      </trkpt>
      <trkpt lat="48.01836" lon="6.79458">
        <ele>659</ele>
        <time>2022-07-29T08:10:26Z</time>
      </trkpt>
      <trkpt lat="48.01835" lon="6.7946">
        <ele>659.4</ele>
        <time>2022-07-29T08:10:27Z</time>
      </trkpt>
      <trkpt lat="48.01835" lon="6.79461">
        <ele>659.6</ele>
        <time>2022-07-29T08:10:28Z</time>
      </trkpt>
      <trkpt lat="48.01835" lon="6.79463">
        <ele>659.8</ele>
        <time>2022-07-29T08:10:29Z</time>
      </trkpt>
      <trkpt lat="48.01835" lon="6.79465">
        <ele>660</ele>
        <time>2022-07-29T08:10:30Z</time>
      </trkpt>
      <trkpt lat="48.01835" lon="6.79467">
        <ele>660.4</ele>
        <time>2022-07-29T08:10:31Z</time>
      </trkpt>
      <trkpt lat="48.01834" lon="6.79468">
        <ele>660.4</ele>
        <time>2022-07-29T08:10:32Z</time>
      </trkpt>
      <trkpt lat="48.01834" lon="6.7947">
        <ele>660.6</ele>
        <time>2022-07-29T08:10:33Z</time>
      </trkpt>
      <trkpt lat="48.01834" lon="6.79472">
        <ele>660.8</ele>
        <time>2022-07-29T08:10:34Z</time>
      </trkpt>
      <trkpt lat="48.01833" lon="6.79474">
        <ele>661</ele>
        <time>2022-07-29T08:10:35Z</time>
      </trkpt>
      <trkpt lat="48.01833" lon="6.79475">
        <ele>661.2</ele>
        <time>2022-07-29T08:10:36Z</time>
      </trkpt>
      <trkpt lat="48.01833" lon="6.79477">
        <ele>661.4</ele>
        <time>2022-07-29T08:10:37Z</time>
      </trkpt>
      <trkpt lat="48.01832" lon="6.79478">
        <ele>661.6</ele>
        <time>2022-07-29T08:10:38Z</time>
      </trkpt>
      <trkpt lat="48.01832" lon="6.7948">
        <ele>661.6</ele>
        <time>2022-07-29T08:10:39Z</time>
      </trkpt>
      <trkpt lat="48.01831" lon="6.79482">
        <ele>662</ele>
        <time>2022-07-29T08:10:40Z</time>
      </trkpt>
      <trkpt lat="48.01831" lon="6.79484">
        <ele>662</ele>
        <time>2022-07-29T08:10:41Z</time>
      </trkpt>
      <trkpt lat="48.0183" lon="6.79486">
        <ele>662.2</ele>
        <time>2022-07-29T08:10:42Z</time>
      </trkpt>
      <trkpt lat="48.0183" lon="6.79488">
        <ele>662.4</ele>
        <time>2022-07-29T08:10:43Z</time>
      </trkpt>
      <trkpt lat="48.0183" lon="6.79489">
        <ele>662.6</ele>
        <time>2022-07-29T08:10:44Z</time>
      </trkpt>
      <trkpt lat="48.0183" lon="6.79491">
        <ele>662.8</ele>
        <time>2022-07-29T08:10:45Z</time>
      </trkpt>
      <trkpt lat="48.0183" lon="6.79493">
        <ele>663</ele>
        <time>2022-07-29T08:10:46Z</time>
      </trkpt>
      <trkpt lat="48.0183" lon="6.79494">
        <ele>663.2</ele>
        <time>2022-07-29T08:10:47Z</time>
      </trkpt>
      <trkpt lat="48.01829" lon="6.79496">
        <ele>663.4</ele>
        <time>2022-07-29T08:10:48Z</time>
      </trkpt>
      <trkpt lat="48.01829" lon="6.79497">
        <ele>663.6</ele>
        <time>2022-07-29T08:10:49Z</time>
      </trkpt>
      <trkpt lat="48.01828" lon="6.79499">
        <ele>663.8</ele>
        <time>2022-07-29T08:10:50Z</time>
      </trkpt>
      <trkpt lat="48.01828" lon="6.795">
        <ele>664</ele>
        <time>2022-07-29T08:10:51Z</time>
      </trkpt>
      <trkpt lat="48.01828" lon="6.79501">
        <ele>664</ele>
        <time>2022-07-29T08:10:52Z</time>
      </trkpt>
      <trkpt lat="48.01827" lon="6.79503">
        <ele>664.4</ele>
        <time>2022-07-29T08:10:53Z</time>
      </trkpt>
      <trkpt lat="48.01827" lon="6.79504">
        <ele>664.6</ele>
        <time>2022-07-29T08:10:54Z</time>
      </trkpt>
      <trkpt lat="48.01827" lon="6.79506">
        <ele>664.4</ele>
        <time>2022-07-29T08:10:55Z</time>
      </trkpt>
      <trkpt lat="48.01826" lon="6.79508">
        <ele>664.8</ele>
        <time>2022-07-29T08:10:56Z</time>
      </trkpt>
      <trkpt lat="48.01826" lon="6.79509">
        <ele>664.8</ele>
        <time>2022-07-29T08:10:57Z</time>
      </trkpt>
      <trkpt lat="48.01825" lon="6.79511">
        <ele>664.8</ele>
        <time>2022-07-29T08:10:58Z</time>
      </trkpt>
      <trkpt lat="48.01825" lon="6.79512">
        <ele>664.8</ele>
        <time>2022-07-29T08:10:59Z</time>
      </trkpt>
      <trkpt lat="48.01824" lon="6.79514">
        <ele>665.2</ele>
        <time>2022-07-29T08:11:00Z</time>
      </trkpt>
      <trkpt lat="48.01823" lon="6.79516">
        <ele>665.4</ele>
        <time>2022-07-29T08:11:01Z</time>
      </trkpt>
      <trkpt lat="48.01823" lon="6.79517">
        <ele>665.6</ele>
        <time>2022-07-29T08:11:02Z</time>
      </trkpt>
      <trkpt lat="48.01822" lon="6.79519">
        <ele>665.8</ele>
        <time>2022-07-29T08:11:03Z</time>
      </trkpt>
      <trkpt lat="48.01822" lon="6.7952">
        <ele>665.8</ele>
        <time>2022-07-29T08:11:04Z</time>
      </trkpt>
      <trkpt lat="48.01821" lon="6.79522">
        <ele>666.2</ele>
        <time>2022-07-29T08:11:05Z</time>
      </trkpt>
      <trkpt lat="48.0182" lon="6.79523">
        <ele>666.2</ele>
        <time>2022-07-29T08:11:06Z</time>
      </trkpt>
      <trkpt lat="48.01819" lon="6.79524">
        <ele>666.6</ele>
        <time>2022-07-29T08:11:07Z</time>
      </trkpt>
      <trkpt lat="48.01819" lon="6.79526">
        <ele>666.8</ele>
        <time>2022-07-29T08:11:08Z</time>
      </trkpt>
      <trkpt lat="48.01818" lon="6.79527">
        <ele>667.2</ele>
        <time>2022-07-29T08:11:09Z</time>
      </trkpt>
      <trkpt lat="48.01818" lon="6.79529">
        <ele>667.4</ele>
        <time>2022-07-29T08:11:10Z</time>
      </trkpt>
      <trkpt lat="48.01818" lon="6.79531">
        <ele>667.6</ele>
        <time>2022-07-29T08:11:11Z</time>
      </trkpt>
      <trkpt lat="48.01817" lon="6.79533">
        <ele>667.8</ele>
        <time>2022-07-29T08:11:12Z</time>
      </trkpt>
      <trkpt lat="48.01817" lon="6.79535">
        <ele>668</ele>
        <time>2022-07-29T08:11:13Z</time>
      </trkpt>
      <trkpt lat="48.01816" lon="6.79536">
        <ele>668.2</ele>
        <time>2022-07-29T08:11:14Z</time>
      </trkpt>
      <trkpt lat="48.01816" lon="6.79538">
        <ele>668.2</ele>
        <time>2022-07-29T08:11:15Z</time>
      </trkpt>
      <trkpt lat="48.01816" lon="6.79539">
        <ele>668.2</ele>
        <time>2022-07-29T08:11:16Z</time>
      </trkpt>
      <trkpt lat="48.01815" lon="6.79541">
        <ele>668.4</ele>
        <time>2022-07-29T08:11:17Z</time>
      </trkpt>
      <trkpt lat="48.01815" lon="6.79543">
        <ele>668.6</ele>
        <time>2022-07-29T08:11:18Z</time>
      </trkpt>
      <trkpt lat="48.01815" lon="6.79545">
        <ele>669</ele>
        <time>2022-07-29T08:11:19Z</time>
      </trkpt>
      <trkpt lat="48.01815" lon="6.79547">
        <ele>669.2</ele>
        <time>2022-07-29T08:11:20Z</time>
      </trkpt>
      <trkpt lat="48.01814" lon="6.79548">
        <ele>669.4</ele>
        <time>2022-07-29T08:11:21Z</time>
      </trkpt>
      <trkpt lat="48.01814" lon="6.7955">
        <ele>669.6</ele>
        <time>2022-07-29T08:11:22Z</time>
      </trkpt>
      <trkpt lat="48.01813" lon="6.79552">
        <ele>669.8</ele>
        <time>2022-07-29T08:11:23Z</time>
      </trkpt>
      <trkpt lat="48.01813" lon="6.79554">
        <ele>670</ele>
        <time>2022-07-29T08:11:24Z</time>
      </trkpt>
      <trkpt lat="48.01813" lon="6.79555">
        <ele>670.2</ele>
        <time>2022-07-29T08:11:25Z</time>
      </trkpt>
      <trkpt lat="48.01813" lon="6.79558">
        <ele>670.2</ele>
        <time>2022-07-29T08:11:26Z</time>
      </trkpt>
      <trkpt lat="48.01813" lon="6.7956">
        <ele>670.6</ele>
        <time>2022-07-29T08:11:27Z</time>
      </trkpt>
      <trkpt lat="48.01812" lon="6.79561">
        <ele>670.8</ele>
        <time>2022-07-29T08:11:28Z</time>
      </trkpt>
      <trkpt lat="48.01812" lon="6.79563">
        <ele>671</ele>
        <time>2022-07-29T08:11:29Z</time>
      </trkpt>
      <trkpt lat="48.01811" lon="6.79564">
        <ele>671.2</ele>
        <time>2022-07-29T08:11:30Z</time>
      </trkpt>
      <trkpt lat="48.01811" lon="6.79566">
        <ele>671.4</ele>
        <time>2022-07-29T08:11:31Z</time>
      </trkpt>
      <trkpt lat="48.0181" lon="6.79568">
        <ele>671.6</ele>
        <time>2022-07-29T08:11:32Z</time>
      </trkpt>
      <trkpt lat="48.01809" lon="6.79569">
        <ele>671.6</ele>
        <time>2022-07-29T08:11:33Z</time>
      </trkpt>
      <trkpt lat="48.01808" lon="6.79571">
        <ele>672</ele>
        <time>2022-07-29T08:11:34Z</time>
      </trkpt>
      <trkpt lat="48.01808" lon="6.79572">
        <ele>672.2</ele>
        <time>2022-07-29T08:11:35Z</time>
      </trkpt>
      <trkpt lat="48.01807" lon="6.79574">
        <ele>672.4</ele>
        <time>2022-07-29T08:11:36Z</time>
      </trkpt>
      <trkpt lat="48.01806" lon="6.79575">
        <ele>672.6</ele>
        <time>2022-07-29T08:11:37Z</time>
      </trkpt>
      <trkpt lat="48.01806" lon="6.79577">
        <ele>672.6</ele>
        <time>2022-07-29T08:11:38Z</time>
      </trkpt>
      <trkpt lat="48.01805" lon="6.79579">
        <ele>673</ele>
        <time>2022-07-29T08:11:39Z</time>
      </trkpt>
      <trkpt lat="48.01805" lon="6.7958">
        <ele>673</ele>
        <time>2022-07-29T08:11:40Z</time>
      </trkpt>
      <trkpt lat="48.01804" lon="6.79582">
        <ele>673.2</ele>
        <time>2022-07-29T08:11:41Z</time>
      </trkpt>
      <trkpt lat="48.01803" lon="6.79583">
        <ele>673.4</ele>
        <time>2022-07-29T08:11:42Z</time>
      </trkpt>
      <trkpt lat="48.01803" lon="6.79585">
        <ele>673.6</ele>
        <time>2022-07-29T08:11:43Z</time>
      </trkpt>
      <trkpt lat="48.01802" lon="6.79587">
        <ele>673.8</ele>
        <time>2022-07-29T08:11:44Z</time>
      </trkpt>
      <trkpt lat="48.01801" lon="6.79588">
        <ele>674.2</ele>
        <time>2022-07-29T08:11:45Z</time>
      </trkpt>
      <trkpt lat="48.01801" lon="6.79589">
        <ele>674.4</ele>
        <time>2022-07-29T08:11:46Z</time>
      </trkpt>
      <trkpt lat="48.018" lon="6.7959">
        <ele>674.6</ele>
        <time>2022-07-29T08:11:47Z</time>
      </trkpt>
      <trkpt lat="48.01799" lon="6.79592">
        <ele>675</ele>
        <time>2022-07-29T08:11:48Z</time>
      </trkpt>
      <trkpt lat="48.01798" lon="6.79593">
        <ele>675</ele>
        <time>2022-07-29T08:11:49Z</time>
      </trkpt>
      <trkpt lat="48.01797" lon="6.79595">
        <ele>675.2</ele>
        <time>2022-07-29T08:11:50Z</time>
      </trkpt>
      <trkpt lat="48.01796" lon="6.79596">
        <ele>675.4</ele>
        <time>2022-07-29T08:11:51Z</time>
      </trkpt>
      <trkpt lat="48.01795" lon="6.79597">
        <ele>675.8</ele>
        <time>2022-07-29T08:11:52Z</time>
      </trkpt>
      <trkpt lat="48.01794" lon="6.79598">
        <ele>675.8</ele>
        <time>2022-07-29T08:11:53Z</time>
      </trkpt>
      <trkpt lat="48.01793" lon="6.79599">
        <ele>676.2</ele>
        <time>2022-07-29T08:11:54Z</time>
      </trkpt>
      <trkpt lat="48.01792" lon="6.796">
        <ele>676.4</ele>
        <time>2022-07-29T08:11:55Z</time>
      </trkpt>
      <trkpt lat="48.01792" lon="6.79601">
        <ele>676.4</ele>
        <time>2022-07-29T08:11:56Z</time>
      </trkpt>
      <trkpt lat="48.01791" lon="6.79602">
        <ele>676.6</ele>
        <time>2022-07-29T08:11:57Z</time>
      </trkpt>
      <trkpt lat="48.0179" lon="6.79603">
        <ele>676.8</ele>
        <time>2022-07-29T08:11:58Z</time>
      </trkpt>
      <trkpt lat="48.0179" lon="6.79605">
        <ele>677.2</ele>
        <time>2022-07-29T08:11:59Z</time>
      </trkpt>
      <trkpt lat="48.01789" lon="6.79606">
        <ele>677.4</ele>
        <time>2022-07-29T08:12:00Z</time>
      </trkpt>
      <trkpt lat="48.01788" lon="6.79607">
        <ele>677.6</ele>
        <time>2022-07-29T08:12:01Z</time>
      </trkpt>
      <trkpt lat="48.01787" lon="6.79608">
        <ele>677.6</ele>
        <time>2022-07-29T08:12:02Z</time>
      </trkpt>
      <trkpt lat="48.01787" lon="6.7961">
        <ele>678</ele>
        <time>2022-07-29T08:12:03Z</time>
      </trkpt>
      <trkpt lat="48.01786" lon="6.79611">
        <ele>678.2</ele>
        <time>2022-07-29T08:12:04Z</time>
      </trkpt>
      <trkpt lat="48.01785" lon="6.79613">
        <ele>678.2</ele>
        <time>2022-07-29T08:12:05Z</time>
      </trkpt>
      <trkpt lat="48.01784" lon="6.79614">
        <ele>678.6</ele>
        <time>2022-07-29T08:12:06Z</time>
      </trkpt>
      <trkpt lat="48.01783" lon="6.79616">
        <ele>678.6</ele>
        <time>2022-07-29T08:12:07Z</time>
      </trkpt>
      <trkpt lat="48.01782" lon="6.79617">
        <ele>678.8</ele>
        <time>2022-07-29T08:12:08Z</time>
      </trkpt>
      <trkpt lat="48.01781" lon="6.79619">
        <ele>679</ele>
        <time>2022-07-29T08:12:09Z</time>
      </trkpt>
      <trkpt lat="48.0178" lon="6.7962">
        <ele>679.4</ele>
        <time>2022-07-29T08:12:10Z</time>
      </trkpt>
      <trkpt lat="48.0178" lon="6.79622">
        <ele>679.4</ele>
        <time>2022-07-29T08:12:11Z</time>
      </trkpt>
      <trkpt lat="48.01779" lon="6.79623">
        <ele>679.6</ele>
        <time>2022-07-29T08:12:12Z</time>
      </trkpt>
      <trkpt lat="48.01778" lon="6.79624">
        <ele>680</ele>
        <time>2022-07-29T08:12:13Z</time>
      </trkpt>
      <trkpt lat="48.01777" lon="6.79626">
        <ele>680.2</ele>
        <time>2022-07-29T08:12:14Z</time>
      </trkpt>
      <trkpt lat="48.01776" lon="6.79627">
        <ele>680.4</ele>
        <time>2022-07-29T08:12:15Z</time>
      </trkpt>
      <trkpt lat="48.01775" lon="6.79628">
        <ele>680.4</ele>
        <time>2022-07-29T08:12:16Z</time>
      </trkpt>
      <trkpt lat="48.01774" lon="6.79629">
        <ele>680.6</ele>
        <time>2022-07-29T08:12:17Z</time>
      </trkpt>
      <trkpt lat="48.01773" lon="6.7963">
        <ele>680.8</ele>
        <time>2022-07-29T08:12:18Z</time>
      </trkpt>
      <trkpt lat="48.01772" lon="6.79631">
        <ele>681</ele>
        <time>2022-07-29T08:12:19Z</time>
      </trkpt>
      <trkpt lat="48.01771" lon="6.79633">
        <ele>681</ele>
        <time>2022-07-29T08:12:20Z</time>
      </trkpt>
      <trkpt lat="48.0177" lon="6.79634">
        <ele>681.4</ele>
        <time>2022-07-29T08:12:21Z</time>
      </trkpt>
      <trkpt lat="48.01769" lon="6.79636">
        <ele>681.6</ele>
        <time>2022-07-29T08:12:22Z</time>
      </trkpt>
      <trkpt lat="48.01769" lon="6.79638">
        <ele>681.6</ele>
        <time>2022-07-29T08:12:23Z</time>
      </trkpt>
      <trkpt lat="48.01768" lon="6.7964">
        <ele>682</ele>
        <time>2022-07-29T08:12:24Z</time>
      </trkpt>
      <trkpt lat="48.01767" lon="6.79642">
        <ele>682</ele>
        <time>2022-07-29T08:12:25Z</time>
      </trkpt>
      <trkpt lat="48.01766" lon="6.79643">
        <ele>682.2</ele>
        <time>2022-07-29T08:12:26Z</time>
      </trkpt>
      <trkpt lat="48.01765" lon="6.79645">
        <ele>682.4</ele>
        <time>2022-07-29T08:12:27Z</time>
      </trkpt>
      <trkpt lat="48.01764" lon="6.79647">
        <ele>682.6</ele>
        <time>2022-07-29T08:12:28Z</time>
      </trkpt>
      <trkpt lat="48.01764" lon="6.79648">
        <ele>682.6</ele>
        <time>2022-07-29T08:12:29Z</time>
      </trkpt>
      <trkpt lat="48.01763" lon="6.79649">
        <ele>683</ele>
        <time>2022-07-29T08:12:30Z</time>
      </trkpt>
      <trkpt lat="48.01762" lon="6.79651">
        <ele>683.2</ele>
        <time>2022-07-29T08:12:31Z</time>
      </trkpt>
      <trkpt lat="48.01761" lon="6.79652">
        <ele>683.2</ele>
        <time>2022-07-29T08:12:32Z</time>
      </trkpt>
      <trkpt lat="48.0176" lon="6.79653">
        <ele>683.6</ele>
        <time>2022-07-29T08:12:33Z</time>
      </trkpt>
      <trkpt lat="48.01759" lon="6.79655">
        <ele>683.6</ele>
        <time>2022-07-29T08:12:34Z</time>
      </trkpt>
      <trkpt lat="48.01758" lon="6.79656">
        <ele>683.8</ele>
        <time>2022-07-29T08:12:35Z</time>
      </trkpt>
      <trkpt lat="48.01757" lon="6.79658">
        <ele>683.8</ele>
        <time>2022-07-29T08:12:36Z</time>
      </trkpt>
      <trkpt lat="48.01756" lon="6.79659">
        <ele>684</ele>
        <time>2022-07-29T08:12:37Z</time>
      </trkpt>
      <trkpt lat="48.01755" lon="6.7966">
        <ele>684.2</ele>
        <time>2022-07-29T08:12:38Z</time>
      </trkpt>
      <trkpt lat="48.01754" lon="6.79662">
        <ele>684.4</ele>
        <time>2022-07-29T08:12:39Z</time>
      </trkpt>
      <trkpt lat="48.01753" lon="6.79663">
        <ele>684.6</ele>
        <time>2022-07-29T08:12:40Z</time>
      </trkpt>
      <trkpt lat="48.01752" lon="6.79664">
        <ele>684.6</ele>
        <time>2022-07-29T08:12:41Z</time>
      </trkpt>
      <trkpt lat="48.01751" lon="6.79666">
        <ele>684.8</ele>
        <time>2022-07-29T08:12:42Z</time>
      </trkpt>
      <trkpt lat="48.0175" lon="6.79667">
        <ele>684.8</ele>
        <time>2022-07-29T08:12:43Z</time>
      </trkpt>
      <trkpt lat="48.01749" lon="6.79668">
        <ele>685</ele>
        <time>2022-07-29T08:12:44Z</time>
      </trkpt>
      <trkpt lat="48.01748" lon="6.7967">
        <ele>685.2</ele>
        <time>2022-07-29T08:12:45Z</time>
      </trkpt>
      <trkpt lat="48.01747" lon="6.79672">
        <ele>685.6</ele>
        <time>2022-07-29T08:12:46Z</time>
      </trkpt>
      <trkpt lat="48.01746" lon="6.79673">
        <ele>685.6</ele>
        <time>2022-07-29T08:12:47Z</time>
      </trkpt>
      <trkpt lat="48.01745" lon="6.79675">
        <ele>685.8</ele>
        <time>2022-07-29T08:12:48Z</time>
      </trkpt>
      <trkpt lat="48.01744" lon="6.79677">
        <ele>685.8</ele>
        <time>2022-07-29T08:12:49Z</time>
      </trkpt>
      <trkpt lat="48.01743" lon="6.79679">
        <ele>686</ele>
        <time>2022-07-29T08:12:50Z</time>
      </trkpt>
      <trkpt lat="48.01742" lon="6.7968">
        <ele>686.2</ele>
        <time>2022-07-29T08:12:51Z</time>
      </trkpt>
      <trkpt lat="48.01741" lon="6.79681">
        <ele>686.2</ele>
        <time>2022-07-29T08:12:52Z</time>
      </trkpt>
      <trkpt lat="48.0174" lon="6.79683">
        <ele>686.4</ele>
        <time>2022-07-29T08:12:53Z</time>
      </trkpt>
      <trkpt lat="48.01739" lon="6.79684">
        <ele>686.6</ele>
        <time>2022-07-29T08:12:54Z</time>
      </trkpt>
      <trkpt lat="48.01738" lon="6.79686">
        <ele>687</ele>
        <time>2022-07-29T08:12:55Z</time>
      </trkpt>
      <trkpt lat="48.01737" lon="6.79688">
        <ele>687.2</ele>
        <time>2022-07-29T08:12:56Z</time>
      </trkpt>
      <trkpt lat="48.01736" lon="6.7969">
        <ele>687.4</ele>
        <time>2022-07-29T08:12:57Z</time>
      </trkpt>
      <trkpt lat="48.01735" lon="6.79691">
        <ele>687.6</ele>
        <time>2022-07-29T08:12:58Z</time>
      </trkpt>
      <trkpt lat="48.01734" lon="6.79692">
        <ele>687.8</ele>
        <time>2022-07-29T08:12:59Z</time>
      </trkpt>
      <trkpt lat="48.01733" lon="6.79693">
        <ele>687.8</ele>
        <time>2022-07-29T08:13:00Z</time>
      </trkpt>
      <trkpt lat="48.01732" lon="6.79695">
        <ele>688</ele>
        <time>2022-07-29T08:13:01Z</time>
      </trkpt>
      <trkpt lat="48.0173" lon="6.79696">
        <ele>688.2</ele>
        <time>2022-07-29T08:13:02Z</time>
      </trkpt>
      <trkpt lat="48.01729" lon="6.79698">
        <ele>688.2</ele>
        <time>2022-07-29T08:13:03Z</time>
      </trkpt>
      <trkpt lat="48.01728" lon="6.797">
        <ele>688.4</ele>
        <time>2022-07-29T08:13:04Z</time>
      </trkpt>
      <trkpt lat="48.01727" lon="6.79701">
        <ele>688.8</ele>
        <time>2022-07-29T08:13:05Z</time>
      </trkpt>
      <trkpt lat="48.01726" lon="6.79703">
        <ele>688.6</ele>
        <time>2022-07-29T08:13:06Z</time>
      </trkpt>
      <trkpt lat="48.01725" lon="6.79705">
        <ele>688.8</ele>
        <time>2022-07-29T08:13:07Z</time>
      </trkpt>
      <trkpt lat="48.01724" lon="6.79706">
        <ele>689</ele>
        <time>2022-07-29T08:13:08Z</time>
      </trkpt>
      <trkpt lat="48.01722" lon="6.79707">
        <ele>689.4</ele>
        <time>2022-07-29T08:13:09Z</time>
      </trkpt>
      <trkpt lat="48.01721" lon="6.79708">
        <ele>689.6</ele>
        <time>2022-07-29T08:13:10Z</time>
      </trkpt>
      <trkpt lat="48.0172" lon="6.7971">
        <ele>689.8</ele>
        <time>2022-07-29T08:13:11Z</time>
      </trkpt>
      <trkpt lat="48.0172" lon="6.79711">
        <ele>689.8</ele>
        <time>2022-07-29T08:13:12Z</time>
      </trkpt>
      <trkpt lat="48.01719" lon="6.79713">
        <ele>690</ele>
        <time>2022-07-29T08:13:13Z</time>
      </trkpt>
      <trkpt lat="48.01718" lon="6.79714">
        <ele>690.2</ele>
        <time>2022-07-29T08:13:14Z</time>
      </trkpt>
      <trkpt lat="48.01717" lon="6.79716">
        <ele>690.2</ele>
        <time>2022-07-29T08:13:15Z</time>
      </trkpt>
      <trkpt lat="48.01715" lon="6.79717">
        <ele>690.6</ele>
        <time>2022-07-29T08:13:16Z</time>
      </trkpt>
      <trkpt lat="48.01714" lon="6.79719">
        <ele>690.6</ele>
        <time>2022-07-29T08:13:17Z</time>
      </trkpt>
      <trkpt lat="48.01713" lon="6.7972">
        <ele>690.8</ele>
        <time>2022-07-29T08:13:18Z</time>
      </trkpt>
      <trkpt lat="48.01712" lon="6.79722">
        <ele>691</ele>
        <time>2022-07-29T08:13:19Z</time>
      </trkpt>
      <trkpt lat="48.0171" lon="6.79723">
        <ele>691.2</ele>
        <time>2022-07-29T08:13:20Z</time>
      </trkpt>
      <trkpt lat="48.01709" lon="6.79724">
        <ele>691.2</ele>
        <time>2022-07-29T08:13:21Z</time>
      </trkpt>
      <trkpt lat="48.01708" lon="6.79726">
        <ele>691.4</ele>
        <time>2022-07-29T08:13:22Z</time>
      </trkpt>
      <trkpt lat="48.01707" lon="6.79727">
        <ele>691.8</ele>
        <time>2022-07-29T08:13:23Z</time>
      </trkpt>
      <trkpt lat="48.01706" lon="6.79728">
        <ele>691.8</ele>
        <time>2022-07-29T08:13:24Z</time>
      </trkpt>
      <trkpt lat="48.01704" lon="6.79729">
        <ele>692</ele>
        <time>2022-07-29T08:13:25Z</time>
      </trkpt>
      <trkpt lat="48.01703" lon="6.7973">
        <ele>692.2</ele>
        <time>2022-07-29T08:13:26Z</time>
      </trkpt>
      <trkpt lat="48.01702" lon="6.79732">
        <ele>692.4</ele>
        <time>2022-07-29T08:13:27Z</time>
      </trkpt>
      <trkpt lat="48.017" lon="6.79733">
        <ele>692.4</ele>
        <time>2022-07-29T08:13:28Z</time>
      </trkpt>
      <trkpt lat="48.01699" lon="6.79734">
        <ele>692.6</ele>
        <time>2022-07-29T08:13:29Z</time>
      </trkpt>
      <trkpt lat="48.01697" lon="6.79735">
        <ele>692.8</ele>
        <time>2022-07-29T08:13:30Z</time>
      </trkpt>
      <trkpt lat="48.01696" lon="6.79736">
        <ele>693.2</ele>
        <time>2022-07-29T08:13:31Z</time>
      </trkpt>
      <trkpt lat="48.01695" lon="6.79737">
        <ele>693.4</ele>
        <time>2022-07-29T08:13:32Z</time>
      </trkpt>
      <trkpt lat="48.01693" lon="6.79739">
        <ele>693.4</ele>
        <time>2022-07-29T08:13:33Z</time>
      </trkpt>
      <trkpt lat="48.01692" lon="6.7974">
        <ele>693.6</ele>
        <time>2022-07-29T08:13:34Z</time>
      </trkpt>
      <trkpt lat="48.01691" lon="6.79741">
        <ele>693.6</ele>
        <time>2022-07-29T08:13:35Z</time>
      </trkpt>
      <trkpt lat="48.01689" lon="6.79742">
        <ele>694</ele>
        <time>2022-07-29T08:13:36Z</time>
      </trkpt>
      <trkpt lat="48.01688" lon="6.79744">
        <ele>694</ele>
        <time>2022-07-29T08:13:37Z</time>
      </trkpt>
      <trkpt lat="48.01687" lon="6.79745">
        <ele>694.2</ele>
        <time>2022-07-29T08:13:38Z</time>
      </trkpt>
      <trkpt lat="48.01686" lon="6.79746">
        <ele>694.4</ele>
        <time>2022-07-29T08:13:39Z</time>
      </trkpt>
      <trkpt lat="48.01685" lon="6.79748">
        <ele>694.6</ele>
        <time>2022-07-29T08:13:40Z</time>
      </trkpt>
      <trkpt lat="48.01684" lon="6.79749">
        <ele>694.8</ele>
        <time>2022-07-29T08:13:41Z</time>
      </trkpt>
      <trkpt lat="48.01682" lon="6.7975">
        <ele>695</ele>
        <time>2022-07-29T08:13:42Z</time>
      </trkpt>
      <trkpt lat="48.01681" lon="6.79752">
        <ele>695.2</ele>
        <time>2022-07-29T08:13:43Z</time>
      </trkpt>
      <trkpt lat="48.0168" lon="6.79754">
        <ele>695.2</ele>
        <time>2022-07-29T08:13:44Z</time>
      </trkpt>
      <trkpt lat="48.01679" lon="6.79755">
        <ele>695.4</ele>
        <time>2022-07-29T08:13:45Z</time>
      </trkpt>
      <trkpt lat="48.01678" lon="6.79756">
        <ele>695.6</ele>
        <time>2022-07-29T08:13:46Z</time>
      </trkpt>
      <trkpt lat="48.01677" lon="6.79758">
        <ele>695.8</ele>
        <time>2022-07-29T08:13:47Z</time>
      </trkpt>
      <trkpt lat="48.01675" lon="6.79758">
        <ele>696</ele>
        <time>2022-07-29T08:13:48Z</time>
      </trkpt>
      <trkpt lat="48.01674" lon="6.79759">
        <ele>696.2</ele>
        <time>2022-07-29T08:13:49Z</time>
      </trkpt>
      <trkpt lat="48.01673" lon="6.7976">
        <ele>696.4</ele>
        <time>2022-07-29T08:13:50Z</time>
      </trkpt>
      <trkpt lat="48.01671" lon="6.79761">
        <ele>696.6</ele>
        <time>2022-07-29T08:13:51Z</time>
      </trkpt>
      <trkpt lat="48.0167" lon="6.79762">
        <ele>696.8</ele>
        <time>2022-07-29T08:13:52Z</time>
      </trkpt>
      <trkpt lat="48.01669" lon="6.79763">
        <ele>697</ele>
        <time>2022-07-29T08:13:53Z</time>
      </trkpt>
      <trkpt lat="48.01667" lon="6.79764">
        <ele>697.2</ele>
        <time>2022-07-29T08:13:54Z</time>
      </trkpt>
      <trkpt lat="48.01666" lon="6.79765">
        <ele>697.4</ele>
        <time>2022-07-29T08:13:55Z</time>
      </trkpt>
      <trkpt lat="48.01665" lon="6.79766">
        <ele>697.6</ele>
        <time>2022-07-29T08:13:56Z</time>
      </trkpt>
      <trkpt lat="48.01663" lon="6.79767">
        <ele>697.8</ele>
        <time>2022-07-29T08:13:57Z</time>
      </trkpt>
      <trkpt lat="48.01662" lon="6.79769">
        <ele>698</ele>
        <time>2022-07-29T08:13:58Z</time>
      </trkpt>
      <trkpt lat="48.01661" lon="6.7977">
        <ele>698</ele>
        <time>2022-07-29T08:13:59Z</time>
      </trkpt>
      <trkpt lat="48.0166" lon="6.79772">
        <ele>698.2</ele>
        <time>2022-07-29T08:14:00Z</time>
      </trkpt>
      <trkpt lat="48.01658" lon="6.79773">
        <ele>698.4</ele>
        <time>2022-07-29T08:14:01Z</time>
      </trkpt>
      <trkpt lat="48.01657" lon="6.79775">
        <ele>698.6</ele>
        <time>2022-07-29T08:14:02Z</time>
      </trkpt>
      <trkpt lat="48.01656" lon="6.79777">
        <ele>698.6</ele>
        <time>2022-07-29T08:14:03Z</time>
      </trkpt>
      <trkpt lat="48.01655" lon="6.79778">
        <ele>698.8</ele>
        <time>2022-07-29T08:14:04Z</time>
      </trkpt>
      <trkpt lat="48.01653" lon="6.79779">
        <ele>699</ele>
        <time>2022-07-29T08:14:05Z</time>
      </trkpt>
      <trkpt lat="48.01652" lon="6.7978">
        <ele>699.2</ele>
        <time>2022-07-29T08:14:06Z</time>
      </trkpt>
      <trkpt lat="48.0165" lon="6.79781">
        <ele>699.4</ele>
        <time>2022-07-29T08:14:07Z</time>
      </trkpt>
      <trkpt lat="48.01649" lon="6.79782">
        <ele>699.4</ele>
        <time>2022-07-29T08:14:08Z</time>
      </trkpt>
      <trkpt lat="48.01648" lon="6.79784">
        <ele>699.6</ele>
        <time>2022-07-29T08:14:09Z</time>
      </trkpt>
      <trkpt lat="48.01647" lon="6.79786">
        <ele>699.8</ele>
        <time>2022-07-29T08:14:10Z</time>
      </trkpt>
      <trkpt lat="48.01646" lon="6.79787">
        <ele>699.8</ele>
        <time>2022-07-29T08:14:11Z</time>
      </trkpt>
      <trkpt lat="48.01644" lon="6.79788">
        <ele>700</ele>
        <time>2022-07-29T08:14:12Z</time>
      </trkpt>
      <trkpt lat="48.01643" lon="6.79789">
        <ele>700.2</ele>
        <time>2022-07-29T08:14:13Z</time>
      </trkpt>
      <trkpt lat="48.01642" lon="6.7979">
        <ele>700.4</ele>
        <time>2022-07-29T08:14:14Z</time>
      </trkpt>
      <trkpt lat="48.01641" lon="6.79792">
        <ele>700.8</ele>
        <time>2022-07-29T08:14:15Z</time>
      </trkpt>
      <trkpt lat="48.0164" lon="6.79793">
        <ele>701</ele>
        <time>2022-07-29T08:14:16Z</time>
      </trkpt>
      <trkpt lat="48.01639" lon="6.79794">
        <ele>701</ele>
        <time>2022-07-29T08:14:17Z</time>
      </trkpt>
      <trkpt lat="48.01637" lon="6.79796">
        <ele>701.2</ele>
        <time>2022-07-29T08:14:18Z</time>
      </trkpt>
      <trkpt lat="48.01636" lon="6.79797">
        <ele>701.4</ele>
        <time>2022-07-29T08:14:19Z</time>
      </trkpt>
      <trkpt lat="48.01635" lon="6.79799">
        <ele>701.6</ele>
        <time>2022-07-29T08:14:20Z</time>
      </trkpt>
      <trkpt lat="48.01634" lon="6.798">
        <ele>701.8</ele>
        <time>2022-07-29T08:14:21Z</time>
      </trkpt>
      <trkpt lat="48.01633" lon="6.79801">
        <ele>702</ele>
        <time>2022-07-29T08:14:22Z</time>
      </trkpt>
      <trkpt lat="48.01632" lon="6.79802">
        <ele>702.2</ele>
        <time>2022-07-29T08:14:23Z</time>
      </trkpt>
      <trkpt lat="48.01631" lon="6.79804">
        <ele>702.4</ele>
        <time>2022-07-29T08:14:24Z</time>
      </trkpt>
      <trkpt lat="48.0163" lon="6.79806">
        <ele>702.4</ele>
        <time>2022-07-29T08:14:25Z</time>
      </trkpt>
      <trkpt lat="48.01629" lon="6.79807">
        <ele>702.6</ele>
        <time>2022-07-29T08:14:26Z</time>
      </trkpt>
      <trkpt lat="48.01628" lon="6.79809">
        <ele>702.8</ele>
        <time>2022-07-29T08:14:27Z</time>
      </trkpt>
      <trkpt lat="48.01626" lon="6.7981">
        <ele>703.2</ele>
        <time>2022-07-29T08:14:28Z</time>
      </trkpt>
      <trkpt lat="48.01625" lon="6.79811">
        <ele>703.2</ele>
        <time>2022-07-29T08:14:29Z</time>
      </trkpt>
      <trkpt lat="48.01624" lon="6.79812">
        <ele>703.4</ele>
        <time>2022-07-29T08:14:30Z</time>
      </trkpt>
      <trkpt lat="48.01623" lon="6.79813">
        <ele>703.4</ele>
        <time>2022-07-29T08:14:31Z</time>
      </trkpt>
      <trkpt lat="48.01622" lon="6.79814">
        <ele>703.6</ele>
        <time>2022-07-29T08:14:32Z</time>
      </trkpt>
      <trkpt lat="48.01621" lon="6.79815">
        <ele>703.8</ele>
        <time>2022-07-29T08:14:33Z</time>
      </trkpt>
      <trkpt lat="48.01619" lon="6.79815">
        <ele>704</ele>
        <time>2022-07-29T08:14:34Z</time>
      </trkpt>
      <trkpt lat="48.01618" lon="6.79816">
        <ele>704.2</ele>
        <time>2022-07-29T08:14:35Z</time>
      </trkpt>
      <trkpt lat="48.01616" lon="6.79817">
        <ele>704.4</ele>
        <time>2022-07-29T08:14:36Z</time>
      </trkpt>
      <trkpt lat="48.01615" lon="6.79818">
        <ele>704.6</ele>
        <time>2022-07-29T08:14:37Z</time>
      </trkpt>
      <trkpt lat="48.01614" lon="6.79818">
        <ele>704.6</ele>
        <time>2022-07-29T08:14:38Z</time>
      </trkpt>
      <trkpt lat="48.01613" lon="6.79819">
        <ele>705</ele>
        <time>2022-07-29T08:14:39Z</time>
      </trkpt>
      <trkpt lat="48.01612" lon="6.7982">
        <ele>705</ele>
        <time>2022-07-29T08:14:40Z</time>
      </trkpt>
      <trkpt lat="48.0161" lon="6.79821">
        <ele>705.2</ele>
        <time>2022-07-29T08:14:41Z</time>
      </trkpt>
      <trkpt lat="48.01609" lon="6.79822">
        <ele>705.4</ele>
        <time>2022-07-29T08:14:42Z</time>
      </trkpt>
      <trkpt lat="48.01608" lon="6.79823">
        <ele>705.4</ele>
        <time>2022-07-29T08:14:43Z</time>
      </trkpt>
      <trkpt lat="48.01606" lon="6.79824">
        <ele>705.6</ele>
        <time>2022-07-29T08:14:44Z</time>
      </trkpt>
      <trkpt lat="48.01605" lon="6.79825">
        <ele>705.8</ele>
        <time>2022-07-29T08:14:45Z</time>
      </trkpt>
      <trkpt lat="48.01604" lon="6.79827">
        <ele>706</ele>
        <time>2022-07-29T08:14:46Z</time>
      </trkpt>
      <trkpt lat="48.01602" lon="6.79828">
        <ele>706.2</ele>
        <time>2022-07-29T08:14:47Z</time>
      </trkpt>
      <trkpt lat="48.01601" lon="6.79829">
        <ele>706.4</ele>
        <time>2022-07-29T08:14:48Z</time>
      </trkpt>
      <trkpt lat="48.01599" lon="6.79831">
        <ele>706.6</ele>
        <time>2022-07-29T08:14:49Z</time>
      </trkpt>
      <trkpt lat="48.01597" lon="6.79833">
        <ele>706.8</ele>
        <time>2022-07-29T08:14:50Z</time>
      </trkpt>
      <trkpt lat="48.01596" lon="6.79834">
        <ele>707</ele>
        <time>2022-07-29T08:14:51Z</time>
      </trkpt>
      <trkpt lat="48.01595" lon="6.79836">
        <ele>707</ele>
        <time>2022-07-29T08:14:52Z</time>
      </trkpt>
      <trkpt lat="48.01593" lon="6.79837">
        <ele>707</ele>
        <time>2022-07-29T08:14:53Z</time>
      </trkpt>
      <trkpt lat="48.01592" lon="6.79839">
        <ele>707.2</ele>
        <time>2022-07-29T08:14:54Z</time>
      </trkpt>
      <trkpt lat="48.01591" lon="6.7984">
        <ele>707.6</ele>
        <time>2022-07-29T08:14:55Z</time>
      </trkpt>
      <trkpt lat="48.0159" lon="6.79841">
        <ele>707.6</ele>
        <time>2022-07-29T08:14:56Z</time>
      </trkpt>
      <trkpt lat="48.01588" lon="6.79842">
        <ele>707.8</ele>
        <time>2022-07-29T08:14:57Z</time>
      </trkpt>
      <trkpt lat="48.01587" lon="6.79842">
        <ele>708</ele>
        <time>2022-07-29T08:14:58Z</time>
      </trkpt>
      <trkpt lat="48.01585" lon="6.79844">
        <ele>708</ele>
        <time>2022-07-29T08:14:59Z</time>
      </trkpt>
      <trkpt lat="48.01584" lon="6.79845">
        <ele>708</ele>
        <time>2022-07-29T08:15:00Z</time>
      </trkpt>
      <trkpt lat="48.01582" lon="6.79845">
        <ele>708.2</ele>
        <time>2022-07-29T08:15:01Z</time>
      </trkpt>
      <trkpt lat="48.0158" lon="6.79846">
        <ele>708.2</ele>
        <time>2022-07-29T08:15:02Z</time>
      </trkpt>
      <trkpt lat="48.01579" lon="6.79847">
        <ele>708.2</ele>
        <time>2022-07-29T08:15:03Z</time>
      </trkpt>
      <trkpt lat="48.01577" lon="6.79848">
        <ele>708.2</ele>
        <time>2022-07-29T08:15:04Z</time>
      </trkpt>
      <trkpt lat="48.01575" lon="6.7985">
        <ele>708.2</ele>
        <time>2022-07-29T08:15:05Z</time>
      </trkpt>
      <trkpt lat="48.01573" lon="6.79851">
        <ele>708.2</ele>
        <time>2022-07-29T08:15:06Z</time>
      </trkpt>
      <trkpt lat="48.0157" lon="6.79853">
        <ele>708.2</ele>
        <time>2022-07-29T08:15:07Z</time>
      </trkpt>
      <trkpt lat="48.01568" lon="6.79855">
        <ele>708.2</ele>
        <time>2022-07-29T08:15:08Z</time>
      </trkpt>
      <trkpt lat="48.01565" lon="6.79855">
        <ele>708</ele>
        <time>2022-07-29T08:15:09Z</time>
      </trkpt>
      <trkpt lat="48.01563" lon="6.79856">
        <ele>708</ele>
        <time>2022-07-29T08:15:10Z</time>
      </trkpt>
      <trkpt lat="48.0156" lon="6.79857">
        <ele>708.2</ele>
        <time>2022-07-29T08:15:11Z</time>
      </trkpt>
      <trkpt lat="48.01557" lon="6.79859">
        <ele>708.2</ele>
        <time>2022-07-29T08:15:12Z</time>
      </trkpt>
      <trkpt lat="48.01555" lon="6.79861">
        <ele>708.2</ele>
        <time>2022-07-29T08:15:13Z</time>
      </trkpt>
      <trkpt lat="48.01548" lon="6.79869">
        <ele>708</ele>
        <time>2022-07-29T08:15:16Z</time>
      </trkpt>
      <trkpt lat="48.01546" lon="6.79873">
        <ele>708</ele>
        <time>2022-07-29T08:15:17Z</time>
      </trkpt>
      <trkpt lat="48.01545" lon="6.79878">
        <ele>708</ele>
        <time>2022-07-29T08:15:18Z</time>
      </trkpt>
      <trkpt lat="48.01544" lon="6.79883">
        <ele>708</ele>
        <time>2022-07-29T08:15:19Z</time>
      </trkpt>
      <trkpt lat="48.01544" lon="6.79888">
        <ele>708</ele>
        <time>2022-07-29T08:15:20Z</time>
      </trkpt>
      <trkpt lat="48.01543" lon="6.79893">
        <ele>708</ele>
        <time>2022-07-29T08:15:21Z</time>
      </trkpt>
      <trkpt lat="48.01544" lon="6.79899">
        <ele>708</ele>
        <time>2022-07-29T08:15:22Z</time>
      </trkpt>
      <trkpt lat="48.01548" lon="6.79925">
        <ele>708.2</ele>
        <time>2022-07-29T08:15:28Z</time>
      </trkpt>
      <trkpt lat="48.01549" lon="6.79929">
        <ele>708.4</ele>
        <time>2022-07-29T08:15:29Z</time>
      </trkpt>
      <trkpt lat="48.01551" lon="6.79932">
        <ele>708.4</ele>
        <time>2022-07-29T08:15:30Z</time>
      </trkpt>
      <trkpt lat="48.01552" lon="6.79935">
        <ele>708.6</ele>
        <time>2022-07-29T08:15:31Z</time>
      </trkpt>
      <trkpt lat="48.01554" lon="6.79937">
        <ele>708.8</ele>
        <time>2022-07-29T08:15:32Z</time>
      </trkpt>
      <trkpt lat="48.01556" lon="6.79939">
        <ele>708.8</ele>
        <time>2022-07-29T08:15:33Z</time>
      </trkpt>
      <trkpt lat="48.01557" lon="6.79941">
        <ele>708.8</ele>
        <time>2022-07-29T08:15:34Z</time>
      </trkpt>
      <trkpt lat="48.01559" lon="6.79943">
        <ele>708.8</ele>
        <time>2022-07-29T08:15:35Z</time>
      </trkpt>
      <trkpt lat="48.01561" lon="6.79945">
        <ele>709</ele>
        <time>2022-07-29T08:15:36Z</time>
      </trkpt>
      <trkpt lat="48.01563" lon="6.79947">
        <ele>709</ele>
        <time>2022-07-29T08:15:37Z</time>
      </trkpt>
      <trkpt lat="48.01565" lon="6.79949">
        <ele>709</ele>
        <time>2022-07-29T08:15:38Z</time>
      </trkpt>
      <trkpt lat="48.01567" lon="6.79951">
        <ele>709</ele>
        <time>2022-07-29T08:15:39Z</time>
      </trkpt>
      <trkpt lat="48.01569" lon="6.79953">
        <ele>709</ele>
        <time>2022-07-29T08:15:40Z</time>
      </trkpt>
      <trkpt lat="48.01571" lon="6.79955">
        <ele>709</ele>
        <time>2022-07-29T08:15:41Z</time>
      </trkpt>
      <trkpt lat="48.01579" lon="6.79963">
        <ele>709.2</ele>
        <time>2022-07-29T08:15:45Z</time>
      </trkpt>
      <trkpt lat="48.01581" lon="6.79965">
        <ele>709.2</ele>
        <time>2022-07-29T08:15:46Z</time>
      </trkpt>
      <trkpt lat="48.01583" lon="6.79966">
        <ele>709.4</ele>
        <time>2022-07-29T08:15:47Z</time>
      </trkpt>
      <trkpt lat="48.01585" lon="6.79967">
        <ele>709.4</ele>
        <time>2022-07-29T08:15:48Z</time>
      </trkpt>
      <trkpt lat="48.01593" lon="6.7997">
        <ele>709.8</ele>
        <time>2022-07-29T08:15:52Z</time>
      </trkpt>
      <trkpt lat="48.01597" lon="6.79971">
        <ele>709.8</ele>
        <time>2022-07-29T08:15:54Z</time>
      </trkpt>
      <trkpt lat="48.01599" lon="6.79972">
        <ele>710</ele>
        <time>2022-07-29T08:15:55Z</time>
      </trkpt>
      <trkpt lat="48.01604" lon="6.79973">
        <ele>710</ele>
        <time>2022-07-29T08:15:57Z</time>
      </trkpt>
      <trkpt lat="48.01607" lon="6.79974">
        <ele>710.2</ele>
        <time>2022-07-29T08:15:58Z</time>
      </trkpt>
      <trkpt lat="48.01609" lon="6.79975">
        <ele>710.4</ele>
        <time>2022-07-29T08:15:59Z</time>
      </trkpt>
      <trkpt lat="48.01616" lon="6.79978">
        <ele>710.6</ele>
        <time>2022-07-29T08:16:02Z</time>
      </trkpt>
      <trkpt lat="48.01628" lon="6.79984">
        <ele>711.2</ele>
        <time>2022-07-29T08:16:08Z</time>
      </trkpt>
      <trkpt lat="48.01629" lon="6.79984">
        <ele>711.2</ele>
        <time>2022-07-29T08:16:09Z</time>
      </trkpt>
      <trkpt lat="48.01629" lon="6.79985">
        <ele>711.2</ele>
        <time>2022-07-29T08:16:10Z</time>
      </trkpt>
      <trkpt lat="48.01631" lon="6.79986">
        <ele>711.4</ele>
        <time>2022-07-29T08:16:11Z</time>
      </trkpt>
      <trkpt lat="48.01637" lon="6.79989">
        <ele>711.8</ele>
        <time>2022-07-29T08:16:14Z</time>
      </trkpt>
      <trkpt lat="48.0164" lon="6.7999">
        <ele>711.8</ele>
        <time>2022-07-29T08:16:15Z</time>
      </trkpt>
      <trkpt lat="48.01645" lon="6.79993">
        <ele>712</ele>
        <time>2022-07-29T08:16:17Z</time>
      </trkpt>
      <trkpt lat="48.01654" lon="6.79999">
        <ele>712.4</ele>
        <time>2022-07-29T08:16:21Z</time>
      </trkpt>
      <trkpt lat="48.01661" lon="6.80002">
        <ele>712.6</ele>
        <time>2022-07-29T08:16:24Z</time>
      </trkpt>
      <trkpt lat="48.01668" lon="6.80006">
        <ele>712.8</ele>
        <time>2022-07-29T08:16:27Z</time>
      </trkpt>
      <trkpt lat="48.0167" lon="6.80007">
        <ele>712.8</ele>
        <time>2022-07-29T08:16:28Z</time>
      </trkpt>
      <trkpt lat="48.01672" lon="6.80009">
        <ele>713</ele>
        <time>2022-07-29T08:16:29Z</time>
      </trkpt>
      <trkpt lat="48.01676" lon="6.80014">
        <ele>713.2</ele>
        <time>2022-07-29T08:16:31Z</time>
      </trkpt>
      <trkpt lat="48.01693" lon="6.80024">
        <ele>714</ele>
        <time>2022-07-29T08:16:39Z</time>
      </trkpt>
      <trkpt lat="48.01695" lon="6.80025">
        <ele>714.2</ele>
        <time>2022-07-29T08:16:40Z</time>
      </trkpt>
      <trkpt lat="48.01698" lon="6.80028">
        <ele>714.4</ele>
        <time>2022-07-29T08:16:41Z</time>
      </trkpt>
      <trkpt lat="48.017" lon="6.8003">
        <ele>714.6</ele>
        <time>2022-07-29T08:16:42Z</time>
      </trkpt>
      <trkpt lat="48.01703" lon="6.80031">
        <ele>714.8</ele>
        <time>2022-07-29T08:16:43Z</time>
      </trkpt>
      <trkpt lat="48.01705" lon="6.80032">
        <ele>714.8</ele>
        <time>2022-07-29T08:16:44Z</time>
      </trkpt>
      <trkpt lat="48.01708" lon="6.80033">
        <ele>714.8</ele>
        <time>2022-07-29T08:16:45Z</time>
      </trkpt>
      <trkpt lat="48.0171" lon="6.80034">
        <ele>715</ele>
        <time>2022-07-29T08:16:46Z</time>
      </trkpt>
      <trkpt lat="48.01713" lon="6.80035">
        <ele>715</ele>
        <time>2022-07-29T08:16:47Z</time>
      </trkpt>
      <trkpt lat="48.01715" lon="6.80037">
        <ele>715.2</ele>
        <time>2022-07-29T08:16:48Z</time>
      </trkpt>
      <trkpt lat="48.01718" lon="6.80038">
        <ele>715.2</ele>
        <time>2022-07-29T08:16:49Z</time>
      </trkpt>
      <trkpt lat="48.0172" lon="6.8004">
        <ele>715.4</ele>
        <time>2022-07-29T08:16:50Z</time>
      </trkpt>
      <trkpt lat="48.01723" lon="6.8004">
        <ele>715.4</ele>
        <time>2022-07-29T08:16:51Z</time>
      </trkpt>
      <trkpt lat="48.01725" lon="6.80041">
        <ele>715.4</ele>
        <time>2022-07-29T08:16:52Z</time>
      </trkpt>
      <trkpt lat="48.01727" lon="6.80042">
        <ele>715.6</ele>
        <time>2022-07-29T08:16:53Z</time>
      </trkpt>
      <trkpt lat="48.01729" lon="6.80043">
        <ele>715.6</ele>
        <time>2022-07-29T08:16:54Z</time>
      </trkpt>
      <trkpt lat="48.01732" lon="6.80044">
        <ele>715.6</ele>
        <time>2022-07-29T08:16:55Z</time>
      </trkpt>
      <trkpt lat="48.01734" lon="6.80045">
        <ele>715.8</ele>
        <time>2022-07-29T08:16:56Z</time>
      </trkpt>
      <trkpt lat="48.01737" lon="6.80046">
        <ele>716.2</ele>
        <time>2022-07-29T08:16:57Z</time>
      </trkpt>
      <trkpt lat="48.01739" lon="6.80047">
        <ele>716</ele>
        <time>2022-07-29T08:16:58Z</time>
      </trkpt>
      <trkpt lat="48.01741" lon="6.80047">
        <ele>716.2</ele>
        <time>2022-07-29T08:16:59Z</time>
      </trkpt>
      <trkpt lat="48.01743" lon="6.80048">
        <ele>716.4</ele>
        <time>2022-07-29T08:17:00Z</time>
      </trkpt>
      <trkpt lat="48.01745" lon="6.80048">
        <ele>716.4</ele>
        <time>2022-07-29T08:17:01Z</time>
      </trkpt>
      <trkpt lat="48.01747" lon="6.80049">
        <ele>716.6</ele>
        <time>2022-07-29T08:17:02Z</time>
      </trkpt>
      <trkpt lat="48.01749" lon="6.8005">
        <ele>716.6</ele>
        <time>2022-07-29T08:17:03Z</time>
      </trkpt>
      <trkpt lat="48.01751" lon="6.8005">
        <ele>716.8</ele>
        <time>2022-07-29T08:17:04Z</time>
      </trkpt>
      <trkpt lat="48.01754" lon="6.80051">
        <ele>716.8</ele>
        <time>2022-07-29T08:17:05Z</time>
      </trkpt>
      <trkpt lat="48.01757" lon="6.80051">
        <ele>717</ele>
        <time>2022-07-29T08:17:06Z</time>
      </trkpt>
      <trkpt lat="48.01759" lon="6.80052">
        <ele>717</ele>
        <time>2022-07-29T08:17:07Z</time>
      </trkpt>
      <trkpt lat="48.01761" lon="6.80053">
        <ele>717.2</ele>
        <time>2022-07-29T08:17:08Z</time>
      </trkpt>
      <trkpt lat="48.01763" lon="6.80052">
        <ele>717.2</ele>
        <time>2022-07-29T08:17:09Z</time>
      </trkpt>
      <trkpt lat="48.01766" lon="6.80052">
        <ele>717.4</ele>
        <time>2022-07-29T08:17:10Z</time>
      </trkpt>
      <trkpt lat="48.01768" lon="6.80053">
        <ele>717.4</ele>
        <time>2022-07-29T08:17:11Z</time>
      </trkpt>
      <trkpt lat="48.0177" lon="6.80053">
        <ele>717.6</ele>
        <time>2022-07-29T08:17:12Z</time>
      </trkpt>
      <trkpt lat="48.01771" lon="6.80053">
        <ele>717.6</ele>
        <time>2022-07-29T08:17:13Z</time>
      </trkpt>
      <trkpt lat="48.01773" lon="6.80054">
        <ele>717.6</ele>
        <time>2022-07-29T08:17:14Z</time>
      </trkpt>
      <trkpt lat="48.01775" lon="6.80055">
        <ele>718</ele>
        <time>2022-07-29T08:17:15Z</time>
      </trkpt>
      <trkpt lat="48.01777" lon="6.80056">
        <ele>718</ele>
        <time>2022-07-29T08:17:16Z</time>
      </trkpt>
      <trkpt lat="48.0178" lon="6.80056">
        <ele>718.2</ele>
        <time>2022-07-29T08:17:17Z</time>
      </trkpt>
      <trkpt lat="48.01783" lon="6.80057">
        <ele>718.2</ele>
        <time>2022-07-29T08:17:18Z</time>
      </trkpt>
      <trkpt lat="48.01785" lon="6.80058">
        <ele>718.2</ele>
        <time>2022-07-29T08:17:19Z</time>
      </trkpt>
      <trkpt lat="48.01787" lon="6.8006">
        <ele>718.4</ele>
        <time>2022-07-29T08:17:20Z</time>
      </trkpt>
      <trkpt lat="48.01789" lon="6.80062">
        <ele>718.6</ele>
        <time>2022-07-29T08:17:21Z</time>
      </trkpt>
      <trkpt lat="48.01792" lon="6.80063">
        <ele>718.8</ele>
        <time>2022-07-29T08:17:22Z</time>
      </trkpt>
      <trkpt lat="48.01794" lon="6.80063">
        <ele>719</ele>
        <time>2022-07-29T08:17:23Z</time>
      </trkpt>
      <trkpt lat="48.01795" lon="6.80064">
        <ele>718.8</ele>
        <time>2022-07-29T08:17:24Z</time>
      </trkpt>
      <trkpt lat="48.01797" lon="6.80065">
        <ele>719</ele>
        <time>2022-07-29T08:17:25Z</time>
      </trkpt>
      <trkpt lat="48.01799" lon="6.80066">
        <ele>719</ele>
        <time>2022-07-29T08:17:26Z</time>
      </trkpt>
      <trkpt lat="48.01801" lon="6.80068">
        <ele>719</ele>
        <time>2022-07-29T08:17:27Z</time>
      </trkpt>
      <trkpt lat="48.01802" lon="6.80069">
        <ele>719.2</ele>
        <time>2022-07-29T08:17:28Z</time>
      </trkpt>
      <trkpt lat="48.01804" lon="6.80071">
        <ele>719.4</ele>
        <time>2022-07-29T08:17:29Z</time>
      </trkpt>
      <trkpt lat="48.01806" lon="6.80074">
        <ele>719.4</ele>
        <time>2022-07-29T08:17:30Z</time>
      </trkpt>
      <trkpt lat="48.01809" lon="6.80076">
        <ele>719.6</ele>
        <time>2022-07-29T08:17:31Z</time>
      </trkpt>
      <trkpt lat="48.01811" lon="6.80078">
        <ele>719.6</ele>
        <time>2022-07-29T08:17:32Z</time>
      </trkpt>
      <trkpt lat="48.01813" lon="6.8008">
        <ele>719.6</ele>
        <time>2022-07-29T08:17:33Z</time>
      </trkpt>
      <trkpt lat="48.01815" lon="6.80082">
        <ele>719.8</ele>
        <time>2022-07-29T08:17:34Z</time>
      </trkpt>
      <trkpt lat="48.01817" lon="6.80083">
        <ele>719.8</ele>
        <time>2022-07-29T08:17:35Z</time>
      </trkpt>
      <trkpt lat="48.01819" lon="6.80085">
        <ele>720</ele>
        <time>2022-07-29T08:17:36Z</time>
      </trkpt>
      <trkpt lat="48.01821" lon="6.80087">
        <ele>720</ele>
        <time>2022-07-29T08:17:37Z</time>
      </trkpt>
      <trkpt lat="48.01822" lon="6.80089">
        <ele>720</ele>
        <time>2022-07-29T08:17:38Z</time>
      </trkpt>
      <trkpt lat="48.01824" lon="6.8009">
        <ele>720</ele>
        <time>2022-07-29T08:17:39Z</time>
      </trkpt>
      <trkpt lat="48.01826" lon="6.80092">
        <ele>720.2</ele>
        <time>2022-07-29T08:17:40Z</time>
      </trkpt>
      <trkpt lat="48.01828" lon="6.80094">
        <ele>720.4</ele>
        <time>2022-07-29T08:17:41Z</time>
      </trkpt>
      <trkpt lat="48.0183" lon="6.80096">
        <ele>720.6</ele>
        <time>2022-07-29T08:17:42Z</time>
      </trkpt>
      <trkpt lat="48.01832" lon="6.80098">
        <ele>720.8</ele>
        <time>2022-07-29T08:17:43Z</time>
      </trkpt>
      <trkpt lat="48.01834" lon="6.801">
        <ele>720.8</ele>
        <time>2022-07-29T08:17:44Z</time>
      </trkpt>
      <trkpt lat="48.01836" lon="6.80102">
        <ele>721</ele>
        <time>2022-07-29T08:17:45Z</time>
      </trkpt>
      <trkpt lat="48.01838" lon="6.80105">
        <ele>721.2</ele>
        <time>2022-07-29T08:17:46Z</time>
      </trkpt>
      <trkpt lat="48.01839" lon="6.80107">
        <ele>721.2</ele>
        <time>2022-07-29T08:17:47Z</time>
      </trkpt>
      <trkpt lat="48.01841" lon="6.80109">
        <ele>721.4</ele>
        <time>2022-07-29T08:17:48Z</time>
      </trkpt>
      <trkpt lat="48.01843" lon="6.80112">
        <ele>721.6</ele>
        <time>2022-07-29T08:17:49Z</time>
      </trkpt>
      <trkpt lat="48.01844" lon="6.80115">
        <ele>721.6</ele>
        <time>2022-07-29T08:17:50Z</time>
      </trkpt>
      <trkpt lat="48.01846" lon="6.80117">
        <ele>721.8</ele>
        <time>2022-07-29T08:17:51Z</time>
      </trkpt>
      <trkpt lat="48.01848" lon="6.80119">
        <ele>721.8</ele>
        <time>2022-07-29T08:17:52Z</time>
      </trkpt>
      <trkpt lat="48.0185" lon="6.80122">
        <ele>721.8</ele>
        <time>2022-07-29T08:17:53Z</time>
      </trkpt>
      <trkpt lat="48.01852" lon="6.80124">
        <ele>722</ele>
        <time>2022-07-29T08:17:54Z</time>
      </trkpt>
      <trkpt lat="48.01854" lon="6.80127">
        <ele>722</ele>
        <time>2022-07-29T08:17:55Z</time>
      </trkpt>
      <trkpt lat="48.01855" lon="6.80131">
        <ele>722.2</ele>
        <time>2022-07-29T08:17:56Z</time>
      </trkpt>
      <trkpt lat="48.01857" lon="6.80134">
        <ele>722.2</ele>
        <time>2022-07-29T08:17:57Z</time>
      </trkpt>
      <trkpt lat="48.01859" lon="6.80138">
        <ele>722.4</ele>
        <time>2022-07-29T08:17:58Z</time>
      </trkpt>
      <trkpt lat="48.0186" lon="6.80141">
        <ele>722.4</ele>
        <time>2022-07-29T08:17:59Z</time>
      </trkpt>
      <trkpt lat="48.01862" lon="6.80144">
        <ele>722.6</ele>
        <time>2022-07-29T08:18:00Z</time>
      </trkpt>
      <trkpt lat="48.01863" lon="6.80146">
        <ele>722.6</ele>
        <time>2022-07-29T08:18:01Z</time>
      </trkpt>
      <trkpt lat="48.01864" lon="6.80149">
        <ele>722.8</ele>
        <time>2022-07-29T08:18:02Z</time>
      </trkpt>
      <trkpt lat="48.01866" lon="6.80152">
        <ele>722.8</ele>
        <time>2022-07-29T08:18:03Z</time>
      </trkpt>
      <trkpt lat="48.01868" lon="6.80155">
        <ele>723</ele>
        <time>2022-07-29T08:18:04Z</time>
      </trkpt>
      <trkpt lat="48.0187" lon="6.80157">
        <ele>723</ele>
        <time>2022-07-29T08:18:05Z</time>
      </trkpt>
      <trkpt lat="48.01871" lon="6.8016">
        <ele>723</ele>
        <time>2022-07-29T08:18:06Z</time>
      </trkpt>
      <trkpt lat="48.01873" lon="6.80162">
        <ele>723.2</ele>
        <time>2022-07-29T08:18:07Z</time>
      </trkpt>
      <trkpt lat="48.01875" lon="6.80165">
        <ele>723.2</ele>
        <time>2022-07-29T08:18:08Z</time>
      </trkpt>
      <trkpt lat="48.01877" lon="6.80168">
        <ele>723.4</ele>
        <time>2022-07-29T08:18:09Z</time>
      </trkpt>
      <trkpt lat="48.01878" lon="6.80171">
        <ele>723.6</ele>
        <time>2022-07-29T08:18:10Z</time>
      </trkpt>
      <trkpt lat="48.0188" lon="6.80173">
        <ele>723.6</ele>
        <time>2022-07-29T08:18:11Z</time>
      </trkpt>
      <trkpt lat="48.01881" lon="6.80176">
        <ele>723.8</ele>
        <time>2022-07-29T08:18:12Z</time>
      </trkpt>
      <trkpt lat="48.01883" lon="6.80178">
        <ele>723.8</ele>
        <time>2022-07-29T08:18:13Z</time>
      </trkpt>
      <trkpt lat="48.01885" lon="6.8018">
        <ele>724</ele>
        <time>2022-07-29T08:18:14Z</time>
      </trkpt>
      <trkpt lat="48.01887" lon="6.80183">
        <ele>724</ele>
        <time>2022-07-29T08:18:15Z</time>
      </trkpt>
      <trkpt lat="48.01888" lon="6.80186">
        <ele>724.2</ele>
        <time>2022-07-29T08:18:16Z</time>
      </trkpt>
      <trkpt lat="48.0189" lon="6.80189">
        <ele>724.4</ele>
        <time>2022-07-29T08:18:17Z</time>
      </trkpt>
      <trkpt lat="48.01892" lon="6.80191">
        <ele>724.6</ele>
        <time>2022-07-29T08:18:18Z</time>
      </trkpt>
      <trkpt lat="48.01893" lon="6.80194">
        <ele>724.6</ele>
        <time>2022-07-29T08:18:19Z</time>
      </trkpt>
      <trkpt lat="48.01895" lon="6.80197">
        <ele>724.8</ele>
        <time>2022-07-29T08:18:20Z</time>
      </trkpt>
      <trkpt lat="48.01897" lon="6.80199">
        <ele>725</ele>
        <time>2022-07-29T08:18:21Z</time>
      </trkpt>
      <trkpt lat="48.01899" lon="6.80201">
        <ele>725</ele>
        <time>2022-07-29T08:18:22Z</time>
      </trkpt>
      <trkpt lat="48.01901" lon="6.80203">
        <ele>725</ele>
        <time>2022-07-29T08:18:23Z</time>
      </trkpt>
      <trkpt lat="48.01902" lon="6.80205">
        <ele>725.2</ele>
        <time>2022-07-29T08:18:24Z</time>
      </trkpt>
      <trkpt lat="48.01904" lon="6.80207">
        <ele>725.2</ele>
        <time>2022-07-29T08:18:25Z</time>
      </trkpt>
      <trkpt lat="48.01906" lon="6.8021">
        <ele>725.4</ele>
        <time>2022-07-29T08:18:26Z</time>
      </trkpt>
      <trkpt lat="48.01908" lon="6.80212">
        <ele>725.6</ele>
        <time>2022-07-29T08:18:27Z</time>
      </trkpt>
      <trkpt lat="48.0191" lon="6.80215">
        <ele>725.6</ele>
        <time>2022-07-29T08:18:28Z</time>
      </trkpt>
      <trkpt lat="48.01911" lon="6.80218">
        <ele>725.8</ele>
        <time>2022-07-29T08:18:29Z</time>
      </trkpt>
      <trkpt lat="48.01913" lon="6.80221">
        <ele>726</ele>
        <time>2022-07-29T08:18:30Z</time>
      </trkpt>
      <trkpt lat="48.01914" lon="6.80223">
        <ele>726</ele>
        <time>2022-07-29T08:18:31Z</time>
      </trkpt>
      <trkpt lat="48.01916" lon="6.80225">
        <ele>726.2</ele>
        <time>2022-07-29T08:18:32Z</time>
      </trkpt>
      <trkpt lat="48.01917" lon="6.80227">
        <ele>726.2</ele>
        <time>2022-07-29T08:18:33Z</time>
      </trkpt>
      <trkpt lat="48.01919" lon="6.80229">
        <ele>726.2</ele>
        <time>2022-07-29T08:18:34Z</time>
      </trkpt>
      <trkpt lat="48.01921" lon="6.80231">
        <ele>726.4</ele>
        <time>2022-07-29T08:18:35Z</time>
      </trkpt>
      <trkpt lat="48.01923" lon="6.80233">
        <ele>726.4</ele>
        <time>2022-07-29T08:18:36Z</time>
      </trkpt>
      <trkpt lat="48.01924" lon="6.80235">
        <ele>726.6</ele>
        <time>2022-07-29T08:18:37Z</time>
      </trkpt>
      <trkpt lat="48.01926" lon="6.80237">
        <ele>726.6</ele>
        <time>2022-07-29T08:18:38Z</time>
      </trkpt>
      <trkpt lat="48.01927" lon="6.80239">
        <ele>726.8</ele>
        <time>2022-07-29T08:18:39Z</time>
      </trkpt>
      <trkpt lat="48.01929" lon="6.80241">
        <ele>726.8</ele>
        <time>2022-07-29T08:18:40Z</time>
      </trkpt>
      <trkpt lat="48.0193" lon="6.80243">
        <ele>726.8</ele>
        <time>2022-07-29T08:18:41Z</time>
      </trkpt>
      <trkpt lat="48.01932" lon="6.80245">
        <ele>726.8</ele>
        <time>2022-07-29T08:18:42Z</time>
      </trkpt>
      <trkpt lat="48.01933" lon="6.80247">
        <ele>726.6</ele>
        <time>2022-07-29T08:18:43Z</time>
      </trkpt>
      <trkpt lat="48.01935" lon="6.80249">
        <ele>726.8</ele>
        <time>2022-07-29T08:18:44Z</time>
      </trkpt>
      <trkpt lat="48.01937" lon="6.80251">
        <ele>726.8</ele>
        <time>2022-07-29T08:18:45Z</time>
      </trkpt>
      <trkpt lat="48.01939" lon="6.80254">
        <ele>727</ele>
        <time>2022-07-29T08:18:46Z</time>
      </trkpt>
      <trkpt lat="48.01943" lon="6.80257">
        <ele>727.4</ele>
        <time>2022-07-29T08:18:48Z</time>
      </trkpt>
      <trkpt lat="48.01951" lon="6.80264">
        <ele>728</ele>
        <time>2022-07-29T08:18:52Z</time>
      </trkpt>
      <trkpt lat="48.01956" lon="6.80269">
        <ele>728.4</ele>
        <time>2022-07-29T08:18:55Z</time>
      </trkpt>
      <trkpt lat="48.01958" lon="6.80271">
        <ele>728.6</ele>
        <time>2022-07-29T08:18:56Z</time>
      </trkpt>
      <trkpt lat="48.0196" lon="6.80273">
        <ele>728.8</ele>
        <time>2022-07-29T08:18:57Z</time>
      </trkpt>
      <trkpt lat="48.01962" lon="6.80274">
        <ele>728.8</ele>
        <time>2022-07-29T08:18:58Z</time>
      </trkpt>
      <trkpt lat="48.01963" lon="6.80276">
        <ele>729</ele>
        <time>2022-07-29T08:18:59Z</time>
      </trkpt>
      <trkpt lat="48.01965" lon="6.80277">
        <ele>729</ele>
        <time>2022-07-29T08:19:00Z</time>
      </trkpt>
      <trkpt lat="48.01967" lon="6.80278">
        <ele>729.2</ele>
        <time>2022-07-29T08:19:01Z</time>
      </trkpt>
      <trkpt lat="48.01969" lon="6.80279">
        <ele>729.2</ele>
        <time>2022-07-29T08:19:02Z</time>
      </trkpt>
      <trkpt lat="48.01971" lon="6.80281">
        <ele>729.4</ele>
        <time>2022-07-29T08:19:03Z</time>
      </trkpt>
      <trkpt lat="48.01973" lon="6.80282">
        <ele>729.4</ele>
        <time>2022-07-29T08:19:04Z</time>
      </trkpt>
      <trkpt lat="48.01976" lon="6.80284">
        <ele>729.6</ele>
        <time>2022-07-29T08:19:05Z</time>
      </trkpt>
      <trkpt lat="48.01978" lon="6.80286">
        <ele>729.6</ele>
        <time>2022-07-29T08:19:06Z</time>
      </trkpt>
      <trkpt lat="48.0198" lon="6.80288">
        <ele>729.8</ele>
        <time>2022-07-29T08:19:07Z</time>
      </trkpt>
      <trkpt lat="48.01982" lon="6.8029">
        <ele>729.8</ele>
        <time>2022-07-29T08:19:08Z</time>
      </trkpt>
      <trkpt lat="48.01984" lon="6.80292">
        <ele>729.8</ele>
        <time>2022-07-29T08:19:09Z</time>
      </trkpt>
      <trkpt lat="48.01986" lon="6.80294">
        <ele>730</ele>
        <time>2022-07-29T08:19:10Z</time>
      </trkpt>
      <trkpt lat="48.01988" lon="6.80296">
        <ele>730</ele>
        <time>2022-07-29T08:19:11Z</time>
      </trkpt>
      <trkpt lat="48.01989" lon="6.80297">
        <ele>730.2</ele>
        <time>2022-07-29T08:19:12Z</time>
      </trkpt>
      <trkpt lat="48.01991" lon="6.80299">
        <ele>730.4</ele>
        <time>2022-07-29T08:19:13Z</time>
      </trkpt>
      <trkpt lat="48.01993" lon="6.803">
        <ele>730.4</ele>
        <time>2022-07-29T08:19:14Z</time>
      </trkpt>
      <trkpt lat="48.01995" lon="6.80302">
        <ele>730.6</ele>
        <time>2022-07-29T08:19:15Z</time>
      </trkpt>
      <trkpt lat="48.01996" lon="6.80304">
        <ele>730.6</ele>
        <time>2022-07-29T08:19:16Z</time>
      </trkpt>
      <trkpt lat="48.01998" lon="6.80307">
        <ele>730.8</ele>
        <time>2022-07-29T08:19:17Z</time>
      </trkpt>
      <trkpt lat="48.02001" lon="6.8031">
        <ele>730.8</ele>
        <time>2022-07-29T08:19:18Z</time>
      </trkpt>
      <trkpt lat="48.02003" lon="6.80311">
        <ele>731</ele>
        <time>2022-07-29T08:19:19Z</time>
      </trkpt>
      <trkpt lat="48.02004" lon="6.80313">
        <ele>731</ele>
        <time>2022-07-29T08:19:20Z</time>
      </trkpt>
      <trkpt lat="48.02006" lon="6.80315">
        <ele>731.2</ele>
        <time>2022-07-29T08:19:21Z</time>
      </trkpt>
      <trkpt lat="48.02008" lon="6.80317">
        <ele>731.4</ele>
        <time>2022-07-29T08:19:22Z</time>
      </trkpt>
      <trkpt lat="48.0201" lon="6.8032">
        <ele>731.6</ele>
        <time>2022-07-29T08:19:23Z</time>
      </trkpt>
      <trkpt lat="48.02012" lon="6.80322">
        <ele>731.6</ele>
        <time>2022-07-29T08:19:24Z</time>
      </trkpt>
      <trkpt lat="48.02014" lon="6.80323">
        <ele>731.6</ele>
        <time>2022-07-29T08:19:25Z</time>
      </trkpt>
      <trkpt lat="48.02016" lon="6.80325">
        <ele>731.8</ele>
        <time>2022-07-29T08:19:26Z</time>
      </trkpt>
      <trkpt lat="48.02017" lon="6.80327">
        <ele>731.8</ele>
        <time>2022-07-29T08:19:27Z</time>
      </trkpt>
      <trkpt lat="48.02019" lon="6.80329">
        <ele>731.8</ele>
        <time>2022-07-29T08:19:28Z</time>
      </trkpt>
      <trkpt lat="48.02021" lon="6.80331">
        <ele>732</ele>
        <time>2022-07-29T08:19:29Z</time>
      </trkpt>
      <trkpt lat="48.02023" lon="6.80334">
        <ele>732.2</ele>
        <time>2022-07-29T08:19:30Z</time>
      </trkpt>
      <trkpt lat="48.02025" lon="6.80336">
        <ele>732.4</ele>
        <time>2022-07-29T08:19:31Z</time>
      </trkpt>
      <trkpt lat="48.02027" lon="6.80338">
        <ele>732.6</ele>
        <time>2022-07-29T08:19:32Z</time>
      </trkpt>
      <trkpt lat="48.02029" lon="6.80341">
        <ele>732.8</ele>
        <time>2022-07-29T08:19:33Z</time>
      </trkpt>
      <trkpt lat="48.0203" lon="6.80343">
        <ele>732.8</ele>
        <time>2022-07-29T08:19:34Z</time>
      </trkpt>
      <trkpt lat="48.02032" lon="6.80346">
        <ele>733</ele>
        <time>2022-07-29T08:19:35Z</time>
      </trkpt>
      <trkpt lat="48.02034" lon="6.80348">
        <ele>733</ele>
        <time>2022-07-29T08:19:36Z</time>
      </trkpt>
      <trkpt lat="48.02036" lon="6.8035">
        <ele>733.4</ele>
        <time>2022-07-29T08:19:37Z</time>
      </trkpt>
      <trkpt lat="48.02037" lon="6.80352">
        <ele>733.6</ele>
        <time>2022-07-29T08:19:38Z</time>
      </trkpt>
      <trkpt lat="48.02039" lon="6.80355">
        <ele>733.6</ele>
        <time>2022-07-29T08:19:39Z</time>
      </trkpt>
      <trkpt lat="48.02041" lon="6.80357">
        <ele>733.8</ele>
        <time>2022-07-29T08:19:40Z</time>
      </trkpt>
      <trkpt lat="48.02043" lon="6.8036">
        <ele>733.8</ele>
        <time>2022-07-29T08:19:41Z</time>
      </trkpt>
      <trkpt lat="48.02045" lon="6.80362">
        <ele>734</ele>
        <time>2022-07-29T08:19:42Z</time>
      </trkpt>
      <trkpt lat="48.02047" lon="6.80365">
        <ele>734</ele>
        <time>2022-07-29T08:19:43Z</time>
      </trkpt>
      <trkpt lat="48.02049" lon="6.80367">
        <ele>734.4</ele>
        <time>2022-07-29T08:19:44Z</time>
      </trkpt>
      <trkpt lat="48.0205" lon="6.80369">
        <ele>734.6</ele>
        <time>2022-07-29T08:19:45Z</time>
      </trkpt>
      <trkpt lat="48.02052" lon="6.80371">
        <ele>734.8</ele>
        <time>2022-07-29T08:19:46Z</time>
      </trkpt>
      <trkpt lat="48.02054" lon="6.80373">
        <ele>735</ele>
        <time>2022-07-29T08:19:47Z</time>
      </trkpt>
      <trkpt lat="48.02055" lon="6.80375">
        <ele>735.2</ele>
        <time>2022-07-29T08:19:48Z</time>
      </trkpt>
      <trkpt lat="48.02057" lon="6.80378">
        <ele>735.4</ele>
        <time>2022-07-29T08:19:49Z</time>
      </trkpt>
      <trkpt lat="48.02058" lon="6.80381">
        <ele>735.6</ele>
        <time>2022-07-29T08:19:50Z</time>
      </trkpt>
      <trkpt lat="48.0206" lon="6.80383">
        <ele>735.8</ele>
        <time>2022-07-29T08:19:51Z</time>
      </trkpt>
      <trkpt lat="48.02061" lon="6.80386">
        <ele>735.8</ele>
        <time>2022-07-29T08:19:52Z</time>
      </trkpt>
      <trkpt lat="48.02062" lon="6.80389">
        <ele>735.8</ele>
        <time>2022-07-29T08:19:53Z</time>
      </trkpt>
      <trkpt lat="48.02064" lon="6.80392">
        <ele>735.8</ele>
        <time>2022-07-29T08:19:54Z</time>
      </trkpt>
      <trkpt lat="48.02065" lon="6.80395">
        <ele>735.8</ele>
        <time>2022-07-29T08:19:55Z</time>
      </trkpt>
      <trkpt lat="48.02067" lon="6.80398">
        <ele>736</ele>
        <time>2022-07-29T08:19:56Z</time>
      </trkpt>
      <trkpt lat="48.02068" lon="6.80401">
        <ele>736</ele>
        <time>2022-07-29T08:19:57Z</time>
      </trkpt>
      <trkpt lat="48.02069" lon="6.80404">
        <ele>736.2</ele>
        <time>2022-07-29T08:19:58Z</time>
      </trkpt>
      <trkpt lat="48.0207" lon="6.80407">
        <ele>736.2</ele>
        <time>2022-07-29T08:19:59Z</time>
      </trkpt>
      <trkpt lat="48.02071" lon="6.8041">
        <ele>736.4</ele>
        <time>2022-07-29T08:20:00Z</time>
      </trkpt>
      <trkpt lat="48.02072" lon="6.80413">
        <ele>736.4</ele>
        <time>2022-07-29T08:20:01Z</time>
      </trkpt>
      <trkpt lat="48.02073" lon="6.80416">
        <ele>736.6</ele>
        <time>2022-07-29T08:20:02Z</time>
      </trkpt>
      <trkpt lat="48.02074" lon="6.80418">
        <ele>736.8</ele>
        <time>2022-07-29T08:20:03Z</time>
      </trkpt>
      <trkpt lat="48.02075" lon="6.80421">
        <ele>736.8</ele>
        <time>2022-07-29T08:20:04Z</time>
      </trkpt>
      <trkpt lat="48.02076" lon="6.80424">
        <ele>737</ele>
        <time>2022-07-29T08:20:05Z</time>
      </trkpt>
      <trkpt lat="48.02076" lon="6.80428">
        <ele>737</ele>
        <time>2022-07-29T08:20:06Z</time>
      </trkpt>
      <trkpt lat="48.02077" lon="6.80432">
        <ele>737.4</ele>
        <time>2022-07-29T08:20:07Z</time>
      </trkpt>
      <trkpt lat="48.02078" lon="6.80435">
        <ele>737.4</ele>
        <time>2022-07-29T08:20:08Z</time>
      </trkpt>
      <trkpt lat="48.02079" lon="6.80438">
        <ele>737.6</ele>
        <time>2022-07-29T08:20:09Z</time>
      </trkpt>
      <trkpt lat="48.02079" lon="6.80441">
        <ele>737.6</ele>
        <time>2022-07-29T08:20:10Z</time>
      </trkpt>
      <trkpt lat="48.02079" lon="6.80445">
        <ele>737.8</ele>
        <time>2022-07-29T08:20:11Z</time>
      </trkpt>
      <trkpt lat="48.0208" lon="6.80448">
        <ele>737.8</ele>
        <time>2022-07-29T08:20:12Z</time>
      </trkpt>
      <trkpt lat="48.02081" lon="6.80451">
        <ele>738</ele>
        <time>2022-07-29T08:20:13Z</time>
      </trkpt>
      <trkpt lat="48.02081" lon="6.80454">
        <ele>738.2</ele>
        <time>2022-07-29T08:20:14Z</time>
      </trkpt>
      <trkpt lat="48.02081" lon="6.80457">
        <ele>738.2</ele>
        <time>2022-07-29T08:20:15Z</time>
      </trkpt>
      <trkpt lat="48.02082" lon="6.80461">
        <ele>738.4</ele>
        <time>2022-07-29T08:20:16Z</time>
      </trkpt>
      <trkpt lat="48.02083" lon="6.80464">
        <ele>738.6</ele>
        <time>2022-07-29T08:20:17Z</time>
      </trkpt>
      <trkpt lat="48.02083" lon="6.80467">
        <ele>738.8</ele>
        <time>2022-07-29T08:20:18Z</time>
      </trkpt>
      <trkpt lat="48.02084" lon="6.8047">
        <ele>738.8</ele>
        <time>2022-07-29T08:20:19Z</time>
      </trkpt>
      <trkpt lat="48.02084" lon="6.80473">
        <ele>739</ele>
        <time>2022-07-29T08:20:20Z</time>
      </trkpt>
      <trkpt lat="48.02084" lon="6.80477">
        <ele>739.2</ele>
        <time>2022-07-29T08:20:21Z</time>
      </trkpt>
      <trkpt lat="48.02085" lon="6.8048">
        <ele>739.6</ele>
        <time>2022-07-29T08:20:22Z</time>
      </trkpt>
      <trkpt lat="48.02085" lon="6.80484">
        <ele>739.8</ele>
        <time>2022-07-29T08:20:23Z</time>
      </trkpt>
      <trkpt lat="48.02085" lon="6.80487">
        <ele>740</ele>
        <time>2022-07-29T08:20:24Z</time>
      </trkpt>
      <trkpt lat="48.02085" lon="6.80491">
        <ele>740.2</ele>
        <time>2022-07-29T08:20:25Z</time>
      </trkpt>
      <trkpt lat="48.02085" lon="6.80494">
        <ele>740.2</ele>
        <time>2022-07-29T08:20:26Z</time>
      </trkpt>
      <trkpt lat="48.02086" lon="6.80497">
        <ele>740.4</ele>
        <time>2022-07-29T08:20:27Z</time>
      </trkpt>
      <trkpt lat="48.02086" lon="6.805">
        <ele>740.4</ele>
        <time>2022-07-29T08:20:28Z</time>
      </trkpt>
      <trkpt lat="48.02086" lon="6.80503">
        <ele>740.6</ele>
        <time>2022-07-29T08:20:29Z</time>
      </trkpt>
      <trkpt lat="48.02086" lon="6.80506">
        <ele>740.6</ele>
        <time>2022-07-29T08:20:30Z</time>
      </trkpt>
      <trkpt lat="48.02086" lon="6.8051">
        <ele>740.8</ele>
        <time>2022-07-29T08:20:31Z</time>
      </trkpt>
      <trkpt lat="48.02086" lon="6.80513">
        <ele>740.8</ele>
        <time>2022-07-29T08:20:32Z</time>
      </trkpt>
      <trkpt lat="48.02087" lon="6.80516">
        <ele>740.8</ele>
        <time>2022-07-29T08:20:33Z</time>
      </trkpt>
      <trkpt lat="48.02087" lon="6.8052">
        <ele>741</ele>
        <time>2022-07-29T08:20:34Z</time>
      </trkpt>
      <trkpt lat="48.02088" lon="6.80523">
        <ele>741</ele>
        <time>2022-07-29T08:20:35Z</time>
      </trkpt>
      <trkpt lat="48.02088" lon="6.80526">
        <ele>741.2</ele>
        <time>2022-07-29T08:20:36Z</time>
      </trkpt>
      <trkpt lat="48.02088" lon="6.80529">
        <ele>741.2</ele>
        <time>2022-07-29T08:20:37Z</time>
      </trkpt>
      <trkpt lat="48.02088" lon="6.80532">
        <ele>741.2</ele>
        <time>2022-07-29T08:20:38Z</time>
      </trkpt>
      <trkpt lat="48.02089" lon="6.80534">
        <ele>741.4</ele>
        <time>2022-07-29T08:20:39Z</time>
      </trkpt>
      <trkpt lat="48.02089" lon="6.80537">
        <ele>741.6</ele>
        <time>2022-07-29T08:20:40Z</time>
      </trkpt>
      <trkpt lat="48.0209" lon="6.8054">
        <ele>741.8</ele>
        <time>2022-07-29T08:20:41Z</time>
      </trkpt>
      <trkpt lat="48.0209" lon="6.80543">
        <ele>742</ele>
        <time>2022-07-29T08:20:42Z</time>
      </trkpt>
      <trkpt lat="48.02091" lon="6.80546">
        <ele>742.2</ele>
        <time>2022-07-29T08:20:43Z</time>
      </trkpt>
      <trkpt lat="48.02091" lon="6.8055">
        <ele>742.2</ele>
        <time>2022-07-29T08:20:44Z</time>
      </trkpt>
      <trkpt lat="48.02092" lon="6.80553">
        <ele>742.2</ele>
        <time>2022-07-29T08:20:45Z</time>
      </trkpt>
      <trkpt lat="48.02092" lon="6.80557">
        <ele>742.4</ele>
        <time>2022-07-29T08:20:46Z</time>
      </trkpt>
      <trkpt lat="48.02093" lon="6.8056">
        <ele>742.6</ele>
        <time>2022-07-29T08:20:47Z</time>
      </trkpt>
      <trkpt lat="48.02093" lon="6.80563">
        <ele>742.8</ele>
        <time>2022-07-29T08:20:48Z</time>
      </trkpt>
      <trkpt lat="48.02094" lon="6.80566">
        <ele>742.8</ele>
        <time>2022-07-29T08:20:49Z</time>
      </trkpt>
      <trkpt lat="48.02094" lon="6.8057">
        <ele>743</ele>
        <time>2022-07-29T08:20:50Z</time>
      </trkpt>
      <trkpt lat="48.02095" lon="6.80573">
        <ele>743</ele>
        <time>2022-07-29T08:20:51Z</time>
      </trkpt>
      <trkpt lat="48.02095" lon="6.80577">
        <ele>743.2</ele>
        <time>2022-07-29T08:20:52Z</time>
      </trkpt>
      <trkpt lat="48.02095" lon="6.8058">
        <ele>743.4</ele>
        <time>2022-07-29T08:20:53Z</time>
      </trkpt>
      <trkpt lat="48.02096" lon="6.80583">
        <ele>743.6</ele>
        <time>2022-07-29T08:20:54Z</time>
      </trkpt>
      <trkpt lat="48.02096" lon="6.80587">
        <ele>743.6</ele>
        <time>2022-07-29T08:20:55Z</time>
      </trkpt>
      <trkpt lat="48.02096" lon="6.8059">
        <ele>743.8</ele>
        <time>2022-07-29T08:20:56Z</time>
      </trkpt>
      <trkpt lat="48.02096" lon="6.80593">
        <ele>744</ele>
        <time>2022-07-29T08:20:57Z</time>
      </trkpt>
      <trkpt lat="48.02097" lon="6.80596">
        <ele>744</ele>
        <time>2022-07-29T08:20:58Z</time>
      </trkpt>
      <trkpt lat="48.02097" lon="6.80599">
        <ele>744.2</ele>
        <time>2022-07-29T08:20:59Z</time>
      </trkpt>
      <trkpt lat="48.02097" lon="6.80602">
        <ele>744.2</ele>
        <time>2022-07-29T08:21:00Z</time>
      </trkpt>
      <trkpt lat="48.02097" lon="6.80605">
        <ele>744.4</ele>
        <time>2022-07-29T08:21:01Z</time>
      </trkpt>
      <trkpt lat="48.02096" lon="6.80609">
        <ele>744.6</ele>
        <time>2022-07-29T08:21:02Z</time>
      </trkpt>
      <trkpt lat="48.02096" lon="6.80612">
        <ele>744.8</ele>
        <time>2022-07-29T08:21:03Z</time>
      </trkpt>
      <trkpt lat="48.02096" lon="6.80615">
        <ele>744.8</ele>
        <time>2022-07-29T08:21:04Z</time>
      </trkpt>
      <trkpt lat="48.02095" lon="6.80618">
        <ele>745</ele>
        <time>2022-07-29T08:21:05Z</time>
      </trkpt>
      <trkpt lat="48.02094" lon="6.80621">
        <ele>745.2</ele>
        <time>2022-07-29T08:21:06Z</time>
      </trkpt>
      <trkpt lat="48.02094" lon="6.80624">
        <ele>745.2</ele>
        <time>2022-07-29T08:21:07Z</time>
      </trkpt>
      <trkpt lat="48.02094" lon="6.80628">
        <ele>745.2</ele>
        <time>2022-07-29T08:21:08Z</time>
      </trkpt>
      <trkpt lat="48.02094" lon="6.80632">
        <ele>745.4</ele>
        <time>2022-07-29T08:21:09Z</time>
      </trkpt>
      <trkpt lat="48.02093" lon="6.80636">
        <ele>745.4</ele>
        <time>2022-07-29T08:21:10Z</time>
      </trkpt>
      <trkpt lat="48.02093" lon="6.80639">
        <ele>745.4</ele>
        <time>2022-07-29T08:21:11Z</time>
      </trkpt>
      <trkpt lat="48.02093" lon="6.80642">
        <ele>745.6</ele>
        <time>2022-07-29T08:21:12Z</time>
      </trkpt>
      <trkpt lat="48.02093" lon="6.80645">
        <ele>745.6</ele>
        <time>2022-07-29T08:21:13Z</time>
      </trkpt>
      <trkpt lat="48.02092" lon="6.80649">
        <ele>745.6</ele>
        <time>2022-07-29T08:21:14Z</time>
      </trkpt>
      <trkpt lat="48.02092" lon="6.80653">
        <ele>745.8</ele>
        <time>2022-07-29T08:21:15Z</time>
      </trkpt>
      <trkpt lat="48.02092" lon="6.80657">
        <ele>746</ele>
        <time>2022-07-29T08:21:16Z</time>
      </trkpt>
      <trkpt lat="48.02092" lon="6.80661">
        <ele>746</ele>
        <time>2022-07-29T08:21:17Z</time>
      </trkpt>
      <trkpt lat="48.02092" lon="6.80665">
        <ele>746.2</ele>
        <time>2022-07-29T08:21:18Z</time>
      </trkpt>
      <trkpt lat="48.02092" lon="6.80668">
        <ele>746.2</ele>
        <time>2022-07-29T08:21:19Z</time>
      </trkpt>
      <trkpt lat="48.02092" lon="6.80672">
        <ele>746.4</ele>
        <time>2022-07-29T08:21:20Z</time>
      </trkpt>
      <trkpt lat="48.02092" lon="6.80676">
        <ele>746.4</ele>
        <time>2022-07-29T08:21:21Z</time>
      </trkpt>
      <trkpt lat="48.02092" lon="6.80679">
        <ele>746.6</ele>
        <time>2022-07-29T08:21:22Z</time>
      </trkpt>
      <trkpt lat="48.02093" lon="6.80684">
        <ele>746.8</ele>
        <time>2022-07-29T08:21:23Z</time>
      </trkpt>
      <trkpt lat="48.02093" lon="6.80688">
        <ele>747</ele>
        <time>2022-07-29T08:21:24Z</time>
      </trkpt>
      <trkpt lat="48.02092" lon="6.80693">
        <ele>746.8</ele>
        <time>2022-07-29T08:21:25Z</time>
      </trkpt>
      <trkpt lat="48.02092" lon="6.80697">
        <ele>747</ele>
        <time>2022-07-29T08:21:26Z</time>
      </trkpt>
      <trkpt lat="48.02092" lon="6.80701">
        <ele>747</ele>
        <time>2022-07-29T08:21:27Z</time>
      </trkpt>
      <trkpt lat="48.02092" lon="6.80705">
        <ele>747</ele>
        <time>2022-07-29T08:21:28Z</time>
      </trkpt>
      <trkpt lat="48.02092" lon="6.80709">
        <ele>747.2</ele>
        <time>2022-07-29T08:21:29Z</time>
      </trkpt>
      <trkpt lat="48.02092" lon="6.80713">
        <ele>747.4</ele>
        <time>2022-07-29T08:21:30Z</time>
      </trkpt>
      <trkpt lat="48.02093" lon="6.80717">
        <ele>747.4</ele>
        <time>2022-07-29T08:21:31Z</time>
      </trkpt>
      <trkpt lat="48.02095" lon="6.80721">
        <ele>747.6</ele>
        <time>2022-07-29T08:21:32Z</time>
      </trkpt>
      <trkpt lat="48.02096" lon="6.80725">
        <ele>747.8</ele>
        <time>2022-07-29T08:21:33Z</time>
      </trkpt>
      <trkpt lat="48.02095" lon="6.8073">
        <ele>747.8</ele>
        <time>2022-07-29T08:21:34Z</time>
      </trkpt>
      <trkpt lat="48.02094" lon="6.80733">
        <ele>748</ele>
        <time>2022-07-29T08:21:35Z</time>
      </trkpt>
      <trkpt lat="48.02093" lon="6.80737">
        <ele>748.2</ele>
        <time>2022-07-29T08:21:36Z</time>
      </trkpt>
      <trkpt lat="48.02092" lon="6.80741">
        <ele>748.2</ele>
        <time>2022-07-29T08:21:37Z</time>
      </trkpt>
      <trkpt lat="48.02091" lon="6.80746">
        <ele>748.4</ele>
        <time>2022-07-29T08:21:38Z</time>
      </trkpt>
      <trkpt lat="48.0209" lon="6.8075">
        <ele>748.4</ele>
        <time>2022-07-29T08:21:39Z</time>
      </trkpt>
      <trkpt lat="48.0209" lon="6.80753">
        <ele>748.6</ele>
        <time>2022-07-29T08:21:40Z</time>
      </trkpt>
      <trkpt lat="48.0209" lon="6.80757">
        <ele>748.6</ele>
        <time>2022-07-29T08:21:41Z</time>
      </trkpt>
      <trkpt lat="48.02091" lon="6.80762">
        <ele>748.6</ele>
        <time>2022-07-29T08:21:42Z</time>
      </trkpt>
      <trkpt lat="48.0209" lon="6.80766">
        <ele>748.4</ele>
        <time>2022-07-29T08:21:43Z</time>
      </trkpt>
      <trkpt lat="48.02091" lon="6.8077">
        <ele>748.8</ele>
        <time>2022-07-29T08:21:44Z</time>
      </trkpt>
      <trkpt lat="48.02091" lon="6.80774">
        <ele>748.6</ele>
        <time>2022-07-29T08:21:45Z</time>
      </trkpt>
      <trkpt lat="48.02091" lon="6.80778">
        <ele>748.6</ele>
        <time>2022-07-29T08:21:46Z</time>
      </trkpt>
      <trkpt lat="48.02091" lon="6.80781">
        <ele>748.6</ele>
        <time>2022-07-29T08:21:47Z</time>
      </trkpt>
      <trkpt lat="48.02092" lon="6.80785">
        <ele>748.8</ele>
        <time>2022-07-29T08:21:48Z</time>
      </trkpt>
      <trkpt lat="48.02091" lon="6.80789">
        <ele>748.8</ele>
        <time>2022-07-29T08:21:49Z</time>
      </trkpt>
      <trkpt lat="48.02092" lon="6.80794">
        <ele>748.8</ele>
        <time>2022-07-29T08:21:50Z</time>
      </trkpt>
      <trkpt lat="48.02092" lon="6.80798">
        <ele>749</ele>
        <time>2022-07-29T08:21:51Z</time>
      </trkpt>
      <trkpt lat="48.02091" lon="6.80814">
        <ele>749.4</ele>
        <time>2022-07-29T08:21:55Z</time>
      </trkpt>
      <trkpt lat="48.02089" lon="6.80835">
        <ele>749.6</ele>
        <time>2022-07-29T08:22:01Z</time>
      </trkpt>
      <trkpt lat="48.02088" lon="6.80838">
        <ele>749.8</ele>
        <time>2022-07-29T08:22:02Z</time>
      </trkpt>
      <trkpt lat="48.02086" lon="6.80841">
        <ele>749.8</ele>
        <time>2022-07-29T08:22:03Z</time>
      </trkpt>
      <trkpt lat="48.02085" lon="6.80844">
        <ele>749.8</ele>
        <time>2022-07-29T08:22:04Z</time>
      </trkpt>
      <trkpt lat="48.02084" lon="6.80847">
        <ele>749.8</ele>
        <time>2022-07-29T08:22:05Z</time>
      </trkpt>
      <trkpt lat="48.02083" lon="6.80851">
        <ele>749.8</ele>
        <time>2022-07-29T08:22:06Z</time>
      </trkpt>
      <trkpt lat="48.02082" lon="6.80854">
        <ele>749.8</ele>
        <time>2022-07-29T08:22:07Z</time>
      </trkpt>
      <trkpt lat="48.02082" lon="6.80857">
        <ele>749.8</ele>
        <time>2022-07-29T08:22:08Z</time>
      </trkpt>
      <trkpt lat="48.02081" lon="6.80859">
        <ele>750</ele>
        <time>2022-07-29T08:22:09Z</time>
      </trkpt>
      <trkpt lat="48.02079" lon="6.80862">
        <ele>750.2</ele>
        <time>2022-07-29T08:22:10Z</time>
      </trkpt>
      <trkpt lat="48.02078" lon="6.80865">
        <ele>750.2</ele>
        <time>2022-07-29T08:22:11Z</time>
      </trkpt>
      <trkpt lat="48.02077" lon="6.80868">
        <ele>750.2</ele>
        <time>2022-07-29T08:22:12Z</time>
      </trkpt>
      <trkpt lat="48.02073" lon="6.80881">
        <ele>750.8</ele>
        <time>2022-07-29T08:22:16Z</time>
      </trkpt>
      <trkpt lat="48.02072" lon="6.80884">
        <ele>750.6</ele>
        <time>2022-07-29T08:22:17Z</time>
      </trkpt>
      <trkpt lat="48.02071" lon="6.80888">
        <ele>750.8</ele>
        <time>2022-07-29T08:22:18Z</time>
      </trkpt>
      <trkpt lat="48.02068" lon="6.80906">
        <ele>751.4</ele>
        <time>2022-07-29T08:22:23Z</time>
      </trkpt>
      <trkpt lat="48.02068" lon="6.80909">
        <ele>751.6</ele>
        <time>2022-07-29T08:22:24Z</time>
      </trkpt>
      <trkpt lat="48.02065" lon="6.80934">
        <ele>751.8</ele>
        <time>2022-07-29T08:22:29Z</time>
      </trkpt>
      <trkpt lat="48.02065" lon="6.80944">
        <ele>752</ele>
        <time>2022-07-29T08:22:31Z</time>
      </trkpt>
      <trkpt lat="48.02064" lon="6.80972">
        <ele>752.6</ele>
        <time>2022-07-29T08:22:37Z</time>
      </trkpt>
      <trkpt lat="48.02064" lon="6.80976">
        <ele>752.6</ele>
        <time>2022-07-29T08:22:38Z</time>
      </trkpt>
      <trkpt lat="48.02063" lon="6.8098">
        <ele>752.8</ele>
        <time>2022-07-29T08:22:39Z</time>
      </trkpt>
      <trkpt lat="48.02064" lon="6.80983">
        <ele>752.8</ele>
        <time>2022-07-29T08:22:40Z</time>
      </trkpt>
      <trkpt lat="48.02064" lon="6.80987">
        <ele>752.8</ele>
        <time>2022-07-29T08:22:41Z</time>
      </trkpt>
      <trkpt lat="48.02064" lon="6.80992">
        <ele>752.8</ele>
        <time>2022-07-29T08:22:42Z</time>
      </trkpt>
      <trkpt lat="48.02064" lon="6.81002">
        <ele>753</ele>
        <time>2022-07-29T08:22:45Z</time>
      </trkpt>
      <trkpt lat="48.02063" lon="6.81005">
        <ele>753.2</ele>
        <time>2022-07-29T08:22:46Z</time>
      </trkpt>
      <trkpt lat="48.02063" lon="6.8101">
        <ele>753.4</ele>
        <time>2022-07-29T08:22:47Z</time>
      </trkpt>
      <trkpt lat="48.02063" lon="6.81014">
        <ele>753.6</ele>
        <time>2022-07-29T08:22:48Z</time>
      </trkpt>
      <trkpt lat="48.02063" lon="6.81018">
        <ele>753.8</ele>
        <time>2022-07-29T08:22:49Z</time>
      </trkpt>
      <trkpt lat="48.02063" lon="6.81021">
        <ele>754</ele>
        <time>2022-07-29T08:22:50Z</time>
      </trkpt>
      <trkpt lat="48.02062" lon="6.81026">
        <ele>754</ele>
        <time>2022-07-29T08:22:51Z</time>
      </trkpt>
      <trkpt lat="48.02062" lon="6.8103">
        <ele>754</ele>
        <time>2022-07-29T08:22:52Z</time>
      </trkpt>
      <trkpt lat="48.02061" lon="6.81033">
        <ele>754.2</ele>
        <time>2022-07-29T08:22:53Z</time>
      </trkpt>
      <trkpt lat="48.02061" lon="6.81041">
        <ele>754.4</ele>
        <time>2022-07-29T08:22:55Z</time>
      </trkpt>
      <trkpt lat="48.02061" lon="6.81045">
        <ele>754.4</ele>
        <time>2022-07-29T08:22:56Z</time>
      </trkpt>
      <trkpt lat="48.02062" lon="6.81049">
        <ele>754.4</ele>
        <time>2022-07-29T08:22:57Z</time>
      </trkpt>
      <trkpt lat="48.02061" lon="6.81054">
        <ele>754.4</ele>
        <time>2022-07-29T08:22:58Z</time>
      </trkpt>
      <trkpt lat="48.02061" lon="6.81058">
        <ele>754.4</ele>
        <time>2022-07-29T08:22:59Z</time>
      </trkpt>
      <trkpt lat="48.02061" lon="6.81061">
        <ele>754.6</ele>
        <time>2022-07-29T08:23:00Z</time>
      </trkpt>
      <trkpt lat="48.02061" lon="6.81065">
        <ele>754.6</ele>
        <time>2022-07-29T08:23:01Z</time>
      </trkpt>
      <trkpt lat="48.02061" lon="6.81069">
        <ele>754.6</ele>
        <time>2022-07-29T08:23:02Z</time>
      </trkpt>
      <trkpt lat="48.02061" lon="6.81073">
        <ele>754.8</ele>
        <time>2022-07-29T08:23:03Z</time>
      </trkpt>
      <trkpt lat="48.02061" lon="6.81082">
        <ele>754.8</ele>
        <time>2022-07-29T08:23:05Z</time>
      </trkpt>
      <trkpt lat="48.02062" lon="6.81085">
        <ele>754.8</ele>
        <time>2022-07-29T08:23:06Z</time>
      </trkpt>
      <trkpt lat="48.02062" lon="6.81089">
        <ele>755</ele>
        <time>2022-07-29T08:23:07Z</time>
      </trkpt>
      <trkpt lat="48.02063" lon="6.81094">
        <ele>755</ele>
        <time>2022-07-29T08:23:08Z</time>
      </trkpt>
      <trkpt lat="48.02064" lon="6.8111">
        <ele>755.4</ele>
        <time>2022-07-29T08:23:12Z</time>
      </trkpt>
      <trkpt lat="48.02063" lon="6.81122">
        <ele>755.8</ele>
        <time>2022-07-29T08:23:15Z</time>
      </trkpt>
      <trkpt lat="48.02063" lon="6.81135">
        <ele>756.2</ele>
        <time>2022-07-29T08:23:19Z</time>
      </trkpt>
      <trkpt lat="48.02063" lon="6.81151">
        <ele>756.8</ele>
        <time>2022-07-29T08:23:23Z</time>
      </trkpt>
      <trkpt lat="48.02062" lon="6.81159">
        <ele>757</ele>
        <time>2022-07-29T08:23:25Z</time>
      </trkpt>
      <trkpt lat="48.02062" lon="6.81165">
        <ele>757</ele>
        <time>2022-07-29T08:23:26Z</time>
      </trkpt>
      <trkpt lat="48.02062" lon="6.81169">
        <ele>757.2</ele>
        <time>2022-07-29T08:23:27Z</time>
      </trkpt>
      <trkpt lat="48.02061" lon="6.81173">
        <ele>757.2</ele>
        <time>2022-07-29T08:23:28Z</time>
      </trkpt>
      <trkpt lat="48.0206" lon="6.81177">
        <ele>757.2</ele>
        <time>2022-07-29T08:23:29Z</time>
      </trkpt>
      <trkpt lat="48.02059" lon="6.81182">
        <ele>757</ele>
        <time>2022-07-29T08:23:30Z</time>
      </trkpt>
      <trkpt lat="48.02058" lon="6.81188">
        <ele>757.2</ele>
        <time>2022-07-29T08:23:31Z</time>
      </trkpt>
      <trkpt lat="48.02057" lon="6.81194">
        <ele>757.4</ele>
        <time>2022-07-29T08:23:32Z</time>
      </trkpt>
      <trkpt lat="48.02056" lon="6.81198">
        <ele>757.2</ele>
        <time>2022-07-29T08:23:33Z</time>
      </trkpt>
      <trkpt lat="48.02055" lon="6.81203">
        <ele>757.4</ele>
        <time>2022-07-29T08:23:34Z</time>
      </trkpt>
      <trkpt lat="48.02054" lon="6.81208">
        <ele>757.4</ele>
        <time>2022-07-29T08:23:35Z</time>
      </trkpt>
      <trkpt lat="48.02053" lon="6.81212">
        <ele>757.6</ele>
        <time>2022-07-29T08:23:36Z</time>
      </trkpt>
      <trkpt lat="48.02052" lon="6.81215">
        <ele>757.6</ele>
        <time>2022-07-29T08:23:37Z</time>
      </trkpt>
      <trkpt lat="48.0205" lon="6.81218">
        <ele>757.8</ele>
        <time>2022-07-29T08:23:38Z</time>
      </trkpt>
      <trkpt lat="48.0205" lon="6.81223">
        <ele>757.8</ele>
        <time>2022-07-29T08:23:39Z</time>
      </trkpt>
      <trkpt lat="48.02049" lon="6.81227">
        <ele>757.8</ele>
        <time>2022-07-29T08:23:40Z</time>
      </trkpt>
      <trkpt lat="48.02047" lon="6.8123">
        <ele>758</ele>
        <time>2022-07-29T08:23:41Z</time>
      </trkpt>
      <trkpt lat="48.02046" lon="6.81233">
        <ele>758</ele>
        <time>2022-07-29T08:23:42Z</time>
      </trkpt>
      <trkpt lat="48.02044" lon="6.81236">
        <ele>758</ele>
        <time>2022-07-29T08:23:43Z</time>
      </trkpt>
      <trkpt lat="48.02043" lon="6.81239">
        <ele>758.2</ele>
        <time>2022-07-29T08:23:44Z</time>
      </trkpt>
      <trkpt lat="48.02041" lon="6.81244">
        <ele>758.2</ele>
        <time>2022-07-29T08:23:45Z</time>
      </trkpt>
      <trkpt lat="48.0204" lon="6.81248">
        <ele>758.2</ele>
        <time>2022-07-29T08:23:46Z</time>
      </trkpt>
      <trkpt lat="48.02037" lon="6.8126">
        <ele>758.6</ele>
        <time>2022-07-29T08:23:49Z</time>
      </trkpt>
      <trkpt lat="48.02035" lon="6.81271">
        <ele>758.8</ele>
        <time>2022-07-29T08:23:52Z</time>
      </trkpt>
      <trkpt lat="48.02033" lon="6.81284">
        <ele>759.2</ele>
        <time>2022-07-29T08:23:55Z</time>
      </trkpt>
      <trkpt lat="48.02025" lon="6.81313">
        <ele>759.8</ele>
        <time>2022-07-29T08:24:03Z</time>
      </trkpt>
      <trkpt lat="48.02024" lon="6.81316">
        <ele>759.8</ele>
        <time>2022-07-29T08:24:04Z</time>
      </trkpt>
      <trkpt lat="48.0201" lon="6.81341">
        <ele>760.8</ele>
        <time>2022-07-29T08:24:12Z</time>
      </trkpt>
      <trkpt lat="48.02008" lon="6.81343">
        <ele>761</ele>
        <time>2022-07-29T08:24:13Z</time>
      </trkpt>
      <trkpt lat="48.01996" lon="6.8136">
        <ele>761.6</ele>
        <time>2022-07-29T08:24:19Z</time>
      </trkpt>
      <trkpt lat="48.01994" lon="6.81363">
        <ele>761.8</ele>
        <time>2022-07-29T08:24:20Z</time>
      </trkpt>
      <trkpt lat="48.01992" lon="6.81365">
        <ele>761.8</ele>
        <time>2022-07-29T08:24:21Z</time>
      </trkpt>
      <trkpt lat="48.0199" lon="6.81368">
        <ele>762</ele>
        <time>2022-07-29T08:24:22Z</time>
      </trkpt>
      <trkpt lat="48.01988" lon="6.8137">
        <ele>762</ele>
        <time>2022-07-29T08:24:23Z</time>
      </trkpt>
      <trkpt lat="48.01986" lon="6.81373">
        <ele>762</ele>
        <time>2022-07-29T08:24:24Z</time>
      </trkpt>
      <trkpt lat="48.01983" lon="6.81375">
        <ele>762</ele>
        <time>2022-07-29T08:24:25Z</time>
      </trkpt>
      <trkpt lat="48.01981" lon="6.81377">
        <ele>762.2</ele>
        <time>2022-07-29T08:24:26Z</time>
      </trkpt>
      <trkpt lat="48.01979" lon="6.8138">
        <ele>762.4</ele>
        <time>2022-07-29T08:24:27Z</time>
      </trkpt>
      <trkpt lat="48.01977" lon="6.81383">
        <ele>762.6</ele>
        <time>2022-07-29T08:24:28Z</time>
      </trkpt>
      <trkpt lat="48.01975" lon="6.81385">
        <ele>762.6</ele>
        <time>2022-07-29T08:24:29Z</time>
      </trkpt>
      <trkpt lat="48.01973" lon="6.81388">
        <ele>762.6</ele>
        <time>2022-07-29T08:24:30Z</time>
      </trkpt>
      <trkpt lat="48.01971" lon="6.8139">
        <ele>762.8</ele>
        <time>2022-07-29T08:24:31Z</time>
      </trkpt>
      <trkpt lat="48.01969" lon="6.81393">
        <ele>762.8</ele>
        <time>2022-07-29T08:24:32Z</time>
      </trkpt>
      <trkpt lat="48.01967" lon="6.81396">
        <ele>763</ele>
        <time>2022-07-29T08:24:33Z</time>
      </trkpt>
      <trkpt lat="48.01965" lon="6.81398">
        <ele>763</ele>
        <time>2022-07-29T08:24:34Z</time>
      </trkpt>
      <trkpt lat="48.01963" lon="6.814">
        <ele>763.2</ele>
        <time>2022-07-29T08:24:35Z</time>
      </trkpt>
      <trkpt lat="48.01961" lon="6.81403">
        <ele>763.2</ele>
        <time>2022-07-29T08:24:36Z</time>
      </trkpt>
      <trkpt lat="48.0196" lon="6.81405">
        <ele>763.2</ele>
        <time>2022-07-29T08:24:37Z</time>
      </trkpt>
      <trkpt lat="48.01958" lon="6.81407">
        <ele>763.4</ele>
        <time>2022-07-29T08:24:38Z</time>
      </trkpt>
      <trkpt lat="48.01955" lon="6.81408">
        <ele>763.4</ele>
        <time>2022-07-29T08:24:39Z</time>
      </trkpt>
      <trkpt lat="48.01951" lon="6.81412">
        <ele>763.8</ele>
        <time>2022-07-29T08:24:41Z</time>
      </trkpt>
      <trkpt lat="48.01949" lon="6.81413">
        <ele>764</ele>
        <time>2022-07-29T08:24:42Z</time>
      </trkpt>
      <trkpt lat="48.01947" lon="6.81415">
        <ele>764</ele>
        <time>2022-07-29T08:24:43Z</time>
      </trkpt>
      <trkpt lat="48.01945" lon="6.81416">
        <ele>764.2</ele>
        <time>2022-07-29T08:24:44Z</time>
      </trkpt>
      <trkpt lat="48.01943" lon="6.81417">
        <ele>764.4</ele>
        <time>2022-07-29T08:24:45Z</time>
      </trkpt>
      <trkpt lat="48.01941" lon="6.81418">
        <ele>764.6</ele>
        <time>2022-07-29T08:24:46Z</time>
      </trkpt>
      <trkpt lat="48.01939" lon="6.81419">
        <ele>764.6</ele>
        <time>2022-07-29T08:24:47Z</time>
      </trkpt>
      <trkpt lat="48.01937" lon="6.81419">
        <ele>764.8</ele>
        <time>2022-07-29T08:24:48Z</time>
      </trkpt>
      <trkpt lat="48.01935" lon="6.8142">
        <ele>765</ele>
        <time>2022-07-29T08:24:49Z</time>
      </trkpt>
      <trkpt lat="48.01933" lon="6.8142">
        <ele>765.2</ele>
        <time>2022-07-29T08:24:50Z</time>
      </trkpt>
      <trkpt lat="48.01931" lon="6.81421">
        <ele>765.4</ele>
        <time>2022-07-29T08:24:51Z</time>
      </trkpt>
      <trkpt lat="48.0193" lon="6.81422">
        <ele>765.6</ele>
        <time>2022-07-29T08:24:52Z</time>
      </trkpt>
      <trkpt lat="48.01927" lon="6.81423">
        <ele>765.8</ele>
        <time>2022-07-29T08:24:53Z</time>
      </trkpt>
      <trkpt lat="48.01925" lon="6.81424">
        <ele>765.8</ele>
        <time>2022-07-29T08:24:54Z</time>
      </trkpt>
      <trkpt lat="48.01923" lon="6.81424">
        <ele>766</ele>
        <time>2022-07-29T08:24:55Z</time>
      </trkpt>
      <trkpt lat="48.0192" lon="6.81424">
        <ele>766.2</ele>
        <time>2022-07-29T08:24:56Z</time>
      </trkpt>
      <trkpt lat="48.01918" lon="6.81425">
        <ele>766.6</ele>
        <time>2022-07-29T08:24:57Z</time>
      </trkpt>
      <trkpt lat="48.01916" lon="6.81426">
        <ele>766.8</ele>
        <time>2022-07-29T08:24:58Z</time>
      </trkpt>
      <trkpt lat="48.01914" lon="6.81426">
        <ele>766.8</ele>
        <time>2022-07-29T08:24:59Z</time>
      </trkpt>
      <trkpt lat="48.01912" lon="6.81428">
        <ele>767</ele>
        <time>2022-07-29T08:25:00Z</time>
      </trkpt>
      <trkpt lat="48.0191" lon="6.81429">
        <ele>767</ele>
        <time>2022-07-29T08:25:01Z</time>
      </trkpt>
      <trkpt lat="48.01908" lon="6.81431">
        <ele>767.2</ele>
        <time>2022-07-29T08:25:02Z</time>
      </trkpt>
      <trkpt lat="48.01906" lon="6.81433">
        <ele>767.4</ele>
        <time>2022-07-29T08:25:03Z</time>
      </trkpt>
      <trkpt lat="48.01904" lon="6.81434">
        <ele>767.8</ele>
        <time>2022-07-29T08:25:04Z</time>
      </trkpt>
      <trkpt lat="48.01902" lon="6.81434">
        <ele>767.8</ele>
        <time>2022-07-29T08:25:05Z</time>
      </trkpt>
      <trkpt lat="48.019" lon="6.81435">
        <ele>768.2</ele>
        <time>2022-07-29T08:25:06Z</time>
      </trkpt>
      <trkpt lat="48.01899" lon="6.81437">
        <ele>768.2</ele>
        <time>2022-07-29T08:25:07Z</time>
      </trkpt>
      <trkpt lat="48.01897" lon="6.81438">
        <ele>768.4</ele>
        <time>2022-07-29T08:25:08Z</time>
      </trkpt>
      <trkpt lat="48.01895" lon="6.8144">
        <ele>768.4</ele>
        <time>2022-07-29T08:25:09Z</time>
      </trkpt>
      <trkpt lat="48.01893" lon="6.81441">
        <ele>768.4</ele>
        <time>2022-07-29T08:25:10Z</time>
      </trkpt>
      <trkpt lat="48.01891" lon="6.81442">
        <ele>768.6</ele>
        <time>2022-07-29T08:25:11Z</time>
      </trkpt>
      <trkpt lat="48.0189" lon="6.81443">
        <ele>768.8</ele>
        <time>2022-07-29T08:25:12Z</time>
      </trkpt>
      <trkpt lat="48.01886" lon="6.81444">
        <ele>769</ele>
        <time>2022-07-29T08:25:13Z</time>
      </trkpt>
      <trkpt lat="48.01884" lon="6.81446">
        <ele>769.2</ele>
        <time>2022-07-29T08:25:14Z</time>
      </trkpt>
      <trkpt lat="48.01882" lon="6.81447">
        <ele>769.2</ele>
        <time>2022-07-29T08:25:15Z</time>
      </trkpt>
      <trkpt lat="48.01882" lon="6.81447">
        <ele>769.2</ele>
        <time>2022-07-29T08:25:16Z</time>
      </trkpt>
      <trkpt lat="48.0188" lon="6.81447">
        <ele>769.6</ele>
        <time>2022-07-29T08:25:17Z</time>
      </trkpt>
      <trkpt lat="48.01878" lon="6.81449">
        <ele>769.6</ele>
        <time>2022-07-29T08:25:18Z</time>
      </trkpt>
      <trkpt lat="48.01876" lon="6.81451">
        <ele>769.8</ele>
        <time>2022-07-29T08:25:19Z</time>
      </trkpt>
      <trkpt lat="48.01874" lon="6.81452">
        <ele>770</ele>
        <time>2022-07-29T08:25:20Z</time>
      </trkpt>
      <trkpt lat="48.01872" lon="6.81453">
        <ele>770</ele>
        <time>2022-07-29T08:25:21Z</time>
      </trkpt>
      <trkpt lat="48.0187" lon="6.81454">
        <ele>770.2</ele>
        <time>2022-07-29T08:25:22Z</time>
      </trkpt>
      <trkpt lat="48.01868" lon="6.81456">
        <ele>770.2</ele>
        <time>2022-07-29T08:25:23Z</time>
      </trkpt>
      <trkpt lat="48.01865" lon="6.81458">
        <ele>770.4</ele>
        <time>2022-07-29T08:25:24Z</time>
      </trkpt>
      <trkpt lat="48.01861" lon="6.81462">
        <ele>770.4</ele>
        <time>2022-07-29T08:25:25Z</time>
      </trkpt>
      <trkpt lat="48.01859" lon="6.81464">
        <ele>770.6</ele>
        <time>2022-07-29T08:25:26Z</time>
      </trkpt>
      <trkpt lat="48.01859" lon="6.81464">
        <ele>770.6</ele>
        <time>2022-07-29T08:25:27Z</time>
      </trkpt>
      <trkpt lat="48.01857" lon="6.81465">
        <ele>770.6</ele>
        <time>2022-07-29T08:25:28Z</time>
      </trkpt>
      <trkpt lat="48.01854" lon="6.8147">
        <ele>770.8</ele>
        <time>2022-07-29T08:25:29Z</time>
      </trkpt>
      <trkpt lat="48.01854" lon="6.8147">
        <ele>770.8</ele>
        <time>2022-07-29T08:25:30Z</time>
      </trkpt>
      <trkpt lat="48.0185" lon="6.81473">
        <ele>771</ele>
        <time>2022-07-29T08:25:31Z</time>
      </trkpt>
      <trkpt lat="48.01848" lon="6.81474">
        <ele>771.2</ele>
        <time>2022-07-29T08:25:32Z</time>
      </trkpt>
      <trkpt lat="48.01848" lon="6.81474">
        <ele>771.2</ele>
        <time>2022-07-29T08:25:33Z</time>
      </trkpt>
      <trkpt lat="48.01846" lon="6.81474">
        <ele>771.4</ele>
        <time>2022-07-29T08:25:34Z</time>
      </trkpt>
      <trkpt lat="48.01842" lon="6.81477">
        <ele>771.4</ele>
        <time>2022-07-29T08:25:35Z</time>
      </trkpt>
      <trkpt lat="48.0184" lon="6.81477">
        <ele>771.6</ele>
        <time>2022-07-29T08:25:36Z</time>
      </trkpt>
      <trkpt lat="48.01838" lon="6.81478">
        <ele>771.8</ele>
        <time>2022-07-29T08:25:37Z</time>
      </trkpt>
      <trkpt lat="48.01836" lon="6.81479">
        <ele>772</ele>
        <time>2022-07-29T08:25:38Z</time>
      </trkpt>
      <trkpt lat="48.01834" lon="6.8148">
        <ele>772</ele>
        <time>2022-07-29T08:25:39Z</time>
      </trkpt>
      <trkpt lat="48.01831" lon="6.81481">
        <ele>772.2</ele>
        <time>2022-07-29T08:25:40Z</time>
      </trkpt>
      <trkpt lat="48.01829" lon="6.81483">
        <ele>772.4</ele>
        <time>2022-07-29T08:25:41Z</time>
      </trkpt>
      <trkpt lat="48.01829" lon="6.81483">
        <ele>772.8</ele>
        <time>2022-07-29T08:25:42Z</time>
      </trkpt>
      <trkpt lat="48.01825" lon="6.81486">
        <ele>772.8</ele>
        <time>2022-07-29T08:25:43Z</time>
      </trkpt>
      <trkpt lat="48.01823" lon="6.81487">
        <ele>773</ele>
        <time>2022-07-29T08:25:44Z</time>
      </trkpt>
      <trkpt lat="48.01821" lon="6.81487">
        <ele>773</ele>
        <time>2022-07-29T08:25:45Z</time>
      </trkpt>
      <trkpt lat="48.01819" lon="6.81488">
        <ele>773.2</ele>
        <time>2022-07-29T08:25:46Z</time>
      </trkpt>
      <trkpt lat="48.01818" lon="6.81488">
        <ele>773.2</ele>
        <time>2022-07-29T08:25:47Z</time>
      </trkpt>
      <trkpt lat="48.01816" lon="6.81489">
        <ele>773.2</ele>
        <time>2022-07-29T08:25:48Z</time>
      </trkpt>
      <trkpt lat="48.01813" lon="6.81489">
        <ele>773.4</ele>
        <time>2022-07-29T08:25:49Z</time>
      </trkpt>
      <trkpt lat="48.01811" lon="6.8149">
        <ele>773.4</ele>
        <time>2022-07-29T08:25:50Z</time>
      </trkpt>
      <trkpt lat="48.01809" lon="6.8149">
        <ele>773.8</ele>
        <time>2022-07-29T08:25:51Z</time>
      </trkpt>
      <trkpt lat="48.01807" lon="6.8149">
        <ele>774</ele>
        <time>2022-07-29T08:25:52Z</time>
      </trkpt>
      <trkpt lat="48.01806" lon="6.8149">
        <ele>774</ele>
        <time>2022-07-29T08:25:53Z</time>
      </trkpt>
      <trkpt lat="48.01804" lon="6.8149">
        <ele>774.2</ele>
        <time>2022-07-29T08:25:54Z</time>
      </trkpt>
      <trkpt lat="48.01801" lon="6.8149">
        <ele>774.4</ele>
        <time>2022-07-29T08:25:55Z</time>
      </trkpt>
      <trkpt lat="48.01799" lon="6.81489">
        <ele>774.6</ele>
        <time>2022-07-29T08:25:56Z</time>
      </trkpt>
      <trkpt lat="48.01797" lon="6.81488">
        <ele>774.8</ele>
        <time>2022-07-29T08:25:57Z</time>
      </trkpt>
      <trkpt lat="48.01795" lon="6.81487">
        <ele>774.8</ele>
        <time>2022-07-29T08:25:58Z</time>
      </trkpt>
      <trkpt lat="48.01793" lon="6.81486">
        <ele>775</ele>
        <time>2022-07-29T08:25:59Z</time>
      </trkpt>
      <trkpt lat="48.01791" lon="6.81486">
        <ele>775.2</ele>
        <time>2022-07-29T08:26:00Z</time>
      </trkpt>
      <trkpt lat="48.01789" lon="6.81485">
        <ele>775.2</ele>
        <time>2022-07-29T08:26:01Z</time>
      </trkpt>
      <trkpt lat="48.01787" lon="6.81485">
        <ele>775.4</ele>
        <time>2022-07-29T08:26:02Z</time>
      </trkpt>
      <trkpt lat="48.01785" lon="6.81486">
        <ele>775.6</ele>
        <time>2022-07-29T08:26:03Z</time>
      </trkpt>
      <trkpt lat="48.01783" lon="6.81485">
        <ele>775.8</ele>
        <time>2022-07-29T08:26:04Z</time>
      </trkpt>
      <trkpt lat="48.01781" lon="6.81485">
        <ele>775.8</ele>
        <time>2022-07-29T08:26:05Z</time>
      </trkpt>
      <trkpt lat="48.01778" lon="6.81484">
        <ele>775.8</ele>
        <time>2022-07-29T08:26:06Z</time>
      </trkpt>
      <trkpt lat="48.01776" lon="6.81484">
        <ele>776</ele>
        <time>2022-07-29T08:26:07Z</time>
      </trkpt>
      <trkpt lat="48.01774" lon="6.81484">
        <ele>775.8</ele>
        <time>2022-07-29T08:26:08Z</time>
      </trkpt>
      <trkpt lat="48.01772" lon="6.81483">
        <ele>776</ele>
        <time>2022-07-29T08:26:09Z</time>
      </trkpt>
      <trkpt lat="48.01769" lon="6.81483">
        <ele>776.2</ele>
        <time>2022-07-29T08:26:10Z</time>
      </trkpt>
      <trkpt lat="48.01767" lon="6.81483">
        <ele>776.2</ele>
        <time>2022-07-29T08:26:11Z</time>
      </trkpt>
      <trkpt lat="48.01765" lon="6.81482">
        <ele>776.4</ele>
        <time>2022-07-29T08:26:12Z</time>
      </trkpt>
      <trkpt lat="48.01763" lon="6.81482">
        <ele>776.6</ele>
        <time>2022-07-29T08:26:13Z</time>
      </trkpt>
      <trkpt lat="48.01761" lon="6.81481">
        <ele>776.6</ele>
        <time>2022-07-29T08:26:14Z</time>
      </trkpt>
      <trkpt lat="48.0176" lon="6.81481">
        <ele>776.8</ele>
        <time>2022-07-29T08:26:15Z</time>
      </trkpt>
      <trkpt lat="48.01758" lon="6.8148">
        <ele>777</ele>
        <time>2022-07-29T08:26:16Z</time>
      </trkpt>
      <trkpt lat="48.01757" lon="6.8148">
        <ele>777</ele>
        <time>2022-07-29T08:26:17Z</time>
      </trkpt>
      <trkpt lat="48.01755" lon="6.81481">
        <ele>777</ele>
        <time>2022-07-29T08:26:18Z</time>
      </trkpt>
      <trkpt lat="48.01754" lon="6.81481">
        <ele>777</ele>
        <time>2022-07-29T08:26:19Z</time>
      </trkpt>
      <trkpt lat="48.01752" lon="6.81481">
        <ele>777.4</ele>
        <time>2022-07-29T08:26:20Z</time>
      </trkpt>
      <trkpt lat="48.0175" lon="6.81481">
        <ele>777.6</ele>
        <time>2022-07-29T08:26:21Z</time>
      </trkpt>
      <trkpt lat="48.01747" lon="6.81483">
        <ele>777.8</ele>
        <time>2022-07-29T08:26:22Z</time>
      </trkpt>
      <trkpt lat="48.01746" lon="6.81484">
        <ele>778.2</ele>
        <time>2022-07-29T08:26:23Z</time>
      </trkpt>
      <trkpt lat="48.01744" lon="6.81484">
        <ele>778.2</ele>
        <time>2022-07-29T08:26:24Z</time>
      </trkpt>
      <trkpt lat="48.01742" lon="6.81485">
        <ele>778.4</ele>
        <time>2022-07-29T08:26:25Z</time>
      </trkpt>
      <trkpt lat="48.01741" lon="6.81486">
        <ele>778.6</ele>
        <time>2022-07-29T08:26:26Z</time>
      </trkpt>
      <trkpt lat="48.01739" lon="6.81487">
        <ele>778.8</ele>
        <time>2022-07-29T08:26:27Z</time>
      </trkpt>
      <trkpt lat="48.01736" lon="6.81489">
        <ele>778.8</ele>
        <time>2022-07-29T08:26:28Z</time>
      </trkpt>
      <trkpt lat="48.01734" lon="6.81491">
        <ele>778.8</ele>
        <time>2022-07-29T08:26:29Z</time>
      </trkpt>
      <trkpt lat="48.01732" lon="6.81493">
        <ele>779</ele>
        <time>2022-07-29T08:26:30Z</time>
      </trkpt>
      <trkpt lat="48.0173" lon="6.81494">
        <ele>779</ele>
        <time>2022-07-29T08:26:31Z</time>
      </trkpt>
      <trkpt lat="48.01728" lon="6.81495">
        <ele>779</ele>
        <time>2022-07-29T08:26:32Z</time>
      </trkpt>
      <trkpt lat="48.01726" lon="6.81498">
        <ele>779.2</ele>
        <time>2022-07-29T08:26:33Z</time>
      </trkpt>
      <trkpt lat="48.01724" lon="6.81499">
        <ele>779.2</ele>
        <time>2022-07-29T08:26:34Z</time>
      </trkpt>
      <trkpt lat="48.01722" lon="6.815">
        <ele>779.2</ele>
        <time>2022-07-29T08:26:35Z</time>
      </trkpt>
      <trkpt lat="48.0172" lon="6.81501">
        <ele>779.6</ele>
        <time>2022-07-29T08:26:36Z</time>
      </trkpt>
      <trkpt lat="48.01717" lon="6.81503">
        <ele>779.4</ele>
        <time>2022-07-29T08:26:37Z</time>
      </trkpt>
      <trkpt lat="48.01715" lon="6.81505">
        <ele>779.8</ele>
        <time>2022-07-29T08:26:38Z</time>
      </trkpt>
      <trkpt lat="48.01713" lon="6.81506">
        <ele>780</ele>
        <time>2022-07-29T08:26:39Z</time>
      </trkpt>
      <trkpt lat="48.01711" lon="6.81507">
        <ele>780</ele>
        <time>2022-07-29T08:26:40Z</time>
      </trkpt>
      <trkpt lat="48.0171" lon="6.81509">
        <ele>780.2</ele>
        <time>2022-07-29T08:26:41Z</time>
      </trkpt>
      <trkpt lat="48.01709" lon="6.81511">
        <ele>780.4</ele>
        <time>2022-07-29T08:26:42Z</time>
      </trkpt>
      <trkpt lat="48.01707" lon="6.81513">
        <ele>780.6</ele>
        <time>2022-07-29T08:26:43Z</time>
      </trkpt>
      <trkpt lat="48.01706" lon="6.81514">
        <ele>780.8</ele>
        <time>2022-07-29T08:26:44Z</time>
      </trkpt>
      <trkpt lat="48.01705" lon="6.81514">
        <ele>781.2</ele>
        <time>2022-07-29T08:26:45Z</time>
      </trkpt>
      <trkpt lat="48.01703" lon="6.81515">
        <ele>781.2</ele>
        <time>2022-07-29T08:26:46Z</time>
      </trkpt>
      <trkpt lat="48.01701" lon="6.81516">
        <ele>781.4</ele>
        <time>2022-07-29T08:26:47Z</time>
      </trkpt>
      <trkpt lat="48.01699" lon="6.81517">
        <ele>781.4</ele>
        <time>2022-07-29T08:26:48Z</time>
      </trkpt>
      <trkpt lat="48.01699" lon="6.81517">
        <ele>781.4</ele>
        <time>2022-07-29T08:26:49Z</time>
      </trkpt>
      <trkpt lat="48.01696" lon="6.81519">
        <ele>781.6</ele>
        <time>2022-07-29T08:26:50Z</time>
      </trkpt>
      <trkpt lat="48.01693" lon="6.8152">
        <ele>781.8</ele>
        <time>2022-07-29T08:26:51Z</time>
      </trkpt>
      <trkpt lat="48.01691" lon="6.81522">
        <ele>782</ele>
        <time>2022-07-29T08:26:52Z</time>
      </trkpt>
      <trkpt lat="48.01689" lon="6.81524">
        <ele>782.2</ele>
        <time>2022-07-29T08:26:53Z</time>
      </trkpt>
      <trkpt lat="48.01687" lon="6.81525">
        <ele>782.4</ele>
        <time>2022-07-29T08:26:54Z</time>
      </trkpt>
      <trkpt lat="48.01685" lon="6.81527">
        <ele>782.6</ele>
        <time>2022-07-29T08:26:55Z</time>
      </trkpt>
      <trkpt lat="48.01683" lon="6.81528">
        <ele>782.8</ele>
        <time>2022-07-29T08:26:56Z</time>
      </trkpt>
      <trkpt lat="48.0168" lon="6.8153">
        <ele>782.8</ele>
        <time>2022-07-29T08:26:57Z</time>
      </trkpt>
      <trkpt lat="48.0168" lon="6.8153">
        <ele>782.8</ele>
        <time>2022-07-29T08:26:58Z</time>
      </trkpt>
      <trkpt lat="48.01676" lon="6.81534">
        <ele>782.8</ele>
        <time>2022-07-29T08:26:59Z</time>
      </trkpt>
      <trkpt lat="48.01674" lon="6.81536">
        <ele>783</ele>
        <time>2022-07-29T08:27:00Z</time>
      </trkpt>
      <trkpt lat="48.01672" lon="6.81537">
        <ele>783.2</ele>
        <time>2022-07-29T08:27:01Z</time>
      </trkpt>
      <trkpt lat="48.0167" lon="6.81538">
        <ele>783.2</ele>
        <time>2022-07-29T08:27:02Z</time>
      </trkpt>
      <trkpt lat="48.01668" lon="6.81539">
        <ele>783.2</ele>
        <time>2022-07-29T08:27:03Z</time>
      </trkpt>
      <trkpt lat="48.01667" lon="6.81539">
        <ele>783.4</ele>
        <time>2022-07-29T08:27:04Z</time>
      </trkpt>
      <trkpt lat="48.01664" lon="6.81541">
        <ele>783.8</ele>
        <time>2022-07-29T08:27:05Z</time>
      </trkpt>
      <trkpt lat="48.01663" lon="6.81543">
        <ele>783.8</ele>
        <time>2022-07-29T08:27:06Z</time>
      </trkpt>
      <trkpt lat="48.01663" lon="6.81543">
        <ele>784</ele>
        <time>2022-07-29T08:27:07Z</time>
      </trkpt>
      <trkpt lat="48.01658" lon="6.81545">
        <ele>784.4</ele>
        <time>2022-07-29T08:27:08Z</time>
      </trkpt>
      <trkpt lat="48.01655" lon="6.81546">
        <ele>784.4</ele>
        <time>2022-07-29T08:27:09Z</time>
      </trkpt>
      <trkpt lat="48.01653" lon="6.81546">
        <ele>784.6</ele>
        <time>2022-07-29T08:27:10Z</time>
      </trkpt>
      <trkpt lat="48.01651" lon="6.81548">
        <ele>784.6</ele>
        <time>2022-07-29T08:27:11Z</time>
      </trkpt>
      <trkpt lat="48.01648" lon="6.8155">
        <ele>784.6</ele>
        <time>2022-07-29T08:27:12Z</time>
      </trkpt>
      <trkpt lat="48.01646" lon="6.81552">
        <ele>784.6</ele>
        <time>2022-07-29T08:27:13Z</time>
      </trkpt>
      <trkpt lat="48.01644" lon="6.81555">
        <ele>784.8</ele>
        <time>2022-07-29T08:27:14Z</time>
      </trkpt>
      <trkpt lat="48.01642" lon="6.81558">
        <ele>785</ele>
        <time>2022-07-29T08:27:15Z</time>
      </trkpt>
      <trkpt lat="48.0164" lon="6.8156">
        <ele>785.2</ele>
        <time>2022-07-29T08:27:16Z</time>
      </trkpt>
      <trkpt lat="48.01639" lon="6.81562">
        <ele>785.4</ele>
        <time>2022-07-29T08:27:17Z</time>
      </trkpt>
      <trkpt lat="48.01638" lon="6.81563">
        <ele>785.4</ele>
        <time>2022-07-29T08:27:18Z</time>
      </trkpt>
      <trkpt lat="48.01637" lon="6.81565">
        <ele>785.4</ele>
        <time>2022-07-29T08:27:19Z</time>
      </trkpt>
      <trkpt lat="48.01637" lon="6.81567">
        <ele>785.6</ele>
        <time>2022-07-29T08:27:20Z</time>
      </trkpt>
      <trkpt lat="48.01637" lon="6.81568">
        <ele>785.6</ele>
        <time>2022-07-29T08:27:21Z</time>
      </trkpt>
      <trkpt lat="48.01636" lon="6.81569">
        <ele>785.6</ele>
        <time>2022-07-29T08:27:22Z</time>
      </trkpt>
      <trkpt lat="48.01636" lon="6.8157">
        <ele>785.6</ele>
        <time>2022-07-29T08:27:23Z</time>
      </trkpt>
      <trkpt lat="48.01636" lon="6.8157">
        <ele>785.6</ele>
        <time>2022-07-29T08:27:24Z</time>
      </trkpt>
      <trkpt lat="48.01635" lon="6.8157">
        <ele>785.8</ele>
        <time>2022-07-29T08:27:27Z</time>
      </trkpt>
      <trkpt lat="48.01634" lon="6.8157">
        <ele>785.8</ele>
        <time>2022-07-29T08:27:28Z</time>
      </trkpt>
      <trkpt lat="48.01634" lon="6.8157">
        <ele>786</ele>
        <time>2022-07-29T08:27:29Z</time>
      </trkpt>
      <trkpt lat="48.01634" lon="6.8157">
        <ele>786</ele>
        <time>2022-07-29T08:27:32Z</time>
      </trkpt>
      <trkpt lat="48.01634" lon="6.8157">
        <ele>786</ele>
        <time>2022-07-29T08:27:39Z</time>
      </trkpt>
      <trkpt lat="48.01634" lon="6.8157">
        <ele>786</ele>
        <time>2022-07-29T08:27:42Z</time>
      </trkpt>
      <trkpt lat="48.01634" lon="6.81571">
        <ele>786</ele>
        <time>2022-07-29T08:28:16Z</time>
      </trkpt>
      <trkpt lat="48.01635" lon="6.81573">
        <ele>786</ele>
        <time>2022-07-29T08:28:18Z</time>
      </trkpt>
      <trkpt lat="48.01636" lon="6.81573">
        <ele>786</ele>
        <time>2022-07-29T08:28:19Z</time>
      </trkpt>
      <trkpt lat="48.01636" lon="6.81575">
        <ele>786</ele>
        <time>2022-07-29T08:28:20Z</time>
      </trkpt>
      <trkpt lat="48.01637" lon="6.81577">
        <ele>786</ele>
        <time>2022-07-29T08:28:21Z</time>
      </trkpt>
      <trkpt lat="48.01642" lon="6.81584">
        <ele>786</ele>
        <time>2022-07-29T08:28:25Z</time>
      </trkpt>
      <trkpt lat="48.01644" lon="6.81586">
        <ele>786</ele>
        <time>2022-07-29T08:28:26Z</time>
      </trkpt>
      <trkpt lat="48.01646" lon="6.81589">
        <ele>786</ele>
        <time>2022-07-29T08:28:27Z</time>
      </trkpt>
      <trkpt lat="48.01662" lon="6.81595">
        <ele>786.2</ele>
        <time>2022-07-29T08:28:34Z</time>
      </trkpt>
      <trkpt lat="48.01667" lon="6.81597">
        <ele>786.6</ele>
        <time>2022-07-29T08:28:36Z</time>
      </trkpt>
      <trkpt lat="48.01676" lon="6.81599">
        <ele>787</ele>
        <time>2022-07-29T08:28:40Z</time>
      </trkpt>
      <trkpt lat="48.01684" lon="6.81602">
        <ele>787.2</ele>
        <time>2022-07-29T08:28:43Z</time>
      </trkpt>
      <trkpt lat="48.01686" lon="6.81602">
        <ele>787.2</ele>
        <time>2022-07-29T08:28:44Z</time>
      </trkpt>
      <trkpt lat="48.01689" lon="6.81603">
        <ele>787.4</ele>
        <time>2022-07-29T08:28:45Z</time>
      </trkpt>
      <trkpt lat="48.01691" lon="6.81603">
        <ele>787.4</ele>
        <time>2022-07-29T08:28:46Z</time>
      </trkpt>
      <trkpt lat="48.01698" lon="6.81607">
        <ele>787.6</ele>
        <time>2022-07-29T08:28:49Z</time>
      </trkpt>
      <trkpt lat="48.01702" lon="6.8161">
        <ele>787.6</ele>
        <time>2022-07-29T08:28:51Z</time>
      </trkpt>
      <trkpt lat="48.01706" lon="6.81613">
        <ele>788</ele>
        <time>2022-07-29T08:28:53Z</time>
      </trkpt>
      <trkpt lat="48.01708" lon="6.81615">
        <ele>788</ele>
        <time>2022-07-29T08:28:54Z</time>
      </trkpt>
      <trkpt lat="48.01711" lon="6.81621">
        <ele>788.2</ele>
        <time>2022-07-29T08:28:56Z</time>
      </trkpt>
      <trkpt lat="48.01712" lon="6.81624">
        <ele>788.2</ele>
        <time>2022-07-29T08:28:57Z</time>
      </trkpt>
      <trkpt lat="48.01714" lon="6.81627">
        <ele>788.4</ele>
        <time>2022-07-29T08:28:58Z</time>
      </trkpt>
      <trkpt lat="48.01716" lon="6.81634">
        <ele>788.4</ele>
        <time>2022-07-29T08:29:00Z</time>
      </trkpt>
      <trkpt lat="48.01717" lon="6.81638">
        <ele>788.4</ele>
        <time>2022-07-29T08:29:01Z</time>
      </trkpt>
      <trkpt lat="48.01724" lon="6.81664">
        <ele>788.8</ele>
        <time>2022-07-29T08:29:08Z</time>
      </trkpt>
      <trkpt lat="48.01726" lon="6.81667">
        <ele>788.8</ele>
        <time>2022-07-29T08:29:09Z</time>
      </trkpt>
      <trkpt lat="48.01731" lon="6.81674">
        <ele>789.2</ele>
        <time>2022-07-29T08:29:12Z</time>
      </trkpt>
      <trkpt lat="48.01733" lon="6.81677">
        <ele>789.2</ele>
        <time>2022-07-29T08:29:13Z</time>
      </trkpt>
      <trkpt lat="48.01735" lon="6.81679">
        <ele>789.4</ele>
        <time>2022-07-29T08:29:14Z</time>
      </trkpt>
      <trkpt lat="48.01739" lon="6.81684">
        <ele>789.4</ele>
        <time>2022-07-29T08:29:16Z</time>
      </trkpt>
      <trkpt lat="48.01742" lon="6.81687">
        <ele>789.4</ele>
        <time>2022-07-29T08:29:17Z</time>
      </trkpt>
      <trkpt lat="48.01744" lon="6.81689">
        <ele>789.6</ele>
        <time>2022-07-29T08:29:18Z</time>
      </trkpt>
      <trkpt lat="48.01746" lon="6.81692">
        <ele>789.6</ele>
        <time>2022-07-29T08:29:19Z</time>
      </trkpt>
      <trkpt lat="48.01748" lon="6.81694">
        <ele>789.8</ele>
        <time>2022-07-29T08:29:20Z</time>
      </trkpt>
      <trkpt lat="48.0176" lon="6.81712">
        <ele>790.4</ele>
        <time>2022-07-29T08:29:26Z</time>
      </trkpt>
      <trkpt lat="48.01762" lon="6.81715">
        <ele>790.6</ele>
        <time>2022-07-29T08:29:27Z</time>
      </trkpt>
      <trkpt lat="48.01774" lon="6.81738">
        <ele>791</ele>
        <time>2022-07-29T08:29:33Z</time>
      </trkpt>
      <trkpt lat="48.01786" lon="6.81767">
        <ele>791.6</ele>
        <time>2022-07-29T08:29:41Z</time>
      </trkpt>
      <trkpt lat="48.01786" lon="6.81767">
        <ele>791.8</ele>
        <time>2022-07-29T08:29:42Z</time>
      </trkpt>
      <trkpt lat="48.0179" lon="6.81778">
        <ele>791.8</ele>
        <time>2022-07-29T08:29:44Z</time>
      </trkpt>
      <trkpt lat="48.01791" lon="6.81782">
        <ele>792</ele>
        <time>2022-07-29T08:29:45Z</time>
      </trkpt>
      <trkpt lat="48.01792" lon="6.81786">
        <ele>792</ele>
        <time>2022-07-29T08:29:46Z</time>
      </trkpt>
      <trkpt lat="48.01796" lon="6.81793">
        <ele>792.4</ele>
        <time>2022-07-29T08:29:48Z</time>
      </trkpt>
      <trkpt lat="48.01808" lon="6.81811">
        <ele>792.8</ele>
        <time>2022-07-29T08:29:54Z</time>
      </trkpt>
      <trkpt lat="48.0182" lon="6.81828">
        <ele>793</ele>
        <time>2022-07-29T08:30:00Z</time>
      </trkpt>
      <trkpt lat="48.01822" lon="6.81831">
        <ele>793</ele>
        <time>2022-07-29T08:30:01Z</time>
      </trkpt>
      <trkpt lat="48.01824" lon="6.81833">
        <ele>793</ele>
        <time>2022-07-29T08:30:02Z</time>
      </trkpt>
      <trkpt lat="48.01826" lon="6.81835">
        <ele>793.2</ele>
        <time>2022-07-29T08:30:03Z</time>
      </trkpt>
      <trkpt lat="48.01828" lon="6.81838">
        <ele>793.4</ele>
        <time>2022-07-29T08:30:04Z</time>
      </trkpt>
      <trkpt lat="48.01833" lon="6.81847">
        <ele>793.8</ele>
        <time>2022-07-29T08:30:07Z</time>
      </trkpt>
      <trkpt lat="48.01835" lon="6.8185">
        <ele>793.8</ele>
        <time>2022-07-29T08:30:08Z</time>
      </trkpt>
      <trkpt lat="48.01837" lon="6.81853">
        <ele>794</ele>
        <time>2022-07-29T08:30:09Z</time>
      </trkpt>
      <trkpt lat="48.0184" lon="6.81858">
        <ele>794</ele>
        <time>2022-07-29T08:30:11Z</time>
      </trkpt>
      <trkpt lat="48.01842" lon="6.81861">
        <ele>794</ele>
        <time>2022-07-29T08:30:12Z</time>
      </trkpt>
      <trkpt lat="48.01852" lon="6.81876">
        <ele>794.2</ele>
        <time>2022-07-29T08:30:17Z</time>
      </trkpt>
      <trkpt lat="48.0186" lon="6.81885">
        <ele>794.4</ele>
        <time>2022-07-29T08:30:20Z</time>
      </trkpt>
      <trkpt lat="48.01865" lon="6.81889">
        <ele>794.4</ele>
        <time>2022-07-29T08:30:22Z</time>
      </trkpt>
      <trkpt lat="48.01876" lon="6.81895">
        <ele>794.8</ele>
        <time>2022-07-29T08:30:26Z</time>
      </trkpt>
      <trkpt lat="48.01883" lon="6.81898">
        <ele>795</ele>
        <time>2022-07-29T08:30:29Z</time>
      </trkpt>
      <trkpt lat="48.01886" lon="6.81899">
        <ele>795</ele>
        <time>2022-07-29T08:30:30Z</time>
      </trkpt>
      <trkpt lat="48.01889" lon="6.819">
        <ele>795.2</ele>
        <time>2022-07-29T08:30:31Z</time>
      </trkpt>
      <trkpt lat="48.01904" lon="6.81905">
        <ele>795.6</ele>
        <time>2022-07-29T08:30:36Z</time>
      </trkpt>
      <trkpt lat="48.0191" lon="6.81905">
        <ele>795.8</ele>
        <time>2022-07-29T08:30:38Z</time>
      </trkpt>
      <trkpt lat="48.01918" lon="6.81904">
        <ele>796.2</ele>
        <time>2022-07-29T08:30:41Z</time>
      </trkpt>
      <trkpt lat="48.0192" lon="6.81903">
        <ele>796.4</ele>
        <time>2022-07-29T08:30:42Z</time>
      </trkpt>
      <trkpt lat="48.01926" lon="6.81901">
        <ele>796.8</ele>
        <time>2022-07-29T08:30:44Z</time>
      </trkpt>
      <trkpt lat="48.01938" lon="6.81902">
        <ele>797.2</ele>
        <time>2022-07-29T08:30:48Z</time>
      </trkpt>
      <trkpt lat="48.01941" lon="6.81903">
        <ele>797.2</ele>
        <time>2022-07-29T08:30:49Z</time>
      </trkpt>
      <trkpt lat="48.01944" lon="6.81904">
        <ele>797.4</ele>
        <time>2022-07-29T08:30:50Z</time>
      </trkpt>
      <trkpt lat="48.01947" lon="6.81904">
        <ele>797.4</ele>
        <time>2022-07-29T08:30:51Z</time>
      </trkpt>
      <trkpt lat="48.0195" lon="6.81904">
        <ele>797.4</ele>
        <time>2022-07-29T08:30:52Z</time>
      </trkpt>
      <trkpt lat="48.01953" lon="6.81904">
        <ele>797.4</ele>
        <time>2022-07-29T08:30:53Z</time>
      </trkpt>
      <trkpt lat="48.01956" lon="6.81905">
        <ele>797.6</ele>
        <time>2022-07-29T08:30:54Z</time>
      </trkpt>
      <trkpt lat="48.01959" lon="6.81906">
        <ele>797.6</ele>
        <time>2022-07-29T08:30:55Z</time>
      </trkpt>
      <trkpt lat="48.01962" lon="6.81908">
        <ele>797.6</ele>
        <time>2022-07-29T08:30:56Z</time>
      </trkpt>
      <trkpt lat="48.01966" lon="6.8191">
        <ele>797.8</ele>
        <time>2022-07-29T08:30:57Z</time>
      </trkpt>
      <trkpt lat="48.01969" lon="6.81912">
        <ele>797.8</ele>
        <time>2022-07-29T08:30:58Z</time>
      </trkpt>
      <trkpt lat="48.01972" lon="6.81914">
        <ele>797.8</ele>
        <time>2022-07-29T08:30:59Z</time>
      </trkpt>
      <trkpt lat="48.01981" lon="6.81923">
        <ele>797.6</ele>
        <time>2022-07-29T08:31:02Z</time>
      </trkpt>
      <trkpt lat="48.01999" lon="6.8194">
        <ele>797.2</ele>
        <time>2022-07-29T08:31:08Z</time>
      </trkpt>
      <trkpt lat="48.02001" lon="6.81942">
        <ele>797.2</ele>
        <time>2022-07-29T08:31:09Z</time>
      </trkpt>
      <trkpt lat="48.02006" lon="6.81948">
        <ele>797</ele>
        <time>2022-07-29T08:31:11Z</time>
      </trkpt>
      <trkpt lat="48.02008" lon="6.81952">
        <ele>797</ele>
        <time>2022-07-29T08:31:12Z</time>
      </trkpt>
      <trkpt lat="48.02011" lon="6.81955">
        <ele>797</ele>
        <time>2022-07-29T08:31:13Z</time>
      </trkpt>
      <trkpt lat="48.02013" lon="6.81958">
        <ele>797</ele>
        <time>2022-07-29T08:31:14Z</time>
      </trkpt>
      <trkpt lat="48.02016" lon="6.81963">
        <ele>797</ele>
        <time>2022-07-29T08:31:15Z</time>
      </trkpt>
      <trkpt lat="48.02018" lon="6.81966">
        <ele>797.2</ele>
        <time>2022-07-29T08:31:16Z</time>
      </trkpt>
      <trkpt lat="48.0202" lon="6.8197">
        <ele>797.2</ele>
        <time>2022-07-29T08:31:17Z</time>
      </trkpt>
      <trkpt lat="48.02023" lon="6.81975">
        <ele>797</ele>
        <time>2022-07-29T08:31:18Z</time>
      </trkpt>
      <trkpt lat="48.02026" lon="6.81979">
        <ele>797</ele>
        <time>2022-07-29T08:31:19Z</time>
      </trkpt>
      <trkpt lat="48.02031" lon="6.81987">
        <ele>797</ele>
        <time>2022-07-29T08:31:21Z</time>
      </trkpt>
      <trkpt lat="48.0204" lon="6.81999">
        <ele>796.8</ele>
        <time>2022-07-29T08:31:24Z</time>
      </trkpt>
      <trkpt lat="48.0205" lon="6.82014">
        <ele>796.6</ele>
        <time>2022-07-29T08:31:28Z</time>
      </trkpt>
      <trkpt lat="48.02055" lon="6.82021">
        <ele>796.4</ele>
        <time>2022-07-29T08:31:30Z</time>
      </trkpt>
      <trkpt lat="48.02057" lon="6.82024">
        <ele>796.4</ele>
        <time>2022-07-29T08:31:31Z</time>
      </trkpt>
      <trkpt lat="48.02059" lon="6.82027">
        <ele>796.4</ele>
        <time>2022-07-29T08:31:32Z</time>
      </trkpt>
      <trkpt lat="48.02061" lon="6.8203">
        <ele>796.2</ele>
        <time>2022-07-29T08:31:33Z</time>
      </trkpt>
      <trkpt lat="48.02061" lon="6.82031">
        <ele>796.2</ele>
        <time>2022-07-29T08:31:34Z</time>
      </trkpt>
      <trkpt lat="48.02061" lon="6.82033">
        <ele>796.2</ele>
        <time>2022-07-29T08:31:35Z</time>
      </trkpt>
      <trkpt lat="48.0206" lon="6.82035">
        <ele>796.2</ele>
        <time>2022-07-29T08:31:36Z</time>
      </trkpt>
      <trkpt lat="48.02059" lon="6.82036">
        <ele>796.4</ele>
        <time>2022-07-29T08:31:37Z</time>
      </trkpt>
      <trkpt lat="48.02057" lon="6.82036">
        <ele>796.4</ele>
        <time>2022-07-29T08:31:38Z</time>
      </trkpt>
      <trkpt lat="48.02055" lon="6.82035">
        <ele>796.6</ele>
        <time>2022-07-29T08:31:39Z</time>
      </trkpt>
      <trkpt lat="48.02053" lon="6.82032">
        <ele>796.8</ele>
        <time>2022-07-29T08:31:41Z</time>
      </trkpt>
      <trkpt lat="48.02051" lon="6.82031">
        <ele>797</ele>
        <time>2022-07-29T08:31:42Z</time>
      </trkpt>
      <trkpt lat="48.0205" lon="6.8203">
        <ele>797</ele>
        <time>2022-07-29T08:31:43Z</time>
      </trkpt>
      <trkpt lat="48.02048" lon="6.82029">
        <ele>797.2</ele>
        <time>2022-07-29T08:31:44Z</time>
      </trkpt>
      <trkpt lat="48.02047" lon="6.82028">
        <ele>797.4</ele>
        <time>2022-07-29T08:31:45Z</time>
      </trkpt>
      <trkpt lat="48.02045" lon="6.82026">
        <ele>797.6</ele>
        <time>2022-07-29T08:31:47Z</time>
      </trkpt>
      <trkpt lat="48.0204" lon="6.8202">
        <ele>798.6</ele>
        <time>2022-07-29T08:31:51Z</time>
      </trkpt>
      <trkpt lat="48.02039" lon="6.82019">
        <ele>798.8</ele>
        <time>2022-07-29T08:31:52Z</time>
      </trkpt>
      <trkpt lat="48.02038" lon="6.82018">
        <ele>799</ele>
        <time>2022-07-29T08:31:53Z</time>
      </trkpt>
      <trkpt lat="48.02037" lon="6.82017">
        <ele>799.4</ele>
        <time>2022-07-29T08:31:54Z</time>
      </trkpt>
      <trkpt lat="48.02036" lon="6.82016">
        <ele>799.4</ele>
        <time>2022-07-29T08:31:55Z</time>
      </trkpt>
      <trkpt lat="48.02035" lon="6.82015">
        <ele>799.6</ele>
        <time>2022-07-29T08:31:56Z</time>
      </trkpt>
      <trkpt lat="48.02034" lon="6.82014">
        <ele>799.6</ele>
        <time>2022-07-29T08:31:57Z</time>
      </trkpt>
      <trkpt lat="48.02033" lon="6.82013">
        <ele>799.8</ele>
        <time>2022-07-29T08:31:58Z</time>
      </trkpt>
      <trkpt lat="48.02032" lon="6.82012">
        <ele>799.8</ele>
        <time>2022-07-29T08:31:59Z</time>
      </trkpt>
      <trkpt lat="48.0203" lon="6.82011">
        <ele>800.4</ele>
        <time>2022-07-29T08:32:00Z</time>
      </trkpt>
      <trkpt lat="48.02029" lon="6.82011">
        <ele>800.6</ele>
        <time>2022-07-29T08:32:01Z</time>
      </trkpt>
      <trkpt lat="48.02028" lon="6.8201">
        <ele>800.8</ele>
        <time>2022-07-29T08:32:02Z</time>
      </trkpt>
      <trkpt lat="48.02026" lon="6.82008">
        <ele>800.8</ele>
        <time>2022-07-29T08:32:03Z</time>
      </trkpt>
      <trkpt lat="48.02025" lon="6.82007">
        <ele>801</ele>
        <time>2022-07-29T08:32:04Z</time>
      </trkpt>
      <trkpt lat="48.02024" lon="6.82006">
        <ele>801</ele>
        <time>2022-07-29T08:32:05Z</time>
      </trkpt>
      <trkpt lat="48.02023" lon="6.82006">
        <ele>801.2</ele>
        <time>2022-07-29T08:32:06Z</time>
      </trkpt>
      <trkpt lat="48.02022" lon="6.82005">
        <ele>801.4</ele>
        <time>2022-07-29T08:32:07Z</time>
      </trkpt>
      <trkpt lat="48.02021" lon="6.82004">
        <ele>801.8</ele>
        <time>2022-07-29T08:32:08Z</time>
      </trkpt>
      <trkpt lat="48.0202" lon="6.82003">
        <ele>802</ele>
        <time>2022-07-29T08:32:09Z</time>
      </trkpt>
      <trkpt lat="48.02019" lon="6.82002">
        <ele>802.2</ele>
        <time>2022-07-29T08:32:10Z</time>
      </trkpt>
      <trkpt lat="48.02018" lon="6.82001">
        <ele>802.4</ele>
        <time>2022-07-29T08:32:11Z</time>
      </trkpt>
      <trkpt lat="48.02016" lon="6.82">
        <ele>802.8</ele>
        <time>2022-07-29T08:32:12Z</time>
      </trkpt>
      <trkpt lat="48.02015" lon="6.81999">
        <ele>803</ele>
        <time>2022-07-29T08:32:13Z</time>
      </trkpt>
      <trkpt lat="48.02014" lon="6.81998">
        <ele>803.2</ele>
        <time>2022-07-29T08:32:14Z</time>
      </trkpt>
      <trkpt lat="48.02012" lon="6.81997">
        <ele>803.4</ele>
        <time>2022-07-29T08:32:15Z</time>
      </trkpt>
      <trkpt lat="48.02011" lon="6.81996">
        <ele>803.4</ele>
        <time>2022-07-29T08:32:16Z</time>
      </trkpt>
      <trkpt lat="48.0201" lon="6.81995">
        <ele>803.4</ele>
        <time>2022-07-29T08:32:17Z</time>
      </trkpt>
      <trkpt lat="48.02009" lon="6.81995">
        <ele>803.6</ele>
        <time>2022-07-29T08:32:18Z</time>
      </trkpt>
      <trkpt lat="48.02008" lon="6.81994">
        <ele>803.8</ele>
        <time>2022-07-29T08:32:19Z</time>
      </trkpt>
      <trkpt lat="48.02007" lon="6.81993">
        <ele>804.2</ele>
        <time>2022-07-29T08:32:20Z</time>
      </trkpt>
      <trkpt lat="48.02005" lon="6.81993">
        <ele>804.4</ele>
        <time>2022-07-29T08:32:21Z</time>
      </trkpt>
      <trkpt lat="48.02003" lon="6.81992">
        <ele>804.4</ele>
        <time>2022-07-29T08:32:22Z</time>
      </trkpt>
      <trkpt lat="48.02002" lon="6.81991">
        <ele>804.6</ele>
        <time>2022-07-29T08:32:23Z</time>
      </trkpt>
      <trkpt lat="48.02" lon="6.8199">
        <ele>804.6</ele>
        <time>2022-07-29T08:32:24Z</time>
      </trkpt>
      <trkpt lat="48.01999" lon="6.81989">
        <ele>805</ele>
        <time>2022-07-29T08:32:25Z</time>
      </trkpt>
      <trkpt lat="48.01998" lon="6.81989">
        <ele>805</ele>
        <time>2022-07-29T08:32:26Z</time>
      </trkpt>
      <trkpt lat="48.01997" lon="6.81989">
        <ele>805.2</ele>
        <time>2022-07-29T08:32:27Z</time>
      </trkpt>
      <trkpt lat="48.01995" lon="6.81988">
        <ele>805.4</ele>
        <time>2022-07-29T08:32:28Z</time>
      </trkpt>
      <trkpt lat="48.01994" lon="6.81988">
        <ele>805.6</ele>
        <time>2022-07-29T08:32:29Z</time>
      </trkpt>
      <trkpt lat="48.01992" lon="6.81987">
        <ele>806</ele>
        <time>2022-07-29T08:32:30Z</time>
      </trkpt>
      <trkpt lat="48.01991" lon="6.81986">
        <ele>806</ele>
        <time>2022-07-29T08:32:31Z</time>
      </trkpt>
      <trkpt lat="48.01989" lon="6.81986">
        <ele>806.2</ele>
        <time>2022-07-29T08:32:32Z</time>
      </trkpt>
      <trkpt lat="48.01988" lon="6.81986">
        <ele>806.2</ele>
        <time>2022-07-29T08:32:33Z</time>
      </trkpt>
      <trkpt lat="48.01987" lon="6.81985">
        <ele>806.4</ele>
        <time>2022-07-29T08:32:34Z</time>
      </trkpt>
      <trkpt lat="48.01986" lon="6.81985">
        <ele>806.6</ele>
        <time>2022-07-29T08:32:35Z</time>
      </trkpt>
      <trkpt lat="48.01984" lon="6.81984">
        <ele>806.6</ele>
        <time>2022-07-29T08:32:36Z</time>
      </trkpt>
      <trkpt lat="48.01982" lon="6.81984">
        <ele>806.8</ele>
        <time>2022-07-29T08:32:37Z</time>
      </trkpt>
      <trkpt lat="48.01981" lon="6.81983">
        <ele>807.2</ele>
        <time>2022-07-29T08:32:38Z</time>
      </trkpt>
      <trkpt lat="48.0198" lon="6.81982">
        <ele>807.2</ele>
        <time>2022-07-29T08:32:39Z</time>
      </trkpt>
      <trkpt lat="48.01978" lon="6.81982">
        <ele>807.4</ele>
        <time>2022-07-29T08:32:40Z</time>
      </trkpt>
      <trkpt lat="48.01976" lon="6.81981">
        <ele>807.6</ele>
        <time>2022-07-29T08:32:41Z</time>
      </trkpt>
      <trkpt lat="48.01975" lon="6.81981">
        <ele>807.8</ele>
        <time>2022-07-29T08:32:42Z</time>
      </trkpt>
      <trkpt lat="48.01974" lon="6.8198">
        <ele>808</ele>
        <time>2022-07-29T08:32:43Z</time>
      </trkpt>
      <trkpt lat="48.01973" lon="6.8198">
        <ele>808</ele>
        <time>2022-07-29T08:32:44Z</time>
      </trkpt>
      <trkpt lat="48.01971" lon="6.81979">
        <ele>808.2</ele>
        <time>2022-07-29T08:32:45Z</time>
      </trkpt>
      <trkpt lat="48.0197" lon="6.81978">
        <ele>808.4</ele>
        <time>2022-07-29T08:32:46Z</time>
      </trkpt>
      <trkpt lat="48.01968" lon="6.81979">
        <ele>808.6</ele>
        <time>2022-07-29T08:32:47Z</time>
      </trkpt>
      <trkpt lat="48.01967" lon="6.81979">
        <ele>808.8</ele>
        <time>2022-07-29T08:32:48Z</time>
      </trkpt>
      <trkpt lat="48.01966" lon="6.81979">
        <ele>808.8</ele>
        <time>2022-07-29T08:32:49Z</time>
      </trkpt>
      <trkpt lat="48.01965" lon="6.81979">
        <ele>809.2</ele>
        <time>2022-07-29T08:32:50Z</time>
      </trkpt>
      <trkpt lat="48.01963" lon="6.81978">
        <ele>809.2</ele>
        <time>2022-07-29T08:32:51Z</time>
      </trkpt>
      <trkpt lat="48.01962" lon="6.81977">
        <ele>809.6</ele>
        <time>2022-07-29T08:32:52Z</time>
      </trkpt>
      <trkpt lat="48.0196" lon="6.81977">
        <ele>809.8</ele>
        <time>2022-07-29T08:32:53Z</time>
      </trkpt>
      <trkpt lat="48.01959" lon="6.81977">
        <ele>810</ele>
        <time>2022-07-29T08:32:54Z</time>
      </trkpt>
      <trkpt lat="48.01957" lon="6.81976">
        <ele>810</ele>
        <time>2022-07-29T08:32:55Z</time>
      </trkpt>
      <trkpt lat="48.01956" lon="6.81976">
        <ele>810.2</ele>
        <time>2022-07-29T08:32:56Z</time>
      </trkpt>
      <trkpt lat="48.01954" lon="6.81976">
        <ele>810.6</ele>
        <time>2022-07-29T08:32:57Z</time>
      </trkpt>
      <trkpt lat="48.01952" lon="6.81976">
        <ele>810.4</ele>
        <time>2022-07-29T08:32:58Z</time>
      </trkpt>
      <trkpt lat="48.01951" lon="6.81976">
        <ele>810.6</ele>
        <time>2022-07-29T08:32:59Z</time>
      </trkpt>
      <trkpt lat="48.01949" lon="6.81975">
        <ele>810.8</ele>
        <time>2022-07-29T08:33:00Z</time>
      </trkpt>
      <trkpt lat="48.01948" lon="6.81975">
        <ele>811</ele>
        <time>2022-07-29T08:33:01Z</time>
      </trkpt>
      <trkpt lat="48.01946" lon="6.81975">
        <ele>811.2</ele>
        <time>2022-07-29T08:33:02Z</time>
      </trkpt>
      <trkpt lat="48.01945" lon="6.81975">
        <ele>811.4</ele>
        <time>2022-07-29T08:33:03Z</time>
      </trkpt>
      <trkpt lat="48.01943" lon="6.81975">
        <ele>811.6</ele>
        <time>2022-07-29T08:33:04Z</time>
      </trkpt>
      <trkpt lat="48.01942" lon="6.81975">
        <ele>811.8</ele>
        <time>2022-07-29T08:33:05Z</time>
      </trkpt>
      <trkpt lat="48.01941" lon="6.81975">
        <ele>812.2</ele>
        <time>2022-07-29T08:33:06Z</time>
      </trkpt>
      <trkpt lat="48.01939" lon="6.81975">
        <ele>812.2</ele>
        <time>2022-07-29T08:33:07Z</time>
      </trkpt>
      <trkpt lat="48.01938" lon="6.81974">
        <ele>812.4</ele>
        <time>2022-07-29T08:33:08Z</time>
      </trkpt>
      <trkpt lat="48.01937" lon="6.81975">
        <ele>812.6</ele>
        <time>2022-07-29T08:33:09Z</time>
      </trkpt>
      <trkpt lat="48.01935" lon="6.81975">
        <ele>812.8</ele>
        <time>2022-07-29T08:33:10Z</time>
      </trkpt>
      <trkpt lat="48.01934" lon="6.81975">
        <ele>812.8</ele>
        <time>2022-07-29T08:33:11Z</time>
      </trkpt>
      <trkpt lat="48.01932" lon="6.81975">
        <ele>813.2</ele>
        <time>2022-07-29T08:33:12Z</time>
      </trkpt>
      <trkpt lat="48.01931" lon="6.81975">
        <ele>813.2</ele>
        <time>2022-07-29T08:33:13Z</time>
      </trkpt>
      <trkpt lat="48.01929" lon="6.81975">
        <ele>813.4</ele>
        <time>2022-07-29T08:33:14Z</time>
      </trkpt>
      <trkpt lat="48.01928" lon="6.81975">
        <ele>813.4</ele>
        <time>2022-07-29T08:33:15Z</time>
      </trkpt>
      <trkpt lat="48.01926" lon="6.81975">
        <ele>813.6</ele>
        <time>2022-07-29T08:33:16Z</time>
      </trkpt>
      <trkpt lat="48.01924" lon="6.81975">
        <ele>813.8</ele>
        <time>2022-07-29T08:33:17Z</time>
      </trkpt>
      <trkpt lat="48.01923" lon="6.81975">
        <ele>813.8</ele>
        <time>2022-07-29T08:33:18Z</time>
      </trkpt>
      <trkpt lat="48.01921" lon="6.81976">
        <ele>814</ele>
        <time>2022-07-29T08:33:19Z</time>
      </trkpt>
      <trkpt lat="48.0192" lon="6.81977">
        <ele>814.2</ele>
        <time>2022-07-29T08:33:20Z</time>
      </trkpt>
      <trkpt lat="48.01918" lon="6.81977">
        <ele>814.4</ele>
        <time>2022-07-29T08:33:21Z</time>
      </trkpt>
      <trkpt lat="48.01916" lon="6.81978">
        <ele>814.4</ele>
        <time>2022-07-29T08:33:22Z</time>
      </trkpt>
      <trkpt lat="48.01915" lon="6.81979">
        <ele>814.6</ele>
        <time>2022-07-29T08:33:23Z</time>
      </trkpt>
      <trkpt lat="48.01913" lon="6.81979">
        <ele>814.6</ele>
        <time>2022-07-29T08:33:24Z</time>
      </trkpt>
      <trkpt lat="48.01911" lon="6.8198">
        <ele>814.8</ele>
        <time>2022-07-29T08:33:25Z</time>
      </trkpt>
      <trkpt lat="48.0191" lon="6.8198">
        <ele>815</ele>
        <time>2022-07-29T08:33:26Z</time>
      </trkpt>
      <trkpt lat="48.01908" lon="6.8198">
        <ele>815</ele>
        <time>2022-07-29T08:33:27Z</time>
      </trkpt>
      <trkpt lat="48.01906" lon="6.81981">
        <ele>815.2</ele>
        <time>2022-07-29T08:33:28Z</time>
      </trkpt>
      <trkpt lat="48.01905" lon="6.81981">
        <ele>815.2</ele>
        <time>2022-07-29T08:33:29Z</time>
      </trkpt>
      <trkpt lat="48.01903" lon="6.81981">
        <ele>815.4</ele>
        <time>2022-07-29T08:33:30Z</time>
      </trkpt>
      <trkpt lat="48.01901" lon="6.81982">
        <ele>815.4</ele>
        <time>2022-07-29T08:33:31Z</time>
      </trkpt>
      <trkpt lat="48.01899" lon="6.81982">
        <ele>815.6</ele>
        <time>2022-07-29T08:33:32Z</time>
      </trkpt>
      <trkpt lat="48.01897" lon="6.81982">
        <ele>815.6</ele>
        <time>2022-07-29T08:33:33Z</time>
      </trkpt>
      <trkpt lat="48.01895" lon="6.81984">
        <ele>815.6</ele>
        <time>2022-07-29T08:33:34Z</time>
      </trkpt>
      <trkpt lat="48.01894" lon="6.81984">
        <ele>815.8</ele>
        <time>2022-07-29T08:33:35Z</time>
      </trkpt>
      <trkpt lat="48.01892" lon="6.81985">
        <ele>815.8</ele>
        <time>2022-07-29T08:33:36Z</time>
      </trkpt>
      <trkpt lat="48.0189" lon="6.81985">
        <ele>816</ele>
        <time>2022-07-29T08:33:37Z</time>
      </trkpt>
      <trkpt lat="48.01888" lon="6.81984">
        <ele>816</ele>
        <time>2022-07-29T08:33:38Z</time>
      </trkpt>
      <trkpt lat="48.01886" lon="6.81984">
        <ele>816.4</ele>
        <time>2022-07-29T08:33:39Z</time>
      </trkpt>
      <trkpt lat="48.01884" lon="6.81985">
        <ele>816.6</ele>
        <time>2022-07-29T08:33:40Z</time>
      </trkpt>
      <trkpt lat="48.01882" lon="6.81985">
        <ele>816.6</ele>
        <time>2022-07-29T08:33:41Z</time>
      </trkpt>
      <trkpt lat="48.01881" lon="6.81985">
        <ele>816.8</ele>
        <time>2022-07-29T08:33:42Z</time>
      </trkpt>
      <trkpt lat="48.01879" lon="6.81986">
        <ele>816.8</ele>
        <time>2022-07-29T08:33:43Z</time>
      </trkpt>
      <trkpt lat="48.01877" lon="6.81986">
        <ele>817</ele>
        <time>2022-07-29T08:33:44Z</time>
      </trkpt>
      <trkpt lat="48.01875" lon="6.81986">
        <ele>817.2</ele>
        <time>2022-07-29T08:33:45Z</time>
      </trkpt>
      <trkpt lat="48.01873" lon="6.81986">
        <ele>817.2</ele>
        <time>2022-07-29T08:33:46Z</time>
      </trkpt>
      <trkpt lat="48.01871" lon="6.81986">
        <ele>817.4</ele>
        <time>2022-07-29T08:33:47Z</time>
      </trkpt>
      <trkpt lat="48.01869" lon="6.81985">
        <ele>817.8</ele>
        <time>2022-07-29T08:33:48Z</time>
      </trkpt>
      <trkpt lat="48.01867" lon="6.81985">
        <ele>817.8</ele>
        <time>2022-07-29T08:33:49Z</time>
      </trkpt>
      <trkpt lat="48.01865" lon="6.81984">
        <ele>818</ele>
        <time>2022-07-29T08:33:50Z</time>
      </trkpt>
      <trkpt lat="48.01864" lon="6.81984">
        <ele>818</ele>
        <time>2022-07-29T08:33:51Z</time>
      </trkpt>
      <trkpt lat="48.01862" lon="6.81983">
        <ele>818.2</ele>
        <time>2022-07-29T08:33:52Z</time>
      </trkpt>
      <trkpt lat="48.0186" lon="6.81983">
        <ele>818.2</ele>
        <time>2022-07-29T08:33:53Z</time>
      </trkpt>
      <trkpt lat="48.01859" lon="6.81983">
        <ele>818.2</ele>
        <time>2022-07-29T08:33:54Z</time>
      </trkpt>
      <trkpt lat="48.01857" lon="6.81984">
        <ele>818.4</ele>
        <time>2022-07-29T08:33:55Z</time>
      </trkpt>
      <trkpt lat="48.01855" lon="6.81984">
        <ele>818.4</ele>
        <time>2022-07-29T08:33:56Z</time>
      </trkpt>
      <trkpt lat="48.01854" lon="6.81984">
        <ele>818.8</ele>
        <time>2022-07-29T08:33:57Z</time>
      </trkpt>
      <trkpt lat="48.01852" lon="6.81983">
        <ele>818.8</ele>
        <time>2022-07-29T08:33:58Z</time>
      </trkpt>
      <trkpt lat="48.0185" lon="6.81983">
        <ele>819</ele>
        <time>2022-07-29T08:33:59Z</time>
      </trkpt>
      <trkpt lat="48.01848" lon="6.81983">
        <ele>819.2</ele>
        <time>2022-07-29T08:34:00Z</time>
      </trkpt>
      <trkpt lat="48.01847" lon="6.81982">
        <ele>819.4</ele>
        <time>2022-07-29T08:34:01Z</time>
      </trkpt>
      <trkpt lat="48.01845" lon="6.81981">
        <ele>819.6</ele>
        <time>2022-07-29T08:34:02Z</time>
      </trkpt>
      <trkpt lat="48.01843" lon="6.8198">
        <ele>819.6</ele>
        <time>2022-07-29T08:34:03Z</time>
      </trkpt>
      <trkpt lat="48.01841" lon="6.81979">
        <ele>819.8</ele>
        <time>2022-07-29T08:34:04Z</time>
      </trkpt>
      <trkpt lat="48.0184" lon="6.81979">
        <ele>819.8</ele>
        <time>2022-07-29T08:34:05Z</time>
      </trkpt>
      <trkpt lat="48.01838" lon="6.81978">
        <ele>820</ele>
        <time>2022-07-29T08:34:06Z</time>
      </trkpt>
      <trkpt lat="48.01836" lon="6.81977">
        <ele>820</ele>
        <time>2022-07-29T08:34:07Z</time>
      </trkpt>
      <trkpt lat="48.01835" lon="6.81976">
        <ele>820.2</ele>
        <time>2022-07-29T08:34:08Z</time>
      </trkpt>
      <trkpt lat="48.01833" lon="6.81975">
        <ele>820.2</ele>
        <time>2022-07-29T08:34:09Z</time>
      </trkpt>
      <trkpt lat="48.01831" lon="6.81974">
        <ele>820.4</ele>
        <time>2022-07-29T08:34:10Z</time>
      </trkpt>
      <trkpt lat="48.01829" lon="6.81973">
        <ele>820.4</ele>
        <time>2022-07-29T08:34:11Z</time>
      </trkpt>
      <trkpt lat="48.01828" lon="6.81972">
        <ele>820.6</ele>
        <time>2022-07-29T08:34:12Z</time>
      </trkpt>
      <trkpt lat="48.01826" lon="6.81972">
        <ele>820.6</ele>
        <time>2022-07-29T08:34:13Z</time>
      </trkpt>
      <trkpt lat="48.01825" lon="6.81971">
        <ele>820.8</ele>
        <time>2022-07-29T08:34:14Z</time>
      </trkpt>
      <trkpt lat="48.01824" lon="6.81969">
        <ele>821</ele>
        <time>2022-07-29T08:34:15Z</time>
      </trkpt>
      <trkpt lat="48.01822" lon="6.81968">
        <ele>821.2</ele>
        <time>2022-07-29T08:34:16Z</time>
      </trkpt>
      <trkpt lat="48.01821" lon="6.81967">
        <ele>821.4</ele>
        <time>2022-07-29T08:34:17Z</time>
      </trkpt>
      <trkpt lat="48.0182" lon="6.81965">
        <ele>821.6</ele>
        <time>2022-07-29T08:34:18Z</time>
      </trkpt>
      <trkpt lat="48.01818" lon="6.81964">
        <ele>821.8</ele>
        <time>2022-07-29T08:34:19Z</time>
      </trkpt>
      <trkpt lat="48.01816" lon="6.81963">
        <ele>822</ele>
        <time>2022-07-29T08:34:20Z</time>
      </trkpt>
      <trkpt lat="48.01814" lon="6.81962">
        <ele>822</ele>
        <time>2022-07-29T08:34:21Z</time>
      </trkpt>
      <trkpt lat="48.01813" lon="6.81961">
        <ele>822.2</ele>
        <time>2022-07-29T08:34:22Z</time>
      </trkpt>
      <trkpt lat="48.01811" lon="6.8196">
        <ele>822.4</ele>
        <time>2022-07-29T08:34:23Z</time>
      </trkpt>
      <trkpt lat="48.0181" lon="6.8196">
        <ele>822.6</ele>
        <time>2022-07-29T08:34:24Z</time>
      </trkpt>
      <trkpt lat="48.01808" lon="6.81959">
        <ele>822.6</ele>
        <time>2022-07-29T08:34:25Z</time>
      </trkpt>
      <trkpt lat="48.01806" lon="6.81959">
        <ele>822.6</ele>
        <time>2022-07-29T08:34:26Z</time>
      </trkpt>
      <trkpt lat="48.01804" lon="6.81958">
        <ele>822.8</ele>
        <time>2022-07-29T08:34:27Z</time>
      </trkpt>
      <trkpt lat="48.01802" lon="6.81958">
        <ele>822.8</ele>
        <time>2022-07-29T08:34:28Z</time>
      </trkpt>
      <trkpt lat="48.018" lon="6.81957">
        <ele>823</ele>
        <time>2022-07-29T08:34:29Z</time>
      </trkpt>
      <trkpt lat="48.01798" lon="6.81957">
        <ele>823</ele>
        <time>2022-07-29T08:34:30Z</time>
      </trkpt>
      <trkpt lat="48.01797" lon="6.81956">
        <ele>823</ele>
        <time>2022-07-29T08:34:31Z</time>
      </trkpt>
      <trkpt lat="48.01795" lon="6.81955">
        <ele>823.2</ele>
        <time>2022-07-29T08:34:32Z</time>
      </trkpt>
      <trkpt lat="48.01793" lon="6.81955">
        <ele>823.2</ele>
        <time>2022-07-29T08:34:33Z</time>
      </trkpt>
      <trkpt lat="48.01791" lon="6.81954">
        <ele>823.4</ele>
        <time>2022-07-29T08:34:34Z</time>
      </trkpt>
      <trkpt lat="48.0179" lon="6.81954">
        <ele>823.4</ele>
        <time>2022-07-29T08:34:35Z</time>
      </trkpt>
      <trkpt lat="48.01788" lon="6.81954">
        <ele>823.6</ele>
        <time>2022-07-29T08:34:36Z</time>
      </trkpt>
      <trkpt lat="48.01786" lon="6.81954">
        <ele>823.8</ele>
        <time>2022-07-29T08:34:37Z</time>
      </trkpt>
      <trkpt lat="48.01784" lon="6.81954">
        <ele>823.8</ele>
        <time>2022-07-29T08:34:38Z</time>
      </trkpt>
      <trkpt lat="48.01782" lon="6.81953">
        <ele>824</ele>
        <time>2022-07-29T08:34:39Z</time>
      </trkpt>
      <trkpt lat="48.0178" lon="6.81953">
        <ele>824</ele>
        <time>2022-07-29T08:34:40Z</time>
      </trkpt>
      <trkpt lat="48.01778" lon="6.81953">
        <ele>824</ele>
        <time>2022-07-29T08:34:41Z</time>
      </trkpt>
      <trkpt lat="48.01776" lon="6.81953">
        <ele>824.2</ele>
        <time>2022-07-29T08:34:42Z</time>
      </trkpt>
      <trkpt lat="48.01774" lon="6.81952">
        <ele>824.2</ele>
        <time>2022-07-29T08:34:43Z</time>
      </trkpt>
      <trkpt lat="48.01772" lon="6.81951">
        <ele>824.2</ele>
        <time>2022-07-29T08:34:44Z</time>
      </trkpt>
      <trkpt lat="48.0177" lon="6.8195">
        <ele>824.8</ele>
        <time>2022-07-29T08:34:45Z</time>
      </trkpt>
      <trkpt lat="48.01769" lon="6.81949">
        <ele>825</ele>
        <time>2022-07-29T08:34:46Z</time>
      </trkpt>
      <trkpt lat="48.01767" lon="6.81948">
        <ele>825.2</ele>
        <time>2022-07-29T08:34:47Z</time>
      </trkpt>
      <trkpt lat="48.01765" lon="6.81947">
        <ele>825.4</ele>
        <time>2022-07-29T08:34:48Z</time>
      </trkpt>
      <trkpt lat="48.01764" lon="6.81947">
        <ele>825.4</ele>
        <time>2022-07-29T08:34:49Z</time>
      </trkpt>
      <trkpt lat="48.01762" lon="6.81946">
        <ele>825.6</ele>
        <time>2022-07-29T08:34:50Z</time>
      </trkpt>
      <trkpt lat="48.0176" lon="6.81945">
        <ele>825.6</ele>
        <time>2022-07-29T08:34:51Z</time>
      </trkpt>
      <trkpt lat="48.01758" lon="6.81945">
        <ele>825.6</ele>
        <time>2022-07-29T08:34:52Z</time>
      </trkpt>
      <trkpt lat="48.01757" lon="6.81944">
        <ele>825.6</ele>
        <time>2022-07-29T08:34:53Z</time>
      </trkpt>
      <trkpt lat="48.01755" lon="6.81944">
        <ele>825.8</ele>
        <time>2022-07-29T08:34:54Z</time>
      </trkpt>
      <trkpt lat="48.01753" lon="6.81943">
        <ele>826</ele>
        <time>2022-07-29T08:34:55Z</time>
      </trkpt>
      <trkpt lat="48.01751" lon="6.81943">
        <ele>826.2</ele>
        <time>2022-07-29T08:34:56Z</time>
      </trkpt>
      <trkpt lat="48.01749" lon="6.81943">
        <ele>826.2</ele>
        <time>2022-07-29T08:34:57Z</time>
      </trkpt>
      <trkpt lat="48.01747" lon="6.81943">
        <ele>826.4</ele>
        <time>2022-07-29T08:34:58Z</time>
      </trkpt>
      <trkpt lat="48.01746" lon="6.81942">
        <ele>826.4</ele>
        <time>2022-07-29T08:34:59Z</time>
      </trkpt>
      <trkpt lat="48.01744" lon="6.81941">
        <ele>826.4</ele>
        <time>2022-07-29T08:35:00Z</time>
      </trkpt>
      <trkpt lat="48.01742" lon="6.8194">
        <ele>826.4</ele>
        <time>2022-07-29T08:35:01Z</time>
      </trkpt>
      <trkpt lat="48.0174" lon="6.81939">
        <ele>826.6</ele>
        <time>2022-07-29T08:35:02Z</time>
      </trkpt>
      <trkpt lat="48.01738" lon="6.81938">
        <ele>827</ele>
        <time>2022-07-29T08:35:03Z</time>
      </trkpt>
      <trkpt lat="48.01737" lon="6.81938">
        <ele>827.2</ele>
        <time>2022-07-29T08:35:04Z</time>
      </trkpt>
      <trkpt lat="48.01735" lon="6.81937">
        <ele>827.4</ele>
        <time>2022-07-29T08:35:05Z</time>
      </trkpt>
      <trkpt lat="48.01733" lon="6.81937">
        <ele>827.4</ele>
        <time>2022-07-29T08:35:06Z</time>
      </trkpt>
      <trkpt lat="48.01731" lon="6.81937">
        <ele>827.6</ele>
        <time>2022-07-29T08:35:07Z</time>
      </trkpt>
      <trkpt lat="48.01729" lon="6.81936">
        <ele>827.6</ele>
        <time>2022-07-29T08:35:08Z</time>
      </trkpt>
      <trkpt lat="48.01728" lon="6.81936">
        <ele>827.8</ele>
        <time>2022-07-29T08:35:09Z</time>
      </trkpt>
      <trkpt lat="48.01726" lon="6.81935">
        <ele>828</ele>
        <time>2022-07-29T08:35:10Z</time>
      </trkpt>
      <trkpt lat="48.01724" lon="6.81935">
        <ele>828.2</ele>
        <time>2022-07-29T08:35:11Z</time>
      </trkpt>
      <trkpt lat="48.01723" lon="6.81934">
        <ele>828.4</ele>
        <time>2022-07-29T08:35:12Z</time>
      </trkpt>
      <trkpt lat="48.0172" lon="6.81934">
        <ele>828.4</ele>
        <time>2022-07-29T08:35:13Z</time>
      </trkpt>
      <trkpt lat="48.01718" lon="6.81933">
        <ele>828.6</ele>
        <time>2022-07-29T08:35:14Z</time>
      </trkpt>
      <trkpt lat="48.01717" lon="6.81933">
        <ele>828.8</ele>
        <time>2022-07-29T08:35:15Z</time>
      </trkpt>
      <trkpt lat="48.01715" lon="6.81933">
        <ele>829</ele>
        <time>2022-07-29T08:35:16Z</time>
      </trkpt>
      <trkpt lat="48.01713" lon="6.81933">
        <ele>829.2</ele>
        <time>2022-07-29T08:35:17Z</time>
      </trkpt>
      <trkpt lat="48.01711" lon="6.81933">
        <ele>829.4</ele>
        <time>2022-07-29T08:35:18Z</time>
      </trkpt>
      <trkpt lat="48.01709" lon="6.81933">
        <ele>829.4</ele>
        <time>2022-07-29T08:35:19Z</time>
      </trkpt>
      <trkpt lat="48.01707" lon="6.81933">
        <ele>829.6</ele>
        <time>2022-07-29T08:35:20Z</time>
      </trkpt>
      <trkpt lat="48.01705" lon="6.81934">
        <ele>829.6</ele>
        <time>2022-07-29T08:35:21Z</time>
      </trkpt>
      <trkpt lat="48.01704" lon="6.81934">
        <ele>829.8</ele>
        <time>2022-07-29T08:35:22Z</time>
      </trkpt>
      <trkpt lat="48.01702" lon="6.81934">
        <ele>829.8</ele>
        <time>2022-07-29T08:35:23Z</time>
      </trkpt>
      <trkpt lat="48.01701" lon="6.81935">
        <ele>830</ele>
        <time>2022-07-29T08:35:24Z</time>
      </trkpt>
      <trkpt lat="48.01699" lon="6.81935">
        <ele>830.2</ele>
        <time>2022-07-29T08:35:25Z</time>
      </trkpt>
      <trkpt lat="48.01697" lon="6.81935">
        <ele>830.2</ele>
        <time>2022-07-29T08:35:26Z</time>
      </trkpt>
      <trkpt lat="48.01696" lon="6.81936">
        <ele>830.4</ele>
        <time>2022-07-29T08:35:27Z</time>
      </trkpt>
      <trkpt lat="48.01695" lon="6.81937">
        <ele>830.6</ele>
        <time>2022-07-29T08:35:28Z</time>
      </trkpt>
      <trkpt lat="48.01693" lon="6.81937">
        <ele>830.6</ele>
        <time>2022-07-29T08:35:29Z</time>
      </trkpt>
      <trkpt lat="48.01691" lon="6.81938">
        <ele>830.8</ele>
        <time>2022-07-29T08:35:30Z</time>
      </trkpt>
      <trkpt lat="48.0169" lon="6.81939">
        <ele>830.8</ele>
        <time>2022-07-29T08:35:31Z</time>
      </trkpt>
      <trkpt lat="48.01688" lon="6.81939">
        <ele>831</ele>
        <time>2022-07-29T08:35:32Z</time>
      </trkpt>
      <trkpt lat="48.01686" lon="6.8194">
        <ele>831</ele>
        <time>2022-07-29T08:35:33Z</time>
      </trkpt>
      <trkpt lat="48.01684" lon="6.81941">
        <ele>831.4</ele>
        <time>2022-07-29T08:35:34Z</time>
      </trkpt>
      <trkpt lat="48.01682" lon="6.81941">
        <ele>831.6</ele>
        <time>2022-07-29T08:35:35Z</time>
      </trkpt>
      <trkpt lat="48.01681" lon="6.81941">
        <ele>831.8</ele>
        <time>2022-07-29T08:35:36Z</time>
      </trkpt>
      <trkpt lat="48.01679" lon="6.81942">
        <ele>831.8</ele>
        <time>2022-07-29T08:35:37Z</time>
      </trkpt>
      <trkpt lat="48.01678" lon="6.81943">
        <ele>832</ele>
        <time>2022-07-29T08:35:38Z</time>
      </trkpt>
      <trkpt lat="48.01677" lon="6.81944">
        <ele>832.2</ele>
        <time>2022-07-29T08:35:39Z</time>
      </trkpt>
      <trkpt lat="48.01675" lon="6.81944">
        <ele>832.2</ele>
        <time>2022-07-29T08:35:40Z</time>
      </trkpt>
      <trkpt lat="48.01673" lon="6.81945">
        <ele>832.4</ele>
        <time>2022-07-29T08:35:41Z</time>
      </trkpt>
      <trkpt lat="48.01671" lon="6.81945">
        <ele>832.4</ele>
        <time>2022-07-29T08:35:42Z</time>
      </trkpt>
      <trkpt lat="48.01669" lon="6.81946">
        <ele>832.6</ele>
        <time>2022-07-29T08:35:43Z</time>
      </trkpt>
      <trkpt lat="48.01667" lon="6.81947">
        <ele>832.8</ele>
        <time>2022-07-29T08:35:44Z</time>
      </trkpt>
      <trkpt lat="48.01665" lon="6.81948">
        <ele>833</ele>
        <time>2022-07-29T08:35:45Z</time>
      </trkpt>
      <trkpt lat="48.01664" lon="6.81948">
        <ele>833.2</ele>
        <time>2022-07-29T08:35:46Z</time>
      </trkpt>
      <trkpt lat="48.01662" lon="6.81949">
        <ele>833.4</ele>
        <time>2022-07-29T08:35:47Z</time>
      </trkpt>
      <trkpt lat="48.0166" lon="6.8195">
        <ele>833.6</ele>
        <time>2022-07-29T08:35:48Z</time>
      </trkpt>
      <trkpt lat="48.01658" lon="6.81951">
        <ele>833.8</ele>
        <time>2022-07-29T08:35:49Z</time>
      </trkpt>
      <trkpt lat="48.01657" lon="6.81953">
        <ele>833.8</ele>
        <time>2022-07-29T08:35:50Z</time>
      </trkpt>
      <trkpt lat="48.01655" lon="6.81954">
        <ele>834</ele>
        <time>2022-07-29T08:35:51Z</time>
      </trkpt>
      <trkpt lat="48.01654" lon="6.81956">
        <ele>834</ele>
        <time>2022-07-29T08:35:52Z</time>
      </trkpt>
      <trkpt lat="48.01653" lon="6.81957">
        <ele>834</ele>
        <time>2022-07-29T08:35:53Z</time>
      </trkpt>
      <trkpt lat="48.01651" lon="6.81958">
        <ele>834.2</ele>
        <time>2022-07-29T08:35:54Z</time>
      </trkpt>
      <trkpt lat="48.01649" lon="6.81959">
        <ele>834.2</ele>
        <time>2022-07-29T08:35:55Z</time>
      </trkpt>
      <trkpt lat="48.01647" lon="6.8196">
        <ele>834.4</ele>
        <time>2022-07-29T08:35:56Z</time>
      </trkpt>
      <trkpt lat="48.01644" lon="6.81961">
        <ele>834.6</ele>
        <time>2022-07-29T08:35:57Z</time>
      </trkpt>
      <trkpt lat="48.01642" lon="6.81962">
        <ele>834.6</ele>
        <time>2022-07-29T08:35:58Z</time>
      </trkpt>
      <trkpt lat="48.0164" lon="6.81963">
        <ele>834.6</ele>
        <time>2022-07-29T08:35:59Z</time>
      </trkpt>
      <trkpt lat="48.01638" lon="6.81964">
        <ele>834.8</ele>
        <time>2022-07-29T08:36:00Z</time>
      </trkpt>
      <trkpt lat="48.01636" lon="6.81965">
        <ele>835</ele>
        <time>2022-07-29T08:36:01Z</time>
      </trkpt>
      <trkpt lat="48.01635" lon="6.81967">
        <ele>835.2</ele>
        <time>2022-07-29T08:36:02Z</time>
      </trkpt>
      <trkpt lat="48.01633" lon="6.81967">
        <ele>835.6</ele>
        <time>2022-07-29T08:36:03Z</time>
      </trkpt>
      <trkpt lat="48.01632" lon="6.81969">
        <ele>835.8</ele>
        <time>2022-07-29T08:36:04Z</time>
      </trkpt>
      <trkpt lat="48.0163" lon="6.81971">
        <ele>835.8</ele>
        <time>2022-07-29T08:36:05Z</time>
      </trkpt>
      <trkpt lat="48.01628" lon="6.81972">
        <ele>836</ele>
        <time>2022-07-29T08:36:06Z</time>
      </trkpt>
      <trkpt lat="48.01626" lon="6.81973">
        <ele>836</ele>
        <time>2022-07-29T08:36:07Z</time>
      </trkpt>
      <trkpt lat="48.01625" lon="6.81975">
        <ele>836</ele>
        <time>2022-07-29T08:36:08Z</time>
      </trkpt>
      <trkpt lat="48.01623" lon="6.81976">
        <ele>836.2</ele>
        <time>2022-07-29T08:36:09Z</time>
      </trkpt>
      <trkpt lat="48.01621" lon="6.81977">
        <ele>836.2</ele>
        <time>2022-07-29T08:36:10Z</time>
      </trkpt>
      <trkpt lat="48.01619" lon="6.81977">
        <ele>836.2</ele>
        <time>2022-07-29T08:36:11Z</time>
      </trkpt>
      <trkpt lat="48.01618" lon="6.81978">
        <ele>836.4</ele>
        <time>2022-07-29T08:36:12Z</time>
      </trkpt>
      <trkpt lat="48.01616" lon="6.81979">
        <ele>836.4</ele>
        <time>2022-07-29T08:36:13Z</time>
      </trkpt>
      <trkpt lat="48.01614" lon="6.81979">
        <ele>836.6</ele>
        <time>2022-07-29T08:36:14Z</time>
      </trkpt>
      <trkpt lat="48.01612" lon="6.81979">
        <ele>836.8</ele>
        <time>2022-07-29T08:36:15Z</time>
      </trkpt>
      <trkpt lat="48.0161" lon="6.81979">
        <ele>836.8</ele>
        <time>2022-07-29T08:36:16Z</time>
      </trkpt>
      <trkpt lat="48.01608" lon="6.81979">
        <ele>837</ele>
        <time>2022-07-29T08:36:17Z</time>
      </trkpt>
      <trkpt lat="48.01606" lon="6.81979">
        <ele>837</ele>
        <time>2022-07-29T08:36:18Z</time>
      </trkpt>
      <trkpt lat="48.01604" lon="6.8198">
        <ele>837.2</ele>
        <time>2022-07-29T08:36:19Z</time>
      </trkpt>
      <trkpt lat="48.01602" lon="6.81981">
        <ele>837.2</ele>
        <time>2022-07-29T08:36:20Z</time>
      </trkpt>
      <trkpt lat="48.016" lon="6.81981">
        <ele>837.2</ele>
        <time>2022-07-29T08:36:21Z</time>
      </trkpt>
      <trkpt lat="48.01599" lon="6.81981">
        <ele>837.4</ele>
        <time>2022-07-29T08:36:22Z</time>
      </trkpt>
      <trkpt lat="48.01597" lon="6.8198">
        <ele>837.4</ele>
        <time>2022-07-29T08:36:23Z</time>
      </trkpt>
      <trkpt lat="48.01595" lon="6.8198">
        <ele>837.6</ele>
        <time>2022-07-29T08:36:24Z</time>
      </trkpt>
      <trkpt lat="48.01594" lon="6.81979">
        <ele>837.6</ele>
        <time>2022-07-29T08:36:25Z</time>
      </trkpt>
      <trkpt lat="48.01592" lon="6.81979">
        <ele>837.8</ele>
        <time>2022-07-29T08:36:26Z</time>
      </trkpt>
      <trkpt lat="48.01591" lon="6.81978">
        <ele>838</ele>
        <time>2022-07-29T08:36:27Z</time>
      </trkpt>
      <trkpt lat="48.01589" lon="6.81977">
        <ele>838.2</ele>
        <time>2022-07-29T08:36:28Z</time>
      </trkpt>
      <trkpt lat="48.01587" lon="6.81977">
        <ele>838.4</ele>
        <time>2022-07-29T08:36:29Z</time>
      </trkpt>
      <trkpt lat="48.01585" lon="6.81976">
        <ele>838.4</ele>
        <time>2022-07-29T08:36:30Z</time>
      </trkpt>
      <trkpt lat="48.01584" lon="6.81976">
        <ele>838.6</ele>
        <time>2022-07-29T08:36:31Z</time>
      </trkpt>
      <trkpt lat="48.01582" lon="6.81976">
        <ele>838.6</ele>
        <time>2022-07-29T08:36:32Z</time>
      </trkpt>
      <trkpt lat="48.0158" lon="6.81975">
        <ele>838.8</ele>
        <time>2022-07-29T08:36:33Z</time>
      </trkpt>
      <trkpt lat="48.01578" lon="6.81974">
        <ele>838.8</ele>
        <time>2022-07-29T08:36:34Z</time>
      </trkpt>
      <trkpt lat="48.01576" lon="6.81973">
        <ele>839.2</ele>
        <time>2022-07-29T08:36:35Z</time>
      </trkpt>
      <trkpt lat="48.01574" lon="6.81972">
        <ele>839.2</ele>
        <time>2022-07-29T08:36:36Z</time>
      </trkpt>
      <trkpt lat="48.01573" lon="6.81972">
        <ele>839.4</ele>
        <time>2022-07-29T08:36:37Z</time>
      </trkpt>
      <trkpt lat="48.01571" lon="6.81972">
        <ele>839.6</ele>
        <time>2022-07-29T08:36:38Z</time>
      </trkpt>
      <trkpt lat="48.01569" lon="6.81971">
        <ele>839.6</ele>
        <time>2022-07-29T08:36:39Z</time>
      </trkpt>
      <trkpt lat="48.01567" lon="6.81971">
        <ele>839.8</ele>
        <time>2022-07-29T08:36:40Z</time>
      </trkpt>
      <trkpt lat="48.01565" lon="6.8197">
        <ele>839.8</ele>
        <time>2022-07-29T08:36:41Z</time>
      </trkpt>
      <trkpt lat="48.01563" lon="6.81969">
        <ele>840</ele>
        <time>2022-07-29T08:36:42Z</time>
      </trkpt>
      <trkpt lat="48.01561" lon="6.81969">
        <ele>840</ele>
        <time>2022-07-29T08:36:43Z</time>
      </trkpt>
      <trkpt lat="48.0156" lon="6.81968">
        <ele>840.2</ele>
        <time>2022-07-29T08:36:44Z</time>
      </trkpt>
      <trkpt lat="48.01558" lon="6.81967">
        <ele>840.2</ele>
        <time>2022-07-29T08:36:45Z</time>
      </trkpt>
      <trkpt lat="48.01557" lon="6.81967">
        <ele>840.4</ele>
        <time>2022-07-29T08:36:46Z</time>
      </trkpt>
      <trkpt lat="48.01555" lon="6.81966">
        <ele>840.6</ele>
        <time>2022-07-29T08:36:47Z</time>
      </trkpt>
      <trkpt lat="48.01554" lon="6.81966">
        <ele>840.8</ele>
        <time>2022-07-29T08:36:48Z</time>
      </trkpt>
      <trkpt lat="48.01552" lon="6.81966">
        <ele>840.8</ele>
        <time>2022-07-29T08:36:49Z</time>
      </trkpt>
      <trkpt lat="48.0155" lon="6.81965">
        <ele>841</ele>
        <time>2022-07-29T08:36:50Z</time>
      </trkpt>
      <trkpt lat="48.01548" lon="6.81965">
        <ele>841.2</ele>
        <time>2022-07-29T08:36:51Z</time>
      </trkpt>
      <trkpt lat="48.01546" lon="6.81965">
        <ele>841.2</ele>
        <time>2022-07-29T08:36:52Z</time>
      </trkpt>
      <trkpt lat="48.01544" lon="6.81965">
        <ele>841.4</ele>
        <time>2022-07-29T08:36:53Z</time>
      </trkpt>
      <trkpt lat="48.01543" lon="6.81964">
        <ele>841.6</ele>
        <time>2022-07-29T08:36:54Z</time>
      </trkpt>
      <trkpt lat="48.01541" lon="6.81964">
        <ele>841.8</ele>
        <time>2022-07-29T08:36:55Z</time>
      </trkpt>
      <trkpt lat="48.01539" lon="6.81964">
        <ele>841.8</ele>
        <time>2022-07-29T08:36:56Z</time>
      </trkpt>
      <trkpt lat="48.01537" lon="6.81963">
        <ele>842</ele>
        <time>2022-07-29T08:36:57Z</time>
      </trkpt>
      <trkpt lat="48.01535" lon="6.81962">
        <ele>842</ele>
        <time>2022-07-29T08:36:58Z</time>
      </trkpt>
      <trkpt lat="48.01533" lon="6.81962">
        <ele>842.2</ele>
        <time>2022-07-29T08:36:59Z</time>
      </trkpt>
      <trkpt lat="48.01531" lon="6.81961">
        <ele>842.2</ele>
        <time>2022-07-29T08:37:00Z</time>
      </trkpt>
      <trkpt lat="48.01529" lon="6.8196">
        <ele>842.4</ele>
        <time>2022-07-29T08:37:01Z</time>
      </trkpt>
      <trkpt lat="48.01527" lon="6.8196">
        <ele>842.4</ele>
        <time>2022-07-29T08:37:02Z</time>
      </trkpt>
      <trkpt lat="48.01525" lon="6.8196">
        <ele>842.4</ele>
        <time>2022-07-29T08:37:03Z</time>
      </trkpt>
      <trkpt lat="48.01523" lon="6.81959">
        <ele>842.6</ele>
        <time>2022-07-29T08:37:04Z</time>
      </trkpt>
      <trkpt lat="48.01522" lon="6.81959">
        <ele>842.8</ele>
        <time>2022-07-29T08:37:05Z</time>
      </trkpt>
      <trkpt lat="48.0152" lon="6.81958">
        <ele>843</ele>
        <time>2022-07-29T08:37:06Z</time>
      </trkpt>
      <trkpt lat="48.01518" lon="6.81958">
        <ele>843</ele>
        <time>2022-07-29T08:37:07Z</time>
      </trkpt>
      <trkpt lat="48.01517" lon="6.81958">
        <ele>843.2</ele>
        <time>2022-07-29T08:37:08Z</time>
      </trkpt>
      <trkpt lat="48.01515" lon="6.81958">
        <ele>843.4</ele>
        <time>2022-07-29T08:37:09Z</time>
      </trkpt>
      <trkpt lat="48.01513" lon="6.81958">
        <ele>843.6</ele>
        <time>2022-07-29T08:37:10Z</time>
      </trkpt>
      <trkpt lat="48.01512" lon="6.81958">
        <ele>843.8</ele>
        <time>2022-07-29T08:37:11Z</time>
      </trkpt>
      <trkpt lat="48.0151" lon="6.81958">
        <ele>843.8</ele>
        <time>2022-07-29T08:37:12Z</time>
      </trkpt>
      <trkpt lat="48.01508" lon="6.81959">
        <ele>844</ele>
        <time>2022-07-29T08:37:13Z</time>
      </trkpt>
      <trkpt lat="48.01507" lon="6.81959">
        <ele>844</ele>
        <time>2022-07-29T08:37:14Z</time>
      </trkpt>
      <trkpt lat="48.01506" lon="6.8196">
        <ele>844.2</ele>
        <time>2022-07-29T08:37:15Z</time>
      </trkpt>
      <trkpt lat="48.01505" lon="6.8196">
        <ele>844.2</ele>
        <time>2022-07-29T08:37:16Z</time>
      </trkpt>
      <trkpt lat="48.01504" lon="6.81961">
        <ele>844.2</ele>
        <time>2022-07-29T08:37:17Z</time>
      </trkpt>
      <trkpt lat="48.01502" lon="6.81962">
        <ele>844.4</ele>
        <time>2022-07-29T08:37:18Z</time>
      </trkpt>
      <trkpt lat="48.015" lon="6.81963">
        <ele>844.4</ele>
        <time>2022-07-29T08:37:19Z</time>
      </trkpt>
      <trkpt lat="48.01498" lon="6.81964">
        <ele>844.6</ele>
        <time>2022-07-29T08:37:20Z</time>
      </trkpt>
      <trkpt lat="48.01496" lon="6.81964">
        <ele>844.6</ele>
        <time>2022-07-29T08:37:21Z</time>
      </trkpt>
      <trkpt lat="48.01494" lon="6.81965">
        <ele>844.8</ele>
        <time>2022-07-29T08:37:22Z</time>
      </trkpt>
      <trkpt lat="48.01492" lon="6.81966">
        <ele>844.8</ele>
        <time>2022-07-29T08:37:23Z</time>
      </trkpt>
      <trkpt lat="48.0149" lon="6.81967">
        <ele>845</ele>
        <time>2022-07-29T08:37:24Z</time>
      </trkpt>
      <trkpt lat="48.01488" lon="6.81967">
        <ele>845.2</ele>
        <time>2022-07-29T08:37:25Z</time>
      </trkpt>
      <trkpt lat="48.01486" lon="6.81967">
        <ele>845.2</ele>
        <time>2022-07-29T08:37:26Z</time>
      </trkpt>
      <trkpt lat="48.01484" lon="6.81967">
        <ele>845.4</ele>
        <time>2022-07-29T08:37:27Z</time>
      </trkpt>
      <trkpt lat="48.01481" lon="6.81967">
        <ele>845.4</ele>
        <time>2022-07-29T08:37:28Z</time>
      </trkpt>
      <trkpt lat="48.01479" lon="6.81967">
        <ele>845.6</ele>
        <time>2022-07-29T08:37:29Z</time>
      </trkpt>
      <trkpt lat="48.01476" lon="6.81966">
        <ele>845.6</ele>
        <time>2022-07-29T08:37:30Z</time>
      </trkpt>
      <trkpt lat="48.01474" lon="6.81966">
        <ele>845.8</ele>
        <time>2022-07-29T08:37:31Z</time>
      </trkpt>
      <trkpt lat="48.01472" lon="6.81966">
        <ele>845.8</ele>
        <time>2022-07-29T08:37:32Z</time>
      </trkpt>
      <trkpt lat="48.0147" lon="6.81965">
        <ele>845.8</ele>
        <time>2022-07-29T08:37:33Z</time>
      </trkpt>
      <trkpt lat="48.01468" lon="6.81964">
        <ele>846</ele>
        <time>2022-07-29T08:37:34Z</time>
      </trkpt>
      <trkpt lat="48.01466" lon="6.81964">
        <ele>846.2</ele>
        <time>2022-07-29T08:37:35Z</time>
      </trkpt>
      <trkpt lat="48.01465" lon="6.81963">
        <ele>846.2</ele>
        <time>2022-07-29T08:37:36Z</time>
      </trkpt>
      <trkpt lat="48.01463" lon="6.81961">
        <ele>846.2</ele>
        <time>2022-07-29T08:37:37Z</time>
      </trkpt>
      <trkpt lat="48.01461" lon="6.81959">
        <ele>846.4</ele>
        <time>2022-07-29T08:37:38Z</time>
      </trkpt>
      <trkpt lat="48.01459" lon="6.81958">
        <ele>846.4</ele>
        <time>2022-07-29T08:37:39Z</time>
      </trkpt>
      <trkpt lat="48.01457" lon="6.81956">
        <ele>846.6</ele>
        <time>2022-07-29T08:37:40Z</time>
      </trkpt>
      <trkpt lat="48.01456" lon="6.81955">
        <ele>846.8</ele>
        <time>2022-07-29T08:37:41Z</time>
      </trkpt>
      <trkpt lat="48.01454" lon="6.81954">
        <ele>846.8</ele>
        <time>2022-07-29T08:37:42Z</time>
      </trkpt>
      <trkpt lat="48.01452" lon="6.81952">
        <ele>846.8</ele>
        <time>2022-07-29T08:37:43Z</time>
      </trkpt>
      <trkpt lat="48.0145" lon="6.81951">
        <ele>847</ele>
        <time>2022-07-29T08:37:44Z</time>
      </trkpt>
      <trkpt lat="48.01448" lon="6.8195">
        <ele>847.2</ele>
        <time>2022-07-29T08:37:45Z</time>
      </trkpt>
      <trkpt lat="48.01446" lon="6.81949">
        <ele>847.2</ele>
        <time>2022-07-29T08:37:46Z</time>
      </trkpt>
      <trkpt lat="48.01444" lon="6.81947">
        <ele>847.4</ele>
        <time>2022-07-29T08:37:47Z</time>
      </trkpt>
      <trkpt lat="48.01442" lon="6.81946">
        <ele>847.6</ele>
        <time>2022-07-29T08:37:48Z</time>
      </trkpt>
      <trkpt lat="48.0144" lon="6.81945">
        <ele>847.8</ele>
        <time>2022-07-29T08:37:49Z</time>
      </trkpt>
      <trkpt lat="48.01438" lon="6.81944">
        <ele>847.8</ele>
        <time>2022-07-29T08:37:50Z</time>
      </trkpt>
      <trkpt lat="48.01436" lon="6.81943">
        <ele>848</ele>
        <time>2022-07-29T08:37:51Z</time>
      </trkpt>
      <trkpt lat="48.01434" lon="6.81941">
        <ele>848</ele>
        <time>2022-07-29T08:37:52Z</time>
      </trkpt>
      <trkpt lat="48.01432" lon="6.81941">
        <ele>848</ele>
        <time>2022-07-29T08:37:53Z</time>
      </trkpt>
      <trkpt lat="48.01429" lon="6.8194">
        <ele>848.2</ele>
        <time>2022-07-29T08:37:54Z</time>
      </trkpt>
      <trkpt lat="48.01427" lon="6.8194">
        <ele>848.2</ele>
        <time>2022-07-29T08:37:55Z</time>
      </trkpt>
      <trkpt lat="48.01425" lon="6.81939">
        <ele>848.4</ele>
        <time>2022-07-29T08:37:56Z</time>
      </trkpt>
      <trkpt lat="48.01423" lon="6.81939">
        <ele>848.6</ele>
        <time>2022-07-29T08:37:57Z</time>
      </trkpt>
      <trkpt lat="48.0142" lon="6.81938">
        <ele>848.6</ele>
        <time>2022-07-29T08:37:58Z</time>
      </trkpt>
      <trkpt lat="48.01418" lon="6.81938">
        <ele>848.6</ele>
        <time>2022-07-29T08:37:59Z</time>
      </trkpt>
      <trkpt lat="48.01416" lon="6.81938">
        <ele>848.6</ele>
        <time>2022-07-29T08:38:00Z</time>
      </trkpt>
      <trkpt lat="48.01413" lon="6.81938">
        <ele>848.6</ele>
        <time>2022-07-29T08:38:01Z</time>
      </trkpt>
      <trkpt lat="48.01411" lon="6.81938">
        <ele>848.8</ele>
        <time>2022-07-29T08:38:02Z</time>
      </trkpt>
      <trkpt lat="48.01409" lon="6.81938">
        <ele>849</ele>
        <time>2022-07-29T08:38:03Z</time>
      </trkpt>
      <trkpt lat="48.01407" lon="6.81938">
        <ele>849</ele>
        <time>2022-07-29T08:38:04Z</time>
      </trkpt>
      <trkpt lat="48.01405" lon="6.81938">
        <ele>849.2</ele>
        <time>2022-07-29T08:38:05Z</time>
      </trkpt>
      <trkpt lat="48.01403" lon="6.81938">
        <ele>849.2</ele>
        <time>2022-07-29T08:38:06Z</time>
      </trkpt>
      <trkpt lat="48.01399" lon="6.81939">
        <ele>849.4</ele>
        <time>2022-07-29T08:38:08Z</time>
      </trkpt>
      <trkpt lat="48.01392" lon="6.8194">
        <ele>850</ele>
        <time>2022-07-29T08:38:12Z</time>
      </trkpt>
      <trkpt lat="48.0139" lon="6.81941">
        <ele>850</ele>
        <time>2022-07-29T08:38:13Z</time>
      </trkpt>
      <trkpt lat="48.01389" lon="6.81942">
        <ele>850.2</ele>
        <time>2022-07-29T08:38:14Z</time>
      </trkpt>
      <trkpt lat="48.01387" lon="6.81943">
        <ele>850.4</ele>
        <time>2022-07-29T08:38:15Z</time>
      </trkpt>
      <trkpt lat="48.01385" lon="6.81944">
        <ele>850.4</ele>
        <time>2022-07-29T08:38:16Z</time>
      </trkpt>
      <trkpt lat="48.01382" lon="6.81945">
        <ele>850.6</ele>
        <time>2022-07-29T08:38:18Z</time>
      </trkpt>
      <trkpt lat="48.0138" lon="6.81946">
        <ele>850.6</ele>
        <time>2022-07-29T08:38:19Z</time>
      </trkpt>
      <trkpt lat="48.01378" lon="6.81947">
        <ele>850.6</ele>
        <time>2022-07-29T08:38:20Z</time>
      </trkpt>
      <trkpt lat="48.01377" lon="6.81948">
        <ele>850.8</ele>
        <time>2022-07-29T08:38:21Z</time>
      </trkpt>
      <trkpt lat="48.01375" lon="6.81949">
        <ele>850.8</ele>
        <time>2022-07-29T08:38:22Z</time>
      </trkpt>
      <trkpt lat="48.01373" lon="6.81951">
        <ele>850.8</ele>
        <time>2022-07-29T08:38:23Z</time>
      </trkpt>
      <trkpt lat="48.01371" lon="6.81952">
        <ele>851</ele>
        <time>2022-07-29T08:38:24Z</time>
      </trkpt>
      <trkpt lat="48.01369" lon="6.81953">
        <ele>851.2</ele>
        <time>2022-07-29T08:38:25Z</time>
      </trkpt>
      <trkpt lat="48.01364" lon="6.81955">
        <ele>851.4</ele>
        <time>2022-07-29T08:38:27Z</time>
      </trkpt>
      <trkpt lat="48.01352" lon="6.81968">
        <ele>851.8</ele>
        <time>2022-07-29T08:38:33Z</time>
      </trkpt>
      <trkpt lat="48.01345" lon="6.81973">
        <ele>852</ele>
        <time>2022-07-29T08:38:37Z</time>
      </trkpt>
      <trkpt lat="48.01344" lon="6.81976">
        <ele>852</ele>
        <time>2022-07-29T08:38:38Z</time>
      </trkpt>
      <trkpt lat="48.01343" lon="6.81978">
        <ele>852.2</ele>
        <time>2022-07-29T08:38:39Z</time>
      </trkpt>
      <trkpt lat="48.01343" lon="6.8198">
        <ele>852.2</ele>
        <time>2022-07-29T08:38:40Z</time>
      </trkpt>
      <trkpt lat="48.01343" lon="6.81982">
        <ele>852.4</ele>
        <time>2022-07-29T08:38:41Z</time>
      </trkpt>
      <trkpt lat="48.01343" lon="6.81984">
        <ele>852.6</ele>
        <time>2022-07-29T08:38:42Z</time>
      </trkpt>
      <trkpt lat="48.01344" lon="6.81986">
        <ele>852.6</ele>
        <time>2022-07-29T08:38:43Z</time>
      </trkpt>
      <trkpt lat="48.01345" lon="6.81987">
        <ele>852.6</ele>
        <time>2022-07-29T08:38:44Z</time>
      </trkpt>
      <trkpt lat="48.01346" lon="6.81988">
        <ele>852.8</ele>
        <time>2022-07-29T08:38:45Z</time>
      </trkpt>
      <trkpt lat="48.01348" lon="6.81989">
        <ele>852.8</ele>
        <time>2022-07-29T08:38:46Z</time>
      </trkpt>
      <trkpt lat="48.01349" lon="6.8199">
        <ele>853.2</ele>
        <time>2022-07-29T08:38:47Z</time>
      </trkpt>
      <trkpt lat="48.01351" lon="6.81991">
        <ele>853.4</ele>
        <time>2022-07-29T08:38:48Z</time>
      </trkpt>
      <trkpt lat="48.01357" lon="6.81994">
        <ele>854.2</ele>
        <time>2022-07-29T08:38:52Z</time>
      </trkpt>
      <trkpt lat="48.01359" lon="6.81996">
        <ele>854.4</ele>
        <time>2022-07-29T08:38:53Z</time>
      </trkpt>
      <trkpt lat="48.0136" lon="6.81997">
        <ele>854.6</ele>
        <time>2022-07-29T08:38:54Z</time>
      </trkpt>
      <trkpt lat="48.01362" lon="6.81998">
        <ele>854.8</ele>
        <time>2022-07-29T08:38:55Z</time>
      </trkpt>
      <trkpt lat="48.01363" lon="6.81999">
        <ele>855</ele>
        <time>2022-07-29T08:38:56Z</time>
      </trkpt>
      <trkpt lat="48.01365" lon="6.82">
        <ele>855.2</ele>
        <time>2022-07-29T08:38:57Z</time>
      </trkpt>
      <trkpt lat="48.01366" lon="6.82001">
        <ele>855.4</ele>
        <time>2022-07-29T08:38:58Z</time>
      </trkpt>
      <trkpt lat="48.01367" lon="6.82002">
        <ele>855.6</ele>
        <time>2022-07-29T08:38:59Z</time>
      </trkpt>
      <trkpt lat="48.01369" lon="6.82003">
        <ele>855.8</ele>
        <time>2022-07-29T08:39:00Z</time>
      </trkpt>
      <trkpt lat="48.0137" lon="6.82004">
        <ele>856</ele>
        <time>2022-07-29T08:39:01Z</time>
      </trkpt>
      <trkpt lat="48.01371" lon="6.82004">
        <ele>856</ele>
        <time>2022-07-29T08:39:02Z</time>
      </trkpt>
      <trkpt lat="48.01373" lon="6.82005">
        <ele>856.4</ele>
        <time>2022-07-29T08:39:03Z</time>
      </trkpt>
      <trkpt lat="48.01375" lon="6.82005">
        <ele>856.4</ele>
        <time>2022-07-29T08:39:04Z</time>
      </trkpt>
      <trkpt lat="48.01376" lon="6.82006">
        <ele>856.8</ele>
        <time>2022-07-29T08:39:05Z</time>
      </trkpt>
      <trkpt lat="48.01378" lon="6.82006">
        <ele>856.8</ele>
        <time>2022-07-29T08:39:06Z</time>
      </trkpt>
      <trkpt lat="48.01379" lon="6.82007">
        <ele>857</ele>
        <time>2022-07-29T08:39:07Z</time>
      </trkpt>
      <trkpt lat="48.01381" lon="6.82008">
        <ele>857.2</ele>
        <time>2022-07-29T08:39:08Z</time>
      </trkpt>
      <trkpt lat="48.01383" lon="6.82009">
        <ele>857.4</ele>
        <time>2022-07-29T08:39:09Z</time>
      </trkpt>
      <trkpt lat="48.01385" lon="6.8201">
        <ele>857.8</ele>
        <time>2022-07-29T08:39:10Z</time>
      </trkpt>
      <trkpt lat="48.01387" lon="6.82011">
        <ele>857.8</ele>
        <time>2022-07-29T08:39:11Z</time>
      </trkpt>
      <trkpt lat="48.01389" lon="6.82012">
        <ele>858</ele>
        <time>2022-07-29T08:39:12Z</time>
      </trkpt>
      <trkpt lat="48.01391" lon="6.82013">
        <ele>858</ele>
        <time>2022-07-29T08:39:13Z</time>
      </trkpt>
      <trkpt lat="48.01393" lon="6.82014">
        <ele>858.2</ele>
        <time>2022-07-29T08:39:14Z</time>
      </trkpt>
      <trkpt lat="48.01395" lon="6.82015">
        <ele>858.2</ele>
        <time>2022-07-29T08:39:15Z</time>
      </trkpt>
      <trkpt lat="48.01397" lon="6.82016">
        <ele>858.2</ele>
        <time>2022-07-29T08:39:16Z</time>
      </trkpt>
      <trkpt lat="48.01399" lon="6.82017">
        <ele>858.2</ele>
        <time>2022-07-29T08:39:17Z</time>
      </trkpt>
      <trkpt lat="48.01401" lon="6.82019">
        <ele>858.2</ele>
        <time>2022-07-29T08:39:18Z</time>
      </trkpt>
      <trkpt lat="48.01403" lon="6.8202">
        <ele>858.4</ele>
        <time>2022-07-29T08:39:19Z</time>
      </trkpt>
      <trkpt lat="48.01405" lon="6.82022">
        <ele>858.4</ele>
        <time>2022-07-29T08:39:20Z</time>
      </trkpt>
      <trkpt lat="48.01407" lon="6.82023">
        <ele>858.4</ele>
        <time>2022-07-29T08:39:21Z</time>
      </trkpt>
      <trkpt lat="48.01409" lon="6.82025">
        <ele>858.6</ele>
        <time>2022-07-29T08:39:22Z</time>
      </trkpt>
      <trkpt lat="48.01411" lon="6.82026">
        <ele>858.6</ele>
        <time>2022-07-29T08:39:23Z</time>
      </trkpt>
      <trkpt lat="48.01413" lon="6.82027">
        <ele>858.8</ele>
        <time>2022-07-29T08:39:24Z</time>
      </trkpt>
      <trkpt lat="48.01415" lon="6.82029">
        <ele>858.8</ele>
        <time>2022-07-29T08:39:25Z</time>
      </trkpt>
      <trkpt lat="48.01418" lon="6.8203">
        <ele>859</ele>
        <time>2022-07-29T08:39:26Z</time>
      </trkpt>
      <trkpt lat="48.0142" lon="6.82032">
        <ele>859</ele>
        <time>2022-07-29T08:39:27Z</time>
      </trkpt>
      <trkpt lat="48.01422" lon="6.82033">
        <ele>859</ele>
        <time>2022-07-29T08:39:28Z</time>
      </trkpt>
      <trkpt lat="48.01424" lon="6.82034">
        <ele>859.2</ele>
        <time>2022-07-29T08:39:29Z</time>
      </trkpt>
      <trkpt lat="48.01426" lon="6.82035">
        <ele>859.2</ele>
        <time>2022-07-29T08:39:30Z</time>
      </trkpt>
      <trkpt lat="48.01428" lon="6.82036">
        <ele>859.4</ele>
        <time>2022-07-29T08:39:31Z</time>
      </trkpt>
      <trkpt lat="48.0143" lon="6.82037">
        <ele>859.4</ele>
        <time>2022-07-29T08:39:32Z</time>
      </trkpt>
      <trkpt lat="48.01432" lon="6.82039">
        <ele>859.4</ele>
        <time>2022-07-29T08:39:33Z</time>
      </trkpt>
      <trkpt lat="48.01434" lon="6.8204">
        <ele>859.6</ele>
        <time>2022-07-29T08:39:34Z</time>
      </trkpt>
      <trkpt lat="48.01437" lon="6.82041">
        <ele>859.8</ele>
        <time>2022-07-29T08:39:35Z</time>
      </trkpt>
      <trkpt lat="48.01439" lon="6.82041">
        <ele>859.8</ele>
        <time>2022-07-29T08:39:36Z</time>
      </trkpt>
      <trkpt lat="48.01442" lon="6.82042">
        <ele>860</ele>
        <time>2022-07-29T08:39:37Z</time>
      </trkpt>
      <trkpt lat="48.01444" lon="6.82043">
        <ele>860</ele>
        <time>2022-07-29T08:39:38Z</time>
      </trkpt>
      <trkpt lat="48.01447" lon="6.82044">
        <ele>860.2</ele>
        <time>2022-07-29T08:39:39Z</time>
      </trkpt>
      <trkpt lat="48.01449" lon="6.82045">
        <ele>860.2</ele>
        <time>2022-07-29T08:39:40Z</time>
      </trkpt>
      <trkpt lat="48.01452" lon="6.82046">
        <ele>860.4</ele>
        <time>2022-07-29T08:39:41Z</time>
      </trkpt>
      <trkpt lat="48.01454" lon="6.82047">
        <ele>860.4</ele>
        <time>2022-07-29T08:39:42Z</time>
      </trkpt>
      <trkpt lat="48.01467" lon="6.82054">
        <ele>860.8</ele>
        <time>2022-07-29T08:39:47Z</time>
      </trkpt>
      <trkpt lat="48.01472" lon="6.82058">
        <ele>861</ele>
        <time>2022-07-29T08:39:49Z</time>
      </trkpt>
      <trkpt lat="48.01495" lon="6.82077">
        <ele>861</ele>
        <time>2022-07-29T08:39:58Z</time>
      </trkpt>
      <trkpt lat="48.01504" lon="6.82083">
        <ele>861.4</ele>
        <time>2022-07-29T08:40:02Z</time>
      </trkpt>
      <trkpt lat="48.01507" lon="6.82085">
        <ele>861.6</ele>
        <time>2022-07-29T08:40:03Z</time>
      </trkpt>
      <trkpt lat="48.01511" lon="6.82087">
        <ele>861.6</ele>
        <time>2022-07-29T08:40:05Z</time>
      </trkpt>
      <trkpt lat="48.01514" lon="6.82088">
        <ele>861.8</ele>
        <time>2022-07-29T08:40:06Z</time>
      </trkpt>
      <trkpt lat="48.01516" lon="6.82089">
        <ele>861.8</ele>
        <time>2022-07-29T08:40:07Z</time>
      </trkpt>
      <trkpt lat="48.01518" lon="6.8209">
        <ele>862</ele>
        <time>2022-07-29T08:40:08Z</time>
      </trkpt>
      <trkpt lat="48.01521" lon="6.82092">
        <ele>862.2</ele>
        <time>2022-07-29T08:40:09Z</time>
      </trkpt>
      <trkpt lat="48.01523" lon="6.82093">
        <ele>862.2</ele>
        <time>2022-07-29T08:40:10Z</time>
      </trkpt>
      <trkpt lat="48.01525" lon="6.82095">
        <ele>862.4</ele>
        <time>2022-07-29T08:40:11Z</time>
      </trkpt>
      <trkpt lat="48.01536" lon="6.82102">
        <ele>863</ele>
        <time>2022-07-29T08:40:16Z</time>
      </trkpt>
      <trkpt lat="48.01539" lon="6.82103">
        <ele>863</ele>
        <time>2022-07-29T08:40:17Z</time>
      </trkpt>
      <trkpt lat="48.01559" lon="6.82115">
        <ele>863.4</ele>
        <time>2022-07-29T08:40:25Z</time>
      </trkpt>
      <trkpt lat="48.01584" lon="6.82127">
        <ele>863.2</ele>
        <time>2022-07-29T08:40:34Z</time>
      </trkpt>
      <trkpt lat="48.0161" lon="6.82138">
        <ele>863.8</ele>
        <time>2022-07-29T08:40:44Z</time>
      </trkpt>
      <trkpt lat="48.01612" lon="6.82138">
        <ele>864</ele>
        <time>2022-07-29T08:40:45Z</time>
      </trkpt>
      <trkpt lat="48.01613" lon="6.82139">
        <ele>864</ele>
        <time>2022-07-29T08:40:46Z</time>
      </trkpt>
      <trkpt lat="48.01615" lon="6.8214">
        <ele>864.2</ele>
        <time>2022-07-29T08:40:47Z</time>
      </trkpt>
      <trkpt lat="48.01616" lon="6.8214">
        <ele>864.2</ele>
        <time>2022-07-29T08:40:48Z</time>
      </trkpt>
      <trkpt lat="48.01618" lon="6.8214">
        <ele>864.4</ele>
        <time>2022-07-29T08:40:49Z</time>
      </trkpt>
      <trkpt lat="48.01624" lon="6.82142">
        <ele>864.8</ele>
        <time>2022-07-29T08:40:52Z</time>
      </trkpt>
      <trkpt lat="48.01625" lon="6.82142">
        <ele>865</ele>
        <time>2022-07-29T08:40:53Z</time>
      </trkpt>
      <trkpt lat="48.01627" lon="6.82142">
        <ele>865.2</ele>
        <time>2022-07-29T08:40:54Z</time>
      </trkpt>
      <trkpt lat="48.01628" lon="6.82143">
        <ele>865.4</ele>
        <time>2022-07-29T08:40:55Z</time>
      </trkpt>
      <trkpt lat="48.0163" lon="6.82143">
        <ele>865.8</ele>
        <time>2022-07-29T08:40:56Z</time>
      </trkpt>
      <trkpt lat="48.01633" lon="6.82143">
        <ele>866</ele>
        <time>2022-07-29T08:40:58Z</time>
      </trkpt>
      <trkpt lat="48.01635" lon="6.82144">
        <ele>866</ele>
        <time>2022-07-29T08:40:59Z</time>
      </trkpt>
      <trkpt lat="48.01636" lon="6.82144">
        <ele>866.2</ele>
        <time>2022-07-29T08:41:00Z</time>
      </trkpt>
      <trkpt lat="48.01638" lon="6.82144">
        <ele>866.2</ele>
        <time>2022-07-29T08:41:01Z</time>
      </trkpt>
      <trkpt lat="48.01639" lon="6.82144">
        <ele>866.6</ele>
        <time>2022-07-29T08:41:02Z</time>
      </trkpt>
      <trkpt lat="48.0164" lon="6.82144">
        <ele>866.6</ele>
        <time>2022-07-29T08:41:03Z</time>
      </trkpt>
      <trkpt lat="48.01642" lon="6.82143">
        <ele>866.8</ele>
        <time>2022-07-29T08:41:04Z</time>
      </trkpt>
      <trkpt lat="48.01643" lon="6.82143">
        <ele>867</ele>
        <time>2022-07-29T08:41:05Z</time>
      </trkpt>
      <trkpt lat="48.01645" lon="6.82143">
        <ele>867</ele>
        <time>2022-07-29T08:41:06Z</time>
      </trkpt>
      <trkpt lat="48.01646" lon="6.82143">
        <ele>867.2</ele>
        <time>2022-07-29T08:41:07Z</time>
      </trkpt>
      <trkpt lat="48.01648" lon="6.82143">
        <ele>867.4</ele>
        <time>2022-07-29T08:41:08Z</time>
      </trkpt>
      <trkpt lat="48.0165" lon="6.82143">
        <ele>867.4</ele>
        <time>2022-07-29T08:41:09Z</time>
      </trkpt>
      <trkpt lat="48.01651" lon="6.82142">
        <ele>867.6</ele>
        <time>2022-07-29T08:41:10Z</time>
      </trkpt>
      <trkpt lat="48.01652" lon="6.82142">
        <ele>867.8</ele>
        <time>2022-07-29T08:41:11Z</time>
      </trkpt>
      <trkpt lat="48.01653" lon="6.82142">
        <ele>867.8</ele>
        <time>2022-07-29T08:41:12Z</time>
      </trkpt>
      <trkpt lat="48.01655" lon="6.82142">
        <ele>868.2</ele>
        <time>2022-07-29T08:41:13Z</time>
      </trkpt>
      <trkpt lat="48.01656" lon="6.82142">
        <ele>868.4</ele>
        <time>2022-07-29T08:41:14Z</time>
      </trkpt>
      <trkpt lat="48.01657" lon="6.82142">
        <ele>868.6</ele>
        <time>2022-07-29T08:41:15Z</time>
      </trkpt>
      <trkpt lat="48.01659" lon="6.82142">
        <ele>868.8</ele>
        <time>2022-07-29T08:41:16Z</time>
      </trkpt>
      <trkpt lat="48.0166" lon="6.82142">
        <ele>868.8</ele>
        <time>2022-07-29T08:41:17Z</time>
      </trkpt>
      <trkpt lat="48.01662" lon="6.82142">
        <ele>869.2</ele>
        <time>2022-07-29T08:41:18Z</time>
      </trkpt>
      <trkpt lat="48.01663" lon="6.82142">
        <ele>869.2</ele>
        <time>2022-07-29T08:41:19Z</time>
      </trkpt>
      <trkpt lat="48.01665" lon="6.82142">
        <ele>869.6</ele>
        <time>2022-07-29T08:41:20Z</time>
      </trkpt>
      <trkpt lat="48.01666" lon="6.82141">
        <ele>869.6</ele>
        <time>2022-07-29T08:41:21Z</time>
      </trkpt>
      <trkpt lat="48.01668" lon="6.82141">
        <ele>869.8</ele>
        <time>2022-07-29T08:41:22Z</time>
      </trkpt>
      <trkpt lat="48.01669" lon="6.82141">
        <ele>869.8</ele>
        <time>2022-07-29T08:41:23Z</time>
      </trkpt>
      <trkpt lat="48.0167" lon="6.82141">
        <ele>870</ele>
        <time>2022-07-29T08:41:24Z</time>
      </trkpt>
      <trkpt lat="48.01671" lon="6.82141">
        <ele>870.2</ele>
        <time>2022-07-29T08:41:25Z</time>
      </trkpt>
      <trkpt lat="48.01673" lon="6.82141">
        <ele>870.2</ele>
        <time>2022-07-29T08:41:26Z</time>
      </trkpt>
      <trkpt lat="48.01674" lon="6.82141">
        <ele>870.4</ele>
        <time>2022-07-29T08:41:27Z</time>
      </trkpt>
      <trkpt lat="48.01676" lon="6.82141">
        <ele>870.6</ele>
        <time>2022-07-29T08:41:28Z</time>
      </trkpt>
      <trkpt lat="48.01678" lon="6.82141">
        <ele>870.8</ele>
        <time>2022-07-29T08:41:29Z</time>
      </trkpt>
      <trkpt lat="48.01679" lon="6.82142">
        <ele>871</ele>
        <time>2022-07-29T08:41:30Z</time>
      </trkpt>
      <trkpt lat="48.0168" lon="6.82143">
        <ele>871.2</ele>
        <time>2022-07-29T08:41:31Z</time>
      </trkpt>
      <trkpt lat="48.01682" lon="6.82144">
        <ele>871.2</ele>
        <time>2022-07-29T08:41:32Z</time>
      </trkpt>
      <trkpt lat="48.01683" lon="6.82144">
        <ele>871.4</ele>
        <time>2022-07-29T08:41:33Z</time>
      </trkpt>
      <trkpt lat="48.01684" lon="6.82145">
        <ele>871.8</ele>
        <time>2022-07-29T08:41:34Z</time>
      </trkpt>
      <trkpt lat="48.01686" lon="6.82145">
        <ele>871.8</ele>
        <time>2022-07-29T08:41:35Z</time>
      </trkpt>
      <trkpt lat="48.01687" lon="6.82145">
        <ele>872.2</ele>
        <time>2022-07-29T08:41:36Z</time>
      </trkpt>
      <trkpt lat="48.01689" lon="6.82146">
        <ele>872.4</ele>
        <time>2022-07-29T08:41:37Z</time>
      </trkpt>
      <trkpt lat="48.0169" lon="6.82146">
        <ele>872.6</ele>
        <time>2022-07-29T08:41:38Z</time>
      </trkpt>
      <trkpt lat="48.01692" lon="6.82147">
        <ele>872.6</ele>
        <time>2022-07-29T08:41:39Z</time>
      </trkpt>
      <trkpt lat="48.01693" lon="6.82148">
        <ele>872.8</ele>
        <time>2022-07-29T08:41:40Z</time>
      </trkpt>
      <trkpt lat="48.01695" lon="6.82149">
        <ele>873</ele>
        <time>2022-07-29T08:41:41Z</time>
      </trkpt>
      <trkpt lat="48.01696" lon="6.8215">
        <ele>873</ele>
        <time>2022-07-29T08:41:42Z</time>
      </trkpt>
      <trkpt lat="48.01698" lon="6.8215">
        <ele>873.2</ele>
        <time>2022-07-29T08:41:43Z</time>
      </trkpt>
      <trkpt lat="48.01699" lon="6.82151">
        <ele>873.4</ele>
        <time>2022-07-29T08:41:44Z</time>
      </trkpt>
      <trkpt lat="48.01701" lon="6.82151">
        <ele>873.6</ele>
        <time>2022-07-29T08:41:45Z</time>
      </trkpt>
      <trkpt lat="48.01703" lon="6.82152">
        <ele>873.8</ele>
        <time>2022-07-29T08:41:46Z</time>
      </trkpt>
      <trkpt lat="48.01704" lon="6.82153">
        <ele>874</ele>
        <time>2022-07-29T08:41:47Z</time>
      </trkpt>
      <trkpt lat="48.01706" lon="6.82154">
        <ele>874</ele>
        <time>2022-07-29T08:41:48Z</time>
      </trkpt>
      <trkpt lat="48.01708" lon="6.82154">
        <ele>874.2</ele>
        <time>2022-07-29T08:41:49Z</time>
      </trkpt>
      <trkpt lat="48.01709" lon="6.82154">
        <ele>874.2</ele>
        <time>2022-07-29T08:41:50Z</time>
      </trkpt>
      <trkpt lat="48.01711" lon="6.82154">
        <ele>874.2</ele>
        <time>2022-07-29T08:41:51Z</time>
      </trkpt>
      <trkpt lat="48.01712" lon="6.82155">
        <ele>874.4</ele>
        <time>2022-07-29T08:41:52Z</time>
      </trkpt>
      <trkpt lat="48.01714" lon="6.82156">
        <ele>874.4</ele>
        <time>2022-07-29T08:41:53Z</time>
      </trkpt>
      <trkpt lat="48.01716" lon="6.82156">
        <ele>874.6</ele>
        <time>2022-07-29T08:41:54Z</time>
      </trkpt>
      <trkpt lat="48.01718" lon="6.82157">
        <ele>874.6</ele>
        <time>2022-07-29T08:41:55Z</time>
      </trkpt>
      <trkpt lat="48.01719" lon="6.82158">
        <ele>874.8</ele>
        <time>2022-07-29T08:41:56Z</time>
      </trkpt>
      <trkpt lat="48.01721" lon="6.82158">
        <ele>874.8</ele>
        <time>2022-07-29T08:41:57Z</time>
      </trkpt>
      <trkpt lat="48.01723" lon="6.82159">
        <ele>875</ele>
        <time>2022-07-29T08:41:58Z</time>
      </trkpt>
      <trkpt lat="48.01724" lon="6.8216">
        <ele>875.2</ele>
        <time>2022-07-29T08:41:59Z</time>
      </trkpt>
      <trkpt lat="48.01726" lon="6.8216">
        <ele>875.4</ele>
        <time>2022-07-29T08:42:00Z</time>
      </trkpt>
      <trkpt lat="48.01728" lon="6.82161">
        <ele>875.4</ele>
        <time>2022-07-29T08:42:01Z</time>
      </trkpt>
      <trkpt lat="48.0173" lon="6.82162">
        <ele>875.4</ele>
        <time>2022-07-29T08:42:02Z</time>
      </trkpt>
      <trkpt lat="48.01732" lon="6.82163">
        <ele>875.6</ele>
        <time>2022-07-29T08:42:03Z</time>
      </trkpt>
      <trkpt lat="48.01735" lon="6.82164">
        <ele>875.6</ele>
        <time>2022-07-29T08:42:04Z</time>
      </trkpt>
      <trkpt lat="48.01737" lon="6.82166">
        <ele>875.8</ele>
        <time>2022-07-29T08:42:05Z</time>
      </trkpt>
      <trkpt lat="48.01739" lon="6.82167">
        <ele>875.8</ele>
        <time>2022-07-29T08:42:06Z</time>
      </trkpt>
      <trkpt lat="48.01741" lon="6.82167">
        <ele>876</ele>
        <time>2022-07-29T08:42:07Z</time>
      </trkpt>
      <trkpt lat="48.01743" lon="6.82168">
        <ele>876</ele>
        <time>2022-07-29T08:42:08Z</time>
      </trkpt>
      <trkpt lat="48.01746" lon="6.8217">
        <ele>876</ele>
        <time>2022-07-29T08:42:09Z</time>
      </trkpt>
      <trkpt lat="48.01748" lon="6.82171">
        <ele>876</ele>
        <time>2022-07-29T08:42:10Z</time>
      </trkpt>
      <trkpt lat="48.0175" lon="6.82173">
        <ele>876</ele>
        <time>2022-07-29T08:42:11Z</time>
      </trkpt>
      <trkpt lat="48.01752" lon="6.82174">
        <ele>876</ele>
        <time>2022-07-29T08:42:12Z</time>
      </trkpt>
      <trkpt lat="48.01754" lon="6.82175">
        <ele>876.2</ele>
        <time>2022-07-29T08:42:13Z</time>
      </trkpt>
      <trkpt lat="48.01756" lon="6.82176">
        <ele>876.4</ele>
        <time>2022-07-29T08:42:14Z</time>
      </trkpt>
      <trkpt lat="48.01758" lon="6.82178">
        <ele>876.6</ele>
        <time>2022-07-29T08:42:15Z</time>
      </trkpt>
      <trkpt lat="48.0176" lon="6.8218">
        <ele>876.6</ele>
        <time>2022-07-29T08:42:16Z</time>
      </trkpt>
      <trkpt lat="48.01763" lon="6.82182">
        <ele>876.6</ele>
        <time>2022-07-29T08:42:17Z</time>
      </trkpt>
      <trkpt lat="48.0177" lon="6.82188">
        <ele>877</ele>
        <time>2022-07-29T08:42:21Z</time>
      </trkpt>
      <trkpt lat="48.01774" lon="6.8219">
        <ele>877.2</ele>
        <time>2022-07-29T08:42:23Z</time>
      </trkpt>
      <trkpt lat="48.01777" lon="6.82193">
        <ele>877.4</ele>
        <time>2022-07-29T08:42:25Z</time>
      </trkpt>
      <trkpt lat="48.01781" lon="6.82196">
        <ele>877.4</ele>
        <time>2022-07-29T08:42:27Z</time>
      </trkpt>
      <trkpt lat="48.01783" lon="6.82197">
        <ele>877.6</ele>
        <time>2022-07-29T08:42:28Z</time>
      </trkpt>
      <trkpt lat="48.01785" lon="6.82199">
        <ele>877.8</ele>
        <time>2022-07-29T08:42:29Z</time>
      </trkpt>
      <trkpt lat="48.01787" lon="6.822">
        <ele>877.8</ele>
        <time>2022-07-29T08:42:30Z</time>
      </trkpt>
      <trkpt lat="48.01789" lon="6.82201">
        <ele>878</ele>
        <time>2022-07-29T08:42:31Z</time>
      </trkpt>
      <trkpt lat="48.01792" lon="6.82204">
        <ele>878</ele>
        <time>2022-07-29T08:42:33Z</time>
      </trkpt>
      <trkpt lat="48.01794" lon="6.82205">
        <ele>878.2</ele>
        <time>2022-07-29T08:42:34Z</time>
      </trkpt>
      <trkpt lat="48.01795" lon="6.82206">
        <ele>878.4</ele>
        <time>2022-07-29T08:42:35Z</time>
      </trkpt>
      <trkpt lat="48.01799" lon="6.82209">
        <ele>878.8</ele>
        <time>2022-07-29T08:42:37Z</time>
      </trkpt>
      <trkpt lat="48.01809" lon="6.8222">
        <ele>879.4</ele>
        <time>2022-07-29T08:42:42Z</time>
      </trkpt>
      <trkpt lat="48.01811" lon="6.82222">
        <ele>879.4</ele>
        <time>2022-07-29T08:42:43Z</time>
      </trkpt>
      <trkpt lat="48.01812" lon="6.82224">
        <ele>879.6</ele>
        <time>2022-07-29T08:42:44Z</time>
      </trkpt>
      <trkpt lat="48.01814" lon="6.82226">
        <ele>879.6</ele>
        <time>2022-07-29T08:42:45Z</time>
      </trkpt>
      <trkpt lat="48.01816" lon="6.82227">
        <ele>879.8</ele>
        <time>2022-07-29T08:42:46Z</time>
      </trkpt>
      <trkpt lat="48.01817" lon="6.82228">
        <ele>879.8</ele>
        <time>2022-07-29T08:42:47Z</time>
      </trkpt>
      <trkpt lat="48.01819" lon="6.8223">
        <ele>880</ele>
        <time>2022-07-29T08:42:48Z</time>
      </trkpt>
      <trkpt lat="48.0182" lon="6.82233">
        <ele>880</ele>
        <time>2022-07-29T08:42:49Z</time>
      </trkpt>
      <trkpt lat="48.01822" lon="6.82235">
        <ele>880</ele>
        <time>2022-07-29T08:42:50Z</time>
      </trkpt>
      <trkpt lat="48.01824" lon="6.82237">
        <ele>880.2</ele>
        <time>2022-07-29T08:42:51Z</time>
      </trkpt>
      <trkpt lat="48.01826" lon="6.82239">
        <ele>880.2</ele>
        <time>2022-07-29T08:42:52Z</time>
      </trkpt>
      <trkpt lat="48.01828" lon="6.8224">
        <ele>880.2</ele>
        <time>2022-07-29T08:42:53Z</time>
      </trkpt>
      <trkpt lat="48.0183" lon="6.82242">
        <ele>880.2</ele>
        <time>2022-07-29T08:42:54Z</time>
      </trkpt>
      <trkpt lat="48.01832" lon="6.82243">
        <ele>880.4</ele>
        <time>2022-07-29T08:42:55Z</time>
      </trkpt>
      <trkpt lat="48.01834" lon="6.82245">
        <ele>880.4</ele>
        <time>2022-07-29T08:42:56Z</time>
      </trkpt>
      <trkpt lat="48.01836" lon="6.82246">
        <ele>880.4</ele>
        <time>2022-07-29T08:42:57Z</time>
      </trkpt>
      <trkpt lat="48.01838" lon="6.82248">
        <ele>880.6</ele>
        <time>2022-07-29T08:42:58Z</time>
      </trkpt>
      <trkpt lat="48.01847" lon="6.82255">
        <ele>881</ele>
        <time>2022-07-29T08:43:03Z</time>
      </trkpt>
      <trkpt lat="48.01849" lon="6.82256">
        <ele>881.2</ele>
        <time>2022-07-29T08:43:04Z</time>
      </trkpt>
      <trkpt lat="48.0185" lon="6.82257">
        <ele>881.2</ele>
        <time>2022-07-29T08:43:05Z</time>
      </trkpt>
      <trkpt lat="48.01852" lon="6.82259">
        <ele>881.4</ele>
        <time>2022-07-29T08:43:06Z</time>
      </trkpt>
      <trkpt lat="48.01853" lon="6.8226">
        <ele>881.6</ele>
        <time>2022-07-29T08:43:07Z</time>
      </trkpt>
      <trkpt lat="48.01855" lon="6.82262">
        <ele>881.8</ele>
        <time>2022-07-29T08:43:08Z</time>
      </trkpt>
      <trkpt lat="48.01856" lon="6.82263">
        <ele>881.8</ele>
        <time>2022-07-29T08:43:09Z</time>
      </trkpt>
      <trkpt lat="48.01858" lon="6.82265">
        <ele>882</ele>
        <time>2022-07-29T08:43:10Z</time>
      </trkpt>
      <trkpt lat="48.0186" lon="6.82267">
        <ele>882.4</ele>
        <time>2022-07-29T08:43:11Z</time>
      </trkpt>
      <trkpt lat="48.01862" lon="6.82268">
        <ele>882.6</ele>
        <time>2022-07-29T08:43:12Z</time>
      </trkpt>
      <trkpt lat="48.01864" lon="6.82269">
        <ele>882.8</ele>
        <time>2022-07-29T08:43:13Z</time>
      </trkpt>
      <trkpt lat="48.01867" lon="6.8227">
        <ele>882.8</ele>
        <time>2022-07-29T08:43:14Z</time>
      </trkpt>
      <trkpt lat="48.01869" lon="6.82271">
        <ele>883</ele>
        <time>2022-07-29T08:43:15Z</time>
      </trkpt>
      <trkpt lat="48.01871" lon="6.82272">
        <ele>883.2</ele>
        <time>2022-07-29T08:43:16Z</time>
      </trkpt>
      <trkpt lat="48.01873" lon="6.82273">
        <ele>883.4</ele>
        <time>2022-07-29T08:43:17Z</time>
      </trkpt>
      <trkpt lat="48.01875" lon="6.82275">
        <ele>883.4</ele>
        <time>2022-07-29T08:43:18Z</time>
      </trkpt>
      <trkpt lat="48.01878" lon="6.82276">
        <ele>883.6</ele>
        <time>2022-07-29T08:43:19Z</time>
      </trkpt>
      <trkpt lat="48.0188" lon="6.82278">
        <ele>883.6</ele>
        <time>2022-07-29T08:43:20Z</time>
      </trkpt>
      <trkpt lat="48.01882" lon="6.82281">
        <ele>883.8</ele>
        <time>2022-07-29T08:43:21Z</time>
      </trkpt>
      <trkpt lat="48.01884" lon="6.82283">
        <ele>884</ele>
        <time>2022-07-29T08:43:22Z</time>
      </trkpt>
      <trkpt lat="48.01886" lon="6.82284">
        <ele>884</ele>
        <time>2022-07-29T08:43:23Z</time>
      </trkpt>
      <trkpt lat="48.01889" lon="6.82286">
        <ele>884</ele>
        <time>2022-07-29T08:43:24Z</time>
      </trkpt>
      <trkpt lat="48.01891" lon="6.82289">
        <ele>884</ele>
        <time>2022-07-29T08:43:25Z</time>
      </trkpt>
      <trkpt lat="48.01894" lon="6.8229">
        <ele>884.2</ele>
        <time>2022-07-29T08:43:26Z</time>
      </trkpt>
      <trkpt lat="48.01896" lon="6.82292">
        <ele>884.2</ele>
        <time>2022-07-29T08:43:27Z</time>
      </trkpt>
      <trkpt lat="48.01898" lon="6.82293">
        <ele>884.2</ele>
        <time>2022-07-29T08:43:28Z</time>
      </trkpt>
      <trkpt lat="48.01901" lon="6.82294">
        <ele>884.2</ele>
        <time>2022-07-29T08:43:29Z</time>
      </trkpt>
      <trkpt lat="48.01903" lon="6.82296">
        <ele>884.2</ele>
        <time>2022-07-29T08:43:30Z</time>
      </trkpt>
      <trkpt lat="48.01906" lon="6.82298">
        <ele>884.2</ele>
        <time>2022-07-29T08:43:31Z</time>
      </trkpt>
      <trkpt lat="48.01909" lon="6.82299">
        <ele>884.2</ele>
        <time>2022-07-29T08:43:32Z</time>
      </trkpt>
      <trkpt lat="48.01911" lon="6.82302">
        <ele>884.2</ele>
        <time>2022-07-29T08:43:33Z</time>
      </trkpt>
      <trkpt lat="48.01914" lon="6.82303">
        <ele>884.2</ele>
        <time>2022-07-29T08:43:34Z</time>
      </trkpt>
      <trkpt lat="48.01917" lon="6.82304">
        <ele>884.2</ele>
        <time>2022-07-29T08:43:35Z</time>
      </trkpt>
      <trkpt lat="48.01918" lon="6.82306">
        <ele>884.2</ele>
        <time>2022-07-29T08:43:36Z</time>
      </trkpt>
      <trkpt lat="48.0192" lon="6.82307">
        <ele>884</ele>
        <time>2022-07-29T08:43:37Z</time>
      </trkpt>
      <trkpt lat="48.0192" lon="6.82309">
        <ele>883.8</ele>
        <time>2022-07-29T08:43:38Z</time>
      </trkpt>
      <trkpt lat="48.0192" lon="6.82308">
        <ele>883.8</ele>
        <time>2022-07-29T08:43:39Z</time>
      </trkpt>
      <trkpt lat="48.01922" lon="6.82308">
        <ele>883.8</ele>
        <time>2022-07-29T08:43:40Z</time>
      </trkpt>
      <trkpt lat="48.01923" lon="6.82309">
        <ele>883.8</ele>
        <time>2022-07-29T08:43:41Z</time>
      </trkpt>
      <trkpt lat="48.01925" lon="6.8231">
        <ele>883.8</ele>
        <time>2022-07-29T08:43:42Z</time>
      </trkpt>
      <trkpt lat="48.01927" lon="6.82311">
        <ele>883.8</ele>
        <time>2022-07-29T08:43:43Z</time>
      </trkpt>
      <trkpt lat="48.01928" lon="6.82312">
        <ele>883.8</ele>
        <time>2022-07-29T08:43:44Z</time>
      </trkpt>
      <trkpt lat="48.01929" lon="6.82313">
        <ele>883.8</ele>
        <time>2022-07-29T08:43:45Z</time>
      </trkpt>
      <trkpt lat="48.0193" lon="6.82314">
        <ele>883.8</ele>
        <time>2022-07-29T08:43:46Z</time>
      </trkpt>
      <trkpt lat="48.01932" lon="6.82314">
        <ele>883.6</ele>
        <time>2022-07-29T08:43:47Z</time>
      </trkpt>
      <trkpt lat="48.01938" lon="6.82317">
        <ele>883.6</ele>
        <time>2022-07-29T08:43:50Z</time>
      </trkpt>
      <trkpt lat="48.01943" lon="6.82319">
        <ele>883.6</ele>
        <time>2022-07-29T08:43:52Z</time>
      </trkpt>
      <trkpt lat="48.01954" lon="6.82325">
        <ele>883.4</ele>
        <time>2022-07-29T08:43:56Z</time>
      </trkpt>
      <trkpt lat="48.0197" lon="6.82336">
        <ele>883</ele>
        <time>2022-07-29T08:44:01Z</time>
      </trkpt>
      <trkpt lat="48.01972" lon="6.82338">
        <ele>882.6</ele>
        <time>2022-07-29T08:44:02Z</time>
      </trkpt>
      <trkpt lat="48.01974" lon="6.82341">
        <ele>882.4</ele>
        <time>2022-07-29T08:44:03Z</time>
      </trkpt>
      <trkpt lat="48.01976" lon="6.82343">
        <ele>882</ele>
        <time>2022-07-29T08:44:04Z</time>
      </trkpt>
      <trkpt lat="48.01978" lon="6.82346">
        <ele>881.8</ele>
        <time>2022-07-29T08:44:05Z</time>
      </trkpt>
      <trkpt lat="48.01983" lon="6.82351">
        <ele>881.4</ele>
        <time>2022-07-29T08:44:07Z</time>
      </trkpt>
      <trkpt lat="48.01985" lon="6.82353">
        <ele>881.2</ele>
        <time>2022-07-29T08:44:08Z</time>
      </trkpt>
      <trkpt lat="48.01991" lon="6.82359">
        <ele>880.4</ele>
        <time>2022-07-29T08:44:11Z</time>
      </trkpt>
      <trkpt lat="48.01993" lon="6.82363">
        <ele>880.2</ele>
        <time>2022-07-29T08:44:12Z</time>
      </trkpt>
      <trkpt lat="48.01996" lon="6.82368">
        <ele>880.2</ele>
        <time>2022-07-29T08:44:13Z</time>
      </trkpt>
      <trkpt lat="48.02007" lon="6.82385">
        <ele>879.6</ele>
        <time>2022-07-29T08:44:16Z</time>
      </trkpt>
      <trkpt lat="48.0202" lon="6.82405">
        <ele>879</ele>
        <time>2022-07-29T08:44:19Z</time>
      </trkpt>
      <trkpt lat="48.02031" lon="6.82422">
        <ele>878.6</ele>
        <time>2022-07-29T08:44:21Z</time>
      </trkpt>
      <trkpt lat="48.02042" lon="6.82439">
        <ele>878</ele>
        <time>2022-07-29T08:44:23Z</time>
      </trkpt>
      <trkpt lat="48.02049" lon="6.82453">
        <ele>877.2</ele>
        <time>2022-07-29T08:44:25Z</time>
      </trkpt>
      <trkpt lat="48.02053" lon="6.8246">
        <ele>877</ele>
        <time>2022-07-29T08:44:26Z</time>
      </trkpt>
      <trkpt lat="48.02056" lon="6.82467">
        <ele>876.2</ele>
        <time>2022-07-29T08:44:27Z</time>
      </trkpt>
      <trkpt lat="48.0206" lon="6.82475">
        <ele>876</ele>
        <time>2022-07-29T08:44:28Z</time>
      </trkpt>
      <trkpt lat="48.02064" lon="6.82483">
        <ele>875.4</ele>
        <time>2022-07-29T08:44:29Z</time>
      </trkpt>
      <trkpt lat="48.02067" lon="6.82489">
        <ele>875</ele>
        <time>2022-07-29T08:44:30Z</time>
      </trkpt>
      <trkpt lat="48.0207" lon="6.82494">
        <ele>874.6</ele>
        <time>2022-07-29T08:44:31Z</time>
      </trkpt>
      <trkpt lat="48.02072" lon="6.82499">
        <ele>874.6</ele>
        <time>2022-07-29T08:44:32Z</time>
      </trkpt>
      <trkpt lat="48.02074" lon="6.82504">
        <ele>874.6</ele>
        <time>2022-07-29T08:44:33Z</time>
      </trkpt>
      <trkpt lat="48.02076" lon="6.82509">
        <ele>874.4</ele>
        <time>2022-07-29T08:44:34Z</time>
      </trkpt>
      <trkpt lat="48.02078" lon="6.82515">
        <ele>874.4</ele>
        <time>2022-07-29T08:44:35Z</time>
      </trkpt>
      <trkpt lat="48.02079" lon="6.8252">
        <ele>874.4</ele>
        <time>2022-07-29T08:44:36Z</time>
      </trkpt>
      <trkpt lat="48.02081" lon="6.82525">
        <ele>874.4</ele>
        <time>2022-07-29T08:44:37Z</time>
      </trkpt>
      <trkpt lat="48.02082" lon="6.82531">
        <ele>874.4</ele>
        <time>2022-07-29T08:44:38Z</time>
      </trkpt>
      <trkpt lat="48.02087" lon="6.8256">
        <ele>874.4</ele>
        <time>2022-07-29T08:44:42Z</time>
      </trkpt>
      <trkpt lat="48.02089" lon="6.82569">
        <ele>874.2</ele>
        <time>2022-07-29T08:44:43Z</time>
      </trkpt>
      <trkpt lat="48.02091" lon="6.82579">
        <ele>874</ele>
        <time>2022-07-29T08:44:44Z</time>
      </trkpt>
      <trkpt lat="48.02093" lon="6.8259">
        <ele>873.8</ele>
        <time>2022-07-29T08:44:45Z</time>
      </trkpt>
      <trkpt lat="48.02096" lon="6.82613">
        <ele>873.2</ele>
        <time>2022-07-29T08:44:47Z</time>
      </trkpt>
      <trkpt lat="48.02099" lon="6.82636">
        <ele>872.4</ele>
        <time>2022-07-29T08:44:49Z</time>
      </trkpt>
      <trkpt lat="48.02103" lon="6.82658">
        <ele>871.2</ele>
        <time>2022-07-29T08:44:51Z</time>
      </trkpt>
      <trkpt lat="48.02104" lon="6.82669">
        <ele>870.2</ele>
        <time>2022-07-29T08:44:52Z</time>
      </trkpt>
      <trkpt lat="48.02106" lon="6.8268">
        <ele>869.8</ele>
        <time>2022-07-29T08:44:53Z</time>
      </trkpt>
      <trkpt lat="48.0211" lon="6.82716">
        <ele>868.8</ele>
        <time>2022-07-29T08:44:56Z</time>
      </trkpt>
      <trkpt lat="48.0211" lon="6.82729">
        <ele>868.6</ele>
        <time>2022-07-29T08:44:57Z</time>
      </trkpt>
      <trkpt lat="48.02108" lon="6.82766">
        <ele>867.2</ele>
        <time>2022-07-29T08:45:00Z</time>
      </trkpt>
      <trkpt lat="48.02107" lon="6.82796">
        <ele>866</ele>
        <time>2022-07-29T08:45:02Z</time>
      </trkpt>
      <trkpt lat="48.02109" lon="6.82847">
        <ele>864</ele>
        <time>2022-07-29T08:45:05Z</time>
      </trkpt>
      <trkpt lat="48.0211" lon="6.82883">
        <ele>861</ele>
        <time>2022-07-29T08:45:07Z</time>
      </trkpt>
      <trkpt lat="48.02112" lon="6.82901">
        <ele>860</ele>
        <time>2022-07-29T08:45:08Z</time>
      </trkpt>
      <trkpt lat="48.02114" lon="6.82921">
        <ele>858.2</ele>
        <time>2022-07-29T08:45:09Z</time>
      </trkpt>
      <trkpt lat="48.02117" lon="6.82957">
        <ele>856.6</ele>
        <time>2022-07-29T08:45:11Z</time>
      </trkpt>
      <trkpt lat="48.02118" lon="6.82974">
        <ele>853.8</ele>
        <time>2022-07-29T08:45:12Z</time>
      </trkpt>
      <trkpt lat="48.02118" lon="6.8299">
        <ele>852.8</ele>
        <time>2022-07-29T08:45:13Z</time>
      </trkpt>
      <trkpt lat="48.02116" lon="6.83005">
        <ele>851.2</ele>
        <time>2022-07-29T08:45:14Z</time>
      </trkpt>
      <trkpt lat="48.02114" lon="6.83018">
        <ele>850.6</ele>
        <time>2022-07-29T08:45:15Z</time>
      </trkpt>
      <trkpt lat="48.0211" lon="6.83029">
        <ele>849</ele>
        <time>2022-07-29T08:45:16Z</time>
      </trkpt>
      <trkpt lat="48.02107" lon="6.8304">
        <ele>848.4</ele>
        <time>2022-07-29T08:45:17Z</time>
      </trkpt>
      <trkpt lat="48.02104" lon="6.8305">
        <ele>847.8</ele>
        <time>2022-07-29T08:45:18Z</time>
      </trkpt>
      <trkpt lat="48.02102" lon="6.83061">
        <ele>847.4</ele>
        <time>2022-07-29T08:45:19Z</time>
      </trkpt>
      <trkpt lat="48.02099" lon="6.8307">
        <ele>847.2</ele>
        <time>2022-07-29T08:45:20Z</time>
      </trkpt>
      <trkpt lat="48.02097" lon="6.8308">
        <ele>847.2</ele>
        <time>2022-07-29T08:45:21Z</time>
      </trkpt>
      <trkpt lat="48.02094" lon="6.83089">
        <ele>847</ele>
        <time>2022-07-29T08:45:22Z</time>
      </trkpt>
      <trkpt lat="48.0209" lon="6.83098">
        <ele>846.8</ele>
        <time>2022-07-29T08:45:23Z</time>
      </trkpt>
      <trkpt lat="48.02086" lon="6.83106">
        <ele>847</ele>
        <time>2022-07-29T08:45:24Z</time>
      </trkpt>
      <trkpt lat="48.02079" lon="6.83123">
        <ele>847</ele>
        <time>2022-07-29T08:45:26Z</time>
      </trkpt>
      <trkpt lat="48.02075" lon="6.83131">
        <ele>847</ele>
        <time>2022-07-29T08:45:27Z</time>
      </trkpt>
      <trkpt lat="48.02071" lon="6.83139">
        <ele>846.8</ele>
        <time>2022-07-29T08:45:28Z</time>
      </trkpt>
      <trkpt lat="48.02067" lon="6.83147">
        <ele>846.8</ele>
        <time>2022-07-29T08:45:29Z</time>
      </trkpt>
      <trkpt lat="48.02063" lon="6.83155">
        <ele>846.8</ele>
        <time>2022-07-29T08:45:30Z</time>
      </trkpt>
      <trkpt lat="48.02053" lon="6.83168">
        <ele>846.4</ele>
        <time>2022-07-29T08:45:32Z</time>
      </trkpt>
      <trkpt lat="48.02048" lon="6.83174">
        <ele>846.2</ele>
        <time>2022-07-29T08:45:33Z</time>
      </trkpt>
      <trkpt lat="48.02044" lon="6.8318">
        <ele>846</ele>
        <time>2022-07-29T08:45:34Z</time>
      </trkpt>
      <trkpt lat="48.02033" lon="6.83193">
        <ele>845.6</ele>
        <time>2022-07-29T08:45:36Z</time>
      </trkpt>
      <trkpt lat="48.02027" lon="6.83201">
        <ele>845.4</ele>
        <time>2022-07-29T08:45:37Z</time>
      </trkpt>
      <trkpt lat="48.02003" lon="6.83228">
        <ele>844.4</ele>
        <time>2022-07-29T08:45:41Z</time>
      </trkpt>
      <trkpt lat="48.01998" lon="6.83234">
        <ele>844.2</ele>
        <time>2022-07-29T08:45:42Z</time>
      </trkpt>
      <trkpt lat="48.01994" lon="6.8324">
        <ele>843.8</ele>
        <time>2022-07-29T08:45:43Z</time>
      </trkpt>
      <trkpt lat="48.0199" lon="6.83245">
        <ele>843.8</ele>
        <time>2022-07-29T08:45:44Z</time>
      </trkpt>
      <trkpt lat="48.01986" lon="6.83251">
        <ele>843.4</ele>
        <time>2022-07-29T08:45:45Z</time>
      </trkpt>
      <trkpt lat="48.01982" lon="6.83257">
        <ele>843.2</ele>
        <time>2022-07-29T08:45:46Z</time>
      </trkpt>
      <trkpt lat="48.0198" lon="6.83261">
        <ele>843.2</ele>
        <time>2022-07-29T08:45:47Z</time>
      </trkpt>
      <trkpt lat="48.01977" lon="6.83265">
        <ele>843.2</ele>
        <time>2022-07-29T08:45:48Z</time>
      </trkpt>
      <trkpt lat="48.01974" lon="6.83267">
        <ele>843.2</ele>
        <time>2022-07-29T08:45:49Z</time>
      </trkpt>
      <trkpt lat="48.01972" lon="6.8327">
        <ele>843.2</ele>
        <time>2022-07-29T08:45:50Z</time>
      </trkpt>
      <trkpt lat="48.01971" lon="6.83273">
        <ele>843.2</ele>
        <time>2022-07-29T08:45:51Z</time>
      </trkpt>
      <trkpt lat="48.01969" lon="6.83276">
        <ele>843.6</ele>
        <time>2022-07-29T08:45:52Z</time>
      </trkpt>
      <trkpt lat="48.01968" lon="6.8328">
        <ele>843.8</ele>
        <time>2022-07-29T08:45:53Z</time>
      </trkpt>
      <trkpt lat="48.01967" lon="6.83282">
        <ele>844.4</ele>
        <time>2022-07-29T08:45:54Z</time>
      </trkpt>
      <trkpt lat="48.01966" lon="6.83284">
        <ele>845</ele>
        <time>2022-07-29T08:45:55Z</time>
      </trkpt>
      <trkpt lat="48.01966" lon="6.83285">
        <ele>845.4</ele>
        <time>2022-07-29T08:45:56Z</time>
      </trkpt>
      <trkpt lat="48.01965" lon="6.83286">
        <ele>845.8</ele>
        <time>2022-07-29T08:45:57Z</time>
      </trkpt>
      <trkpt lat="48.01964" lon="6.83287">
        <ele>846</ele>
        <time>2022-07-29T08:45:58Z</time>
      </trkpt>
      <trkpt lat="48.01963" lon="6.83289">
        <ele>846.4</ele>
        <time>2022-07-29T08:45:59Z</time>
      </trkpt>
      <trkpt lat="48.01961" lon="6.83291">
        <ele>847</ele>
        <time>2022-07-29T08:46:00Z</time>
      </trkpt>
      <trkpt lat="48.01958" lon="6.83297">
        <ele>847.8</ele>
        <time>2022-07-29T08:46:03Z</time>
      </trkpt>
      <trkpt lat="48.01958" lon="6.83298">
        <ele>848.4</ele>
        <time>2022-07-29T08:46:04Z</time>
      </trkpt>
      <trkpt lat="48.01956" lon="6.833">
        <ele>848.6</ele>
        <time>2022-07-29T08:46:05Z</time>
      </trkpt>
      <trkpt lat="48.01955" lon="6.83301">
        <ele>848.8</ele>
        <time>2022-07-29T08:46:06Z</time>
      </trkpt>
      <trkpt lat="48.01954" lon="6.83302">
        <ele>848.8</ele>
        <time>2022-07-29T08:46:07Z</time>
      </trkpt>
      <trkpt lat="48.01953" lon="6.83303">
        <ele>849</ele>
        <time>2022-07-29T08:46:08Z</time>
      </trkpt>
      <trkpt lat="48.01952" lon="6.83304">
        <ele>849</ele>
        <time>2022-07-29T08:46:09Z</time>
      </trkpt>
      <trkpt lat="48.01951" lon="6.83306">
        <ele>849.2</ele>
        <time>2022-07-29T08:46:10Z</time>
      </trkpt>
      <trkpt lat="48.01951" lon="6.83307">
        <ele>849.4</ele>
        <time>2022-07-29T08:46:11Z</time>
      </trkpt>
      <trkpt lat="48.0195" lon="6.83308">
        <ele>849.8</ele>
        <time>2022-07-29T08:46:12Z</time>
      </trkpt>
      <trkpt lat="48.01949" lon="6.83309">
        <ele>850</ele>
        <time>2022-07-29T08:46:13Z</time>
      </trkpt>
      <trkpt lat="48.01948" lon="6.83311">
        <ele>850.2</ele>
        <time>2022-07-29T08:46:14Z</time>
      </trkpt>
      <trkpt lat="48.01946" lon="6.83312">
        <ele>850.6</ele>
        <time>2022-07-29T08:46:15Z</time>
      </trkpt>
      <trkpt lat="48.01945" lon="6.83313">
        <ele>850.8</ele>
        <time>2022-07-29T08:46:16Z</time>
      </trkpt>
      <trkpt lat="48.01944" lon="6.83315">
        <ele>851</ele>
        <time>2022-07-29T08:46:17Z</time>
      </trkpt>
      <trkpt lat="48.01944" lon="6.83316">
        <ele>851.2</ele>
        <time>2022-07-29T08:46:18Z</time>
      </trkpt>
      <trkpt lat="48.01943" lon="6.83319">
        <ele>851.4</ele>
        <time>2022-07-29T08:46:19Z</time>
      </trkpt>
      <trkpt lat="48.01942" lon="6.8332">
        <ele>851.6</ele>
        <time>2022-07-29T08:46:20Z</time>
      </trkpt>
      <trkpt lat="48.01941" lon="6.83322">
        <ele>851.8</ele>
        <time>2022-07-29T08:46:21Z</time>
      </trkpt>
      <trkpt lat="48.0194" lon="6.83323">
        <ele>852.2</ele>
        <time>2022-07-29T08:46:22Z</time>
      </trkpt>
      <trkpt lat="48.01939" lon="6.83325">
        <ele>852.2</ele>
        <time>2022-07-29T08:46:23Z</time>
      </trkpt>
      <trkpt lat="48.01938" lon="6.83327">
        <ele>852.4</ele>
        <time>2022-07-29T08:46:24Z</time>
      </trkpt>
      <trkpt lat="48.01937" lon="6.83328">
        <ele>852.6</ele>
        <time>2022-07-29T08:46:25Z</time>
      </trkpt>
      <trkpt lat="48.01937" lon="6.8333">
        <ele>853</ele>
        <time>2022-07-29T08:46:26Z</time>
      </trkpt>
      <trkpt lat="48.01936" lon="6.83332">
        <ele>853</ele>
        <time>2022-07-29T08:46:27Z</time>
      </trkpt>
      <trkpt lat="48.01936" lon="6.83334">
        <ele>853.2</ele>
        <time>2022-07-29T08:46:28Z</time>
      </trkpt>
      <trkpt lat="48.01936" lon="6.83336">
        <ele>853.2</ele>
        <time>2022-07-29T08:46:29Z</time>
      </trkpt>
      <trkpt lat="48.01936" lon="6.83339">
        <ele>853.4</ele>
        <time>2022-07-29T08:46:30Z</time>
      </trkpt>
      <trkpt lat="48.01936" lon="6.83341">
        <ele>853.4</ele>
        <time>2022-07-29T08:46:31Z</time>
      </trkpt>
      <trkpt lat="48.01937" lon="6.83343">
        <ele>853.4</ele>
        <time>2022-07-29T08:46:32Z</time>
      </trkpt>
      <trkpt lat="48.01938" lon="6.83344">
        <ele>853.6</ele>
        <time>2022-07-29T08:46:33Z</time>
      </trkpt>
      <trkpt lat="48.01939" lon="6.83345">
        <ele>853.6</ele>
        <time>2022-07-29T08:46:34Z</time>
      </trkpt>
      <trkpt lat="48.0194" lon="6.83346">
        <ele>853.8</ele>
        <time>2022-07-29T08:46:35Z</time>
      </trkpt>
      <trkpt lat="48.01941" lon="6.83345">
        <ele>853.8</ele>
        <time>2022-07-29T08:46:36Z</time>
      </trkpt>
      <trkpt lat="48.01942" lon="6.83345">
        <ele>853.8</ele>
        <time>2022-07-29T08:46:37Z</time>
      </trkpt>
      <trkpt lat="48.01942" lon="6.83344">
        <ele>853.8</ele>
        <time>2022-07-29T08:46:38Z</time>
      </trkpt>
      <trkpt lat="48.01942" lon="6.83344">
        <ele>853.8</ele>
        <time>2022-07-29T08:46:39Z</time>
      </trkpt>
      <trkpt lat="48.01942" lon="6.83344">
        <ele>853.8</ele>
        <time>2022-07-29T08:46:40Z</time>
      </trkpt>
      <trkpt lat="48.01942" lon="6.83344">
        <ele>853.8</ele>
        <time>2022-07-29T08:46:41Z</time>
      </trkpt>
      <trkpt lat="48.01942" lon="6.83344">
        <ele>854</ele>
        <time>2022-07-29T08:46:42Z</time>
      </trkpt>
      <trkpt lat="48.01942" lon="6.83343">
        <ele>854</ele>
        <time>2022-07-29T08:46:43Z</time>
      </trkpt>
      <trkpt lat="48.01943" lon="6.83342">
        <ele>854</ele>
        <time>2022-07-29T08:46:44Z</time>
      </trkpt>
      <trkpt lat="48.01943" lon="6.83342">
        <ele>854</ele>
        <time>2022-07-29T08:46:45Z</time>
      </trkpt>
      <trkpt lat="48.01943" lon="6.83341">
        <ele>854</ele>
        <time>2022-07-29T08:46:46Z</time>
      </trkpt>
      <trkpt lat="48.01943" lon="6.83341">
        <ele>853.8</ele>
        <time>2022-07-29T08:46:54Z</time>
      </trkpt>
      <trkpt lat="48.01943" lon="6.83341">
        <ele>853.8</ele>
        <time>2022-07-29T08:47:05Z</time>
      </trkpt>
      <trkpt lat="48.01943" lon="6.83341">
        <ele>853.6</ele>
        <time>2022-07-29T08:48:05Z</time>
      </trkpt>
      <trkpt lat="48.01942" lon="6.83342">
        <ele>853.6</ele>
        <time>2022-07-29T08:48:41Z</time>
      </trkpt>
      <trkpt lat="48.0194" lon="6.8334">
        <ele>853.8</ele>
        <time>2022-07-29T08:48:44Z</time>
      </trkpt>
      <trkpt lat="48.01939" lon="6.8334">
        <ele>853.8</ele>
        <time>2022-07-29T08:48:45Z</time>
      </trkpt>
      <trkpt lat="48.01939" lon="6.83341">
        <ele>853.8</ele>
        <time>2022-07-29T08:48:46Z</time>
      </trkpt>
      <trkpt lat="48.01938" lon="6.83341">
        <ele>853.8</ele>
        <time>2022-07-29T08:48:47Z</time>
      </trkpt>
      <trkpt lat="48.01937" lon="6.83341">
        <ele>854</ele>
        <time>2022-07-29T08:48:48Z</time>
      </trkpt>
      <trkpt lat="48.01937" lon="6.83341">
        <ele>854</ele>
        <time>2022-07-29T08:48:49Z</time>
      </trkpt>
      <trkpt lat="48.01935" lon="6.83341">
        <ele>854</ele>
        <time>2022-07-29T08:48:51Z</time>
      </trkpt>
      <trkpt lat="48.01934" lon="6.83341">
        <ele>854</ele>
        <time>2022-07-29T08:48:52Z</time>
      </trkpt>
      <trkpt lat="48.01933" lon="6.83341">
        <ele>854</ele>
        <time>2022-07-29T08:48:53Z</time>
      </trkpt>
      <trkpt lat="48.01928" lon="6.83343">
        <ele>854</ele>
        <time>2022-07-29T08:48:56Z</time>
      </trkpt>
      <trkpt lat="48.01927" lon="6.83345">
        <ele>854</ele>
        <time>2022-07-29T08:48:57Z</time>
      </trkpt>
      <trkpt lat="48.01925" lon="6.83346">
        <ele>854</ele>
        <time>2022-07-29T08:48:58Z</time>
      </trkpt>
      <trkpt lat="48.01924" lon="6.83348">
        <ele>854</ele>
        <time>2022-07-29T08:48:59Z</time>
      </trkpt>
      <trkpt lat="48.01908" lon="6.83366">
        <ele>854.4</ele>
        <time>2022-07-29T08:49:07Z</time>
      </trkpt>
      <trkpt lat="48.01888" lon="6.83381">
        <ele>854.4</ele>
        <time>2022-07-29T08:49:13Z</time>
      </trkpt>
      <trkpt lat="48.01885" lon="6.83385">
        <ele>854.2</ele>
        <time>2022-07-29T08:49:14Z</time>
      </trkpt>
      <trkpt lat="48.01875" lon="6.83392">
        <ele>853.8</ele>
        <time>2022-07-29T08:49:16Z</time>
      </trkpt>
      <trkpt lat="48.01865" lon="6.83397">
        <ele>853.4</ele>
        <time>2022-07-29T08:49:18Z</time>
      </trkpt>
      <trkpt lat="48.01859" lon="6.834">
        <ele>852.8</ele>
        <time>2022-07-29T08:49:19Z</time>
      </trkpt>
      <trkpt lat="48.01842" lon="6.83412">
        <ele>851.6</ele>
        <time>2022-07-29T08:49:22Z</time>
      </trkpt>
      <trkpt lat="48.01836" lon="6.83416">
        <ele>851.6</ele>
        <time>2022-07-29T08:49:23Z</time>
      </trkpt>
      <trkpt lat="48.01824" lon="6.83423">
        <ele>851</ele>
        <time>2022-07-29T08:49:25Z</time>
      </trkpt>
      <trkpt lat="48.01811" lon="6.83429">
        <ele>850.6</ele>
        <time>2022-07-29T08:49:27Z</time>
      </trkpt>
      <trkpt lat="48.01804" lon="6.83433">
        <ele>849.8</ele>
        <time>2022-07-29T08:49:28Z</time>
      </trkpt>
      <trkpt lat="48.01798" lon="6.83438">
        <ele>849.2</ele>
        <time>2022-07-29T08:49:29Z</time>
      </trkpt>
      <trkpt lat="48.01786" lon="6.83448">
        <ele>847.8</ele>
        <time>2022-07-29T08:49:31Z</time>
      </trkpt>
      <trkpt lat="48.01771" lon="6.83462">
        <ele>846.4</ele>
        <time>2022-07-29T08:49:33Z</time>
      </trkpt>
      <trkpt lat="48.01759" lon="6.83476">
        <ele>845.2</ele>
        <time>2022-07-29T08:49:35Z</time>
      </trkpt>
      <trkpt lat="48.01748" lon="6.83491">
        <ele>843.8</ele>
        <time>2022-07-29T08:49:37Z</time>
      </trkpt>
      <trkpt lat="48.01743" lon="6.835">
        <ele>843.2</ele>
        <time>2022-07-29T08:49:38Z</time>
      </trkpt>
      <trkpt lat="48.01738" lon="6.83509">
        <ele>843</ele>
        <time>2022-07-29T08:49:39Z</time>
      </trkpt>
      <trkpt lat="48.01733" lon="6.83518">
        <ele>842.2</ele>
        <time>2022-07-29T08:49:40Z</time>
      </trkpt>
      <trkpt lat="48.01729" lon="6.83528">
        <ele>841.8</ele>
        <time>2022-07-29T08:49:41Z</time>
      </trkpt>
      <trkpt lat="48.01723" lon="6.83545">
        <ele>840.8</ele>
        <time>2022-07-29T08:49:43Z</time>
      </trkpt>
      <trkpt lat="48.01721" lon="6.83555">
        <ele>839.8</ele>
        <time>2022-07-29T08:49:44Z</time>
      </trkpt>
      <trkpt lat="48.01722" lon="6.83565">
        <ele>839</ele>
        <time>2022-07-29T08:49:45Z</time>
      </trkpt>
      <trkpt lat="48.01724" lon="6.83576">
        <ele>838</ele>
        <time>2022-07-29T08:49:46Z</time>
      </trkpt>
      <trkpt lat="48.01727" lon="6.83585">
        <ele>837</ele>
        <time>2022-07-29T08:49:47Z</time>
      </trkpt>
      <trkpt lat="48.01731" lon="6.83596">
        <ele>836.6</ele>
        <time>2022-07-29T08:49:48Z</time>
      </trkpt>
      <trkpt lat="48.01735" lon="6.83607">
        <ele>836.2</ele>
        <time>2022-07-29T08:49:49Z</time>
      </trkpt>
      <trkpt lat="48.0174" lon="6.83617">
        <ele>836</ele>
        <time>2022-07-29T08:49:50Z</time>
      </trkpt>
      <trkpt lat="48.01746" lon="6.83627">
        <ele>835.6</ele>
        <time>2022-07-29T08:49:51Z</time>
      </trkpt>
      <trkpt lat="48.01751" lon="6.83638">
        <ele>835.4</ele>
        <time>2022-07-29T08:49:52Z</time>
      </trkpt>
      <trkpt lat="48.01757" lon="6.8365">
        <ele>834.2</ele>
        <time>2022-07-29T08:49:53Z</time>
      </trkpt>
      <trkpt lat="48.01762" lon="6.83662">
        <ele>833.6</ele>
        <time>2022-07-29T08:49:54Z</time>
      </trkpt>
      <trkpt lat="48.01768" lon="6.83676">
        <ele>832.6</ele>
        <time>2022-07-29T08:49:55Z</time>
      </trkpt>
      <trkpt lat="48.01774" lon="6.8369">
        <ele>831.2</ele>
        <time>2022-07-29T08:49:56Z</time>
      </trkpt>
      <trkpt lat="48.01785" lon="6.83718">
        <ele>829.8</ele>
        <time>2022-07-29T08:49:58Z</time>
      </trkpt>
      <trkpt lat="48.01791" lon="6.83732">
        <ele>829.4</ele>
        <time>2022-07-29T08:49:59Z</time>
      </trkpt>
      <trkpt lat="48.01803" lon="6.8376">
        <ele>828.2</ele>
        <time>2022-07-29T08:50:01Z</time>
      </trkpt>
      <trkpt lat="48.01809" lon="6.83774">
        <ele>827</ele>
        <time>2022-07-29T08:50:02Z</time>
      </trkpt>
      <trkpt lat="48.01821" lon="6.83802">
        <ele>825.4</ele>
        <time>2022-07-29T08:50:04Z</time>
      </trkpt>
      <trkpt lat="48.01825" lon="6.83816">
        <ele>824.2</ele>
        <time>2022-07-29T08:50:05Z</time>
      </trkpt>
      <trkpt lat="48.01829" lon="6.83846">
        <ele>822.2</ele>
        <time>2022-07-29T08:50:07Z</time>
      </trkpt>
      <trkpt lat="48.0183" lon="6.83861">
        <ele>821.6</ele>
        <time>2022-07-29T08:50:08Z</time>
      </trkpt>
      <trkpt lat="48.0183" lon="6.83876">
        <ele>820.6</ele>
        <time>2022-07-29T08:50:09Z</time>
      </trkpt>
      <trkpt lat="48.0183" lon="6.83904">
        <ele>818.8</ele>
        <time>2022-07-29T08:50:11Z</time>
      </trkpt>
      <trkpt lat="48.01832" lon="6.83914">
        <ele>818</ele>
        <time>2022-07-29T08:50:12Z</time>
      </trkpt>
      <trkpt lat="48.01834" lon="6.83924">
        <ele>817</ele>
        <time>2022-07-29T08:50:13Z</time>
      </trkpt>
      <trkpt lat="48.01838" lon="6.83932">
        <ele>815.8</ele>
        <time>2022-07-29T08:50:14Z</time>
      </trkpt>
      <trkpt lat="48.01843" lon="6.8394">
        <ele>815.2</ele>
        <time>2022-07-29T08:50:15Z</time>
      </trkpt>
      <trkpt lat="48.01849" lon="6.83948">
        <ele>814.4</ele>
        <time>2022-07-29T08:50:16Z</time>
      </trkpt>
      <trkpt lat="48.01855" lon="6.83955">
        <ele>814</ele>
        <time>2022-07-29T08:50:17Z</time>
      </trkpt>
      <trkpt lat="48.01862" lon="6.83963">
        <ele>812.8</ele>
        <time>2022-07-29T08:50:18Z</time>
      </trkpt>
      <trkpt lat="48.01878" lon="6.83979">
        <ele>812</ele>
        <time>2022-07-29T08:50:20Z</time>
      </trkpt>
      <trkpt lat="48.01887" lon="6.83986">
        <ele>811.4</ele>
        <time>2022-07-29T08:50:21Z</time>
      </trkpt>
      <trkpt lat="48.01895" lon="6.83993">
        <ele>810.8</ele>
        <time>2022-07-29T08:50:22Z</time>
      </trkpt>
      <trkpt lat="48.01904" lon="6.83999">
        <ele>809.6</ele>
        <time>2022-07-29T08:50:23Z</time>
      </trkpt>
      <trkpt lat="48.01912" lon="6.84007">
        <ele>809</ele>
        <time>2022-07-29T08:50:24Z</time>
      </trkpt>
      <trkpt lat="48.01919" lon="6.84016">
        <ele>807.8</ele>
        <time>2022-07-29T08:50:25Z</time>
      </trkpt>
      <trkpt lat="48.01926" lon="6.84023">
        <ele>807.6</ele>
        <time>2022-07-29T08:50:26Z</time>
      </trkpt>
      <trkpt lat="48.01933" lon="6.84029">
        <ele>806</ele>
        <time>2022-07-29T08:50:27Z</time>
      </trkpt>
      <trkpt lat="48.01939" lon="6.84034">
        <ele>805.4</ele>
        <time>2022-07-29T08:50:28Z</time>
      </trkpt>
      <trkpt lat="48.01945" lon="6.84039">
        <ele>804.6</ele>
        <time>2022-07-29T08:50:29Z</time>
      </trkpt>
      <trkpt lat="48.0195" lon="6.84043">
        <ele>804.2</ele>
        <time>2022-07-29T08:50:30Z</time>
      </trkpt>
      <trkpt lat="48.01954" lon="6.84047">
        <ele>804.2</ele>
        <time>2022-07-29T08:50:31Z</time>
      </trkpt>
      <trkpt lat="48.01957" lon="6.8405">
        <ele>804.2</ele>
        <time>2022-07-29T08:50:32Z</time>
      </trkpt>
      <trkpt lat="48.01959" lon="6.84053">
        <ele>804.2</ele>
        <time>2022-07-29T08:50:33Z</time>
      </trkpt>
      <trkpt lat="48.01961" lon="6.84056">
        <ele>804</ele>
        <time>2022-07-29T08:50:34Z</time>
      </trkpt>
      <trkpt lat="48.01963" lon="6.84057">
        <ele>804.2</ele>
        <time>2022-07-29T08:50:35Z</time>
      </trkpt>
      <trkpt lat="48.01964" lon="6.84059">
        <ele>804.8</ele>
        <time>2022-07-29T08:50:36Z</time>
      </trkpt>
      <trkpt lat="48.01966" lon="6.8406">
        <ele>805.2</ele>
        <time>2022-07-29T08:50:37Z</time>
      </trkpt>
      <trkpt lat="48.01967" lon="6.8406">
        <ele>805.4</ele>
        <time>2022-07-29T08:50:38Z</time>
      </trkpt>
      <trkpt lat="48.01968" lon="6.84061">
        <ele>805.6</ele>
        <time>2022-07-29T08:50:39Z</time>
      </trkpt>
      <trkpt lat="48.01968" lon="6.84061">
        <ele>805.8</ele>
        <time>2022-07-29T08:50:40Z</time>
      </trkpt>
      <trkpt lat="48.01968" lon="6.84062">
        <ele>806</ele>
        <time>2022-07-29T08:50:41Z</time>
      </trkpt>
      <trkpt lat="48.01969" lon="6.84064">
        <ele>806.2</ele>
        <time>2022-07-29T08:50:42Z</time>
      </trkpt>
      <trkpt lat="48.0197" lon="6.84064">
        <ele>806.6</ele>
        <time>2022-07-29T08:50:43Z</time>
      </trkpt>
      <trkpt lat="48.01971" lon="6.84066">
        <ele>806.6</ele>
        <time>2022-07-29T08:50:44Z</time>
      </trkpt>
      <trkpt lat="48.01972" lon="6.84068">
        <ele>806.8</ele>
        <time>2022-07-29T08:50:45Z</time>
      </trkpt>
      <trkpt lat="48.01973" lon="6.8407">
        <ele>807</ele>
        <time>2022-07-29T08:50:46Z</time>
      </trkpt>
      <trkpt lat="48.01974" lon="6.84072">
        <ele>807.4</ele>
        <time>2022-07-29T08:50:47Z</time>
      </trkpt>
      <trkpt lat="48.01975" lon="6.84076">
        <ele>807.8</ele>
        <time>2022-07-29T08:50:48Z</time>
      </trkpt>
      <trkpt lat="48.01976" lon="6.84078">
        <ele>808</ele>
        <time>2022-07-29T08:50:49Z</time>
      </trkpt>
      <trkpt lat="48.01977" lon="6.84083">
        <ele>808.4</ele>
        <time>2022-07-29T08:50:51Z</time>
      </trkpt>
      <trkpt lat="48.01979" lon="6.84085">
        <ele>808.6</ele>
        <time>2022-07-29T08:50:52Z</time>
      </trkpt>
      <trkpt lat="48.01981" lon="6.84091">
        <ele>809</ele>
        <time>2022-07-29T08:50:54Z</time>
      </trkpt>
      <trkpt lat="48.01982" lon="6.84094">
        <ele>809</ele>
        <time>2022-07-29T08:50:55Z</time>
      </trkpt>
      <trkpt lat="48.01983" lon="6.84096">
        <ele>809.2</ele>
        <time>2022-07-29T08:50:56Z</time>
      </trkpt>
      <trkpt lat="48.01983" lon="6.84097">
        <ele>809.4</ele>
        <time>2022-07-29T08:50:57Z</time>
      </trkpt>
      <trkpt lat="48.01984" lon="6.84099">
        <ele>809.6</ele>
        <time>2022-07-29T08:50:58Z</time>
      </trkpt>
      <trkpt lat="48.01985" lon="6.84104">
        <ele>810</ele>
        <time>2022-07-29T08:51:01Z</time>
      </trkpt>
      <trkpt lat="48.01986" lon="6.84104">
        <ele>810</ele>
        <time>2022-07-29T08:51:02Z</time>
      </trkpt>
      <trkpt lat="48.01986" lon="6.84104">
        <ele>810.4</ele>
        <time>2022-07-29T08:51:03Z</time>
      </trkpt>
      <trkpt lat="48.01986" lon="6.84104">
        <ele>810.6</ele>
        <time>2022-07-29T08:51:04Z</time>
      </trkpt>
      <trkpt lat="48.01987" lon="6.84105">
        <ele>811</ele>
        <time>2022-07-29T08:51:05Z</time>
      </trkpt>
      <trkpt lat="48.01988" lon="6.84106">
        <ele>811.2</ele>
        <time>2022-07-29T08:51:06Z</time>
      </trkpt>
      <trkpt lat="48.01989" lon="6.84107">
        <ele>811.2</ele>
        <time>2022-07-29T08:51:07Z</time>
      </trkpt>
      <trkpt lat="48.01989" lon="6.84108">
        <ele>811.4</ele>
        <time>2022-07-29T08:51:08Z</time>
      </trkpt>
      <trkpt lat="48.01991" lon="6.84109">
        <ele>811.4</ele>
        <time>2022-07-29T08:51:09Z</time>
      </trkpt>
      <trkpt lat="48.01992" lon="6.8411">
        <ele>811.6</ele>
        <time>2022-07-29T08:51:10Z</time>
      </trkpt>
      <trkpt lat="48.01993" lon="6.84111">
        <ele>811.8</ele>
        <time>2022-07-29T08:51:11Z</time>
      </trkpt>
      <trkpt lat="48.01994" lon="6.84112">
        <ele>812</ele>
        <time>2022-07-29T08:51:12Z</time>
      </trkpt>
      <trkpt lat="48.01996" lon="6.84113">
        <ele>812</ele>
        <time>2022-07-29T08:51:13Z</time>
      </trkpt>
      <trkpt lat="48.01998" lon="6.84114">
        <ele>812.2</ele>
        <time>2022-07-29T08:51:14Z</time>
      </trkpt>
      <trkpt lat="48.01999" lon="6.84115">
        <ele>812.2</ele>
        <time>2022-07-29T08:51:15Z</time>
      </trkpt>
      <trkpt lat="48.02" lon="6.84115">
        <ele>812.2</ele>
        <time>2022-07-29T08:51:16Z</time>
      </trkpt>
      <trkpt lat="48.02002" lon="6.84116">
        <ele>812.4</ele>
        <time>2022-07-29T08:51:17Z</time>
      </trkpt>
      <trkpt lat="48.02005" lon="6.84119">
        <ele>812.6</ele>
        <time>2022-07-29T08:51:18Z</time>
      </trkpt>
      <trkpt lat="48.02007" lon="6.8412">
        <ele>812.6</ele>
        <time>2022-07-29T08:51:19Z</time>
      </trkpt>
      <trkpt lat="48.02008" lon="6.8412">
        <ele>812.8</ele>
        <time>2022-07-29T08:51:20Z</time>
      </trkpt>
      <trkpt lat="48.02009" lon="6.8412">
        <ele>813.2</ele>
        <time>2022-07-29T08:51:21Z</time>
      </trkpt>
      <trkpt lat="48.0201" lon="6.84121">
        <ele>813.2</ele>
        <time>2022-07-29T08:51:22Z</time>
      </trkpt>
      <trkpt lat="48.02012" lon="6.84122">
        <ele>813.4</ele>
        <time>2022-07-29T08:51:23Z</time>
      </trkpt>
      <trkpt lat="48.02014" lon="6.84123">
        <ele>813.6</ele>
        <time>2022-07-29T08:51:24Z</time>
      </trkpt>
      <trkpt lat="48.02016" lon="6.84125">
        <ele>813.8</ele>
        <time>2022-07-29T08:51:25Z</time>
      </trkpt>
      <trkpt lat="48.02018" lon="6.84127">
        <ele>814.2</ele>
        <time>2022-07-29T08:51:26Z</time>
      </trkpt>
      <trkpt lat="48.0202" lon="6.84128">
        <ele>814.2</ele>
        <time>2022-07-29T08:51:27Z</time>
      </trkpt>
      <trkpt lat="48.02021" lon="6.84128">
        <ele>814.6</ele>
        <time>2022-07-29T08:51:28Z</time>
      </trkpt>
      <trkpt lat="48.02022" lon="6.84128">
        <ele>814.8</ele>
        <time>2022-07-29T08:51:29Z</time>
      </trkpt>
      <trkpt lat="48.02022" lon="6.84128">
        <ele>815</ele>
        <time>2022-07-29T08:51:30Z</time>
      </trkpt>
      <trkpt lat="48.02023" lon="6.84129">
        <ele>815</ele>
        <time>2022-07-29T08:51:31Z</time>
      </trkpt>
      <trkpt lat="48.02024" lon="6.8413">
        <ele>815.2</ele>
        <time>2022-07-29T08:51:32Z</time>
      </trkpt>
      <trkpt lat="48.02025" lon="6.84132">
        <ele>815.2</ele>
        <time>2022-07-29T08:51:33Z</time>
      </trkpt>
      <trkpt lat="48.02026" lon="6.84133">
        <ele>815.4</ele>
        <time>2022-07-29T08:51:34Z</time>
      </trkpt>
      <trkpt lat="48.02028" lon="6.84135">
        <ele>815.4</ele>
        <time>2022-07-29T08:51:35Z</time>
      </trkpt>
      <trkpt lat="48.02029" lon="6.84136">
        <ele>815.4</ele>
        <time>2022-07-29T08:51:36Z</time>
      </trkpt>
      <trkpt lat="48.0203" lon="6.84137">
        <ele>815.4</ele>
        <time>2022-07-29T08:51:37Z</time>
      </trkpt>
      <trkpt lat="48.02031" lon="6.84138">
        <ele>815.6</ele>
        <time>2022-07-29T08:51:38Z</time>
      </trkpt>
      <trkpt lat="48.02032" lon="6.84139">
        <ele>815.6</ele>
        <time>2022-07-29T08:51:39Z</time>
      </trkpt>
      <trkpt lat="48.02035" lon="6.84141">
        <ele>815.8</ele>
        <time>2022-07-29T08:51:40Z</time>
      </trkpt>
      <trkpt lat="48.02038" lon="6.84143">
        <ele>816</ele>
        <time>2022-07-29T08:51:41Z</time>
      </trkpt>
      <trkpt lat="48.0204" lon="6.84145">
        <ele>816.4</ele>
        <time>2022-07-29T08:51:42Z</time>
      </trkpt>
      <trkpt lat="48.02043" lon="6.84148">
        <ele>816.4</ele>
        <time>2022-07-29T08:51:43Z</time>
      </trkpt>
      <trkpt lat="48.02045" lon="6.84149">
        <ele>816.8</ele>
        <time>2022-07-29T08:51:44Z</time>
      </trkpt>
      <trkpt lat="48.02046" lon="6.8415">
        <ele>816.8</ele>
        <time>2022-07-29T08:51:45Z</time>
      </trkpt>
      <trkpt lat="48.02049" lon="6.84152">
        <ele>817</ele>
        <time>2022-07-29T08:51:46Z</time>
      </trkpt>
      <trkpt lat="48.0205" lon="6.84152">
        <ele>817</ele>
        <time>2022-07-29T08:51:47Z</time>
      </trkpt>
      <trkpt lat="48.0205" lon="6.84152">
        <ele>817.2</ele>
        <time>2022-07-29T08:51:48Z</time>
      </trkpt>
      <trkpt lat="48.02051" lon="6.84152">
        <ele>817.2</ele>
        <time>2022-07-29T08:51:49Z</time>
      </trkpt>
      <trkpt lat="48.02051" lon="6.84152">
        <ele>817.2</ele>
        <time>2022-07-29T08:51:50Z</time>
      </trkpt>
      <trkpt lat="48.02051" lon="6.84152">
        <ele>817.2</ele>
        <time>2022-07-29T08:51:51Z</time>
      </trkpt>
      <trkpt lat="48.02052" lon="6.84151">
        <ele>817.4</ele>
        <time>2022-07-29T08:51:52Z</time>
      </trkpt>
      <trkpt lat="48.02053" lon="6.84151">
        <ele>817.6</ele>
        <time>2022-07-29T08:51:53Z</time>
      </trkpt>
      <trkpt lat="48.02053" lon="6.84151">
        <ele>817.6</ele>
        <time>2022-07-29T08:51:54Z</time>
      </trkpt>
      <trkpt lat="48.02054" lon="6.84151">
        <ele>817.8</ele>
        <time>2022-07-29T08:51:55Z</time>
      </trkpt>
      <trkpt lat="48.02055" lon="6.8415">
        <ele>818</ele>
        <time>2022-07-29T08:51:56Z</time>
      </trkpt>
      <trkpt lat="48.02056" lon="6.8415">
        <ele>818.2</ele>
        <time>2022-07-29T08:51:57Z</time>
      </trkpt>
      <trkpt lat="48.02058" lon="6.8415">
        <ele>818.2</ele>
        <time>2022-07-29T08:51:58Z</time>
      </trkpt>
      <trkpt lat="48.0206" lon="6.84151">
        <ele>818.2</ele>
        <time>2022-07-29T08:51:59Z</time>
      </trkpt>
      <trkpt lat="48.02062" lon="6.84151">
        <ele>818.4</ele>
        <time>2022-07-29T08:52:00Z</time>
      </trkpt>
      <trkpt lat="48.02063" lon="6.8415">
        <ele>818.6</ele>
        <time>2022-07-29T08:52:01Z</time>
      </trkpt>
      <trkpt lat="48.02065" lon="6.8415">
        <ele>819</ele>
        <time>2022-07-29T08:52:02Z</time>
      </trkpt>
      <trkpt lat="48.02066" lon="6.84149">
        <ele>819.2</ele>
        <time>2022-07-29T08:52:03Z</time>
      </trkpt>
      <trkpt lat="48.02067" lon="6.84149">
        <ele>819.6</ele>
        <time>2022-07-29T08:52:04Z</time>
      </trkpt>
      <trkpt lat="48.02068" lon="6.84149">
        <ele>819.8</ele>
        <time>2022-07-29T08:52:05Z</time>
      </trkpt>
      <trkpt lat="48.0207" lon="6.8415">
        <ele>820</ele>
        <time>2022-07-29T08:52:06Z</time>
      </trkpt>
      <trkpt lat="48.02072" lon="6.84151">
        <ele>820</ele>
        <time>2022-07-29T08:52:07Z</time>
      </trkpt>
      <trkpt lat="48.02074" lon="6.84152">
        <ele>820.2</ele>
        <time>2022-07-29T08:52:08Z</time>
      </trkpt>
      <trkpt lat="48.02076" lon="6.84152">
        <ele>820.2</ele>
        <time>2022-07-29T08:52:09Z</time>
      </trkpt>
      <trkpt lat="48.02077" lon="6.84151">
        <ele>820.2</ele>
        <time>2022-07-29T08:52:10Z</time>
      </trkpt>
      <trkpt lat="48.02078" lon="6.84151">
        <ele>820.6</ele>
        <time>2022-07-29T08:52:11Z</time>
      </trkpt>
      <trkpt lat="48.0208" lon="6.8415">
        <ele>820.8</ele>
        <time>2022-07-29T08:52:12Z</time>
      </trkpt>
      <trkpt lat="48.02082" lon="6.84149">
        <ele>821</ele>
        <time>2022-07-29T08:52:13Z</time>
      </trkpt>
      <trkpt lat="48.02083" lon="6.84149">
        <ele>821.2</ele>
        <time>2022-07-29T08:52:14Z</time>
      </trkpt>
      <trkpt lat="48.02085" lon="6.84149">
        <ele>821.2</ele>
        <time>2022-07-29T08:52:15Z</time>
      </trkpt>
      <trkpt lat="48.02086" lon="6.84149">
        <ele>821.4</ele>
        <time>2022-07-29T08:52:16Z</time>
      </trkpt>
      <trkpt lat="48.02088" lon="6.84148">
        <ele>821.6</ele>
        <time>2022-07-29T08:52:17Z</time>
      </trkpt>
      <trkpt lat="48.02089" lon="6.84149">
        <ele>821.8</ele>
        <time>2022-07-29T08:52:18Z</time>
      </trkpt>
      <trkpt lat="48.0209" lon="6.84149">
        <ele>822</ele>
        <time>2022-07-29T08:52:19Z</time>
      </trkpt>
      <trkpt lat="48.02093" lon="6.8415">
        <ele>822</ele>
        <time>2022-07-29T08:52:20Z</time>
      </trkpt>
      <trkpt lat="48.02096" lon="6.84151">
        <ele>822.2</ele>
        <time>2022-07-29T08:52:21Z</time>
      </trkpt>
      <trkpt lat="48.02098" lon="6.8415">
        <ele>822.2</ele>
        <time>2022-07-29T08:52:22Z</time>
      </trkpt>
      <trkpt lat="48.02099" lon="6.84149">
        <ele>822.2</ele>
        <time>2022-07-29T08:52:23Z</time>
      </trkpt>
      <trkpt lat="48.02101" lon="6.84148">
        <ele>822.4</ele>
        <time>2022-07-29T08:52:24Z</time>
      </trkpt>
      <trkpt lat="48.02102" lon="6.84148">
        <ele>822.6</ele>
        <time>2022-07-29T08:52:25Z</time>
      </trkpt>
      <trkpt lat="48.02102" lon="6.84148">
        <ele>822.6</ele>
        <time>2022-07-29T08:52:26Z</time>
      </trkpt>
      <trkpt lat="48.02102" lon="6.84148">
        <ele>822.8</ele>
        <time>2022-07-29T08:52:27Z</time>
      </trkpt>
      <trkpt lat="48.02104" lon="6.84148">
        <ele>823</ele>
        <time>2022-07-29T08:52:29Z</time>
      </trkpt>
      <trkpt lat="48.02105" lon="6.84147">
        <ele>822.8</ele>
        <time>2022-07-29T08:52:30Z</time>
      </trkpt>
      <trkpt lat="48.02106" lon="6.84147">
        <ele>823.4</ele>
        <time>2022-07-29T08:52:31Z</time>
      </trkpt>
      <trkpt lat="48.02107" lon="6.84147">
        <ele>823.4</ele>
        <time>2022-07-29T08:52:32Z</time>
      </trkpt>
      <trkpt lat="48.02108" lon="6.84147">
        <ele>823.4</ele>
        <time>2022-07-29T08:52:33Z</time>
      </trkpt>
      <trkpt lat="48.02109" lon="6.84147">
        <ele>823.6</ele>
        <time>2022-07-29T08:52:34Z</time>
      </trkpt>
      <trkpt lat="48.0211" lon="6.84146">
        <ele>823.6</ele>
        <time>2022-07-29T08:52:35Z</time>
      </trkpt>
      <trkpt lat="48.02111" lon="6.84146">
        <ele>824</ele>
        <time>2022-07-29T08:52:36Z</time>
      </trkpt>
      <trkpt lat="48.02112" lon="6.84146">
        <ele>824</ele>
        <time>2022-07-29T08:52:37Z</time>
      </trkpt>
      <trkpt lat="48.02113" lon="6.84144">
        <ele>824.2</ele>
        <time>2022-07-29T08:52:38Z</time>
      </trkpt>
      <trkpt lat="48.02115" lon="6.84143">
        <ele>824.2</ele>
        <time>2022-07-29T08:52:39Z</time>
      </trkpt>
      <trkpt lat="48.02116" lon="6.84142">
        <ele>824.6</ele>
        <time>2022-07-29T08:52:40Z</time>
      </trkpt>
      <trkpt lat="48.02117" lon="6.8414">
        <ele>824.6</ele>
        <time>2022-07-29T08:52:41Z</time>
      </trkpt>
      <trkpt lat="48.02119" lon="6.84139">
        <ele>824.8</ele>
        <time>2022-07-29T08:52:42Z</time>
      </trkpt>
      <trkpt lat="48.0212" lon="6.84138">
        <ele>824.8</ele>
        <time>2022-07-29T08:52:43Z</time>
      </trkpt>
      <trkpt lat="48.02122" lon="6.84138">
        <ele>824.8</ele>
        <time>2022-07-29T08:52:44Z</time>
      </trkpt>
      <trkpt lat="48.02124" lon="6.84136">
        <ele>825</ele>
        <time>2022-07-29T08:52:45Z</time>
      </trkpt>
      <trkpt lat="48.02126" lon="6.84135">
        <ele>825.2</ele>
        <time>2022-07-29T08:52:46Z</time>
      </trkpt>
      <trkpt lat="48.02127" lon="6.84135">
        <ele>825.4</ele>
        <time>2022-07-29T08:52:47Z</time>
      </trkpt>
      <trkpt lat="48.0213" lon="6.84137">
        <ele>825.4</ele>
        <time>2022-07-29T08:52:48Z</time>
      </trkpt>
      <trkpt lat="48.02131" lon="6.84136">
        <ele>825.8</ele>
        <time>2022-07-29T08:52:49Z</time>
      </trkpt>
      <trkpt lat="48.02133" lon="6.84136">
        <ele>825.8</ele>
        <time>2022-07-29T08:52:50Z</time>
      </trkpt>
      <trkpt lat="48.02135" lon="6.84135">
        <ele>826</ele>
        <time>2022-07-29T08:52:51Z</time>
      </trkpt>
      <trkpt lat="48.02136" lon="6.84134">
        <ele>826.2</ele>
        <time>2022-07-29T08:52:52Z</time>
      </trkpt>
      <trkpt lat="48.02137" lon="6.84133">
        <ele>826.4</ele>
        <time>2022-07-29T08:52:53Z</time>
      </trkpt>
      <trkpt lat="48.02139" lon="6.84131">
        <ele>826.6</ele>
        <time>2022-07-29T08:52:54Z</time>
      </trkpt>
      <trkpt lat="48.02141" lon="6.8413">
        <ele>826.8</ele>
        <time>2022-07-29T08:52:55Z</time>
      </trkpt>
      <trkpt lat="48.02143" lon="6.8413">
        <ele>827</ele>
        <time>2022-07-29T08:52:56Z</time>
      </trkpt>
      <trkpt lat="48.02145" lon="6.8413">
        <ele>827.2</ele>
        <time>2022-07-29T08:52:57Z</time>
      </trkpt>
      <trkpt lat="48.02146" lon="6.84128">
        <ele>827.4</ele>
        <time>2022-07-29T08:52:58Z</time>
      </trkpt>
      <trkpt lat="48.02148" lon="6.84128">
        <ele>827.4</ele>
        <time>2022-07-29T08:52:59Z</time>
      </trkpt>
      <trkpt lat="48.02149" lon="6.84128">
        <ele>827.4</ele>
        <time>2022-07-29T08:53:00Z</time>
      </trkpt>
      <trkpt lat="48.0215" lon="6.84128">
        <ele>827.6</ele>
        <time>2022-07-29T08:53:01Z</time>
      </trkpt>
      <trkpt lat="48.02152" lon="6.84127">
        <ele>827.6</ele>
        <time>2022-07-29T08:53:02Z</time>
      </trkpt>
      <trkpt lat="48.02154" lon="6.84126">
        <ele>827.6</ele>
        <time>2022-07-29T08:53:03Z</time>
      </trkpt>
      <trkpt lat="48.02155" lon="6.84125">
        <ele>827.8</ele>
        <time>2022-07-29T08:53:04Z</time>
      </trkpt>
      <trkpt lat="48.02157" lon="6.84124">
        <ele>828</ele>
        <time>2022-07-29T08:53:05Z</time>
      </trkpt>
      <trkpt lat="48.02158" lon="6.84124">
        <ele>828.2</ele>
        <time>2022-07-29T08:53:06Z</time>
      </trkpt>
      <trkpt lat="48.0216" lon="6.84124">
        <ele>828.4</ele>
        <time>2022-07-29T08:53:07Z</time>
      </trkpt>
      <trkpt lat="48.02161" lon="6.84124">
        <ele>828.6</ele>
        <time>2022-07-29T08:53:08Z</time>
      </trkpt>
      <trkpt lat="48.02163" lon="6.84122">
        <ele>828.6</ele>
        <time>2022-07-29T08:53:09Z</time>
      </trkpt>
      <trkpt lat="48.02164" lon="6.84121">
        <ele>828.8</ele>
        <time>2022-07-29T08:53:10Z</time>
      </trkpt>
      <trkpt lat="48.02165" lon="6.8412">
        <ele>828.8</ele>
        <time>2022-07-29T08:53:11Z</time>
      </trkpt>
      <trkpt lat="48.02167" lon="6.84119">
        <ele>829</ele>
        <time>2022-07-29T08:53:12Z</time>
      </trkpt>
      <trkpt lat="48.02168" lon="6.84117">
        <ele>829</ele>
        <time>2022-07-29T08:53:13Z</time>
      </trkpt>
      <trkpt lat="48.0217" lon="6.84117">
        <ele>829</ele>
        <time>2022-07-29T08:53:14Z</time>
      </trkpt>
      <trkpt lat="48.02172" lon="6.84115">
        <ele>829</ele>
        <time>2022-07-29T08:53:15Z</time>
      </trkpt>
      <trkpt lat="48.02173" lon="6.84114">
        <ele>829</ele>
        <time>2022-07-29T08:53:16Z</time>
      </trkpt>
      <trkpt lat="48.02174" lon="6.84113">
        <ele>829.2</ele>
        <time>2022-07-29T08:53:17Z</time>
      </trkpt>
      <trkpt lat="48.02176" lon="6.84111">
        <ele>829.4</ele>
        <time>2022-07-29T08:53:18Z</time>
      </trkpt>
      <trkpt lat="48.02177" lon="6.84111">
        <ele>829.6</ele>
        <time>2022-07-29T08:53:19Z</time>
      </trkpt>
      <trkpt lat="48.02178" lon="6.8411">
        <ele>829.8</ele>
        <time>2022-07-29T08:53:20Z</time>
      </trkpt>
      <trkpt lat="48.02179" lon="6.84108">
        <ele>830</ele>
        <time>2022-07-29T08:53:21Z</time>
      </trkpt>
      <trkpt lat="48.02181" lon="6.84106">
        <ele>830</ele>
        <time>2022-07-29T08:53:22Z</time>
      </trkpt>
      <trkpt lat="48.02182" lon="6.84105">
        <ele>830.2</ele>
        <time>2022-07-29T08:53:23Z</time>
      </trkpt>
      <trkpt lat="48.02183" lon="6.84104">
        <ele>830.2</ele>
        <time>2022-07-29T08:53:24Z</time>
      </trkpt>
      <trkpt lat="48.02185" lon="6.84102">
        <ele>830.4</ele>
        <time>2022-07-29T08:53:25Z</time>
      </trkpt>
      <trkpt lat="48.02185" lon="6.84101">
        <ele>830.6</ele>
        <time>2022-07-29T08:53:26Z</time>
      </trkpt>
      <trkpt lat="48.02186" lon="6.84099">
        <ele>830.6</ele>
        <time>2022-07-29T08:53:27Z</time>
      </trkpt>
      <trkpt lat="48.02187" lon="6.84097">
        <ele>830.8</ele>
        <time>2022-07-29T08:53:28Z</time>
      </trkpt>
      <trkpt lat="48.02188" lon="6.84096">
        <ele>830.8</ele>
        <time>2022-07-29T08:53:29Z</time>
      </trkpt>
      <trkpt lat="48.02189" lon="6.84095">
        <ele>831</ele>
        <time>2022-07-29T08:53:30Z</time>
      </trkpt>
      <trkpt lat="48.0219" lon="6.84093">
        <ele>831</ele>
        <time>2022-07-29T08:53:31Z</time>
      </trkpt>
      <trkpt lat="48.02191" lon="6.84091">
        <ele>831</ele>
        <time>2022-07-29T08:53:32Z</time>
      </trkpt>
      <trkpt lat="48.02192" lon="6.84089">
        <ele>831.2</ele>
        <time>2022-07-29T08:53:33Z</time>
      </trkpt>
      <trkpt lat="48.02192" lon="6.84087">
        <ele>831.2</ele>
        <time>2022-07-29T08:53:34Z</time>
      </trkpt>
      <trkpt lat="48.02194" lon="6.84086">
        <ele>831.6</ele>
        <time>2022-07-29T08:53:35Z</time>
      </trkpt>
      <trkpt lat="48.02196" lon="6.84085">
        <ele>831.8</ele>
        <time>2022-07-29T08:53:36Z</time>
      </trkpt>
      <trkpt lat="48.02196" lon="6.84083">
        <ele>832</ele>
        <time>2022-07-29T08:53:37Z</time>
      </trkpt>
      <trkpt lat="48.02198" lon="6.84081">
        <ele>832.2</ele>
        <time>2022-07-29T08:53:38Z</time>
      </trkpt>
      <trkpt lat="48.02199" lon="6.8408">
        <ele>832.6</ele>
        <time>2022-07-29T08:53:39Z</time>
      </trkpt>
      <trkpt lat="48.022" lon="6.84079">
        <ele>832.8</ele>
        <time>2022-07-29T08:53:40Z</time>
      </trkpt>
      <trkpt lat="48.02201" lon="6.84077">
        <ele>832.8</ele>
        <time>2022-07-29T08:53:41Z</time>
      </trkpt>
      <trkpt lat="48.02202" lon="6.84076">
        <ele>833</ele>
        <time>2022-07-29T08:53:42Z</time>
      </trkpt>
      <trkpt lat="48.02203" lon="6.84074">
        <ele>833</ele>
        <time>2022-07-29T08:53:43Z</time>
      </trkpt>
      <trkpt lat="48.02204" lon="6.84072">
        <ele>833</ele>
        <time>2022-07-29T08:53:44Z</time>
      </trkpt>
      <trkpt lat="48.02205" lon="6.8407">
        <ele>833.2</ele>
        <time>2022-07-29T08:53:45Z</time>
      </trkpt>
      <trkpt lat="48.02206" lon="6.84069">
        <ele>833.2</ele>
        <time>2022-07-29T08:53:46Z</time>
      </trkpt>
      <trkpt lat="48.02207" lon="6.84067">
        <ele>833.2</ele>
        <time>2022-07-29T08:53:47Z</time>
      </trkpt>
      <trkpt lat="48.02208" lon="6.84067">
        <ele>833.4</ele>
        <time>2022-07-29T08:53:48Z</time>
      </trkpt>
      <trkpt lat="48.02209" lon="6.84065">
        <ele>833.4</ele>
        <time>2022-07-29T08:53:49Z</time>
      </trkpt>
      <trkpt lat="48.0221" lon="6.84064">
        <ele>833.6</ele>
        <time>2022-07-29T08:53:50Z</time>
      </trkpt>
      <trkpt lat="48.02211" lon="6.84063">
        <ele>833.6</ele>
        <time>2022-07-29T08:53:51Z</time>
      </trkpt>
      <trkpt lat="48.02211" lon="6.84063">
        <ele>834</ele>
        <time>2022-07-29T08:53:52Z</time>
      </trkpt>
      <trkpt lat="48.02211" lon="6.84063">
        <ele>834</ele>
        <time>2022-07-29T08:53:53Z</time>
      </trkpt>
      <trkpt lat="48.02211" lon="6.84063">
        <ele>834.2</ele>
        <time>2022-07-29T08:53:54Z</time>
      </trkpt>
      <trkpt lat="48.02212" lon="6.84062">
        <ele>834.8</ele>
        <time>2022-07-29T08:54:05Z</time>
      </trkpt>
      <trkpt lat="48.02214" lon="6.84061">
        <ele>834.8</ele>
        <time>2022-07-29T08:54:06Z</time>
      </trkpt>
      <trkpt lat="48.02215" lon="6.8406">
        <ele>834.8</ele>
        <time>2022-07-29T08:54:07Z</time>
      </trkpt>
      <trkpt lat="48.02216" lon="6.84059">
        <ele>834.8</ele>
        <time>2022-07-29T08:54:08Z</time>
      </trkpt>
      <trkpt lat="48.02217" lon="6.84057">
        <ele>834.8</ele>
        <time>2022-07-29T08:54:09Z</time>
      </trkpt>
      <trkpt lat="48.0222" lon="6.84056">
        <ele>835</ele>
        <time>2022-07-29T08:54:11Z</time>
      </trkpt>
      <trkpt lat="48.02222" lon="6.84055">
        <ele>835</ele>
        <time>2022-07-29T08:54:12Z</time>
      </trkpt>
      <trkpt lat="48.02223" lon="6.84054">
        <ele>835</ele>
        <time>2022-07-29T08:54:13Z</time>
      </trkpt>
      <trkpt lat="48.02224" lon="6.84052">
        <ele>835.2</ele>
        <time>2022-07-29T08:54:14Z</time>
      </trkpt>
      <trkpt lat="48.02227" lon="6.8405">
        <ele>835.4</ele>
        <time>2022-07-29T08:54:16Z</time>
      </trkpt>
      <trkpt lat="48.02228" lon="6.84049">
        <ele>835.6</ele>
        <time>2022-07-29T08:54:17Z</time>
      </trkpt>
      <trkpt lat="48.02232" lon="6.84044">
        <ele>836</ele>
        <time>2022-07-29T08:54:20Z</time>
      </trkpt>
      <trkpt lat="48.02233" lon="6.84042">
        <ele>836</ele>
        <time>2022-07-29T08:54:21Z</time>
      </trkpt>
      <trkpt lat="48.02235" lon="6.84038">
        <ele>836.4</ele>
        <time>2022-07-29T08:54:23Z</time>
      </trkpt>
      <trkpt lat="48.02237" lon="6.84036">
        <ele>836.6</ele>
        <time>2022-07-29T08:54:24Z</time>
      </trkpt>
      <trkpt lat="48.0224" lon="6.84032">
        <ele>837</ele>
        <time>2022-07-29T08:54:26Z</time>
      </trkpt>
      <trkpt lat="48.02241" lon="6.84031">
        <ele>837</ele>
        <time>2022-07-29T08:54:27Z</time>
      </trkpt>
      <trkpt lat="48.02243" lon="6.8403">
        <ele>837.2</ele>
        <time>2022-07-29T08:54:28Z</time>
      </trkpt>
      <trkpt lat="48.02244" lon="6.84029">
        <ele>837.4</ele>
        <time>2022-07-29T08:54:29Z</time>
      </trkpt>
      <trkpt lat="48.02246" lon="6.84028">
        <ele>837.4</ele>
        <time>2022-07-29T08:54:30Z</time>
      </trkpt>
      <trkpt lat="48.02249" lon="6.84027">
        <ele>837.4</ele>
        <time>2022-07-29T08:54:31Z</time>
      </trkpt>
      <trkpt lat="48.02251" lon="6.84026">
        <ele>837.4</ele>
        <time>2022-07-29T08:54:32Z</time>
      </trkpt>
      <trkpt lat="48.02252" lon="6.84024">
        <ele>837.6</ele>
        <time>2022-07-29T08:54:33Z</time>
      </trkpt>
      <trkpt lat="48.02254" lon="6.84022">
        <ele>837.6</ele>
        <time>2022-07-29T08:54:34Z</time>
      </trkpt>
      <trkpt lat="48.02256" lon="6.84018">
        <ele>837.8</ele>
        <time>2022-07-29T08:54:35Z</time>
      </trkpt>
      <trkpt lat="48.02257" lon="6.84016">
        <ele>837.8</ele>
        <time>2022-07-29T08:54:36Z</time>
      </trkpt>
      <trkpt lat="48.02259" lon="6.84014">
        <ele>838</ele>
        <time>2022-07-29T08:54:37Z</time>
      </trkpt>
      <trkpt lat="48.02261" lon="6.84013">
        <ele>838.2</ele>
        <time>2022-07-29T08:54:38Z</time>
      </trkpt>
      <trkpt lat="48.02263" lon="6.84013">
        <ele>838.2</ele>
        <time>2022-07-29T08:54:39Z</time>
      </trkpt>
      <trkpt lat="48.02264" lon="6.84011">
        <ele>838.4</ele>
        <time>2022-07-29T08:54:40Z</time>
      </trkpt>
      <trkpt lat="48.02266" lon="6.8401">
        <ele>838.4</ele>
        <time>2022-07-29T08:54:41Z</time>
      </trkpt>
      <trkpt lat="48.02268" lon="6.8401">
        <ele>838.6</ele>
        <time>2022-07-29T08:54:42Z</time>
      </trkpt>
      <trkpt lat="48.0227" lon="6.84009">
        <ele>838.6</ele>
        <time>2022-07-29T08:54:43Z</time>
      </trkpt>
      <trkpt lat="48.02271" lon="6.84007">
        <ele>838.8</ele>
        <time>2022-07-29T08:54:44Z</time>
      </trkpt>
      <trkpt lat="48.02274" lon="6.84005">
        <ele>838.8</ele>
        <time>2022-07-29T08:54:45Z</time>
      </trkpt>
      <trkpt lat="48.02277" lon="6.84002">
        <ele>838.8</ele>
        <time>2022-07-29T08:54:46Z</time>
      </trkpt>
      <trkpt lat="48.02282" lon="6.83998">
        <ele>839</ele>
        <time>2022-07-29T08:54:47Z</time>
      </trkpt>
      <trkpt lat="48.02283" lon="6.83997">
        <ele>839</ele>
        <time>2022-07-29T08:54:48Z</time>
      </trkpt>
      <trkpt lat="48.02285" lon="6.83995">
        <ele>839.2</ele>
        <time>2022-07-29T08:54:49Z</time>
      </trkpt>
      <trkpt lat="48.02287" lon="6.83994">
        <ele>839.2</ele>
        <time>2022-07-29T08:54:50Z</time>
      </trkpt>
      <trkpt lat="48.02288" lon="6.83992">
        <ele>839.6</ele>
        <time>2022-07-29T08:54:51Z</time>
      </trkpt>
      <trkpt lat="48.02289" lon="6.83991">
        <ele>839.6</ele>
        <time>2022-07-29T08:54:52Z</time>
      </trkpt>
      <trkpt lat="48.02291" lon="6.83988">
        <ele>840</ele>
        <time>2022-07-29T08:54:53Z</time>
      </trkpt>
      <trkpt lat="48.02292" lon="6.83987">
        <ele>840</ele>
        <time>2022-07-29T08:54:54Z</time>
      </trkpt>
      <trkpt lat="48.02294" lon="6.83986">
        <ele>840.4</ele>
        <time>2022-07-29T08:54:55Z</time>
      </trkpt>
      <trkpt lat="48.02295" lon="6.83985">
        <ele>840.6</ele>
        <time>2022-07-29T08:54:56Z</time>
      </trkpt>
      <trkpt lat="48.02296" lon="6.83984">
        <ele>840.6</ele>
        <time>2022-07-29T08:54:57Z</time>
      </trkpt>
      <trkpt lat="48.02297" lon="6.83983">
        <ele>840.8</ele>
        <time>2022-07-29T08:54:58Z</time>
      </trkpt>
      <trkpt lat="48.02299" lon="6.83981">
        <ele>840.8</ele>
        <time>2022-07-29T08:54:59Z</time>
      </trkpt>
      <trkpt lat="48.02301" lon="6.8398">
        <ele>840.8</ele>
        <time>2022-07-29T08:55:00Z</time>
      </trkpt>
      <trkpt lat="48.02302" lon="6.83978">
        <ele>841</ele>
        <time>2022-07-29T08:55:01Z</time>
      </trkpt>
      <trkpt lat="48.02304" lon="6.83976">
        <ele>841</ele>
        <time>2022-07-29T08:55:02Z</time>
      </trkpt>
      <trkpt lat="48.02305" lon="6.83974">
        <ele>841.2</ele>
        <time>2022-07-29T08:55:03Z</time>
      </trkpt>
      <trkpt lat="48.02306" lon="6.83972">
        <ele>841.4</ele>
        <time>2022-07-29T08:55:04Z</time>
      </trkpt>
      <trkpt lat="48.02308" lon="6.8397">
        <ele>841.4</ele>
        <time>2022-07-29T08:55:05Z</time>
      </trkpt>
      <trkpt lat="48.02309" lon="6.83969">
        <ele>841.6</ele>
        <time>2022-07-29T08:55:06Z</time>
      </trkpt>
      <trkpt lat="48.0231" lon="6.83967">
        <ele>841.8</ele>
        <time>2022-07-29T08:55:07Z</time>
      </trkpt>
      <trkpt lat="48.02312" lon="6.83965">
        <ele>841.8</ele>
        <time>2022-07-29T08:55:08Z</time>
      </trkpt>
      <trkpt lat="48.02313" lon="6.83963">
        <ele>842</ele>
        <time>2022-07-29T08:55:09Z</time>
      </trkpt>
      <trkpt lat="48.02315" lon="6.83962">
        <ele>842</ele>
        <time>2022-07-29T08:55:10Z</time>
      </trkpt>
      <trkpt lat="48.02317" lon="6.8396">
        <ele>842.2</ele>
        <time>2022-07-29T08:55:11Z</time>
      </trkpt>
      <trkpt lat="48.02318" lon="6.83957">
        <ele>842.4</ele>
        <time>2022-07-29T08:55:12Z</time>
      </trkpt>
      <trkpt lat="48.02319" lon="6.83954">
        <ele>842.4</ele>
        <time>2022-07-29T08:55:13Z</time>
      </trkpt>
      <trkpt lat="48.02321" lon="6.83953">
        <ele>842.6</ele>
        <time>2022-07-29T08:55:14Z</time>
      </trkpt>
      <trkpt lat="48.02323" lon="6.83951">
        <ele>842.8</ele>
        <time>2022-07-29T08:55:15Z</time>
      </trkpt>
      <trkpt lat="48.02324" lon="6.83949">
        <ele>842.8</ele>
        <time>2022-07-29T08:55:16Z</time>
      </trkpt>
      <trkpt lat="48.02326" lon="6.83947">
        <ele>842.8</ele>
        <time>2022-07-29T08:55:17Z</time>
      </trkpt>
      <trkpt lat="48.02328" lon="6.83945">
        <ele>843</ele>
        <time>2022-07-29T08:55:18Z</time>
      </trkpt>
      <trkpt lat="48.0233" lon="6.83944">
        <ele>843</ele>
        <time>2022-07-29T08:55:19Z</time>
      </trkpt>
      <trkpt lat="48.02331" lon="6.83943">
        <ele>843</ele>
        <time>2022-07-29T08:55:20Z</time>
      </trkpt>
      <trkpt lat="48.02333" lon="6.83941">
        <ele>843.2</ele>
        <time>2022-07-29T08:55:21Z</time>
      </trkpt>
      <trkpt lat="48.02334" lon="6.83938">
        <ele>843.2</ele>
        <time>2022-07-29T08:55:22Z</time>
      </trkpt>
      <trkpt lat="48.02337" lon="6.83937">
        <ele>843.2</ele>
        <time>2022-07-29T08:55:23Z</time>
      </trkpt>
      <trkpt lat="48.0234" lon="6.83935">
        <ele>843.4</ele>
        <time>2022-07-29T08:55:24Z</time>
      </trkpt>
      <trkpt lat="48.02342" lon="6.83933">
        <ele>843.6</ele>
        <time>2022-07-29T08:55:25Z</time>
      </trkpt>
      <trkpt lat="48.02344" lon="6.83932">
        <ele>843.4</ele>
        <time>2022-07-29T08:55:26Z</time>
      </trkpt>
      <trkpt lat="48.02345" lon="6.8393">
        <ele>843.6</ele>
        <time>2022-07-29T08:55:27Z</time>
      </trkpt>
      <trkpt lat="48.02347" lon="6.83928">
        <ele>843.6</ele>
        <time>2022-07-29T08:55:28Z</time>
      </trkpt>
      <trkpt lat="48.02349" lon="6.83928">
        <ele>843.8</ele>
        <time>2022-07-29T08:55:29Z</time>
      </trkpt>
      <trkpt lat="48.02351" lon="6.83927">
        <ele>844</ele>
        <time>2022-07-29T08:55:30Z</time>
      </trkpt>
      <trkpt lat="48.02353" lon="6.83926">
        <ele>844</ele>
        <time>2022-07-29T08:55:31Z</time>
      </trkpt>
      <trkpt lat="48.02355" lon="6.83924">
        <ele>844.2</ele>
        <time>2022-07-29T08:55:32Z</time>
      </trkpt>
      <trkpt lat="48.02357" lon="6.83923">
        <ele>844.2</ele>
        <time>2022-07-29T08:55:33Z</time>
      </trkpt>
      <trkpt lat="48.02359" lon="6.83921">
        <ele>844.4</ele>
        <time>2022-07-29T08:55:34Z</time>
      </trkpt>
      <trkpt lat="48.02362" lon="6.83918">
        <ele>844.4</ele>
        <time>2022-07-29T08:55:35Z</time>
      </trkpt>
      <trkpt lat="48.02364" lon="6.83917">
        <ele>844.6</ele>
        <time>2022-07-29T08:55:36Z</time>
      </trkpt>
      <trkpt lat="48.02366" lon="6.83918">
        <ele>844.6</ele>
        <time>2022-07-29T08:55:37Z</time>
      </trkpt>
      <trkpt lat="48.02368" lon="6.83917">
        <ele>844.6</ele>
        <time>2022-07-29T08:55:38Z</time>
      </trkpt>
      <trkpt lat="48.02368" lon="6.83914">
        <ele>844.6</ele>
        <time>2022-07-29T08:55:39Z</time>
      </trkpt>
      <trkpt lat="48.0237" lon="6.83914">
        <ele>844.8</ele>
        <time>2022-07-29T08:55:40Z</time>
      </trkpt>
      <trkpt lat="48.02373" lon="6.83914">
        <ele>845</ele>
        <time>2022-07-29T08:55:41Z</time>
      </trkpt>
      <trkpt lat="48.02376" lon="6.83911">
        <ele>845.2</ele>
        <time>2022-07-29T08:55:42Z</time>
      </trkpt>
      <trkpt lat="48.02379" lon="6.83909">
        <ele>845.4</ele>
        <time>2022-07-29T08:55:43Z</time>
      </trkpt>
      <trkpt lat="48.02381" lon="6.83906">
        <ele>845.6</ele>
        <time>2022-07-29T08:55:44Z</time>
      </trkpt>
      <trkpt lat="48.02383" lon="6.83905">
        <ele>845.8</ele>
        <time>2022-07-29T08:55:45Z</time>
      </trkpt>
      <trkpt lat="48.02385" lon="6.83904">
        <ele>845.8</ele>
        <time>2022-07-29T08:55:46Z</time>
      </trkpt>
      <trkpt lat="48.02387" lon="6.83902">
        <ele>846</ele>
        <time>2022-07-29T08:55:47Z</time>
      </trkpt>
      <trkpt lat="48.02389" lon="6.83901">
        <ele>846.2</ele>
        <time>2022-07-29T08:55:48Z</time>
      </trkpt>
      <trkpt lat="48.0239" lon="6.839">
        <ele>846.2</ele>
        <time>2022-07-29T08:55:49Z</time>
      </trkpt>
      <trkpt lat="48.02392" lon="6.83899">
        <ele>846.4</ele>
        <time>2022-07-29T08:55:50Z</time>
      </trkpt>
      <trkpt lat="48.02392" lon="6.83899">
        <ele>846.4</ele>
        <time>2022-07-29T08:55:51Z</time>
      </trkpt>
      <trkpt lat="48.02394" lon="6.83896">
        <ele>846.4</ele>
        <time>2022-07-29T08:55:52Z</time>
      </trkpt>
      <trkpt lat="48.02395" lon="6.83895">
        <ele>846.4</ele>
        <time>2022-07-29T08:55:53Z</time>
      </trkpt>
      <trkpt lat="48.02397" lon="6.83892">
        <ele>846.6</ele>
        <time>2022-07-29T08:55:54Z</time>
      </trkpt>
      <trkpt lat="48.02399" lon="6.83891">
        <ele>846.6</ele>
        <time>2022-07-29T08:55:55Z</time>
      </trkpt>
      <trkpt lat="48.024" lon="6.83891">
        <ele>846.6</ele>
        <time>2022-07-29T08:55:56Z</time>
      </trkpt>
      <trkpt lat="48.02402" lon="6.8389">
        <ele>846.6</ele>
        <time>2022-07-29T08:55:57Z</time>
      </trkpt>
      <trkpt lat="48.02403" lon="6.83889">
        <ele>846.6</ele>
        <time>2022-07-29T08:55:58Z</time>
      </trkpt>
      <trkpt lat="48.02404" lon="6.83888">
        <ele>846.8</ele>
        <time>2022-07-29T08:55:59Z</time>
      </trkpt>
      <trkpt lat="48.02406" lon="6.83887">
        <ele>847</ele>
        <time>2022-07-29T08:56:00Z</time>
      </trkpt>
      <trkpt lat="48.02407" lon="6.83886">
        <ele>847.2</ele>
        <time>2022-07-29T08:56:01Z</time>
      </trkpt>
      <trkpt lat="48.02408" lon="6.83886">
        <ele>847.2</ele>
        <time>2022-07-29T08:56:02Z</time>
      </trkpt>
      <trkpt lat="48.0241" lon="6.83885">
        <ele>847.4</ele>
        <time>2022-07-29T08:56:03Z</time>
      </trkpt>
      <trkpt lat="48.02412" lon="6.83884">
        <ele>847.6</ele>
        <time>2022-07-29T08:56:04Z</time>
      </trkpt>
      <trkpt lat="48.02414" lon="6.83882">
        <ele>847.6</ele>
        <time>2022-07-29T08:56:05Z</time>
      </trkpt>
      <trkpt lat="48.02416" lon="6.83881">
        <ele>847.8</ele>
        <time>2022-07-29T08:56:06Z</time>
      </trkpt>
      <trkpt lat="48.02418" lon="6.8388">
        <ele>848</ele>
        <time>2022-07-29T08:56:07Z</time>
      </trkpt>
      <trkpt lat="48.02419" lon="6.8388">
        <ele>848.2</ele>
        <time>2022-07-29T08:56:08Z</time>
      </trkpt>
      <trkpt lat="48.02423" lon="6.83878">
        <ele>848.2</ele>
        <time>2022-07-29T08:56:09Z</time>
      </trkpt>
      <trkpt lat="48.02425" lon="6.83877">
        <ele>848.4</ele>
        <time>2022-07-29T08:56:10Z</time>
      </trkpt>
      <trkpt lat="48.02426" lon="6.83875">
        <ele>848.4</ele>
        <time>2022-07-29T08:56:11Z</time>
      </trkpt>
      <trkpt lat="48.02427" lon="6.83875">
        <ele>848.4</ele>
        <time>2022-07-29T08:56:12Z</time>
      </trkpt>
      <trkpt lat="48.02429" lon="6.83874">
        <ele>848.4</ele>
        <time>2022-07-29T08:56:13Z</time>
      </trkpt>
      <trkpt lat="48.02432" lon="6.83874">
        <ele>848.6</ele>
        <time>2022-07-29T08:56:14Z</time>
      </trkpt>
      <trkpt lat="48.02435" lon="6.83873">
        <ele>848.8</ele>
        <time>2022-07-29T08:56:15Z</time>
      </trkpt>
      <trkpt lat="48.02436" lon="6.83873">
        <ele>848.8</ele>
        <time>2022-07-29T08:56:16Z</time>
      </trkpt>
      <trkpt lat="48.02439" lon="6.83873">
        <ele>849</ele>
        <time>2022-07-29T08:56:17Z</time>
      </trkpt>
      <trkpt lat="48.02442" lon="6.83872">
        <ele>849</ele>
        <time>2022-07-29T08:56:18Z</time>
      </trkpt>
      <trkpt lat="48.02445" lon="6.83872">
        <ele>849.2</ele>
        <time>2022-07-29T08:56:19Z</time>
      </trkpt>
      <trkpt lat="48.02447" lon="6.83873">
        <ele>849.2</ele>
        <time>2022-07-29T08:56:20Z</time>
      </trkpt>
      <trkpt lat="48.02448" lon="6.83872">
        <ele>849.4</ele>
        <time>2022-07-29T08:56:21Z</time>
      </trkpt>
      <trkpt lat="48.0245" lon="6.83873">
        <ele>849.6</ele>
        <time>2022-07-29T08:56:22Z</time>
      </trkpt>
      <trkpt lat="48.02452" lon="6.83873">
        <ele>849.8</ele>
        <time>2022-07-29T08:56:23Z</time>
      </trkpt>
      <trkpt lat="48.02455" lon="6.83874">
        <ele>849.8</ele>
        <time>2022-07-29T08:56:24Z</time>
      </trkpt>
      <trkpt lat="48.02458" lon="6.83874">
        <ele>850</ele>
        <time>2022-07-29T08:56:25Z</time>
      </trkpt>
      <trkpt lat="48.02461" lon="6.83875">
        <ele>850</ele>
        <time>2022-07-29T08:56:26Z</time>
      </trkpt>
      <trkpt lat="48.02463" lon="6.83875">
        <ele>850.2</ele>
        <time>2022-07-29T08:56:27Z</time>
      </trkpt>
      <trkpt lat="48.02465" lon="6.83876">
        <ele>850.2</ele>
        <time>2022-07-29T08:56:28Z</time>
      </trkpt>
      <trkpt lat="48.02468" lon="6.83879">
        <ele>850.4</ele>
        <time>2022-07-29T08:56:29Z</time>
      </trkpt>
      <trkpt lat="48.0247" lon="6.83879">
        <ele>850.8</ele>
        <time>2022-07-29T08:56:30Z</time>
      </trkpt>
      <trkpt lat="48.02473" lon="6.83878">
        <ele>850.8</ele>
        <time>2022-07-29T08:56:31Z</time>
      </trkpt>
      <trkpt lat="48.02474" lon="6.83879">
        <ele>851.2</ele>
        <time>2022-07-29T08:56:32Z</time>
      </trkpt>
      <trkpt lat="48.02476" lon="6.83878">
        <ele>851.4</ele>
        <time>2022-07-29T08:56:33Z</time>
      </trkpt>
      <trkpt lat="48.02479" lon="6.83879">
        <ele>851.4</ele>
        <time>2022-07-29T08:56:34Z</time>
      </trkpt>
      <trkpt lat="48.02481" lon="6.83877">
        <ele>851.6</ele>
        <time>2022-07-29T08:56:35Z</time>
      </trkpt>
      <trkpt lat="48.02483" lon="6.83877">
        <ele>851.8</ele>
        <time>2022-07-29T08:56:36Z</time>
      </trkpt>
      <trkpt lat="48.02484" lon="6.83876">
        <ele>852</ele>
        <time>2022-07-29T08:56:37Z</time>
      </trkpt>
      <trkpt lat="48.02487" lon="6.83878">
        <ele>852</ele>
        <time>2022-07-29T08:56:38Z</time>
      </trkpt>
      <trkpt lat="48.02489" lon="6.83879">
        <ele>852.4</ele>
        <time>2022-07-29T08:56:39Z</time>
      </trkpt>
      <trkpt lat="48.02491" lon="6.83878">
        <ele>852.4</ele>
        <time>2022-07-29T08:56:40Z</time>
      </trkpt>
      <trkpt lat="48.02493" lon="6.83878">
        <ele>852.6</ele>
        <time>2022-07-29T08:56:41Z</time>
      </trkpt>
      <trkpt lat="48.02495" lon="6.83879">
        <ele>853</ele>
        <time>2022-07-29T08:56:42Z</time>
      </trkpt>
      <trkpt lat="48.02496" lon="6.83879">
        <ele>853</ele>
        <time>2022-07-29T08:56:43Z</time>
      </trkpt>
      <trkpt lat="48.02498" lon="6.8388">
        <ele>853.4</ele>
        <time>2022-07-29T08:56:44Z</time>
      </trkpt>
      <trkpt lat="48.025" lon="6.8388">
        <ele>853.4</ele>
        <time>2022-07-29T08:56:45Z</time>
      </trkpt>
      <trkpt lat="48.02502" lon="6.8388">
        <ele>853.4</ele>
        <time>2022-07-29T08:56:46Z</time>
      </trkpt>
      <trkpt lat="48.02503" lon="6.8388">
        <ele>853.6</ele>
        <time>2022-07-29T08:56:47Z</time>
      </trkpt>
      <trkpt lat="48.02505" lon="6.83881">
        <ele>853.6</ele>
        <time>2022-07-29T08:56:48Z</time>
      </trkpt>
      <trkpt lat="48.02506" lon="6.83881">
        <ele>853.6</ele>
        <time>2022-07-29T08:56:49Z</time>
      </trkpt>
      <trkpt lat="48.02507" lon="6.83882">
        <ele>853.4</ele>
        <time>2022-07-29T08:56:50Z</time>
      </trkpt>
      <trkpt lat="48.02508" lon="6.83882">
        <ele>853.6</ele>
        <time>2022-07-29T08:56:51Z</time>
      </trkpt>
      <trkpt lat="48.0251" lon="6.83883">
        <ele>853.8</ele>
        <time>2022-07-29T08:56:52Z</time>
      </trkpt>
      <trkpt lat="48.02512" lon="6.83884">
        <ele>853.8</ele>
        <time>2022-07-29T08:56:53Z</time>
      </trkpt>
      <trkpt lat="48.02514" lon="6.83885">
        <ele>854</ele>
        <time>2022-07-29T08:56:54Z</time>
      </trkpt>
      <trkpt lat="48.02516" lon="6.83886">
        <ele>854</ele>
        <time>2022-07-29T08:56:55Z</time>
      </trkpt>
      <trkpt lat="48.02519" lon="6.83889">
        <ele>854.2</ele>
        <time>2022-07-29T08:56:56Z</time>
      </trkpt>
      <trkpt lat="48.0252" lon="6.83891">
        <ele>854.2</ele>
        <time>2022-07-29T08:56:57Z</time>
      </trkpt>
      <trkpt lat="48.02521" lon="6.83892">
        <ele>854.2</ele>
        <time>2022-07-29T08:56:58Z</time>
      </trkpt>
      <trkpt lat="48.02522" lon="6.83893">
        <ele>854.2</ele>
        <time>2022-07-29T08:56:59Z</time>
      </trkpt>
      <trkpt lat="48.02523" lon="6.83894">
        <ele>854.4</ele>
        <time>2022-07-29T08:57:00Z</time>
      </trkpt>
      <trkpt lat="48.02524" lon="6.83895">
        <ele>854.6</ele>
        <time>2022-07-29T08:57:01Z</time>
      </trkpt>
      <trkpt lat="48.02525" lon="6.83896">
        <ele>854.8</ele>
        <time>2022-07-29T08:57:02Z</time>
      </trkpt>
      <trkpt lat="48.02526" lon="6.83898">
        <ele>854.8</ele>
        <time>2022-07-29T08:57:03Z</time>
      </trkpt>
      <trkpt lat="48.02527" lon="6.83901">
        <ele>855</ele>
        <time>2022-07-29T08:57:04Z</time>
      </trkpt>
      <trkpt lat="48.02528" lon="6.83902">
        <ele>855.2</ele>
        <time>2022-07-29T08:57:05Z</time>
      </trkpt>
      <trkpt lat="48.02529" lon="6.83903">
        <ele>855.4</ele>
        <time>2022-07-29T08:57:06Z</time>
      </trkpt>
      <trkpt lat="48.0253" lon="6.83905">
        <ele>855.6</ele>
        <time>2022-07-29T08:57:07Z</time>
      </trkpt>
      <trkpt lat="48.02532" lon="6.83907">
        <ele>855.6</ele>
        <time>2022-07-29T08:57:08Z</time>
      </trkpt>
      <trkpt lat="48.02533" lon="6.83908">
        <ele>855.8</ele>
        <time>2022-07-29T08:57:09Z</time>
      </trkpt>
      <trkpt lat="48.02534" lon="6.83911">
        <ele>855.8</ele>
        <time>2022-07-29T08:57:10Z</time>
      </trkpt>
      <trkpt lat="48.02535" lon="6.83912">
        <ele>856.2</ele>
        <time>2022-07-29T08:57:11Z</time>
      </trkpt>
      <trkpt lat="48.02536" lon="6.83913">
        <ele>856.2</ele>
        <time>2022-07-29T08:57:12Z</time>
      </trkpt>
      <trkpt lat="48.02538" lon="6.83917">
        <ele>856.6</ele>
        <time>2022-07-29T08:57:13Z</time>
      </trkpt>
      <trkpt lat="48.02538" lon="6.83917">
        <ele>856.8</ele>
        <time>2022-07-29T08:57:14Z</time>
      </trkpt>
      <trkpt lat="48.02538" lon="6.83917">
        <ele>857</ele>
        <time>2022-07-29T08:57:15Z</time>
      </trkpt>
      <trkpt lat="48.02539" lon="6.83919">
        <ele>857</ele>
        <time>2022-07-29T08:57:16Z</time>
      </trkpt>
      <trkpt lat="48.02539" lon="6.83921">
        <ele>857.2</ele>
        <time>2022-07-29T08:57:17Z</time>
      </trkpt>
      <trkpt lat="48.0254" lon="6.83923">
        <ele>857.6</ele>
        <time>2022-07-29T08:57:18Z</time>
      </trkpt>
      <trkpt lat="48.0254" lon="6.83925">
        <ele>857.6</ele>
        <time>2022-07-29T08:57:19Z</time>
      </trkpt>
      <trkpt lat="48.0254" lon="6.83927">
        <ele>857.8</ele>
        <time>2022-07-29T08:57:20Z</time>
      </trkpt>
      <trkpt lat="48.02541" lon="6.83929">
        <ele>858</ele>
        <time>2022-07-29T08:57:21Z</time>
      </trkpt>
      <trkpt lat="48.02541" lon="6.8393">
        <ele>858.2</ele>
        <time>2022-07-29T08:57:22Z</time>
      </trkpt>
      <trkpt lat="48.02541" lon="6.83932">
        <ele>858.2</ele>
        <time>2022-07-29T08:57:23Z</time>
      </trkpt>
      <trkpt lat="48.02542" lon="6.83933">
        <ele>858.4</ele>
        <time>2022-07-29T08:57:24Z</time>
      </trkpt>
      <trkpt lat="48.02542" lon="6.83934">
        <ele>858.8</ele>
        <time>2022-07-29T08:57:25Z</time>
      </trkpt>
      <trkpt lat="48.02543" lon="6.83936">
        <ele>859</ele>
        <time>2022-07-29T08:57:26Z</time>
      </trkpt>
      <trkpt lat="48.02544" lon="6.83938">
        <ele>859.2</ele>
        <time>2022-07-29T08:57:27Z</time>
      </trkpt>
      <trkpt lat="48.02543" lon="6.8394">
        <ele>859.4</ele>
        <time>2022-07-29T08:57:28Z</time>
      </trkpt>
      <trkpt lat="48.02544" lon="6.83942">
        <ele>859.6</ele>
        <time>2022-07-29T08:57:29Z</time>
      </trkpt>
      <trkpt lat="48.02544" lon="6.83944">
        <ele>859.8</ele>
        <time>2022-07-29T08:57:30Z</time>
      </trkpt>
      <trkpt lat="48.02544" lon="6.83945">
        <ele>860.2</ele>
        <time>2022-07-29T08:57:31Z</time>
      </trkpt>
      <trkpt lat="48.02545" lon="6.83947">
        <ele>860.2</ele>
        <time>2022-07-29T08:57:32Z</time>
      </trkpt>
      <trkpt lat="48.02546" lon="6.83949">
        <ele>860.4</ele>
        <time>2022-07-29T08:57:33Z</time>
      </trkpt>
      <trkpt lat="48.02546" lon="6.83951">
        <ele>860.6</ele>
        <time>2022-07-29T08:57:34Z</time>
      </trkpt>
      <trkpt lat="48.02546" lon="6.83953">
        <ele>860.6</ele>
        <time>2022-07-29T08:57:35Z</time>
      </trkpt>
      <trkpt lat="48.02546" lon="6.83954">
        <ele>860.8</ele>
        <time>2022-07-29T08:57:36Z</time>
      </trkpt>
      <trkpt lat="48.02546" lon="6.83954">
        <ele>860.8</ele>
        <time>2022-07-29T08:57:37Z</time>
      </trkpt>
      <trkpt lat="48.02547" lon="6.83955">
        <ele>861</ele>
        <time>2022-07-29T08:57:38Z</time>
      </trkpt>
      <trkpt lat="48.02547" lon="6.83957">
        <ele>861</ele>
        <time>2022-07-29T08:57:39Z</time>
      </trkpt>
      <trkpt lat="48.02546" lon="6.83958">
        <ele>861.4</ele>
        <time>2022-07-29T08:57:40Z</time>
      </trkpt>
      <trkpt lat="48.02546" lon="6.83959">
        <ele>861.6</ele>
        <time>2022-07-29T08:57:41Z</time>
      </trkpt>
      <trkpt lat="48.02546" lon="6.83961">
        <ele>861.8</ele>
        <time>2022-07-29T08:57:42Z</time>
      </trkpt>
      <trkpt lat="48.02546" lon="6.83963">
        <ele>862.2</ele>
        <time>2022-07-29T08:57:43Z</time>
      </trkpt>
      <trkpt lat="48.02546" lon="6.83965">
        <ele>862.2</ele>
        <time>2022-07-29T08:57:44Z</time>
      </trkpt>
      <trkpt lat="48.02547" lon="6.83965">
        <ele>862.4</ele>
        <time>2022-07-29T08:57:45Z</time>
      </trkpt>
      <trkpt lat="48.02547" lon="6.83966">
        <ele>862.6</ele>
        <time>2022-07-29T08:57:46Z</time>
      </trkpt>
      <trkpt lat="48.02547" lon="6.83968">
        <ele>862.8</ele>
        <time>2022-07-29T08:57:47Z</time>
      </trkpt>
      <trkpt lat="48.02547" lon="6.83969">
        <ele>862.8</ele>
        <time>2022-07-29T08:57:48Z</time>
      </trkpt>
      <trkpt lat="48.02547" lon="6.8397">
        <ele>863</ele>
        <time>2022-07-29T08:57:49Z</time>
      </trkpt>
      <trkpt lat="48.02547" lon="6.83972">
        <ele>863</ele>
        <time>2022-07-29T08:57:50Z</time>
      </trkpt>
      <trkpt lat="48.02547" lon="6.83973">
        <ele>863.4</ele>
        <time>2022-07-29T08:57:51Z</time>
      </trkpt>
      <trkpt lat="48.02547" lon="6.83974">
        <ele>863.6</ele>
        <time>2022-07-29T08:57:52Z</time>
      </trkpt>
      <trkpt lat="48.02547" lon="6.83975">
        <ele>863.6</ele>
        <time>2022-07-29T08:57:53Z</time>
      </trkpt>
      <trkpt lat="48.02548" lon="6.83977">
        <ele>863.8</ele>
        <time>2022-07-29T08:57:54Z</time>
      </trkpt>
      <trkpt lat="48.02547" lon="6.83977">
        <ele>863.8</ele>
        <time>2022-07-29T08:57:55Z</time>
      </trkpt>
      <trkpt lat="48.02548" lon="6.83978">
        <ele>864</ele>
        <time>2022-07-29T08:57:56Z</time>
      </trkpt>
      <trkpt lat="48.02548" lon="6.83979">
        <ele>864.2</ele>
        <time>2022-07-29T08:57:57Z</time>
      </trkpt>
      <trkpt lat="48.02548" lon="6.8398">
        <ele>864.4</ele>
        <time>2022-07-29T08:57:58Z</time>
      </trkpt>
      <trkpt lat="48.02548" lon="6.83982">
        <ele>864.6</ele>
        <time>2022-07-29T08:57:59Z</time>
      </trkpt>
      <trkpt lat="48.02548" lon="6.83983">
        <ele>864.8</ele>
        <time>2022-07-29T08:58:00Z</time>
      </trkpt>
      <trkpt lat="48.02549" lon="6.83984">
        <ele>864.8</ele>
        <time>2022-07-29T08:58:01Z</time>
      </trkpt>
      <trkpt lat="48.02549" lon="6.83985">
        <ele>865</ele>
        <time>2022-07-29T08:58:02Z</time>
      </trkpt>
      <trkpt lat="48.02549" lon="6.83986">
        <ele>865.2</ele>
        <time>2022-07-29T08:58:03Z</time>
      </trkpt>
      <trkpt lat="48.02549" lon="6.83989">
        <ele>865.2</ele>
        <time>2022-07-29T08:58:04Z</time>
      </trkpt>
      <trkpt lat="48.02549" lon="6.83992">
        <ele>865.6</ele>
        <time>2022-07-29T08:58:05Z</time>
      </trkpt>
      <trkpt lat="48.02549" lon="6.83993">
        <ele>865.6</ele>
        <time>2022-07-29T08:58:06Z</time>
      </trkpt>
      <trkpt lat="48.02549" lon="6.83995">
        <ele>865.8</ele>
        <time>2022-07-29T08:58:07Z</time>
      </trkpt>
      <trkpt lat="48.02549" lon="6.83997">
        <ele>866</ele>
        <time>2022-07-29T08:58:08Z</time>
      </trkpt>
      <trkpt lat="48.0255" lon="6.83999">
        <ele>866</ele>
        <time>2022-07-29T08:58:09Z</time>
      </trkpt>
      <trkpt lat="48.02549" lon="6.84003">
        <ele>866</ele>
        <time>2022-07-29T08:58:10Z</time>
      </trkpt>
      <trkpt lat="48.02549" lon="6.84005">
        <ele>866</ele>
        <time>2022-07-29T08:58:11Z</time>
      </trkpt>
      <trkpt lat="48.02549" lon="6.84008">
        <ele>866.2</ele>
        <time>2022-07-29T08:58:12Z</time>
      </trkpt>
      <trkpt lat="48.02549" lon="6.84009">
        <ele>866.4</ele>
        <time>2022-07-29T08:58:13Z</time>
      </trkpt>
      <trkpt lat="48.02549" lon="6.8401">
        <ele>866.4</ele>
        <time>2022-07-29T08:58:14Z</time>
      </trkpt>
      <trkpt lat="48.02549" lon="6.84011">
        <ele>866.6</ele>
        <time>2022-07-29T08:58:15Z</time>
      </trkpt>
      <trkpt lat="48.02549" lon="6.84011">
        <ele>866.8</ele>
        <time>2022-07-29T08:58:16Z</time>
      </trkpt>
      <trkpt lat="48.02549" lon="6.84012">
        <ele>867</ele>
        <time>2022-07-29T08:58:17Z</time>
      </trkpt>
      <trkpt lat="48.02549" lon="6.84014">
        <ele>867</ele>
        <time>2022-07-29T08:58:18Z</time>
      </trkpt>
      <trkpt lat="48.02549" lon="6.84014">
        <ele>867.2</ele>
        <time>2022-07-29T08:58:19Z</time>
      </trkpt>
      <trkpt lat="48.02549" lon="6.84014">
        <ele>867.4</ele>
        <time>2022-07-29T08:58:20Z</time>
      </trkpt>
      <trkpt lat="48.02549" lon="6.84015">
        <ele>867.4</ele>
        <time>2022-07-29T08:58:21Z</time>
      </trkpt>
      <trkpt lat="48.0255" lon="6.84017">
        <ele>867.6</ele>
        <time>2022-07-29T08:58:22Z</time>
      </trkpt>
      <trkpt lat="48.0255" lon="6.84018">
        <ele>867.8</ele>
        <time>2022-07-29T08:58:23Z</time>
      </trkpt>
      <trkpt lat="48.02549" lon="6.8402">
        <ele>867.8</ele>
        <time>2022-07-29T08:58:24Z</time>
      </trkpt>
      <trkpt lat="48.02549" lon="6.8402">
        <ele>868.2</ele>
        <time>2022-07-29T08:58:25Z</time>
      </trkpt>
      <trkpt lat="48.02549" lon="6.84023">
        <ele>868.6</ele>
        <time>2022-07-29T08:58:26Z</time>
      </trkpt>
      <trkpt lat="48.0255" lon="6.84026">
        <ele>868.8</ele>
        <time>2022-07-29T08:58:27Z</time>
      </trkpt>
      <trkpt lat="48.0255" lon="6.8403">
        <ele>869</ele>
        <time>2022-07-29T08:58:28Z</time>
      </trkpt>
      <trkpt lat="48.02551" lon="6.84034">
        <ele>869.2</ele>
        <time>2022-07-29T08:58:29Z</time>
      </trkpt>
      <trkpt lat="48.02552" lon="6.84037">
        <ele>869.4</ele>
        <time>2022-07-29T08:58:30Z</time>
      </trkpt>
      <trkpt lat="48.02552" lon="6.84041">
        <ele>869.4</ele>
        <time>2022-07-29T08:58:31Z</time>
      </trkpt>
      <trkpt lat="48.02552" lon="6.84043">
        <ele>869.8</ele>
        <time>2022-07-29T08:58:32Z</time>
      </trkpt>
      <trkpt lat="48.02552" lon="6.84045">
        <ele>869.8</ele>
        <time>2022-07-29T08:58:33Z</time>
      </trkpt>
      <trkpt lat="48.02551" lon="6.84048">
        <ele>870</ele>
        <time>2022-07-29T08:58:34Z</time>
      </trkpt>
      <trkpt lat="48.02551" lon="6.84048">
        <ele>870.2</ele>
        <time>2022-07-29T08:58:35Z</time>
      </trkpt>
      <trkpt lat="48.02551" lon="6.8405">
        <ele>870.2</ele>
        <time>2022-07-29T08:58:36Z</time>
      </trkpt>
      <trkpt lat="48.0255" lon="6.84053">
        <ele>870.2</ele>
        <time>2022-07-29T08:58:37Z</time>
      </trkpt>
      <trkpt lat="48.02549" lon="6.84056">
        <ele>870.4</ele>
        <time>2022-07-29T08:58:38Z</time>
      </trkpt>
      <trkpt lat="48.02549" lon="6.84056">
        <ele>870.6</ele>
        <time>2022-07-29T08:58:39Z</time>
      </trkpt>
      <trkpt lat="48.02549" lon="6.84056">
        <ele>870.8</ele>
        <time>2022-07-29T08:58:40Z</time>
      </trkpt>
      <trkpt lat="48.02549" lon="6.84058">
        <ele>871</ele>
        <time>2022-07-29T08:58:41Z</time>
      </trkpt>
      <trkpt lat="48.02549" lon="6.84061">
        <ele>871</ele>
        <time>2022-07-29T08:58:42Z</time>
      </trkpt>
      <trkpt lat="48.02548" lon="6.84063">
        <ele>871.4</ele>
        <time>2022-07-29T08:58:43Z</time>
      </trkpt>
      <trkpt lat="48.02547" lon="6.84065">
        <ele>871.4</ele>
        <time>2022-07-29T08:58:44Z</time>
      </trkpt>
      <trkpt lat="48.02546" lon="6.84066">
        <ele>871.6</ele>
        <time>2022-07-29T08:58:45Z</time>
      </trkpt>
      <trkpt lat="48.02545" lon="6.84068">
        <ele>871.8</ele>
        <time>2022-07-29T08:58:46Z</time>
      </trkpt>
      <trkpt lat="48.02544" lon="6.8407">
        <ele>872</ele>
        <time>2022-07-29T08:58:47Z</time>
      </trkpt>
      <trkpt lat="48.02542" lon="6.84072">
        <ele>872.2</ele>
        <time>2022-07-29T08:58:48Z</time>
      </trkpt>
      <trkpt lat="48.02541" lon="6.84073">
        <ele>872.2</ele>
        <time>2022-07-29T08:58:49Z</time>
      </trkpt>
      <trkpt lat="48.0254" lon="6.84073">
        <ele>872.4</ele>
        <time>2022-07-29T08:58:50Z</time>
      </trkpt>
      <trkpt lat="48.02539" lon="6.84073">
        <ele>872.6</ele>
        <time>2022-07-29T08:58:51Z</time>
      </trkpt>
      <trkpt lat="48.02538" lon="6.84072">
        <ele>873</ele>
        <time>2022-07-29T08:58:52Z</time>
      </trkpt>
      <trkpt lat="48.02536" lon="6.84073">
        <ele>873.2</ele>
        <time>2022-07-29T08:58:53Z</time>
      </trkpt>
      <trkpt lat="48.02535" lon="6.84073">
        <ele>873.4</ele>
        <time>2022-07-29T08:58:54Z</time>
      </trkpt>
      <trkpt lat="48.02533" lon="6.84074">
        <ele>873.6</ele>
        <time>2022-07-29T08:58:55Z</time>
      </trkpt>
      <trkpt lat="48.02532" lon="6.84074">
        <ele>873.6</ele>
        <time>2022-07-29T08:58:56Z</time>
      </trkpt>
      <trkpt lat="48.0253" lon="6.84074">
        <ele>874</ele>
        <time>2022-07-29T08:58:57Z</time>
      </trkpt>
      <trkpt lat="48.02528" lon="6.84074">
        <ele>874.2</ele>
        <time>2022-07-29T08:58:58Z</time>
      </trkpt>
      <trkpt lat="48.02527" lon="6.84074">
        <ele>874.2</ele>
        <time>2022-07-29T08:58:59Z</time>
      </trkpt>
      <trkpt lat="48.02526" lon="6.84074">
        <ele>874.4</ele>
        <time>2022-07-29T08:59:00Z</time>
      </trkpt>
      <trkpt lat="48.02525" lon="6.84073">
        <ele>874.4</ele>
        <time>2022-07-29T08:59:01Z</time>
      </trkpt>
      <trkpt lat="48.02524" lon="6.84073">
        <ele>874.6</ele>
        <time>2022-07-29T08:59:02Z</time>
      </trkpt>
      <trkpt lat="48.02521" lon="6.84072">
        <ele>874.6</ele>
        <time>2022-07-29T08:59:03Z</time>
      </trkpt>
      <trkpt lat="48.02518" lon="6.84071">
        <ele>874.8</ele>
        <time>2022-07-29T08:59:04Z</time>
      </trkpt>
      <trkpt lat="48.02517" lon="6.8407">
        <ele>874.8</ele>
        <time>2022-07-29T08:59:05Z</time>
      </trkpt>
      <trkpt lat="48.02515" lon="6.8407">
        <ele>875</ele>
        <time>2022-07-29T08:59:06Z</time>
      </trkpt>
      <trkpt lat="48.02514" lon="6.8407">
        <ele>875.2</ele>
        <time>2022-07-29T08:59:07Z</time>
      </trkpt>
      <trkpt lat="48.02513" lon="6.8407">
        <ele>875.4</ele>
        <time>2022-07-29T08:59:08Z</time>
      </trkpt>
      <trkpt lat="48.02512" lon="6.8407">
        <ele>875.4</ele>
        <time>2022-07-29T08:59:09Z</time>
      </trkpt>
      <trkpt lat="48.02511" lon="6.84069">
        <ele>875.6</ele>
        <time>2022-07-29T08:59:10Z</time>
      </trkpt>
      <trkpt lat="48.0251" lon="6.84069">
        <ele>875.6</ele>
        <time>2022-07-29T08:59:11Z</time>
      </trkpt>
      <trkpt lat="48.02509" lon="6.84069">
        <ele>875.8</ele>
        <time>2022-07-29T08:59:12Z</time>
      </trkpt>
      <trkpt lat="48.02508" lon="6.84069">
        <ele>876</ele>
        <time>2022-07-29T08:59:13Z</time>
      </trkpt>
      <trkpt lat="48.02507" lon="6.8407">
        <ele>876</ele>
        <time>2022-07-29T08:59:14Z</time>
      </trkpt>
      <trkpt lat="48.02507" lon="6.8407">
        <ele>876</ele>
        <time>2022-07-29T08:59:15Z</time>
      </trkpt>
      <trkpt lat="48.02506" lon="6.8407">
        <ele>876.2</ele>
        <time>2022-07-29T08:59:16Z</time>
      </trkpt>
      <trkpt lat="48.02504" lon="6.84069">
        <ele>876.4</ele>
        <time>2022-07-29T08:59:17Z</time>
      </trkpt>
      <trkpt lat="48.02504" lon="6.8407">
        <ele>876.6</ele>
        <time>2022-07-29T08:59:18Z</time>
      </trkpt>
      <trkpt lat="48.02504" lon="6.8407">
        <ele>876.6</ele>
        <time>2022-07-29T08:59:19Z</time>
      </trkpt>
      <trkpt lat="48.02503" lon="6.84071">
        <ele>876.6</ele>
        <time>2022-07-29T08:59:20Z</time>
      </trkpt>
      <trkpt lat="48.02502" lon="6.84072">
        <ele>876.8</ele>
        <time>2022-07-29T08:59:21Z</time>
      </trkpt>
      <trkpt lat="48.02501" lon="6.84073">
        <ele>877</ele>
        <time>2022-07-29T08:59:22Z</time>
      </trkpt>
      <trkpt lat="48.025" lon="6.84073">
        <ele>877</ele>
        <time>2022-07-29T08:59:23Z</time>
      </trkpt>
      <trkpt lat="48.02499" lon="6.84074">
        <ele>877</ele>
        <time>2022-07-29T08:59:24Z</time>
      </trkpt>
      <trkpt lat="48.02497" lon="6.84076">
        <ele>877.2</ele>
        <time>2022-07-29T08:59:25Z</time>
      </trkpt>
      <trkpt lat="48.02494" lon="6.84077">
        <ele>877.4</ele>
        <time>2022-07-29T08:59:26Z</time>
      </trkpt>
      <trkpt lat="48.02492" lon="6.84079">
        <ele>877.8</ele>
        <time>2022-07-29T08:59:27Z</time>
      </trkpt>
      <trkpt lat="48.02492" lon="6.84079">
        <ele>878</ele>
        <time>2022-07-29T08:59:28Z</time>
      </trkpt>
      <trkpt lat="48.02491" lon="6.8408">
        <ele>878.2</ele>
        <time>2022-07-29T08:59:29Z</time>
      </trkpt>
      <trkpt lat="48.02491" lon="6.84081">
        <ele>878.4</ele>
        <time>2022-07-29T08:59:30Z</time>
      </trkpt>
      <trkpt lat="48.0249" lon="6.84081">
        <ele>878.6</ele>
        <time>2022-07-29T08:59:31Z</time>
      </trkpt>
      <trkpt lat="48.02489" lon="6.84083">
        <ele>878.8</ele>
        <time>2022-07-29T08:59:32Z</time>
      </trkpt>
      <trkpt lat="48.02487" lon="6.84084">
        <ele>879</ele>
        <time>2022-07-29T08:59:33Z</time>
      </trkpt>
      <trkpt lat="48.02485" lon="6.84085">
        <ele>879.2</ele>
        <time>2022-07-29T08:59:34Z</time>
      </trkpt>
      <trkpt lat="48.02484" lon="6.84086">
        <ele>879.4</ele>
        <time>2022-07-29T08:59:35Z</time>
      </trkpt>
      <trkpt lat="48.02484" lon="6.84087">
        <ele>879.6</ele>
        <time>2022-07-29T08:59:36Z</time>
      </trkpt>
      <trkpt lat="48.02483" lon="6.84088">
        <ele>879.6</ele>
        <time>2022-07-29T08:59:37Z</time>
      </trkpt>
      <trkpt lat="48.02482" lon="6.8409">
        <ele>879.8</ele>
        <time>2022-07-29T08:59:38Z</time>
      </trkpt>
      <trkpt lat="48.02481" lon="6.84092">
        <ele>879.8</ele>
        <time>2022-07-29T08:59:39Z</time>
      </trkpt>
      <trkpt lat="48.0248" lon="6.84093">
        <ele>880.2</ele>
        <time>2022-07-29T08:59:40Z</time>
      </trkpt>
      <trkpt lat="48.02479" lon="6.84094">
        <ele>880.4</ele>
        <time>2022-07-29T08:59:41Z</time>
      </trkpt>
      <trkpt lat="48.02479" lon="6.84095">
        <ele>880.6</ele>
        <time>2022-07-29T08:59:42Z</time>
      </trkpt>
      <trkpt lat="48.02479" lon="6.84096">
        <ele>880.6</ele>
        <time>2022-07-29T08:59:43Z</time>
      </trkpt>
      <trkpt lat="48.02479" lon="6.841">
        <ele>880.8</ele>
        <time>2022-07-29T08:59:44Z</time>
      </trkpt>
      <trkpt lat="48.02478" lon="6.84102">
        <ele>881</ele>
        <time>2022-07-29T08:59:45Z</time>
      </trkpt>
      <trkpt lat="48.02477" lon="6.84104">
        <ele>881.2</ele>
        <time>2022-07-29T08:59:46Z</time>
      </trkpt>
      <trkpt lat="48.02476" lon="6.84106">
        <ele>881.2</ele>
        <time>2022-07-29T08:59:47Z</time>
      </trkpt>
      <trkpt lat="48.02472" lon="6.84109">
        <ele>881.4</ele>
        <time>2022-07-29T08:59:48Z</time>
      </trkpt>
      <trkpt lat="48.02471" lon="6.84111">
        <ele>881.6</ele>
        <time>2022-07-29T08:59:49Z</time>
      </trkpt>
      <trkpt lat="48.02471" lon="6.84112">
        <ele>881.8</ele>
        <time>2022-07-29T08:59:50Z</time>
      </trkpt>
      <trkpt lat="48.0247" lon="6.84114">
        <ele>882</ele>
        <time>2022-07-29T08:59:51Z</time>
      </trkpt>
      <trkpt lat="48.0247" lon="6.84115">
        <ele>882.2</ele>
        <time>2022-07-29T08:59:52Z</time>
      </trkpt>
      <trkpt lat="48.02469" lon="6.84116">
        <ele>882.4</ele>
        <time>2022-07-29T08:59:53Z</time>
      </trkpt>
      <trkpt lat="48.02466" lon="6.84117">
        <ele>882.6</ele>
        <time>2022-07-29T08:59:54Z</time>
      </trkpt>
      <trkpt lat="48.02465" lon="6.84119">
        <ele>882.6</ele>
        <time>2022-07-29T08:59:55Z</time>
      </trkpt>
      <trkpt lat="48.02465" lon="6.84122">
        <ele>882.6</ele>
        <time>2022-07-29T08:59:56Z</time>
      </trkpt>
      <trkpt lat="48.02464" lon="6.84123">
        <ele>882.8</ele>
        <time>2022-07-29T08:59:57Z</time>
      </trkpt>
      <trkpt lat="48.02463" lon="6.84124">
        <ele>883</ele>
        <time>2022-07-29T08:59:58Z</time>
      </trkpt>
      <trkpt lat="48.02462" lon="6.84125">
        <ele>883.2</ele>
        <time>2022-07-29T08:59:59Z</time>
      </trkpt>
      <trkpt lat="48.02462" lon="6.84126">
        <ele>883.4</ele>
        <time>2022-07-29T09:00:00Z</time>
      </trkpt>
      <trkpt lat="48.02462" lon="6.84126">
        <ele>883.4</ele>
        <time>2022-07-29T09:00:01Z</time>
      </trkpt>
      <trkpt lat="48.0246" lon="6.84126">
        <ele>883.8</ele>
        <time>2022-07-29T09:00:02Z</time>
      </trkpt>
      <trkpt lat="48.0246" lon="6.84126">
        <ele>884</ele>
        <time>2022-07-29T09:00:03Z</time>
      </trkpt>
      <trkpt lat="48.0246" lon="6.84127">
        <ele>884.2</ele>
        <time>2022-07-29T09:00:04Z</time>
      </trkpt>
      <trkpt lat="48.02459" lon="6.84127">
        <ele>884.4</ele>
        <time>2022-07-29T09:00:05Z</time>
      </trkpt>
      <trkpt lat="48.02458" lon="6.84127">
        <ele>884.4</ele>
        <time>2022-07-29T09:00:06Z</time>
      </trkpt>
      <trkpt lat="48.02457" lon="6.84128">
        <ele>884.6</ele>
        <time>2022-07-29T09:00:07Z</time>
      </trkpt>
      <trkpt lat="48.02456" lon="6.84129">
        <ele>884.8</ele>
        <time>2022-07-29T09:00:08Z</time>
      </trkpt>
      <trkpt lat="48.02455" lon="6.84129">
        <ele>885</ele>
        <time>2022-07-29T09:00:09Z</time>
      </trkpt>
      <trkpt lat="48.02454" lon="6.8413">
        <ele>885.2</ele>
        <time>2022-07-29T09:00:10Z</time>
      </trkpt>
      <trkpt lat="48.02453" lon="6.8413">
        <ele>885.6</ele>
        <time>2022-07-29T09:00:11Z</time>
      </trkpt>
      <trkpt lat="48.02452" lon="6.84131">
        <ele>885.8</ele>
        <time>2022-07-29T09:00:12Z</time>
      </trkpt>
      <trkpt lat="48.0245" lon="6.84132">
        <ele>885.8</ele>
        <time>2022-07-29T09:00:13Z</time>
      </trkpt>
      <trkpt lat="48.02449" lon="6.84133">
        <ele>886</ele>
        <time>2022-07-29T09:00:14Z</time>
      </trkpt>
      <trkpt lat="48.02448" lon="6.84134">
        <ele>886.2</ele>
        <time>2022-07-29T09:00:15Z</time>
      </trkpt>
      <trkpt lat="48.02447" lon="6.84135">
        <ele>886.4</ele>
        <time>2022-07-29T09:00:16Z</time>
      </trkpt>
      <trkpt lat="48.02446" lon="6.84135">
        <ele>886.4</ele>
        <time>2022-07-29T09:00:17Z</time>
      </trkpt>
      <trkpt lat="48.02445" lon="6.84136">
        <ele>886.6</ele>
        <time>2022-07-29T09:00:18Z</time>
      </trkpt>
      <trkpt lat="48.02444" lon="6.84137">
        <ele>886.8</ele>
        <time>2022-07-29T09:00:19Z</time>
      </trkpt>
      <trkpt lat="48.02443" lon="6.84138">
        <ele>886.8</ele>
        <time>2022-07-29T09:00:20Z</time>
      </trkpt>
      <trkpt lat="48.02441" lon="6.84138">
        <ele>887</ele>
        <time>2022-07-29T09:00:21Z</time>
      </trkpt>
      <trkpt lat="48.0244" lon="6.8414">
        <ele>887.2</ele>
        <time>2022-07-29T09:00:22Z</time>
      </trkpt>
      <trkpt lat="48.02439" lon="6.8414">
        <ele>887.2</ele>
        <time>2022-07-29T09:00:23Z</time>
      </trkpt>
      <trkpt lat="48.02438" lon="6.8414">
        <ele>887.6</ele>
        <time>2022-07-29T09:00:24Z</time>
      </trkpt>
      <trkpt lat="48.02436" lon="6.8414">
        <ele>887.4</ele>
        <time>2022-07-29T09:00:25Z</time>
      </trkpt>
      <trkpt lat="48.02435" lon="6.8414">
        <ele>887.6</ele>
        <time>2022-07-29T09:00:26Z</time>
      </trkpt>
      <trkpt lat="48.02432" lon="6.8414">
        <ele>887.6</ele>
        <time>2022-07-29T09:00:27Z</time>
      </trkpt>
      <trkpt lat="48.02432" lon="6.8414">
        <ele>887.8</ele>
        <time>2022-07-29T09:00:28Z</time>
      </trkpt>
      <trkpt lat="48.02431" lon="6.84141">
        <ele>888</ele>
        <time>2022-07-29T09:00:29Z</time>
      </trkpt>
      <trkpt lat="48.02429" lon="6.84144">
        <ele>888</ele>
        <time>2022-07-29T09:00:30Z</time>
      </trkpt>
      <trkpt lat="48.02426" lon="6.84144">
        <ele>888.2</ele>
        <time>2022-07-29T09:00:31Z</time>
      </trkpt>
      <trkpt lat="48.02424" lon="6.84144">
        <ele>888.6</ele>
        <time>2022-07-29T09:00:32Z</time>
      </trkpt>
      <trkpt lat="48.02422" lon="6.84146">
        <ele>888.6</ele>
        <time>2022-07-29T09:00:33Z</time>
      </trkpt>
      <trkpt lat="48.0242" lon="6.84147">
        <ele>888.8</ele>
        <time>2022-07-29T09:00:34Z</time>
      </trkpt>
      <trkpt lat="48.0242" lon="6.84149">
        <ele>889</ele>
        <time>2022-07-29T09:00:35Z</time>
      </trkpt>
      <trkpt lat="48.0242" lon="6.84151">
        <ele>889.2</ele>
        <time>2022-07-29T09:00:36Z</time>
      </trkpt>
      <trkpt lat="48.02418" lon="6.84153">
        <ele>889.2</ele>
        <time>2022-07-29T09:00:37Z</time>
      </trkpt>
      <trkpt lat="48.02418" lon="6.84154">
        <ele>889.4</ele>
        <time>2022-07-29T09:00:38Z</time>
      </trkpt>
      <trkpt lat="48.02416" lon="6.84155">
        <ele>889.4</ele>
        <time>2022-07-29T09:00:39Z</time>
      </trkpt>
      <trkpt lat="48.02415" lon="6.84157">
        <ele>889.4</ele>
        <time>2022-07-29T09:00:40Z</time>
      </trkpt>
      <trkpt lat="48.02414" lon="6.84158">
        <ele>889.4</ele>
        <time>2022-07-29T09:00:41Z</time>
      </trkpt>
      <trkpt lat="48.02414" lon="6.84158">
        <ele>889.4</ele>
        <time>2022-07-29T09:00:42Z</time>
      </trkpt>
      <trkpt lat="48.02413" lon="6.84158">
        <ele>889.4</ele>
        <time>2022-07-29T09:00:43Z</time>
      </trkpt>
      <trkpt lat="48.02412" lon="6.84159">
        <ele>889.4</ele>
        <time>2022-07-29T09:00:44Z</time>
      </trkpt>
      <trkpt lat="48.02411" lon="6.8416">
        <ele>889.6</ele>
        <time>2022-07-29T09:00:45Z</time>
      </trkpt>
      <trkpt lat="48.02409" lon="6.8416">
        <ele>889.6</ele>
        <time>2022-07-29T09:00:46Z</time>
      </trkpt>
      <trkpt lat="48.02408" lon="6.84161">
        <ele>889.8</ele>
        <time>2022-07-29T09:00:47Z</time>
      </trkpt>
      <trkpt lat="48.02406" lon="6.84161">
        <ele>889.8</ele>
        <time>2022-07-29T09:00:48Z</time>
      </trkpt>
      <trkpt lat="48.02404" lon="6.84163">
        <ele>890</ele>
        <time>2022-07-29T09:00:49Z</time>
      </trkpt>
      <trkpt lat="48.02402" lon="6.84165">
        <ele>890.2</ele>
        <time>2022-07-29T09:00:50Z</time>
      </trkpt>
      <trkpt lat="48.02401" lon="6.84167">
        <ele>890.4</ele>
        <time>2022-07-29T09:00:51Z</time>
      </trkpt>
      <trkpt lat="48.02401" lon="6.84167">
        <ele>890.6</ele>
        <time>2022-07-29T09:00:52Z</time>
      </trkpt>
      <trkpt lat="48.02401" lon="6.84169">
        <ele>890.6</ele>
        <time>2022-07-29T09:00:53Z</time>
      </trkpt>
      <trkpt lat="48.024" lon="6.84171">
        <ele>891</ele>
        <time>2022-07-29T09:00:54Z</time>
      </trkpt>
      <trkpt lat="48.02399" lon="6.84173">
        <ele>891</ele>
        <time>2022-07-29T09:00:55Z</time>
      </trkpt>
      <trkpt lat="48.02399" lon="6.84174">
        <ele>891.2</ele>
        <time>2022-07-29T09:00:56Z</time>
      </trkpt>
      <trkpt lat="48.02398" lon="6.84177">
        <ele>891.2</ele>
        <time>2022-07-29T09:00:57Z</time>
      </trkpt>
      <trkpt lat="48.02396" lon="6.84179">
        <ele>891.4</ele>
        <time>2022-07-29T09:00:58Z</time>
      </trkpt>
      <trkpt lat="48.02395" lon="6.8418">
        <ele>891.6</ele>
        <time>2022-07-29T09:00:59Z</time>
      </trkpt>
      <trkpt lat="48.02394" lon="6.84182">
        <ele>891.8</ele>
        <time>2022-07-29T09:01:00Z</time>
      </trkpt>
      <trkpt lat="48.02393" lon="6.84183">
        <ele>892</ele>
        <time>2022-07-29T09:01:01Z</time>
      </trkpt>
      <trkpt lat="48.02392" lon="6.84185">
        <ele>892.2</ele>
        <time>2022-07-29T09:01:02Z</time>
      </trkpt>
      <trkpt lat="48.02392" lon="6.84187">
        <ele>892.4</ele>
        <time>2022-07-29T09:01:03Z</time>
      </trkpt>
      <trkpt lat="48.02392" lon="6.84188">
        <ele>892.6</ele>
        <time>2022-07-29T09:01:04Z</time>
      </trkpt>
      <trkpt lat="48.02391" lon="6.8419">
        <ele>892.6</ele>
        <time>2022-07-29T09:01:05Z</time>
      </trkpt>
      <trkpt lat="48.0239" lon="6.84191">
        <ele>892.6</ele>
        <time>2022-07-29T09:01:06Z</time>
      </trkpt>
      <trkpt lat="48.02387" lon="6.84193">
        <ele>892.8</ele>
        <time>2022-07-29T09:01:07Z</time>
      </trkpt>
      <trkpt lat="48.02386" lon="6.84195">
        <ele>892.8</ele>
        <time>2022-07-29T09:01:08Z</time>
      </trkpt>
      <trkpt lat="48.02384" lon="6.84199">
        <ele>892.8</ele>
        <time>2022-07-29T09:01:09Z</time>
      </trkpt>
      <trkpt lat="48.02382" lon="6.84201">
        <ele>893</ele>
        <time>2022-07-29T09:01:10Z</time>
      </trkpt>
      <trkpt lat="48.02381" lon="6.84204">
        <ele>893.2</ele>
        <time>2022-07-29T09:01:11Z</time>
      </trkpt>
      <trkpt lat="48.0238" lon="6.84207">
        <ele>893.4</ele>
        <time>2022-07-29T09:01:12Z</time>
      </trkpt>
      <trkpt lat="48.0238" lon="6.84209">
        <ele>893.6</ele>
        <time>2022-07-29T09:01:13Z</time>
      </trkpt>
      <trkpt lat="48.02378" lon="6.8421">
        <ele>893.8</ele>
        <time>2022-07-29T09:01:14Z</time>
      </trkpt>
      <trkpt lat="48.02375" lon="6.84214">
        <ele>893.8</ele>
        <time>2022-07-29T09:01:15Z</time>
      </trkpt>
      <trkpt lat="48.02372" lon="6.84219">
        <ele>894</ele>
        <time>2022-07-29T09:01:16Z</time>
      </trkpt>
      <trkpt lat="48.02371" lon="6.84224">
        <ele>894</ele>
        <time>2022-07-29T09:01:17Z</time>
      </trkpt>
      <trkpt lat="48.0237" lon="6.84227">
        <ele>894.2</ele>
        <time>2022-07-29T09:01:18Z</time>
      </trkpt>
      <trkpt lat="48.0237" lon="6.84228">
        <ele>894.4</ele>
        <time>2022-07-29T09:01:19Z</time>
      </trkpt>
      <trkpt lat="48.02369" lon="6.8423">
        <ele>894.4</ele>
        <time>2022-07-29T09:01:20Z</time>
      </trkpt>
      <trkpt lat="48.02367" lon="6.84231">
        <ele>894.6</ele>
        <time>2022-07-29T09:01:21Z</time>
      </trkpt>
      <trkpt lat="48.02365" lon="6.84233">
        <ele>894.6</ele>
        <time>2022-07-29T09:01:22Z</time>
      </trkpt>
      <trkpt lat="48.02364" lon="6.84234">
        <ele>895</ele>
        <time>2022-07-29T09:01:23Z</time>
      </trkpt>
      <trkpt lat="48.02364" lon="6.84236">
        <ele>895.2</ele>
        <time>2022-07-29T09:01:24Z</time>
      </trkpt>
      <trkpt lat="48.02363" lon="6.84238">
        <ele>895.6</ele>
        <time>2022-07-29T09:01:25Z</time>
      </trkpt>
      <trkpt lat="48.02362" lon="6.84241">
        <ele>895.8</ele>
        <time>2022-07-29T09:01:26Z</time>
      </trkpt>
      <trkpt lat="48.02362" lon="6.84242">
        <ele>895.8</ele>
        <time>2022-07-29T09:01:27Z</time>
      </trkpt>
      <trkpt lat="48.02361" lon="6.84244">
        <ele>896</ele>
        <time>2022-07-29T09:01:28Z</time>
      </trkpt>
      <trkpt lat="48.02361" lon="6.84246">
        <ele>896.2</ele>
        <time>2022-07-29T09:01:29Z</time>
      </trkpt>
      <trkpt lat="48.0236" lon="6.84248">
        <ele>896.4</ele>
        <time>2022-07-29T09:01:30Z</time>
      </trkpt>
      <trkpt lat="48.02359" lon="6.84249">
        <ele>896.6</ele>
        <time>2022-07-29T09:01:31Z</time>
      </trkpt>
      <trkpt lat="48.02357" lon="6.8425">
        <ele>897</ele>
        <time>2022-07-29T09:01:32Z</time>
      </trkpt>
      <trkpt lat="48.02356" lon="6.84252">
        <ele>897</ele>
        <time>2022-07-29T09:01:33Z</time>
      </trkpt>
      <trkpt lat="48.02355" lon="6.84254">
        <ele>897.4</ele>
        <time>2022-07-29T09:01:34Z</time>
      </trkpt>
      <trkpt lat="48.02355" lon="6.84255">
        <ele>897.4</ele>
        <time>2022-07-29T09:01:35Z</time>
      </trkpt>
      <trkpt lat="48.02354" lon="6.84257">
        <ele>897.6</ele>
        <time>2022-07-29T09:01:36Z</time>
      </trkpt>
      <trkpt lat="48.02353" lon="6.84259">
        <ele>897.6</ele>
        <time>2022-07-29T09:01:37Z</time>
      </trkpt>
      <trkpt lat="48.02352" lon="6.84261">
        <ele>897.8</ele>
        <time>2022-07-29T09:01:38Z</time>
      </trkpt>
      <trkpt lat="48.02352" lon="6.84263">
        <ele>898</ele>
        <time>2022-07-29T09:01:39Z</time>
      </trkpt>
      <trkpt lat="48.02351" lon="6.84264">
        <ele>898</ele>
        <time>2022-07-29T09:01:40Z</time>
      </trkpt>
      <trkpt lat="48.02351" lon="6.84266">
        <ele>898.2</ele>
        <time>2022-07-29T09:01:41Z</time>
      </trkpt>
      <trkpt lat="48.0235" lon="6.84268">
        <ele>898.2</ele>
        <time>2022-07-29T09:01:42Z</time>
      </trkpt>
      <trkpt lat="48.0235" lon="6.8427">
        <ele>898.4</ele>
        <time>2022-07-29T09:01:43Z</time>
      </trkpt>
      <trkpt lat="48.02349" lon="6.84272">
        <ele>898.6</ele>
        <time>2022-07-29T09:01:44Z</time>
      </trkpt>
      <trkpt lat="48.02348" lon="6.84274">
        <ele>898.8</ele>
        <time>2022-07-29T09:01:45Z</time>
      </trkpt>
      <trkpt lat="48.02347" lon="6.84276">
        <ele>898.8</ele>
        <time>2022-07-29T09:01:46Z</time>
      </trkpt>
      <trkpt lat="48.02346" lon="6.84277">
        <ele>899</ele>
        <time>2022-07-29T09:01:47Z</time>
      </trkpt>
      <trkpt lat="48.02346" lon="6.8428">
        <ele>899</ele>
        <time>2022-07-29T09:01:48Z</time>
      </trkpt>
      <trkpt lat="48.02345" lon="6.84282">
        <ele>899.2</ele>
        <time>2022-07-29T09:01:49Z</time>
      </trkpt>
      <trkpt lat="48.02345" lon="6.84284">
        <ele>899.4</ele>
        <time>2022-07-29T09:01:50Z</time>
      </trkpt>
      <trkpt lat="48.02344" lon="6.84286">
        <ele>899.4</ele>
        <time>2022-07-29T09:01:51Z</time>
      </trkpt>
      <trkpt lat="48.02344" lon="6.84288">
        <ele>899.6</ele>
        <time>2022-07-29T09:01:52Z</time>
      </trkpt>
      <trkpt lat="48.02344" lon="6.84289">
        <ele>899.8</ele>
        <time>2022-07-29T09:01:53Z</time>
      </trkpt>
      <trkpt lat="48.02344" lon="6.84291">
        <ele>899.8</ele>
        <time>2022-07-29T09:01:54Z</time>
      </trkpt>
      <trkpt lat="48.02344" lon="6.84293">
        <ele>900</ele>
        <time>2022-07-29T09:01:55Z</time>
      </trkpt>
      <trkpt lat="48.02344" lon="6.84295">
        <ele>900</ele>
        <time>2022-07-29T09:01:56Z</time>
      </trkpt>
      <trkpt lat="48.02343" lon="6.84297">
        <ele>900.2</ele>
        <time>2022-07-29T09:01:57Z</time>
      </trkpt>
      <trkpt lat="48.02343" lon="6.84299">
        <ele>900.4</ele>
        <time>2022-07-29T09:01:58Z</time>
      </trkpt>
      <trkpt lat="48.02342" lon="6.84301">
        <ele>900.4</ele>
        <time>2022-07-29T09:01:59Z</time>
      </trkpt>
      <trkpt lat="48.02342" lon="6.84303">
        <ele>900.6</ele>
        <time>2022-07-29T09:02:00Z</time>
      </trkpt>
      <trkpt lat="48.02342" lon="6.84304">
        <ele>901</ele>
        <time>2022-07-29T09:02:01Z</time>
      </trkpt>
      <trkpt lat="48.02342" lon="6.84307">
        <ele>901.2</ele>
        <time>2022-07-29T09:02:02Z</time>
      </trkpt>
      <trkpt lat="48.02341" lon="6.84309">
        <ele>901.2</ele>
        <time>2022-07-29T09:02:03Z</time>
      </trkpt>
      <trkpt lat="48.02341" lon="6.84312">
        <ele>901.6</ele>
        <time>2022-07-29T09:02:04Z</time>
      </trkpt>
      <trkpt lat="48.02341" lon="6.84314">
        <ele>901.6</ele>
        <time>2022-07-29T09:02:05Z</time>
      </trkpt>
      <trkpt lat="48.02341" lon="6.84314">
        <ele>901.8</ele>
        <time>2022-07-29T09:02:06Z</time>
      </trkpt>
      <trkpt lat="48.02341" lon="6.84314">
        <ele>901.8</ele>
        <time>2022-07-29T09:02:07Z</time>
      </trkpt>
      <trkpt lat="48.02341" lon="6.84315">
        <ele>902</ele>
        <time>2022-07-29T09:02:08Z</time>
      </trkpt>
      <trkpt lat="48.02341" lon="6.84317">
        <ele>902.2</ele>
        <time>2022-07-29T09:02:09Z</time>
      </trkpt>
      <trkpt lat="48.02341" lon="6.84318">
        <ele>902.2</ele>
        <time>2022-07-29T09:02:10Z</time>
      </trkpt>
      <trkpt lat="48.02341" lon="6.8432">
        <ele>902.4</ele>
        <time>2022-07-29T09:02:11Z</time>
      </trkpt>
      <trkpt lat="48.02341" lon="6.84323">
        <ele>902.6</ele>
        <time>2022-07-29T09:02:12Z</time>
      </trkpt>
      <trkpt lat="48.0234" lon="6.84326">
        <ele>903</ele>
        <time>2022-07-29T09:02:13Z</time>
      </trkpt>
      <trkpt lat="48.0234" lon="6.84329">
        <ele>903.2</ele>
        <time>2022-07-29T09:02:14Z</time>
      </trkpt>
      <trkpt lat="48.02339" lon="6.84332">
        <ele>903.4</ele>
        <time>2022-07-29T09:02:15Z</time>
      </trkpt>
      <trkpt lat="48.02339" lon="6.84334">
        <ele>903.6</ele>
        <time>2022-07-29T09:02:16Z</time>
      </trkpt>
      <trkpt lat="48.02339" lon="6.84336">
        <ele>903.6</ele>
        <time>2022-07-29T09:02:17Z</time>
      </trkpt>
      <trkpt lat="48.02338" lon="6.84338">
        <ele>903.8</ele>
        <time>2022-07-29T09:02:18Z</time>
      </trkpt>
      <trkpt lat="48.02338" lon="6.8434">
        <ele>904</ele>
        <time>2022-07-29T09:02:19Z</time>
      </trkpt>
      <trkpt lat="48.02337" lon="6.84343">
        <ele>904.2</ele>
        <time>2022-07-29T09:02:20Z</time>
      </trkpt>
      <trkpt lat="48.02337" lon="6.84345">
        <ele>904.2</ele>
        <time>2022-07-29T09:02:21Z</time>
      </trkpt>
      <trkpt lat="48.02336" lon="6.84348">
        <ele>904.4</ele>
        <time>2022-07-29T09:02:22Z</time>
      </trkpt>
      <trkpt lat="48.02336" lon="6.8435">
        <ele>904.4</ele>
        <time>2022-07-29T09:02:23Z</time>
      </trkpt>
      <trkpt lat="48.02335" lon="6.84352">
        <ele>904.6</ele>
        <time>2022-07-29T09:02:24Z</time>
      </trkpt>
      <trkpt lat="48.02335" lon="6.84355">
        <ele>904.6</ele>
        <time>2022-07-29T09:02:25Z</time>
      </trkpt>
      <trkpt lat="48.02334" lon="6.84357">
        <ele>904.8</ele>
        <time>2022-07-29T09:02:26Z</time>
      </trkpt>
      <trkpt lat="48.02333" lon="6.84359">
        <ele>904.8</ele>
        <time>2022-07-29T09:02:27Z</time>
      </trkpt>
      <trkpt lat="48.02332" lon="6.84361">
        <ele>905.2</ele>
        <time>2022-07-29T09:02:28Z</time>
      </trkpt>
      <trkpt lat="48.02332" lon="6.84365">
        <ele>905.4</ele>
        <time>2022-07-29T09:02:29Z</time>
      </trkpt>
      <trkpt lat="48.02331" lon="6.84367">
        <ele>905.6</ele>
        <time>2022-07-29T09:02:30Z</time>
      </trkpt>
      <trkpt lat="48.02331" lon="6.84368">
        <ele>906</ele>
        <time>2022-07-29T09:02:31Z</time>
      </trkpt>
      <trkpt lat="48.0233" lon="6.84369">
        <ele>906</ele>
        <time>2022-07-29T09:02:32Z</time>
      </trkpt>
      <trkpt lat="48.0233" lon="6.84371">
        <ele>906.4</ele>
        <time>2022-07-29T09:02:33Z</time>
      </trkpt>
      <trkpt lat="48.02329" lon="6.84372">
        <ele>906.6</ele>
        <time>2022-07-29T09:02:34Z</time>
      </trkpt>
      <trkpt lat="48.02328" lon="6.84374">
        <ele>906.8</ele>
        <time>2022-07-29T09:02:35Z</time>
      </trkpt>
      <trkpt lat="48.02328" lon="6.84376">
        <ele>906.8</ele>
        <time>2022-07-29T09:02:36Z</time>
      </trkpt>
      <trkpt lat="48.02328" lon="6.84377">
        <ele>907</ele>
        <time>2022-07-29T09:02:37Z</time>
      </trkpt>
      <trkpt lat="48.02327" lon="6.84378">
        <ele>907.4</ele>
        <time>2022-07-29T09:02:38Z</time>
      </trkpt>
      <trkpt lat="48.02326" lon="6.8438">
        <ele>907.6</ele>
        <time>2022-07-29T09:02:39Z</time>
      </trkpt>
      <trkpt lat="48.02326" lon="6.84382">
        <ele>907.8</ele>
        <time>2022-07-29T09:02:40Z</time>
      </trkpt>
      <trkpt lat="48.02325" lon="6.84384">
        <ele>907.8</ele>
        <time>2022-07-29T09:02:41Z</time>
      </trkpt>
      <trkpt lat="48.02325" lon="6.84384">
        <ele>908.2</ele>
        <time>2022-07-29T09:02:42Z</time>
      </trkpt>
      <trkpt lat="48.02324" lon="6.84385">
        <ele>908.2</ele>
        <time>2022-07-29T09:02:43Z</time>
      </trkpt>
      <trkpt lat="48.02324" lon="6.84386">
        <ele>908.4</ele>
        <time>2022-07-29T09:02:44Z</time>
      </trkpt>
      <trkpt lat="48.02323" lon="6.84388">
        <ele>908.4</ele>
        <time>2022-07-29T09:02:45Z</time>
      </trkpt>
      <trkpt lat="48.02322" lon="6.84389">
        <ele>908.6</ele>
        <time>2022-07-29T09:02:46Z</time>
      </trkpt>
      <trkpt lat="48.02321" lon="6.8439">
        <ele>908.8</ele>
        <time>2022-07-29T09:02:47Z</time>
      </trkpt>
      <trkpt lat="48.02321" lon="6.84392">
        <ele>908.8</ele>
        <time>2022-07-29T09:02:48Z</time>
      </trkpt>
      <trkpt lat="48.0232" lon="6.84394">
        <ele>908.8</ele>
        <time>2022-07-29T09:02:49Z</time>
      </trkpt>
      <trkpt lat="48.0232" lon="6.84397">
        <ele>909</ele>
        <time>2022-07-29T09:02:50Z</time>
      </trkpt>
      <trkpt lat="48.02319" lon="6.844">
        <ele>909.2</ele>
        <time>2022-07-29T09:02:51Z</time>
      </trkpt>
      <trkpt lat="48.02319" lon="6.84402">
        <ele>909.4</ele>
        <time>2022-07-29T09:02:52Z</time>
      </trkpt>
      <trkpt lat="48.02319" lon="6.84404">
        <ele>909.6</ele>
        <time>2022-07-29T09:02:53Z</time>
      </trkpt>
      <trkpt lat="48.02318" lon="6.84406">
        <ele>909.6</ele>
        <time>2022-07-29T09:02:54Z</time>
      </trkpt>
      <trkpt lat="48.02318" lon="6.84408">
        <ele>909.8</ele>
        <time>2022-07-29T09:02:55Z</time>
      </trkpt>
      <trkpt lat="48.02318" lon="6.84409">
        <ele>910</ele>
        <time>2022-07-29T09:02:56Z</time>
      </trkpt>
      <trkpt lat="48.02317" lon="6.84412">
        <ele>910</ele>
        <time>2022-07-29T09:02:57Z</time>
      </trkpt>
      <trkpt lat="48.02317" lon="6.84414">
        <ele>910.4</ele>
        <time>2022-07-29T09:02:58Z</time>
      </trkpt>
      <trkpt lat="48.02317" lon="6.84415">
        <ele>910.6</ele>
        <time>2022-07-29T09:02:59Z</time>
      </trkpt>
      <trkpt lat="48.02317" lon="6.84417">
        <ele>910.8</ele>
        <time>2022-07-29T09:03:00Z</time>
      </trkpt>
      <trkpt lat="48.02316" lon="6.84419">
        <ele>910.8</ele>
        <time>2022-07-29T09:03:01Z</time>
      </trkpt>
      <trkpt lat="48.02315" lon="6.84421">
        <ele>911</ele>
        <time>2022-07-29T09:03:02Z</time>
      </trkpt>
      <trkpt lat="48.02315" lon="6.84424">
        <ele>911</ele>
        <time>2022-07-29T09:03:03Z</time>
      </trkpt>
      <trkpt lat="48.02315" lon="6.84425">
        <ele>911.2</ele>
        <time>2022-07-29T09:03:04Z</time>
      </trkpt>
      <trkpt lat="48.02314" lon="6.84427">
        <ele>911.4</ele>
        <time>2022-07-29T09:03:05Z</time>
      </trkpt>
      <trkpt lat="48.02314" lon="6.84429">
        <ele>911.4</ele>
        <time>2022-07-29T09:03:06Z</time>
      </trkpt>
      <trkpt lat="48.02314" lon="6.8443">
        <ele>911.4</ele>
        <time>2022-07-29T09:03:07Z</time>
      </trkpt>
      <trkpt lat="48.02313" lon="6.84431">
        <ele>911.6</ele>
        <time>2022-07-29T09:03:08Z</time>
      </trkpt>
      <trkpt lat="48.02312" lon="6.84432">
        <ele>911.8</ele>
        <time>2022-07-29T09:03:09Z</time>
      </trkpt>
      <trkpt lat="48.02312" lon="6.84434">
        <ele>912</ele>
        <time>2022-07-29T09:03:10Z</time>
      </trkpt>
      <trkpt lat="48.02312" lon="6.84438">
        <ele>912.4</ele>
        <time>2022-07-29T09:03:11Z</time>
      </trkpt>
      <trkpt lat="48.02312" lon="6.8444">
        <ele>912.4</ele>
        <time>2022-07-29T09:03:12Z</time>
      </trkpt>
      <trkpt lat="48.02312" lon="6.84441">
        <ele>912.8</ele>
        <time>2022-07-29T09:03:13Z</time>
      </trkpt>
      <trkpt lat="48.02311" lon="6.84443">
        <ele>912.8</ele>
        <time>2022-07-29T09:03:14Z</time>
      </trkpt>
      <trkpt lat="48.0231" lon="6.84444">
        <ele>913</ele>
        <time>2022-07-29T09:03:15Z</time>
      </trkpt>
      <trkpt lat="48.02309" lon="6.84446">
        <ele>913.2</ele>
        <time>2022-07-29T09:03:16Z</time>
      </trkpt>
      <trkpt lat="48.02309" lon="6.84447">
        <ele>913.2</ele>
        <time>2022-07-29T09:03:17Z</time>
      </trkpt>
      <trkpt lat="48.02309" lon="6.84449">
        <ele>913.4</ele>
        <time>2022-07-29T09:03:18Z</time>
      </trkpt>
      <trkpt lat="48.02309" lon="6.8445">
        <ele>913.6</ele>
        <time>2022-07-29T09:03:19Z</time>
      </trkpt>
      <trkpt lat="48.02308" lon="6.84452">
        <ele>913.8</ele>
        <time>2022-07-29T09:03:20Z</time>
      </trkpt>
      <trkpt lat="48.02308" lon="6.84453">
        <ele>913.8</ele>
        <time>2022-07-29T09:03:21Z</time>
      </trkpt>
      <trkpt lat="48.02308" lon="6.84456">
        <ele>914</ele>
        <time>2022-07-29T09:03:22Z</time>
      </trkpt>
      <trkpt lat="48.02308" lon="6.84457">
        <ele>914.2</ele>
        <time>2022-07-29T09:03:23Z</time>
      </trkpt>
      <trkpt lat="48.02307" lon="6.8446">
        <ele>914.2</ele>
        <time>2022-07-29T09:03:24Z</time>
      </trkpt>
      <trkpt lat="48.02307" lon="6.84462">
        <ele>914.4</ele>
        <time>2022-07-29T09:03:25Z</time>
      </trkpt>
      <trkpt lat="48.02307" lon="6.84465">
        <ele>914.4</ele>
        <time>2022-07-29T09:03:26Z</time>
      </trkpt>
      <trkpt lat="48.02306" lon="6.84468">
        <ele>914.8</ele>
        <time>2022-07-29T09:03:27Z</time>
      </trkpt>
      <trkpt lat="48.02305" lon="6.8447">
        <ele>914.6</ele>
        <time>2022-07-29T09:03:28Z</time>
      </trkpt>
      <trkpt lat="48.02304" lon="6.84474">
        <ele>915</ele>
        <time>2022-07-29T09:03:29Z</time>
      </trkpt>
      <trkpt lat="48.02302" lon="6.84477">
        <ele>915</ele>
        <time>2022-07-29T09:03:30Z</time>
      </trkpt>
      <trkpt lat="48.02302" lon="6.84479">
        <ele>915.2</ele>
        <time>2022-07-29T09:03:31Z</time>
      </trkpt>
      <trkpt lat="48.02301" lon="6.84482">
        <ele>915.2</ele>
        <time>2022-07-29T09:03:32Z</time>
      </trkpt>
      <trkpt lat="48.02301" lon="6.84486">
        <ele>915.4</ele>
        <time>2022-07-29T09:03:33Z</time>
      </trkpt>
      <trkpt lat="48.02301" lon="6.84488">
        <ele>915.4</ele>
        <time>2022-07-29T09:03:34Z</time>
      </trkpt>
      <trkpt lat="48.02301" lon="6.84492">
        <ele>915.4</ele>
        <time>2022-07-29T09:03:35Z</time>
      </trkpt>
      <trkpt lat="48.023" lon="6.84495">
        <ele>915.4</ele>
        <time>2022-07-29T09:03:36Z</time>
      </trkpt>
      <trkpt lat="48.023" lon="6.84498">
        <ele>915.8</ele>
        <time>2022-07-29T09:03:37Z</time>
      </trkpt>
      <trkpt lat="48.02301" lon="6.845">
        <ele>915.8</ele>
        <time>2022-07-29T09:03:38Z</time>
      </trkpt>
      <trkpt lat="48.02301" lon="6.84504">
        <ele>915.8</ele>
        <time>2022-07-29T09:03:39Z</time>
      </trkpt>
      <trkpt lat="48.02301" lon="6.84507">
        <ele>915.8</ele>
        <time>2022-07-29T09:03:40Z</time>
      </trkpt>
      <trkpt lat="48.02301" lon="6.8451">
        <ele>916</ele>
        <time>2022-07-29T09:03:41Z</time>
      </trkpt>
      <trkpt lat="48.02299" lon="6.84513">
        <ele>916.2</ele>
        <time>2022-07-29T09:03:42Z</time>
      </trkpt>
      <trkpt lat="48.02298" lon="6.84516">
        <ele>916.2</ele>
        <time>2022-07-29T09:03:43Z</time>
      </trkpt>
      <trkpt lat="48.02298" lon="6.84519">
        <ele>916.4</ele>
        <time>2022-07-29T09:03:44Z</time>
      </trkpt>
      <trkpt lat="48.02298" lon="6.8452">
        <ele>916.4</ele>
        <time>2022-07-29T09:03:45Z</time>
      </trkpt>
      <trkpt lat="48.02299" lon="6.84521">
        <ele>916.6</ele>
        <time>2022-07-29T09:03:46Z</time>
      </trkpt>
      <trkpt lat="48.02299" lon="6.84521">
        <ele>916.6</ele>
        <time>2022-07-29T09:03:47Z</time>
      </trkpt>
      <trkpt lat="48.02299" lon="6.84521">
        <ele>916.8</ele>
        <time>2022-07-29T09:03:49Z</time>
      </trkpt>
      <trkpt lat="48.02299" lon="6.84522">
        <ele>917</ele>
        <time>2022-07-29T09:03:56Z</time>
      </trkpt>
      <trkpt lat="48.023" lon="6.84525">
        <ele>917</ele>
        <time>2022-07-29T09:03:59Z</time>
      </trkpt>
      <trkpt lat="48.02301" lon="6.84525">
        <ele>917</ele>
        <time>2022-07-29T09:04:00Z</time>
      </trkpt>
      <trkpt lat="48.02301" lon="6.84526">
        <ele>917</ele>
        <time>2022-07-29T09:04:01Z</time>
      </trkpt>
      <trkpt lat="48.02301" lon="6.84526">
        <ele>917</ele>
        <time>2022-07-29T09:04:02Z</time>
      </trkpt>
      <trkpt lat="48.02301" lon="6.84527">
        <ele>917</ele>
        <time>2022-07-29T09:04:03Z</time>
      </trkpt>
      <trkpt lat="48.023" lon="6.8453">
        <ele>917</ele>
        <time>2022-07-29T09:04:04Z</time>
      </trkpt>
      <trkpt lat="48.023" lon="6.84532">
        <ele>917</ele>
        <time>2022-07-29T09:04:06Z</time>
      </trkpt>
      <trkpt lat="48.023" lon="6.84534">
        <ele>917</ele>
        <time>2022-07-29T09:04:07Z</time>
      </trkpt>
      <trkpt lat="48.023" lon="6.84536">
        <ele>917</ele>
        <time>2022-07-29T09:04:08Z</time>
      </trkpt>
      <trkpt lat="48.023" lon="6.84541">
        <ele>917</ele>
        <time>2022-07-29T09:04:10Z</time>
      </trkpt>
      <trkpt lat="48.02301" lon="6.84543">
        <ele>917</ele>
        <time>2022-07-29T09:04:11Z</time>
      </trkpt>
      <trkpt lat="48.02301" lon="6.84555">
        <ele>917</ele>
        <time>2022-07-29T09:04:15Z</time>
      </trkpt>
      <trkpt lat="48.02301" lon="6.84567">
        <ele>917</ele>
        <time>2022-07-29T09:04:18Z</time>
      </trkpt>
      <trkpt lat="48.02301" lon="6.84572">
        <ele>916.8</ele>
        <time>2022-07-29T09:04:19Z</time>
      </trkpt>
      <trkpt lat="48.023" lon="6.84578">
        <ele>916.8</ele>
        <time>2022-07-29T09:04:20Z</time>
      </trkpt>
      <trkpt lat="48.02299" lon="6.84584">
        <ele>916.6</ele>
        <time>2022-07-29T09:04:21Z</time>
      </trkpt>
      <trkpt lat="48.02296" lon="6.84591">
        <ele>916.6</ele>
        <time>2022-07-29T09:04:22Z</time>
      </trkpt>
      <trkpt lat="48.02293" lon="6.84597">
        <ele>916.4</ele>
        <time>2022-07-29T09:04:23Z</time>
      </trkpt>
      <trkpt lat="48.02291" lon="6.84603">
        <ele>916</ele>
        <time>2022-07-29T09:04:24Z</time>
      </trkpt>
      <trkpt lat="48.02286" lon="6.84608">
        <ele>915.6</ele>
        <time>2022-07-29T09:04:26Z</time>
      </trkpt>
      <trkpt lat="48.02282" lon="6.84611">
        <ele>915.4</ele>
        <time>2022-07-29T09:04:27Z</time>
      </trkpt>
      <trkpt lat="48.0228" lon="6.84612">
        <ele>914.8</ele>
        <time>2022-07-29T09:04:28Z</time>
      </trkpt>
      <trkpt lat="48.02278" lon="6.84614">
        <ele>914.8</ele>
        <time>2022-07-29T09:04:29Z</time>
      </trkpt>
      <trkpt lat="48.02275" lon="6.84616">
        <ele>914.6</ele>
        <time>2022-07-29T09:04:30Z</time>
      </trkpt>
      <trkpt lat="48.02273" lon="6.84616">
        <ele>914.4</ele>
        <time>2022-07-29T09:04:31Z</time>
      </trkpt>
      <trkpt lat="48.0227" lon="6.84619">
        <ele>914.4</ele>
        <time>2022-07-29T09:04:32Z</time>
      </trkpt>
      <trkpt lat="48.02267" lon="6.84622">
        <ele>914.4</ele>
        <time>2022-07-29T09:04:33Z</time>
      </trkpt>
      <trkpt lat="48.02255" lon="6.84631">
        <ele>914.4</ele>
        <time>2022-07-29T09:04:37Z</time>
      </trkpt>
      <trkpt lat="48.02249" lon="6.84632">
        <ele>914.2</ele>
        <time>2022-07-29T09:04:39Z</time>
      </trkpt>
      <trkpt lat="48.02237" lon="6.84635">
        <ele>914.2</ele>
        <time>2022-07-29T09:04:43Z</time>
      </trkpt>
      <trkpt lat="48.02227" lon="6.84642">
        <ele>914.2</ele>
        <time>2022-07-29T09:04:46Z</time>
      </trkpt>
      <trkpt lat="48.02226" lon="6.84645">
        <ele>914.2</ele>
        <time>2022-07-29T09:04:47Z</time>
      </trkpt>
      <trkpt lat="48.02224" lon="6.84646">
        <ele>914.2</ele>
        <time>2022-07-29T09:04:48Z</time>
      </trkpt>
      <trkpt lat="48.02223" lon="6.84648">
        <ele>914.2</ele>
        <time>2022-07-29T09:04:49Z</time>
      </trkpt>
      <trkpt lat="48.02214" lon="6.84662">
        <ele>914.6</ele>
        <time>2022-07-29T09:04:54Z</time>
      </trkpt>
      <trkpt lat="48.02213" lon="6.84664">
        <ele>915</ele>
        <time>2022-07-29T09:04:55Z</time>
      </trkpt>
      <trkpt lat="48.02212" lon="6.84666">
        <ele>915</ele>
        <time>2022-07-29T09:04:56Z</time>
      </trkpt>
      <trkpt lat="48.02209" lon="6.8467">
        <ele>915.2</ele>
        <time>2022-07-29T09:04:57Z</time>
      </trkpt>
      <trkpt lat="48.02208" lon="6.84672">
        <ele>915.6</ele>
        <time>2022-07-29T09:04:58Z</time>
      </trkpt>
      <trkpt lat="48.02207" lon="6.84674">
        <ele>915.8</ele>
        <time>2022-07-29T09:04:59Z</time>
      </trkpt>
      <trkpt lat="48.02207" lon="6.84675">
        <ele>916.2</ele>
        <time>2022-07-29T09:05:00Z</time>
      </trkpt>
      <trkpt lat="48.02206" lon="6.84676">
        <ele>916.4</ele>
        <time>2022-07-29T09:05:01Z</time>
      </trkpt>
      <trkpt lat="48.02205" lon="6.84678">
        <ele>916.4</ele>
        <time>2022-07-29T09:05:02Z</time>
      </trkpt>
      <trkpt lat="48.02202" lon="6.84679">
        <ele>916.6</ele>
        <time>2022-07-29T09:05:04Z</time>
      </trkpt>
      <trkpt lat="48.02201" lon="6.84681">
        <ele>917</ele>
        <time>2022-07-29T09:05:05Z</time>
      </trkpt>
      <trkpt lat="48.02199" lon="6.84684">
        <ele>917.4</ele>
        <time>2022-07-29T09:05:06Z</time>
      </trkpt>
      <trkpt lat="48.02199" lon="6.84687">
        <ele>917.6</ele>
        <time>2022-07-29T09:05:07Z</time>
      </trkpt>
      <trkpt lat="48.02197" lon="6.8469">
        <ele>917.8</ele>
        <time>2022-07-29T09:05:08Z</time>
      </trkpt>
      <trkpt lat="48.02195" lon="6.84692">
        <ele>917.8</ele>
        <time>2022-07-29T09:05:09Z</time>
      </trkpt>
      <trkpt lat="48.02194" lon="6.84693">
        <ele>918</ele>
        <time>2022-07-29T09:05:10Z</time>
      </trkpt>
      <trkpt lat="48.02192" lon="6.84696">
        <ele>918</ele>
        <time>2022-07-29T09:05:11Z</time>
      </trkpt>
      <trkpt lat="48.02189" lon="6.84698">
        <ele>918</ele>
        <time>2022-07-29T09:05:12Z</time>
      </trkpt>
      <trkpt lat="48.02186" lon="6.84701">
        <ele>918.2</ele>
        <time>2022-07-29T09:05:13Z</time>
      </trkpt>
      <trkpt lat="48.02185" lon="6.84703">
        <ele>918.2</ele>
        <time>2022-07-29T09:05:14Z</time>
      </trkpt>
      <trkpt lat="48.02184" lon="6.84706">
        <ele>918.4</ele>
        <time>2022-07-29T09:05:15Z</time>
      </trkpt>
      <trkpt lat="48.02182" lon="6.84707">
        <ele>918.6</ele>
        <time>2022-07-29T09:05:16Z</time>
      </trkpt>
      <trkpt lat="48.0218" lon="6.84711">
        <ele>918.6</ele>
        <time>2022-07-29T09:05:17Z</time>
      </trkpt>
      <trkpt lat="48.02177" lon="6.84715">
        <ele>918.8</ele>
        <time>2022-07-29T09:05:18Z</time>
      </trkpt>
      <trkpt lat="48.02174" lon="6.84719">
        <ele>918.8</ele>
        <time>2022-07-29T09:05:19Z</time>
      </trkpt>
      <trkpt lat="48.02172" lon="6.8472">
        <ele>918.8</ele>
        <time>2022-07-29T09:05:20Z</time>
      </trkpt>
      <trkpt lat="48.02172" lon="6.84722">
        <ele>918.8</ele>
        <time>2022-07-29T09:05:21Z</time>
      </trkpt>
      <trkpt lat="48.0217" lon="6.84726">
        <ele>918.8</ele>
        <time>2022-07-29T09:05:22Z</time>
      </trkpt>
      <trkpt lat="48.02168" lon="6.84727">
        <ele>918.8</ele>
        <time>2022-07-29T09:05:23Z</time>
      </trkpt>
      <trkpt lat="48.02166" lon="6.84728">
        <ele>918.8</ele>
        <time>2022-07-29T09:05:24Z</time>
      </trkpt>
      <trkpt lat="48.02162" lon="6.84729">
        <ele>918.6</ele>
        <time>2022-07-29T09:05:25Z</time>
      </trkpt>
      <trkpt lat="48.02157" lon="6.84731">
        <ele>918.6</ele>
        <time>2022-07-29T09:05:26Z</time>
      </trkpt>
      <trkpt lat="48.0215" lon="6.84734">
        <ele>918.4</ele>
        <time>2022-07-29T09:05:27Z</time>
      </trkpt>
      <trkpt lat="48.02147" lon="6.84737">
        <ele>918.4</ele>
        <time>2022-07-29T09:05:28Z</time>
      </trkpt>
      <trkpt lat="48.02142" lon="6.8474">
        <ele>918.2</ele>
        <time>2022-07-29T09:05:29Z</time>
      </trkpt>
      <trkpt lat="48.02138" lon="6.84743">
        <ele>918</ele>
        <time>2022-07-29T09:05:30Z</time>
      </trkpt>
      <trkpt lat="48.02123" lon="6.84754">
        <ele>917.2</ele>
        <time>2022-07-29T09:05:33Z</time>
      </trkpt>
      <trkpt lat="48.02111" lon="6.84767">
        <ele>916.8</ele>
        <time>2022-07-29T09:05:35Z</time>
      </trkpt>
      <trkpt lat="48.02104" lon="6.84774">
        <ele>916.4</ele>
        <time>2022-07-29T09:05:36Z</time>
      </trkpt>
      <trkpt lat="48.0209" lon="6.84782">
        <ele>916</ele>
        <time>2022-07-29T09:05:38Z</time>
      </trkpt>
      <trkpt lat="48.02082" lon="6.84783">
        <ele>915.6</ele>
        <time>2022-07-29T09:05:39Z</time>
      </trkpt>
      <trkpt lat="48.02076" lon="6.84781">
        <ele>914.2</ele>
        <time>2022-07-29T09:05:40Z</time>
      </trkpt>
      <trkpt lat="48.0207" lon="6.84775">
        <ele>914</ele>
        <time>2022-07-29T09:05:41Z</time>
      </trkpt>
      <trkpt lat="48.02065" lon="6.8477">
        <ele>912.8</ele>
        <time>2022-07-29T09:05:42Z</time>
      </trkpt>
      <trkpt lat="48.02057" lon="6.84755">
        <ele>912.2</ele>
        <time>2022-07-29T09:05:44Z</time>
      </trkpt>
      <trkpt lat="48.02054" lon="6.84744">
        <ele>911.8</ele>
        <time>2022-07-29T09:05:45Z</time>
      </trkpt>
      <trkpt lat="48.02051" lon="6.84732">
        <ele>911.6</ele>
        <time>2022-07-29T09:05:46Z</time>
      </trkpt>
      <trkpt lat="48.02051" lon="6.8472">
        <ele>911.2</ele>
        <time>2022-07-29T09:05:47Z</time>
      </trkpt>
      <trkpt lat="48.02051" lon="6.84708">
        <ele>910.8</ele>
        <time>2022-07-29T09:05:48Z</time>
      </trkpt>
      <trkpt lat="48.02051" lon="6.84695">
        <ele>910</ele>
        <time>2022-07-29T09:05:49Z</time>
      </trkpt>
      <trkpt lat="48.02052" lon="6.84683">
        <ele>909.4</ele>
        <time>2022-07-29T09:05:50Z</time>
      </trkpt>
      <trkpt lat="48.02054" lon="6.84672">
        <ele>908.6</ele>
        <time>2022-07-29T09:05:51Z</time>
      </trkpt>
      <trkpt lat="48.02055" lon="6.84663">
        <ele>907.4</ele>
        <time>2022-07-29T09:05:52Z</time>
      </trkpt>
      <trkpt lat="48.02054" lon="6.84651">
        <ele>906.8</ele>
        <time>2022-07-29T09:05:53Z</time>
      </trkpt>
      <trkpt lat="48.02054" lon="6.84644">
        <ele>906.4</ele>
        <time>2022-07-29T09:05:54Z</time>
      </trkpt>
      <trkpt lat="48.02052" lon="6.84636">
        <ele>906.2</ele>
        <time>2022-07-29T09:05:55Z</time>
      </trkpt>
      <trkpt lat="48.0205" lon="6.84629">
        <ele>905.8</ele>
        <time>2022-07-29T09:05:56Z</time>
      </trkpt>
      <trkpt lat="48.02044" lon="6.84624">
        <ele>905.8</ele>
        <time>2022-07-29T09:05:57Z</time>
      </trkpt>
      <trkpt lat="48.02037" lon="6.84621">
        <ele>905.8</ele>
        <time>2022-07-29T09:05:58Z</time>
      </trkpt>
      <trkpt lat="48.02033" lon="6.84619">
        <ele>905.8</ele>
        <time>2022-07-29T09:05:59Z</time>
      </trkpt>
      <trkpt lat="48.02031" lon="6.84618">
        <ele>905.8</ele>
        <time>2022-07-29T09:06:00Z</time>
      </trkpt>
      <trkpt lat="48.02027" lon="6.84619">
        <ele>906</ele>
        <time>2022-07-29T09:06:01Z</time>
      </trkpt>
      <trkpt lat="48.02021" lon="6.8462">
        <ele>906</ele>
        <time>2022-07-29T09:06:02Z</time>
      </trkpt>
      <trkpt lat="48.02019" lon="6.8462">
        <ele>906.2</ele>
        <time>2022-07-29T09:06:03Z</time>
      </trkpt>
      <trkpt lat="48.02017" lon="6.8462">
        <ele>906.2</ele>
        <time>2022-07-29T09:06:04Z</time>
      </trkpt>
      <trkpt lat="48.02016" lon="6.84622">
        <ele>906.4</ele>
        <time>2022-07-29T09:06:05Z</time>
      </trkpt>
      <trkpt lat="48.02014" lon="6.84626">
        <ele>906.6</ele>
        <time>2022-07-29T09:06:06Z</time>
      </trkpt>
      <trkpt lat="48.02014" lon="6.84628">
        <ele>906.8</ele>
        <time>2022-07-29T09:06:07Z</time>
      </trkpt>
      <trkpt lat="48.02013" lon="6.84629">
        <ele>907</ele>
        <time>2022-07-29T09:06:08Z</time>
      </trkpt>
      <trkpt lat="48.02012" lon="6.84629">
        <ele>907.2</ele>
        <time>2022-07-29T09:06:09Z</time>
      </trkpt>
      <trkpt lat="48.02011" lon="6.84629">
        <ele>907.4</ele>
        <time>2022-07-29T09:06:10Z</time>
      </trkpt>
      <trkpt lat="48.02009" lon="6.8463">
        <ele>907.6</ele>
        <time>2022-07-29T09:06:11Z</time>
      </trkpt>
      <trkpt lat="48.02008" lon="6.84631">
        <ele>907.6</ele>
        <time>2022-07-29T09:06:12Z</time>
      </trkpt>
      <trkpt lat="48.02007" lon="6.84631">
        <ele>907.8</ele>
        <time>2022-07-29T09:06:13Z</time>
      </trkpt>
      <trkpt lat="48.02004" lon="6.84632">
        <ele>908</ele>
        <time>2022-07-29T09:06:15Z</time>
      </trkpt>
      <trkpt lat="48.02001" lon="6.84632">
        <ele>908.4</ele>
        <time>2022-07-29T09:06:16Z</time>
      </trkpt>
      <trkpt lat="48.01999" lon="6.84632">
        <ele>908.6</ele>
        <time>2022-07-29T09:06:17Z</time>
      </trkpt>
      <trkpt lat="48.01997" lon="6.84632">
        <ele>908.6</ele>
        <time>2022-07-29T09:06:18Z</time>
      </trkpt>
      <trkpt lat="48.01995" lon="6.84632">
        <ele>909</ele>
        <time>2022-07-29T09:06:19Z</time>
      </trkpt>
      <trkpt lat="48.01995" lon="6.84632">
        <ele>909</ele>
        <time>2022-07-29T09:06:20Z</time>
      </trkpt>
      <trkpt lat="48.01994" lon="6.84632">
        <ele>909.4</ele>
        <time>2022-07-29T09:06:21Z</time>
      </trkpt>
      <trkpt lat="48.01992" lon="6.84633">
        <ele>909.6</ele>
        <time>2022-07-29T09:06:22Z</time>
      </trkpt>
      <trkpt lat="48.01989" lon="6.84633">
        <ele>910.2</ele>
        <time>2022-07-29T09:06:24Z</time>
      </trkpt>
      <trkpt lat="48.01988" lon="6.84633">
        <ele>910.4</ele>
        <time>2022-07-29T09:06:25Z</time>
      </trkpt>
      <trkpt lat="48.01987" lon="6.84633">
        <ele>910.8</ele>
        <time>2022-07-29T09:06:26Z</time>
      </trkpt>
      <trkpt lat="48.01985" lon="6.84632">
        <ele>910.8</ele>
        <time>2022-07-29T09:06:27Z</time>
      </trkpt>
      <trkpt lat="48.01984" lon="6.84632">
        <ele>911</ele>
        <time>2022-07-29T09:06:28Z</time>
      </trkpt>
      <trkpt lat="48.01981" lon="6.84632">
        <ele>911.2</ele>
        <time>2022-07-29T09:06:29Z</time>
      </trkpt>
      <trkpt lat="48.01979" lon="6.84632">
        <ele>911.4</ele>
        <time>2022-07-29T09:06:30Z</time>
      </trkpt>
      <trkpt lat="48.01978" lon="6.84633">
        <ele>911.4</ele>
        <time>2022-07-29T09:06:31Z</time>
      </trkpt>
      <trkpt lat="48.01976" lon="6.84634">
        <ele>911.6</ele>
        <time>2022-07-29T09:06:32Z</time>
      </trkpt>
      <trkpt lat="48.01975" lon="6.84634">
        <ele>911.6</ele>
        <time>2022-07-29T09:06:33Z</time>
      </trkpt>
      <trkpt lat="48.01974" lon="6.84635">
        <ele>911.8</ele>
        <time>2022-07-29T09:06:34Z</time>
      </trkpt>
      <trkpt lat="48.01972" lon="6.84636">
        <ele>912</ele>
        <time>2022-07-29T09:06:35Z</time>
      </trkpt>
      <trkpt lat="48.01971" lon="6.84635">
        <ele>912.2</ele>
        <time>2022-07-29T09:06:36Z</time>
      </trkpt>
      <trkpt lat="48.0197" lon="6.84636">
        <ele>912.4</ele>
        <time>2022-07-29T09:06:37Z</time>
      </trkpt>
      <trkpt lat="48.01969" lon="6.84637">
        <ele>912.4</ele>
        <time>2022-07-29T09:06:38Z</time>
      </trkpt>
      <trkpt lat="48.01967" lon="6.84638">
        <ele>912.6</ele>
        <time>2022-07-29T09:06:39Z</time>
      </trkpt>
      <trkpt lat="48.01965" lon="6.84639">
        <ele>912.6</ele>
        <time>2022-07-29T09:06:40Z</time>
      </trkpt>
      <trkpt lat="48.01963" lon="6.84639">
        <ele>912.8</ele>
        <time>2022-07-29T09:06:41Z</time>
      </trkpt>
      <trkpt lat="48.01962" lon="6.8464">
        <ele>912.8</ele>
        <time>2022-07-29T09:06:42Z</time>
      </trkpt>
      <trkpt lat="48.0196" lon="6.8464">
        <ele>913.2</ele>
        <time>2022-07-29T09:06:43Z</time>
      </trkpt>
      <trkpt lat="48.01959" lon="6.8464">
        <ele>913.4</ele>
        <time>2022-07-29T09:06:44Z</time>
      </trkpt>
      <trkpt lat="48.01957" lon="6.8464">
        <ele>913.4</ele>
        <time>2022-07-29T09:06:45Z</time>
      </trkpt>
      <trkpt lat="48.01956" lon="6.84641">
        <ele>913.6</ele>
        <time>2022-07-29T09:06:46Z</time>
      </trkpt>
      <trkpt lat="48.01954" lon="6.84641">
        <ele>913.8</ele>
        <time>2022-07-29T09:06:47Z</time>
      </trkpt>
      <trkpt lat="48.01952" lon="6.84642">
        <ele>913.8</ele>
        <time>2022-07-29T09:06:48Z</time>
      </trkpt>
      <trkpt lat="48.01951" lon="6.84643">
        <ele>914</ele>
        <time>2022-07-29T09:06:49Z</time>
      </trkpt>
      <trkpt lat="48.01949" lon="6.84643">
        <ele>914</ele>
        <time>2022-07-29T09:06:50Z</time>
      </trkpt>
      <trkpt lat="48.01948" lon="6.84644">
        <ele>914</ele>
        <time>2022-07-29T09:06:51Z</time>
      </trkpt>
      <trkpt lat="48.01947" lon="6.84644">
        <ele>914</ele>
        <time>2022-07-29T09:06:52Z</time>
      </trkpt>
      <trkpt lat="48.01945" lon="6.84644">
        <ele>914.2</ele>
        <time>2022-07-29T09:06:53Z</time>
      </trkpt>
      <trkpt lat="48.01943" lon="6.84644">
        <ele>914.4</ele>
        <time>2022-07-29T09:06:54Z</time>
      </trkpt>
      <trkpt lat="48.0194" lon="6.84644">
        <ele>914.6</ele>
        <time>2022-07-29T09:06:55Z</time>
      </trkpt>
      <trkpt lat="48.01939" lon="6.84644">
        <ele>914.8</ele>
        <time>2022-07-29T09:06:56Z</time>
      </trkpt>
      <trkpt lat="48.01938" lon="6.84643">
        <ele>915</ele>
        <time>2022-07-29T09:06:57Z</time>
      </trkpt>
      <trkpt lat="48.01937" lon="6.84642">
        <ele>915</ele>
        <time>2022-07-29T09:06:58Z</time>
      </trkpt>
      <trkpt lat="48.01935" lon="6.84642">
        <ele>915.2</ele>
        <time>2022-07-29T09:06:59Z</time>
      </trkpt>
      <trkpt lat="48.01934" lon="6.84642">
        <ele>915.4</ele>
        <time>2022-07-29T09:07:00Z</time>
      </trkpt>
      <trkpt lat="48.01931" lon="6.84641">
        <ele>915.4</ele>
        <time>2022-07-29T09:07:01Z</time>
      </trkpt>
      <trkpt lat="48.0193" lon="6.84642">
        <ele>915.6</ele>
        <time>2022-07-29T09:07:02Z</time>
      </trkpt>
      <trkpt lat="48.01928" lon="6.84642">
        <ele>915.6</ele>
        <time>2022-07-29T09:07:03Z</time>
      </trkpt>
      <trkpt lat="48.01927" lon="6.84642">
        <ele>915.8</ele>
        <time>2022-07-29T09:07:04Z</time>
      </trkpt>
      <trkpt lat="48.01925" lon="6.84642">
        <ele>916</ele>
        <time>2022-07-29T09:07:05Z</time>
      </trkpt>
      <trkpt lat="48.01922" lon="6.84642">
        <ele>916.2</ele>
        <time>2022-07-29T09:07:06Z</time>
      </trkpt>
      <trkpt lat="48.0192" lon="6.84642">
        <ele>916.2</ele>
        <time>2022-07-29T09:07:07Z</time>
      </trkpt>
      <trkpt lat="48.01919" lon="6.84642">
        <ele>916.6</ele>
        <time>2022-07-29T09:07:08Z</time>
      </trkpt>
      <trkpt lat="48.01918" lon="6.84643">
        <ele>916.6</ele>
        <time>2022-07-29T09:07:09Z</time>
      </trkpt>
      <trkpt lat="48.01917" lon="6.84643">
        <ele>916.8</ele>
        <time>2022-07-29T09:07:10Z</time>
      </trkpt>
      <trkpt lat="48.01915" lon="6.84643">
        <ele>917</ele>
        <time>2022-07-29T09:07:11Z</time>
      </trkpt>
      <trkpt lat="48.01914" lon="6.84643">
        <ele>917</ele>
        <time>2022-07-29T09:07:12Z</time>
      </trkpt>
      <trkpt lat="48.01912" lon="6.84643">
        <ele>917.2</ele>
        <time>2022-07-29T09:07:13Z</time>
      </trkpt>
      <trkpt lat="48.01911" lon="6.84644">
        <ele>917.2</ele>
        <time>2022-07-29T09:07:14Z</time>
      </trkpt>
      <trkpt lat="48.0191" lon="6.84644">
        <ele>917.4</ele>
        <time>2022-07-29T09:07:15Z</time>
      </trkpt>
      <trkpt lat="48.01908" lon="6.84644">
        <ele>917.4</ele>
        <time>2022-07-29T09:07:16Z</time>
      </trkpt>
      <trkpt lat="48.01907" lon="6.84644">
        <ele>917.8</ele>
        <time>2022-07-29T09:07:17Z</time>
      </trkpt>
      <trkpt lat="48.01905" lon="6.84644">
        <ele>918</ele>
        <time>2022-07-29T09:07:18Z</time>
      </trkpt>
      <trkpt lat="48.01904" lon="6.84644">
        <ele>918</ele>
        <time>2022-07-29T09:07:19Z</time>
      </trkpt>
      <trkpt lat="48.01902" lon="6.84644">
        <ele>918.4</ele>
        <time>2022-07-29T09:07:20Z</time>
      </trkpt>
      <trkpt lat="48.01901" lon="6.84644">
        <ele>918.4</ele>
        <time>2022-07-29T09:07:21Z</time>
      </trkpt>
      <trkpt lat="48.01899" lon="6.84644">
        <ele>918.8</ele>
        <time>2022-07-29T09:07:22Z</time>
      </trkpt>
      <trkpt lat="48.01898" lon="6.84643">
        <ele>918.8</ele>
        <time>2022-07-29T09:07:23Z</time>
      </trkpt>
      <trkpt lat="48.01897" lon="6.84644">
        <ele>919</ele>
        <time>2022-07-29T09:07:24Z</time>
      </trkpt>
      <trkpt lat="48.01896" lon="6.84643">
        <ele>919.2</ele>
        <time>2022-07-29T09:07:25Z</time>
      </trkpt>
      <trkpt lat="48.01895" lon="6.84642">
        <ele>919.2</ele>
        <time>2022-07-29T09:07:26Z</time>
      </trkpt>
      <trkpt lat="48.01893" lon="6.84642">
        <ele>919.4</ele>
        <time>2022-07-29T09:07:27Z</time>
      </trkpt>
      <trkpt lat="48.01892" lon="6.84641">
        <ele>919.6</ele>
        <time>2022-07-29T09:07:28Z</time>
      </trkpt>
      <trkpt lat="48.0189" lon="6.84641">
        <ele>919.8</ele>
        <time>2022-07-29T09:07:29Z</time>
      </trkpt>
      <trkpt lat="48.01889" lon="6.8464">
        <ele>919.8</ele>
        <time>2022-07-29T09:07:30Z</time>
      </trkpt>
      <trkpt lat="48.01888" lon="6.8464">
        <ele>920</ele>
        <time>2022-07-29T09:07:31Z</time>
      </trkpt>
      <trkpt lat="48.01887" lon="6.84639">
        <ele>920</ele>
        <time>2022-07-29T09:07:32Z</time>
      </trkpt>
      <trkpt lat="48.01886" lon="6.84639">
        <ele>920.2</ele>
        <time>2022-07-29T09:07:33Z</time>
      </trkpt>
      <trkpt lat="48.01885" lon="6.84638">
        <ele>920.4</ele>
        <time>2022-07-29T09:07:34Z</time>
      </trkpt>
      <trkpt lat="48.01883" lon="6.84638">
        <ele>920.6</ele>
        <time>2022-07-29T09:07:35Z</time>
      </trkpt>
      <trkpt lat="48.01881" lon="6.84637">
        <ele>920.8</ele>
        <time>2022-07-29T09:07:36Z</time>
      </trkpt>
      <trkpt lat="48.0188" lon="6.84636">
        <ele>921</ele>
        <time>2022-07-29T09:07:37Z</time>
      </trkpt>
      <trkpt lat="48.0188" lon="6.84635">
        <ele>921.2</ele>
        <time>2022-07-29T09:07:38Z</time>
      </trkpt>
      <trkpt lat="48.01879" lon="6.84635">
        <ele>921.2</ele>
        <time>2022-07-29T09:07:39Z</time>
      </trkpt>
      <trkpt lat="48.01878" lon="6.84634">
        <ele>921.4</ele>
        <time>2022-07-29T09:07:40Z</time>
      </trkpt>
      <trkpt lat="48.01877" lon="6.84633">
        <ele>921.4</ele>
        <time>2022-07-29T09:07:41Z</time>
      </trkpt>
      <trkpt lat="48.01876" lon="6.84632">
        <ele>921.6</ele>
        <time>2022-07-29T09:07:42Z</time>
      </trkpt>
      <trkpt lat="48.01875" lon="6.84631">
        <ele>921.6</ele>
        <time>2022-07-29T09:07:43Z</time>
      </trkpt>
      <trkpt lat="48.01874" lon="6.8463">
        <ele>921.8</ele>
        <time>2022-07-29T09:07:44Z</time>
      </trkpt>
      <trkpt lat="48.01874" lon="6.84628">
        <ele>922</ele>
        <time>2022-07-29T09:07:45Z</time>
      </trkpt>
      <trkpt lat="48.01873" lon="6.84627">
        <ele>922.2</ele>
        <time>2022-07-29T09:07:46Z</time>
      </trkpt>
      <trkpt lat="48.01873" lon="6.84625">
        <ele>922.4</ele>
        <time>2022-07-29T09:07:47Z</time>
      </trkpt>
      <trkpt lat="48.01873" lon="6.84624">
        <ele>922.6</ele>
        <time>2022-07-29T09:07:48Z</time>
      </trkpt>
      <trkpt lat="48.01872" lon="6.84622">
        <ele>922.8</ele>
        <time>2022-07-29T09:07:49Z</time>
      </trkpt>
      <trkpt lat="48.01872" lon="6.8462">
        <ele>922.8</ele>
        <time>2022-07-29T09:07:50Z</time>
      </trkpt>
      <trkpt lat="48.01871" lon="6.84618">
        <ele>922.8</ele>
        <time>2022-07-29T09:07:51Z</time>
      </trkpt>
      <trkpt lat="48.01869" lon="6.84616">
        <ele>923</ele>
        <time>2022-07-29T09:07:52Z</time>
      </trkpt>
      <trkpt lat="48.01868" lon="6.84614">
        <ele>923</ele>
        <time>2022-07-29T09:07:53Z</time>
      </trkpt>
      <trkpt lat="48.01867" lon="6.84611">
        <ele>923.2</ele>
        <time>2022-07-29T09:07:54Z</time>
      </trkpt>
      <trkpt lat="48.01867" lon="6.84609">
        <ele>923.4</ele>
        <time>2022-07-29T09:07:55Z</time>
      </trkpt>
      <trkpt lat="48.01866" lon="6.84607">
        <ele>923.6</ele>
        <time>2022-07-29T09:07:56Z</time>
      </trkpt>
      <trkpt lat="48.01866" lon="6.84605">
        <ele>923.8</ele>
        <time>2022-07-29T09:07:57Z</time>
      </trkpt>
      <trkpt lat="48.01865" lon="6.84604">
        <ele>924</ele>
        <time>2022-07-29T09:07:58Z</time>
      </trkpt>
      <trkpt lat="48.01864" lon="6.84601">
        <ele>924</ele>
        <time>2022-07-29T09:07:59Z</time>
      </trkpt>
      <trkpt lat="48.01863" lon="6.84599">
        <ele>924.2</ele>
        <time>2022-07-29T09:08:00Z</time>
      </trkpt>
      <trkpt lat="48.01861" lon="6.84597">
        <ele>924.4</ele>
        <time>2022-07-29T09:08:01Z</time>
      </trkpt>
      <trkpt lat="48.0186" lon="6.84596">
        <ele>924.4</ele>
        <time>2022-07-29T09:08:02Z</time>
      </trkpt>
      <trkpt lat="48.01859" lon="6.84594">
        <ele>924.6</ele>
        <time>2022-07-29T09:08:03Z</time>
      </trkpt>
      <trkpt lat="48.01858" lon="6.84593">
        <ele>924.8</ele>
        <time>2022-07-29T09:08:04Z</time>
      </trkpt>
      <trkpt lat="48.01858" lon="6.84591">
        <ele>925</ele>
        <time>2022-07-29T09:08:05Z</time>
      </trkpt>
      <trkpt lat="48.01857" lon="6.84589">
        <ele>925</ele>
        <time>2022-07-29T09:08:06Z</time>
      </trkpt>
      <trkpt lat="48.01856" lon="6.84587">
        <ele>925.2</ele>
        <time>2022-07-29T09:08:07Z</time>
      </trkpt>
      <trkpt lat="48.01855" lon="6.84586">
        <ele>925.2</ele>
        <time>2022-07-29T09:08:08Z</time>
      </trkpt>
      <trkpt lat="48.01854" lon="6.84584">
        <ele>925.6</ele>
        <time>2022-07-29T09:08:09Z</time>
      </trkpt>
      <trkpt lat="48.01853" lon="6.84582">
        <ele>925.6</ele>
        <time>2022-07-29T09:08:10Z</time>
      </trkpt>
      <trkpt lat="48.01852" lon="6.84581">
        <ele>925.8</ele>
        <time>2022-07-29T09:08:11Z</time>
      </trkpt>
      <trkpt lat="48.0185" lon="6.84579">
        <ele>926</ele>
        <time>2022-07-29T09:08:12Z</time>
      </trkpt>
      <trkpt lat="48.01849" lon="6.84579">
        <ele>926.2</ele>
        <time>2022-07-29T09:08:13Z</time>
      </trkpt>
      <trkpt lat="48.01847" lon="6.84578">
        <ele>926.4</ele>
        <time>2022-07-29T09:08:14Z</time>
      </trkpt>
      <trkpt lat="48.01845" lon="6.84576">
        <ele>926.6</ele>
        <time>2022-07-29T09:08:15Z</time>
      </trkpt>
      <trkpt lat="48.01844" lon="6.84575">
        <ele>926.6</ele>
        <time>2022-07-29T09:08:16Z</time>
      </trkpt>
      <trkpt lat="48.01843" lon="6.84574">
        <ele>926.8</ele>
        <time>2022-07-29T09:08:17Z</time>
      </trkpt>
      <trkpt lat="48.01841" lon="6.84573">
        <ele>927</ele>
        <time>2022-07-29T09:08:18Z</time>
      </trkpt>
      <trkpt lat="48.0184" lon="6.84572">
        <ele>927.2</ele>
        <time>2022-07-29T09:08:19Z</time>
      </trkpt>
      <trkpt lat="48.01839" lon="6.8457">
        <ele>927.4</ele>
        <time>2022-07-29T09:08:20Z</time>
      </trkpt>
      <trkpt lat="48.01838" lon="6.84569">
        <ele>927.6</ele>
        <time>2022-07-29T09:08:21Z</time>
      </trkpt>
      <trkpt lat="48.01836" lon="6.84568">
        <ele>927.6</ele>
        <time>2022-07-29T09:08:22Z</time>
      </trkpt>
      <trkpt lat="48.01834" lon="6.84567">
        <ele>927.8</ele>
        <time>2022-07-29T09:08:23Z</time>
      </trkpt>
      <trkpt lat="48.01832" lon="6.84566">
        <ele>927.8</ele>
        <time>2022-07-29T09:08:24Z</time>
      </trkpt>
      <trkpt lat="48.0183" lon="6.84565">
        <ele>928</ele>
        <time>2022-07-29T09:08:25Z</time>
      </trkpt>
      <trkpt lat="48.01828" lon="6.84564">
        <ele>928.2</ele>
        <time>2022-07-29T09:08:26Z</time>
      </trkpt>
      <trkpt lat="48.01827" lon="6.84563">
        <ele>928.4</ele>
        <time>2022-07-29T09:08:27Z</time>
      </trkpt>
      <trkpt lat="48.01824" lon="6.84561">
        <ele>928.4</ele>
        <time>2022-07-29T09:08:28Z</time>
      </trkpt>
      <trkpt lat="48.01822" lon="6.8456">
        <ele>928.6</ele>
        <time>2022-07-29T09:08:29Z</time>
      </trkpt>
      <trkpt lat="48.0182" lon="6.8456">
        <ele>928.6</ele>
        <time>2022-07-29T09:08:30Z</time>
      </trkpt>
      <trkpt lat="48.01818" lon="6.84559">
        <ele>928.8</ele>
        <time>2022-07-29T09:08:31Z</time>
      </trkpt>
      <trkpt lat="48.01816" lon="6.84559">
        <ele>928.8</ele>
        <time>2022-07-29T09:08:32Z</time>
      </trkpt>
      <trkpt lat="48.01813" lon="6.84558">
        <ele>929</ele>
        <time>2022-07-29T09:08:33Z</time>
      </trkpt>
      <trkpt lat="48.01812" lon="6.84558">
        <ele>929.4</ele>
        <time>2022-07-29T09:08:34Z</time>
      </trkpt>
      <trkpt lat="48.01811" lon="6.84557">
        <ele>929.4</ele>
        <time>2022-07-29T09:08:35Z</time>
      </trkpt>
      <trkpt lat="48.0181" lon="6.84557">
        <ele>929.6</ele>
        <time>2022-07-29T09:08:36Z</time>
      </trkpt>
      <trkpt lat="48.01808" lon="6.84557">
        <ele>929.6</ele>
        <time>2022-07-29T09:08:37Z</time>
      </trkpt>
      <trkpt lat="48.01806" lon="6.84556">
        <ele>929.8</ele>
        <time>2022-07-29T09:08:38Z</time>
      </trkpt>
      <trkpt lat="48.01804" lon="6.84555">
        <ele>930</ele>
        <time>2022-07-29T09:08:39Z</time>
      </trkpt>
      <trkpt lat="48.01803" lon="6.84554">
        <ele>930.2</ele>
        <time>2022-07-29T09:08:40Z</time>
      </trkpt>
      <trkpt lat="48.01802" lon="6.84553">
        <ele>930.4</ele>
        <time>2022-07-29T09:08:41Z</time>
      </trkpt>
      <trkpt lat="48.018" lon="6.84552">
        <ele>930.4</ele>
        <time>2022-07-29T09:08:42Z</time>
      </trkpt>
      <trkpt lat="48.01798" lon="6.84551">
        <ele>930.8</ele>
        <time>2022-07-29T09:08:43Z</time>
      </trkpt>
      <trkpt lat="48.01796" lon="6.8455">
        <ele>931</ele>
        <time>2022-07-29T09:08:44Z</time>
      </trkpt>
      <trkpt lat="48.01794" lon="6.84548">
        <ele>931</ele>
        <time>2022-07-29T09:08:45Z</time>
      </trkpt>
      <trkpt lat="48.01793" lon="6.84547">
        <ele>931.2</ele>
        <time>2022-07-29T09:08:46Z</time>
      </trkpt>
      <trkpt lat="48.01791" lon="6.84548">
        <ele>931.4</ele>
        <time>2022-07-29T09:08:47Z</time>
      </trkpt>
      <trkpt lat="48.01789" lon="6.84548">
        <ele>931.6</ele>
        <time>2022-07-29T09:08:48Z</time>
      </trkpt>
      <trkpt lat="48.01787" lon="6.84548">
        <ele>931.6</ele>
        <time>2022-07-29T09:08:49Z</time>
      </trkpt>
      <trkpt lat="48.01785" lon="6.84548">
        <ele>931.8</ele>
        <time>2022-07-29T09:08:50Z</time>
      </trkpt>
      <trkpt lat="48.01784" lon="6.84548">
        <ele>931.8</ele>
        <time>2022-07-29T09:08:51Z</time>
      </trkpt>
      <trkpt lat="48.01782" lon="6.84548">
        <ele>931.8</ele>
        <time>2022-07-29T09:08:52Z</time>
      </trkpt>
      <trkpt lat="48.01779" lon="6.84548">
        <ele>932</ele>
        <time>2022-07-29T09:08:53Z</time>
      </trkpt>
      <trkpt lat="48.01777" lon="6.84549">
        <ele>932</ele>
        <time>2022-07-29T09:08:54Z</time>
      </trkpt>
      <trkpt lat="48.01775" lon="6.84549">
        <ele>932</ele>
        <time>2022-07-29T09:08:55Z</time>
      </trkpt>
      <trkpt lat="48.01773" lon="6.8455">
        <ele>932.2</ele>
        <time>2022-07-29T09:08:56Z</time>
      </trkpt>
      <trkpt lat="48.01771" lon="6.84551">
        <ele>932.2</ele>
        <time>2022-07-29T09:08:57Z</time>
      </trkpt>
      <trkpt lat="48.01769" lon="6.84552">
        <ele>932.2</ele>
        <time>2022-07-29T09:08:58Z</time>
      </trkpt>
      <trkpt lat="48.01766" lon="6.84553">
        <ele>932.2</ele>
        <time>2022-07-29T09:08:59Z</time>
      </trkpt>
      <trkpt lat="48.01763" lon="6.84554">
        <ele>932.2</ele>
        <time>2022-07-29T09:09:00Z</time>
      </trkpt>
      <trkpt lat="48.0176" lon="6.84555">
        <ele>932</ele>
        <time>2022-07-29T09:09:01Z</time>
      </trkpt>
      <trkpt lat="48.01757" lon="6.84556">
        <ele>932</ele>
        <time>2022-07-29T09:09:02Z</time>
      </trkpt>
      <trkpt lat="48.01754" lon="6.84558">
        <ele>932</ele>
        <time>2022-07-29T09:09:03Z</time>
      </trkpt>
      <trkpt lat="48.0175" lon="6.8456">
        <ele>931.8</ele>
        <time>2022-07-29T09:09:04Z</time>
      </trkpt>
      <trkpt lat="48.01747" lon="6.84561">
        <ele>931.4</ele>
        <time>2022-07-29T09:09:05Z</time>
      </trkpt>
      <trkpt lat="48.01736" lon="6.84565">
        <ele>931</ele>
        <time>2022-07-29T09:09:08Z</time>
      </trkpt>
      <trkpt lat="48.01729" lon="6.84569">
        <ele>930.8</ele>
        <time>2022-07-29T09:09:10Z</time>
      </trkpt>
      <trkpt lat="48.01725" lon="6.8457">
        <ele>930.6</ele>
        <time>2022-07-29T09:09:11Z</time>
      </trkpt>
      <trkpt lat="48.01716" lon="6.84568">
        <ele>930</ele>
        <time>2022-07-29T09:09:14Z</time>
      </trkpt>
      <trkpt lat="48.01713" lon="6.84566">
        <ele>929.8</ele>
        <time>2022-07-29T09:09:15Z</time>
      </trkpt>
      <trkpt lat="48.01708" lon="6.84558">
        <ele>929.8</ele>
        <time>2022-07-29T09:09:17Z</time>
      </trkpt>
      <trkpt lat="48.01705" lon="6.84554">
        <ele>929.8</ele>
        <time>2022-07-29T09:09:18Z</time>
      </trkpt>
      <trkpt lat="48.01702" lon="6.8455">
        <ele>929.6</ele>
        <time>2022-07-29T09:09:19Z</time>
      </trkpt>
      <trkpt lat="48.01692" lon="6.84543">
        <ele>929.6</ele>
        <time>2022-07-29T09:09:21Z</time>
      </trkpt>
      <trkpt lat="48.01679" lon="6.84538">
        <ele>929.4</ele>
        <time>2022-07-29T09:09:23Z</time>
      </trkpt>
      <trkpt lat="48.01673" lon="6.84536">
        <ele>929.2</ele>
        <time>2022-07-29T09:09:24Z</time>
      </trkpt>
      <trkpt lat="48.01664" lon="6.84537">
        <ele>928.8</ele>
        <time>2022-07-29T09:09:26Z</time>
      </trkpt>
      <trkpt lat="48.01659" lon="6.84537">
        <ele>928.4</ele>
        <time>2022-07-29T09:09:27Z</time>
      </trkpt>
      <trkpt lat="48.01654" lon="6.84537">
        <ele>927.8</ele>
        <time>2022-07-29T09:09:28Z</time>
      </trkpt>
      <trkpt lat="48.0165" lon="6.84537">
        <ele>927.6</ele>
        <time>2022-07-29T09:09:29Z</time>
      </trkpt>
      <trkpt lat="48.01646" lon="6.84538">
        <ele>927.4</ele>
        <time>2022-07-29T09:09:30Z</time>
      </trkpt>
      <trkpt lat="48.01642" lon="6.84539">
        <ele>927.2</ele>
        <time>2022-07-29T09:09:31Z</time>
      </trkpt>
      <trkpt lat="48.01637" lon="6.84541">
        <ele>927</ele>
        <time>2022-07-29T09:09:32Z</time>
      </trkpt>
      <trkpt lat="48.01633" lon="6.84543">
        <ele>927</ele>
        <time>2022-07-29T09:09:33Z</time>
      </trkpt>
      <trkpt lat="48.01628" lon="6.84545">
        <ele>927</ele>
        <time>2022-07-29T09:09:34Z</time>
      </trkpt>
      <trkpt lat="48.0162" lon="6.84551">
        <ele>926.8</ele>
        <time>2022-07-29T09:09:36Z</time>
      </trkpt>
      <trkpt lat="48.01611" lon="6.84556">
        <ele>926.6</ele>
        <time>2022-07-29T09:09:38Z</time>
      </trkpt>
      <trkpt lat="48.01608" lon="6.84557">
        <ele>926.4</ele>
        <time>2022-07-29T09:09:39Z</time>
      </trkpt>
      <trkpt lat="48.01605" lon="6.84558">
        <ele>926.2</ele>
        <time>2022-07-29T09:09:40Z</time>
      </trkpt>
      <trkpt lat="48.01603" lon="6.84559">
        <ele>926</ele>
        <time>2022-07-29T09:09:41Z</time>
      </trkpt>
      <trkpt lat="48.016" lon="6.84559">
        <ele>925.8</ele>
        <time>2022-07-29T09:09:42Z</time>
      </trkpt>
      <trkpt lat="48.01597" lon="6.8456">
        <ele>925.8</ele>
        <time>2022-07-29T09:09:43Z</time>
      </trkpt>
      <trkpt lat="48.0159" lon="6.84561">
        <ele>925.8</ele>
        <time>2022-07-29T09:09:44Z</time>
      </trkpt>
      <trkpt lat="48.01586" lon="6.84562">
        <ele>925.8</ele>
        <time>2022-07-29T09:09:45Z</time>
      </trkpt>
      <trkpt lat="48.01581" lon="6.84565">
        <ele>925.8</ele>
        <time>2022-07-29T09:09:47Z</time>
      </trkpt>
      <trkpt lat="48.01579" lon="6.84566">
        <ele>925.8</ele>
        <time>2022-07-29T09:09:48Z</time>
      </trkpt>
      <trkpt lat="48.01575" lon="6.84568">
        <ele>925.8</ele>
        <time>2022-07-29T09:09:49Z</time>
      </trkpt>
      <trkpt lat="48.01562" lon="6.84577">
        <ele>926</ele>
        <time>2022-07-29T09:09:53Z</time>
      </trkpt>
      <trkpt lat="48.01558" lon="6.84579">
        <ele>926.2</ele>
        <time>2022-07-29T09:09:54Z</time>
      </trkpt>
      <trkpt lat="48.01555" lon="6.8458">
        <ele>926.4</ele>
        <time>2022-07-29T09:09:55Z</time>
      </trkpt>
      <trkpt lat="48.01553" lon="6.84582">
        <ele>926.4</ele>
        <time>2022-07-29T09:09:56Z</time>
      </trkpt>
      <trkpt lat="48.01551" lon="6.84585">
        <ele>926.8</ele>
        <time>2022-07-29T09:09:57Z</time>
      </trkpt>
      <trkpt lat="48.01549" lon="6.84586">
        <ele>927</ele>
        <time>2022-07-29T09:09:58Z</time>
      </trkpt>
      <trkpt lat="48.01548" lon="6.84586">
        <ele>927.2</ele>
        <time>2022-07-29T09:09:59Z</time>
      </trkpt>
      <trkpt lat="48.01544" lon="6.84587">
        <ele>927.4</ele>
        <time>2022-07-29T09:10:00Z</time>
      </trkpt>
      <trkpt lat="48.01542" lon="6.84588">
        <ele>927.6</ele>
        <time>2022-07-29T09:10:01Z</time>
      </trkpt>
      <trkpt lat="48.0154" lon="6.84589">
        <ele>927.8</ele>
        <time>2022-07-29T09:10:02Z</time>
      </trkpt>
      <trkpt lat="48.01538" lon="6.8459">
        <ele>927.6</ele>
        <time>2022-07-29T09:10:03Z</time>
      </trkpt>
      <trkpt lat="48.01537" lon="6.84592">
        <ele>928</ele>
        <time>2022-07-29T09:10:04Z</time>
      </trkpt>
      <trkpt lat="48.01535" lon="6.84593">
        <ele>928.2</ele>
        <time>2022-07-29T09:10:05Z</time>
      </trkpt>
      <trkpt lat="48.01534" lon="6.84593">
        <ele>928.4</ele>
        <time>2022-07-29T09:10:06Z</time>
      </trkpt>
      <trkpt lat="48.01533" lon="6.84594">
        <ele>928.4</ele>
        <time>2022-07-29T09:10:07Z</time>
      </trkpt>
      <trkpt lat="48.01531" lon="6.84595">
        <ele>928.6</ele>
        <time>2022-07-29T09:10:08Z</time>
      </trkpt>
      <trkpt lat="48.01529" lon="6.84596">
        <ele>928.8</ele>
        <time>2022-07-29T09:10:09Z</time>
      </trkpt>
      <trkpt lat="48.01526" lon="6.84598">
        <ele>929</ele>
        <time>2022-07-29T09:10:11Z</time>
      </trkpt>
      <trkpt lat="48.01524" lon="6.846">
        <ele>929.2</ele>
        <time>2022-07-29T09:10:12Z</time>
      </trkpt>
      <trkpt lat="48.01522" lon="6.84602">
        <ele>929.2</ele>
        <time>2022-07-29T09:10:13Z</time>
      </trkpt>
      <trkpt lat="48.01522" lon="6.84603">
        <ele>929.4</ele>
        <time>2022-07-29T09:10:14Z</time>
      </trkpt>
      <trkpt lat="48.01521" lon="6.84604">
        <ele>929.4</ele>
        <time>2022-07-29T09:10:15Z</time>
      </trkpt>
      <trkpt lat="48.0152" lon="6.84605">
        <ele>929.6</ele>
        <time>2022-07-29T09:10:16Z</time>
      </trkpt>
      <trkpt lat="48.01519" lon="6.84607">
        <ele>929.6</ele>
        <time>2022-07-29T09:10:17Z</time>
      </trkpt>
      <trkpt lat="48.01518" lon="6.84609">
        <ele>929.8</ele>
        <time>2022-07-29T09:10:18Z</time>
      </trkpt>
      <trkpt lat="48.01517" lon="6.8461">
        <ele>929.8</ele>
        <time>2022-07-29T09:10:19Z</time>
      </trkpt>
      <trkpt lat="48.01514" lon="6.8461">
        <ele>930</ele>
        <time>2022-07-29T09:10:20Z</time>
      </trkpt>
      <trkpt lat="48.01512" lon="6.84611">
        <ele>930</ele>
        <time>2022-07-29T09:10:21Z</time>
      </trkpt>
      <trkpt lat="48.01511" lon="6.84612">
        <ele>930.4</ele>
        <time>2022-07-29T09:10:22Z</time>
      </trkpt>
      <trkpt lat="48.0151" lon="6.84612">
        <ele>930.6</ele>
        <time>2022-07-29T09:10:23Z</time>
      </trkpt>
      <trkpt lat="48.01509" lon="6.84613">
        <ele>930.8</ele>
        <time>2022-07-29T09:10:24Z</time>
      </trkpt>
      <trkpt lat="48.01508" lon="6.84614">
        <ele>931</ele>
        <time>2022-07-29T09:10:25Z</time>
      </trkpt>
      <trkpt lat="48.01507" lon="6.84614">
        <ele>931.2</ele>
        <time>2022-07-29T09:10:26Z</time>
      </trkpt>
      <trkpt lat="48.01506" lon="6.84615">
        <ele>931.6</ele>
        <time>2022-07-29T09:10:27Z</time>
      </trkpt>
      <trkpt lat="48.01505" lon="6.84616">
        <ele>931.8</ele>
        <time>2022-07-29T09:10:28Z</time>
      </trkpt>
      <trkpt lat="48.01505" lon="6.84616">
        <ele>932</ele>
        <time>2022-07-29T09:10:29Z</time>
      </trkpt>
      <trkpt lat="48.01504" lon="6.84616">
        <ele>932.2</ele>
        <time>2022-07-29T09:10:30Z</time>
      </trkpt>
      <trkpt lat="48.01504" lon="6.84617">
        <ele>932.4</ele>
        <time>2022-07-29T09:10:31Z</time>
      </trkpt>
      <trkpt lat="48.01502" lon="6.84617">
        <ele>932.6</ele>
        <time>2022-07-29T09:10:32Z</time>
      </trkpt>
      <trkpt lat="48.015" lon="6.84618">
        <ele>932.8</ele>
        <time>2022-07-29T09:10:33Z</time>
      </trkpt>
      <trkpt lat="48.01498" lon="6.84618">
        <ele>933.2</ele>
        <time>2022-07-29T09:10:34Z</time>
      </trkpt>
      <trkpt lat="48.01497" lon="6.84619">
        <ele>933.2</ele>
        <time>2022-07-29T09:10:35Z</time>
      </trkpt>
      <trkpt lat="48.01495" lon="6.8462">
        <ele>933.4</ele>
        <time>2022-07-29T09:10:36Z</time>
      </trkpt>
      <trkpt lat="48.01494" lon="6.84621">
        <ele>933.6</ele>
        <time>2022-07-29T09:10:37Z</time>
      </trkpt>
      <trkpt lat="48.01493" lon="6.84621">
        <ele>933.8</ele>
        <time>2022-07-29T09:10:38Z</time>
      </trkpt>
      <trkpt lat="48.01492" lon="6.84622">
        <ele>933.8</ele>
        <time>2022-07-29T09:10:39Z</time>
      </trkpt>
      <trkpt lat="48.01491" lon="6.84623">
        <ele>934</ele>
        <time>2022-07-29T09:10:40Z</time>
      </trkpt>
      <trkpt lat="48.0149" lon="6.84623">
        <ele>934.2</ele>
        <time>2022-07-29T09:10:41Z</time>
      </trkpt>
      <trkpt lat="48.01489" lon="6.84624">
        <ele>934.4</ele>
        <time>2022-07-29T09:10:42Z</time>
      </trkpt>
      <trkpt lat="48.01488" lon="6.84625">
        <ele>934.6</ele>
        <time>2022-07-29T09:10:43Z</time>
      </trkpt>
      <trkpt lat="48.01486" lon="6.84626">
        <ele>934.6</ele>
        <time>2022-07-29T09:10:44Z</time>
      </trkpt>
      <trkpt lat="48.01485" lon="6.84627">
        <ele>934.8</ele>
        <time>2022-07-29T09:10:45Z</time>
      </trkpt>
      <trkpt lat="48.01484" lon="6.84628">
        <ele>934.8</ele>
        <time>2022-07-29T09:10:46Z</time>
      </trkpt>
      <trkpt lat="48.01483" lon="6.84629">
        <ele>935</ele>
        <time>2022-07-29T09:10:47Z</time>
      </trkpt>
      <trkpt lat="48.01481" lon="6.8463">
        <ele>935</ele>
        <time>2022-07-29T09:10:48Z</time>
      </trkpt>
      <trkpt lat="48.01479" lon="6.84631">
        <ele>935.2</ele>
        <time>2022-07-29T09:10:49Z</time>
      </trkpt>
      <trkpt lat="48.01478" lon="6.84632">
        <ele>935.4</ele>
        <time>2022-07-29T09:10:50Z</time>
      </trkpt>
      <trkpt lat="48.01477" lon="6.84633">
        <ele>935.4</ele>
        <time>2022-07-29T09:10:51Z</time>
      </trkpt>
      <trkpt lat="48.01475" lon="6.84635">
        <ele>935.6</ele>
        <time>2022-07-29T09:10:52Z</time>
      </trkpt>
      <trkpt lat="48.01474" lon="6.84636">
        <ele>935.6</ele>
        <time>2022-07-29T09:10:53Z</time>
      </trkpt>
      <trkpt lat="48.01472" lon="6.84637">
        <ele>935.8</ele>
        <time>2022-07-29T09:10:54Z</time>
      </trkpt>
      <trkpt lat="48.01471" lon="6.84638">
        <ele>936</ele>
        <time>2022-07-29T09:10:55Z</time>
      </trkpt>
      <trkpt lat="48.01469" lon="6.84639">
        <ele>936.2</ele>
        <time>2022-07-29T09:10:56Z</time>
      </trkpt>
      <trkpt lat="48.01468" lon="6.8464">
        <ele>936.4</ele>
        <time>2022-07-29T09:10:57Z</time>
      </trkpt>
      <trkpt lat="48.01467" lon="6.8464">
        <ele>936.6</ele>
        <time>2022-07-29T09:10:58Z</time>
      </trkpt>
      <trkpt lat="48.01466" lon="6.8464">
        <ele>936.8</ele>
        <time>2022-07-29T09:10:59Z</time>
      </trkpt>
      <trkpt lat="48.01465" lon="6.84641">
        <ele>936.8</ele>
        <time>2022-07-29T09:11:00Z</time>
      </trkpt>
      <trkpt lat="48.01462" lon="6.84641">
        <ele>937</ele>
        <time>2022-07-29T09:11:01Z</time>
      </trkpt>
      <trkpt lat="48.0146" lon="6.84644">
        <ele>937</ele>
        <time>2022-07-29T09:11:02Z</time>
      </trkpt>
      <trkpt lat="48.01457" lon="6.84646">
        <ele>937</ele>
        <time>2022-07-29T09:11:03Z</time>
      </trkpt>
      <trkpt lat="48.01455" lon="6.84647">
        <ele>937</ele>
        <time>2022-07-29T09:11:04Z</time>
      </trkpt>
      <trkpt lat="48.01452" lon="6.84648">
        <ele>937.2</ele>
        <time>2022-07-29T09:11:05Z</time>
      </trkpt>
      <trkpt lat="48.01451" lon="6.84648">
        <ele>937.2</ele>
        <time>2022-07-29T09:11:06Z</time>
      </trkpt>
      <trkpt lat="48.01449" lon="6.8465">
        <ele>937.4</ele>
        <time>2022-07-29T09:11:07Z</time>
      </trkpt>
      <trkpt lat="48.01448" lon="6.84651">
        <ele>937.4</ele>
        <time>2022-07-29T09:11:08Z</time>
      </trkpt>
      <trkpt lat="48.01447" lon="6.84654">
        <ele>937.4</ele>
        <time>2022-07-29T09:11:09Z</time>
      </trkpt>
      <trkpt lat="48.01446" lon="6.84655">
        <ele>937.6</ele>
        <time>2022-07-29T09:11:10Z</time>
      </trkpt>
      <trkpt lat="48.01445" lon="6.84657">
        <ele>937.8</ele>
        <time>2022-07-29T09:11:11Z</time>
      </trkpt>
      <trkpt lat="48.01444" lon="6.84659">
        <ele>937.8</ele>
        <time>2022-07-29T09:11:12Z</time>
      </trkpt>
      <trkpt lat="48.01444" lon="6.84662">
        <ele>937.8</ele>
        <time>2022-07-29T09:11:13Z</time>
      </trkpt>
      <trkpt lat="48.01443" lon="6.84664">
        <ele>938</ele>
        <time>2022-07-29T09:11:14Z</time>
      </trkpt>
      <trkpt lat="48.01442" lon="6.84666">
        <ele>938</ele>
        <time>2022-07-29T09:11:15Z</time>
      </trkpt>
      <trkpt lat="48.01441" lon="6.84667">
        <ele>938</ele>
        <time>2022-07-29T09:11:16Z</time>
      </trkpt>
      <trkpt lat="48.0144" lon="6.84669">
        <ele>938.2</ele>
        <time>2022-07-29T09:11:17Z</time>
      </trkpt>
      <trkpt lat="48.01439" lon="6.84671">
        <ele>938.2</ele>
        <time>2022-07-29T09:11:18Z</time>
      </trkpt>
      <trkpt lat="48.01438" lon="6.84674">
        <ele>938.4</ele>
        <time>2022-07-29T09:11:19Z</time>
      </trkpt>
      <trkpt lat="48.01437" lon="6.84676">
        <ele>938.4</ele>
        <time>2022-07-29T09:11:20Z</time>
      </trkpt>
      <trkpt lat="48.01435" lon="6.84678">
        <ele>938.6</ele>
        <time>2022-07-29T09:11:21Z</time>
      </trkpt>
      <trkpt lat="48.01434" lon="6.8468">
        <ele>938.6</ele>
        <time>2022-07-29T09:11:22Z</time>
      </trkpt>
      <trkpt lat="48.01434" lon="6.84682">
        <ele>938.6</ele>
        <time>2022-07-29T09:11:23Z</time>
      </trkpt>
      <trkpt lat="48.01432" lon="6.84685">
        <ele>938.6</ele>
        <time>2022-07-29T09:11:24Z</time>
      </trkpt>
      <trkpt lat="48.01431" lon="6.84687">
        <ele>938.8</ele>
        <time>2022-07-29T09:11:25Z</time>
      </trkpt>
      <trkpt lat="48.0143" lon="6.84689">
        <ele>939</ele>
        <time>2022-07-29T09:11:26Z</time>
      </trkpt>
      <trkpt lat="48.0143" lon="6.8469">
        <ele>939.2</ele>
        <time>2022-07-29T09:11:27Z</time>
      </trkpt>
      <trkpt lat="48.01429" lon="6.8469">
        <ele>939.2</ele>
        <time>2022-07-29T09:11:28Z</time>
      </trkpt>
      <trkpt lat="48.01428" lon="6.8469">
        <ele>939.2</ele>
        <time>2022-07-29T09:11:29Z</time>
      </trkpt>
      <trkpt lat="48.01426" lon="6.84687">
        <ele>939.4</ele>
        <time>2022-07-29T09:11:32Z</time>
      </trkpt>
      <trkpt lat="48.01426" lon="6.84686">
        <ele>939.4</ele>
        <time>2022-07-29T09:11:33Z</time>
      </trkpt>
      <trkpt lat="48.01425" lon="6.84685">
        <ele>939.4</ele>
        <time>2022-07-29T09:11:34Z</time>
      </trkpt>
      <trkpt lat="48.01425" lon="6.84685">
        <ele>939.4</ele>
        <time>2022-07-29T09:11:35Z</time>
      </trkpt>
      <trkpt lat="48.01425" lon="6.84685">
        <ele>939.4</ele>
        <time>2022-07-29T09:11:36Z</time>
      </trkpt>
      <trkpt lat="48.01425" lon="6.84685">
        <ele>939.2</ele>
        <time>2022-07-29T09:11:37Z</time>
      </trkpt>
      <trkpt lat="48.01419" lon="6.84673">
        <ele>939</ele>
        <time>2022-07-29T09:11:43Z</time>
      </trkpt>
      <trkpt lat="48.01419" lon="6.84671">
        <ele>939</ele>
        <time>2022-07-29T09:11:44Z</time>
      </trkpt>
      <trkpt lat="48.01417" lon="6.84665">
        <ele>938.8</ele>
        <time>2022-07-29T09:11:47Z</time>
      </trkpt>
      <trkpt lat="48.01417" lon="6.84664">
        <ele>938.8</ele>
        <time>2022-07-29T09:11:49Z</time>
      </trkpt>
      <trkpt lat="48.01416" lon="6.84664">
        <ele>938.8</ele>
        <time>2022-07-29T09:11:56Z</time>
      </trkpt>
      <trkpt lat="48.01416" lon="6.84663">
        <ele>938.8</ele>
        <time>2022-07-29T09:11:57Z</time>
      </trkpt>
      <trkpt lat="48.01414" lon="6.84661">
        <ele>938.8</ele>
        <time>2022-07-29T09:12:00Z</time>
      </trkpt>
      <trkpt lat="48.01414" lon="6.84661">
        <ele>938.6</ele>
        <time>2022-07-29T09:12:03Z</time>
      </trkpt>
      <trkpt lat="48.01414" lon="6.84661">
        <ele>938.6</ele>
        <time>2022-07-29T09:12:14Z</time>
      </trkpt>
      <trkpt lat="48.01414" lon="6.84661">
        <ele>938.6</ele>
        <time>2022-07-29T09:12:26Z</time>
      </trkpt>
      <trkpt lat="48.01414" lon="6.84661">
        <ele>939</ele>
        <time>2022-07-29T09:13:06Z</time>
      </trkpt>
      <trkpt lat="48.01414" lon="6.84661">
        <ele>938.8</ele>
        <time>2022-07-29T09:14:10Z</time>
      </trkpt>
      <trkpt lat="48.01414" lon="6.84661">
        <ele>938.8</ele>
        <time>2022-07-29T09:14:39Z</time>
      </trkpt>
      <trkpt lat="48.01414" lon="6.84661">
        <ele>938.6</ele>
        <time>2022-07-29T09:16:56Z</time>
      </trkpt>
      <trkpt lat="48.01414" lon="6.84661">
        <ele>938.6</ele>
        <time>2022-07-29T09:18:11Z</time>
      </trkpt>
      <trkpt lat="48.01414" lon="6.84661">
        <ele>938.4</ele>
        <time>2022-07-29T09:18:47Z</time>
      </trkpt>
      <trkpt lat="48.01415" lon="6.84661">
        <ele>938.6</ele>
        <time>2022-07-29T09:18:58Z</time>
      </trkpt>
      <trkpt lat="48.01416" lon="6.84663">
        <ele>938.6</ele>
        <time>2022-07-29T09:19:09Z</time>
      </trkpt>
      <trkpt lat="48.01416" lon="6.84664">
        <ele>938.6</ele>
        <time>2022-07-29T09:19:10Z</time>
      </trkpt>
      <trkpt lat="48.01417" lon="6.84666">
        <ele>938.6</ele>
        <time>2022-07-29T09:19:11Z</time>
      </trkpt>
      <trkpt lat="48.01418" lon="6.84668">
        <ele>938.6</ele>
        <time>2022-07-29T09:19:12Z</time>
      </trkpt>
      <trkpt lat="48.01419" lon="6.84671">
        <ele>938.6</ele>
        <time>2022-07-29T09:19:13Z</time>
      </trkpt>
      <trkpt lat="48.0142" lon="6.84673">
        <ele>938.6</ele>
        <time>2022-07-29T09:19:14Z</time>
      </trkpt>
      <trkpt lat="48.01421" lon="6.84674">
        <ele>938.6</ele>
        <time>2022-07-29T09:19:15Z</time>
      </trkpt>
      <trkpt lat="48.01423" lon="6.84676">
        <ele>938.8</ele>
        <time>2022-07-29T09:19:16Z</time>
      </trkpt>
      <trkpt lat="48.01424" lon="6.84677">
        <ele>938.8</ele>
        <time>2022-07-29T09:19:17Z</time>
      </trkpt>
      <trkpt lat="48.01424" lon="6.84678">
        <ele>938.8</ele>
        <time>2022-07-29T09:19:18Z</time>
      </trkpt>
      <trkpt lat="48.01425" lon="6.84679">
        <ele>938.8</ele>
        <time>2022-07-29T09:19:19Z</time>
      </trkpt>
      <trkpt lat="48.01428" lon="6.8469">
        <ele>939</ele>
        <time>2022-07-29T09:19:24Z</time>
      </trkpt>
      <trkpt lat="48.01429" lon="6.84692">
        <ele>939</ele>
        <time>2022-07-29T09:19:25Z</time>
      </trkpt>
      <trkpt lat="48.01428" lon="6.84694">
        <ele>939</ele>
        <time>2022-07-29T09:19:26Z</time>
      </trkpt>
      <trkpt lat="48.01428" lon="6.84697">
        <ele>939</ele>
        <time>2022-07-29T09:19:27Z</time>
      </trkpt>
      <trkpt lat="48.01428" lon="6.847">
        <ele>939</ele>
        <time>2022-07-29T09:19:28Z</time>
      </trkpt>
      <trkpt lat="48.01427" lon="6.84702">
        <ele>939.2</ele>
        <time>2022-07-29T09:19:29Z</time>
      </trkpt>
      <trkpt lat="48.01426" lon="6.84704">
        <ele>939.2</ele>
        <time>2022-07-29T09:19:30Z</time>
      </trkpt>
      <trkpt lat="48.01425" lon="6.84707">
        <ele>939.4</ele>
        <time>2022-07-29T09:19:31Z</time>
      </trkpt>
      <trkpt lat="48.01422" lon="6.84717">
        <ele>939.8</ele>
        <time>2022-07-29T09:19:35Z</time>
      </trkpt>
      <trkpt lat="48.01421" lon="6.8472">
        <ele>939.8</ele>
        <time>2022-07-29T09:19:36Z</time>
      </trkpt>
      <trkpt lat="48.01419" lon="6.84733">
        <ele>940.4</ele>
        <time>2022-07-29T09:19:42Z</time>
      </trkpt>
      <trkpt lat="48.01418" lon="6.84735">
        <ele>940.6</ele>
        <time>2022-07-29T09:19:43Z</time>
      </trkpt>
      <trkpt lat="48.01418" lon="6.84738">
        <ele>940.6</ele>
        <time>2022-07-29T09:19:44Z</time>
      </trkpt>
      <trkpt lat="48.01417" lon="6.8474">
        <ele>940.8</ele>
        <time>2022-07-29T09:19:45Z</time>
      </trkpt>
      <trkpt lat="48.01416" lon="6.84742">
        <ele>940.8</ele>
        <time>2022-07-29T09:19:46Z</time>
      </trkpt>
      <trkpt lat="48.01415" lon="6.84744">
        <ele>941</ele>
        <time>2022-07-29T09:19:47Z</time>
      </trkpt>
      <trkpt lat="48.01415" lon="6.84747">
        <ele>941</ele>
        <time>2022-07-29T09:19:48Z</time>
      </trkpt>
      <trkpt lat="48.01414" lon="6.84749">
        <ele>941.2</ele>
        <time>2022-07-29T09:19:49Z</time>
      </trkpt>
      <trkpt lat="48.01414" lon="6.84751">
        <ele>941.2</ele>
        <time>2022-07-29T09:19:50Z</time>
      </trkpt>
      <trkpt lat="48.0141" lon="6.84762">
        <ele>941.8</ele>
        <time>2022-07-29T09:19:55Z</time>
      </trkpt>
      <trkpt lat="48.0141" lon="6.84763">
        <ele>942</ele>
        <time>2022-07-29T09:19:56Z</time>
      </trkpt>
      <trkpt lat="48.01409" lon="6.84765">
        <ele>942.2</ele>
        <time>2022-07-29T09:19:57Z</time>
      </trkpt>
      <trkpt lat="48.01409" lon="6.84767">
        <ele>942.4</ele>
        <time>2022-07-29T09:19:58Z</time>
      </trkpt>
      <trkpt lat="48.01407" lon="6.8477">
        <ele>942.6</ele>
        <time>2022-07-29T09:20:00Z</time>
      </trkpt>
      <trkpt lat="48.01407" lon="6.84772">
        <ele>942.6</ele>
        <time>2022-07-29T09:20:01Z</time>
      </trkpt>
      <trkpt lat="48.01406" lon="6.84774">
        <ele>942.8</ele>
        <time>2022-07-29T09:20:02Z</time>
      </trkpt>
      <trkpt lat="48.01406" lon="6.84776">
        <ele>942.8</ele>
        <time>2022-07-29T09:20:03Z</time>
      </trkpt>
      <trkpt lat="48.01406" lon="6.84779">
        <ele>943</ele>
        <time>2022-07-29T09:20:04Z</time>
      </trkpt>
      <trkpt lat="48.01407" lon="6.84781">
        <ele>943.2</ele>
        <time>2022-07-29T09:20:05Z</time>
      </trkpt>
      <trkpt lat="48.01406" lon="6.84783">
        <ele>943.2</ele>
        <time>2022-07-29T09:20:06Z</time>
      </trkpt>
      <trkpt lat="48.01407" lon="6.84785">
        <ele>943.6</ele>
        <time>2022-07-29T09:20:07Z</time>
      </trkpt>
      <trkpt lat="48.01407" lon="6.84787">
        <ele>943.8</ele>
        <time>2022-07-29T09:20:08Z</time>
      </trkpt>
      <trkpt lat="48.01408" lon="6.84789">
        <ele>943.8</ele>
        <time>2022-07-29T09:20:09Z</time>
      </trkpt>
      <trkpt lat="48.01409" lon="6.8479">
        <ele>944.2</ele>
        <time>2022-07-29T09:20:10Z</time>
      </trkpt>
      <trkpt lat="48.01409" lon="6.84791">
        <ele>944.2</ele>
        <time>2022-07-29T09:20:11Z</time>
      </trkpt>
      <trkpt lat="48.0141" lon="6.84792">
        <ele>944.6</ele>
        <time>2022-07-29T09:20:12Z</time>
      </trkpt>
      <trkpt lat="48.01411" lon="6.84793">
        <ele>944.8</ele>
        <time>2022-07-29T09:20:13Z</time>
      </trkpt>
      <trkpt lat="48.01412" lon="6.84795">
        <ele>945</ele>
        <time>2022-07-29T09:20:14Z</time>
      </trkpt>
      <trkpt lat="48.01413" lon="6.84796">
        <ele>945.2</ele>
        <time>2022-07-29T09:20:15Z</time>
      </trkpt>
      <trkpt lat="48.01414" lon="6.84797">
        <ele>945.4</ele>
        <time>2022-07-29T09:20:16Z</time>
      </trkpt>
      <trkpt lat="48.01415" lon="6.84799">
        <ele>945.4</ele>
        <time>2022-07-29T09:20:17Z</time>
      </trkpt>
      <trkpt lat="48.01417" lon="6.848">
        <ele>945.6</ele>
        <time>2022-07-29T09:20:18Z</time>
      </trkpt>
      <trkpt lat="48.01418" lon="6.84801">
        <ele>945.6</ele>
        <time>2022-07-29T09:20:19Z</time>
      </trkpt>
      <trkpt lat="48.01419" lon="6.84802">
        <ele>945.8</ele>
        <time>2022-07-29T09:20:20Z</time>
      </trkpt>
      <trkpt lat="48.01421" lon="6.84802">
        <ele>945.8</ele>
        <time>2022-07-29T09:20:21Z</time>
      </trkpt>
      <trkpt lat="48.01422" lon="6.84803">
        <ele>946</ele>
        <time>2022-07-29T09:20:22Z</time>
      </trkpt>
      <trkpt lat="48.01423" lon="6.84803">
        <ele>946.2</ele>
        <time>2022-07-29T09:20:23Z</time>
      </trkpt>
      <trkpt lat="48.01424" lon="6.84802">
        <ele>946.4</ele>
        <time>2022-07-29T09:20:24Z</time>
      </trkpt>
      <trkpt lat="48.01424" lon="6.84802">
        <ele>946.4</ele>
        <time>2022-07-29T09:20:25Z</time>
      </trkpt>
      <trkpt lat="48.01425" lon="6.84801">
        <ele>946.8</ele>
        <time>2022-07-29T09:20:26Z</time>
      </trkpt>
      <trkpt lat="48.01426" lon="6.84801">
        <ele>947</ele>
        <time>2022-07-29T09:20:27Z</time>
      </trkpt>
      <trkpt lat="48.01427" lon="6.848">
        <ele>947.2</ele>
        <time>2022-07-29T09:20:28Z</time>
      </trkpt>
      <trkpt lat="48.01428" lon="6.848">
        <ele>947.2</ele>
        <time>2022-07-29T09:20:29Z</time>
      </trkpt>
      <trkpt lat="48.01429" lon="6.84798">
        <ele>947.6</ele>
        <time>2022-07-29T09:20:30Z</time>
      </trkpt>
      <trkpt lat="48.0143" lon="6.84798">
        <ele>947.8</ele>
        <time>2022-07-29T09:20:31Z</time>
      </trkpt>
      <trkpt lat="48.01431" lon="6.84797">
        <ele>948</ele>
        <time>2022-07-29T09:20:32Z</time>
      </trkpt>
      <trkpt lat="48.01431" lon="6.84796">
        <ele>948</ele>
        <time>2022-07-29T09:20:33Z</time>
      </trkpt>
      <trkpt lat="48.01432" lon="6.84795">
        <ele>948.2</ele>
        <time>2022-07-29T09:20:34Z</time>
      </trkpt>
      <trkpt lat="48.01433" lon="6.84794">
        <ele>948.4</ele>
        <time>2022-07-29T09:20:35Z</time>
      </trkpt>
      <trkpt lat="48.01433" lon="6.84793">
        <ele>948.4</ele>
        <time>2022-07-29T09:20:36Z</time>
      </trkpt>
      <trkpt lat="48.01433" lon="6.84792">
        <ele>948.6</ele>
        <time>2022-07-29T09:20:37Z</time>
      </trkpt>
      <trkpt lat="48.01434" lon="6.84791">
        <ele>948.6</ele>
        <time>2022-07-29T09:20:38Z</time>
      </trkpt>
      <trkpt lat="48.01434" lon="6.84789">
        <ele>949</ele>
        <time>2022-07-29T09:20:39Z</time>
      </trkpt>
      <trkpt lat="48.01435" lon="6.84788">
        <ele>949</ele>
        <time>2022-07-29T09:20:40Z</time>
      </trkpt>
      <trkpt lat="48.01436" lon="6.84788">
        <ele>949.2</ele>
        <time>2022-07-29T09:20:41Z</time>
      </trkpt>
      <trkpt lat="48.01437" lon="6.84787">
        <ele>949.4</ele>
        <time>2022-07-29T09:20:42Z</time>
      </trkpt>
      <trkpt lat="48.01438" lon="6.84785">
        <ele>949.6</ele>
        <time>2022-07-29T09:20:43Z</time>
      </trkpt>
      <trkpt lat="48.01439" lon="6.84785">
        <ele>949.8</ele>
        <time>2022-07-29T09:20:44Z</time>
      </trkpt>
      <trkpt lat="48.0144" lon="6.84784">
        <ele>949.8</ele>
        <time>2022-07-29T09:20:45Z</time>
      </trkpt>
      <trkpt lat="48.0144" lon="6.84783">
        <ele>950</ele>
        <time>2022-07-29T09:20:46Z</time>
      </trkpt>
      <trkpt lat="48.01441" lon="6.84783">
        <ele>950</ele>
        <time>2022-07-29T09:20:47Z</time>
      </trkpt>
      <trkpt lat="48.01442" lon="6.84781">
        <ele>950.2</ele>
        <time>2022-07-29T09:20:48Z</time>
      </trkpt>
      <trkpt lat="48.01443" lon="6.8478">
        <ele>950.4</ele>
        <time>2022-07-29T09:20:49Z</time>
      </trkpt>
      <trkpt lat="48.01444" lon="6.84778">
        <ele>950.6</ele>
        <time>2022-07-29T09:20:50Z</time>
      </trkpt>
      <trkpt lat="48.01445" lon="6.84777">
        <ele>950.6</ele>
        <time>2022-07-29T09:20:51Z</time>
      </trkpt>
      <trkpt lat="48.01446" lon="6.84776">
        <ele>950.8</ele>
        <time>2022-07-29T09:20:52Z</time>
      </trkpt>
      <trkpt lat="48.01447" lon="6.84775">
        <ele>950.8</ele>
        <time>2022-07-29T09:20:53Z</time>
      </trkpt>
      <trkpt lat="48.01448" lon="6.84774">
        <ele>951</ele>
        <time>2022-07-29T09:20:54Z</time>
      </trkpt>
      <trkpt lat="48.0145" lon="6.84773">
        <ele>951</ele>
        <time>2022-07-29T09:20:55Z</time>
      </trkpt>
      <trkpt lat="48.01451" lon="6.84772">
        <ele>951.2</ele>
        <time>2022-07-29T09:20:56Z</time>
      </trkpt>
      <trkpt lat="48.01452" lon="6.8477">
        <ele>951.2</ele>
        <time>2022-07-29T09:20:57Z</time>
      </trkpt>
      <trkpt lat="48.01453" lon="6.84769">
        <ele>951.2</ele>
        <time>2022-07-29T09:20:58Z</time>
      </trkpt>
      <trkpt lat="48.01455" lon="6.84768">
        <ele>951.4</ele>
        <time>2022-07-29T09:20:59Z</time>
      </trkpt>
      <trkpt lat="48.01456" lon="6.84767">
        <ele>951.4</ele>
        <time>2022-07-29T09:21:00Z</time>
      </trkpt>
      <trkpt lat="48.01456" lon="6.84766">
        <ele>951.4</ele>
        <time>2022-07-29T09:21:01Z</time>
      </trkpt>
      <trkpt lat="48.01457" lon="6.84765">
        <ele>951.8</ele>
        <time>2022-07-29T09:21:02Z</time>
      </trkpt>
      <trkpt lat="48.01459" lon="6.84764">
        <ele>951.8</ele>
        <time>2022-07-29T09:21:03Z</time>
      </trkpt>
      <trkpt lat="48.0146" lon="6.84763">
        <ele>952</ele>
        <time>2022-07-29T09:21:04Z</time>
      </trkpt>
      <trkpt lat="48.01461" lon="6.84763">
        <ele>952</ele>
        <time>2022-07-29T09:21:05Z</time>
      </trkpt>
      <trkpt lat="48.01462" lon="6.84762">
        <ele>952.2</ele>
        <time>2022-07-29T09:21:06Z</time>
      </trkpt>
      <trkpt lat="48.01464" lon="6.84762">
        <ele>952.4</ele>
        <time>2022-07-29T09:21:07Z</time>
      </trkpt>
      <trkpt lat="48.01465" lon="6.84762">
        <ele>952.6</ele>
        <time>2022-07-29T09:21:08Z</time>
      </trkpt>
      <trkpt lat="48.01466" lon="6.84761">
        <ele>952.8</ele>
        <time>2022-07-29T09:21:09Z</time>
      </trkpt>
      <trkpt lat="48.01467" lon="6.8476">
        <ele>953</ele>
        <time>2022-07-29T09:21:10Z</time>
      </trkpt>
      <trkpt lat="48.01468" lon="6.8476">
        <ele>953</ele>
        <time>2022-07-29T09:21:11Z</time>
      </trkpt>
      <trkpt lat="48.01471" lon="6.84759">
        <ele>953.2</ele>
        <time>2022-07-29T09:21:12Z</time>
      </trkpt>
      <trkpt lat="48.01472" lon="6.84758">
        <ele>953.2</ele>
        <time>2022-07-29T09:21:13Z</time>
      </trkpt>
      <trkpt lat="48.01474" lon="6.84756">
        <ele>953.4</ele>
        <time>2022-07-29T09:21:14Z</time>
      </trkpt>
      <trkpt lat="48.01479" lon="6.84755">
        <ele>953.6</ele>
        <time>2022-07-29T09:21:15Z</time>
      </trkpt>
      <trkpt lat="48.0148" lon="6.84755">
        <ele>953.6</ele>
        <time>2022-07-29T09:21:16Z</time>
      </trkpt>
      <trkpt lat="48.01481" lon="6.84755">
        <ele>953.6</ele>
        <time>2022-07-29T09:21:17Z</time>
      </trkpt>
      <trkpt lat="48.01482" lon="6.84756">
        <ele>953.8</ele>
        <time>2022-07-29T09:21:18Z</time>
      </trkpt>
      <trkpt lat="48.01483" lon="6.84757">
        <ele>953.8</ele>
        <time>2022-07-29T09:21:19Z</time>
      </trkpt>
      <trkpt lat="48.01484" lon="6.84757">
        <ele>954.2</ele>
        <time>2022-07-29T09:21:20Z</time>
      </trkpt>
      <trkpt lat="48.01485" lon="6.84759">
        <ele>954.2</ele>
        <time>2022-07-29T09:21:21Z</time>
      </trkpt>
      <trkpt lat="48.01487" lon="6.8476">
        <ele>954.6</ele>
        <time>2022-07-29T09:21:22Z</time>
      </trkpt>
      <trkpt lat="48.01489" lon="6.8476">
        <ele>954.6</ele>
        <time>2022-07-29T09:21:23Z</time>
      </trkpt>
      <trkpt lat="48.01491" lon="6.84761">
        <ele>954.8</ele>
        <time>2022-07-29T09:21:24Z</time>
      </trkpt>
      <trkpt lat="48.01494" lon="6.84758">
        <ele>955</ele>
        <time>2022-07-29T09:21:25Z</time>
      </trkpt>
      <trkpt lat="48.01497" lon="6.84756">
        <ele>955.2</ele>
        <time>2022-07-29T09:21:26Z</time>
      </trkpt>
      <trkpt lat="48.01499" lon="6.84757">
        <ele>955.4</ele>
        <time>2022-07-29T09:21:27Z</time>
      </trkpt>
      <trkpt lat="48.01499" lon="6.84757">
        <ele>955.6</ele>
        <time>2022-07-29T09:21:28Z</time>
      </trkpt>
      <trkpt lat="48.015" lon="6.84758">
        <ele>955.8</ele>
        <time>2022-07-29T09:21:29Z</time>
      </trkpt>
      <trkpt lat="48.01501" lon="6.84759">
        <ele>955.8</ele>
        <time>2022-07-29T09:21:30Z</time>
      </trkpt>
      <trkpt lat="48.01501" lon="6.84759">
        <ele>956</ele>
        <time>2022-07-29T09:21:31Z</time>
      </trkpt>
      <trkpt lat="48.01502" lon="6.84759">
        <ele>956</ele>
        <time>2022-07-29T09:21:32Z</time>
      </trkpt>
      <trkpt lat="48.01503" lon="6.8476">
        <ele>956.2</ele>
        <time>2022-07-29T09:21:33Z</time>
      </trkpt>
      <trkpt lat="48.01504" lon="6.84761">
        <ele>956.4</ele>
        <time>2022-07-29T09:21:34Z</time>
      </trkpt>
      <trkpt lat="48.01505" lon="6.84762">
        <ele>956.6</ele>
        <time>2022-07-29T09:21:35Z</time>
      </trkpt>
      <trkpt lat="48.01507" lon="6.84764">
        <ele>956.8</ele>
        <time>2022-07-29T09:21:36Z</time>
      </trkpt>
      <trkpt lat="48.01507" lon="6.84764">
        <ele>956.8</ele>
        <time>2022-07-29T09:21:37Z</time>
      </trkpt>
      <trkpt lat="48.01508" lon="6.84765">
        <ele>957</ele>
        <time>2022-07-29T09:21:38Z</time>
      </trkpt>
      <trkpt lat="48.01509" lon="6.84766">
        <ele>957</ele>
        <time>2022-07-29T09:21:39Z</time>
      </trkpt>
      <trkpt lat="48.0151" lon="6.84767">
        <ele>957.2</ele>
        <time>2022-07-29T09:21:40Z</time>
      </trkpt>
      <trkpt lat="48.01512" lon="6.84769">
        <ele>957.2</ele>
        <time>2022-07-29T09:21:41Z</time>
      </trkpt>
      <trkpt lat="48.01514" lon="6.84771">
        <ele>957.4</ele>
        <time>2022-07-29T09:21:42Z</time>
      </trkpt>
      <trkpt lat="48.01515" lon="6.84772">
        <ele>957.4</ele>
        <time>2022-07-29T09:21:43Z</time>
      </trkpt>
      <trkpt lat="48.01516" lon="6.84774">
        <ele>957.6</ele>
        <time>2022-07-29T09:21:44Z</time>
      </trkpt>
      <trkpt lat="48.01518" lon="6.84776">
        <ele>957.8</ele>
        <time>2022-07-29T09:21:45Z</time>
      </trkpt>
      <trkpt lat="48.0152" lon="6.84778">
        <ele>957.8</ele>
        <time>2022-07-29T09:21:46Z</time>
      </trkpt>
      <trkpt lat="48.01521" lon="6.8478">
        <ele>958</ele>
        <time>2022-07-29T09:21:47Z</time>
      </trkpt>
      <trkpt lat="48.01523" lon="6.84783">
        <ele>958</ele>
        <time>2022-07-29T09:21:48Z</time>
      </trkpt>
      <trkpt lat="48.01524" lon="6.84784">
        <ele>958</ele>
        <time>2022-07-29T09:21:49Z</time>
      </trkpt>
      <trkpt lat="48.01525" lon="6.84786">
        <ele>958.2</ele>
        <time>2022-07-29T09:21:50Z</time>
      </trkpt>
      <trkpt lat="48.01527" lon="6.84787">
        <ele>958.2</ele>
        <time>2022-07-29T09:21:51Z</time>
      </trkpt>
      <trkpt lat="48.01528" lon="6.84789">
        <ele>958.2</ele>
        <time>2022-07-29T09:21:52Z</time>
      </trkpt>
      <trkpt lat="48.0153" lon="6.84791">
        <ele>958.2</ele>
        <time>2022-07-29T09:21:53Z</time>
      </trkpt>
      <trkpt lat="48.01531" lon="6.84793">
        <ele>958.4</ele>
        <time>2022-07-29T09:21:54Z</time>
      </trkpt>
      <trkpt lat="48.01533" lon="6.84796">
        <ele>958.4</ele>
        <time>2022-07-29T09:21:55Z</time>
      </trkpt>
      <trkpt lat="48.01535" lon="6.84799">
        <ele>958.4</ele>
        <time>2022-07-29T09:21:56Z</time>
      </trkpt>
      <trkpt lat="48.01538" lon="6.848">
        <ele>958.4</ele>
        <time>2022-07-29T09:21:57Z</time>
      </trkpt>
      <trkpt lat="48.0154" lon="6.84802">
        <ele>958.4</ele>
        <time>2022-07-29T09:21:58Z</time>
      </trkpt>
      <trkpt lat="48.01541" lon="6.84803">
        <ele>958.4</ele>
        <time>2022-07-29T09:21:59Z</time>
      </trkpt>
      <trkpt lat="48.01543" lon="6.84804">
        <ele>958.6</ele>
        <time>2022-07-29T09:22:00Z</time>
      </trkpt>
      <trkpt lat="48.01547" lon="6.84808">
        <ele>959</ele>
        <time>2022-07-29T09:22:03Z</time>
      </trkpt>
      <trkpt lat="48.01548" lon="6.84808">
        <ele>959</ele>
        <time>2022-07-29T09:22:04Z</time>
      </trkpt>
      <trkpt lat="48.01552" lon="6.84809">
        <ele>959</ele>
        <time>2022-07-29T09:22:05Z</time>
      </trkpt>
      <trkpt lat="48.01555" lon="6.84812">
        <ele>959</ele>
        <time>2022-07-29T09:22:06Z</time>
      </trkpt>
      <trkpt lat="48.01558" lon="6.84813">
        <ele>959.2</ele>
        <time>2022-07-29T09:22:07Z</time>
      </trkpt>
      <trkpt lat="48.01561" lon="6.84812">
        <ele>959.4</ele>
        <time>2022-07-29T09:22:08Z</time>
      </trkpt>
      <trkpt lat="48.01562" lon="6.84812">
        <ele>959.4</ele>
        <time>2022-07-29T09:22:09Z</time>
      </trkpt>
      <trkpt lat="48.01566" lon="6.84813">
        <ele>960</ele>
        <time>2022-07-29T09:22:12Z</time>
      </trkpt>
      <trkpt lat="48.01568" lon="6.84816">
        <ele>960</ele>
        <time>2022-07-29T09:22:13Z</time>
      </trkpt>
      <trkpt lat="48.01569" lon="6.84817">
        <ele>960.4</ele>
        <time>2022-07-29T09:22:14Z</time>
      </trkpt>
      <trkpt lat="48.0157" lon="6.84818">
        <ele>960.4</ele>
        <time>2022-07-29T09:22:15Z</time>
      </trkpt>
      <trkpt lat="48.01573" lon="6.8482">
        <ele>960.8</ele>
        <time>2022-07-29T09:22:17Z</time>
      </trkpt>
      <trkpt lat="48.01574" lon="6.84821">
        <ele>961</ele>
        <time>2022-07-29T09:22:18Z</time>
      </trkpt>
      <trkpt lat="48.01575" lon="6.84823">
        <ele>961.2</ele>
        <time>2022-07-29T09:22:19Z</time>
      </trkpt>
      <trkpt lat="48.01576" lon="6.84825">
        <ele>961.2</ele>
        <time>2022-07-29T09:22:20Z</time>
      </trkpt>
      <trkpt lat="48.01577" lon="6.84826">
        <ele>961.4</ele>
        <time>2022-07-29T09:22:21Z</time>
      </trkpt>
      <trkpt lat="48.01578" lon="6.84827">
        <ele>961.4</ele>
        <time>2022-07-29T09:22:22Z</time>
      </trkpt>
      <trkpt lat="48.01578" lon="6.84829">
        <ele>961.6</ele>
        <time>2022-07-29T09:22:23Z</time>
      </trkpt>
      <trkpt lat="48.01579" lon="6.84831">
        <ele>961.8</ele>
        <time>2022-07-29T09:22:24Z</time>
      </trkpt>
      <trkpt lat="48.0158" lon="6.84833">
        <ele>962</ele>
        <time>2022-07-29T09:22:25Z</time>
      </trkpt>
      <trkpt lat="48.01581" lon="6.84835">
        <ele>962</ele>
        <time>2022-07-29T09:22:26Z</time>
      </trkpt>
      <trkpt lat="48.01583" lon="6.84838">
        <ele>962.2</ele>
        <time>2022-07-29T09:22:27Z</time>
      </trkpt>
      <trkpt lat="48.01584" lon="6.8484">
        <ele>962.4</ele>
        <time>2022-07-29T09:22:28Z</time>
      </trkpt>
      <trkpt lat="48.01585" lon="6.84842">
        <ele>962.4</ele>
        <time>2022-07-29T09:22:29Z</time>
      </trkpt>
      <trkpt lat="48.01586" lon="6.84846">
        <ele>962.6</ele>
        <time>2022-07-29T09:22:30Z</time>
      </trkpt>
      <trkpt lat="48.01586" lon="6.8485">
        <ele>962.6</ele>
        <time>2022-07-29T09:22:31Z</time>
      </trkpt>
      <trkpt lat="48.01587" lon="6.84853">
        <ele>962.4</ele>
        <time>2022-07-29T09:22:32Z</time>
      </trkpt>
      <trkpt lat="48.01586" lon="6.84857">
        <ele>962.6</ele>
        <time>2022-07-29T09:22:33Z</time>
      </trkpt>
      <trkpt lat="48.01586" lon="6.84861">
        <ele>962.6</ele>
        <time>2022-07-29T09:22:34Z</time>
      </trkpt>
      <trkpt lat="48.01586" lon="6.84865">
        <ele>962.6</ele>
        <time>2022-07-29T09:22:35Z</time>
      </trkpt>
      <trkpt lat="48.01586" lon="6.8487">
        <ele>962.6</ele>
        <time>2022-07-29T09:22:36Z</time>
      </trkpt>
      <trkpt lat="48.01587" lon="6.84875">
        <ele>962.8</ele>
        <time>2022-07-29T09:22:37Z</time>
      </trkpt>
      <trkpt lat="48.01587" lon="6.8488">
        <ele>962.8</ele>
        <time>2022-07-29T09:22:38Z</time>
      </trkpt>
      <trkpt lat="48.01586" lon="6.84886">
        <ele>962.8</ele>
        <time>2022-07-29T09:22:39Z</time>
      </trkpt>
      <trkpt lat="48.01586" lon="6.8489">
        <ele>962.8</ele>
        <time>2022-07-29T09:22:40Z</time>
      </trkpt>
      <trkpt lat="48.01587" lon="6.84895">
        <ele>962.8</ele>
        <time>2022-07-29T09:22:41Z</time>
      </trkpt>
      <trkpt lat="48.01587" lon="6.84899">
        <ele>962.8</ele>
        <time>2022-07-29T09:22:42Z</time>
      </trkpt>
      <trkpt lat="48.01586" lon="6.84905">
        <ele>962.6</ele>
        <time>2022-07-29T09:22:43Z</time>
      </trkpt>
      <trkpt lat="48.01581" lon="6.84921">
        <ele>962.4</ele>
        <time>2022-07-29T09:22:47Z</time>
      </trkpt>
      <trkpt lat="48.0158" lon="6.84926">
        <ele>962.4</ele>
        <time>2022-07-29T09:22:48Z</time>
      </trkpt>
      <trkpt lat="48.01578" lon="6.84931">
        <ele>962.4</ele>
        <time>2022-07-29T09:22:50Z</time>
      </trkpt>
      <trkpt lat="48.01577" lon="6.84934">
        <ele>962.4</ele>
        <time>2022-07-29T09:22:51Z</time>
      </trkpt>
      <trkpt lat="48.01575" lon="6.84937">
        <ele>962.6</ele>
        <time>2022-07-29T09:22:52Z</time>
      </trkpt>
      <trkpt lat="48.01573" lon="6.8494">
        <ele>962.6</ele>
        <time>2022-07-29T09:22:53Z</time>
      </trkpt>
      <trkpt lat="48.01571" lon="6.84942">
        <ele>962.8</ele>
        <time>2022-07-29T09:22:54Z</time>
      </trkpt>
      <trkpt lat="48.01566" lon="6.84947">
        <ele>963</ele>
        <time>2022-07-29T09:22:56Z</time>
      </trkpt>
      <trkpt lat="48.01564" lon="6.84949">
        <ele>963</ele>
        <time>2022-07-29T09:22:57Z</time>
      </trkpt>
      <trkpt lat="48.01554" lon="6.84956">
        <ele>963.2</ele>
        <time>2022-07-29T09:23:01Z</time>
      </trkpt>
      <trkpt lat="48.01548" lon="6.84962">
        <ele>963.6</ele>
        <time>2022-07-29T09:23:04Z</time>
      </trkpt>
      <trkpt lat="48.01537" lon="6.84976">
        <ele>963.8</ele>
        <time>2022-07-29T09:23:09Z</time>
      </trkpt>
      <trkpt lat="48.01535" lon="6.84979">
        <ele>963.8</ele>
        <time>2022-07-29T09:23:10Z</time>
      </trkpt>
      <trkpt lat="48.01529" lon="6.84985">
        <ele>964</ele>
        <time>2022-07-29T09:23:13Z</time>
      </trkpt>
      <trkpt lat="48.01528" lon="6.84987">
        <ele>964</ele>
        <time>2022-07-29T09:23:14Z</time>
      </trkpt>
      <trkpt lat="48.01525" lon="6.84991">
        <ele>964.2</ele>
        <time>2022-07-29T09:23:16Z</time>
      </trkpt>
      <trkpt lat="48.01524" lon="6.84993">
        <ele>964.2</ele>
        <time>2022-07-29T09:23:17Z</time>
      </trkpt>
      <trkpt lat="48.01523" lon="6.84994">
        <ele>964.2</ele>
        <time>2022-07-29T09:23:18Z</time>
      </trkpt>
      <trkpt lat="48.01522" lon="6.84996">
        <ele>964.2</ele>
        <time>2022-07-29T09:23:19Z</time>
      </trkpt>
      <trkpt lat="48.0152" lon="6.84998">
        <ele>964.2</ele>
        <time>2022-07-29T09:23:20Z</time>
      </trkpt>
      <trkpt lat="48.01519" lon="6.85">
        <ele>964.2</ele>
        <time>2022-07-29T09:23:21Z</time>
      </trkpt>
      <trkpt lat="48.01518" lon="6.85002">
        <ele>964.4</ele>
        <time>2022-07-29T09:23:22Z</time>
      </trkpt>
      <trkpt lat="48.01517" lon="6.85005">
        <ele>964.4</ele>
        <time>2022-07-29T09:23:23Z</time>
      </trkpt>
      <trkpt lat="48.01516" lon="6.85007">
        <ele>964.6</ele>
        <time>2022-07-29T09:23:24Z</time>
      </trkpt>
      <trkpt lat="48.01513" lon="6.85015">
        <ele>965.2</ele>
        <time>2022-07-29T09:23:28Z</time>
      </trkpt>
      <trkpt lat="48.01512" lon="6.85018">
        <ele>965.4</ele>
        <time>2022-07-29T09:23:29Z</time>
      </trkpt>
      <trkpt lat="48.01512" lon="6.8502">
        <ele>965.6</ele>
        <time>2022-07-29T09:23:30Z</time>
      </trkpt>
      <trkpt lat="48.01511" lon="6.85022">
        <ele>965.8</ele>
        <time>2022-07-29T09:23:31Z</time>
      </trkpt>
      <trkpt lat="48.0151" lon="6.85024">
        <ele>966</ele>
        <time>2022-07-29T09:23:32Z</time>
      </trkpt>
      <trkpt lat="48.0151" lon="6.85026">
        <ele>966.2</ele>
        <time>2022-07-29T09:23:33Z</time>
      </trkpt>
      <trkpt lat="48.01508" lon="6.85032">
        <ele>966.6</ele>
        <time>2022-07-29T09:23:36Z</time>
      </trkpt>
      <trkpt lat="48.01507" lon="6.85034">
        <ele>966.8</ele>
        <time>2022-07-29T09:23:37Z</time>
      </trkpt>
      <trkpt lat="48.01506" lon="6.85036">
        <ele>967</ele>
        <time>2022-07-29T09:23:38Z</time>
      </trkpt>
      <trkpt lat="48.01506" lon="6.85038">
        <ele>967</ele>
        <time>2022-07-29T09:23:39Z</time>
      </trkpt>
      <trkpt lat="48.01505" lon="6.8504">
        <ele>967.2</ele>
        <time>2022-07-29T09:23:40Z</time>
      </trkpt>
      <trkpt lat="48.01505" lon="6.85042">
        <ele>967.4</ele>
        <time>2022-07-29T09:23:41Z</time>
      </trkpt>
      <trkpt lat="48.01505" lon="6.85044">
        <ele>967.6</ele>
        <time>2022-07-29T09:23:42Z</time>
      </trkpt>
      <trkpt lat="48.01504" lon="6.85045">
        <ele>967.8</ele>
        <time>2022-07-29T09:23:43Z</time>
      </trkpt>
      <trkpt lat="48.01503" lon="6.85047">
        <ele>968</ele>
        <time>2022-07-29T09:23:44Z</time>
      </trkpt>
      <trkpt lat="48.01503" lon="6.85049">
        <ele>968</ele>
        <time>2022-07-29T09:23:45Z</time>
      </trkpt>
      <trkpt lat="48.01502" lon="6.85051">
        <ele>968.2</ele>
        <time>2022-07-29T09:23:46Z</time>
      </trkpt>
      <trkpt lat="48.01502" lon="6.85052">
        <ele>968.8</ele>
        <time>2022-07-29T09:23:47Z</time>
      </trkpt>
      <trkpt lat="48.01501" lon="6.85053">
        <ele>969</ele>
        <time>2022-07-29T09:23:48Z</time>
      </trkpt>
      <trkpt lat="48.015" lon="6.85054">
        <ele>969.4</ele>
        <time>2022-07-29T09:23:49Z</time>
      </trkpt>
      <trkpt lat="48.01499" lon="6.85056">
        <ele>969.6</ele>
        <time>2022-07-29T09:23:50Z</time>
      </trkpt>
      <trkpt lat="48.01499" lon="6.85058">
        <ele>969.8</ele>
        <time>2022-07-29T09:23:51Z</time>
      </trkpt>
      <trkpt lat="48.01498" lon="6.8506">
        <ele>970</ele>
        <time>2022-07-29T09:23:52Z</time>
      </trkpt>
      <trkpt lat="48.01497" lon="6.85061">
        <ele>970.2</ele>
        <time>2022-07-29T09:23:53Z</time>
      </trkpt>
      <trkpt lat="48.01496" lon="6.85063">
        <ele>970.2</ele>
        <time>2022-07-29T09:23:54Z</time>
      </trkpt>
      <trkpt lat="48.01495" lon="6.85064">
        <ele>970.4</ele>
        <time>2022-07-29T09:23:55Z</time>
      </trkpt>
      <trkpt lat="48.01493" lon="6.85066">
        <ele>970.6</ele>
        <time>2022-07-29T09:23:56Z</time>
      </trkpt>
      <trkpt lat="48.01492" lon="6.85067">
        <ele>970.6</ele>
        <time>2022-07-29T09:23:57Z</time>
      </trkpt>
      <trkpt lat="48.01491" lon="6.85068">
        <ele>970.8</ele>
        <time>2022-07-29T09:23:58Z</time>
      </trkpt>
      <trkpt lat="48.0149" lon="6.85069">
        <ele>970.8</ele>
        <time>2022-07-29T09:23:59Z</time>
      </trkpt>
      <trkpt lat="48.01489" lon="6.85071">
        <ele>971</ele>
        <time>2022-07-29T09:24:00Z</time>
      </trkpt>
      <trkpt lat="48.01488" lon="6.85073">
        <ele>971</ele>
        <time>2022-07-29T09:24:01Z</time>
      </trkpt>
      <trkpt lat="48.01487" lon="6.85074">
        <ele>971.4</ele>
        <time>2022-07-29T09:24:02Z</time>
      </trkpt>
      <trkpt lat="48.01486" lon="6.85076">
        <ele>971.4</ele>
        <time>2022-07-29T09:24:03Z</time>
      </trkpt>
      <trkpt lat="48.01485" lon="6.85077">
        <ele>971.8</ele>
        <time>2022-07-29T09:24:04Z</time>
      </trkpt>
      <trkpt lat="48.01484" lon="6.85077">
        <ele>971.8</ele>
        <time>2022-07-29T09:24:05Z</time>
      </trkpt>
      <trkpt lat="48.01482" lon="6.85078">
        <ele>972</ele>
        <time>2022-07-29T09:24:06Z</time>
      </trkpt>
      <trkpt lat="48.01481" lon="6.85079">
        <ele>972.2</ele>
        <time>2022-07-29T09:24:07Z</time>
      </trkpt>
      <trkpt lat="48.0148" lon="6.8508">
        <ele>972.2</ele>
        <time>2022-07-29T09:24:08Z</time>
      </trkpt>
      <trkpt lat="48.01479" lon="6.85081">
        <ele>972.4</ele>
        <time>2022-07-29T09:24:09Z</time>
      </trkpt>
      <trkpt lat="48.01478" lon="6.85081">
        <ele>972.6</ele>
        <time>2022-07-29T09:24:10Z</time>
      </trkpt>
      <trkpt lat="48.01478" lon="6.85082">
        <ele>973</ele>
        <time>2022-07-29T09:24:11Z</time>
      </trkpt>
      <trkpt lat="48.01477" lon="6.85082">
        <ele>973.2</ele>
        <time>2022-07-29T09:24:12Z</time>
      </trkpt>
      <trkpt lat="48.01475" lon="6.85083">
        <ele>973.4</ele>
        <time>2022-07-29T09:24:13Z</time>
      </trkpt>
      <trkpt lat="48.01474" lon="6.85083">
        <ele>973.4</ele>
        <time>2022-07-29T09:24:14Z</time>
      </trkpt>
      <trkpt lat="48.01473" lon="6.85082">
        <ele>973.6</ele>
        <time>2022-07-29T09:24:15Z</time>
      </trkpt>
      <trkpt lat="48.01472" lon="6.85082">
        <ele>973.8</ele>
        <time>2022-07-29T09:24:16Z</time>
      </trkpt>
      <trkpt lat="48.01471" lon="6.85082">
        <ele>974</ele>
        <time>2022-07-29T09:24:17Z</time>
      </trkpt>
      <trkpt lat="48.0147" lon="6.85081">
        <ele>974.2</ele>
        <time>2022-07-29T09:24:18Z</time>
      </trkpt>
      <trkpt lat="48.01469" lon="6.8508">
        <ele>974.4</ele>
        <time>2022-07-29T09:24:19Z</time>
      </trkpt>
      <trkpt lat="48.01468" lon="6.8508">
        <ele>974.6</ele>
        <time>2022-07-29T09:24:20Z</time>
      </trkpt>
      <trkpt lat="48.01467" lon="6.85079">
        <ele>974.8</ele>
        <time>2022-07-29T09:24:21Z</time>
      </trkpt>
      <trkpt lat="48.01466" lon="6.85078">
        <ele>975.2</ele>
        <time>2022-07-29T09:24:22Z</time>
      </trkpt>
      <trkpt lat="48.01466" lon="6.85078">
        <ele>975.6</ele>
        <time>2022-07-29T09:24:23Z</time>
      </trkpt>
      <trkpt lat="48.01465" lon="6.85077">
        <ele>976</ele>
        <time>2022-07-29T09:24:24Z</time>
      </trkpt>
      <trkpt lat="48.01465" lon="6.85076">
        <ele>976.4</ele>
        <time>2022-07-29T09:24:25Z</time>
      </trkpt>
      <trkpt lat="48.01465" lon="6.85076">
        <ele>976.4</ele>
        <time>2022-07-29T09:24:26Z</time>
      </trkpt>
      <trkpt lat="48.01465" lon="6.85076">
        <ele>977</ele>
        <time>2022-07-29T09:24:30Z</time>
      </trkpt>
      <trkpt lat="48.01466" lon="6.85074">
        <ele>977</ele>
        <time>2022-07-29T09:24:36Z</time>
      </trkpt>
      <trkpt lat="48.01466" lon="6.85073">
        <ele>977</ele>
        <time>2022-07-29T09:24:37Z</time>
      </trkpt>
      <trkpt lat="48.01466" lon="6.85072">
        <ele>977</ele>
        <time>2022-07-29T09:24:38Z</time>
      </trkpt>
      <trkpt lat="48.01467" lon="6.85071">
        <ele>977</ele>
        <time>2022-07-29T09:24:39Z</time>
      </trkpt>
      <trkpt lat="48.01467" lon="6.85071">
        <ele>977.2</ele>
        <time>2022-07-29T09:24:42Z</time>
      </trkpt>
      <trkpt lat="48.01466" lon="6.85071">
        <ele>977.2</ele>
        <time>2022-07-29T09:24:47Z</time>
      </trkpt>
      <trkpt lat="48.01466" lon="6.85069">
        <ele>977</ele>
        <time>2022-07-29T09:25:01Z</time>
      </trkpt>
      <trkpt lat="48.01463" lon="6.85071">
        <ele>977</ele>
        <time>2022-07-29T09:25:04Z</time>
      </trkpt>
      <trkpt lat="48.01463" lon="6.85074">
        <ele>977.2</ele>
        <time>2022-07-29T09:25:06Z</time>
      </trkpt>
      <trkpt lat="48.0146" lon="6.85077">
        <ele>977.2</ele>
        <time>2022-07-29T09:25:08Z</time>
      </trkpt>
      <trkpt lat="48.01458" lon="6.85078">
        <ele>977.2</ele>
        <time>2022-07-29T09:25:09Z</time>
      </trkpt>
      <trkpt lat="48.01456" lon="6.85077">
        <ele>977.2</ele>
        <time>2022-07-29T09:25:10Z</time>
      </trkpt>
      <trkpt lat="48.01451" lon="6.85076">
        <ele>977.4</ele>
        <time>2022-07-29T09:25:13Z</time>
      </trkpt>
      <trkpt lat="48.01449" lon="6.85075">
        <ele>977.6</ele>
        <time>2022-07-29T09:25:14Z</time>
      </trkpt>
      <trkpt lat="48.01448" lon="6.85074">
        <ele>977.8</ele>
        <time>2022-07-29T09:25:15Z</time>
      </trkpt>
      <trkpt lat="48.01446" lon="6.85071">
        <ele>978.2</ele>
        <time>2022-07-29T09:25:17Z</time>
      </trkpt>
      <trkpt lat="48.01441" lon="6.8507">
        <ele>978.8</ele>
        <time>2022-07-29T09:25:19Z</time>
      </trkpt>
      <trkpt lat="48.01436" lon="6.85069">
        <ele>979</ele>
        <time>2022-07-29T09:25:21Z</time>
      </trkpt>
      <trkpt lat="48.01434" lon="6.85068">
        <ele>979</ele>
        <time>2022-07-29T09:25:22Z</time>
      </trkpt>
      <trkpt lat="48.01432" lon="6.85067">
        <ele>979.4</ele>
        <time>2022-07-29T09:25:23Z</time>
      </trkpt>
      <trkpt lat="48.01429" lon="6.85067">
        <ele>979.6</ele>
        <time>2022-07-29T09:25:24Z</time>
      </trkpt>
      <trkpt lat="48.01427" lon="6.85066">
        <ele>979.6</ele>
        <time>2022-07-29T09:25:25Z</time>
      </trkpt>
      <trkpt lat="48.01423" lon="6.85065">
        <ele>980.2</ele>
        <time>2022-07-29T09:25:27Z</time>
      </trkpt>
      <trkpt lat="48.01422" lon="6.85065">
        <ele>980.6</ele>
        <time>2022-07-29T09:25:28Z</time>
      </trkpt>
      <trkpt lat="48.0142" lon="6.85065">
        <ele>980.6</ele>
        <time>2022-07-29T09:25:29Z</time>
      </trkpt>
      <trkpt lat="48.01418" lon="6.85065">
        <ele>980.8</ele>
        <time>2022-07-29T09:25:30Z</time>
      </trkpt>
      <trkpt lat="48.01415" lon="6.85063">
        <ele>980.6</ele>
        <time>2022-07-29T09:25:31Z</time>
      </trkpt>
      <trkpt lat="48.01413" lon="6.85063">
        <ele>981</ele>
        <time>2022-07-29T09:25:32Z</time>
      </trkpt>
      <trkpt lat="48.01409" lon="6.85061">
        <ele>981</ele>
        <time>2022-07-29T09:25:33Z</time>
      </trkpt>
      <trkpt lat="48.01406" lon="6.85061">
        <ele>981</ele>
        <time>2022-07-29T09:25:34Z</time>
      </trkpt>
      <trkpt lat="48.01404" lon="6.8506">
        <ele>981</ele>
        <time>2022-07-29T09:25:35Z</time>
      </trkpt>
      <trkpt lat="48.01402" lon="6.8506">
        <ele>981</ele>
        <time>2022-07-29T09:25:36Z</time>
      </trkpt>
      <trkpt lat="48.014" lon="6.85059">
        <ele>981.2</ele>
        <time>2022-07-29T09:25:37Z</time>
      </trkpt>
      <trkpt lat="48.01398" lon="6.85059">
        <ele>981</ele>
        <time>2022-07-29T09:25:38Z</time>
      </trkpt>
      <trkpt lat="48.01396" lon="6.85057">
        <ele>981.2</ele>
        <time>2022-07-29T09:25:39Z</time>
      </trkpt>
      <trkpt lat="48.01393" lon="6.85057">
        <ele>981.2</ele>
        <time>2022-07-29T09:25:40Z</time>
      </trkpt>
      <trkpt lat="48.0139" lon="6.85055">
        <ele>981.6</ele>
        <time>2022-07-29T09:25:41Z</time>
      </trkpt>
      <trkpt lat="48.01389" lon="6.85054">
        <ele>982</ele>
        <time>2022-07-29T09:25:42Z</time>
      </trkpt>
      <trkpt lat="48.01387" lon="6.85054">
        <ele>982</ele>
        <time>2022-07-29T09:25:43Z</time>
      </trkpt>
      <trkpt lat="48.01386" lon="6.85053">
        <ele>982.2</ele>
        <time>2022-07-29T09:25:44Z</time>
      </trkpt>
      <trkpt lat="48.01384" lon="6.85054">
        <ele>982.4</ele>
        <time>2022-07-29T09:25:45Z</time>
      </trkpt>
      <trkpt lat="48.01381" lon="6.85053">
        <ele>982.6</ele>
        <time>2022-07-29T09:25:46Z</time>
      </trkpt>
      <trkpt lat="48.01378" lon="6.85053">
        <ele>982.6</ele>
        <time>2022-07-29T09:25:47Z</time>
      </trkpt>
      <trkpt lat="48.01376" lon="6.85054">
        <ele>982.8</ele>
        <time>2022-07-29T09:25:48Z</time>
      </trkpt>
      <trkpt lat="48.01375" lon="6.85055">
        <ele>983</ele>
        <time>2022-07-29T09:25:49Z</time>
      </trkpt>
      <trkpt lat="48.01374" lon="6.85055">
        <ele>983.2</ele>
        <time>2022-07-29T09:25:50Z</time>
      </trkpt>
      <trkpt lat="48.01372" lon="6.85056">
        <ele>983.4</ele>
        <time>2022-07-29T09:25:51Z</time>
      </trkpt>
      <trkpt lat="48.01371" lon="6.85057">
        <ele>983.6</ele>
        <time>2022-07-29T09:25:52Z</time>
      </trkpt>
      <trkpt lat="48.01369" lon="6.85057">
        <ele>983.8</ele>
        <time>2022-07-29T09:25:53Z</time>
      </trkpt>
      <trkpt lat="48.01368" lon="6.85059">
        <ele>984</ele>
        <time>2022-07-29T09:25:54Z</time>
      </trkpt>
      <trkpt lat="48.01366" lon="6.8506">
        <ele>984.2</ele>
        <time>2022-07-29T09:25:55Z</time>
      </trkpt>
      <trkpt lat="48.01365" lon="6.85061">
        <ele>984.2</ele>
        <time>2022-07-29T09:25:56Z</time>
      </trkpt>
      <trkpt lat="48.01364" lon="6.85063">
        <ele>984.4</ele>
        <time>2022-07-29T09:25:57Z</time>
      </trkpt>
      <trkpt lat="48.01363" lon="6.85064">
        <ele>984.4</ele>
        <time>2022-07-29T09:25:58Z</time>
      </trkpt>
      <trkpt lat="48.01362" lon="6.85065">
        <ele>984.8</ele>
        <time>2022-07-29T09:25:59Z</time>
      </trkpt>
      <trkpt lat="48.0136" lon="6.85067">
        <ele>984.8</ele>
        <time>2022-07-29T09:26:00Z</time>
      </trkpt>
      <trkpt lat="48.01358" lon="6.85067">
        <ele>985</ele>
        <time>2022-07-29T09:26:01Z</time>
      </trkpt>
      <trkpt lat="48.01356" lon="6.8507">
        <ele>985</ele>
        <time>2022-07-29T09:26:02Z</time>
      </trkpt>
      <trkpt lat="48.01354" lon="6.85071">
        <ele>985</ele>
        <time>2022-07-29T09:26:03Z</time>
      </trkpt>
      <trkpt lat="48.01352" lon="6.85072">
        <ele>985.2</ele>
        <time>2022-07-29T09:26:04Z</time>
      </trkpt>
      <trkpt lat="48.0135" lon="6.85073">
        <ele>985.4</ele>
        <time>2022-07-29T09:26:05Z</time>
      </trkpt>
      <trkpt lat="48.01348" lon="6.85074">
        <ele>985.6</ele>
        <time>2022-07-29T09:26:06Z</time>
      </trkpt>
      <trkpt lat="48.01347" lon="6.85075">
        <ele>985.6</ele>
        <time>2022-07-29T09:26:07Z</time>
      </trkpt>
      <trkpt lat="48.01346" lon="6.85076">
        <ele>985.8</ele>
        <time>2022-07-29T09:26:08Z</time>
      </trkpt>
      <trkpt lat="48.01344" lon="6.85077">
        <ele>986</ele>
        <time>2022-07-29T09:26:09Z</time>
      </trkpt>
      <trkpt lat="48.01342" lon="6.85078">
        <ele>986</ele>
        <time>2022-07-29T09:26:10Z</time>
      </trkpt>
      <trkpt lat="48.01341" lon="6.85079">
        <ele>986.2</ele>
        <time>2022-07-29T09:26:11Z</time>
      </trkpt>
      <trkpt lat="48.0134" lon="6.8508">
        <ele>986.4</ele>
        <time>2022-07-29T09:26:12Z</time>
      </trkpt>
      <trkpt lat="48.01339" lon="6.85082">
        <ele>986.6</ele>
        <time>2022-07-29T09:26:13Z</time>
      </trkpt>
      <trkpt lat="48.01338" lon="6.85083">
        <ele>986.8</ele>
        <time>2022-07-29T09:26:14Z</time>
      </trkpt>
      <trkpt lat="48.01336" lon="6.85084">
        <ele>987.2</ele>
        <time>2022-07-29T09:26:15Z</time>
      </trkpt>
      <trkpt lat="48.01335" lon="6.85086">
        <ele>987.8</ele>
        <time>2022-07-29T09:26:16Z</time>
      </trkpt>
      <trkpt lat="48.01333" lon="6.85087">
        <ele>988</ele>
        <time>2022-07-29T09:26:17Z</time>
      </trkpt>
      <trkpt lat="48.01332" lon="6.85089">
        <ele>988.4</ele>
        <time>2022-07-29T09:26:18Z</time>
      </trkpt>
      <trkpt lat="48.01331" lon="6.8509">
        <ele>988.4</ele>
        <time>2022-07-29T09:26:19Z</time>
      </trkpt>
      <trkpt lat="48.0133" lon="6.8509">
        <ele>989</ele>
        <time>2022-07-29T09:26:20Z</time>
      </trkpt>
      <trkpt lat="48.01328" lon="6.85091">
        <ele>989</ele>
        <time>2022-07-29T09:26:21Z</time>
      </trkpt>
      <trkpt lat="48.01327" lon="6.85092">
        <ele>989.2</ele>
        <time>2022-07-29T09:26:22Z</time>
      </trkpt>
      <trkpt lat="48.01325" lon="6.85093">
        <ele>989.4</ele>
        <time>2022-07-29T09:26:23Z</time>
      </trkpt>
      <trkpt lat="48.01323" lon="6.85094">
        <ele>989.6</ele>
        <time>2022-07-29T09:26:24Z</time>
      </trkpt>
      <trkpt lat="48.01321" lon="6.85096">
        <ele>989.6</ele>
        <time>2022-07-29T09:26:25Z</time>
      </trkpt>
      <trkpt lat="48.01318" lon="6.85098">
        <ele>989.6</ele>
        <time>2022-07-29T09:26:26Z</time>
      </trkpt>
      <trkpt lat="48.01315" lon="6.85101">
        <ele>989.6</ele>
        <time>2022-07-29T09:26:27Z</time>
      </trkpt>
      <trkpt lat="48.01312" lon="6.85103">
        <ele>989.6</ele>
        <time>2022-07-29T09:26:28Z</time>
      </trkpt>
      <trkpt lat="48.0131" lon="6.85106">
        <ele>989.6</ele>
        <time>2022-07-29T09:26:29Z</time>
      </trkpt>
      <trkpt lat="48.01308" lon="6.85108">
        <ele>989.6</ele>
        <time>2022-07-29T09:26:30Z</time>
      </trkpt>
      <trkpt lat="48.01307" lon="6.8511">
        <ele>989.6</ele>
        <time>2022-07-29T09:26:31Z</time>
      </trkpt>
      <trkpt lat="48.01306" lon="6.85113">
        <ele>989.6</ele>
        <time>2022-07-29T09:26:32Z</time>
      </trkpt>
      <trkpt lat="48.01304" lon="6.85115">
        <ele>989.6</ele>
        <time>2022-07-29T09:26:33Z</time>
      </trkpt>
      <trkpt lat="48.01302" lon="6.85117">
        <ele>989.6</ele>
        <time>2022-07-29T09:26:34Z</time>
      </trkpt>
      <trkpt lat="48.01299" lon="6.85119">
        <ele>989.6</ele>
        <time>2022-07-29T09:26:35Z</time>
      </trkpt>
      <trkpt lat="48.01296" lon="6.85121">
        <ele>989.6</ele>
        <time>2022-07-29T09:26:36Z</time>
      </trkpt>
      <trkpt lat="48.01295" lon="6.85122">
        <ele>989.6</ele>
        <time>2022-07-29T09:26:37Z</time>
      </trkpt>
      <trkpt lat="48.01293" lon="6.85124">
        <ele>989.6</ele>
        <time>2022-07-29T09:26:38Z</time>
      </trkpt>
      <trkpt lat="48.01292" lon="6.85126">
        <ele>989.6</ele>
        <time>2022-07-29T09:26:39Z</time>
      </trkpt>
      <trkpt lat="48.0129" lon="6.85128">
        <ele>989.6</ele>
        <time>2022-07-29T09:26:40Z</time>
      </trkpt>
      <trkpt lat="48.01289" lon="6.85129">
        <ele>989.6</ele>
        <time>2022-07-29T09:26:41Z</time>
      </trkpt>
      <trkpt lat="48.01285" lon="6.85131">
        <ele>989.6</ele>
        <time>2022-07-29T09:26:42Z</time>
      </trkpt>
      <trkpt lat="48.0128" lon="6.85133">
        <ele>989.8</ele>
        <time>2022-07-29T09:26:43Z</time>
      </trkpt>
      <trkpt lat="48.01277" lon="6.85134">
        <ele>989.8</ele>
        <time>2022-07-29T09:26:44Z</time>
      </trkpt>
      <trkpt lat="48.01274" lon="6.85136">
        <ele>989.8</ele>
        <time>2022-07-29T09:26:45Z</time>
      </trkpt>
      <trkpt lat="48.0127" lon="6.85143">
        <ele>990</ele>
        <time>2022-07-29T09:26:47Z</time>
      </trkpt>
      <trkpt lat="48.01268" lon="6.85145">
        <ele>990.2</ele>
        <time>2022-07-29T09:26:48Z</time>
      </trkpt>
      <trkpt lat="48.01267" lon="6.85146">
        <ele>990.4</ele>
        <time>2022-07-29T09:26:49Z</time>
      </trkpt>
      <trkpt lat="48.01264" lon="6.85148">
        <ele>990.4</ele>
        <time>2022-07-29T09:26:50Z</time>
      </trkpt>
      <trkpt lat="48.0126" lon="6.85152">
        <ele>990.6</ele>
        <time>2022-07-29T09:26:52Z</time>
      </trkpt>
      <trkpt lat="48.01255" lon="6.85158">
        <ele>991</ele>
        <time>2022-07-29T09:26:56Z</time>
      </trkpt>
      <trkpt lat="48.01253" lon="6.8516">
        <ele>991</ele>
        <time>2022-07-29T09:26:57Z</time>
      </trkpt>
      <trkpt lat="48.01252" lon="6.85161">
        <ele>991.2</ele>
        <time>2022-07-29T09:26:58Z</time>
      </trkpt>
      <trkpt lat="48.0125" lon="6.85162">
        <ele>991.2</ele>
        <time>2022-07-29T09:26:59Z</time>
      </trkpt>
      <trkpt lat="48.01247" lon="6.85163">
        <ele>991.4</ele>
        <time>2022-07-29T09:27:00Z</time>
      </trkpt>
      <trkpt lat="48.01245" lon="6.85164">
        <ele>991.4</ele>
        <time>2022-07-29T09:27:01Z</time>
      </trkpt>
      <trkpt lat="48.01244" lon="6.85165">
        <ele>991.6</ele>
        <time>2022-07-29T09:27:02Z</time>
      </trkpt>
      <trkpt lat="48.01242" lon="6.85166">
        <ele>991.6</ele>
        <time>2022-07-29T09:27:03Z</time>
      </trkpt>
      <trkpt lat="48.0124" lon="6.85167">
        <ele>991.8</ele>
        <time>2022-07-29T09:27:04Z</time>
      </trkpt>
      <trkpt lat="48.01235" lon="6.85166">
        <ele>992.2</ele>
        <time>2022-07-29T09:27:07Z</time>
      </trkpt>
      <trkpt lat="48.01232" lon="6.85166">
        <ele>992.4</ele>
        <time>2022-07-29T09:27:08Z</time>
      </trkpt>
      <trkpt lat="48.01228" lon="6.85165">
        <ele>992.8</ele>
        <time>2022-07-29T09:27:10Z</time>
      </trkpt>
      <trkpt lat="48.01225" lon="6.85164">
        <ele>992.8</ele>
        <time>2022-07-29T09:27:11Z</time>
      </trkpt>
      <trkpt lat="48.01223" lon="6.85164">
        <ele>993</ele>
        <time>2022-07-29T09:27:12Z</time>
      </trkpt>
      <trkpt lat="48.0122" lon="6.85163">
        <ele>993</ele>
        <time>2022-07-29T09:27:13Z</time>
      </trkpt>
      <trkpt lat="48.01219" lon="6.85162">
        <ele>993.2</ele>
        <time>2022-07-29T09:27:14Z</time>
      </trkpt>
      <trkpt lat="48.01217" lon="6.85161">
        <ele>993.2</ele>
        <time>2022-07-29T09:27:15Z</time>
      </trkpt>
      <trkpt lat="48.01215" lon="6.85159">
        <ele>993.4</ele>
        <time>2022-07-29T09:27:16Z</time>
      </trkpt>
      <trkpt lat="48.01213" lon="6.85159">
        <ele>993.4</ele>
        <time>2022-07-29T09:27:17Z</time>
      </trkpt>
      <trkpt lat="48.0121" lon="6.85159">
        <ele>993.6</ele>
        <time>2022-07-29T09:27:18Z</time>
      </trkpt>
      <trkpt lat="48.01206" lon="6.85158">
        <ele>993.6</ele>
        <time>2022-07-29T09:27:19Z</time>
      </trkpt>
      <trkpt lat="48.01203" lon="6.85157">
        <ele>993.6</ele>
        <time>2022-07-29T09:27:20Z</time>
      </trkpt>
      <trkpt lat="48.012" lon="6.85157">
        <ele>993.6</ele>
        <time>2022-07-29T09:27:21Z</time>
      </trkpt>
      <trkpt lat="48.01196" lon="6.85156">
        <ele>993.6</ele>
        <time>2022-07-29T09:27:22Z</time>
      </trkpt>
      <trkpt lat="48.01193" lon="6.85155">
        <ele>993.6</ele>
        <time>2022-07-29T09:27:23Z</time>
      </trkpt>
      <trkpt lat="48.0119" lon="6.85153">
        <ele>993.6</ele>
        <time>2022-07-29T09:27:24Z</time>
      </trkpt>
      <trkpt lat="48.01188" lon="6.85152">
        <ele>993.6</ele>
        <time>2022-07-29T09:27:25Z</time>
      </trkpt>
      <trkpt lat="48.01186" lon="6.85151">
        <ele>993.6</ele>
        <time>2022-07-29T09:27:26Z</time>
      </trkpt>
      <trkpt lat="48.01184" lon="6.85151">
        <ele>993.4</ele>
        <time>2022-07-29T09:27:27Z</time>
      </trkpt>
      <trkpt lat="48.01175" lon="6.8515">
        <ele>993.2</ele>
        <time>2022-07-29T09:27:31Z</time>
      </trkpt>
      <trkpt lat="48.01172" lon="6.8515">
        <ele>993.6</ele>
        <time>2022-07-29T09:27:32Z</time>
      </trkpt>
      <trkpt lat="48.0117" lon="6.85151">
        <ele>993.6</ele>
        <time>2022-07-29T09:27:33Z</time>
      </trkpt>
      <trkpt lat="48.01168" lon="6.85152">
        <ele>993.8</ele>
        <time>2022-07-29T09:27:34Z</time>
      </trkpt>
      <trkpt lat="48.01166" lon="6.85153">
        <ele>993.8</ele>
        <time>2022-07-29T09:27:35Z</time>
      </trkpt>
      <trkpt lat="48.01164" lon="6.85153">
        <ele>993.8</ele>
        <time>2022-07-29T09:27:36Z</time>
      </trkpt>
      <trkpt lat="48.01163" lon="6.85153">
        <ele>993.8</ele>
        <time>2022-07-29T09:27:37Z</time>
      </trkpt>
      <trkpt lat="48.01162" lon="6.85153">
        <ele>994</ele>
        <time>2022-07-29T09:27:38Z</time>
      </trkpt>
      <trkpt lat="48.01161" lon="6.85151">
        <ele>994</ele>
        <time>2022-07-29T09:27:39Z</time>
      </trkpt>
      <trkpt lat="48.01162" lon="6.85148">
        <ele>993.8</ele>
        <time>2022-07-29T09:27:40Z</time>
      </trkpt>
      <trkpt lat="48.01163" lon="6.85144">
        <ele>994</ele>
        <time>2022-07-29T09:27:42Z</time>
      </trkpt>
      <trkpt lat="48.01162" lon="6.85141">
        <ele>994</ele>
        <time>2022-07-29T09:27:43Z</time>
      </trkpt>
      <trkpt lat="48.01162" lon="6.85138">
        <ele>994</ele>
        <time>2022-07-29T09:27:44Z</time>
      </trkpt>
      <trkpt lat="48.01156" lon="6.85126">
        <ele>994</ele>
        <time>2022-07-29T09:27:48Z</time>
      </trkpt>
      <trkpt lat="48.01152" lon="6.85115">
        <ele>993.8</ele>
        <time>2022-07-29T09:27:51Z</time>
      </trkpt>
      <trkpt lat="48.01151" lon="6.8511">
        <ele>993.6</ele>
        <time>2022-07-29T09:27:52Z</time>
      </trkpt>
      <trkpt lat="48.0115" lon="6.85103">
        <ele>993.6</ele>
        <time>2022-07-29T09:27:54Z</time>
      </trkpt>
      <trkpt lat="48.0115" lon="6.85085">
        <ele>994</ele>
        <time>2022-07-29T09:27:59Z</time>
      </trkpt>
      <trkpt lat="48.0115" lon="6.85082">
        <ele>994.2</ele>
        <time>2022-07-29T09:28:00Z</time>
      </trkpt>
      <trkpt lat="48.0115" lon="6.8508">
        <ele>994.4</ele>
        <time>2022-07-29T09:28:01Z</time>
      </trkpt>
      <trkpt lat="48.0115" lon="6.85077">
        <ele>994.8</ele>
        <time>2022-07-29T09:28:02Z</time>
      </trkpt>
      <trkpt lat="48.0115" lon="6.85074">
        <ele>994.8</ele>
        <time>2022-07-29T09:28:03Z</time>
      </trkpt>
      <trkpt lat="48.01149" lon="6.8507">
        <ele>995.2</ele>
        <time>2022-07-29T09:28:04Z</time>
      </trkpt>
      <trkpt lat="48.01148" lon="6.85063">
        <ele>995.4</ele>
        <time>2022-07-29T09:28:07Z</time>
      </trkpt>
      <trkpt lat="48.01148" lon="6.85063">
        <ele>995.6</ele>
        <time>2022-07-29T09:28:10Z</time>
      </trkpt>
      <trkpt lat="48.01148" lon="6.85063">
        <ele>995.6</ele>
        <time>2022-07-29T09:28:20Z</time>
      </trkpt>
      <trkpt lat="48.01148" lon="6.85063">
        <ele>995.6</ele>
        <time>2022-07-29T09:28:42Z</time>
      </trkpt>
      <trkpt lat="48.01145" lon="6.85053">
        <ele>995.6</ele>
        <time>2022-07-29T09:28:48Z</time>
      </trkpt>
      <trkpt lat="48.01142" lon="6.85045">
        <ele>995.6</ele>
        <time>2022-07-29T09:28:50Z</time>
      </trkpt>
      <trkpt lat="48.01142" lon="6.85042">
        <ele>995.6</ele>
        <time>2022-07-29T09:28:51Z</time>
      </trkpt>
      <trkpt lat="48.01142" lon="6.85039">
        <ele>995.4</ele>
        <time>2022-07-29T09:28:52Z</time>
      </trkpt>
      <trkpt lat="48.01143" lon="6.85038">
        <ele>995.2</ele>
        <time>2022-07-29T09:28:53Z</time>
      </trkpt>
      <trkpt lat="48.01144" lon="6.85035">
        <ele>995.2</ele>
        <time>2022-07-29T09:28:54Z</time>
      </trkpt>
      <trkpt lat="48.01144" lon="6.85033">
        <ele>995</ele>
        <time>2022-07-29T09:28:55Z</time>
      </trkpt>
      <trkpt lat="48.01144" lon="6.8503">
        <ele>994.8</ele>
        <time>2022-07-29T09:28:56Z</time>
      </trkpt>
      <trkpt lat="48.01144" lon="6.85029">
        <ele>994.8</ele>
        <time>2022-07-29T09:28:57Z</time>
      </trkpt>
      <trkpt lat="48.01143" lon="6.85027">
        <ele>994.6</ele>
        <time>2022-07-29T09:28:58Z</time>
      </trkpt>
      <trkpt lat="48.01143" lon="6.85025">
        <ele>994.6</ele>
        <time>2022-07-29T09:28:59Z</time>
      </trkpt>
      <trkpt lat="48.01142" lon="6.85023">
        <ele>994.4</ele>
        <time>2022-07-29T09:29:00Z</time>
      </trkpt>
      <trkpt lat="48.01142" lon="6.85022">
        <ele>994.4</ele>
        <time>2022-07-29T09:29:01Z</time>
      </trkpt>
      <trkpt lat="48.01143" lon="6.8502">
        <ele>994</ele>
        <time>2022-07-29T09:29:02Z</time>
      </trkpt>
      <trkpt lat="48.01144" lon="6.85018">
        <ele>993.8</ele>
        <time>2022-07-29T09:29:03Z</time>
      </trkpt>
      <trkpt lat="48.01144" lon="6.85017">
        <ele>993.8</ele>
        <time>2022-07-29T09:29:04Z</time>
      </trkpt>
      <trkpt lat="48.01144" lon="6.85017">
        <ele>993.4</ele>
        <time>2022-07-29T09:29:05Z</time>
      </trkpt>
      <trkpt lat="48.01144" lon="6.85017">
        <ele>993.4</ele>
        <time>2022-07-29T09:29:06Z</time>
      </trkpt>
      <trkpt lat="48.01144" lon="6.85016">
        <ele>993</ele>
        <time>2022-07-29T09:29:10Z</time>
      </trkpt>
      <trkpt lat="48.01143" lon="6.85014">
        <ele>992.6</ele>
        <time>2022-07-29T09:29:14Z</time>
      </trkpt>
      <trkpt lat="48.01143" lon="6.85013">
        <ele>992.4</ele>
        <time>2022-07-29T09:29:16Z</time>
      </trkpt>
      <trkpt lat="48.0114" lon="6.85007">
        <ele>991.4</ele>
        <time>2022-07-29T09:29:23Z</time>
      </trkpt>
      <trkpt lat="48.01139" lon="6.85007">
        <ele>991.2</ele>
        <time>2022-07-29T09:29:24Z</time>
      </trkpt>
      <trkpt lat="48.01138" lon="6.85002">
        <ele>990.6</ele>
        <time>2022-07-29T09:29:27Z</time>
      </trkpt>
      <trkpt lat="48.01138" lon="6.85">
        <ele>990.4</ele>
        <time>2022-07-29T09:29:28Z</time>
      </trkpt>
      <trkpt lat="48.01137" lon="6.84997">
        <ele>989.6</ele>
        <time>2022-07-29T09:29:31Z</time>
      </trkpt>
      <trkpt lat="48.01136" lon="6.84995">
        <ele>989.2</ele>
        <time>2022-07-29T09:29:32Z</time>
      </trkpt>
      <trkpt lat="48.01134" lon="6.84987">
        <ele>988.2</ele>
        <time>2022-07-29T09:29:35Z</time>
      </trkpt>
      <trkpt lat="48.01134" lon="6.84983">
        <ele>987.8</ele>
        <time>2022-07-29T09:29:36Z</time>
      </trkpt>
      <trkpt lat="48.01135" lon="6.84979">
        <ele>987.4</ele>
        <time>2022-07-29T09:29:37Z</time>
      </trkpt>
      <trkpt lat="48.01135" lon="6.84971">
        <ele>986.8</ele>
        <time>2022-07-29T09:29:39Z</time>
      </trkpt>
      <trkpt lat="48.01135" lon="6.84965">
        <ele>986.4</ele>
        <time>2022-07-29T09:29:41Z</time>
      </trkpt>
      <trkpt lat="48.01135" lon="6.84962">
        <ele>986</ele>
        <time>2022-07-29T09:29:42Z</time>
      </trkpt>
      <trkpt lat="48.01135" lon="6.84959">
        <ele>985.4</ele>
        <time>2022-07-29T09:29:43Z</time>
      </trkpt>
      <trkpt lat="48.01136" lon="6.84941">
        <ele>984.4</ele>
        <time>2022-07-29T09:29:47Z</time>
      </trkpt>
      <trkpt lat="48.01139" lon="6.84925">
        <ele>982.8</ele>
        <time>2022-07-29T09:29:50Z</time>
      </trkpt>
      <trkpt lat="48.01142" lon="6.84912">
        <ele>981.8</ele>
        <time>2022-07-29T09:29:52Z</time>
      </trkpt>
      <trkpt lat="48.01145" lon="6.84904">
        <ele>980.6</ele>
        <time>2022-07-29T09:29:54Z</time>
      </trkpt>
      <trkpt lat="48.01146" lon="6.84901">
        <ele>980</ele>
        <time>2022-07-29T09:29:55Z</time>
      </trkpt>
      <trkpt lat="48.01148" lon="6.84897">
        <ele>979.2</ele>
        <time>2022-07-29T09:29:56Z</time>
      </trkpt>
      <trkpt lat="48.01151" lon="6.84894">
        <ele>978.6</ele>
        <time>2022-07-29T09:29:57Z</time>
      </trkpt>
      <trkpt lat="48.01152" lon="6.84891">
        <ele>978.4</ele>
        <time>2022-07-29T09:29:58Z</time>
      </trkpt>
      <trkpt lat="48.01153" lon="6.84889">
        <ele>978</ele>
        <time>2022-07-29T09:29:59Z</time>
      </trkpt>
      <trkpt lat="48.01153" lon="6.84886">
        <ele>977.8</ele>
        <time>2022-07-29T09:30:00Z</time>
      </trkpt>
      <trkpt lat="48.01153" lon="6.84883">
        <ele>977.2</ele>
        <time>2022-07-29T09:30:01Z</time>
      </trkpt>
      <trkpt lat="48.01151" lon="6.8488">
        <ele>976.8</ele>
        <time>2022-07-29T09:30:02Z</time>
      </trkpt>
      <trkpt lat="48.01146" lon="6.84872">
        <ele>976.4</ele>
        <time>2022-07-29T09:30:04Z</time>
      </trkpt>
      <trkpt lat="48.01143" lon="6.84868">
        <ele>975.8</ele>
        <time>2022-07-29T09:30:05Z</time>
      </trkpt>
      <trkpt lat="48.01139" lon="6.84863">
        <ele>975.2</ele>
        <time>2022-07-29T09:30:06Z</time>
      </trkpt>
      <trkpt lat="48.01134" lon="6.84853">
        <ele>974</ele>
        <time>2022-07-29T09:30:08Z</time>
      </trkpt>
      <trkpt lat="48.01132" lon="6.84846">
        <ele>973.2</ele>
        <time>2022-07-29T09:30:10Z</time>
      </trkpt>
      <trkpt lat="48.01132" lon="6.84843">
        <ele>972.8</ele>
        <time>2022-07-29T09:30:11Z</time>
      </trkpt>
      <trkpt lat="48.01132" lon="6.84841">
        <ele>972</ele>
        <time>2022-07-29T09:30:12Z</time>
      </trkpt>
      <trkpt lat="48.01131" lon="6.84838">
        <ele>971.8</ele>
        <time>2022-07-29T09:30:13Z</time>
      </trkpt>
      <trkpt lat="48.01131" lon="6.84835">
        <ele>971.2</ele>
        <time>2022-07-29T09:30:14Z</time>
      </trkpt>
      <trkpt lat="48.01132" lon="6.84831">
        <ele>971</ele>
        <time>2022-07-29T09:30:15Z</time>
      </trkpt>
      <trkpt lat="48.01132" lon="6.84828">
        <ele>970.6</ele>
        <time>2022-07-29T09:30:16Z</time>
      </trkpt>
      <trkpt lat="48.01131" lon="6.84825">
        <ele>970.4</ele>
        <time>2022-07-29T09:30:17Z</time>
      </trkpt>
      <trkpt lat="48.01129" lon="6.84823">
        <ele>970.2</ele>
        <time>2022-07-29T09:30:18Z</time>
      </trkpt>
      <trkpt lat="48.01128" lon="6.84822">
        <ele>969.8</ele>
        <time>2022-07-29T09:30:19Z</time>
      </trkpt>
      <trkpt lat="48.01127" lon="6.84822">
        <ele>969.4</ele>
        <time>2022-07-29T09:30:20Z</time>
      </trkpt>
      <trkpt lat="48.01126" lon="6.84821">
        <ele>968.8</ele>
        <time>2022-07-29T09:30:21Z</time>
      </trkpt>
      <trkpt lat="48.01126" lon="6.84821">
        <ele>968.4</ele>
        <time>2022-07-29T09:30:22Z</time>
      </trkpt>
      <trkpt lat="48.01126" lon="6.84821">
        <ele>968.4</ele>
        <time>2022-07-29T09:30:23Z</time>
      </trkpt>
      <trkpt lat="48.01125" lon="6.8482">
        <ele>967.2</ele>
        <time>2022-07-29T09:30:26Z</time>
      </trkpt>
      <trkpt lat="48.01124" lon="6.84819">
        <ele>966.6</ele>
        <time>2022-07-29T09:30:28Z</time>
      </trkpt>
      <trkpt lat="48.01123" lon="6.84818">
        <ele>966.2</ele>
        <time>2022-07-29T09:30:30Z</time>
      </trkpt>
      <trkpt lat="48.01123" lon="6.84818">
        <ele>965.8</ele>
        <time>2022-07-29T09:30:31Z</time>
      </trkpt>
      <trkpt lat="48.01123" lon="6.84818">
        <ele>965.6</ele>
        <time>2022-07-29T09:30:33Z</time>
      </trkpt>
      <trkpt lat="48.01121" lon="6.84816">
        <ele>965</ele>
        <time>2022-07-29T09:30:35Z</time>
      </trkpt>
      <trkpt lat="48.0112" lon="6.84813">
        <ele>965</ele>
        <time>2022-07-29T09:30:36Z</time>
      </trkpt>
      <trkpt lat="48.01119" lon="6.84811">
        <ele>964.8</ele>
        <time>2022-07-29T09:30:37Z</time>
      </trkpt>
      <trkpt lat="48.01119" lon="6.84806">
        <ele>964.4</ele>
        <time>2022-07-29T09:30:39Z</time>
      </trkpt>
      <trkpt lat="48.0112" lon="6.84805">
        <ele>964.2</ele>
        <time>2022-07-29T09:30:40Z</time>
      </trkpt>
      <trkpt lat="48.01121" lon="6.84802">
        <ele>963.8</ele>
        <time>2022-07-29T09:30:42Z</time>
      </trkpt>
      <trkpt lat="48.01122" lon="6.84801">
        <ele>963.8</ele>
        <time>2022-07-29T09:30:43Z</time>
      </trkpt>
      <trkpt lat="48.01123" lon="6.84799">
        <ele>963.6</ele>
        <time>2022-07-29T09:30:44Z</time>
      </trkpt>
      <trkpt lat="48.01126" lon="6.84793">
        <ele>963.8</ele>
        <time>2022-07-29T09:30:48Z</time>
      </trkpt>
      <trkpt lat="48.01126" lon="6.84791">
        <ele>963.8</ele>
        <time>2022-07-29T09:30:49Z</time>
      </trkpt>
      <trkpt lat="48.01127" lon="6.8479">
        <ele>964</ele>
        <time>2022-07-29T09:30:50Z</time>
      </trkpt>
      <trkpt lat="48.01127" lon="6.84788">
        <ele>964.4</ele>
        <time>2022-07-29T09:30:51Z</time>
      </trkpt>
      <trkpt lat="48.01127" lon="6.84787">
        <ele>964.4</ele>
        <time>2022-07-29T09:30:52Z</time>
      </trkpt>
      <trkpt lat="48.01127" lon="6.84785">
        <ele>964.8</ele>
        <time>2022-07-29T09:30:53Z</time>
      </trkpt>
      <trkpt lat="48.01126" lon="6.84784">
        <ele>965</ele>
        <time>2022-07-29T09:30:54Z</time>
      </trkpt>
      <trkpt lat="48.01126" lon="6.84783">
        <ele>965.2</ele>
        <time>2022-07-29T09:30:55Z</time>
      </trkpt>
      <trkpt lat="48.01126" lon="6.84781">
        <ele>965.2</ele>
        <time>2022-07-29T09:30:56Z</time>
      </trkpt>
      <trkpt lat="48.01126" lon="6.8478">
        <ele>965.4</ele>
        <time>2022-07-29T09:30:57Z</time>
      </trkpt>
      <trkpt lat="48.01126" lon="6.84778">
        <ele>965.6</ele>
        <time>2022-07-29T09:30:58Z</time>
      </trkpt>
      <trkpt lat="48.01125" lon="6.84777">
        <ele>965.6</ele>
        <time>2022-07-29T09:30:59Z</time>
      </trkpt>
      <trkpt lat="48.01125" lon="6.84776">
        <ele>965.6</ele>
        <time>2022-07-29T09:31:00Z</time>
      </trkpt>
      <trkpt lat="48.01125" lon="6.84774">
        <ele>965.8</ele>
        <time>2022-07-29T09:31:01Z</time>
      </trkpt>
      <trkpt lat="48.01125" lon="6.84772">
        <ele>965.8</ele>
        <time>2022-07-29T09:31:02Z</time>
      </trkpt>
      <trkpt lat="48.01125" lon="6.84766">
        <ele>966</ele>
        <time>2022-07-29T09:31:05Z</time>
      </trkpt>
      <trkpt lat="48.01124" lon="6.84756">
        <ele>966.2</ele>
        <time>2022-07-29T09:31:09Z</time>
      </trkpt>
      <trkpt lat="48.01124" lon="6.84754">
        <ele>966.2</ele>
        <time>2022-07-29T09:31:10Z</time>
      </trkpt>
      <trkpt lat="48.01123" lon="6.8475">
        <ele>966.4</ele>
        <time>2022-07-29T09:31:12Z</time>
      </trkpt>
      <trkpt lat="48.01123" lon="6.84748">
        <ele>966.6</ele>
        <time>2022-07-29T09:31:13Z</time>
      </trkpt>
      <trkpt lat="48.01123" lon="6.84746">
        <ele>966.6</ele>
        <time>2022-07-29T09:31:14Z</time>
      </trkpt>
      <trkpt lat="48.01122" lon="6.84744">
        <ele>966.8</ele>
        <time>2022-07-29T09:31:15Z</time>
      </trkpt>
      <trkpt lat="48.01118" lon="6.84736">
        <ele>967.4</ele>
        <time>2022-07-29T09:31:19Z</time>
      </trkpt>
      <trkpt lat="48.01118" lon="6.84734">
        <ele>967.8</ele>
        <time>2022-07-29T09:31:20Z</time>
      </trkpt>
      <trkpt lat="48.01117" lon="6.84732">
        <ele>967.8</ele>
        <time>2022-07-29T09:31:21Z</time>
      </trkpt>
      <trkpt lat="48.01116" lon="6.84729">
        <ele>968.2</ele>
        <time>2022-07-29T09:31:23Z</time>
      </trkpt>
      <trkpt lat="48.01114" lon="6.84725">
        <ele>968.6</ele>
        <time>2022-07-29T09:31:25Z</time>
      </trkpt>
      <trkpt lat="48.01113" lon="6.84723">
        <ele>968.8</ele>
        <time>2022-07-29T09:31:26Z</time>
      </trkpt>
      <trkpt lat="48.01111" lon="6.84721">
        <ele>969</ele>
        <time>2022-07-29T09:31:27Z</time>
      </trkpt>
      <trkpt lat="48.0111" lon="6.8472">
        <ele>969.2</ele>
        <time>2022-07-29T09:31:28Z</time>
      </trkpt>
      <trkpt lat="48.01109" lon="6.84718">
        <ele>969.4</ele>
        <time>2022-07-29T09:31:29Z</time>
      </trkpt>
      <trkpt lat="48.01107" lon="6.84716">
        <ele>969.4</ele>
        <time>2022-07-29T09:31:30Z</time>
      </trkpt>
      <trkpt lat="48.01105" lon="6.84714">
        <ele>969.4</ele>
        <time>2022-07-29T09:31:31Z</time>
      </trkpt>
      <trkpt lat="48.01104" lon="6.84713">
        <ele>969.6</ele>
        <time>2022-07-29T09:31:32Z</time>
      </trkpt>
      <trkpt lat="48.01102" lon="6.84712">
        <ele>969.6</ele>
        <time>2022-07-29T09:31:33Z</time>
      </trkpt>
      <trkpt lat="48.011" lon="6.8471">
        <ele>969.6</ele>
        <time>2022-07-29T09:31:34Z</time>
      </trkpt>
      <trkpt lat="48.01098" lon="6.84709">
        <ele>969.6</ele>
        <time>2022-07-29T09:31:35Z</time>
      </trkpt>
      <trkpt lat="48.01096" lon="6.84709">
        <ele>969.6</ele>
        <time>2022-07-29T09:31:36Z</time>
      </trkpt>
      <trkpt lat="48.01094" lon="6.84708">
        <ele>969.6</ele>
        <time>2022-07-29T09:31:37Z</time>
      </trkpt>
      <trkpt lat="48.01092" lon="6.84707">
        <ele>969.6</ele>
        <time>2022-07-29T09:31:38Z</time>
      </trkpt>
      <trkpt lat="48.01089" lon="6.84706">
        <ele>969.6</ele>
        <time>2022-07-29T09:31:39Z</time>
      </trkpt>
      <trkpt lat="48.01087" lon="6.84705">
        <ele>969.8</ele>
        <time>2022-07-29T09:31:40Z</time>
      </trkpt>
      <trkpt lat="48.01085" lon="6.84704">
        <ele>969.8</ele>
        <time>2022-07-29T09:31:41Z</time>
      </trkpt>
      <trkpt lat="48.01084" lon="6.84703">
        <ele>969.8</ele>
        <time>2022-07-29T09:31:42Z</time>
      </trkpt>
      <trkpt lat="48.01082" lon="6.84702">
        <ele>969.8</ele>
        <time>2022-07-29T09:31:43Z</time>
      </trkpt>
      <trkpt lat="48.0108" lon="6.84701">
        <ele>970</ele>
        <time>2022-07-29T09:31:44Z</time>
      </trkpt>
      <trkpt lat="48.01078" lon="6.847">
        <ele>970</ele>
        <time>2022-07-29T09:31:45Z</time>
      </trkpt>
      <trkpt lat="48.01076" lon="6.84699">
        <ele>970</ele>
        <time>2022-07-29T09:31:46Z</time>
      </trkpt>
      <trkpt lat="48.01069" lon="6.84693">
        <ele>970.6</ele>
        <time>2022-07-29T09:31:50Z</time>
      </trkpt>
      <trkpt lat="48.01062" lon="6.84689">
        <ele>970.8</ele>
        <time>2022-07-29T09:31:54Z</time>
      </trkpt>
      <trkpt lat="48.01061" lon="6.84689">
        <ele>970.8</ele>
        <time>2022-07-29T09:31:55Z</time>
      </trkpt>
      <trkpt lat="48.01059" lon="6.84688">
        <ele>970.8</ele>
        <time>2022-07-29T09:31:56Z</time>
      </trkpt>
      <trkpt lat="48.01058" lon="6.84687">
        <ele>971</ele>
        <time>2022-07-29T09:31:57Z</time>
      </trkpt>
      <trkpt lat="48.01057" lon="6.84686">
        <ele>971.2</ele>
        <time>2022-07-29T09:31:58Z</time>
      </trkpt>
      <trkpt lat="48.01055" lon="6.84685">
        <ele>971.6</ele>
        <time>2022-07-29T09:32:00Z</time>
      </trkpt>
      <trkpt lat="48.01054" lon="6.84685">
        <ele>972</ele>
        <time>2022-07-29T09:32:01Z</time>
      </trkpt>
      <trkpt lat="48.01053" lon="6.84684">
        <ele>972</ele>
        <time>2022-07-29T09:32:02Z</time>
      </trkpt>
      <trkpt lat="48.01052" lon="6.84683">
        <ele>972.2</ele>
        <time>2022-07-29T09:32:03Z</time>
      </trkpt>
      <trkpt lat="48.0105" lon="6.84682">
        <ele>972.4</ele>
        <time>2022-07-29T09:32:04Z</time>
      </trkpt>
      <trkpt lat="48.01048" lon="6.8468">
        <ele>972.6</ele>
        <time>2022-07-29T09:32:05Z</time>
      </trkpt>
      <trkpt lat="48.01047" lon="6.84679">
        <ele>972.6</ele>
        <time>2022-07-29T09:32:06Z</time>
      </trkpt>
      <trkpt lat="48.01047" lon="6.84677">
        <ele>972.8</ele>
        <time>2022-07-29T09:32:07Z</time>
      </trkpt>
      <trkpt lat="48.01046" lon="6.84676">
        <ele>973</ele>
        <time>2022-07-29T09:32:08Z</time>
      </trkpt>
      <trkpt lat="48.01045" lon="6.84674">
        <ele>973.2</ele>
        <time>2022-07-29T09:32:09Z</time>
      </trkpt>
      <trkpt lat="48.01044" lon="6.84672">
        <ele>973.6</ele>
        <time>2022-07-29T09:32:10Z</time>
      </trkpt>
      <trkpt lat="48.01044" lon="6.8467">
        <ele>973.8</ele>
        <time>2022-07-29T09:32:11Z</time>
      </trkpt>
      <trkpt lat="48.01043" lon="6.84669">
        <ele>974</ele>
        <time>2022-07-29T09:32:12Z</time>
      </trkpt>
      <trkpt lat="48.01042" lon="6.84667">
        <ele>974.2</ele>
        <time>2022-07-29T09:32:13Z</time>
      </trkpt>
      <trkpt lat="48.01041" lon="6.84666">
        <ele>974.4</ele>
        <time>2022-07-29T09:32:14Z</time>
      </trkpt>
      <trkpt lat="48.01041" lon="6.84664">
        <ele>974.6</ele>
        <time>2022-07-29T09:32:15Z</time>
      </trkpt>
      <trkpt lat="48.0104" lon="6.84662">
        <ele>974.8</ele>
        <time>2022-07-29T09:32:16Z</time>
      </trkpt>
      <trkpt lat="48.0104" lon="6.84659">
        <ele>974.8</ele>
        <time>2022-07-29T09:32:17Z</time>
      </trkpt>
      <trkpt lat="48.01039" lon="6.84658">
        <ele>975.2</ele>
        <time>2022-07-29T09:32:18Z</time>
      </trkpt>
      <trkpt lat="48.01039" lon="6.84656">
        <ele>975.4</ele>
        <time>2022-07-29T09:32:19Z</time>
      </trkpt>
      <trkpt lat="48.01039" lon="6.84654">
        <ele>975.4</ele>
        <time>2022-07-29T09:32:20Z</time>
      </trkpt>
      <trkpt lat="48.01038" lon="6.84652">
        <ele>975.6</ele>
        <time>2022-07-29T09:32:21Z</time>
      </trkpt>
      <trkpt lat="48.01037" lon="6.8465">
        <ele>975.8</ele>
        <time>2022-07-29T09:32:22Z</time>
      </trkpt>
      <trkpt lat="48.01037" lon="6.84648">
        <ele>976</ele>
        <time>2022-07-29T09:32:23Z</time>
      </trkpt>
      <trkpt lat="48.01037" lon="6.84646">
        <ele>976.2</ele>
        <time>2022-07-29T09:32:24Z</time>
      </trkpt>
      <trkpt lat="48.01036" lon="6.84644">
        <ele>976.4</ele>
        <time>2022-07-29T09:32:25Z</time>
      </trkpt>
      <trkpt lat="48.01036" lon="6.84642">
        <ele>976.4</ele>
        <time>2022-07-29T09:32:26Z</time>
      </trkpt>
      <trkpt lat="48.01036" lon="6.8464">
        <ele>976.6</ele>
        <time>2022-07-29T09:32:27Z</time>
      </trkpt>
      <trkpt lat="48.01036" lon="6.84638">
        <ele>976.8</ele>
        <time>2022-07-29T09:32:28Z</time>
      </trkpt>
      <trkpt lat="48.01035" lon="6.84636">
        <ele>976.8</ele>
        <time>2022-07-29T09:32:29Z</time>
      </trkpt>
      <trkpt lat="48.01035" lon="6.84634">
        <ele>976.8</ele>
        <time>2022-07-29T09:32:30Z</time>
      </trkpt>
      <trkpt lat="48.01034" lon="6.84632">
        <ele>977</ele>
        <time>2022-07-29T09:32:31Z</time>
      </trkpt>
      <trkpt lat="48.01034" lon="6.8463">
        <ele>977.4</ele>
        <time>2022-07-29T09:32:32Z</time>
      </trkpt>
      <trkpt lat="48.01034" lon="6.84629">
        <ele>977.4</ele>
        <time>2022-07-29T09:32:33Z</time>
      </trkpt>
      <trkpt lat="48.01033" lon="6.84627">
        <ele>977.6</ele>
        <time>2022-07-29T09:32:34Z</time>
      </trkpt>
      <trkpt lat="48.01032" lon="6.84625">
        <ele>977.8</ele>
        <time>2022-07-29T09:32:35Z</time>
      </trkpt>
      <trkpt lat="48.01032" lon="6.84623">
        <ele>978</ele>
        <time>2022-07-29T09:32:36Z</time>
      </trkpt>
      <trkpt lat="48.01032" lon="6.8462">
        <ele>978.2</ele>
        <time>2022-07-29T09:32:37Z</time>
      </trkpt>
      <trkpt lat="48.01032" lon="6.84617">
        <ele>978.4</ele>
        <time>2022-07-29T09:32:38Z</time>
      </trkpt>
      <trkpt lat="48.01032" lon="6.84615">
        <ele>978.6</ele>
        <time>2022-07-29T09:32:39Z</time>
      </trkpt>
      <trkpt lat="48.01032" lon="6.84613">
        <ele>978.6</ele>
        <time>2022-07-29T09:32:40Z</time>
      </trkpt>
      <trkpt lat="48.01032" lon="6.84611">
        <ele>978.8</ele>
        <time>2022-07-29T09:32:41Z</time>
      </trkpt>
      <trkpt lat="48.01032" lon="6.84608">
        <ele>978.8</ele>
        <time>2022-07-29T09:32:42Z</time>
      </trkpt>
      <trkpt lat="48.01031" lon="6.84606">
        <ele>979</ele>
        <time>2022-07-29T09:32:43Z</time>
      </trkpt>
      <trkpt lat="48.01031" lon="6.84604">
        <ele>979</ele>
        <time>2022-07-29T09:32:44Z</time>
      </trkpt>
      <trkpt lat="48.01031" lon="6.84601">
        <ele>979.2</ele>
        <time>2022-07-29T09:32:45Z</time>
      </trkpt>
      <trkpt lat="48.0103" lon="6.84599">
        <ele>979.4</ele>
        <time>2022-07-29T09:32:46Z</time>
      </trkpt>
      <trkpt lat="48.0103" lon="6.84597">
        <ele>979.6</ele>
        <time>2022-07-29T09:32:47Z</time>
      </trkpt>
      <trkpt lat="48.0103" lon="6.84595">
        <ele>979.8</ele>
        <time>2022-07-29T09:32:48Z</time>
      </trkpt>
      <trkpt lat="48.0103" lon="6.84592">
        <ele>979.8</ele>
        <time>2022-07-29T09:32:49Z</time>
      </trkpt>
      <trkpt lat="48.01029" lon="6.84591">
        <ele>980</ele>
        <time>2022-07-29T09:32:50Z</time>
      </trkpt>
      <trkpt lat="48.01029" lon="6.84588">
        <ele>980.2</ele>
        <time>2022-07-29T09:32:51Z</time>
      </trkpt>
      <trkpt lat="48.01029" lon="6.84586">
        <ele>980.4</ele>
        <time>2022-07-29T09:32:52Z</time>
      </trkpt>
      <trkpt lat="48.01029" lon="6.84584">
        <ele>980.4</ele>
        <time>2022-07-29T09:32:53Z</time>
      </trkpt>
      <trkpt lat="48.01029" lon="6.84581">
        <ele>980.6</ele>
        <time>2022-07-29T09:32:54Z</time>
      </trkpt>
      <trkpt lat="48.01028" lon="6.84579">
        <ele>980.6</ele>
        <time>2022-07-29T09:32:55Z</time>
      </trkpt>
      <trkpt lat="48.01028" lon="6.84576">
        <ele>980.8</ele>
        <time>2022-07-29T09:32:56Z</time>
      </trkpt>
      <trkpt lat="48.01027" lon="6.84574">
        <ele>981</ele>
        <time>2022-07-29T09:32:57Z</time>
      </trkpt>
      <trkpt lat="48.01025" lon="6.84572">
        <ele>981</ele>
        <time>2022-07-29T09:32:58Z</time>
      </trkpt>
      <trkpt lat="48.01024" lon="6.8457">
        <ele>981.4</ele>
        <time>2022-07-29T09:32:59Z</time>
      </trkpt>
      <trkpt lat="48.01023" lon="6.84568">
        <ele>981.4</ele>
        <time>2022-07-29T09:33:00Z</time>
      </trkpt>
      <trkpt lat="48.01022" lon="6.84565">
        <ele>981.6</ele>
        <time>2022-07-29T09:33:01Z</time>
      </trkpt>
      <trkpt lat="48.01021" lon="6.84563">
        <ele>981.6</ele>
        <time>2022-07-29T09:33:02Z</time>
      </trkpt>
      <trkpt lat="48.0102" lon="6.84561">
        <ele>981.8</ele>
        <time>2022-07-29T09:33:03Z</time>
      </trkpt>
      <trkpt lat="48.01019" lon="6.84558">
        <ele>982</ele>
        <time>2022-07-29T09:33:04Z</time>
      </trkpt>
      <trkpt lat="48.01018" lon="6.84555">
        <ele>982</ele>
        <time>2022-07-29T09:33:05Z</time>
      </trkpt>
      <trkpt lat="48.01017" lon="6.84553">
        <ele>982.2</ele>
        <time>2022-07-29T09:33:06Z</time>
      </trkpt>
      <trkpt lat="48.01016" lon="6.84551">
        <ele>982.2</ele>
        <time>2022-07-29T09:33:07Z</time>
      </trkpt>
      <trkpt lat="48.01015" lon="6.84549">
        <ele>982.2</ele>
        <time>2022-07-29T09:33:08Z</time>
      </trkpt>
      <trkpt lat="48.01015" lon="6.84547">
        <ele>982.2</ele>
        <time>2022-07-29T09:33:09Z</time>
      </trkpt>
      <trkpt lat="48.01014" lon="6.84545">
        <ele>982.2</ele>
        <time>2022-07-29T09:33:10Z</time>
      </trkpt>
      <trkpt lat="48.01012" lon="6.84543">
        <ele>982.4</ele>
        <time>2022-07-29T09:33:11Z</time>
      </trkpt>
      <trkpt lat="48.01011" lon="6.84542">
        <ele>982.4</ele>
        <time>2022-07-29T09:33:12Z</time>
      </trkpt>
      <trkpt lat="48.0101" lon="6.8454">
        <ele>982.6</ele>
        <time>2022-07-29T09:33:13Z</time>
      </trkpt>
      <trkpt lat="48.0101" lon="6.84538">
        <ele>982.6</ele>
        <time>2022-07-29T09:33:14Z</time>
      </trkpt>
      <trkpt lat="48.01008" lon="6.84535">
        <ele>982.8</ele>
        <time>2022-07-29T09:33:15Z</time>
      </trkpt>
      <trkpt lat="48.01007" lon="6.84533">
        <ele>982.8</ele>
        <time>2022-07-29T09:33:16Z</time>
      </trkpt>
      <trkpt lat="48.01006" lon="6.84531">
        <ele>983</ele>
        <time>2022-07-29T09:33:17Z</time>
      </trkpt>
      <trkpt lat="48.01005" lon="6.84528">
        <ele>983.2</ele>
        <time>2022-07-29T09:33:18Z</time>
      </trkpt>
      <trkpt lat="48.01004" lon="6.84526">
        <ele>983.4</ele>
        <time>2022-07-29T09:33:19Z</time>
      </trkpt>
      <trkpt lat="48.01003" lon="6.84523">
        <ele>983.6</ele>
        <time>2022-07-29T09:33:20Z</time>
      </trkpt>
      <trkpt lat="48.01003" lon="6.84521">
        <ele>983.8</ele>
        <time>2022-07-29T09:33:21Z</time>
      </trkpt>
      <trkpt lat="48.01003" lon="6.84518">
        <ele>983.8</ele>
        <time>2022-07-29T09:33:22Z</time>
      </trkpt>
      <trkpt lat="48.01002" lon="6.84515">
        <ele>983.8</ele>
        <time>2022-07-29T09:33:23Z</time>
      </trkpt>
      <trkpt lat="48.01002" lon="6.84512">
        <ele>984</ele>
        <time>2022-07-29T09:33:24Z</time>
      </trkpt>
      <trkpt lat="48.01002" lon="6.84509">
        <ele>984</ele>
        <time>2022-07-29T09:33:25Z</time>
      </trkpt>
      <trkpt lat="48.01002" lon="6.84506">
        <ele>984.2</ele>
        <time>2022-07-29T09:33:26Z</time>
      </trkpt>
      <trkpt lat="48.01002" lon="6.84503">
        <ele>984.2</ele>
        <time>2022-07-29T09:33:27Z</time>
      </trkpt>
      <trkpt lat="48.01002" lon="6.845">
        <ele>984.2</ele>
        <time>2022-07-29T09:33:28Z</time>
      </trkpt>
      <trkpt lat="48.01002" lon="6.84497">
        <ele>984.2</ele>
        <time>2022-07-29T09:33:29Z</time>
      </trkpt>
      <trkpt lat="48.01002" lon="6.84493">
        <ele>984.4</ele>
        <time>2022-07-29T09:33:30Z</time>
      </trkpt>
      <trkpt lat="48.01002" lon="6.8449">
        <ele>984.4</ele>
        <time>2022-07-29T09:33:31Z</time>
      </trkpt>
      <trkpt lat="48.01002" lon="6.84488">
        <ele>984.4</ele>
        <time>2022-07-29T09:33:32Z</time>
      </trkpt>
      <trkpt lat="48.01002" lon="6.84485">
        <ele>984.6</ele>
        <time>2022-07-29T09:33:33Z</time>
      </trkpt>
      <trkpt lat="48.01002" lon="6.84482">
        <ele>984.6</ele>
        <time>2022-07-29T09:33:34Z</time>
      </trkpt>
      <trkpt lat="48.01001" lon="6.84479">
        <ele>984.6</ele>
        <time>2022-07-29T09:33:35Z</time>
      </trkpt>
      <trkpt lat="48.01" lon="6.84477">
        <ele>984.6</ele>
        <time>2022-07-29T09:33:36Z</time>
      </trkpt>
      <trkpt lat="48.00999" lon="6.84474">
        <ele>985</ele>
        <time>2022-07-29T09:33:37Z</time>
      </trkpt>
      <trkpt lat="48.00998" lon="6.84472">
        <ele>985</ele>
        <time>2022-07-29T09:33:38Z</time>
      </trkpt>
      <trkpt lat="48.00997" lon="6.8447">
        <ele>985</ele>
        <time>2022-07-29T09:33:39Z</time>
      </trkpt>
      <trkpt lat="48.00996" lon="6.84468">
        <ele>985.2</ele>
        <time>2022-07-29T09:33:40Z</time>
      </trkpt>
      <trkpt lat="48.00995" lon="6.84466">
        <ele>985.2</ele>
        <time>2022-07-29T09:33:41Z</time>
      </trkpt>
      <trkpt lat="48.00994" lon="6.84464">
        <ele>985.4</ele>
        <time>2022-07-29T09:33:42Z</time>
      </trkpt>
      <trkpt lat="48.00993" lon="6.84461">
        <ele>985.4</ele>
        <time>2022-07-29T09:33:43Z</time>
      </trkpt>
      <trkpt lat="48.00992" lon="6.84459">
        <ele>985.4</ele>
        <time>2022-07-29T09:33:44Z</time>
      </trkpt>
      <trkpt lat="48.00992" lon="6.84457">
        <ele>985.6</ele>
        <time>2022-07-29T09:33:45Z</time>
      </trkpt>
      <trkpt lat="48.00991" lon="6.84454">
        <ele>985.6</ele>
        <time>2022-07-29T09:33:46Z</time>
      </trkpt>
      <trkpt lat="48.00991" lon="6.84452">
        <ele>985.6</ele>
        <time>2022-07-29T09:33:47Z</time>
      </trkpt>
      <trkpt lat="48.0099" lon="6.84448">
        <ele>985.8</ele>
        <time>2022-07-29T09:33:49Z</time>
      </trkpt>
      <trkpt lat="48.00989" lon="6.84445">
        <ele>986</ele>
        <time>2022-07-29T09:33:50Z</time>
      </trkpt>
      <trkpt lat="48.00989" lon="6.84443">
        <ele>986.2</ele>
        <time>2022-07-29T09:33:51Z</time>
      </trkpt>
      <trkpt lat="48.00988" lon="6.84441">
        <ele>986.4</ele>
        <time>2022-07-29T09:33:52Z</time>
      </trkpt>
      <trkpt lat="48.00988" lon="6.84436">
        <ele>987.2</ele>
        <time>2022-07-29T09:33:54Z</time>
      </trkpt>
      <trkpt lat="48.00988" lon="6.84433">
        <ele>987.4</ele>
        <time>2022-07-29T09:33:55Z</time>
      </trkpt>
      <trkpt lat="48.00987" lon="6.84431">
        <ele>987.4</ele>
        <time>2022-07-29T09:33:56Z</time>
      </trkpt>
      <trkpt lat="48.00987" lon="6.84429">
        <ele>987.8</ele>
        <time>2022-07-29T09:33:57Z</time>
      </trkpt>
      <trkpt lat="48.00986" lon="6.84427">
        <ele>988</ele>
        <time>2022-07-29T09:33:58Z</time>
      </trkpt>
      <trkpt lat="48.00986" lon="6.84425">
        <ele>988</ele>
        <time>2022-07-29T09:33:59Z</time>
      </trkpt>
      <trkpt lat="48.00986" lon="6.84422">
        <ele>988.6</ele>
        <time>2022-07-29T09:34:00Z</time>
      </trkpt>
      <trkpt lat="48.00986" lon="6.8442">
        <ele>988.8</ele>
        <time>2022-07-29T09:34:01Z</time>
      </trkpt>
      <trkpt lat="48.00987" lon="6.84417">
        <ele>989</ele>
        <time>2022-07-29T09:34:02Z</time>
      </trkpt>
      <trkpt lat="48.00988" lon="6.84415">
        <ele>989.2</ele>
        <time>2022-07-29T09:34:03Z</time>
      </trkpt>
      <trkpt lat="48.00988" lon="6.84412">
        <ele>989.6</ele>
        <time>2022-07-29T09:34:04Z</time>
      </trkpt>
      <trkpt lat="48.00989" lon="6.84409">
        <ele>989.8</ele>
        <time>2022-07-29T09:34:05Z</time>
      </trkpt>
      <trkpt lat="48.00989" lon="6.84407">
        <ele>990</ele>
        <time>2022-07-29T09:34:06Z</time>
      </trkpt>
      <trkpt lat="48.00989" lon="6.84404">
        <ele>990.2</ele>
        <time>2022-07-29T09:34:07Z</time>
      </trkpt>
      <trkpt lat="48.00989" lon="6.84402">
        <ele>990.4</ele>
        <time>2022-07-29T09:34:08Z</time>
      </trkpt>
      <trkpt lat="48.0099" lon="6.844">
        <ele>990.6</ele>
        <time>2022-07-29T09:34:09Z</time>
      </trkpt>
      <trkpt lat="48.0099" lon="6.84398">
        <ele>990.6</ele>
        <time>2022-07-29T09:34:10Z</time>
      </trkpt>
      <trkpt lat="48.0099" lon="6.84395">
        <ele>990.8</ele>
        <time>2022-07-29T09:34:11Z</time>
      </trkpt>
      <trkpt lat="48.00991" lon="6.84392">
        <ele>991</ele>
        <time>2022-07-29T09:34:12Z</time>
      </trkpt>
      <trkpt lat="48.0099" lon="6.84389">
        <ele>991</ele>
        <time>2022-07-29T09:34:13Z</time>
      </trkpt>
      <trkpt lat="48.00991" lon="6.84387">
        <ele>991</ele>
        <time>2022-07-29T09:34:14Z</time>
      </trkpt>
      <trkpt lat="48.00991" lon="6.84385">
        <ele>991.2</ele>
        <time>2022-07-29T09:34:15Z</time>
      </trkpt>
      <trkpt lat="48.0099" lon="6.84382">
        <ele>991.4</ele>
        <time>2022-07-29T09:34:16Z</time>
      </trkpt>
      <trkpt lat="48.0099" lon="6.8438">
        <ele>991.4</ele>
        <time>2022-07-29T09:34:17Z</time>
      </trkpt>
      <trkpt lat="48.00989" lon="6.84378">
        <ele>991.4</ele>
        <time>2022-07-29T09:34:18Z</time>
      </trkpt>
      <trkpt lat="48.00989" lon="6.84376">
        <ele>991.4</ele>
        <time>2022-07-29T09:34:19Z</time>
      </trkpt>
      <trkpt lat="48.00988" lon="6.84374">
        <ele>991.6</ele>
        <time>2022-07-29T09:34:20Z</time>
      </trkpt>
      <trkpt lat="48.00989" lon="6.84371">
        <ele>991.6</ele>
        <time>2022-07-29T09:34:21Z</time>
      </trkpt>
      <trkpt lat="48.00989" lon="6.84369">
        <ele>991.6</ele>
        <time>2022-07-29T09:34:22Z</time>
      </trkpt>
      <trkpt lat="48.00989" lon="6.84368">
        <ele>991.6</ele>
        <time>2022-07-29T09:34:23Z</time>
      </trkpt>
      <trkpt lat="48.00988" lon="6.84366">
        <ele>992</ele>
        <time>2022-07-29T09:34:24Z</time>
      </trkpt>
      <trkpt lat="48.00987" lon="6.84363">
        <ele>992.2</ele>
        <time>2022-07-29T09:34:25Z</time>
      </trkpt>
      <trkpt lat="48.00987" lon="6.84361">
        <ele>992.4</ele>
        <time>2022-07-29T09:34:26Z</time>
      </trkpt>
      <trkpt lat="48.00986" lon="6.8436">
        <ele>992.8</ele>
        <time>2022-07-29T09:34:27Z</time>
      </trkpt>
      <trkpt lat="48.00986" lon="6.84358">
        <ele>992.8</ele>
        <time>2022-07-29T09:34:28Z</time>
      </trkpt>
      <trkpt lat="48.00985" lon="6.84357">
        <ele>993</ele>
        <time>2022-07-29T09:34:29Z</time>
      </trkpt>
      <trkpt lat="48.00984" lon="6.84356">
        <ele>993</ele>
        <time>2022-07-29T09:34:30Z</time>
      </trkpt>
      <trkpt lat="48.00983" lon="6.84354">
        <ele>993.4</ele>
        <time>2022-07-29T09:34:31Z</time>
      </trkpt>
      <trkpt lat="48.00982" lon="6.84352">
        <ele>993.6</ele>
        <time>2022-07-29T09:34:32Z</time>
      </trkpt>
      <trkpt lat="48.0098" lon="6.84351">
        <ele>993.8</ele>
        <time>2022-07-29T09:34:33Z</time>
      </trkpt>
      <trkpt lat="48.00979" lon="6.84349">
        <ele>994</ele>
        <time>2022-07-29T09:34:34Z</time>
      </trkpt>
      <trkpt lat="48.00977" lon="6.84347">
        <ele>994.2</ele>
        <time>2022-07-29T09:34:35Z</time>
      </trkpt>
      <trkpt lat="48.00974" lon="6.84345">
        <ele>994.4</ele>
        <time>2022-07-29T09:34:36Z</time>
      </trkpt>
      <trkpt lat="48.00973" lon="6.84344">
        <ele>994.4</ele>
        <time>2022-07-29T09:34:37Z</time>
      </trkpt>
      <trkpt lat="48.00972" lon="6.84343">
        <ele>994.6</ele>
        <time>2022-07-29T09:34:38Z</time>
      </trkpt>
      <trkpt lat="48.0097" lon="6.84342">
        <ele>994.6</ele>
        <time>2022-07-29T09:34:39Z</time>
      </trkpt>
      <trkpt lat="48.00966" lon="6.84341">
        <ele>994.8</ele>
        <time>2022-07-29T09:34:40Z</time>
      </trkpt>
      <trkpt lat="48.00963" lon="6.8434">
        <ele>995</ele>
        <time>2022-07-29T09:34:41Z</time>
      </trkpt>
      <trkpt lat="48.0096" lon="6.8434">
        <ele>995</ele>
        <time>2022-07-29T09:34:42Z</time>
      </trkpt>
      <trkpt lat="48.00957" lon="6.84337">
        <ele>995.2</ele>
        <time>2022-07-29T09:34:43Z</time>
      </trkpt>
      <trkpt lat="48.00955" lon="6.84337">
        <ele>995.2</ele>
        <time>2022-07-29T09:34:44Z</time>
      </trkpt>
      <trkpt lat="48.00953" lon="6.84336">
        <ele>995.2</ele>
        <time>2022-07-29T09:34:45Z</time>
      </trkpt>
      <trkpt lat="48.00952" lon="6.84336">
        <ele>995.2</ele>
        <time>2022-07-29T09:34:46Z</time>
      </trkpt>
      <trkpt lat="48.0095" lon="6.84335">
        <ele>995.2</ele>
        <time>2022-07-29T09:34:47Z</time>
      </trkpt>
      <trkpt lat="48.00947" lon="6.84336">
        <ele>995.4</ele>
        <time>2022-07-29T09:34:48Z</time>
      </trkpt>
      <trkpt lat="48.00944" lon="6.84335">
        <ele>995.6</ele>
        <time>2022-07-29T09:34:49Z</time>
      </trkpt>
      <trkpt lat="48.00942" lon="6.84335">
        <ele>995.6</ele>
        <time>2022-07-29T09:34:50Z</time>
      </trkpt>
      <trkpt lat="48.0094" lon="6.84336">
        <ele>995.6</ele>
        <time>2022-07-29T09:34:51Z</time>
      </trkpt>
      <trkpt lat="48.00939" lon="6.84336">
        <ele>995.8</ele>
        <time>2022-07-29T09:34:52Z</time>
      </trkpt>
      <trkpt lat="48.00937" lon="6.84337">
        <ele>995.8</ele>
        <time>2022-07-29T09:34:53Z</time>
      </trkpt>
      <trkpt lat="48.00935" lon="6.84338">
        <ele>996</ele>
        <time>2022-07-29T09:34:54Z</time>
      </trkpt>
      <trkpt lat="48.00934" lon="6.84339">
        <ele>996</ele>
        <time>2022-07-29T09:34:55Z</time>
      </trkpt>
      <trkpt lat="48.00932" lon="6.8434">
        <ele>996.2</ele>
        <time>2022-07-29T09:34:56Z</time>
      </trkpt>
      <trkpt lat="48.0093" lon="6.84341">
        <ele>996.2</ele>
        <time>2022-07-29T09:34:57Z</time>
      </trkpt>
      <trkpt lat="48.00928" lon="6.84342">
        <ele>996.4</ele>
        <time>2022-07-29T09:34:58Z</time>
      </trkpt>
      <trkpt lat="48.00925" lon="6.84343">
        <ele>996.4</ele>
        <time>2022-07-29T09:34:59Z</time>
      </trkpt>
      <trkpt lat="48.00923" lon="6.84344">
        <ele>996.4</ele>
        <time>2022-07-29T09:35:00Z</time>
      </trkpt>
      <trkpt lat="48.00921" lon="6.84344">
        <ele>996.6</ele>
        <time>2022-07-29T09:35:01Z</time>
      </trkpt>
      <trkpt lat="48.00919" lon="6.84345">
        <ele>996.6</ele>
        <time>2022-07-29T09:35:02Z</time>
      </trkpt>
      <trkpt lat="48.00916" lon="6.84346">
        <ele>996.6</ele>
        <time>2022-07-29T09:35:03Z</time>
      </trkpt>
      <trkpt lat="48.00914" lon="6.84346">
        <ele>996.6</ele>
        <time>2022-07-29T09:35:04Z</time>
      </trkpt>
      <trkpt lat="48.00912" lon="6.84346">
        <ele>996.8</ele>
        <time>2022-07-29T09:35:05Z</time>
      </trkpt>
      <trkpt lat="48.0091" lon="6.84346">
        <ele>997</ele>
        <time>2022-07-29T09:35:06Z</time>
      </trkpt>
      <trkpt lat="48.00906" lon="6.84346">
        <ele>997</ele>
        <time>2022-07-29T09:35:07Z</time>
      </trkpt>
      <trkpt lat="48.00904" lon="6.84346">
        <ele>997</ele>
        <time>2022-07-29T09:35:08Z</time>
      </trkpt>
      <trkpt lat="48.009" lon="6.84346">
        <ele>997.4</ele>
        <time>2022-07-29T09:35:11Z</time>
      </trkpt>
      <trkpt lat="48.00898" lon="6.84346">
        <ele>997.6</ele>
        <time>2022-07-29T09:35:12Z</time>
      </trkpt>
      <trkpt lat="48.00897" lon="6.84346">
        <ele>997.6</ele>
        <time>2022-07-29T09:35:13Z</time>
      </trkpt>
      <trkpt lat="48.00895" lon="6.84347">
        <ele>997.8</ele>
        <time>2022-07-29T09:35:14Z</time>
      </trkpt>
      <trkpt lat="48.00893" lon="6.84348">
        <ele>998</ele>
        <time>2022-07-29T09:35:15Z</time>
      </trkpt>
      <trkpt lat="48.00892" lon="6.84348">
        <ele>998.4</ele>
        <time>2022-07-29T09:35:16Z</time>
      </trkpt>
      <trkpt lat="48.0089" lon="6.84349">
        <ele>998.6</ele>
        <time>2022-07-29T09:35:17Z</time>
      </trkpt>
      <trkpt lat="48.00889" lon="6.8435">
        <ele>998.6</ele>
        <time>2022-07-29T09:35:18Z</time>
      </trkpt>
      <trkpt lat="48.00887" lon="6.84352">
        <ele>999</ele>
        <time>2022-07-29T09:35:19Z</time>
      </trkpt>
      <trkpt lat="48.00884" lon="6.84352">
        <ele>999.2</ele>
        <time>2022-07-29T09:35:20Z</time>
      </trkpt>
      <trkpt lat="48.00883" lon="6.84354">
        <ele>999.6</ele>
        <time>2022-07-29T09:35:21Z</time>
      </trkpt>
      <trkpt lat="48.00881" lon="6.84355">
        <ele>999.6</ele>
        <time>2022-07-29T09:35:22Z</time>
      </trkpt>
      <trkpt lat="48.00879" lon="6.84356">
        <ele>999.8</ele>
        <time>2022-07-29T09:35:23Z</time>
      </trkpt>
      <trkpt lat="48.00878" lon="6.84357">
        <ele>1000</ele>
        <time>2022-07-29T09:35:24Z</time>
      </trkpt>
      <trkpt lat="48.00876" lon="6.84358">
        <ele>1000.2</ele>
        <time>2022-07-29T09:35:25Z</time>
      </trkpt>
      <trkpt lat="48.00875" lon="6.84359">
        <ele>1000.6</ele>
        <time>2022-07-29T09:35:26Z</time>
      </trkpt>
      <trkpt lat="48.00873" lon="6.8436">
        <ele>1001.2</ele>
        <time>2022-07-29T09:35:27Z</time>
      </trkpt>
      <trkpt lat="48.00872" lon="6.84361">
        <ele>1001.8</ele>
        <time>2022-07-29T09:35:28Z</time>
      </trkpt>
      <trkpt lat="48.0087" lon="6.84362">
        <ele>1001.8</ele>
        <time>2022-07-29T09:35:29Z</time>
      </trkpt>
      <trkpt lat="48.00869" lon="6.84363">
        <ele>1002.2</ele>
        <time>2022-07-29T09:35:30Z</time>
      </trkpt>
      <trkpt lat="48.00867" lon="6.84363">
        <ele>1002.2</ele>
        <time>2022-07-29T09:35:31Z</time>
      </trkpt>
      <trkpt lat="48.00865" lon="6.84363">
        <ele>1002.6</ele>
        <time>2022-07-29T09:35:32Z</time>
      </trkpt>
      <trkpt lat="48.00864" lon="6.84362">
        <ele>1002.8</ele>
        <time>2022-07-29T09:35:33Z</time>
      </trkpt>
      <trkpt lat="48.00863" lon="6.84361">
        <ele>1003.2</ele>
        <time>2022-07-29T09:35:34Z</time>
      </trkpt>
      <trkpt lat="48.00861" lon="6.8436">
        <ele>1003.4</ele>
        <time>2022-07-29T09:35:35Z</time>
      </trkpt>
      <trkpt lat="48.00859" lon="6.84358">
        <ele>1003.8</ele>
        <time>2022-07-29T09:35:36Z</time>
      </trkpt>
      <trkpt lat="48.00858" lon="6.84357">
        <ele>1004.2</ele>
        <time>2022-07-29T09:35:37Z</time>
      </trkpt>
      <trkpt lat="48.00857" lon="6.84356">
        <ele>1004.4</ele>
        <time>2022-07-29T09:35:38Z</time>
      </trkpt>
      <trkpt lat="48.00856" lon="6.84355">
        <ele>1004.6</ele>
        <time>2022-07-29T09:35:39Z</time>
      </trkpt>
      <trkpt lat="48.00854" lon="6.84353">
        <ele>1004.8</ele>
        <time>2022-07-29T09:35:40Z</time>
      </trkpt>
      <trkpt lat="48.00853" lon="6.84351">
        <ele>1004.8</ele>
        <time>2022-07-29T09:35:41Z</time>
      </trkpt>
      <trkpt lat="48.00852" lon="6.8435">
        <ele>1005</ele>
        <time>2022-07-29T09:35:42Z</time>
      </trkpt>
      <trkpt lat="48.00851" lon="6.84347">
        <ele>1005.2</ele>
        <time>2022-07-29T09:35:43Z</time>
      </trkpt>
      <trkpt lat="48.00851" lon="6.84345">
        <ele>1005.2</ele>
        <time>2022-07-29T09:35:44Z</time>
      </trkpt>
      <trkpt lat="48.0085" lon="6.84343">
        <ele>1005.4</ele>
        <time>2022-07-29T09:35:45Z</time>
      </trkpt>
      <trkpt lat="48.00849" lon="6.8434">
        <ele>1005.8</ele>
        <time>2022-07-29T09:35:46Z</time>
      </trkpt>
      <trkpt lat="48.00849" lon="6.84337">
        <ele>1005.8</ele>
        <time>2022-07-29T09:35:47Z</time>
      </trkpt>
      <trkpt lat="48.00848" lon="6.84334">
        <ele>1006.2</ele>
        <time>2022-07-29T09:35:48Z</time>
      </trkpt>
      <trkpt lat="48.00848" lon="6.84332">
        <ele>1006.4</ele>
        <time>2022-07-29T09:35:49Z</time>
      </trkpt>
      <trkpt lat="48.00848" lon="6.84329">
        <ele>1006.4</ele>
        <time>2022-07-29T09:35:50Z</time>
      </trkpt>
      <trkpt lat="48.00848" lon="6.84327">
        <ele>1006.4</ele>
        <time>2022-07-29T09:35:51Z</time>
      </trkpt>
      <trkpt lat="48.00847" lon="6.84324">
        <ele>1006.6</ele>
        <time>2022-07-29T09:35:52Z</time>
      </trkpt>
      <trkpt lat="48.00848" lon="6.84322">
        <ele>1006.8</ele>
        <time>2022-07-29T09:35:53Z</time>
      </trkpt>
      <trkpt lat="48.00848" lon="6.84319">
        <ele>1006.8</ele>
        <time>2022-07-29T09:35:54Z</time>
      </trkpt>
      <trkpt lat="48.00848" lon="6.84316">
        <ele>1007</ele>
        <time>2022-07-29T09:35:55Z</time>
      </trkpt>
      <trkpt lat="48.00849" lon="6.84313">
        <ele>1007</ele>
        <time>2022-07-29T09:35:56Z</time>
      </trkpt>
      <trkpt lat="48.00849" lon="6.84311">
        <ele>1007.2</ele>
        <time>2022-07-29T09:35:57Z</time>
      </trkpt>
      <trkpt lat="48.00849" lon="6.84309">
        <ele>1007.4</ele>
        <time>2022-07-29T09:35:58Z</time>
      </trkpt>
      <trkpt lat="48.0085" lon="6.84307">
        <ele>1007.6</ele>
        <time>2022-07-29T09:35:59Z</time>
      </trkpt>
      <trkpt lat="48.0085" lon="6.84305">
        <ele>1007.6</ele>
        <time>2022-07-29T09:36:00Z</time>
      </trkpt>
      <trkpt lat="48.00849" lon="6.84303">
        <ele>1007.8</ele>
        <time>2022-07-29T09:36:01Z</time>
      </trkpt>
      <trkpt lat="48.00849" lon="6.843">
        <ele>1007.8</ele>
        <time>2022-07-29T09:36:02Z</time>
      </trkpt>
      <trkpt lat="48.00849" lon="6.84298">
        <ele>1008.2</ele>
        <time>2022-07-29T09:36:03Z</time>
      </trkpt>
      <trkpt lat="48.00849" lon="6.84295">
        <ele>1008.4</ele>
        <time>2022-07-29T09:36:04Z</time>
      </trkpt>
      <trkpt lat="48.00849" lon="6.84293">
        <ele>1008.6</ele>
        <time>2022-07-29T09:36:05Z</time>
      </trkpt>
      <trkpt lat="48.00849" lon="6.84291">
        <ele>1008.8</ele>
        <time>2022-07-29T09:36:06Z</time>
      </trkpt>
      <trkpt lat="48.00849" lon="6.84289">
        <ele>1009</ele>
        <time>2022-07-29T09:36:07Z</time>
      </trkpt>
      <trkpt lat="48.00849" lon="6.84288">
        <ele>1009.2</ele>
        <time>2022-07-29T09:36:08Z</time>
      </trkpt>
      <trkpt lat="48.00849" lon="6.84286">
        <ele>1009.4</ele>
        <time>2022-07-29T09:36:09Z</time>
      </trkpt>
      <trkpt lat="48.00849" lon="6.84284">
        <ele>1009.8</ele>
        <time>2022-07-29T09:36:10Z</time>
      </trkpt>
      <trkpt lat="48.00848" lon="6.84283">
        <ele>1010</ele>
        <time>2022-07-29T09:36:11Z</time>
      </trkpt>
      <trkpt lat="48.00849" lon="6.84281">
        <ele>1010.2</ele>
        <time>2022-07-29T09:36:12Z</time>
      </trkpt>
      <trkpt lat="48.00848" lon="6.84278">
        <ele>1010.2</ele>
        <time>2022-07-29T09:36:13Z</time>
      </trkpt>
      <trkpt lat="48.00849" lon="6.84275">
        <ele>1010.4</ele>
        <time>2022-07-29T09:36:14Z</time>
      </trkpt>
      <trkpt lat="48.0085" lon="6.84274">
        <ele>1010.6</ele>
        <time>2022-07-29T09:36:15Z</time>
      </trkpt>
      <trkpt lat="48.00851" lon="6.84273">
        <ele>1010.8</ele>
        <time>2022-07-29T09:36:16Z</time>
      </trkpt>
      <trkpt lat="48.00852" lon="6.84271">
        <ele>1011</ele>
        <time>2022-07-29T09:36:17Z</time>
      </trkpt>
      <trkpt lat="48.00853" lon="6.8427">
        <ele>1011</ele>
        <time>2022-07-29T09:36:18Z</time>
      </trkpt>
      <trkpt lat="48.00855" lon="6.84267">
        <ele>1011</ele>
        <time>2022-07-29T09:36:19Z</time>
      </trkpt>
      <trkpt lat="48.00856" lon="6.84265">
        <ele>1011.2</ele>
        <time>2022-07-29T09:36:20Z</time>
      </trkpt>
      <trkpt lat="48.00857" lon="6.84262">
        <ele>1011.2</ele>
        <time>2022-07-29T09:36:21Z</time>
      </trkpt>
      <trkpt lat="48.00859" lon="6.84259">
        <ele>1011.4</ele>
        <time>2022-07-29T09:36:22Z</time>
      </trkpt>
      <trkpt lat="48.0086" lon="6.84257">
        <ele>1011.4</ele>
        <time>2022-07-29T09:36:23Z</time>
      </trkpt>
      <trkpt lat="48.00861" lon="6.84254">
        <ele>1011.6</ele>
        <time>2022-07-29T09:36:24Z</time>
      </trkpt>
      <trkpt lat="48.00861" lon="6.84252">
        <ele>1011.6</ele>
        <time>2022-07-29T09:36:25Z</time>
      </trkpt>
      <trkpt lat="48.00861" lon="6.84249">
        <ele>1011.8</ele>
        <time>2022-07-29T09:36:26Z</time>
      </trkpt>
      <trkpt lat="48.00861" lon="6.84247">
        <ele>1011.8</ele>
        <time>2022-07-29T09:36:27Z</time>
      </trkpt>
      <trkpt lat="48.00861" lon="6.84243">
        <ele>1012</ele>
        <time>2022-07-29T09:36:28Z</time>
      </trkpt>
      <trkpt lat="48.00861" lon="6.8424">
        <ele>1012.2</ele>
        <time>2022-07-29T09:36:29Z</time>
      </trkpt>
      <trkpt lat="48.00862" lon="6.84237">
        <ele>1012.2</ele>
        <time>2022-07-29T09:36:30Z</time>
      </trkpt>
      <trkpt lat="48.00862" lon="6.84234">
        <ele>1012.4</ele>
        <time>2022-07-29T09:36:31Z</time>
      </trkpt>
      <trkpt lat="48.00862" lon="6.84231">
        <ele>1012.4</ele>
        <time>2022-07-29T09:36:32Z</time>
      </trkpt>
      <trkpt lat="48.00863" lon="6.84228">
        <ele>1012.6</ele>
        <time>2022-07-29T09:36:33Z</time>
      </trkpt>
      <trkpt lat="48.00863" lon="6.84225">
        <ele>1012.8</ele>
        <time>2022-07-29T09:36:34Z</time>
      </trkpt>
      <trkpt lat="48.00865" lon="6.84222">
        <ele>1013</ele>
        <time>2022-07-29T09:36:35Z</time>
      </trkpt>
      <trkpt lat="48.00866" lon="6.8422">
        <ele>1013</ele>
        <time>2022-07-29T09:36:36Z</time>
      </trkpt>
      <trkpt lat="48.00866" lon="6.84217">
        <ele>1013</ele>
        <time>2022-07-29T09:36:37Z</time>
      </trkpt>
      <trkpt lat="48.00866" lon="6.84215">
        <ele>1013.2</ele>
        <time>2022-07-29T09:36:38Z</time>
      </trkpt>
      <trkpt lat="48.00866" lon="6.84212">
        <ele>1013.2</ele>
        <time>2022-07-29T09:36:39Z</time>
      </trkpt>
      <trkpt lat="48.00866" lon="6.8421">
        <ele>1013.2</ele>
        <time>2022-07-29T09:36:40Z</time>
      </trkpt>
      <trkpt lat="48.00866" lon="6.84208">
        <ele>1013.4</ele>
        <time>2022-07-29T09:36:41Z</time>
      </trkpt>
      <trkpt lat="48.00865" lon="6.84207">
        <ele>1013.6</ele>
        <time>2022-07-29T09:36:42Z</time>
      </trkpt>
      <trkpt lat="48.00865" lon="6.84205">
        <ele>1013.8</ele>
        <time>2022-07-29T09:36:43Z</time>
      </trkpt>
      <trkpt lat="48.00865" lon="6.84204">
        <ele>1014</ele>
        <time>2022-07-29T09:36:44Z</time>
      </trkpt>
      <trkpt lat="48.00865" lon="6.84201">
        <ele>1014</ele>
        <time>2022-07-29T09:36:45Z</time>
      </trkpt>
      <trkpt lat="48.00865" lon="6.84199">
        <ele>1014.2</ele>
        <time>2022-07-29T09:36:46Z</time>
      </trkpt>
      <trkpt lat="48.00864" lon="6.84196">
        <ele>1014.6</ele>
        <time>2022-07-29T09:36:47Z</time>
      </trkpt>
      <trkpt lat="48.00864" lon="6.84194">
        <ele>1014.6</ele>
        <time>2022-07-29T09:36:48Z</time>
      </trkpt>
      <trkpt lat="48.00864" lon="6.84192">
        <ele>1015</ele>
        <time>2022-07-29T09:36:49Z</time>
      </trkpt>
      <trkpt lat="48.00863" lon="6.84189">
        <ele>1014.8</ele>
        <time>2022-07-29T09:36:50Z</time>
      </trkpt>
      <trkpt lat="48.00863" lon="6.84187">
        <ele>1015.2</ele>
        <time>2022-07-29T09:36:51Z</time>
      </trkpt>
      <trkpt lat="48.00863" lon="6.84185">
        <ele>1015.4</ele>
        <time>2022-07-29T09:36:52Z</time>
      </trkpt>
      <trkpt lat="48.00864" lon="6.84182">
        <ele>1016</ele>
        <time>2022-07-29T09:36:53Z</time>
      </trkpt>
      <trkpt lat="48.00866" lon="6.84179">
        <ele>1016.2</ele>
        <time>2022-07-29T09:36:54Z</time>
      </trkpt>
      <trkpt lat="48.00866" lon="6.84176">
        <ele>1016.4</ele>
        <time>2022-07-29T09:36:55Z</time>
      </trkpt>
      <trkpt lat="48.00867" lon="6.84174">
        <ele>1016.6</ele>
        <time>2022-07-29T09:36:56Z</time>
      </trkpt>
      <trkpt lat="48.00866" lon="6.84172">
        <ele>1016.8</ele>
        <time>2022-07-29T09:36:57Z</time>
      </trkpt>
      <trkpt lat="48.00867" lon="6.8417">
        <ele>1017.2</ele>
        <time>2022-07-29T09:36:58Z</time>
      </trkpt>
      <trkpt lat="48.00867" lon="6.84169">
        <ele>1017.4</ele>
        <time>2022-07-29T09:36:59Z</time>
      </trkpt>
      <trkpt lat="48.00868" lon="6.84167">
        <ele>1017.8</ele>
        <time>2022-07-29T09:37:00Z</time>
      </trkpt>
      <trkpt lat="48.00869" lon="6.84165">
        <ele>1018</ele>
        <time>2022-07-29T09:37:01Z</time>
      </trkpt>
      <trkpt lat="48.0087" lon="6.84163">
        <ele>1018.2</ele>
        <time>2022-07-29T09:37:02Z</time>
      </trkpt>
      <trkpt lat="48.0087" lon="6.84161">
        <ele>1018.2</ele>
        <time>2022-07-29T09:37:03Z</time>
      </trkpt>
      <trkpt lat="48.00871" lon="6.84159">
        <ele>1018.2</ele>
        <time>2022-07-29T09:37:04Z</time>
      </trkpt>
      <trkpt lat="48.00871" lon="6.84158">
        <ele>1018.6</ele>
        <time>2022-07-29T09:37:05Z</time>
      </trkpt>
      <trkpt lat="48.00872" lon="6.84156">
        <ele>1018.6</ele>
        <time>2022-07-29T09:37:06Z</time>
      </trkpt>
      <trkpt lat="48.00873" lon="6.84154">
        <ele>1018.8</ele>
        <time>2022-07-29T09:37:07Z</time>
      </trkpt>
      <trkpt lat="48.00874" lon="6.84153">
        <ele>1018.8</ele>
        <time>2022-07-29T09:37:08Z</time>
      </trkpt>
      <trkpt lat="48.00874" lon="6.84152">
        <ele>1019</ele>
        <time>2022-07-29T09:37:09Z</time>
      </trkpt>
      <trkpt lat="48.00875" lon="6.8415">
        <ele>1019</ele>
        <time>2022-07-29T09:37:10Z</time>
      </trkpt>
      <trkpt lat="48.00877" lon="6.84148">
        <ele>1019.2</ele>
        <time>2022-07-29T09:37:11Z</time>
      </trkpt>
      <trkpt lat="48.00879" lon="6.84145">
        <ele>1019.2</ele>
        <time>2022-07-29T09:37:12Z</time>
      </trkpt>
      <trkpt lat="48.00881" lon="6.84142">
        <ele>1019.2</ele>
        <time>2022-07-29T09:37:13Z</time>
      </trkpt>
      <trkpt lat="48.00883" lon="6.84139">
        <ele>1019.2</ele>
        <time>2022-07-29T09:37:14Z</time>
      </trkpt>
      <trkpt lat="48.00884" lon="6.84136">
        <ele>1019.2</ele>
        <time>2022-07-29T09:37:15Z</time>
      </trkpt>
      <trkpt lat="48.00885" lon="6.84134">
        <ele>1019.2</ele>
        <time>2022-07-29T09:37:16Z</time>
      </trkpt>
      <trkpt lat="48.00887" lon="6.84132">
        <ele>1019.4</ele>
        <time>2022-07-29T09:37:17Z</time>
      </trkpt>
      <trkpt lat="48.00888" lon="6.84129">
        <ele>1019.4</ele>
        <time>2022-07-29T09:37:18Z</time>
      </trkpt>
      <trkpt lat="48.00889" lon="6.84127">
        <ele>1019.4</ele>
        <time>2022-07-29T09:37:19Z</time>
      </trkpt>
      <trkpt lat="48.00889" lon="6.84124">
        <ele>1019.6</ele>
        <time>2022-07-29T09:37:20Z</time>
      </trkpt>
      <trkpt lat="48.00889" lon="6.84122">
        <ele>1019.6</ele>
        <time>2022-07-29T09:37:21Z</time>
      </trkpt>
      <trkpt lat="48.0089" lon="6.8412">
        <ele>1019.6</ele>
        <time>2022-07-29T09:37:22Z</time>
      </trkpt>
      <trkpt lat="48.0089" lon="6.84117">
        <ele>1019.6</ele>
        <time>2022-07-29T09:37:23Z</time>
      </trkpt>
      <trkpt lat="48.00891" lon="6.84114">
        <ele>1019.8</ele>
        <time>2022-07-29T09:37:24Z</time>
      </trkpt>
      <trkpt lat="48.00891" lon="6.84111">
        <ele>1019.8</ele>
        <time>2022-07-29T09:37:25Z</time>
      </trkpt>
      <trkpt lat="48.00892" lon="6.84109">
        <ele>1019.8</ele>
        <time>2022-07-29T09:37:26Z</time>
      </trkpt>
      <trkpt lat="48.00892" lon="6.84106">
        <ele>1019.8</ele>
        <time>2022-07-29T09:37:27Z</time>
      </trkpt>
      <trkpt lat="48.00891" lon="6.84104">
        <ele>1020</ele>
        <time>2022-07-29T09:37:28Z</time>
      </trkpt>
      <trkpt lat="48.00891" lon="6.84101">
        <ele>1020</ele>
        <time>2022-07-29T09:37:29Z</time>
      </trkpt>
      <trkpt lat="48.0089" lon="6.84098">
        <ele>1020.2</ele>
        <time>2022-07-29T09:37:30Z</time>
      </trkpt>
      <trkpt lat="48.00889" lon="6.84096">
        <ele>1020.2</ele>
        <time>2022-07-29T09:37:31Z</time>
      </trkpt>
      <trkpt lat="48.00889" lon="6.84093">
        <ele>1020.4</ele>
        <time>2022-07-29T09:37:32Z</time>
      </trkpt>
      <trkpt lat="48.00888" lon="6.84085">
        <ele>1020.8</ele>
        <time>2022-07-29T09:37:36Z</time>
      </trkpt>
      <trkpt lat="48.00887" lon="6.84084">
        <ele>1021</ele>
        <time>2022-07-29T09:37:37Z</time>
      </trkpt>
      <trkpt lat="48.00888" lon="6.84082">
        <ele>1021.2</ele>
        <time>2022-07-29T09:37:38Z</time>
      </trkpt>
      <trkpt lat="48.00888" lon="6.84079">
        <ele>1021.6</ele>
        <time>2022-07-29T09:37:39Z</time>
      </trkpt>
      <trkpt lat="48.00887" lon="6.84076">
        <ele>1021.6</ele>
        <time>2022-07-29T09:37:40Z</time>
      </trkpt>
      <trkpt lat="48.00886" lon="6.84073">
        <ele>1021.8</ele>
        <time>2022-07-29T09:37:41Z</time>
      </trkpt>
      <trkpt lat="48.00885" lon="6.84071">
        <ele>1021.8</ele>
        <time>2022-07-29T09:37:42Z</time>
      </trkpt>
      <trkpt lat="48.00884" lon="6.84069">
        <ele>1022</ele>
        <time>2022-07-29T09:37:43Z</time>
      </trkpt>
      <trkpt lat="48.00884" lon="6.84067">
        <ele>1022</ele>
        <time>2022-07-29T09:37:44Z</time>
      </trkpt>
      <trkpt lat="48.00883" lon="6.84065">
        <ele>1022.2</ele>
        <time>2022-07-29T09:37:45Z</time>
      </trkpt>
      <trkpt lat="48.00883" lon="6.84063">
        <ele>1022.4</ele>
        <time>2022-07-29T09:37:46Z</time>
      </trkpt>
      <trkpt lat="48.00882" lon="6.84062">
        <ele>1022.6</ele>
        <time>2022-07-29T09:37:47Z</time>
      </trkpt>
      <trkpt lat="48.00882" lon="6.8406">
        <ele>1022.6</ele>
        <time>2022-07-29T09:37:48Z</time>
      </trkpt>
      <trkpt lat="48.00882" lon="6.84059">
        <ele>1022.8</ele>
        <time>2022-07-29T09:37:49Z</time>
      </trkpt>
      <trkpt lat="48.0088" lon="6.84058">
        <ele>1023</ele>
        <time>2022-07-29T09:37:50Z</time>
      </trkpt>
      <trkpt lat="48.00879" lon="6.84056">
        <ele>1023.2</ele>
        <time>2022-07-29T09:37:51Z</time>
      </trkpt>
      <trkpt lat="48.00878" lon="6.84053">
        <ele>1023.2</ele>
        <time>2022-07-29T09:37:52Z</time>
      </trkpt>
      <trkpt lat="48.00877" lon="6.84051">
        <ele>1023.4</ele>
        <time>2022-07-29T09:37:53Z</time>
      </trkpt>
      <trkpt lat="48.00876" lon="6.8405">
        <ele>1023.6</ele>
        <time>2022-07-29T09:37:54Z</time>
      </trkpt>
      <trkpt lat="48.00876" lon="6.84049">
        <ele>1023.8</ele>
        <time>2022-07-29T09:37:55Z</time>
      </trkpt>
      <trkpt lat="48.00876" lon="6.84048">
        <ele>1024</ele>
        <time>2022-07-29T09:37:56Z</time>
      </trkpt>
      <trkpt lat="48.00875" lon="6.84046">
        <ele>1024.2</ele>
        <time>2022-07-29T09:37:57Z</time>
      </trkpt>
      <trkpt lat="48.00874" lon="6.84043">
        <ele>1024.2</ele>
        <time>2022-07-29T09:37:58Z</time>
      </trkpt>
      <trkpt lat="48.00873" lon="6.84041">
        <ele>1024.4</ele>
        <time>2022-07-29T09:37:59Z</time>
      </trkpt>
      <trkpt lat="48.00872" lon="6.8404">
        <ele>1024.6</ele>
        <time>2022-07-29T09:38:00Z</time>
      </trkpt>
      <trkpt lat="48.00871" lon="6.84038">
        <ele>1024.6</ele>
        <time>2022-07-29T09:38:01Z</time>
      </trkpt>
      <trkpt lat="48.00869" lon="6.84036">
        <ele>1024.8</ele>
        <time>2022-07-29T09:38:02Z</time>
      </trkpt>
      <trkpt lat="48.00868" lon="6.84033">
        <ele>1024.8</ele>
        <time>2022-07-29T09:38:03Z</time>
      </trkpt>
      <trkpt lat="48.00867" lon="6.8403">
        <ele>1024.8</ele>
        <time>2022-07-29T09:38:04Z</time>
      </trkpt>
      <trkpt lat="48.00866" lon="6.84027">
        <ele>1025</ele>
        <time>2022-07-29T09:38:05Z</time>
      </trkpt>
      <trkpt lat="48.00865" lon="6.84025">
        <ele>1025.2</ele>
        <time>2022-07-29T09:38:06Z</time>
      </trkpt>
      <trkpt lat="48.00863" lon="6.84023">
        <ele>1025.4</ele>
        <time>2022-07-29T09:38:07Z</time>
      </trkpt>
      <trkpt lat="48.00863" lon="6.8402">
        <ele>1025.6</ele>
        <time>2022-07-29T09:38:08Z</time>
      </trkpt>
      <trkpt lat="48.00862" lon="6.84018">
        <ele>1025.8</ele>
        <time>2022-07-29T09:38:09Z</time>
      </trkpt>
      <trkpt lat="48.0086" lon="6.84016">
        <ele>1026</ele>
        <time>2022-07-29T09:38:10Z</time>
      </trkpt>
      <trkpt lat="48.00857" lon="6.84014">
        <ele>1026.2</ele>
        <time>2022-07-29T09:38:11Z</time>
      </trkpt>
      <trkpt lat="48.00855" lon="6.84012">
        <ele>1026.4</ele>
        <time>2022-07-29T09:38:12Z</time>
      </trkpt>
      <trkpt lat="48.00853" lon="6.84009">
        <ele>1026.6</ele>
        <time>2022-07-29T09:38:13Z</time>
      </trkpt>
      <trkpt lat="48.00852" lon="6.84007">
        <ele>1026.8</ele>
        <time>2022-07-29T09:38:14Z</time>
      </trkpt>
      <trkpt lat="48.00851" lon="6.84004">
        <ele>1027.2</ele>
        <time>2022-07-29T09:38:15Z</time>
      </trkpt>
      <trkpt lat="48.0085" lon="6.84002">
        <ele>1027.2</ele>
        <time>2022-07-29T09:38:16Z</time>
      </trkpt>
      <trkpt lat="48.00848" lon="6.84">
        <ele>1027.2</ele>
        <time>2022-07-29T09:38:17Z</time>
      </trkpt>
      <trkpt lat="48.00846" lon="6.83998">
        <ele>1027.4</ele>
        <time>2022-07-29T09:38:18Z</time>
      </trkpt>
      <trkpt lat="48.00844" lon="6.83995">
        <ele>1027.4</ele>
        <time>2022-07-29T09:38:19Z</time>
      </trkpt>
      <trkpt lat="48.00843" lon="6.83994">
        <ele>1027.4</ele>
        <time>2022-07-29T09:38:20Z</time>
      </trkpt>
      <trkpt lat="48.00842" lon="6.83994">
        <ele>1027.4</ele>
        <time>2022-07-29T09:38:21Z</time>
      </trkpt>
      <trkpt lat="48.00841" lon="6.83992">
        <ele>1027.4</ele>
        <time>2022-07-29T09:38:22Z</time>
      </trkpt>
      <trkpt lat="48.0084" lon="6.83989">
        <ele>1027.4</ele>
        <time>2022-07-29T09:38:23Z</time>
      </trkpt>
      <trkpt lat="48.00838" lon="6.83986">
        <ele>1027.2</ele>
        <time>2022-07-29T09:38:24Z</time>
      </trkpt>
      <trkpt lat="48.00837" lon="6.83984">
        <ele>1027.2</ele>
        <time>2022-07-29T09:38:25Z</time>
      </trkpt>
      <trkpt lat="48.00834" lon="6.83982">
        <ele>1027.6</ele>
        <time>2022-07-29T09:38:26Z</time>
      </trkpt>
      <trkpt lat="48.00833" lon="6.8398">
        <ele>1027.6</ele>
        <time>2022-07-29T09:38:27Z</time>
      </trkpt>
      <trkpt lat="48.00832" lon="6.83977">
        <ele>1027.6</ele>
        <time>2022-07-29T09:38:28Z</time>
      </trkpt>
      <trkpt lat="48.00831" lon="6.83973">
        <ele>1027.6</ele>
        <time>2022-07-29T09:38:29Z</time>
      </trkpt>
      <trkpt lat="48.0083" lon="6.83969">
        <ele>1027.4</ele>
        <time>2022-07-29T09:38:30Z</time>
      </trkpt>
      <trkpt lat="48.00829" lon="6.83966">
        <ele>1027.4</ele>
        <time>2022-07-29T09:38:31Z</time>
      </trkpt>
      <trkpt lat="48.00827" lon="6.83962">
        <ele>1027.2</ele>
        <time>2022-07-29T09:38:32Z</time>
      </trkpt>
      <trkpt lat="48.00826" lon="6.83958">
        <ele>1027.2</ele>
        <time>2022-07-29T09:38:33Z</time>
      </trkpt>
      <trkpt lat="48.00818" lon="6.83935">
        <ele>1026.8</ele>
        <time>2022-07-29T09:38:37Z</time>
      </trkpt>
      <trkpt lat="48.00802" lon="6.83913">
        <ele>1026.4</ele>
        <time>2022-07-29T09:38:42Z</time>
      </trkpt>
      <trkpt lat="48.008" lon="6.83912">
        <ele>1026.4</ele>
        <time>2022-07-29T09:38:43Z</time>
      </trkpt>
      <trkpt lat="48.00796" lon="6.83909">
        <ele>1026.4</ele>
        <time>2022-07-29T09:38:44Z</time>
      </trkpt>
      <trkpt lat="48.00793" lon="6.83908">
        <ele>1026.4</ele>
        <time>2022-07-29T09:38:45Z</time>
      </trkpt>
      <trkpt lat="48.00793" lon="6.83907">
        <ele>1026.4</ele>
        <time>2022-07-29T09:38:46Z</time>
      </trkpt>
      <trkpt lat="48.00791" lon="6.83905">
        <ele>1026.4</ele>
        <time>2022-07-29T09:38:47Z</time>
      </trkpt>
      <trkpt lat="48.00788" lon="6.83902">
        <ele>1026.6</ele>
        <time>2022-07-29T09:38:48Z</time>
      </trkpt>
      <trkpt lat="48.0078" lon="6.83896">
        <ele>1027</ele>
        <time>2022-07-29T09:38:51Z</time>
      </trkpt>
      <trkpt lat="48.00778" lon="6.83895">
        <ele>1027.2</ele>
        <time>2022-07-29T09:38:52Z</time>
      </trkpt>
      <trkpt lat="48.00773" lon="6.83895">
        <ele>1027.2</ele>
        <time>2022-07-29T09:38:53Z</time>
      </trkpt>
      <trkpt lat="48.00769" lon="6.83894">
        <ele>1027.2</ele>
        <time>2022-07-29T09:38:54Z</time>
      </trkpt>
      <trkpt lat="48.00766" lon="6.83892">
        <ele>1027.2</ele>
        <time>2022-07-29T09:38:55Z</time>
      </trkpt>
      <trkpt lat="48.00756" lon="6.83889">
        <ele>1027.2</ele>
        <time>2022-07-29T09:38:58Z</time>
      </trkpt>
      <trkpt lat="48.00738" lon="6.83883">
        <ele>1026.8</ele>
        <time>2022-07-29T09:39:02Z</time>
      </trkpt>
      <trkpt lat="48.00735" lon="6.83883">
        <ele>1026.8</ele>
        <time>2022-07-29T09:39:03Z</time>
      </trkpt>
      <trkpt lat="48.00731" lon="6.83882">
        <ele>1026.6</ele>
        <time>2022-07-29T09:39:04Z</time>
      </trkpt>
      <trkpt lat="48.00728" lon="6.83881">
        <ele>1026.6</ele>
        <time>2022-07-29T09:39:05Z</time>
      </trkpt>
      <trkpt lat="48.00724" lon="6.8388">
        <ele>1026.6</ele>
        <time>2022-07-29T09:39:06Z</time>
      </trkpt>
      <trkpt lat="48.00721" lon="6.83879">
        <ele>1026.6</ele>
        <time>2022-07-29T09:39:07Z</time>
      </trkpt>
      <trkpt lat="48.00709" lon="6.83876">
        <ele>1026.6</ele>
        <time>2022-07-29T09:39:10Z</time>
      </trkpt>
      <trkpt lat="48.00705" lon="6.83876">
        <ele>1026.6</ele>
        <time>2022-07-29T09:39:11Z</time>
      </trkpt>
      <trkpt lat="48.00702" lon="6.83874">
        <ele>1026.6</ele>
        <time>2022-07-29T09:39:12Z</time>
      </trkpt>
      <trkpt lat="48.00698" lon="6.83874">
        <ele>1026.8</ele>
        <time>2022-07-29T09:39:13Z</time>
      </trkpt>
      <trkpt lat="48.00694" lon="6.83873">
        <ele>1026.8</ele>
        <time>2022-07-29T09:39:14Z</time>
      </trkpt>
      <trkpt lat="48.00691" lon="6.83872">
        <ele>1027</ele>
        <time>2022-07-29T09:39:15Z</time>
      </trkpt>
      <trkpt lat="48.00685" lon="6.8387">
        <ele>1027</ele>
        <time>2022-07-29T09:39:17Z</time>
      </trkpt>
      <trkpt lat="48.00683" lon="6.8387">
        <ele>1027.2</ele>
        <time>2022-07-29T09:39:18Z</time>
      </trkpt>
      <trkpt lat="48.0068" lon="6.8387">
        <ele>1027.2</ele>
        <time>2022-07-29T09:39:19Z</time>
      </trkpt>
      <trkpt lat="48.00676" lon="6.8387">
        <ele>1027.2</ele>
        <time>2022-07-29T09:39:20Z</time>
      </trkpt>
      <trkpt lat="48.00668" lon="6.83866">
        <ele>1027.4</ele>
        <time>2022-07-29T09:39:22Z</time>
      </trkpt>
      <trkpt lat="48.00665" lon="6.83864">
        <ele>1027.4</ele>
        <time>2022-07-29T09:39:23Z</time>
      </trkpt>
      <trkpt lat="48.00662" lon="6.83862">
        <ele>1027.6</ele>
        <time>2022-07-29T09:39:24Z</time>
      </trkpt>
      <trkpt lat="48.00659" lon="6.83861">
        <ele>1027.6</ele>
        <time>2022-07-29T09:39:25Z</time>
      </trkpt>
      <trkpt lat="48.00655" lon="6.8386">
        <ele>1027.6</ele>
        <time>2022-07-29T09:39:26Z</time>
      </trkpt>
      <trkpt lat="48.00649" lon="6.83857">
        <ele>1027.6</ele>
        <time>2022-07-29T09:39:27Z</time>
      </trkpt>
      <trkpt lat="48.00627" lon="6.83846">
        <ele>1027.2</ele>
        <time>2022-07-29T09:39:32Z</time>
      </trkpt>
      <trkpt lat="48.0062" lon="6.8384">
        <ele>1026.8</ele>
        <time>2022-07-29T09:39:34Z</time>
      </trkpt>
      <trkpt lat="48.00615" lon="6.83838">
        <ele>1026.6</ele>
        <time>2022-07-29T09:39:35Z</time>
      </trkpt>
      <trkpt lat="48.00612" lon="6.83837">
        <ele>1026.2</ele>
        <time>2022-07-29T09:39:36Z</time>
      </trkpt>
      <trkpt lat="48.00608" lon="6.83835">
        <ele>1026.2</ele>
        <time>2022-07-29T09:39:37Z</time>
      </trkpt>
      <trkpt lat="48.00603" lon="6.83829">
        <ele>1025.6</ele>
        <time>2022-07-29T09:39:39Z</time>
      </trkpt>
      <trkpt lat="48.00601" lon="6.83825">
        <ele>1025.2</ele>
        <time>2022-07-29T09:39:40Z</time>
      </trkpt>
      <trkpt lat="48.00599" lon="6.83818">
        <ele>1025</ele>
        <time>2022-07-29T09:39:41Z</time>
      </trkpt>
      <trkpt lat="48.00598" lon="6.8381">
        <ele>1024.6</ele>
        <time>2022-07-29T09:39:42Z</time>
      </trkpt>
      <trkpt lat="48.00597" lon="6.838">
        <ele>1024.2</ele>
        <time>2022-07-29T09:39:43Z</time>
      </trkpt>
      <trkpt lat="48.00596" lon="6.8379">
        <ele>1024</ele>
        <time>2022-07-29T09:39:44Z</time>
      </trkpt>
      <trkpt lat="48.00597" lon="6.83782">
        <ele>1023.4</ele>
        <time>2022-07-29T09:39:45Z</time>
      </trkpt>
      <trkpt lat="48.00597" lon="6.83773">
        <ele>1023.2</ele>
        <time>2022-07-29T09:39:46Z</time>
      </trkpt>
      <trkpt lat="48.00596" lon="6.83763">
        <ele>1022.6</ele>
        <time>2022-07-29T09:39:47Z</time>
      </trkpt>
      <trkpt lat="48.00594" lon="6.83747">
        <ele>1021.8</ele>
        <time>2022-07-29T09:39:49Z</time>
      </trkpt>
      <trkpt lat="48.00591" lon="6.83739">
        <ele>1021.4</ele>
        <time>2022-07-29T09:39:50Z</time>
      </trkpt>
      <trkpt lat="48.00587" lon="6.83731">
        <ele>1020.4</ele>
        <time>2022-07-29T09:39:51Z</time>
      </trkpt>
      <trkpt lat="48.00583" lon="6.83726">
        <ele>1019.6</ele>
        <time>2022-07-29T09:39:52Z</time>
      </trkpt>
      <trkpt lat="48.00574" lon="6.8372">
        <ele>1019.2</ele>
        <time>2022-07-29T09:39:53Z</time>
      </trkpt>
      <trkpt lat="48.00566" lon="6.83715">
        <ele>1018.2</ele>
        <time>2022-07-29T09:39:54Z</time>
      </trkpt>
      <trkpt lat="48.00558" lon="6.83709">
        <ele>1017.8</ele>
        <time>2022-07-29T09:39:55Z</time>
      </trkpt>
      <trkpt lat="48.00553" lon="6.83704">
        <ele>1017.2</ele>
        <time>2022-07-29T09:39:56Z</time>
      </trkpt>
      <trkpt lat="48.0055" lon="6.837">
        <ele>1017</ele>
        <time>2022-07-29T09:39:57Z</time>
      </trkpt>
      <trkpt lat="48.00548" lon="6.83693">
        <ele>1016.4</ele>
        <time>2022-07-29T09:39:58Z</time>
      </trkpt>
      <trkpt lat="48.00547" lon="6.83684">
        <ele>1016</ele>
        <time>2022-07-29T09:39:59Z</time>
      </trkpt>
      <trkpt lat="48.00546" lon="6.83673">
        <ele>1015.6</ele>
        <time>2022-07-29T09:40:00Z</time>
      </trkpt>
      <trkpt lat="48.00544" lon="6.8366">
        <ele>1015.2</ele>
        <time>2022-07-29T09:40:01Z</time>
      </trkpt>
      <trkpt lat="48.00542" lon="6.83649">
        <ele>1015</ele>
        <time>2022-07-29T09:40:02Z</time>
      </trkpt>
      <trkpt lat="48.00536" lon="6.8364">
        <ele>1014.4</ele>
        <time>2022-07-29T09:40:03Z</time>
      </trkpt>
      <trkpt lat="48.00532" lon="6.83633">
        <ele>1014</ele>
        <time>2022-07-29T09:40:04Z</time>
      </trkpt>
      <trkpt lat="48.00528" lon="6.83628">
        <ele>1013.4</ele>
        <time>2022-07-29T09:40:05Z</time>
      </trkpt>
      <trkpt lat="48.00526" lon="6.83626">
        <ele>1013.2</ele>
        <time>2022-07-29T09:40:06Z</time>
      </trkpt>
      <trkpt lat="48.00525" lon="6.83625">
        <ele>1012.6</ele>
        <time>2022-07-29T09:40:07Z</time>
      </trkpt>
      <trkpt lat="48.00524" lon="6.83625">
        <ele>1012.4</ele>
        <time>2022-07-29T09:40:08Z</time>
      </trkpt>
      <trkpt lat="48.00522" lon="6.83625">
        <ele>1012</ele>
        <time>2022-07-29T09:40:09Z</time>
      </trkpt>
      <trkpt lat="48.0052" lon="6.83626">
        <ele>1011.6</ele>
        <time>2022-07-29T09:40:10Z</time>
      </trkpt>
      <trkpt lat="48.00516" lon="6.8363">
        <ele>1011</ele>
        <time>2022-07-29T09:40:12Z</time>
      </trkpt>
      <trkpt lat="48.00515" lon="6.83632">
        <ele>1010.8</ele>
        <time>2022-07-29T09:40:13Z</time>
      </trkpt>
      <trkpt lat="48.00512" lon="6.83635">
        <ele>1010.8</ele>
        <time>2022-07-29T09:40:14Z</time>
      </trkpt>
      <trkpt lat="48.00506" lon="6.83642">
        <ele>1010.6</ele>
        <time>2022-07-29T09:40:16Z</time>
      </trkpt>
      <trkpt lat="48.00496" lon="6.83658">
        <ele>1010</ele>
        <time>2022-07-29T09:40:19Z</time>
      </trkpt>
      <trkpt lat="48.00487" lon="6.83668">
        <ele>1009.6</ele>
        <time>2022-07-29T09:40:21Z</time>
      </trkpt>
      <trkpt lat="48.00483" lon="6.83672">
        <ele>1009.2</ele>
        <time>2022-07-29T09:40:22Z</time>
      </trkpt>
      <trkpt lat="48.00479" lon="6.83676">
        <ele>1008.6</ele>
        <time>2022-07-29T09:40:23Z</time>
      </trkpt>
      <trkpt lat="48.00472" lon="6.83685">
        <ele>1007.8</ele>
        <time>2022-07-29T09:40:25Z</time>
      </trkpt>
      <trkpt lat="48.00468" lon="6.83689">
        <ele>1007.6</ele>
        <time>2022-07-29T09:40:26Z</time>
      </trkpt>
      <trkpt lat="48.00464" lon="6.83692">
        <ele>1007.2</ele>
        <time>2022-07-29T09:40:27Z</time>
      </trkpt>
      <trkpt lat="48.00459" lon="6.83693">
        <ele>1006.6</ele>
        <time>2022-07-29T09:40:28Z</time>
      </trkpt>
      <trkpt lat="48.00455" lon="6.83693">
        <ele>1006.4</ele>
        <time>2022-07-29T09:40:29Z</time>
      </trkpt>
      <trkpt lat="48.00452" lon="6.83693">
        <ele>1006</ele>
        <time>2022-07-29T09:40:30Z</time>
      </trkpt>
      <trkpt lat="48.00448" lon="6.83692">
        <ele>1006</ele>
        <time>2022-07-29T09:40:31Z</time>
      </trkpt>
      <trkpt lat="48.00445" lon="6.83691">
        <ele>1005.6</ele>
        <time>2022-07-29T09:40:32Z</time>
      </trkpt>
      <trkpt lat="48.00442" lon="6.8369">
        <ele>1005.6</ele>
        <time>2022-07-29T09:40:33Z</time>
      </trkpt>
      <trkpt lat="48.0044" lon="6.83688">
        <ele>1005.4</ele>
        <time>2022-07-29T09:40:34Z</time>
      </trkpt>
      <trkpt lat="48.00438" lon="6.83686">
        <ele>1005.2</ele>
        <time>2022-07-29T09:40:35Z</time>
      </trkpt>
      <trkpt lat="48.00437" lon="6.83684">
        <ele>1004.8</ele>
        <time>2022-07-29T09:40:36Z</time>
      </trkpt>
      <trkpt lat="48.00435" lon="6.83682">
        <ele>1004.6</ele>
        <time>2022-07-29T09:40:37Z</time>
      </trkpt>
      <trkpt lat="48.00434" lon="6.83681">
        <ele>1004.4</ele>
        <time>2022-07-29T09:40:38Z</time>
      </trkpt>
      <trkpt lat="48.00434" lon="6.83679">
        <ele>1003.8</ele>
        <time>2022-07-29T09:40:39Z</time>
      </trkpt>
      <trkpt lat="48.00433" lon="6.83676">
        <ele>1003.4</ele>
        <time>2022-07-29T09:40:40Z</time>
      </trkpt>
      <trkpt lat="48.00432" lon="6.83674">
        <ele>1002.6</ele>
        <time>2022-07-29T09:40:41Z</time>
      </trkpt>
      <trkpt lat="48.00431" lon="6.83671">
        <ele>1002.6</ele>
        <time>2022-07-29T09:40:42Z</time>
      </trkpt>
      <trkpt lat="48.00431" lon="6.83661">
        <ele>1002.2</ele>
        <time>2022-07-29T09:40:44Z</time>
      </trkpt>
      <trkpt lat="48.00431" lon="6.83655">
        <ele>1001.6</ele>
        <time>2022-07-29T09:40:45Z</time>
      </trkpt>
      <trkpt lat="48.00431" lon="6.8365">
        <ele>1001</ele>
        <time>2022-07-29T09:40:46Z</time>
      </trkpt>
      <trkpt lat="48.00431" lon="6.83641">
        <ele>1000.4</ele>
        <time>2022-07-29T09:40:48Z</time>
      </trkpt>
      <trkpt lat="48.0043" lon="6.83636">
        <ele>999.6</ele>
        <time>2022-07-29T09:40:49Z</time>
      </trkpt>
      <trkpt lat="48.0043" lon="6.83629">
        <ele>999</ele>
        <time>2022-07-29T09:40:50Z</time>
      </trkpt>
      <trkpt lat="48.0043" lon="6.83622">
        <ele>998.6</ele>
        <time>2022-07-29T09:40:51Z</time>
      </trkpt>
      <trkpt lat="48.0043" lon="6.83615">
        <ele>997.8</ele>
        <time>2022-07-29T09:40:52Z</time>
      </trkpt>
      <trkpt lat="48.0043" lon="6.83608">
        <ele>997.6</ele>
        <time>2022-07-29T09:40:53Z</time>
      </trkpt>
      <trkpt lat="48.00431" lon="6.83592">
        <ele>996</ele>
        <time>2022-07-29T09:40:55Z</time>
      </trkpt>
      <trkpt lat="48.0043" lon="6.83576">
        <ele>995.2</ele>
        <time>2022-07-29T09:40:57Z</time>
      </trkpt>
      <trkpt lat="48.00428" lon="6.83568">
        <ele>995</ele>
        <time>2022-07-29T09:40:58Z</time>
      </trkpt>
      <trkpt lat="48.00426" lon="6.83561">
        <ele>994.2</ele>
        <time>2022-07-29T09:40:59Z</time>
      </trkpt>
      <trkpt lat="48.00424" lon="6.83554">
        <ele>994</ele>
        <time>2022-07-29T09:41:00Z</time>
      </trkpt>
      <trkpt lat="48.0042" lon="6.83548">
        <ele>993.4</ele>
        <time>2022-07-29T09:41:01Z</time>
      </trkpt>
      <trkpt lat="48.00416" lon="6.83546">
        <ele>993.2</ele>
        <time>2022-07-29T09:41:02Z</time>
      </trkpt>
      <trkpt lat="48.00412" lon="6.83546">
        <ele>993</ele>
        <time>2022-07-29T09:41:03Z</time>
      </trkpt>
      <trkpt lat="48.00408" lon="6.83546">
        <ele>992.8</ele>
        <time>2022-07-29T09:41:04Z</time>
      </trkpt>
      <trkpt lat="48.00405" lon="6.83546">
        <ele>992.8</ele>
        <time>2022-07-29T09:41:05Z</time>
      </trkpt>
      <trkpt lat="48.00404" lon="6.83546">
        <ele>992.8</ele>
        <time>2022-07-29T09:41:06Z</time>
      </trkpt>
      <trkpt lat="48.00402" lon="6.83545">
        <ele>992.8</ele>
        <time>2022-07-29T09:41:07Z</time>
      </trkpt>
      <trkpt lat="48.004" lon="6.83543">
        <ele>993</ele>
        <time>2022-07-29T09:41:08Z</time>
      </trkpt>
      <trkpt lat="48.00399" lon="6.83541">
        <ele>993</ele>
        <time>2022-07-29T09:41:09Z</time>
      </trkpt>
      <trkpt lat="48.00398" lon="6.83538">
        <ele>993.2</ele>
        <time>2022-07-29T09:41:10Z</time>
      </trkpt>
      <trkpt lat="48.00398" lon="6.83536">
        <ele>993.4</ele>
        <time>2022-07-29T09:41:11Z</time>
      </trkpt>
      <trkpt lat="48.00397" lon="6.83532">
        <ele>993.8</ele>
        <time>2022-07-29T09:41:12Z</time>
      </trkpt>
      <trkpt lat="48.00397" lon="6.83529">
        <ele>993.8</ele>
        <time>2022-07-29T09:41:13Z</time>
      </trkpt>
      <trkpt lat="48.00397" lon="6.83526">
        <ele>994</ele>
        <time>2022-07-29T09:41:14Z</time>
      </trkpt>
      <trkpt lat="48.00398" lon="6.83523">
        <ele>994</ele>
        <time>2022-07-29T09:41:15Z</time>
      </trkpt>
      <trkpt lat="48.00398" lon="6.83519">
        <ele>994.2</ele>
        <time>2022-07-29T09:41:16Z</time>
      </trkpt>
      <trkpt lat="48.00399" lon="6.83515">
        <ele>994.4</ele>
        <time>2022-07-29T09:41:17Z</time>
      </trkpt>
      <trkpt lat="48.00401" lon="6.83504">
        <ele>995</ele>
        <time>2022-07-29T09:41:20Z</time>
      </trkpt>
      <trkpt lat="48.004" lon="6.83497">
        <ele>995.2</ele>
        <time>2022-07-29T09:41:22Z</time>
      </trkpt>
      <trkpt lat="48.004" lon="6.83493">
        <ele>995.4</ele>
        <time>2022-07-29T09:41:23Z</time>
      </trkpt>
      <trkpt lat="48.00398" lon="6.83481">
        <ele>995.2</ele>
        <time>2022-07-29T09:41:26Z</time>
      </trkpt>
      <trkpt lat="48.00396" lon="6.83478">
        <ele>995.2</ele>
        <time>2022-07-29T09:41:27Z</time>
      </trkpt>
      <trkpt lat="48.00393" lon="6.83475">
        <ele>995.2</ele>
        <time>2022-07-29T09:41:28Z</time>
      </trkpt>
      <trkpt lat="48.00391" lon="6.83472">
        <ele>995</ele>
        <time>2022-07-29T09:41:29Z</time>
      </trkpt>
      <trkpt lat="48.00389" lon="6.83469">
        <ele>994.8</ele>
        <time>2022-07-29T09:41:30Z</time>
      </trkpt>
      <trkpt lat="48.00387" lon="6.83468">
        <ele>994.8</ele>
        <time>2022-07-29T09:41:31Z</time>
      </trkpt>
      <trkpt lat="48.00378" lon="6.83465">
        <ele>994.4</ele>
        <time>2022-07-29T09:41:33Z</time>
      </trkpt>
      <trkpt lat="48.00373" lon="6.83464">
        <ele>994.2</ele>
        <time>2022-07-29T09:41:34Z</time>
      </trkpt>
      <trkpt lat="48.0037" lon="6.83462">
        <ele>993.2</ele>
        <time>2022-07-29T09:41:35Z</time>
      </trkpt>
      <trkpt lat="48.00367" lon="6.83461">
        <ele>992.8</ele>
        <time>2022-07-29T09:41:36Z</time>
      </trkpt>
      <trkpt lat="48.00365" lon="6.83458">
        <ele>992.2</ele>
        <time>2022-07-29T09:41:37Z</time>
      </trkpt>
      <trkpt lat="48.00361" lon="6.83455">
        <ele>991.8</ele>
        <time>2022-07-29T09:41:38Z</time>
      </trkpt>
      <trkpt lat="48.00356" lon="6.83449">
        <ele>991.4</ele>
        <time>2022-07-29T09:41:39Z</time>
      </trkpt>
      <trkpt lat="48.00353" lon="6.83443">
        <ele>991</ele>
        <time>2022-07-29T09:41:40Z</time>
      </trkpt>
      <trkpt lat="48.00351" lon="6.83437">
        <ele>990.6</ele>
        <time>2022-07-29T09:41:41Z</time>
      </trkpt>
      <trkpt lat="48.00348" lon="6.8343">
        <ele>989.6</ele>
        <time>2022-07-29T09:41:42Z</time>
      </trkpt>
      <trkpt lat="48.00346" lon="6.83422">
        <ele>989.4</ele>
        <time>2022-07-29T09:41:43Z</time>
      </trkpt>
      <trkpt lat="48.00346" lon="6.83413">
        <ele>988.6</ele>
        <time>2022-07-29T09:41:44Z</time>
      </trkpt>
      <trkpt lat="48.00346" lon="6.83405">
        <ele>988.4</ele>
        <time>2022-07-29T09:41:45Z</time>
      </trkpt>
      <trkpt lat="48.00346" lon="6.83397">
        <ele>987.4</ele>
        <time>2022-07-29T09:41:46Z</time>
      </trkpt>
      <trkpt lat="48.00345" lon="6.8339">
        <ele>987.2</ele>
        <time>2022-07-29T09:41:47Z</time>
      </trkpt>
      <trkpt lat="48.00344" lon="6.83382">
        <ele>987</ele>
        <time>2022-07-29T09:41:48Z</time>
      </trkpt>
      <trkpt lat="48.00342" lon="6.83376">
        <ele>986.6</ele>
        <time>2022-07-29T09:41:49Z</time>
      </trkpt>
      <trkpt lat="48.0034" lon="6.83371">
        <ele>986.6</ele>
        <time>2022-07-29T09:41:50Z</time>
      </trkpt>
      <trkpt lat="48.00337" lon="6.83367">
        <ele>986.6</ele>
        <time>2022-07-29T09:41:51Z</time>
      </trkpt>
      <trkpt lat="48.00334" lon="6.83363">
        <ele>986.4</ele>
        <time>2022-07-29T09:41:52Z</time>
      </trkpt>
      <trkpt lat="48.00332" lon="6.8336">
        <ele>986.4</ele>
        <time>2022-07-29T09:41:53Z</time>
      </trkpt>
      <trkpt lat="48.00329" lon="6.83356">
        <ele>986.4</ele>
        <time>2022-07-29T09:41:54Z</time>
      </trkpt>
      <trkpt lat="48.00326" lon="6.83353">
        <ele>986.4</ele>
        <time>2022-07-29T09:41:55Z</time>
      </trkpt>
      <trkpt lat="48.00323" lon="6.83351">
        <ele>986.4</ele>
        <time>2022-07-29T09:41:56Z</time>
      </trkpt>
      <trkpt lat="48.00321" lon="6.83349">
        <ele>986.4</ele>
        <time>2022-07-29T09:41:57Z</time>
      </trkpt>
      <trkpt lat="48.0032" lon="6.83347">
        <ele>986.4</ele>
        <time>2022-07-29T09:41:58Z</time>
      </trkpt>
      <trkpt lat="48.00318" lon="6.83346">
        <ele>986.4</ele>
        <time>2022-07-29T09:41:59Z</time>
      </trkpt>
      <trkpt lat="48.00317" lon="6.83346">
        <ele>986.6</ele>
        <time>2022-07-29T09:42:00Z</time>
      </trkpt>
      <trkpt lat="48.00315" lon="6.83346">
        <ele>987</ele>
        <time>2022-07-29T09:42:01Z</time>
      </trkpt>
      <trkpt lat="48.00312" lon="6.83347">
        <ele>987.4</ele>
        <time>2022-07-29T09:42:02Z</time>
      </trkpt>
      <trkpt lat="48.00311" lon="6.83348">
        <ele>987.6</ele>
        <time>2022-07-29T09:42:03Z</time>
      </trkpt>
      <trkpt lat="48.00308" lon="6.83349">
        <ele>988</ele>
        <time>2022-07-29T09:42:04Z</time>
      </trkpt>
      <trkpt lat="48.00306" lon="6.8335">
        <ele>988.2</ele>
        <time>2022-07-29T09:42:05Z</time>
      </trkpt>
      <trkpt lat="48.00302" lon="6.8335">
        <ele>988.6</ele>
        <time>2022-07-29T09:42:07Z</time>
      </trkpt>
      <trkpt lat="48.003" lon="6.8335">
        <ele>988.8</ele>
        <time>2022-07-29T09:42:08Z</time>
      </trkpt>
      <trkpt lat="48.00298" lon="6.83351">
        <ele>989</ele>
        <time>2022-07-29T09:42:09Z</time>
      </trkpt>
      <trkpt lat="48.0029" lon="6.83354">
        <ele>989.4</ele>
        <time>2022-07-29T09:42:13Z</time>
      </trkpt>
      <trkpt lat="48.00286" lon="6.83355">
        <ele>989.6</ele>
        <time>2022-07-29T09:42:15Z</time>
      </trkpt>
      <trkpt lat="48.00284" lon="6.83355">
        <ele>989.6</ele>
        <time>2022-07-29T09:42:16Z</time>
      </trkpt>
      <trkpt lat="48.00283" lon="6.83355">
        <ele>989.8</ele>
        <time>2022-07-29T09:42:17Z</time>
      </trkpt>
      <trkpt lat="48.00282" lon="6.83355">
        <ele>990</ele>
        <time>2022-07-29T09:42:18Z</time>
      </trkpt>
      <trkpt lat="48.0028" lon="6.83356">
        <ele>990</ele>
        <time>2022-07-29T09:42:19Z</time>
      </trkpt>
      <trkpt lat="48.00278" lon="6.83356">
        <ele>990.4</ele>
        <time>2022-07-29T09:42:20Z</time>
      </trkpt>
      <trkpt lat="48.00276" lon="6.83356">
        <ele>990.6</ele>
        <time>2022-07-29T09:42:21Z</time>
      </trkpt>
      <trkpt lat="48.00274" lon="6.83356">
        <ele>990.8</ele>
        <time>2022-07-29T09:42:22Z</time>
      </trkpt>
      <trkpt lat="48.00272" lon="6.83355">
        <ele>991</ele>
        <time>2022-07-29T09:42:23Z</time>
      </trkpt>
      <trkpt lat="48.0027" lon="6.83354">
        <ele>991.2</ele>
        <time>2022-07-29T09:42:24Z</time>
      </trkpt>
      <trkpt lat="48.00269" lon="6.83353">
        <ele>991.4</ele>
        <time>2022-07-29T09:42:25Z</time>
      </trkpt>
      <trkpt lat="48.00268" lon="6.83352">
        <ele>991.6</ele>
        <time>2022-07-29T09:42:26Z</time>
      </trkpt>
      <trkpt lat="48.00267" lon="6.83351">
        <ele>992</ele>
        <time>2022-07-29T09:42:27Z</time>
      </trkpt>
      <trkpt lat="48.00265" lon="6.8335">
        <ele>992</ele>
        <time>2022-07-29T09:42:28Z</time>
      </trkpt>
      <trkpt lat="48.00263" lon="6.83349">
        <ele>992.2</ele>
        <time>2022-07-29T09:42:29Z</time>
      </trkpt>
      <trkpt lat="48.00261" lon="6.83348">
        <ele>992.2</ele>
        <time>2022-07-29T09:42:30Z</time>
      </trkpt>
      <trkpt lat="48.00259" lon="6.83346">
        <ele>992.4</ele>
        <time>2022-07-29T09:42:31Z</time>
      </trkpt>
      <trkpt lat="48.00258" lon="6.83345">
        <ele>992.4</ele>
        <time>2022-07-29T09:42:32Z</time>
      </trkpt>
      <trkpt lat="48.00255" lon="6.83343">
        <ele>992.4</ele>
        <time>2022-07-29T09:42:33Z</time>
      </trkpt>
      <trkpt lat="48.00253" lon="6.83341">
        <ele>992.4</ele>
        <time>2022-07-29T09:42:34Z</time>
      </trkpt>
      <trkpt lat="48.0025" lon="6.83339">
        <ele>992.4</ele>
        <time>2022-07-29T09:42:35Z</time>
      </trkpt>
      <trkpt lat="48.00248" lon="6.83337">
        <ele>992.4</ele>
        <time>2022-07-29T09:42:36Z</time>
      </trkpt>
      <trkpt lat="48.00245" lon="6.83335">
        <ele>992.4</ele>
        <time>2022-07-29T09:42:37Z</time>
      </trkpt>
      <trkpt lat="48.00243" lon="6.83333">
        <ele>992.6</ele>
        <time>2022-07-29T09:42:38Z</time>
      </trkpt>
      <trkpt lat="48.0024" lon="6.8333">
        <ele>992.6</ele>
        <time>2022-07-29T09:42:39Z</time>
      </trkpt>
      <trkpt lat="48.00237" lon="6.83327">
        <ele>992.6</ele>
        <time>2022-07-29T09:42:40Z</time>
      </trkpt>
      <trkpt lat="48.00234" lon="6.83324">
        <ele>992.6</ele>
        <time>2022-07-29T09:42:41Z</time>
      </trkpt>
      <trkpt lat="48.00231" lon="6.83322">
        <ele>992.6</ele>
        <time>2022-07-29T09:42:42Z</time>
      </trkpt>
      <trkpt lat="48.00229" lon="6.83318">
        <ele>992.8</ele>
        <time>2022-07-29T09:42:43Z</time>
      </trkpt>
      <trkpt lat="48.00226" lon="6.83316">
        <ele>992.8</ele>
        <time>2022-07-29T09:42:44Z</time>
      </trkpt>
      <trkpt lat="48.00224" lon="6.83313">
        <ele>992.8</ele>
        <time>2022-07-29T09:42:45Z</time>
      </trkpt>
      <trkpt lat="48.00221" lon="6.83312">
        <ele>992.8</ele>
        <time>2022-07-29T09:42:46Z</time>
      </trkpt>
      <trkpt lat="48.00218" lon="6.8331">
        <ele>993</ele>
        <time>2022-07-29T09:42:47Z</time>
      </trkpt>
      <trkpt lat="48.00212" lon="6.83304">
        <ele>993</ele>
        <time>2022-07-29T09:42:50Z</time>
      </trkpt>
      <trkpt lat="48.00211" lon="6.83303">
        <ele>993.2</ele>
        <time>2022-07-29T09:42:51Z</time>
      </trkpt>
      <trkpt lat="48.00208" lon="6.83298">
        <ele>993.2</ele>
        <time>2022-07-29T09:42:53Z</time>
      </trkpt>
      <trkpt lat="48.00206" lon="6.83295">
        <ele>993.6</ele>
        <time>2022-07-29T09:42:54Z</time>
      </trkpt>
      <trkpt lat="48.00205" lon="6.83292">
        <ele>993.6</ele>
        <time>2022-07-29T09:42:55Z</time>
      </trkpt>
      <trkpt lat="48.00204" lon="6.83289">
        <ele>994.2</ele>
        <time>2022-07-29T09:42:56Z</time>
      </trkpt>
      <trkpt lat="48.00203" lon="6.83287">
        <ele>994.4</ele>
        <time>2022-07-29T09:42:57Z</time>
      </trkpt>
      <trkpt lat="48.00202" lon="6.83284">
        <ele>994.6</ele>
        <time>2022-07-29T09:42:58Z</time>
      </trkpt>
      <trkpt lat="48.00202" lon="6.83281">
        <ele>994.8</ele>
        <time>2022-07-29T09:42:59Z</time>
      </trkpt>
      <trkpt lat="48.00201" lon="6.83278">
        <ele>995</ele>
        <time>2022-07-29T09:43:00Z</time>
      </trkpt>
      <trkpt lat="48.002" lon="6.83275">
        <ele>995</ele>
        <time>2022-07-29T09:43:01Z</time>
      </trkpt>
      <trkpt lat="48.00198" lon="6.83273">
        <ele>995.2</ele>
        <time>2022-07-29T09:43:02Z</time>
      </trkpt>
      <trkpt lat="48.00196" lon="6.8327">
        <ele>995.4</ele>
        <time>2022-07-29T09:43:03Z</time>
      </trkpt>
      <trkpt lat="48.00194" lon="6.83267">
        <ele>995.6</ele>
        <time>2022-07-29T09:43:04Z</time>
      </trkpt>
      <trkpt lat="48.00192" lon="6.83265">
        <ele>995.6</ele>
        <time>2022-07-29T09:43:05Z</time>
      </trkpt>
      <trkpt lat="48.00191" lon="6.83262">
        <ele>995.8</ele>
        <time>2022-07-29T09:43:06Z</time>
      </trkpt>
      <trkpt lat="48.00189" lon="6.83259">
        <ele>996</ele>
        <time>2022-07-29T09:43:07Z</time>
      </trkpt>
      <trkpt lat="48.00188" lon="6.83257">
        <ele>996</ele>
        <time>2022-07-29T09:43:08Z</time>
      </trkpt>
      <trkpt lat="48.00187" lon="6.83254">
        <ele>996.2</ele>
        <time>2022-07-29T09:43:09Z</time>
      </trkpt>
      <trkpt lat="48.00186" lon="6.83252">
        <ele>996.2</ele>
        <time>2022-07-29T09:43:10Z</time>
      </trkpt>
      <trkpt lat="48.00185" lon="6.83249">
        <ele>996.4</ele>
        <time>2022-07-29T09:43:11Z</time>
      </trkpt>
      <trkpt lat="48.00184" lon="6.83247">
        <ele>996.4</ele>
        <time>2022-07-29T09:43:12Z</time>
      </trkpt>
      <trkpt lat="48.00183" lon="6.83244">
        <ele>996.4</ele>
        <time>2022-07-29T09:43:13Z</time>
      </trkpt>
      <trkpt lat="48.00181" lon="6.83241">
        <ele>996.8</ele>
        <time>2022-07-29T09:43:14Z</time>
      </trkpt>
      <trkpt lat="48.0018" lon="6.83239">
        <ele>997</ele>
        <time>2022-07-29T09:43:15Z</time>
      </trkpt>
      <trkpt lat="48.00179" lon="6.83237">
        <ele>997.2</ele>
        <time>2022-07-29T09:43:16Z</time>
      </trkpt>
      <trkpt lat="48.00178" lon="6.83234">
        <ele>997.2</ele>
        <time>2022-07-29T09:43:17Z</time>
      </trkpt>
      <trkpt lat="48.00177" lon="6.83232">
        <ele>997.4</ele>
        <time>2022-07-29T09:43:18Z</time>
      </trkpt>
      <trkpt lat="48.00176" lon="6.83229">
        <ele>997.6</ele>
        <time>2022-07-29T09:43:19Z</time>
      </trkpt>
      <trkpt lat="48.00175" lon="6.83227">
        <ele>997.6</ele>
        <time>2022-07-29T09:43:20Z</time>
      </trkpt>
      <trkpt lat="48.00174" lon="6.83224">
        <ele>998</ele>
        <time>2022-07-29T09:43:21Z</time>
      </trkpt>
      <trkpt lat="48.00173" lon="6.83221">
        <ele>998.4</ele>
        <time>2022-07-29T09:43:22Z</time>
      </trkpt>
      <trkpt lat="48.00172" lon="6.83217">
        <ele>998.8</ele>
        <time>2022-07-29T09:43:23Z</time>
      </trkpt>
      <trkpt lat="48.00171" lon="6.83213">
        <ele>999</ele>
        <time>2022-07-29T09:43:24Z</time>
      </trkpt>
      <trkpt lat="48.0017" lon="6.8321">
        <ele>999.2</ele>
        <time>2022-07-29T09:43:25Z</time>
      </trkpt>
      <trkpt lat="48.0017" lon="6.83206">
        <ele>999.4</ele>
        <time>2022-07-29T09:43:26Z</time>
      </trkpt>
      <trkpt lat="48.00169" lon="6.83202">
        <ele>999.4</ele>
        <time>2022-07-29T09:43:27Z</time>
      </trkpt>
      <trkpt lat="48.00169" lon="6.83198">
        <ele>999.6</ele>
        <time>2022-07-29T09:43:28Z</time>
      </trkpt>
      <trkpt lat="48.00169" lon="6.83194">
        <ele>999.6</ele>
        <time>2022-07-29T09:43:29Z</time>
      </trkpt>
      <trkpt lat="48.00168" lon="6.83189">
        <ele>999.6</ele>
        <time>2022-07-29T09:43:30Z</time>
      </trkpt>
      <trkpt lat="48.00167" lon="6.83185">
        <ele>999.6</ele>
        <time>2022-07-29T09:43:31Z</time>
      </trkpt>
      <trkpt lat="48.00166" lon="6.8318">
        <ele>999.6</ele>
        <time>2022-07-29T09:43:32Z</time>
      </trkpt>
      <trkpt lat="48.00164" lon="6.83176">
        <ele>999.6</ele>
        <time>2022-07-29T09:43:33Z</time>
      </trkpt>
      <trkpt lat="48.00163" lon="6.83172">
        <ele>999.4</ele>
        <time>2022-07-29T09:43:34Z</time>
      </trkpt>
      <trkpt lat="48.00161" lon="6.83168">
        <ele>999.4</ele>
        <time>2022-07-29T09:43:35Z</time>
      </trkpt>
      <trkpt lat="48.0016" lon="6.83164">
        <ele>999.4</ele>
        <time>2022-07-29T09:43:36Z</time>
      </trkpt>
      <trkpt lat="48.00158" lon="6.8316">
        <ele>999.4</ele>
        <time>2022-07-29T09:43:37Z</time>
      </trkpt>
      <trkpt lat="48.00157" lon="6.83156">
        <ele>999.4</ele>
        <time>2022-07-29T09:43:38Z</time>
      </trkpt>
      <trkpt lat="48.00155" lon="6.83153">
        <ele>999.4</ele>
        <time>2022-07-29T09:43:39Z</time>
      </trkpt>
      <trkpt lat="48.00153" lon="6.83148">
        <ele>999.2</ele>
        <time>2022-07-29T09:43:40Z</time>
      </trkpt>
      <trkpt lat="48.00152" lon="6.83142">
        <ele>999.2</ele>
        <time>2022-07-29T09:43:41Z</time>
      </trkpt>
      <trkpt lat="48.00151" lon="6.83136">
        <ele>999.2</ele>
        <time>2022-07-29T09:43:42Z</time>
      </trkpt>
      <trkpt lat="48.00148" lon="6.83131">
        <ele>999.2</ele>
        <time>2022-07-29T09:43:43Z</time>
      </trkpt>
      <trkpt lat="48.00144" lon="6.83123">
        <ele>999.2</ele>
        <time>2022-07-29T09:43:45Z</time>
      </trkpt>
      <trkpt lat="48.00143" lon="6.8312">
        <ele>999.2</ele>
        <time>2022-07-29T09:43:46Z</time>
      </trkpt>
      <trkpt lat="48.00142" lon="6.83117">
        <ele>999.4</ele>
        <time>2022-07-29T09:43:47Z</time>
      </trkpt>
      <trkpt lat="48.0014" lon="6.83114">
        <ele>999.4</ele>
        <time>2022-07-29T09:43:48Z</time>
      </trkpt>
      <trkpt lat="48.00138" lon="6.83112">
        <ele>999.4</ele>
        <time>2022-07-29T09:43:49Z</time>
      </trkpt>
      <trkpt lat="48.00138" lon="6.83109">
        <ele>999.4</ele>
        <time>2022-07-29T09:43:50Z</time>
      </trkpt>
      <trkpt lat="48.00136" lon="6.83101">
        <ele>999.4</ele>
        <time>2022-07-29T09:43:52Z</time>
      </trkpt>
      <trkpt lat="48.00134" lon="6.83096">
        <ele>999.4</ele>
        <time>2022-07-29T09:43:53Z</time>
      </trkpt>
      <trkpt lat="48.00125" lon="6.83078">
        <ele>999.2</ele>
        <time>2022-07-29T09:43:57Z</time>
      </trkpt>
      <trkpt lat="48.00123" lon="6.83076">
        <ele>999</ele>
        <time>2022-07-29T09:43:58Z</time>
      </trkpt>
      <trkpt lat="48.00121" lon="6.83075">
        <ele>998.8</ele>
        <time>2022-07-29T09:43:59Z</time>
      </trkpt>
      <trkpt lat="48.00119" lon="6.83075">
        <ele>998.8</ele>
        <time>2022-07-29T09:44:00Z</time>
      </trkpt>
      <trkpt lat="48.00116" lon="6.83075">
        <ele>998.8</ele>
        <time>2022-07-29T09:44:01Z</time>
      </trkpt>
      <trkpt lat="48.00114" lon="6.83076">
        <ele>998.8</ele>
        <time>2022-07-29T09:44:02Z</time>
      </trkpt>
      <trkpt lat="48.00112" lon="6.83077">
        <ele>998.8</ele>
        <time>2022-07-29T09:44:03Z</time>
      </trkpt>
      <trkpt lat="48.0011" lon="6.83078">
        <ele>999</ele>
        <time>2022-07-29T09:44:04Z</time>
      </trkpt>
      <trkpt lat="48.00106" lon="6.83079">
        <ele>999.2</ele>
        <time>2022-07-29T09:44:05Z</time>
      </trkpt>
      <trkpt lat="48.001" lon="6.83081">
        <ele>999.2</ele>
        <time>2022-07-29T09:44:07Z</time>
      </trkpt>
      <trkpt lat="48.00087" lon="6.83084">
        <ele>999.6</ele>
        <time>2022-07-29T09:44:11Z</time>
      </trkpt>
      <trkpt lat="48.00085" lon="6.83084">
        <ele>999.6</ele>
        <time>2022-07-29T09:44:12Z</time>
      </trkpt>
      <trkpt lat="48.00082" lon="6.83085">
        <ele>999.6</ele>
        <time>2022-07-29T09:44:13Z</time>
      </trkpt>
      <trkpt lat="48.0008" lon="6.83087">
        <ele>999.6</ele>
        <time>2022-07-29T09:44:14Z</time>
      </trkpt>
      <trkpt lat="48.00077" lon="6.83088">
        <ele>999.6</ele>
        <time>2022-07-29T09:44:15Z</time>
      </trkpt>
      <trkpt lat="48.00072" lon="6.8309">
        <ele>999.6</ele>
        <time>2022-07-29T09:44:17Z</time>
      </trkpt>
      <trkpt lat="48.0007" lon="6.83092">
        <ele>999.6</ele>
        <time>2022-07-29T09:44:18Z</time>
      </trkpt>
      <trkpt lat="48.00068" lon="6.83092">
        <ele>999.8</ele>
        <time>2022-07-29T09:44:19Z</time>
      </trkpt>
      <trkpt lat="48.00066" lon="6.83093">
        <ele>1000</ele>
        <time>2022-07-29T09:44:20Z</time>
      </trkpt>
      <trkpt lat="48.00064" lon="6.83095">
        <ele>1000.2</ele>
        <time>2022-07-29T09:44:21Z</time>
      </trkpt>
      <trkpt lat="48.00062" lon="6.83097">
        <ele>1000.4</ele>
        <time>2022-07-29T09:44:22Z</time>
      </trkpt>
      <trkpt lat="48.00053" lon="6.83099">
        <ele>1000.8</ele>
        <time>2022-07-29T09:44:25Z</time>
      </trkpt>
      <trkpt lat="48.00033" lon="6.83099">
        <ele>1000.8</ele>
        <time>2022-07-29T09:44:31Z</time>
      </trkpt>
      <trkpt lat="48.0003" lon="6.83099">
        <ele>1000.8</ele>
        <time>2022-07-29T09:44:32Z</time>
      </trkpt>
      <trkpt lat="48.00026" lon="6.831">
        <ele>1000.6</ele>
        <time>2022-07-29T09:44:33Z</time>
      </trkpt>
      <trkpt lat="48.00019" lon="6.83104">
        <ele>1000.4</ele>
        <time>2022-07-29T09:44:35Z</time>
      </trkpt>
      <trkpt lat="48.00016" lon="6.83107">
        <ele>1000.4</ele>
        <time>2022-07-29T09:44:36Z</time>
      </trkpt>
      <trkpt lat="48.00014" lon="6.8311">
        <ele>1000.4</ele>
        <time>2022-07-29T09:44:37Z</time>
      </trkpt>
      <trkpt lat="48.00011" lon="6.83113">
        <ele>1000</ele>
        <time>2022-07-29T09:44:38Z</time>
      </trkpt>
      <trkpt lat="48.00007" lon="6.83118">
        <ele>999.4</ele>
        <time>2022-07-29T09:44:40Z</time>
      </trkpt>
      <trkpt lat="48.00005" lon="6.8312">
        <ele>999.4</ele>
        <time>2022-07-29T09:44:41Z</time>
      </trkpt>
      <trkpt lat="48.00001" lon="6.83123">
        <ele>999.2</ele>
        <time>2022-07-29T09:44:42Z</time>
      </trkpt>
      <trkpt lat="47.99995" lon="6.8313">
        <ele>999.2</ele>
        <time>2022-07-29T09:44:44Z</time>
      </trkpt>
      <trkpt lat="47.99978" lon="6.83146">
        <ele>999.2</ele>
        <time>2022-07-29T09:44:50Z</time>
      </trkpt>
      <trkpt lat="47.99958" lon="6.83153">
        <ele>999.6</ele>
        <time>2022-07-29T09:44:56Z</time>
      </trkpt>
      <trkpt lat="47.99954" lon="6.83153">
        <ele>999.6</ele>
        <time>2022-07-29T09:44:57Z</time>
      </trkpt>
      <trkpt lat="47.9995" lon="6.83153">
        <ele>999.8</ele>
        <time>2022-07-29T09:44:58Z</time>
      </trkpt>
      <trkpt lat="47.99944" lon="6.83152">
        <ele>999.8</ele>
        <time>2022-07-29T09:45:00Z</time>
      </trkpt>
      <trkpt lat="47.99941" lon="6.8315">
        <ele>1000</ele>
        <time>2022-07-29T09:45:01Z</time>
      </trkpt>
      <trkpt lat="47.9994" lon="6.83147">
        <ele>1000</ele>
        <time>2022-07-29T09:45:02Z</time>
      </trkpt>
      <trkpt lat="47.99938" lon="6.83145">
        <ele>1000</ele>
        <time>2022-07-29T09:45:03Z</time>
      </trkpt>
      <trkpt lat="47.99936" lon="6.83142">
        <ele>1000</ele>
        <time>2022-07-29T09:45:04Z</time>
      </trkpt>
      <trkpt lat="47.99933" lon="6.83139">
        <ele>999.8</ele>
        <time>2022-07-29T09:45:05Z</time>
      </trkpt>
      <trkpt lat="47.99929" lon="6.83133">
        <ele>1000.6</ele>
        <time>2022-07-29T09:45:07Z</time>
      </trkpt>
      <trkpt lat="47.99923" lon="6.83123">
        <ele>1001</ele>
        <time>2022-07-29T09:45:11Z</time>
      </trkpt>
      <trkpt lat="47.99921" lon="6.8312">
        <ele>1001.2</ele>
        <time>2022-07-29T09:45:12Z</time>
      </trkpt>
      <trkpt lat="47.9992" lon="6.83118">
        <ele>1001.2</ele>
        <time>2022-07-29T09:45:13Z</time>
      </trkpt>
      <trkpt lat="47.99918" lon="6.83115">
        <ele>1001.4</ele>
        <time>2022-07-29T09:45:14Z</time>
      </trkpt>
      <trkpt lat="47.99917" lon="6.83112">
        <ele>1001.4</ele>
        <time>2022-07-29T09:45:15Z</time>
      </trkpt>
      <trkpt lat="47.99916" lon="6.8311">
        <ele>1001.8</ele>
        <time>2022-07-29T09:45:16Z</time>
      </trkpt>
      <trkpt lat="47.99915" lon="6.83107">
        <ele>1002</ele>
        <time>2022-07-29T09:45:17Z</time>
      </trkpt>
      <trkpt lat="47.99914" lon="6.83104">
        <ele>1002.6</ele>
        <time>2022-07-29T09:45:18Z</time>
      </trkpt>
      <trkpt lat="47.99914" lon="6.83101">
        <ele>1002.8</ele>
        <time>2022-07-29T09:45:19Z</time>
      </trkpt>
      <trkpt lat="47.99913" lon="6.83098">
        <ele>1003</ele>
        <time>2022-07-29T09:45:20Z</time>
      </trkpt>
      <trkpt lat="47.99912" lon="6.83096">
        <ele>1003</ele>
        <time>2022-07-29T09:45:21Z</time>
      </trkpt>
      <trkpt lat="47.99911" lon="6.83094">
        <ele>1003</ele>
        <time>2022-07-29T09:45:22Z</time>
      </trkpt>
      <trkpt lat="47.9991" lon="6.83091">
        <ele>1003</ele>
        <time>2022-07-29T09:45:23Z</time>
      </trkpt>
      <trkpt lat="47.99909" lon="6.83087">
        <ele>1003</ele>
        <time>2022-07-29T09:45:24Z</time>
      </trkpt>
      <trkpt lat="47.99908" lon="6.83084">
        <ele>1003.2</ele>
        <time>2022-07-29T09:45:25Z</time>
      </trkpt>
      <trkpt lat="47.99906" lon="6.8308">
        <ele>1003.2</ele>
        <time>2022-07-29T09:45:26Z</time>
      </trkpt>
      <trkpt lat="47.99904" lon="6.83077">
        <ele>1003.2</ele>
        <time>2022-07-29T09:45:27Z</time>
      </trkpt>
      <trkpt lat="47.99903" lon="6.83075">
        <ele>1003.2</ele>
        <time>2022-07-29T09:45:28Z</time>
      </trkpt>
      <trkpt lat="47.99902" lon="6.83072">
        <ele>1003.4</ele>
        <time>2022-07-29T09:45:29Z</time>
      </trkpt>
      <trkpt lat="47.999" lon="6.8307">
        <ele>1003.4</ele>
        <time>2022-07-29T09:45:30Z</time>
      </trkpt>
      <trkpt lat="47.99899" lon="6.83067">
        <ele>1003.2</ele>
        <time>2022-07-29T09:45:31Z</time>
      </trkpt>
      <trkpt lat="47.99898" lon="6.83065">
        <ele>1003.2</ele>
        <time>2022-07-29T09:45:32Z</time>
      </trkpt>
      <trkpt lat="47.99896" lon="6.83063">
        <ele>1003.2</ele>
        <time>2022-07-29T09:45:33Z</time>
      </trkpt>
      <trkpt lat="47.99894" lon="6.83061">
        <ele>1003.4</ele>
        <time>2022-07-29T09:45:34Z</time>
      </trkpt>
      <trkpt lat="47.99892" lon="6.8306">
        <ele>1003.4</ele>
        <time>2022-07-29T09:45:35Z</time>
      </trkpt>
      <trkpt lat="47.99889" lon="6.83059">
        <ele>1003.4</ele>
        <time>2022-07-29T09:45:36Z</time>
      </trkpt>
      <trkpt lat="47.99887" lon="6.83058">
        <ele>1003.4</ele>
        <time>2022-07-29T09:45:37Z</time>
      </trkpt>
      <trkpt lat="47.99883" lon="6.83056">
        <ele>1003.4</ele>
        <time>2022-07-29T09:45:38Z</time>
      </trkpt>
      <trkpt lat="47.99874" lon="6.83053">
        <ele>1003</ele>
        <time>2022-07-29T09:45:41Z</time>
      </trkpt>
      <trkpt lat="47.99867" lon="6.83051">
        <ele>1003</ele>
        <time>2022-07-29T09:45:43Z</time>
      </trkpt>
      <trkpt lat="47.99864" lon="6.8305">
        <ele>1002.8</ele>
        <time>2022-07-29T09:45:44Z</time>
      </trkpt>
      <trkpt lat="47.99844" lon="6.83045">
        <ele>1002.8</ele>
        <time>2022-07-29T09:45:49Z</time>
      </trkpt>
      <trkpt lat="47.99834" lon="6.83038">
        <ele>1003</ele>
        <time>2022-07-29T09:45:53Z</time>
      </trkpt>
      <trkpt lat="47.99833" lon="6.83037">
        <ele>1003.2</ele>
        <time>2022-07-29T09:45:54Z</time>
      </trkpt>
      <trkpt lat="47.99832" lon="6.83037">
        <ele>1003.2</ele>
        <time>2022-07-29T09:45:55Z</time>
      </trkpt>
      <trkpt lat="47.9983" lon="6.83036">
        <ele>1003.2</ele>
        <time>2022-07-29T09:45:56Z</time>
      </trkpt>
      <trkpt lat="47.99829" lon="6.83035">
        <ele>1003.2</ele>
        <time>2022-07-29T09:45:57Z</time>
      </trkpt>
      <trkpt lat="47.99825" lon="6.83033">
        <ele>1003.4</ele>
        <time>2022-07-29T09:45:59Z</time>
      </trkpt>
      <trkpt lat="47.99822" lon="6.83031">
        <ele>1003.6</ele>
        <time>2022-07-29T09:46:00Z</time>
      </trkpt>
      <trkpt lat="47.99818" lon="6.83026">
        <ele>1003.8</ele>
        <time>2022-07-29T09:46:02Z</time>
      </trkpt>
      <trkpt lat="47.99814" lon="6.83023">
        <ele>1004.2</ele>
        <time>2022-07-29T09:46:04Z</time>
      </trkpt>
      <trkpt lat="47.99809" lon="6.83018">
        <ele>1004.4</ele>
        <time>2022-07-29T09:46:06Z</time>
      </trkpt>
      <trkpt lat="47.99802" lon="6.83003">
        <ele>1004.8</ele>
        <time>2022-07-29T09:46:10Z</time>
      </trkpt>
      <trkpt lat="47.99796" lon="6.82993">
        <ele>1005.2</ele>
        <time>2022-07-29T09:46:13Z</time>
      </trkpt>
      <trkpt lat="47.99785" lon="6.8297">
        <ele>1004.8</ele>
        <time>2022-07-29T09:46:19Z</time>
      </trkpt>
      <trkpt lat="47.99765" lon="6.82934">
        <ele>1004.2</ele>
        <time>2022-07-29T09:46:27Z</time>
      </trkpt>
      <trkpt lat="47.99751" lon="6.82915">
        <ele>1004.4</ele>
        <time>2022-07-29T09:46:32Z</time>
      </trkpt>
      <trkpt lat="47.99749" lon="6.82912">
        <ele>1004.4</ele>
        <time>2022-07-29T09:46:33Z</time>
      </trkpt>
      <trkpt lat="47.99747" lon="6.82909">
        <ele>1004.4</ele>
        <time>2022-07-29T09:46:34Z</time>
      </trkpt>
      <trkpt lat="47.99746" lon="6.82907">
        <ele>1004.4</ele>
        <time>2022-07-29T09:46:35Z</time>
      </trkpt>
      <trkpt lat="47.99744" lon="6.82905">
        <ele>1004.4</ele>
        <time>2022-07-29T09:46:36Z</time>
      </trkpt>
      <trkpt lat="47.99744" lon="6.82904">
        <ele>1004.4</ele>
        <time>2022-07-29T09:46:37Z</time>
      </trkpt>
      <trkpt lat="47.99744" lon="6.82904">
        <ele>1004.6</ele>
        <time>2022-07-29T09:46:38Z</time>
      </trkpt>
      <trkpt lat="47.99743" lon="6.82904">
        <ele>1004.6</ele>
        <time>2022-07-29T09:46:51Z</time>
      </trkpt>
      <trkpt lat="47.99742" lon="6.82899">
        <ele>1004.4</ele>
        <time>2022-07-29T09:47:15Z</time>
      </trkpt>
      <trkpt lat="47.99733" lon="6.82886">
        <ele>1004.2</ele>
        <time>2022-07-29T09:47:21Z</time>
      </trkpt>
      <trkpt lat="47.99731" lon="6.82884">
        <ele>1004.2</ele>
        <time>2022-07-29T09:47:22Z</time>
      </trkpt>
      <trkpt lat="47.99726" lon="6.82874">
        <ele>1004</ele>
        <time>2022-07-29T09:47:25Z</time>
      </trkpt>
      <trkpt lat="47.99722" lon="6.82864">
        <ele>1003.8</ele>
        <time>2022-07-29T09:47:28Z</time>
      </trkpt>
      <trkpt lat="47.99713" lon="6.82837">
        <ele>1003</ele>
        <time>2022-07-29T09:47:34Z</time>
      </trkpt>
      <trkpt lat="47.99711" lon="6.82832">
        <ele>1003</ele>
        <time>2022-07-29T09:47:35Z</time>
      </trkpt>
      <trkpt lat="47.99709" lon="6.82829">
        <ele>1003</ele>
        <time>2022-07-29T09:47:36Z</time>
      </trkpt>
      <trkpt lat="47.99698" lon="6.82815">
        <ele>1002.4</ele>
        <time>2022-07-29T09:47:40Z</time>
      </trkpt>
      <trkpt lat="47.99669" lon="6.828">
        <ele>1002.6</ele>
        <time>2022-07-29T09:47:49Z</time>
      </trkpt>
      <trkpt lat="47.99666" lon="6.828">
        <ele>1002.6</ele>
        <time>2022-07-29T09:47:50Z</time>
      </trkpt>
      <trkpt lat="47.9966" lon="6.82799">
        <ele>1002.8</ele>
        <time>2022-07-29T09:47:52Z</time>
      </trkpt>
      <trkpt lat="47.99657" lon="6.82799">
        <ele>1003.2</ele>
        <time>2022-07-29T09:47:53Z</time>
      </trkpt>
      <trkpt lat="47.99654" lon="6.82799">
        <ele>1003.2</ele>
        <time>2022-07-29T09:47:54Z</time>
      </trkpt>
      <trkpt lat="47.99651" lon="6.82799">
        <ele>1003.4</ele>
        <time>2022-07-29T09:47:55Z</time>
      </trkpt>
      <trkpt lat="47.99648" lon="6.82798">
        <ele>1003.4</ele>
        <time>2022-07-29T09:47:56Z</time>
      </trkpt>
      <trkpt lat="47.99644" lon="6.82797">
        <ele>1003.6</ele>
        <time>2022-07-29T09:47:57Z</time>
      </trkpt>
      <trkpt lat="47.99636" lon="6.82792">
        <ele>1003.6</ele>
        <time>2022-07-29T09:47:59Z</time>
      </trkpt>
      <trkpt lat="47.99632" lon="6.82787">
        <ele>1003.8</ele>
        <time>2022-07-29T09:48:00Z</time>
      </trkpt>
      <trkpt lat="47.99628" lon="6.82781">
        <ele>1003.6</ele>
        <time>2022-07-29T09:48:01Z</time>
      </trkpt>
      <trkpt lat="47.99624" lon="6.82776">
        <ele>1003.2</ele>
        <time>2022-07-29T09:48:02Z</time>
      </trkpt>
      <trkpt lat="47.99617" lon="6.82767">
        <ele>1002.6</ele>
        <time>2022-07-29T09:48:04Z</time>
      </trkpt>
      <trkpt lat="47.99615" lon="6.82763">
        <ele>1002</ele>
        <time>2022-07-29T09:48:05Z</time>
      </trkpt>
      <trkpt lat="47.99613" lon="6.82759">
        <ele>1001.2</ele>
        <time>2022-07-29T09:48:06Z</time>
      </trkpt>
      <trkpt lat="47.99611" lon="6.82757">
        <ele>1000.8</ele>
        <time>2022-07-29T09:48:07Z</time>
      </trkpt>
      <trkpt lat="47.99609" lon="6.82755">
        <ele>1000.6</ele>
        <time>2022-07-29T09:48:08Z</time>
      </trkpt>
      <trkpt lat="47.99607" lon="6.82753">
        <ele>1000.2</ele>
        <time>2022-07-29T09:48:09Z</time>
      </trkpt>
      <trkpt lat="47.99605" lon="6.82751">
        <ele>1000.2</ele>
        <time>2022-07-29T09:48:10Z</time>
      </trkpt>
      <trkpt lat="47.99603" lon="6.82749">
        <ele>1000</ele>
        <time>2022-07-29T09:48:11Z</time>
      </trkpt>
      <trkpt lat="47.99601" lon="6.82746">
        <ele>999.8</ele>
        <time>2022-07-29T09:48:12Z</time>
      </trkpt>
      <trkpt lat="47.99599" lon="6.82743">
        <ele>999.6</ele>
        <time>2022-07-29T09:48:13Z</time>
      </trkpt>
      <trkpt lat="47.99596" lon="6.82736">
        <ele>999.2</ele>
        <time>2022-07-29T09:48:15Z</time>
      </trkpt>
      <trkpt lat="47.99595" lon="6.82731">
        <ele>998.6</ele>
        <time>2022-07-29T09:48:16Z</time>
      </trkpt>
      <trkpt lat="47.99594" lon="6.82725">
        <ele>997.4</ele>
        <time>2022-07-29T09:48:17Z</time>
      </trkpt>
      <trkpt lat="47.99593" lon="6.82718">
        <ele>996.8</ele>
        <time>2022-07-29T09:48:18Z</time>
      </trkpt>
      <trkpt lat="47.99591" lon="6.82712">
        <ele>996.4</ele>
        <time>2022-07-29T09:48:19Z</time>
      </trkpt>
      <trkpt lat="47.99588" lon="6.827">
        <ele>995.2</ele>
        <time>2022-07-29T09:48:21Z</time>
      </trkpt>
      <trkpt lat="47.99586" lon="6.82694">
        <ele>994.2</ele>
        <time>2022-07-29T09:48:22Z</time>
      </trkpt>
      <trkpt lat="47.9958" lon="6.82681">
        <ele>993.6</ele>
        <time>2022-07-29T09:48:24Z</time>
      </trkpt>
      <trkpt lat="47.99571" lon="6.82662">
        <ele>993</ele>
        <time>2022-07-29T09:48:27Z</time>
      </trkpt>
      <trkpt lat="47.99567" lon="6.82656">
        <ele>992.8</ele>
        <time>2022-07-29T09:48:28Z</time>
      </trkpt>
      <trkpt lat="47.99564" lon="6.82649">
        <ele>992.6</ele>
        <time>2022-07-29T09:48:29Z</time>
      </trkpt>
      <trkpt lat="47.99561" lon="6.82642">
        <ele>992.4</ele>
        <time>2022-07-29T09:48:30Z</time>
      </trkpt>
      <trkpt lat="47.99559" lon="6.82635">
        <ele>991.4</ele>
        <time>2022-07-29T09:48:31Z</time>
      </trkpt>
      <trkpt lat="47.99546" lon="6.82597">
        <ele>990.2</ele>
        <time>2022-07-29T09:48:36Z</time>
      </trkpt>
      <trkpt lat="47.99543" lon="6.82591">
        <ele>990.2</ele>
        <time>2022-07-29T09:48:37Z</time>
      </trkpt>
      <trkpt lat="47.99527" lon="6.82562">
        <ele>989.4</ele>
        <time>2022-07-29T09:48:41Z</time>
      </trkpt>
      <trkpt lat="47.99523" lon="6.82555">
        <ele>988.8</ele>
        <time>2022-07-29T09:48:42Z</time>
      </trkpt>
      <trkpt lat="47.99519" lon="6.82547">
        <ele>988.4</ele>
        <time>2022-07-29T09:48:43Z</time>
      </trkpt>
      <trkpt lat="47.99511" lon="6.82533">
        <ele>987.6</ele>
        <time>2022-07-29T09:48:45Z</time>
      </trkpt>
      <trkpt lat="47.99495" lon="6.82504">
        <ele>986</ele>
        <time>2022-07-29T09:48:49Z</time>
      </trkpt>
      <trkpt lat="47.99491" lon="6.82497">
        <ele>985.8</ele>
        <time>2022-07-29T09:48:50Z</time>
      </trkpt>
      <trkpt lat="47.99484" lon="6.82484">
        <ele>985.2</ele>
        <time>2022-07-29T09:48:52Z</time>
      </trkpt>
      <trkpt lat="47.9948" lon="6.82478">
        <ele>985</ele>
        <time>2022-07-29T09:48:53Z</time>
      </trkpt>
      <trkpt lat="47.99477" lon="6.82472">
        <ele>985</ele>
        <time>2022-07-29T09:48:54Z</time>
      </trkpt>
      <trkpt lat="47.99474" lon="6.82466">
        <ele>985</ele>
        <time>2022-07-29T09:48:55Z</time>
      </trkpt>
      <trkpt lat="47.99471" lon="6.8246">
        <ele>985</ele>
        <time>2022-07-29T09:48:56Z</time>
      </trkpt>
      <trkpt lat="47.99466" lon="6.82449">
        <ele>985</ele>
        <time>2022-07-29T09:48:58Z</time>
      </trkpt>
      <trkpt lat="47.99464" lon="6.82444">
        <ele>984.8</ele>
        <time>2022-07-29T09:48:59Z</time>
      </trkpt>
      <trkpt lat="47.99461" lon="6.8244">
        <ele>984.8</ele>
        <time>2022-07-29T09:49:00Z</time>
      </trkpt>
      <trkpt lat="47.99458" lon="6.82435">
        <ele>984.8</ele>
        <time>2022-07-29T09:49:01Z</time>
      </trkpt>
      <trkpt lat="47.99455" lon="6.82431">
        <ele>984.8</ele>
        <time>2022-07-29T09:49:02Z</time>
      </trkpt>
      <trkpt lat="47.9945" lon="6.82421">
        <ele>984.6</ele>
        <time>2022-07-29T09:49:04Z</time>
      </trkpt>
      <trkpt lat="47.99446" lon="6.8241">
        <ele>984</ele>
        <time>2022-07-29T09:49:06Z</time>
      </trkpt>
      <trkpt lat="47.99445" lon="6.82404">
        <ele>983.8</ele>
        <time>2022-07-29T09:49:07Z</time>
      </trkpt>
      <trkpt lat="47.99444" lon="6.82399">
        <ele>983.8</ele>
        <time>2022-07-29T09:49:08Z</time>
      </trkpt>
      <trkpt lat="47.99443" lon="6.82394">
        <ele>984</ele>
        <time>2022-07-29T09:49:09Z</time>
      </trkpt>
      <trkpt lat="47.99438" lon="6.82379">
        <ele>984</ele>
        <time>2022-07-29T09:49:12Z</time>
      </trkpt>
      <trkpt lat="47.99437" lon="6.82375">
        <ele>984</ele>
        <time>2022-07-29T09:49:13Z</time>
      </trkpt>
      <trkpt lat="47.99436" lon="6.82371">
        <ele>984.4</ele>
        <time>2022-07-29T09:49:14Z</time>
      </trkpt>
      <trkpt lat="47.99435" lon="6.82366">
        <ele>984.4</ele>
        <time>2022-07-29T09:49:15Z</time>
      </trkpt>
      <trkpt lat="47.99433" lon="6.82357">
        <ele>984.8</ele>
        <time>2022-07-29T09:49:17Z</time>
      </trkpt>
      <trkpt lat="47.99433" lon="6.82353">
        <ele>985</ele>
        <time>2022-07-29T09:49:18Z</time>
      </trkpt>
      <trkpt lat="47.99432" lon="6.82348">
        <ele>985.2</ele>
        <time>2022-07-29T09:49:19Z</time>
      </trkpt>
      <trkpt lat="47.99431" lon="6.82343">
        <ele>985.4</ele>
        <time>2022-07-29T09:49:20Z</time>
      </trkpt>
      <trkpt lat="47.99431" lon="6.82339">
        <ele>985.6</ele>
        <time>2022-07-29T09:49:21Z</time>
      </trkpt>
      <trkpt lat="47.9943" lon="6.82334">
        <ele>985.6</ele>
        <time>2022-07-29T09:49:22Z</time>
      </trkpt>
      <trkpt lat="47.99429" lon="6.82329">
        <ele>985.8</ele>
        <time>2022-07-29T09:49:23Z</time>
      </trkpt>
      <trkpt lat="47.99429" lon="6.82325">
        <ele>986</ele>
        <time>2022-07-29T09:49:24Z</time>
      </trkpt>
      <trkpt lat="47.99428" lon="6.8232">
        <ele>986.2</ele>
        <time>2022-07-29T09:49:25Z</time>
      </trkpt>
      <trkpt lat="47.99427" lon="6.82303">
        <ele>986.4</ele>
        <time>2022-07-29T09:49:29Z</time>
      </trkpt>
      <trkpt lat="47.99427" lon="6.82294">
        <ele>986.4</ele>
        <time>2022-07-29T09:49:31Z</time>
      </trkpt>
      <trkpt lat="47.99428" lon="6.8228">
        <ele>986.4</ele>
        <time>2022-07-29T09:49:34Z</time>
      </trkpt>
      <trkpt lat="47.9943" lon="6.82231">
        <ele>986</ele>
        <time>2022-07-29T09:49:43Z</time>
      </trkpt>
      <trkpt lat="47.99424" lon="6.82183">
        <ele>985.4</ele>
        <time>2022-07-29T09:49:52Z</time>
      </trkpt>
      <trkpt lat="47.99421" lon="6.82172">
        <ele>985.2</ele>
        <time>2022-07-29T09:49:54Z</time>
      </trkpt>
      <trkpt lat="47.99412" lon="6.8213">
        <ele>984.2</ele>
        <time>2022-07-29T09:50:01Z</time>
      </trkpt>
      <trkpt lat="47.99411" lon="6.8212">
        <ele>984</ele>
        <time>2022-07-29T09:50:03Z</time>
      </trkpt>
      <trkpt lat="47.99409" lon="6.8209">
        <ele>983.8</ele>
        <time>2022-07-29T09:50:08Z</time>
      </trkpt>
      <trkpt lat="47.99408" lon="6.82039">
        <ele>984</ele>
        <time>2022-07-29T09:50:17Z</time>
      </trkpt>
      <trkpt lat="47.99409" lon="6.82033">
        <ele>984</ele>
        <time>2022-07-29T09:50:18Z</time>
      </trkpt>
      <trkpt lat="47.99409" lon="6.82028">
        <ele>984.2</ele>
        <time>2022-07-29T09:50:19Z</time>
      </trkpt>
      <trkpt lat="47.9941" lon="6.82024">
        <ele>984.2</ele>
        <time>2022-07-29T09:50:20Z</time>
      </trkpt>
      <trkpt lat="47.9941" lon="6.82019">
        <ele>984.4</ele>
        <time>2022-07-29T09:50:21Z</time>
      </trkpt>
      <trkpt lat="47.9941" lon="6.82013">
        <ele>984.4</ele>
        <time>2022-07-29T09:50:22Z</time>
      </trkpt>
      <trkpt lat="47.9941" lon="6.82009">
        <ele>984.8</ele>
        <time>2022-07-29T09:50:23Z</time>
      </trkpt>
      <trkpt lat="47.99411" lon="6.82004">
        <ele>984.8</ele>
        <time>2022-07-29T09:50:24Z</time>
      </trkpt>
      <trkpt lat="47.99411" lon="6.81999">
        <ele>985</ele>
        <time>2022-07-29T09:50:25Z</time>
      </trkpt>
      <trkpt lat="47.99411" lon="6.81994">
        <ele>985</ele>
        <time>2022-07-29T09:50:26Z</time>
      </trkpt>
      <trkpt lat="47.99411" lon="6.81989">
        <ele>985</ele>
        <time>2022-07-29T09:50:27Z</time>
      </trkpt>
      <trkpt lat="47.99411" lon="6.81984">
        <ele>985</ele>
        <time>2022-07-29T09:50:28Z</time>
      </trkpt>
      <trkpt lat="47.99408" lon="6.81967">
        <ele>985</ele>
        <time>2022-07-29T09:50:31Z</time>
      </trkpt>
      <trkpt lat="47.99405" lon="6.81962">
        <ele>985.2</ele>
        <time>2022-07-29T09:50:32Z</time>
      </trkpt>
      <trkpt lat="47.99402" lon="6.81958">
        <ele>985.2</ele>
        <time>2022-07-29T09:50:33Z</time>
      </trkpt>
      <trkpt lat="47.99399" lon="6.81954">
        <ele>985.2</ele>
        <time>2022-07-29T09:50:34Z</time>
      </trkpt>
      <trkpt lat="47.99397" lon="6.81949">
        <ele>985</ele>
        <time>2022-07-29T09:50:35Z</time>
      </trkpt>
      <trkpt lat="47.99391" lon="6.81934">
        <ele>985</ele>
        <time>2022-07-29T09:50:38Z</time>
      </trkpt>
      <trkpt lat="47.99388" lon="6.81921">
        <ele>985.2</ele>
        <time>2022-07-29T09:50:41Z</time>
      </trkpt>
      <trkpt lat="47.99387" lon="6.81916">
        <ele>985.4</ele>
        <time>2022-07-29T09:50:42Z</time>
      </trkpt>
      <trkpt lat="47.99386" lon="6.81911">
        <ele>985.4</ele>
        <time>2022-07-29T09:50:43Z</time>
      </trkpt>
      <trkpt lat="47.99385" lon="6.81905">
        <ele>985.4</ele>
        <time>2022-07-29T09:50:44Z</time>
      </trkpt>
      <trkpt lat="47.99384" lon="6.819">
        <ele>985.4</ele>
        <time>2022-07-29T09:50:45Z</time>
      </trkpt>
      <trkpt lat="47.99383" lon="6.81895">
        <ele>985.4</ele>
        <time>2022-07-29T09:50:46Z</time>
      </trkpt>
      <trkpt lat="47.99374" lon="6.81857">
        <ele>985.6</ele>
        <time>2022-07-29T09:50:53Z</time>
      </trkpt>
      <trkpt lat="47.99366" lon="6.81821">
        <ele>985.8</ele>
        <time>2022-07-29T09:51:00Z</time>
      </trkpt>
      <trkpt lat="47.9936" lon="6.81783">
        <ele>986</ele>
        <time>2022-07-29T09:51:07Z</time>
      </trkpt>
      <trkpt lat="47.99359" lon="6.81777">
        <ele>986</ele>
        <time>2022-07-29T09:51:08Z</time>
      </trkpt>
      <trkpt lat="47.99357" lon="6.81754">
        <ele>986.4</ele>
        <time>2022-07-29T09:51:12Z</time>
      </trkpt>
      <trkpt lat="47.99356" lon="6.81724">
        <ele>986.8</ele>
        <time>2022-07-29T09:51:17Z</time>
      </trkpt>
      <trkpt lat="47.99356" lon="6.81694">
        <ele>987.2</ele>
        <time>2022-07-29T09:51:23Z</time>
      </trkpt>
      <trkpt lat="47.99357" lon="6.8169">
        <ele>987.2</ele>
        <time>2022-07-29T09:51:24Z</time>
      </trkpt>
      <trkpt lat="47.99357" lon="6.81685">
        <ele>987.2</ele>
        <time>2022-07-29T09:51:25Z</time>
      </trkpt>
      <trkpt lat="47.99357" lon="6.8168">
        <ele>987.2</ele>
        <time>2022-07-29T09:51:26Z</time>
      </trkpt>
      <trkpt lat="47.99358" lon="6.81675">
        <ele>987.2</ele>
        <time>2022-07-29T09:51:27Z</time>
      </trkpt>
      <trkpt lat="47.99359" lon="6.8167">
        <ele>987.4</ele>
        <time>2022-07-29T09:51:28Z</time>
      </trkpt>
      <trkpt lat="47.99359" lon="6.81665">
        <ele>987.4</ele>
        <time>2022-07-29T09:51:29Z</time>
      </trkpt>
      <trkpt lat="47.99359" lon="6.81661">
        <ele>987.4</ele>
        <time>2022-07-29T09:51:30Z</time>
      </trkpt>
      <trkpt lat="47.99363" lon="6.81636">
        <ele>987.2</ele>
        <time>2022-07-29T09:51:36Z</time>
      </trkpt>
      <trkpt lat="47.99363" lon="6.81634">
        <ele>987.2</ele>
        <time>2022-07-29T09:51:37Z</time>
      </trkpt>
      <trkpt lat="47.99363" lon="6.81633">
        <ele>987.2</ele>
        <time>2022-07-29T09:51:38Z</time>
      </trkpt>
      <trkpt lat="47.99363" lon="6.81633">
        <ele>987.2</ele>
        <time>2022-07-29T09:51:41Z</time>
      </trkpt>
      <trkpt lat="47.99362" lon="6.81632">
        <ele>987</ele>
        <time>2022-07-29T09:52:05Z</time>
      </trkpt>
      <trkpt lat="47.99362" lon="6.81632">
        <ele>986.8</ele>
        <time>2022-07-29T09:52:08Z</time>
      </trkpt>
      <trkpt lat="47.99362" lon="6.81632">
        <ele>986.6</ele>
        <time>2022-07-29T09:52:18Z</time>
      </trkpt>
      <trkpt lat="47.99364" lon="6.81629">
        <ele>986.6</ele>
        <time>2022-07-29T09:52:36Z</time>
      </trkpt>
      <trkpt lat="47.99362" lon="6.81625">
        <ele>986.6</ele>
        <time>2022-07-29T09:52:40Z</time>
      </trkpt>
      <trkpt lat="47.99361" lon="6.81625">
        <ele>986.4</ele>
        <time>2022-07-29T09:52:43Z</time>
      </trkpt>
      <trkpt lat="47.99356" lon="6.8162">
        <ele>986.4</ele>
        <time>2022-07-29T09:52:46Z</time>
      </trkpt>
      <trkpt lat="47.99344" lon="6.81616">
        <ele>986</ele>
        <time>2022-07-29T09:52:50Z</time>
      </trkpt>
      <trkpt lat="47.99341" lon="6.81616">
        <ele>986</ele>
        <time>2022-07-29T09:52:51Z</time>
      </trkpt>
      <trkpt lat="47.99339" lon="6.81616">
        <ele>985.2</ele>
        <time>2022-07-29T09:52:52Z</time>
      </trkpt>
      <trkpt lat="47.99336" lon="6.81616">
        <ele>984.8</ele>
        <time>2022-07-29T09:52:53Z</time>
      </trkpt>
      <trkpt lat="47.99335" lon="6.81615">
        <ele>984.4</ele>
        <time>2022-07-29T09:52:54Z</time>
      </trkpt>
      <trkpt lat="47.99332" lon="6.81615">
        <ele>984.2</ele>
        <time>2022-07-29T09:52:55Z</time>
      </trkpt>
      <trkpt lat="47.99328" lon="6.81617">
        <ele>983.6</ele>
        <time>2022-07-29T09:52:57Z</time>
      </trkpt>
      <trkpt lat="47.99326" lon="6.81618">
        <ele>982.4</ele>
        <time>2022-07-29T09:52:58Z</time>
      </trkpt>
      <trkpt lat="47.99323" lon="6.8162">
        <ele>982</ele>
        <time>2022-07-29T09:52:59Z</time>
      </trkpt>
      <trkpt lat="47.9932" lon="6.81623">
        <ele>981.6</ele>
        <time>2022-07-29T09:53:00Z</time>
      </trkpt>
      <trkpt lat="47.99318" lon="6.81626">
        <ele>980.6</ele>
        <time>2022-07-29T09:53:01Z</time>
      </trkpt>
      <trkpt lat="47.99313" lon="6.81631">
        <ele>979.4</ele>
        <time>2022-07-29T09:53:03Z</time>
      </trkpt>
      <trkpt lat="47.99311" lon="6.81633">
        <ele>979</ele>
        <time>2022-07-29T09:53:04Z</time>
      </trkpt>
      <trkpt lat="47.9931" lon="6.81635">
        <ele>978.2</ele>
        <time>2022-07-29T09:53:05Z</time>
      </trkpt>
      <trkpt lat="47.99308" lon="6.81637">
        <ele>978</ele>
        <time>2022-07-29T09:53:06Z</time>
      </trkpt>
      <trkpt lat="47.99306" lon="6.81639">
        <ele>977.2</ele>
        <time>2022-07-29T09:53:07Z</time>
      </trkpt>
      <trkpt lat="47.99301" lon="6.81644">
        <ele>976.2</ele>
        <time>2022-07-29T09:53:09Z</time>
      </trkpt>
      <trkpt lat="47.99298" lon="6.81647">
        <ele>975.2</ele>
        <time>2022-07-29T09:53:10Z</time>
      </trkpt>
      <trkpt lat="47.99291" lon="6.81655">
        <ele>973.8</ele>
        <time>2022-07-29T09:53:13Z</time>
      </trkpt>
      <trkpt lat="47.99287" lon="6.81661">
        <ele>972.6</ele>
        <time>2022-07-29T09:53:15Z</time>
      </trkpt>
      <trkpt lat="47.99285" lon="6.81665">
        <ele>972.4</ele>
        <time>2022-07-29T09:53:16Z</time>
      </trkpt>
      <trkpt lat="47.99283" lon="6.8167">
        <ele>970.8</ele>
        <time>2022-07-29T09:53:17Z</time>
      </trkpt>
      <trkpt lat="47.99281" lon="6.81674">
        <ele>970</ele>
        <time>2022-07-29T09:53:18Z</time>
      </trkpt>
      <trkpt lat="47.99279" lon="6.81678">
        <ele>969</ele>
        <time>2022-07-29T09:53:19Z</time>
      </trkpt>
      <trkpt lat="47.99276" lon="6.81682">
        <ele>968.4</ele>
        <time>2022-07-29T09:53:20Z</time>
      </trkpt>
      <trkpt lat="47.99273" lon="6.81687">
        <ele>967.2</ele>
        <time>2022-07-29T09:53:21Z</time>
      </trkpt>
      <trkpt lat="47.99267" lon="6.81701">
        <ele>966.2</ele>
        <time>2022-07-29T09:53:23Z</time>
      </trkpt>
      <trkpt lat="47.99265" lon="6.81711">
        <ele>965.8</ele>
        <time>2022-07-29T09:53:24Z</time>
      </trkpt>
      <trkpt lat="47.99263" lon="6.81719">
        <ele>964.8</ele>
        <time>2022-07-29T09:53:25Z</time>
      </trkpt>
      <trkpt lat="47.99261" lon="6.8173">
        <ele>963.4</ele>
        <time>2022-07-29T09:53:27Z</time>
      </trkpt>
      <trkpt lat="47.9926" lon="6.81734">
        <ele>962.6</ele>
        <time>2022-07-29T09:53:28Z</time>
      </trkpt>
      <trkpt lat="47.99261" lon="6.81736">
        <ele>962</ele>
        <time>2022-07-29T09:53:29Z</time>
      </trkpt>
      <trkpt lat="47.99261" lon="6.81739">
        <ele>960.6</ele>
        <time>2022-07-29T09:53:30Z</time>
      </trkpt>
      <trkpt lat="47.9926" lon="6.8174">
        <ele>960</ele>
        <time>2022-07-29T09:53:31Z</time>
      </trkpt>
      <trkpt lat="47.9926" lon="6.81741">
        <ele>959</ele>
        <time>2022-07-29T09:53:32Z</time>
      </trkpt>
      <trkpt lat="47.9926" lon="6.81741">
        <ele>958.6</ele>
        <time>2022-07-29T09:53:33Z</time>
      </trkpt>
      <trkpt lat="47.9926" lon="6.81741">
        <ele>958</ele>
        <time>2022-07-29T09:53:34Z</time>
      </trkpt>
      <trkpt lat="47.9926" lon="6.81742">
        <ele>957.2</ele>
        <time>2022-07-29T09:53:41Z</time>
      </trkpt>
      <trkpt lat="47.9926" lon="6.81742">
        <ele>957</ele>
        <time>2022-07-29T09:53:44Z</time>
      </trkpt>
      <trkpt lat="47.9926" lon="6.81742">
        <ele>957</ele>
        <time>2022-07-29T09:53:47Z</time>
      </trkpt>
      <trkpt lat="47.9926" lon="6.81745">
        <ele>956.6</ele>
        <time>2022-07-29T09:53:53Z</time>
      </trkpt>
      <trkpt lat="47.9926" lon="6.81748">
        <ele>956.6</ele>
        <time>2022-07-29T09:53:54Z</time>
      </trkpt>
      <trkpt lat="47.99258" lon="6.81755">
        <ele>956.4</ele>
        <time>2022-07-29T09:53:56Z</time>
      </trkpt>
      <trkpt lat="47.99257" lon="6.8176">
        <ele>956.2</ele>
        <time>2022-07-29T09:53:57Z</time>
      </trkpt>
      <trkpt lat="47.99256" lon="6.81763">
        <ele>956</ele>
        <time>2022-07-29T09:53:58Z</time>
      </trkpt>
      <trkpt lat="47.99254" lon="6.81768">
        <ele>955.8</ele>
        <time>2022-07-29T09:53:59Z</time>
      </trkpt>
      <trkpt lat="47.99251" lon="6.81778">
        <ele>955</ele>
        <time>2022-07-29T09:54:01Z</time>
      </trkpt>
      <trkpt lat="47.9925" lon="6.8178">
        <ele>954.6</ele>
        <time>2022-07-29T09:54:02Z</time>
      </trkpt>
      <trkpt lat="47.99247" lon="6.81783">
        <ele>954.4</ele>
        <time>2022-07-29T09:54:03Z</time>
      </trkpt>
      <trkpt lat="47.99245" lon="6.81785">
        <ele>953.4</ele>
        <time>2022-07-29T09:54:04Z</time>
      </trkpt>
      <trkpt lat="47.99243" lon="6.81785">
        <ele>952.8</ele>
        <time>2022-07-29T09:54:05Z</time>
      </trkpt>
      <trkpt lat="47.99241" lon="6.81784">
        <ele>952</ele>
        <time>2022-07-29T09:54:06Z</time>
      </trkpt>
      <trkpt lat="47.99239" lon="6.81782">
        <ele>951.6</ele>
        <time>2022-07-29T09:54:07Z</time>
      </trkpt>
      <trkpt lat="47.99238" lon="6.81779">
        <ele>951</ele>
        <time>2022-07-29T09:54:08Z</time>
      </trkpt>
      <trkpt lat="47.99236" lon="6.81775">
        <ele>950.8</ele>
        <time>2022-07-29T09:54:09Z</time>
      </trkpt>
      <trkpt lat="47.99233" lon="6.81771">
        <ele>950</ele>
        <time>2022-07-29T09:54:10Z</time>
      </trkpt>
      <trkpt lat="47.99229" lon="6.81768">
        <ele>949.6</ele>
        <time>2022-07-29T09:54:11Z</time>
      </trkpt>
      <trkpt lat="47.99225" lon="6.81767">
        <ele>949.4</ele>
        <time>2022-07-29T09:54:12Z</time>
      </trkpt>
      <trkpt lat="47.99221" lon="6.81766">
        <ele>949</ele>
        <time>2022-07-29T09:54:13Z</time>
      </trkpt>
      <trkpt lat="47.99218" lon="6.81766">
        <ele>949</ele>
        <time>2022-07-29T09:54:14Z</time>
      </trkpt>
      <trkpt lat="47.99215" lon="6.81765">
        <ele>947.6</ele>
        <time>2022-07-29T09:54:15Z</time>
      </trkpt>
      <trkpt lat="47.99212" lon="6.81764">
        <ele>947</ele>
        <time>2022-07-29T09:54:16Z</time>
      </trkpt>
      <trkpt lat="47.99208" lon="6.81765">
        <ele>946</ele>
        <time>2022-07-29T09:54:17Z</time>
      </trkpt>
      <trkpt lat="47.99203" lon="6.81771">
        <ele>945</ele>
        <time>2022-07-29T09:54:19Z</time>
      </trkpt>
      <trkpt lat="47.99199" lon="6.81773">
        <ele>944.2</ele>
        <time>2022-07-29T09:54:20Z</time>
      </trkpt>
      <trkpt lat="47.99194" lon="6.81774">
        <ele>943.8</ele>
        <time>2022-07-29T09:54:21Z</time>
      </trkpt>
      <trkpt lat="47.9919" lon="6.81777">
        <ele>942.2</ele>
        <time>2022-07-29T09:54:22Z</time>
      </trkpt>
      <trkpt lat="47.99185" lon="6.81783">
        <ele>941.4</ele>
        <time>2022-07-29T09:54:23Z</time>
      </trkpt>
      <trkpt lat="47.99182" lon="6.8179">
        <ele>940.6</ele>
        <time>2022-07-29T09:54:24Z</time>
      </trkpt>
      <trkpt lat="47.99178" lon="6.81798">
        <ele>940.2</ele>
        <time>2022-07-29T09:54:25Z</time>
      </trkpt>
      <trkpt lat="47.99174" lon="6.81805">
        <ele>939.8</ele>
        <time>2022-07-29T09:54:26Z</time>
      </trkpt>
      <trkpt lat="47.99171" lon="6.81809">
        <ele>939</ele>
        <time>2022-07-29T09:54:27Z</time>
      </trkpt>
      <trkpt lat="47.99168" lon="6.81813">
        <ele>937.2</ele>
        <time>2022-07-29T09:54:28Z</time>
      </trkpt>
      <trkpt lat="47.99164" lon="6.81817">
        <ele>935.2</ele>
        <time>2022-07-29T09:54:29Z</time>
      </trkpt>
      <trkpt lat="47.99159" lon="6.8182">
        <ele>934.6</ele>
        <time>2022-07-29T09:54:30Z</time>
      </trkpt>
      <trkpt lat="47.99155" lon="6.81823">
        <ele>933.4</ele>
        <time>2022-07-29T09:54:31Z</time>
      </trkpt>
      <trkpt lat="47.9915" lon="6.81825">
        <ele>933</ele>
        <time>2022-07-29T09:54:32Z</time>
      </trkpt>
      <trkpt lat="47.99146" lon="6.81827">
        <ele>932.4</ele>
        <time>2022-07-29T09:54:33Z</time>
      </trkpt>
      <trkpt lat="47.99142" lon="6.8183">
        <ele>932.2</ele>
        <time>2022-07-29T09:54:34Z</time>
      </trkpt>
      <trkpt lat="47.99137" lon="6.81833">
        <ele>931.8</ele>
        <time>2022-07-29T09:54:35Z</time>
      </trkpt>
      <trkpt lat="47.99127" lon="6.81838">
        <ele>930.8</ele>
        <time>2022-07-29T09:54:37Z</time>
      </trkpt>
      <trkpt lat="47.99123" lon="6.8184">
        <ele>930.2</ele>
        <time>2022-07-29T09:54:38Z</time>
      </trkpt>
      <trkpt lat="47.99118" lon="6.81844">
        <ele>929.6</ele>
        <time>2022-07-29T09:54:39Z</time>
      </trkpt>
      <trkpt lat="47.99114" lon="6.81848">
        <ele>929</ele>
        <time>2022-07-29T09:54:40Z</time>
      </trkpt>
      <trkpt lat="47.99106" lon="6.81859">
        <ele>928.6</ele>
        <time>2022-07-29T09:54:42Z</time>
      </trkpt>
      <trkpt lat="47.99103" lon="6.81868">
        <ele>928.4</ele>
        <time>2022-07-29T09:54:43Z</time>
      </trkpt>
      <trkpt lat="47.99101" lon="6.81878">
        <ele>927.6</ele>
        <time>2022-07-29T09:54:44Z</time>
      </trkpt>
      <trkpt lat="47.99098" lon="6.81885">
        <ele>926.8</ele>
        <time>2022-07-29T09:54:45Z</time>
      </trkpt>
      <trkpt lat="47.99095" lon="6.8189">
        <ele>925.8</ele>
        <time>2022-07-29T09:54:46Z</time>
      </trkpt>
      <trkpt lat="47.99093" lon="6.81893">
        <ele>925</ele>
        <time>2022-07-29T09:54:47Z</time>
      </trkpt>
      <trkpt lat="47.9909" lon="6.81896">
        <ele>924.6</ele>
        <time>2022-07-29T09:54:48Z</time>
      </trkpt>
      <trkpt lat="47.99086" lon="6.81896">
        <ele>923.6</ele>
        <time>2022-07-29T09:54:49Z</time>
      </trkpt>
      <trkpt lat="47.99082" lon="6.81896">
        <ele>923.2</ele>
        <time>2022-07-29T09:54:50Z</time>
      </trkpt>
      <trkpt lat="47.99079" lon="6.81896">
        <ele>922.6</ele>
        <time>2022-07-29T09:54:51Z</time>
      </trkpt>
      <trkpt lat="47.99076" lon="6.81894">
        <ele>922.2</ele>
        <time>2022-07-29T09:54:52Z</time>
      </trkpt>
      <trkpt lat="47.99074" lon="6.81892">
        <ele>921.6</ele>
        <time>2022-07-29T09:54:53Z</time>
      </trkpt>
      <trkpt lat="47.99072" lon="6.81889">
        <ele>921.2</ele>
        <time>2022-07-29T09:54:54Z</time>
      </trkpt>
      <trkpt lat="47.9907" lon="6.81885">
        <ele>920.4</ele>
        <time>2022-07-29T09:54:55Z</time>
      </trkpt>
      <trkpt lat="47.99068" lon="6.8188">
        <ele>919.6</ele>
        <time>2022-07-29T09:54:56Z</time>
      </trkpt>
      <trkpt lat="47.99067" lon="6.81876">
        <ele>919.2</ele>
        <time>2022-07-29T09:54:57Z</time>
      </trkpt>
      <trkpt lat="47.99066" lon="6.81871">
        <ele>918</ele>
        <time>2022-07-29T09:54:58Z</time>
      </trkpt>
      <trkpt lat="47.99065" lon="6.81866">
        <ele>917.4</ele>
        <time>2022-07-29T09:54:59Z</time>
      </trkpt>
      <trkpt lat="47.99062" lon="6.8186">
        <ele>916.4</ele>
        <time>2022-07-29T09:55:00Z</time>
      </trkpt>
      <trkpt lat="47.99057" lon="6.81842">
        <ele>915.2</ele>
        <time>2022-07-29T09:55:02Z</time>
      </trkpt>
      <trkpt lat="47.99048" lon="6.81829">
        <ele>914</ele>
        <time>2022-07-29T09:55:04Z</time>
      </trkpt>
      <trkpt lat="47.99043" lon="6.81824">
        <ele>912.6</ele>
        <time>2022-07-29T09:55:05Z</time>
      </trkpt>
      <trkpt lat="47.99032" lon="6.81815">
        <ele>910.8</ele>
        <time>2022-07-29T09:55:07Z</time>
      </trkpt>
      <trkpt lat="47.99028" lon="6.8181">
        <ele>910.2</ele>
        <time>2022-07-29T09:55:08Z</time>
      </trkpt>
      <trkpt lat="47.99022" lon="6.81805">
        <ele>909.4</ele>
        <time>2022-07-29T09:55:09Z</time>
      </trkpt>
      <trkpt lat="47.99019" lon="6.81802">
        <ele>909.2</ele>
        <time>2022-07-29T09:55:10Z</time>
      </trkpt>
      <trkpt lat="47.99014" lon="6.81798">
        <ele>908.4</ele>
        <time>2022-07-29T09:55:11Z</time>
      </trkpt>
      <trkpt lat="47.9901" lon="6.81794">
        <ele>908</ele>
        <time>2022-07-29T09:55:12Z</time>
      </trkpt>
      <trkpt lat="47.99004" lon="6.81789">
        <ele>907.4</ele>
        <time>2022-07-29T09:55:13Z</time>
      </trkpt>
      <trkpt lat="47.98996" lon="6.81789">
        <ele>906.4</ele>
        <time>2022-07-29T09:55:15Z</time>
      </trkpt>
      <trkpt lat="47.98992" lon="6.81791">
        <ele>905.4</ele>
        <time>2022-07-29T09:55:16Z</time>
      </trkpt>
      <trkpt lat="47.98989" lon="6.81793">
        <ele>905</ele>
        <time>2022-07-29T09:55:17Z</time>
      </trkpt>
      <trkpt lat="47.98987" lon="6.81796">
        <ele>904.2</ele>
        <time>2022-07-29T09:55:18Z</time>
      </trkpt>
      <trkpt lat="47.98985" lon="6.81798">
        <ele>903.6</ele>
        <time>2022-07-29T09:55:19Z</time>
      </trkpt>
      <trkpt lat="47.98982" lon="6.818">
        <ele>903</ele>
        <time>2022-07-29T09:55:20Z</time>
      </trkpt>
      <trkpt lat="47.9898" lon="6.81801">
        <ele>902.8</ele>
        <time>2022-07-29T09:55:21Z</time>
      </trkpt>
      <trkpt lat="47.98978" lon="6.81802">
        <ele>902.6</ele>
        <time>2022-07-29T09:55:22Z</time>
      </trkpt>
      <trkpt lat="47.98976" lon="6.81804">
        <ele>902.2</ele>
        <time>2022-07-29T09:55:23Z</time>
      </trkpt>
      <trkpt lat="47.98972" lon="6.81808">
        <ele>901.8</ele>
        <time>2022-07-29T09:55:25Z</time>
      </trkpt>
      <trkpt lat="47.98969" lon="6.81812">
        <ele>901.8</ele>
        <time>2022-07-29T09:55:26Z</time>
      </trkpt>
      <trkpt lat="47.98962" lon="6.81818">
        <ele>901.4</ele>
        <time>2022-07-29T09:55:28Z</time>
      </trkpt>
      <trkpt lat="47.98954" lon="6.81824">
        <ele>900.8</ele>
        <time>2022-07-29T09:55:30Z</time>
      </trkpt>
      <trkpt lat="47.98944" lon="6.81828">
        <ele>899.6</ele>
        <time>2022-07-29T09:55:32Z</time>
      </trkpt>
      <trkpt lat="47.98939" lon="6.8183">
        <ele>899.4</ele>
        <time>2022-07-29T09:55:33Z</time>
      </trkpt>
      <trkpt lat="47.9892" lon="6.81837">
        <ele>898.6</ele>
        <time>2022-07-29T09:55:36Z</time>
      </trkpt>
      <trkpt lat="47.98913" lon="6.81838">
        <ele>898.2</ele>
        <time>2022-07-29T09:55:37Z</time>
      </trkpt>
      <trkpt lat="47.98906" lon="6.8184">
        <ele>897.2</ele>
        <time>2022-07-29T09:55:38Z</time>
      </trkpt>
      <trkpt lat="47.98893" lon="6.81844">
        <ele>895.8</ele>
        <time>2022-07-29T09:55:40Z</time>
      </trkpt>
      <trkpt lat="47.98887" lon="6.81849">
        <ele>894.6</ele>
        <time>2022-07-29T09:55:41Z</time>
      </trkpt>
      <trkpt lat="47.98882" lon="6.81855">
        <ele>894.2</ele>
        <time>2022-07-29T09:55:42Z</time>
      </trkpt>
      <trkpt lat="47.98877" lon="6.81861">
        <ele>894</ele>
        <time>2022-07-29T09:55:43Z</time>
      </trkpt>
      <trkpt lat="47.98873" lon="6.81865">
        <ele>893.8</ele>
        <time>2022-07-29T09:55:44Z</time>
      </trkpt>
      <trkpt lat="47.9887" lon="6.81869">
        <ele>893.8</ele>
        <time>2022-07-29T09:55:45Z</time>
      </trkpt>
      <trkpt lat="47.98866" lon="6.8187">
        <ele>893.6</ele>
        <time>2022-07-29T09:55:46Z</time>
      </trkpt>
      <trkpt lat="47.98862" lon="6.81868">
        <ele>893.4</ele>
        <time>2022-07-29T09:55:47Z</time>
      </trkpt>
      <trkpt lat="47.98858" lon="6.81863">
        <ele>893.2</ele>
        <time>2022-07-29T09:55:48Z</time>
      </trkpt>
      <trkpt lat="47.98844" lon="6.81843">
        <ele>892.8</ele>
        <time>2022-07-29T09:55:51Z</time>
      </trkpt>
      <trkpt lat="47.9884" lon="6.81837">
        <ele>892.6</ele>
        <time>2022-07-29T09:55:52Z</time>
      </trkpt>
      <trkpt lat="47.98826" lon="6.81821">
        <ele>892</ele>
        <time>2022-07-29T09:55:54Z</time>
      </trkpt>
      <trkpt lat="47.98812" lon="6.81809">
        <ele>890.8</ele>
        <time>2022-07-29T09:55:56Z</time>
      </trkpt>
      <trkpt lat="47.98805" lon="6.81804">
        <ele>889.6</ele>
        <time>2022-07-29T09:55:57Z</time>
      </trkpt>
      <trkpt lat="47.98797" lon="6.818">
        <ele>889</ele>
        <time>2022-07-29T09:55:58Z</time>
      </trkpt>
      <trkpt lat="47.98791" lon="6.81797">
        <ele>888.4</ele>
        <time>2022-07-29T09:55:59Z</time>
      </trkpt>
      <trkpt lat="47.98785" lon="6.81793">
        <ele>888.2</ele>
        <time>2022-07-29T09:56:00Z</time>
      </trkpt>
      <trkpt lat="47.9878" lon="6.81788">
        <ele>887.8</ele>
        <time>2022-07-29T09:56:01Z</time>
      </trkpt>
      <trkpt lat="47.98775" lon="6.81782">
        <ele>887.6</ele>
        <time>2022-07-29T09:56:02Z</time>
      </trkpt>
      <trkpt lat="47.98771" lon="6.81774">
        <ele>887.2</ele>
        <time>2022-07-29T09:56:03Z</time>
      </trkpt>
      <trkpt lat="47.98767" lon="6.81764">
        <ele>886.8</ele>
        <time>2022-07-29T09:56:04Z</time>
      </trkpt>
      <trkpt lat="47.98763" lon="6.81754">
        <ele>886.2</ele>
        <time>2022-07-29T09:56:05Z</time>
      </trkpt>
      <trkpt lat="47.9876" lon="6.81745">
        <ele>885.6</ele>
        <time>2022-07-29T09:56:06Z</time>
      </trkpt>
      <trkpt lat="47.98756" lon="6.81729">
        <ele>884.2</ele>
        <time>2022-07-29T09:56:08Z</time>
      </trkpt>
      <trkpt lat="47.98754" lon="6.81722">
        <ele>883.4</ele>
        <time>2022-07-29T09:56:09Z</time>
      </trkpt>
      <trkpt lat="47.98753" lon="6.81716">
        <ele>882.2</ele>
        <time>2022-07-29T09:56:10Z</time>
      </trkpt>
      <trkpt lat="47.98753" lon="6.81712">
        <ele>882</ele>
        <time>2022-07-29T09:56:11Z</time>
      </trkpt>
      <trkpt lat="47.98753" lon="6.81708">
        <ele>880.8</ele>
        <time>2022-07-29T09:56:12Z</time>
      </trkpt>
      <trkpt lat="47.98752" lon="6.81705">
        <ele>880.6</ele>
        <time>2022-07-29T09:56:13Z</time>
      </trkpt>
      <trkpt lat="47.98752" lon="6.81703">
        <ele>879.8</ele>
        <time>2022-07-29T09:56:14Z</time>
      </trkpt>
      <trkpt lat="47.98752" lon="6.81703">
        <ele>879.4</ele>
        <time>2022-07-29T09:56:15Z</time>
      </trkpt>
      <trkpt lat="47.98752" lon="6.81703">
        <ele>879</ele>
        <time>2022-07-29T09:56:16Z</time>
      </trkpt>
      <trkpt lat="47.98752" lon="6.81703">
        <ele>878.4</ele>
        <time>2022-07-29T09:56:18Z</time>
      </trkpt>
      <trkpt lat="47.98752" lon="6.81699">
        <ele>878.2</ele>
        <time>2022-07-29T09:56:20Z</time>
      </trkpt>
      <trkpt lat="47.98751" lon="6.81693">
        <ele>878</ele>
        <time>2022-07-29T09:56:22Z</time>
      </trkpt>
      <trkpt lat="47.98749" lon="6.8169">
        <ele>878</ele>
        <time>2022-07-29T09:56:24Z</time>
      </trkpt>
      <trkpt lat="47.98748" lon="6.81689">
        <ele>878</ele>
        <time>2022-07-29T09:56:25Z</time>
      </trkpt>
      <trkpt lat="47.98748" lon="6.81687">
        <ele>878</ele>
        <time>2022-07-29T09:56:26Z</time>
      </trkpt>
      <trkpt lat="47.98746" lon="6.81686">
        <ele>877.8</ele>
        <time>2022-07-29T09:56:27Z</time>
      </trkpt>
      <trkpt lat="47.98745" lon="6.81685">
        <ele>877.8</ele>
        <time>2022-07-29T09:56:28Z</time>
      </trkpt>
      <trkpt lat="47.98745" lon="6.81684">
        <ele>877.6</ele>
        <time>2022-07-29T09:56:32Z</time>
      </trkpt>
      <trkpt lat="47.98745" lon="6.81684">
        <ele>877.6</ele>
        <time>2022-07-29T09:56:37Z</time>
      </trkpt>
      <trkpt lat="47.98745" lon="6.81684">
        <ele>877.4</ele>
        <time>2022-07-29T09:56:47Z</time>
      </trkpt>
      <trkpt lat="47.98743" lon="6.81684">
        <ele>877.2</ele>
        <time>2022-07-29T09:57:01Z</time>
      </trkpt>
      <trkpt lat="47.9874" lon="6.81683">
        <ele>877</ele>
        <time>2022-07-29T09:57:03Z</time>
      </trkpt>
      <trkpt lat="47.98731" lon="6.81671">
        <ele>877</ele>
        <time>2022-07-29T09:57:07Z</time>
      </trkpt>
      <trkpt lat="47.98728" lon="6.81667">
        <ele>877</ele>
        <time>2022-07-29T09:57:08Z</time>
      </trkpt>
      <trkpt lat="47.98726" lon="6.81662">
        <ele>877</ele>
        <time>2022-07-29T09:57:09Z</time>
      </trkpt>
      <trkpt lat="47.98716" lon="6.81644">
        <ele>876.6</ele>
        <time>2022-07-29T09:57:12Z</time>
      </trkpt>
      <trkpt lat="47.98713" lon="6.81637">
        <ele>876.6</ele>
        <time>2022-07-29T09:57:13Z</time>
      </trkpt>
      <trkpt lat="47.98697" lon="6.81608">
        <ele>875.4</ele>
        <time>2022-07-29T09:57:17Z</time>
      </trkpt>
      <trkpt lat="47.98693" lon="6.81601">
        <ele>875</ele>
        <time>2022-07-29T09:57:18Z</time>
      </trkpt>
      <trkpt lat="47.98685" lon="6.81585">
        <ele>874</ele>
        <time>2022-07-29T09:57:20Z</time>
      </trkpt>
      <trkpt lat="47.9868" lon="6.81578">
        <ele>873.8</ele>
        <time>2022-07-29T09:57:21Z</time>
      </trkpt>
      <trkpt lat="47.98667" lon="6.81568">
        <ele>873</ele>
        <time>2022-07-29T09:57:23Z</time>
      </trkpt>
      <trkpt lat="47.9866" lon="6.81567">
        <ele>872.6</ele>
        <time>2022-07-29T09:57:24Z</time>
      </trkpt>
      <trkpt lat="47.98653" lon="6.81569">
        <ele>872.4</ele>
        <time>2022-07-29T09:57:25Z</time>
      </trkpt>
      <trkpt lat="47.98637" lon="6.81579">
        <ele>871.8</ele>
        <time>2022-07-29T09:57:27Z</time>
      </trkpt>
      <trkpt lat="47.98622" lon="6.81587">
        <ele>871.2</ele>
        <time>2022-07-29T09:57:29Z</time>
      </trkpt>
      <trkpt lat="47.98616" lon="6.81592">
        <ele>870.8</ele>
        <time>2022-07-29T09:57:30Z</time>
      </trkpt>
      <trkpt lat="47.98611" lon="6.81596">
        <ele>870.2</ele>
        <time>2022-07-29T09:57:31Z</time>
      </trkpt>
      <trkpt lat="47.98605" lon="6.816">
        <ele>870</ele>
        <time>2022-07-29T09:57:32Z</time>
      </trkpt>
      <trkpt lat="47.986" lon="6.81603">
        <ele>869.6</ele>
        <time>2022-07-29T09:57:33Z</time>
      </trkpt>
      <trkpt lat="47.98595" lon="6.81605">
        <ele>869.4</ele>
        <time>2022-07-29T09:57:34Z</time>
      </trkpt>
      <trkpt lat="47.98589" lon="6.81607">
        <ele>869.2</ele>
        <time>2022-07-29T09:57:35Z</time>
      </trkpt>
      <trkpt lat="47.98584" lon="6.81607">
        <ele>869</ele>
        <time>2022-07-29T09:57:36Z</time>
      </trkpt>
      <trkpt lat="47.98578" lon="6.81609">
        <ele>868.8</ele>
        <time>2022-07-29T09:57:37Z</time>
      </trkpt>
      <trkpt lat="47.98572" lon="6.81609">
        <ele>868.4</ele>
        <time>2022-07-29T09:57:38Z</time>
      </trkpt>
      <trkpt lat="47.98565" lon="6.81611">
        <ele>868.2</ele>
        <time>2022-07-29T09:57:39Z</time>
      </trkpt>
      <trkpt lat="47.98555" lon="6.81616">
        <ele>868.2</ele>
        <time>2022-07-29T09:57:41Z</time>
      </trkpt>
      <trkpt lat="47.98551" lon="6.81617">
        <ele>868</ele>
        <time>2022-07-29T09:57:42Z</time>
      </trkpt>
      <trkpt lat="47.98547" lon="6.81618">
        <ele>867.8</ele>
        <time>2022-07-29T09:57:43Z</time>
      </trkpt>
      <trkpt lat="47.98544" lon="6.81619">
        <ele>867.8</ele>
        <time>2022-07-29T09:57:44Z</time>
      </trkpt>
      <trkpt lat="47.98539" lon="6.81621">
        <ele>867.6</ele>
        <time>2022-07-29T09:57:45Z</time>
      </trkpt>
      <trkpt lat="47.98537" lon="6.81622">
        <ele>867.6</ele>
        <time>2022-07-29T09:57:46Z</time>
      </trkpt>
      <trkpt lat="47.98533" lon="6.81624">
        <ele>867.4</ele>
        <time>2022-07-29T09:57:47Z</time>
      </trkpt>
      <trkpt lat="47.9853" lon="6.81625">
        <ele>867.4</ele>
        <time>2022-07-29T09:57:48Z</time>
      </trkpt>
      <trkpt lat="47.98528" lon="6.81626">
        <ele>867.4</ele>
        <time>2022-07-29T09:57:49Z</time>
      </trkpt>
      <trkpt lat="47.98525" lon="6.81627">
        <ele>867.4</ele>
        <time>2022-07-29T09:57:50Z</time>
      </trkpt>
      <trkpt lat="47.98522" lon="6.81627">
        <ele>867.4</ele>
        <time>2022-07-29T09:57:51Z</time>
      </trkpt>
      <trkpt lat="47.98521" lon="6.81629">
        <ele>867.6</ele>
        <time>2022-07-29T09:57:52Z</time>
      </trkpt>
      <trkpt lat="47.98519" lon="6.8163">
        <ele>867.8</ele>
        <time>2022-07-29T09:57:53Z</time>
      </trkpt>
      <trkpt lat="47.98517" lon="6.81631">
        <ele>868</ele>
        <time>2022-07-29T09:57:54Z</time>
      </trkpt>
      <trkpt lat="47.98516" lon="6.81631">
        <ele>868.2</ele>
        <time>2022-07-29T09:57:55Z</time>
      </trkpt>
      <trkpt lat="47.98514" lon="6.81632">
        <ele>868.4</ele>
        <time>2022-07-29T09:57:56Z</time>
      </trkpt>
      <trkpt lat="47.98513" lon="6.81633">
        <ele>868.6</ele>
        <time>2022-07-29T09:57:57Z</time>
      </trkpt>
      <trkpt lat="47.98512" lon="6.81633">
        <ele>869</ele>
        <time>2022-07-29T09:57:58Z</time>
      </trkpt>
      <trkpt lat="47.9851" lon="6.81634">
        <ele>869</ele>
        <time>2022-07-29T09:57:59Z</time>
      </trkpt>
      <trkpt lat="47.98508" lon="6.81636">
        <ele>869.2</ele>
        <time>2022-07-29T09:58:00Z</time>
      </trkpt>
      <trkpt lat="47.98507" lon="6.81636">
        <ele>869.4</ele>
        <time>2022-07-29T09:58:01Z</time>
      </trkpt>
      <trkpt lat="47.98506" lon="6.81637">
        <ele>869.4</ele>
        <time>2022-07-29T09:58:02Z</time>
      </trkpt>
      <trkpt lat="47.98504" lon="6.81638">
        <ele>869.8</ele>
        <time>2022-07-29T09:58:03Z</time>
      </trkpt>
      <trkpt lat="47.98503" lon="6.81639">
        <ele>869.8</ele>
        <time>2022-07-29T09:58:04Z</time>
      </trkpt>
      <trkpt lat="47.98502" lon="6.81641">
        <ele>870</ele>
        <time>2022-07-29T09:58:05Z</time>
      </trkpt>
      <trkpt lat="47.98501" lon="6.81642">
        <ele>870</ele>
        <time>2022-07-29T09:58:06Z</time>
      </trkpt>
      <trkpt lat="47.985" lon="6.81642">
        <ele>870.2</ele>
        <time>2022-07-29T09:58:07Z</time>
      </trkpt>
      <trkpt lat="47.98497" lon="6.81643">
        <ele>870.4</ele>
        <time>2022-07-29T09:58:09Z</time>
      </trkpt>
      <trkpt lat="47.98495" lon="6.81644">
        <ele>870.6</ele>
        <time>2022-07-29T09:58:10Z</time>
      </trkpt>
      <trkpt lat="47.98483" lon="6.8165">
        <ele>871.4</ele>
        <time>2022-07-29T09:58:18Z</time>
      </trkpt>
      <trkpt lat="47.98482" lon="6.8165">
        <ele>871.6</ele>
        <time>2022-07-29T09:58:19Z</time>
      </trkpt>
      <trkpt lat="47.98481" lon="6.8165">
        <ele>871.6</ele>
        <time>2022-07-29T09:58:20Z</time>
      </trkpt>
      <trkpt lat="47.9848" lon="6.8165">
        <ele>872</ele>
        <time>2022-07-29T09:58:21Z</time>
      </trkpt>
      <trkpt lat="47.98478" lon="6.81651">
        <ele>872.2</ele>
        <time>2022-07-29T09:58:22Z</time>
      </trkpt>
      <trkpt lat="47.98476" lon="6.81651">
        <ele>872.6</ele>
        <time>2022-07-29T09:58:23Z</time>
      </trkpt>
      <trkpt lat="47.98475" lon="6.81651">
        <ele>872.6</ele>
        <time>2022-07-29T09:58:24Z</time>
      </trkpt>
      <trkpt lat="47.98474" lon="6.81651">
        <ele>873</ele>
        <time>2022-07-29T09:58:25Z</time>
      </trkpt>
      <trkpt lat="47.98472" lon="6.81651">
        <ele>873</ele>
        <time>2022-07-29T09:58:26Z</time>
      </trkpt>
      <trkpt lat="47.9847" lon="6.81651">
        <ele>873.2</ele>
        <time>2022-07-29T09:58:27Z</time>
      </trkpt>
      <trkpt lat="47.98469" lon="6.81652">
        <ele>873.2</ele>
        <time>2022-07-29T09:58:28Z</time>
      </trkpt>
      <trkpt lat="47.98468" lon="6.81653">
        <ele>873.2</ele>
        <time>2022-07-29T09:58:29Z</time>
      </trkpt>
      <trkpt lat="47.98467" lon="6.81653">
        <ele>873.4</ele>
        <time>2022-07-29T09:58:30Z</time>
      </trkpt>
      <trkpt lat="47.98465" lon="6.81654">
        <ele>873.6</ele>
        <time>2022-07-29T09:58:31Z</time>
      </trkpt>
      <trkpt lat="47.98464" lon="6.81654">
        <ele>873.8</ele>
        <time>2022-07-29T09:58:32Z</time>
      </trkpt>
      <trkpt lat="47.98463" lon="6.81656">
        <ele>873.8</ele>
        <time>2022-07-29T09:58:33Z</time>
      </trkpt>
      <trkpt lat="47.98462" lon="6.81656">
        <ele>874</ele>
        <time>2022-07-29T09:58:34Z</time>
      </trkpt>
      <trkpt lat="47.9846" lon="6.81657">
        <ele>874.2</ele>
        <time>2022-07-29T09:58:35Z</time>
      </trkpt>
      <trkpt lat="47.98459" lon="6.81658">
        <ele>874.2</ele>
        <time>2022-07-29T09:58:36Z</time>
      </trkpt>
      <trkpt lat="47.98458" lon="6.81659">
        <ele>874.4</ele>
        <time>2022-07-29T09:58:37Z</time>
      </trkpt>
      <trkpt lat="47.98457" lon="6.8166">
        <ele>874.6</ele>
        <time>2022-07-29T09:58:38Z</time>
      </trkpt>
      <trkpt lat="47.98456" lon="6.81661">
        <ele>874.8</ele>
        <time>2022-07-29T09:58:39Z</time>
      </trkpt>
      <trkpt lat="47.98455" lon="6.81662">
        <ele>874.8</ele>
        <time>2022-07-29T09:58:40Z</time>
      </trkpt>
      <trkpt lat="47.98454" lon="6.81664">
        <ele>875.2</ele>
        <time>2022-07-29T09:58:41Z</time>
      </trkpt>
      <trkpt lat="47.98453" lon="6.81665">
        <ele>875.2</ele>
        <time>2022-07-29T09:58:42Z</time>
      </trkpt>
      <trkpt lat="47.98452" lon="6.81666">
        <ele>875.4</ele>
        <time>2022-07-29T09:58:43Z</time>
      </trkpt>
      <trkpt lat="47.98451" lon="6.81667">
        <ele>875.6</ele>
        <time>2022-07-29T09:58:44Z</time>
      </trkpt>
      <trkpt lat="47.98449" lon="6.81668">
        <ele>875.8</ele>
        <time>2022-07-29T09:58:45Z</time>
      </trkpt>
      <trkpt lat="47.98448" lon="6.8167">
        <ele>876</ele>
        <time>2022-07-29T09:58:46Z</time>
      </trkpt>
      <trkpt lat="47.98447" lon="6.8167">
        <ele>876.2</ele>
        <time>2022-07-29T09:58:47Z</time>
      </trkpt>
      <trkpt lat="47.98447" lon="6.81671">
        <ele>876.4</ele>
        <time>2022-07-29T09:58:48Z</time>
      </trkpt>
      <trkpt lat="47.98446" lon="6.81673">
        <ele>876.8</ele>
        <time>2022-07-29T09:58:49Z</time>
      </trkpt>
      <trkpt lat="47.98445" lon="6.81674">
        <ele>877.2</ele>
        <time>2022-07-29T09:58:50Z</time>
      </trkpt>
      <trkpt lat="47.98443" lon="6.81675">
        <ele>877.2</ele>
        <time>2022-07-29T09:58:51Z</time>
      </trkpt>
      <trkpt lat="47.98442" lon="6.81677">
        <ele>877.4</ele>
        <time>2022-07-29T09:58:52Z</time>
      </trkpt>
      <trkpt lat="47.9844" lon="6.81678">
        <ele>877.6</ele>
        <time>2022-07-29T09:58:53Z</time>
      </trkpt>
      <trkpt lat="47.98439" lon="6.81679">
        <ele>877.8</ele>
        <time>2022-07-29T09:58:54Z</time>
      </trkpt>
      <trkpt lat="47.98438" lon="6.81679">
        <ele>878</ele>
        <time>2022-07-29T09:58:55Z</time>
      </trkpt>
      <trkpt lat="47.98437" lon="6.8168">
        <ele>878.2</ele>
        <time>2022-07-29T09:58:56Z</time>
      </trkpt>
      <trkpt lat="47.98436" lon="6.81681">
        <ele>878.4</ele>
        <time>2022-07-29T09:58:57Z</time>
      </trkpt>
      <trkpt lat="47.98434" lon="6.81682">
        <ele>878.4</ele>
        <time>2022-07-29T09:58:58Z</time>
      </trkpt>
      <trkpt lat="47.98433" lon="6.81682">
        <ele>878.6</ele>
        <time>2022-07-29T09:58:59Z</time>
      </trkpt>
      <trkpt lat="47.98432" lon="6.81682">
        <ele>878.8</ele>
        <time>2022-07-29T09:59:00Z</time>
      </trkpt>
      <trkpt lat="47.98431" lon="6.81683">
        <ele>879</ele>
        <time>2022-07-29T09:59:01Z</time>
      </trkpt>
      <trkpt lat="47.9843" lon="6.81684">
        <ele>879</ele>
        <time>2022-07-29T09:59:02Z</time>
      </trkpt>
      <trkpt lat="47.98428" lon="6.81685">
        <ele>879.2</ele>
        <time>2022-07-29T09:59:03Z</time>
      </trkpt>
      <trkpt lat="47.98427" lon="6.81685">
        <ele>879.4</ele>
        <time>2022-07-29T09:59:04Z</time>
      </trkpt>
      <trkpt lat="47.98425" lon="6.81686">
        <ele>879.6</ele>
        <time>2022-07-29T09:59:05Z</time>
      </trkpt>
      <trkpt lat="47.98424" lon="6.81687">
        <ele>879.8</ele>
        <time>2022-07-29T09:59:06Z</time>
      </trkpt>
      <trkpt lat="47.98423" lon="6.81688">
        <ele>880</ele>
        <time>2022-07-29T09:59:07Z</time>
      </trkpt>
      <trkpt lat="47.98422" lon="6.81688">
        <ele>880.2</ele>
        <time>2022-07-29T09:59:08Z</time>
      </trkpt>
      <trkpt lat="47.9842" lon="6.8169">
        <ele>880.2</ele>
        <time>2022-07-29T09:59:09Z</time>
      </trkpt>
      <trkpt lat="47.98419" lon="6.81691">
        <ele>880.4</ele>
        <time>2022-07-29T09:59:10Z</time>
      </trkpt>
      <trkpt lat="47.98418" lon="6.81691">
        <ele>880.6</ele>
        <time>2022-07-29T09:59:11Z</time>
      </trkpt>
      <trkpt lat="47.98417" lon="6.81692">
        <ele>880.8</ele>
        <time>2022-07-29T09:59:12Z</time>
      </trkpt>
      <trkpt lat="47.98416" lon="6.81693">
        <ele>881</ele>
        <time>2022-07-29T09:59:13Z</time>
      </trkpt>
      <trkpt lat="47.98414" lon="6.81693">
        <ele>881</ele>
        <time>2022-07-29T09:59:14Z</time>
      </trkpt>
      <trkpt lat="47.98414" lon="6.81694">
        <ele>881.2</ele>
        <time>2022-07-29T09:59:15Z</time>
      </trkpt>
      <trkpt lat="47.98412" lon="6.81694">
        <ele>881.4</ele>
        <time>2022-07-29T09:59:16Z</time>
      </trkpt>
      <trkpt lat="47.98411" lon="6.81695">
        <ele>881.6</ele>
        <time>2022-07-29T09:59:17Z</time>
      </trkpt>
      <trkpt lat="47.9841" lon="6.81695">
        <ele>881.6</ele>
        <time>2022-07-29T09:59:18Z</time>
      </trkpt>
      <trkpt lat="47.98408" lon="6.81696">
        <ele>881.8</ele>
        <time>2022-07-29T09:59:19Z</time>
      </trkpt>
      <trkpt lat="47.98407" lon="6.81696">
        <ele>881.8</ele>
        <time>2022-07-29T09:59:20Z</time>
      </trkpt>
      <trkpt lat="47.98406" lon="6.81697">
        <ele>881.8</ele>
        <time>2022-07-29T09:59:21Z</time>
      </trkpt>
      <trkpt lat="47.98404" lon="6.81698">
        <ele>882</ele>
        <time>2022-07-29T09:59:22Z</time>
      </trkpt>
      <trkpt lat="47.98403" lon="6.81698">
        <ele>882</ele>
        <time>2022-07-29T09:59:23Z</time>
      </trkpt>
      <trkpt lat="47.98402" lon="6.81699">
        <ele>882.2</ele>
        <time>2022-07-29T09:59:24Z</time>
      </trkpt>
      <trkpt lat="47.98401" lon="6.81699">
        <ele>882.2</ele>
        <time>2022-07-29T09:59:25Z</time>
      </trkpt>
      <trkpt lat="47.984" lon="6.817">
        <ele>882.4</ele>
        <time>2022-07-29T09:59:26Z</time>
      </trkpt>
      <trkpt lat="47.98399" lon="6.81702">
        <ele>882.6</ele>
        <time>2022-07-29T09:59:27Z</time>
      </trkpt>
      <trkpt lat="47.98398" lon="6.81703">
        <ele>882.6</ele>
        <time>2022-07-29T09:59:28Z</time>
      </trkpt>
      <trkpt lat="47.98397" lon="6.81704">
        <ele>882.8</ele>
        <time>2022-07-29T09:59:29Z</time>
      </trkpt>
      <trkpt lat="47.98396" lon="6.81705">
        <ele>882.8</ele>
        <time>2022-07-29T09:59:30Z</time>
      </trkpt>
      <trkpt lat="47.98396" lon="6.81705">
        <ele>883</ele>
        <time>2022-07-29T09:59:31Z</time>
      </trkpt>
      <trkpt lat="47.98394" lon="6.81706">
        <ele>883.2</ele>
        <time>2022-07-29T09:59:32Z</time>
      </trkpt>
      <trkpt lat="47.98393" lon="6.81706">
        <ele>883.4</ele>
        <time>2022-07-29T09:59:33Z</time>
      </trkpt>
      <trkpt lat="47.98392" lon="6.81707">
        <ele>883.6</ele>
        <time>2022-07-29T09:59:34Z</time>
      </trkpt>
      <trkpt lat="47.98391" lon="6.81708">
        <ele>883.8</ele>
        <time>2022-07-29T09:59:35Z</time>
      </trkpt>
      <trkpt lat="47.98389" lon="6.81709">
        <ele>883.8</ele>
        <time>2022-07-29T09:59:36Z</time>
      </trkpt>
      <trkpt lat="47.98387" lon="6.81709">
        <ele>884</ele>
        <time>2022-07-29T09:59:37Z</time>
      </trkpt>
      <trkpt lat="47.98386" lon="6.8171">
        <ele>884.2</ele>
        <time>2022-07-29T09:59:38Z</time>
      </trkpt>
      <trkpt lat="47.98384" lon="6.8171">
        <ele>884.4</ele>
        <time>2022-07-29T09:59:39Z</time>
      </trkpt>
      <trkpt lat="47.98382" lon="6.8171">
        <ele>884.6</ele>
        <time>2022-07-29T09:59:40Z</time>
      </trkpt>
      <trkpt lat="47.98381" lon="6.81711">
        <ele>884.6</ele>
        <time>2022-07-29T09:59:41Z</time>
      </trkpt>
      <trkpt lat="47.9838" lon="6.81711">
        <ele>884.8</ele>
        <time>2022-07-29T09:59:42Z</time>
      </trkpt>
      <trkpt lat="47.98378" lon="6.81711">
        <ele>885</ele>
        <time>2022-07-29T09:59:43Z</time>
      </trkpt>
      <trkpt lat="47.98377" lon="6.8171">
        <ele>885.4</ele>
        <time>2022-07-29T09:59:44Z</time>
      </trkpt>
      <trkpt lat="47.98376" lon="6.81709">
        <ele>885.6</ele>
        <time>2022-07-29T09:59:45Z</time>
      </trkpt>
      <trkpt lat="47.98375" lon="6.81709">
        <ele>885.8</ele>
        <time>2022-07-29T09:59:46Z</time>
      </trkpt>
      <trkpt lat="47.98374" lon="6.81709">
        <ele>886</ele>
        <time>2022-07-29T09:59:47Z</time>
      </trkpt>
      <trkpt lat="47.98373" lon="6.81709">
        <ele>886</ele>
        <time>2022-07-29T09:59:48Z</time>
      </trkpt>
      <trkpt lat="47.98371" lon="6.81708">
        <ele>886.2</ele>
        <time>2022-07-29T09:59:49Z</time>
      </trkpt>
      <trkpt lat="47.98369" lon="6.81708">
        <ele>886.2</ele>
        <time>2022-07-29T09:59:50Z</time>
      </trkpt>
      <trkpt lat="47.98368" lon="6.81708">
        <ele>886.4</ele>
        <time>2022-07-29T09:59:51Z</time>
      </trkpt>
      <trkpt lat="47.98367" lon="6.81707">
        <ele>886.6</ele>
        <time>2022-07-29T09:59:52Z</time>
      </trkpt>
      <trkpt lat="47.98366" lon="6.81706">
        <ele>886.8</ele>
        <time>2022-07-29T09:59:53Z</time>
      </trkpt>
      <trkpt lat="47.98365" lon="6.81705">
        <ele>887</ele>
        <time>2022-07-29T09:59:54Z</time>
      </trkpt>
      <trkpt lat="47.98364" lon="6.81704">
        <ele>887.2</ele>
        <time>2022-07-29T09:59:55Z</time>
      </trkpt>
      <trkpt lat="47.98362" lon="6.81703">
        <ele>887.4</ele>
        <time>2022-07-29T09:59:56Z</time>
      </trkpt>
      <trkpt lat="47.98361" lon="6.81703">
        <ele>887.6</ele>
        <time>2022-07-29T09:59:57Z</time>
      </trkpt>
      <trkpt lat="47.9836" lon="6.81702">
        <ele>887.8</ele>
        <time>2022-07-29T09:59:58Z</time>
      </trkpt>
      <trkpt lat="47.98358" lon="6.81701">
        <ele>888</ele>
        <time>2022-07-29T09:59:59Z</time>
      </trkpt>
      <trkpt lat="47.98357" lon="6.81701">
        <ele>888.2</ele>
        <time>2022-07-29T10:00:00Z</time>
      </trkpt>
      <trkpt lat="47.98355" lon="6.817">
        <ele>888.2</ele>
        <time>2022-07-29T10:00:01Z</time>
      </trkpt>
      <trkpt lat="47.98354" lon="6.817">
        <ele>888.4</ele>
        <time>2022-07-29T10:00:02Z</time>
      </trkpt>
      <trkpt lat="47.98353" lon="6.81698">
        <ele>888.4</ele>
        <time>2022-07-29T10:00:03Z</time>
      </trkpt>
      <trkpt lat="47.98352" lon="6.81697">
        <ele>888.6</ele>
        <time>2022-07-29T10:00:04Z</time>
      </trkpt>
      <trkpt lat="47.98351" lon="6.81694">
        <ele>888.6</ele>
        <time>2022-07-29T10:00:05Z</time>
      </trkpt>
      <trkpt lat="47.9835" lon="6.81692">
        <ele>888.8</ele>
        <time>2022-07-29T10:00:06Z</time>
      </trkpt>
      <trkpt lat="47.9835" lon="6.8169">
        <ele>889</ele>
        <time>2022-07-29T10:00:07Z</time>
      </trkpt>
      <trkpt lat="47.98349" lon="6.81688">
        <ele>889</ele>
        <time>2022-07-29T10:00:08Z</time>
      </trkpt>
      <trkpt lat="47.98348" lon="6.81687">
        <ele>889.2</ele>
        <time>2022-07-29T10:00:09Z</time>
      </trkpt>
      <trkpt lat="47.98347" lon="6.81685">
        <ele>889.4</ele>
        <time>2022-07-29T10:00:10Z</time>
      </trkpt>
      <trkpt lat="47.98346" lon="6.81684">
        <ele>889.6</ele>
        <time>2022-07-29T10:00:11Z</time>
      </trkpt>
      <trkpt lat="47.98345" lon="6.81682">
        <ele>889.6</ele>
        <time>2022-07-29T10:00:12Z</time>
      </trkpt>
      <trkpt lat="47.98344" lon="6.8168">
        <ele>889.8</ele>
        <time>2022-07-29T10:00:13Z</time>
      </trkpt>
      <trkpt lat="47.98342" lon="6.81679">
        <ele>890</ele>
        <time>2022-07-29T10:00:14Z</time>
      </trkpt>
      <trkpt lat="47.98341" lon="6.81677">
        <ele>890</ele>
        <time>2022-07-29T10:00:15Z</time>
      </trkpt>
      <trkpt lat="47.9834" lon="6.81676">
        <ele>890.4</ele>
        <time>2022-07-29T10:00:16Z</time>
      </trkpt>
      <trkpt lat="47.98339" lon="6.81674">
        <ele>890.4</ele>
        <time>2022-07-29T10:00:17Z</time>
      </trkpt>
      <trkpt lat="47.98338" lon="6.81672">
        <ele>890.6</ele>
        <time>2022-07-29T10:00:18Z</time>
      </trkpt>
      <trkpt lat="47.98336" lon="6.8167">
        <ele>890.6</ele>
        <time>2022-07-29T10:00:19Z</time>
      </trkpt>
      <trkpt lat="47.98336" lon="6.81668">
        <ele>890.8</ele>
        <time>2022-07-29T10:00:20Z</time>
      </trkpt>
      <trkpt lat="47.98334" lon="6.81666">
        <ele>891</ele>
        <time>2022-07-29T10:00:21Z</time>
      </trkpt>
      <trkpt lat="47.98333" lon="6.81664">
        <ele>891.2</ele>
        <time>2022-07-29T10:00:22Z</time>
      </trkpt>
      <trkpt lat="47.98332" lon="6.81663">
        <ele>891.4</ele>
        <time>2022-07-29T10:00:23Z</time>
      </trkpt>
      <trkpt lat="47.98332" lon="6.81661">
        <ele>891.6</ele>
        <time>2022-07-29T10:00:24Z</time>
      </trkpt>
      <trkpt lat="47.98331" lon="6.81659">
        <ele>891.8</ele>
        <time>2022-07-29T10:00:25Z</time>
      </trkpt>
      <trkpt lat="47.98329" lon="6.81657">
        <ele>892</ele>
        <time>2022-07-29T10:00:26Z</time>
      </trkpt>
      <trkpt lat="47.98328" lon="6.81655">
        <ele>892</ele>
        <time>2022-07-29T10:00:27Z</time>
      </trkpt>
      <trkpt lat="47.98327" lon="6.81654">
        <ele>892.2</ele>
        <time>2022-07-29T10:00:28Z</time>
      </trkpt>
      <trkpt lat="47.98326" lon="6.81652">
        <ele>892.4</ele>
        <time>2022-07-29T10:00:29Z</time>
      </trkpt>
      <trkpt lat="47.98325" lon="6.8165">
        <ele>892.4</ele>
        <time>2022-07-29T10:00:30Z</time>
      </trkpt>
      <trkpt lat="47.98324" lon="6.81648">
        <ele>892.6</ele>
        <time>2022-07-29T10:00:31Z</time>
      </trkpt>
      <trkpt lat="47.98323" lon="6.81646">
        <ele>892.8</ele>
        <time>2022-07-29T10:00:32Z</time>
      </trkpt>
      <trkpt lat="47.98322" lon="6.81644">
        <ele>892.8</ele>
        <time>2022-07-29T10:00:33Z</time>
      </trkpt>
      <trkpt lat="47.98322" lon="6.81642">
        <ele>893</ele>
        <time>2022-07-29T10:00:34Z</time>
      </trkpt>
      <trkpt lat="47.98321" lon="6.8164">
        <ele>893.2</ele>
        <time>2022-07-29T10:00:35Z</time>
      </trkpt>
      <trkpt lat="47.98319" lon="6.81639">
        <ele>893.4</ele>
        <time>2022-07-29T10:00:36Z</time>
      </trkpt>
      <trkpt lat="47.98318" lon="6.81637">
        <ele>893.4</ele>
        <time>2022-07-29T10:00:37Z</time>
      </trkpt>
      <trkpt lat="47.98317" lon="6.81635">
        <ele>893.6</ele>
        <time>2022-07-29T10:00:38Z</time>
      </trkpt>
      <trkpt lat="47.98316" lon="6.81633">
        <ele>893.6</ele>
        <time>2022-07-29T10:00:39Z</time>
      </trkpt>
      <trkpt lat="47.98314" lon="6.81631">
        <ele>893.8</ele>
        <time>2022-07-29T10:00:40Z</time>
      </trkpt>
      <trkpt lat="47.98313" lon="6.81629">
        <ele>894</ele>
        <time>2022-07-29T10:00:41Z</time>
      </trkpt>
      <trkpt lat="47.98311" lon="6.81627">
        <ele>894.2</ele>
        <time>2022-07-29T10:00:42Z</time>
      </trkpt>
      <trkpt lat="47.9831" lon="6.81625">
        <ele>894.4</ele>
        <time>2022-07-29T10:00:43Z</time>
      </trkpt>
      <trkpt lat="47.98309" lon="6.81622">
        <ele>894.4</ele>
        <time>2022-07-29T10:00:44Z</time>
      </trkpt>
      <trkpt lat="47.98309" lon="6.81619">
        <ele>894.6</ele>
        <time>2022-07-29T10:00:45Z</time>
      </trkpt>
      <trkpt lat="47.98309" lon="6.81617">
        <ele>894.8</ele>
        <time>2022-07-29T10:00:46Z</time>
      </trkpt>
      <trkpt lat="47.98308" lon="6.81615">
        <ele>895</ele>
        <time>2022-07-29T10:00:47Z</time>
      </trkpt>
      <trkpt lat="47.98308" lon="6.81613">
        <ele>895</ele>
        <time>2022-07-29T10:00:48Z</time>
      </trkpt>
      <trkpt lat="47.98307" lon="6.81609">
        <ele>895.2</ele>
        <time>2022-07-29T10:00:49Z</time>
      </trkpt>
      <trkpt lat="47.98306" lon="6.81607">
        <ele>895.2</ele>
        <time>2022-07-29T10:00:50Z</time>
      </trkpt>
      <trkpt lat="47.98305" lon="6.81604">
        <ele>895.2</ele>
        <time>2022-07-29T10:00:51Z</time>
      </trkpt>
      <trkpt lat="47.98304" lon="6.81602">
        <ele>895.4</ele>
        <time>2022-07-29T10:00:52Z</time>
      </trkpt>
      <trkpt lat="47.98303" lon="6.816">
        <ele>895.6</ele>
        <time>2022-07-29T10:00:53Z</time>
      </trkpt>
      <trkpt lat="47.98302" lon="6.81598">
        <ele>895.8</ele>
        <time>2022-07-29T10:00:54Z</time>
      </trkpt>
      <trkpt lat="47.98302" lon="6.81596">
        <ele>896</ele>
        <time>2022-07-29T10:00:55Z</time>
      </trkpt>
      <trkpt lat="47.98302" lon="6.81593">
        <ele>896.2</ele>
        <time>2022-07-29T10:00:56Z</time>
      </trkpt>
      <trkpt lat="47.98301" lon="6.8159">
        <ele>896.4</ele>
        <time>2022-07-29T10:00:57Z</time>
      </trkpt>
      <trkpt lat="47.98301" lon="6.81588">
        <ele>896.6</ele>
        <time>2022-07-29T10:00:58Z</time>
      </trkpt>
      <trkpt lat="47.983" lon="6.81585">
        <ele>896.8</ele>
        <time>2022-07-29T10:00:59Z</time>
      </trkpt>
      <trkpt lat="47.98299" lon="6.81582">
        <ele>896.8</ele>
        <time>2022-07-29T10:01:00Z</time>
      </trkpt>
      <trkpt lat="47.98298" lon="6.81579">
        <ele>897</ele>
        <time>2022-07-29T10:01:01Z</time>
      </trkpt>
      <trkpt lat="47.98297" lon="6.81576">
        <ele>897</ele>
        <time>2022-07-29T10:01:02Z</time>
      </trkpt>
      <trkpt lat="47.98296" lon="6.81572">
        <ele>897.2</ele>
        <time>2022-07-29T10:01:03Z</time>
      </trkpt>
      <trkpt lat="47.98294" lon="6.81569">
        <ele>897.2</ele>
        <time>2022-07-29T10:01:04Z</time>
      </trkpt>
      <trkpt lat="47.98293" lon="6.81566">
        <ele>897.4</ele>
        <time>2022-07-29T10:01:05Z</time>
      </trkpt>
      <trkpt lat="47.98292" lon="6.81563">
        <ele>897.4</ele>
        <time>2022-07-29T10:01:06Z</time>
      </trkpt>
      <trkpt lat="47.98289" lon="6.81559">
        <ele>897.6</ele>
        <time>2022-07-29T10:01:07Z</time>
      </trkpt>
      <trkpt lat="47.98288" lon="6.81556">
        <ele>897.6</ele>
        <time>2022-07-29T10:01:08Z</time>
      </trkpt>
      <trkpt lat="47.98287" lon="6.81554">
        <ele>897.8</ele>
        <time>2022-07-29T10:01:09Z</time>
      </trkpt>
      <trkpt lat="47.98285" lon="6.81551">
        <ele>897.8</ele>
        <time>2022-07-29T10:01:10Z</time>
      </trkpt>
      <trkpt lat="47.98284" lon="6.81547">
        <ele>898</ele>
        <time>2022-07-29T10:01:11Z</time>
      </trkpt>
      <trkpt lat="47.98283" lon="6.81545">
        <ele>898</ele>
        <time>2022-07-29T10:01:12Z</time>
      </trkpt>
      <trkpt lat="47.98281" lon="6.81542">
        <ele>898</ele>
        <time>2022-07-29T10:01:13Z</time>
      </trkpt>
      <trkpt lat="47.9828" lon="6.8154">
        <ele>898.2</ele>
        <time>2022-07-29T10:01:14Z</time>
      </trkpt>
      <trkpt lat="47.98279" lon="6.81538">
        <ele>898.2</ele>
        <time>2022-07-29T10:01:15Z</time>
      </trkpt>
      <trkpt lat="47.98278" lon="6.81536">
        <ele>898.4</ele>
        <time>2022-07-29T10:01:16Z</time>
      </trkpt>
      <trkpt lat="47.98277" lon="6.81535">
        <ele>898.4</ele>
        <time>2022-07-29T10:01:17Z</time>
      </trkpt>
      <trkpt lat="47.98277" lon="6.81533">
        <ele>898.4</ele>
        <time>2022-07-29T10:01:18Z</time>
      </trkpt>
      <trkpt lat="47.98275" lon="6.81531">
        <ele>898.4</ele>
        <time>2022-07-29T10:01:19Z</time>
      </trkpt>
      <trkpt lat="47.98275" lon="6.81529">
        <ele>898.4</ele>
        <time>2022-07-29T10:01:20Z</time>
      </trkpt>
      <trkpt lat="47.98274" lon="6.81527">
        <ele>898.6</ele>
        <time>2022-07-29T10:01:21Z</time>
      </trkpt>
      <trkpt lat="47.98273" lon="6.81524">
        <ele>898.4</ele>
        <time>2022-07-29T10:01:22Z</time>
      </trkpt>
      <trkpt lat="47.98272" lon="6.81521">
        <ele>898.6</ele>
        <time>2022-07-29T10:01:23Z</time>
      </trkpt>
      <trkpt lat="47.9827" lon="6.81518">
        <ele>898.4</ele>
        <time>2022-07-29T10:01:24Z</time>
      </trkpt>
      <trkpt lat="47.98267" lon="6.81511">
        <ele>898.4</ele>
        <time>2022-07-29T10:01:26Z</time>
      </trkpt>
      <trkpt lat="47.98263" lon="6.815">
        <ele>898.4</ele>
        <time>2022-07-29T10:01:29Z</time>
      </trkpt>
      <trkpt lat="47.98256" lon="6.81486">
        <ele>898.2</ele>
        <time>2022-07-29T10:01:33Z</time>
      </trkpt>
      <trkpt lat="47.98247" lon="6.81462">
        <ele>898.2</ele>
        <time>2022-07-29T10:01:40Z</time>
      </trkpt>
      <trkpt lat="47.98243" lon="6.81458">
        <ele>898.2</ele>
        <time>2022-07-29T10:01:42Z</time>
      </trkpt>
      <trkpt lat="47.98241" lon="6.81456">
        <ele>898.2</ele>
        <time>2022-07-29T10:01:43Z</time>
      </trkpt>
      <trkpt lat="47.98239" lon="6.81454">
        <ele>898.2</ele>
        <time>2022-07-29T10:01:44Z</time>
      </trkpt>
      <trkpt lat="47.98238" lon="6.81452">
        <ele>898.2</ele>
        <time>2022-07-29T10:01:45Z</time>
      </trkpt>
      <trkpt lat="47.98232" lon="6.81447">
        <ele>898.2</ele>
        <time>2022-07-29T10:01:47Z</time>
      </trkpt>
      <trkpt lat="47.98231" lon="6.81446">
        <ele>898.4</ele>
        <time>2022-07-29T10:01:48Z</time>
      </trkpt>
      <trkpt lat="47.9823" lon="6.81444">
        <ele>898.6</ele>
        <time>2022-07-29T10:01:49Z</time>
      </trkpt>
      <trkpt lat="47.98228" lon="6.81442">
        <ele>898.6</ele>
        <time>2022-07-29T10:01:50Z</time>
      </trkpt>
      <trkpt lat="47.98225" lon="6.81439">
        <ele>898.8</ele>
        <time>2022-07-29T10:01:51Z</time>
      </trkpt>
      <trkpt lat="47.98222" lon="6.81431">
        <ele>899</ele>
        <time>2022-07-29T10:01:54Z</time>
      </trkpt>
      <trkpt lat="47.98221" lon="6.81428">
        <ele>899.4</ele>
        <time>2022-07-29T10:01:55Z</time>
      </trkpt>
      <trkpt lat="47.98219" lon="6.81426">
        <ele>899.6</ele>
        <time>2022-07-29T10:01:56Z</time>
      </trkpt>
      <trkpt lat="47.98218" lon="6.81424">
        <ele>899.6</ele>
        <time>2022-07-29T10:01:57Z</time>
      </trkpt>
      <trkpt lat="47.98216" lon="6.81421">
        <ele>899.6</ele>
        <time>2022-07-29T10:01:58Z</time>
      </trkpt>
      <trkpt lat="47.98215" lon="6.81419">
        <ele>899.8</ele>
        <time>2022-07-29T10:01:59Z</time>
      </trkpt>
      <trkpt lat="47.98215" lon="6.81419">
        <ele>900</ele>
        <time>2022-07-29T10:02:00Z</time>
      </trkpt>
      <trkpt lat="47.98213" lon="6.81417">
        <ele>900.2</ele>
        <time>2022-07-29T10:02:02Z</time>
      </trkpt>
      <trkpt lat="47.98212" lon="6.81415">
        <ele>900.4</ele>
        <time>2022-07-29T10:02:03Z</time>
      </trkpt>
      <trkpt lat="47.98211" lon="6.81413">
        <ele>900.6</ele>
        <time>2022-07-29T10:02:04Z</time>
      </trkpt>
      <trkpt lat="47.98207" lon="6.81407">
        <ele>901</ele>
        <time>2022-07-29T10:02:07Z</time>
      </trkpt>
      <trkpt lat="47.98203" lon="6.81405">
        <ele>901</ele>
        <time>2022-07-29T10:02:08Z</time>
      </trkpt>
      <trkpt lat="47.98202" lon="6.81403">
        <ele>901.2</ele>
        <time>2022-07-29T10:02:09Z</time>
      </trkpt>
      <trkpt lat="47.98202" lon="6.81402">
        <ele>901.4</ele>
        <time>2022-07-29T10:02:10Z</time>
      </trkpt>
      <trkpt lat="47.98202" lon="6.81401">
        <ele>901.8</ele>
        <time>2022-07-29T10:02:11Z</time>
      </trkpt>
      <trkpt lat="47.982" lon="6.81399">
        <ele>902</ele>
        <time>2022-07-29T10:02:12Z</time>
      </trkpt>
      <trkpt lat="47.98197" lon="6.81396">
        <ele>902</ele>
        <time>2022-07-29T10:02:13Z</time>
      </trkpt>
      <trkpt lat="47.98195" lon="6.81393">
        <ele>902.2</ele>
        <time>2022-07-29T10:02:14Z</time>
      </trkpt>
      <trkpt lat="47.98194" lon="6.81391">
        <ele>902.4</ele>
        <time>2022-07-29T10:02:15Z</time>
      </trkpt>
      <trkpt lat="47.98192" lon="6.81389">
        <ele>902.4</ele>
        <time>2022-07-29T10:02:16Z</time>
      </trkpt>
      <trkpt lat="47.9819" lon="6.81387">
        <ele>902.6</ele>
        <time>2022-07-29T10:02:17Z</time>
      </trkpt>
      <trkpt lat="47.98189" lon="6.81386">
        <ele>902.6</ele>
        <time>2022-07-29T10:02:18Z</time>
      </trkpt>
      <trkpt lat="47.98187" lon="6.81385">
        <ele>902.8</ele>
        <time>2022-07-29T10:02:19Z</time>
      </trkpt>
      <trkpt lat="47.98186" lon="6.81383">
        <ele>902.8</ele>
        <time>2022-07-29T10:02:20Z</time>
      </trkpt>
      <trkpt lat="47.98183" lon="6.81381">
        <ele>902.8</ele>
        <time>2022-07-29T10:02:21Z</time>
      </trkpt>
      <trkpt lat="47.98182" lon="6.8138">
        <ele>903</ele>
        <time>2022-07-29T10:02:22Z</time>
      </trkpt>
      <trkpt lat="47.9818" lon="6.81378">
        <ele>903</ele>
        <time>2022-07-29T10:02:23Z</time>
      </trkpt>
      <trkpt lat="47.98178" lon="6.81376">
        <ele>903</ele>
        <time>2022-07-29T10:02:24Z</time>
      </trkpt>
      <trkpt lat="47.98175" lon="6.81374">
        <ele>903.2</ele>
        <time>2022-07-29T10:02:25Z</time>
      </trkpt>
      <trkpt lat="47.98173" lon="6.81372">
        <ele>903.2</ele>
        <time>2022-07-29T10:02:26Z</time>
      </trkpt>
      <trkpt lat="47.98172" lon="6.81371">
        <ele>903.4</ele>
        <time>2022-07-29T10:02:27Z</time>
      </trkpt>
      <trkpt lat="47.9817" lon="6.81368">
        <ele>903.4</ele>
        <time>2022-07-29T10:02:28Z</time>
      </trkpt>
      <trkpt lat="47.98169" lon="6.81367">
        <ele>903.6</ele>
        <time>2022-07-29T10:02:29Z</time>
      </trkpt>
      <trkpt lat="47.98168" lon="6.81365">
        <ele>903.6</ele>
        <time>2022-07-29T10:02:30Z</time>
      </trkpt>
      <trkpt lat="47.98167" lon="6.81364">
        <ele>903.8</ele>
        <time>2022-07-29T10:02:31Z</time>
      </trkpt>
      <trkpt lat="47.98165" lon="6.81362">
        <ele>903.8</ele>
        <time>2022-07-29T10:02:32Z</time>
      </trkpt>
      <trkpt lat="47.98164" lon="6.8136">
        <ele>904</ele>
        <time>2022-07-29T10:02:33Z</time>
      </trkpt>
      <trkpt lat="47.98163" lon="6.81359">
        <ele>904</ele>
        <time>2022-07-29T10:02:34Z</time>
      </trkpt>
      <trkpt lat="47.98161" lon="6.81358">
        <ele>904.2</ele>
        <time>2022-07-29T10:02:35Z</time>
      </trkpt>
      <trkpt lat="47.98159" lon="6.81356">
        <ele>904.4</ele>
        <time>2022-07-29T10:02:36Z</time>
      </trkpt>
      <trkpt lat="47.98158" lon="6.81356">
        <ele>904.4</ele>
        <time>2022-07-29T10:02:37Z</time>
      </trkpt>
      <trkpt lat="47.98157" lon="6.81354">
        <ele>904.8</ele>
        <time>2022-07-29T10:02:38Z</time>
      </trkpt>
      <trkpt lat="47.98156" lon="6.81352">
        <ele>905</ele>
        <time>2022-07-29T10:02:39Z</time>
      </trkpt>
      <trkpt lat="47.98155" lon="6.81349">
        <ele>905.4</ele>
        <time>2022-07-29T10:02:40Z</time>
      </trkpt>
      <trkpt lat="47.98153" lon="6.81347">
        <ele>905.4</ele>
        <time>2022-07-29T10:02:41Z</time>
      </trkpt>
      <trkpt lat="47.98152" lon="6.81344">
        <ele>905.6</ele>
        <time>2022-07-29T10:02:42Z</time>
      </trkpt>
      <trkpt lat="47.98151" lon="6.81341">
        <ele>906</ele>
        <time>2022-07-29T10:02:43Z</time>
      </trkpt>
      <trkpt lat="47.98151" lon="6.81338">
        <ele>906.2</ele>
        <time>2022-07-29T10:02:44Z</time>
      </trkpt>
      <trkpt lat="47.9815" lon="6.81336">
        <ele>906.4</ele>
        <time>2022-07-29T10:02:45Z</time>
      </trkpt>
      <trkpt lat="47.9815" lon="6.81334">
        <ele>906.4</ele>
        <time>2022-07-29T10:02:46Z</time>
      </trkpt>
      <trkpt lat="47.98148" lon="6.81331">
        <ele>906.4</ele>
        <time>2022-07-29T10:02:47Z</time>
      </trkpt>
      <trkpt lat="47.98146" lon="6.81326">
        <ele>906.6</ele>
        <time>2022-07-29T10:02:48Z</time>
      </trkpt>
      <trkpt lat="47.98145" lon="6.81322">
        <ele>906.6</ele>
        <time>2022-07-29T10:02:49Z</time>
      </trkpt>
      <trkpt lat="47.98143" lon="6.81318">
        <ele>906.6</ele>
        <time>2022-07-29T10:02:50Z</time>
      </trkpt>
      <trkpt lat="47.9814" lon="6.81314">
        <ele>906.8</ele>
        <time>2022-07-29T10:02:51Z</time>
      </trkpt>
      <trkpt lat="47.98138" lon="6.81311">
        <ele>906.8</ele>
        <time>2022-07-29T10:02:52Z</time>
      </trkpt>
      <trkpt lat="47.98135" lon="6.8131">
        <ele>906.8</ele>
        <time>2022-07-29T10:02:53Z</time>
      </trkpt>
      <trkpt lat="47.98135" lon="6.81308">
        <ele>907</ele>
        <time>2022-07-29T10:02:54Z</time>
      </trkpt>
      <trkpt lat="47.98133" lon="6.81305">
        <ele>907</ele>
        <time>2022-07-29T10:02:55Z</time>
      </trkpt>
      <trkpt lat="47.98132" lon="6.81301">
        <ele>907</ele>
        <time>2022-07-29T10:02:56Z</time>
      </trkpt>
      <trkpt lat="47.9813" lon="6.81298">
        <ele>907</ele>
        <time>2022-07-29T10:02:57Z</time>
      </trkpt>
      <trkpt lat="47.98128" lon="6.81295">
        <ele>907.2</ele>
        <time>2022-07-29T10:02:58Z</time>
      </trkpt>
      <trkpt lat="47.98126" lon="6.81292">
        <ele>907.2</ele>
        <time>2022-07-29T10:02:59Z</time>
      </trkpt>
      <trkpt lat="47.98124" lon="6.81289">
        <ele>907.4</ele>
        <time>2022-07-29T10:03:00Z</time>
      </trkpt>
      <trkpt lat="47.98123" lon="6.81287">
        <ele>907.4</ele>
        <time>2022-07-29T10:03:01Z</time>
      </trkpt>
      <trkpt lat="47.98119" lon="6.81285">
        <ele>907.4</ele>
        <time>2022-07-29T10:03:02Z</time>
      </trkpt>
      <trkpt lat="47.98117" lon="6.81282">
        <ele>907.2</ele>
        <time>2022-07-29T10:03:03Z</time>
      </trkpt>
      <trkpt lat="47.98117" lon="6.8128">
        <ele>907.4</ele>
        <time>2022-07-29T10:03:04Z</time>
      </trkpt>
      <trkpt lat="47.98116" lon="6.81277">
        <ele>907.6</ele>
        <time>2022-07-29T10:03:05Z</time>
      </trkpt>
      <trkpt lat="47.98116" lon="6.81276">
        <ele>907.6</ele>
        <time>2022-07-29T10:03:06Z</time>
      </trkpt>
      <trkpt lat="47.98115" lon="6.81274">
        <ele>907.8</ele>
        <time>2022-07-29T10:03:07Z</time>
      </trkpt>
      <trkpt lat="47.98112" lon="6.81267">
        <ele>908</ele>
        <time>2022-07-29T10:03:09Z</time>
      </trkpt>
      <trkpt lat="47.9811" lon="6.81263">
        <ele>908</ele>
        <time>2022-07-29T10:03:10Z</time>
      </trkpt>
      <trkpt lat="47.9811" lon="6.8125">
        <ele>908.6</ele>
        <time>2022-07-29T10:03:13Z</time>
      </trkpt>
      <trkpt lat="47.98109" lon="6.81248">
        <ele>908.8</ele>
        <time>2022-07-29T10:03:14Z</time>
      </trkpt>
      <trkpt lat="47.98105" lon="6.81241">
        <ele>909.2</ele>
        <time>2022-07-29T10:03:16Z</time>
      </trkpt>
      <trkpt lat="47.98104" lon="6.81237">
        <ele>909.2</ele>
        <time>2022-07-29T10:03:17Z</time>
      </trkpt>
      <trkpt lat="47.98104" lon="6.81234">
        <ele>909.4</ele>
        <time>2022-07-29T10:03:18Z</time>
      </trkpt>
      <trkpt lat="47.98103" lon="6.81231">
        <ele>909.6</ele>
        <time>2022-07-29T10:03:19Z</time>
      </trkpt>
      <trkpt lat="47.98102" lon="6.81228">
        <ele>909.6</ele>
        <time>2022-07-29T10:03:20Z</time>
      </trkpt>
      <trkpt lat="47.98102" lon="6.81225">
        <ele>909.8</ele>
        <time>2022-07-29T10:03:21Z</time>
      </trkpt>
      <trkpt lat="47.98101" lon="6.81222">
        <ele>910</ele>
        <time>2022-07-29T10:03:22Z</time>
      </trkpt>
      <trkpt lat="47.981" lon="6.81219">
        <ele>910.2</ele>
        <time>2022-07-29T10:03:23Z</time>
      </trkpt>
      <trkpt lat="47.981" lon="6.81215">
        <ele>910.2</ele>
        <time>2022-07-29T10:03:24Z</time>
      </trkpt>
      <trkpt lat="47.981" lon="6.81212">
        <ele>910.4</ele>
        <time>2022-07-29T10:03:25Z</time>
      </trkpt>
      <trkpt lat="47.98101" lon="6.8121">
        <ele>910.6</ele>
        <time>2022-07-29T10:03:26Z</time>
      </trkpt>
      <trkpt lat="47.98101" lon="6.81206">
        <ele>910.6</ele>
        <time>2022-07-29T10:03:27Z</time>
      </trkpt>
      <trkpt lat="47.98102" lon="6.81203">
        <ele>910.6</ele>
        <time>2022-07-29T10:03:28Z</time>
      </trkpt>
      <trkpt lat="47.98103" lon="6.812">
        <ele>910.6</ele>
        <time>2022-07-29T10:03:29Z</time>
      </trkpt>
      <trkpt lat="47.98103" lon="6.81197">
        <ele>910.6</ele>
        <time>2022-07-29T10:03:30Z</time>
      </trkpt>
      <trkpt lat="47.98103" lon="6.81193">
        <ele>910.6</ele>
        <time>2022-07-29T10:03:31Z</time>
      </trkpt>
      <trkpt lat="47.98103" lon="6.81188">
        <ele>910.4</ele>
        <time>2022-07-29T10:03:32Z</time>
      </trkpt>
      <trkpt lat="47.98102" lon="6.81182">
        <ele>910.4</ele>
        <time>2022-07-29T10:03:33Z</time>
      </trkpt>
      <trkpt lat="47.98101" lon="6.81175">
        <ele>909.8</ele>
        <time>2022-07-29T10:03:34Z</time>
      </trkpt>
      <trkpt lat="47.98099" lon="6.81167">
        <ele>909.6</ele>
        <time>2022-07-29T10:03:35Z</time>
      </trkpt>
      <trkpt lat="47.98099" lon="6.8116">
        <ele>909.4</ele>
        <time>2022-07-29T10:03:36Z</time>
      </trkpt>
      <trkpt lat="47.98096" lon="6.81154">
        <ele>909</ele>
        <time>2022-07-29T10:03:37Z</time>
      </trkpt>
      <trkpt lat="47.98094" lon="6.81148">
        <ele>908.8</ele>
        <time>2022-07-29T10:03:38Z</time>
      </trkpt>
      <trkpt lat="47.98092" lon="6.81142">
        <ele>908.4</ele>
        <time>2022-07-29T10:03:39Z</time>
      </trkpt>
      <trkpt lat="47.98091" lon="6.81137">
        <ele>908.2</ele>
        <time>2022-07-29T10:03:40Z</time>
      </trkpt>
      <trkpt lat="47.98088" lon="6.81131">
        <ele>907.8</ele>
        <time>2022-07-29T10:03:41Z</time>
      </trkpt>
      <trkpt lat="47.98086" lon="6.81125">
        <ele>907.4</ele>
        <time>2022-07-29T10:03:42Z</time>
      </trkpt>
      <trkpt lat="47.98086" lon="6.81121">
        <ele>906.8</ele>
        <time>2022-07-29T10:03:43Z</time>
      </trkpt>
      <trkpt lat="47.98085" lon="6.81117">
        <ele>906.8</ele>
        <time>2022-07-29T10:03:44Z</time>
      </trkpt>
      <trkpt lat="47.98085" lon="6.81115">
        <ele>906.4</ele>
        <time>2022-07-29T10:03:45Z</time>
      </trkpt>
      <trkpt lat="47.98085" lon="6.81113">
        <ele>906.2</ele>
        <time>2022-07-29T10:03:46Z</time>
      </trkpt>
      <trkpt lat="47.98084" lon="6.81111">
        <ele>906</ele>
        <time>2022-07-29T10:03:47Z</time>
      </trkpt>
      <trkpt lat="47.98082" lon="6.81108">
        <ele>905.8</ele>
        <time>2022-07-29T10:03:48Z</time>
      </trkpt>
      <trkpt lat="47.98081" lon="6.81107">
        <ele>905.8</ele>
        <time>2022-07-29T10:03:49Z</time>
      </trkpt>
      <trkpt lat="47.98081" lon="6.81106">
        <ele>905.6</ele>
        <time>2022-07-29T10:03:50Z</time>
      </trkpt>
      <trkpt lat="47.98081" lon="6.81106">
        <ele>905.6</ele>
        <time>2022-07-29T10:03:51Z</time>
      </trkpt>
      <trkpt lat="47.98081" lon="6.81106">
        <ele>905.4</ele>
        <time>2022-07-29T10:03:53Z</time>
      </trkpt>
      <trkpt lat="47.98082" lon="6.81104">
        <ele>904.8</ele>
        <time>2022-07-29T10:04:09Z</time>
      </trkpt>
      <trkpt lat="47.98082" lon="6.81097">
        <ele>904.8</ele>
        <time>2022-07-29T10:04:12Z</time>
      </trkpt>
      <trkpt lat="47.98083" lon="6.81093">
        <ele>904.8</ele>
        <time>2022-07-29T10:04:13Z</time>
      </trkpt>
      <trkpt lat="47.98085" lon="6.81089">
        <ele>904.6</ele>
        <time>2022-07-29T10:04:14Z</time>
      </trkpt>
      <trkpt lat="47.98088" lon="6.81085">
        <ele>904.6</ele>
        <time>2022-07-29T10:04:15Z</time>
      </trkpt>
      <trkpt lat="47.98089" lon="6.81081">
        <ele>904.6</ele>
        <time>2022-07-29T10:04:16Z</time>
      </trkpt>
      <trkpt lat="47.98092" lon="6.81073">
        <ele>904.4</ele>
        <time>2022-07-29T10:04:17Z</time>
      </trkpt>
      <trkpt lat="47.98097" lon="6.81057">
        <ele>904</ele>
        <time>2022-07-29T10:04:19Z</time>
      </trkpt>
      <trkpt lat="47.98099" lon="6.81048">
        <ele>903.8</ele>
        <time>2022-07-29T10:04:20Z</time>
      </trkpt>
      <trkpt lat="47.98101" lon="6.81026">
        <ele>902.2</ele>
        <time>2022-07-29T10:04:22Z</time>
      </trkpt>
      <trkpt lat="47.98103" lon="6.81006">
        <ele>901.2</ele>
        <time>2022-07-29T10:04:24Z</time>
      </trkpt>
      <trkpt lat="47.98103" lon="6.80996">
        <ele>900.8</ele>
        <time>2022-07-29T10:04:25Z</time>
      </trkpt>
      <trkpt lat="47.98104" lon="6.80987">
        <ele>900.2</ele>
        <time>2022-07-29T10:04:26Z</time>
      </trkpt>
      <trkpt lat="47.98104" lon="6.80982">
        <ele>900</ele>
        <time>2022-07-29T10:04:27Z</time>
      </trkpt>
      <trkpt lat="47.98105" lon="6.80976">
        <ele>898.8</ele>
        <time>2022-07-29T10:04:28Z</time>
      </trkpt>
      <trkpt lat="47.98105" lon="6.8097">
        <ele>898.2</ele>
        <time>2022-07-29T10:04:29Z</time>
      </trkpt>
      <trkpt lat="47.98106" lon="6.80962">
        <ele>897</ele>
        <time>2022-07-29T10:04:30Z</time>
      </trkpt>
      <trkpt lat="47.98108" lon="6.80937">
        <ele>896</ele>
        <time>2022-07-29T10:04:33Z</time>
      </trkpt>
      <trkpt lat="47.98111" lon="6.80905">
        <ele>894.8</ele>
        <time>2022-07-29T10:04:36Z</time>
      </trkpt>
      <trkpt lat="47.98111" lon="6.80887">
        <ele>893.6</ele>
        <time>2022-07-29T10:04:38Z</time>
      </trkpt>
      <trkpt lat="47.98114" lon="6.80855">
        <ele>892.6</ele>
        <time>2022-07-29T10:04:41Z</time>
      </trkpt>
      <trkpt lat="47.98115" lon="6.80832">
        <ele>891.6</ele>
        <time>2022-07-29T10:04:43Z</time>
      </trkpt>
      <trkpt lat="47.98114" lon="6.8082">
        <ele>891</ele>
        <time>2022-07-29T10:04:44Z</time>
      </trkpt>
      <trkpt lat="47.98111" lon="6.80785">
        <ele>890.2</ele>
        <time>2022-07-29T10:04:47Z</time>
      </trkpt>
      <trkpt lat="47.9811" lon="6.80777">
        <ele>889.2</ele>
        <time>2022-07-29T10:04:48Z</time>
      </trkpt>
      <trkpt lat="47.98109" lon="6.80766">
        <ele>887.6</ele>
        <time>2022-07-29T10:04:49Z</time>
      </trkpt>
      <trkpt lat="47.98109" lon="6.80755">
        <ele>887</ele>
        <time>2022-07-29T10:04:50Z</time>
      </trkpt>
      <trkpt lat="47.98109" lon="6.80745">
        <ele>886.4</ele>
        <time>2022-07-29T10:04:51Z</time>
      </trkpt>
      <trkpt lat="47.9811" lon="6.80734">
        <ele>886.2</ele>
        <time>2022-07-29T10:04:52Z</time>
      </trkpt>
      <trkpt lat="47.98109" lon="6.80722">
        <ele>885.4</ele>
        <time>2022-07-29T10:04:53Z</time>
      </trkpt>
      <trkpt lat="47.98108" lon="6.80711">
        <ele>885</ele>
        <time>2022-07-29T10:04:54Z</time>
      </trkpt>
      <trkpt lat="47.98108" lon="6.8069">
        <ele>884.4</ele>
        <time>2022-07-29T10:04:56Z</time>
      </trkpt>
      <trkpt lat="47.98109" lon="6.80679">
        <ele>884</ele>
        <time>2022-07-29T10:04:57Z</time>
      </trkpt>
      <trkpt lat="47.9811" lon="6.80671">
        <ele>883.8</ele>
        <time>2022-07-29T10:04:58Z</time>
      </trkpt>
      <trkpt lat="47.9811" lon="6.80659">
        <ele>883.8</ele>
        <time>2022-07-29T10:04:59Z</time>
      </trkpt>
      <trkpt lat="47.98111" lon="6.80649">
        <ele>883.6</ele>
        <time>2022-07-29T10:05:00Z</time>
      </trkpt>
      <trkpt lat="47.98111" lon="6.80629">
        <ele>883.2</ele>
        <time>2022-07-29T10:05:02Z</time>
      </trkpt>
      <trkpt lat="47.98112" lon="6.80619">
        <ele>883.2</ele>
        <time>2022-07-29T10:05:03Z</time>
      </trkpt>
      <trkpt lat="47.98113" lon="6.80609">
        <ele>882.6</ele>
        <time>2022-07-29T10:05:04Z</time>
      </trkpt>
      <trkpt lat="47.98115" lon="6.80598">
        <ele>882.4</ele>
        <time>2022-07-29T10:05:05Z</time>
      </trkpt>
      <trkpt lat="47.98117" lon="6.80578">
        <ele>881.6</ele>
        <time>2022-07-29T10:05:07Z</time>
      </trkpt>
      <trkpt lat="47.98118" lon="6.8057">
        <ele>881.2</ele>
        <time>2022-07-29T10:05:08Z</time>
      </trkpt>
      <trkpt lat="47.9812" lon="6.8054">
        <ele>880.8</ele>
        <time>2022-07-29T10:05:11Z</time>
      </trkpt>
      <trkpt lat="47.9812" lon="6.80531">
        <ele>880.6</ele>
        <time>2022-07-29T10:05:12Z</time>
      </trkpt>
      <trkpt lat="47.98118" lon="6.8052">
        <ele>880.2</ele>
        <time>2022-07-29T10:05:13Z</time>
      </trkpt>
      <trkpt lat="47.98117" lon="6.80508">
        <ele>880</ele>
        <time>2022-07-29T10:05:14Z</time>
      </trkpt>
      <trkpt lat="47.98114" lon="6.80482">
        <ele>879.4</ele>
        <time>2022-07-29T10:05:16Z</time>
      </trkpt>
      <trkpt lat="47.98115" lon="6.80471">
        <ele>879.2</ele>
        <time>2022-07-29T10:05:17Z</time>
      </trkpt>
      <trkpt lat="47.98114" lon="6.80461">
        <ele>878</ele>
        <time>2022-07-29T10:05:18Z</time>
      </trkpt>
      <trkpt lat="47.98116" lon="6.80439">
        <ele>877.2</ele>
        <time>2022-07-29T10:05:20Z</time>
      </trkpt>
      <trkpt lat="47.98118" lon="6.80429">
        <ele>877</ele>
        <time>2022-07-29T10:05:21Z</time>
      </trkpt>
      <trkpt lat="47.98122" lon="6.80411">
        <ele>875.6</ele>
        <time>2022-07-29T10:05:23Z</time>
      </trkpt>
      <trkpt lat="47.98123" lon="6.80399">
        <ele>875</ele>
        <time>2022-07-29T10:05:24Z</time>
      </trkpt>
      <trkpt lat="47.98123" lon="6.80389">
        <ele>874.4</ele>
        <time>2022-07-29T10:05:25Z</time>
      </trkpt>
      <trkpt lat="47.98122" lon="6.80378">
        <ele>874.2</ele>
        <time>2022-07-29T10:05:26Z</time>
      </trkpt>
      <trkpt lat="47.98122" lon="6.8037">
        <ele>874</ele>
        <time>2022-07-29T10:05:27Z</time>
      </trkpt>
      <trkpt lat="47.98121" lon="6.8036">
        <ele>874</ele>
        <time>2022-07-29T10:05:28Z</time>
      </trkpt>
      <trkpt lat="47.9812" lon="6.80351">
        <ele>873</ele>
        <time>2022-07-29T10:05:29Z</time>
      </trkpt>
      <trkpt lat="47.9812" lon="6.80341">
        <ele>872.8</ele>
        <time>2022-07-29T10:05:30Z</time>
      </trkpt>
      <trkpt lat="47.98121" lon="6.80332">
        <ele>872.4</ele>
        <time>2022-07-29T10:05:31Z</time>
      </trkpt>
      <trkpt lat="47.98122" lon="6.80321">
        <ele>872</ele>
        <time>2022-07-29T10:05:32Z</time>
      </trkpt>
      <trkpt lat="47.98123" lon="6.80312">
        <ele>871.6</ele>
        <time>2022-07-29T10:05:33Z</time>
      </trkpt>
      <trkpt lat="47.98123" lon="6.80305">
        <ele>871</ele>
        <time>2022-07-29T10:05:34Z</time>
      </trkpt>
      <trkpt lat="47.98124" lon="6.80296">
        <ele>870.6</ele>
        <time>2022-07-29T10:05:35Z</time>
      </trkpt>
      <trkpt lat="47.98124" lon="6.80285">
        <ele>869.8</ele>
        <time>2022-07-29T10:05:36Z</time>
      </trkpt>
      <trkpt lat="47.98125" lon="6.80278">
        <ele>869.4</ele>
        <time>2022-07-29T10:05:37Z</time>
      </trkpt>
      <trkpt lat="47.98126" lon="6.80268">
        <ele>868.8</ele>
        <time>2022-07-29T10:05:38Z</time>
      </trkpt>
      <trkpt lat="47.98126" lon="6.80258">
        <ele>868.6</ele>
        <time>2022-07-29T10:05:39Z</time>
      </trkpt>
      <trkpt lat="47.98126" lon="6.80249">
        <ele>868.4</ele>
        <time>2022-07-29T10:05:40Z</time>
      </trkpt>
      <trkpt lat="47.98126" lon="6.80239">
        <ele>868.2</ele>
        <time>2022-07-29T10:05:41Z</time>
      </trkpt>
      <trkpt lat="47.98126" lon="6.8023">
        <ele>868.2</ele>
        <time>2022-07-29T10:05:42Z</time>
      </trkpt>
      <trkpt lat="47.98126" lon="6.80221">
        <ele>867.8</ele>
        <time>2022-07-29T10:05:43Z</time>
      </trkpt>
      <trkpt lat="47.98125" lon="6.80212">
        <ele>867.8</ele>
        <time>2022-07-29T10:05:44Z</time>
      </trkpt>
      <trkpt lat="47.98125" lon="6.80203">
        <ele>867.4</ele>
        <time>2022-07-29T10:05:45Z</time>
      </trkpt>
      <trkpt lat="47.98123" lon="6.80181">
        <ele>867</ele>
        <time>2022-07-29T10:05:47Z</time>
      </trkpt>
      <trkpt lat="47.98122" lon="6.80159">
        <ele>866</ele>
        <time>2022-07-29T10:05:49Z</time>
      </trkpt>
      <trkpt lat="47.98123" lon="6.8015">
        <ele>865</ele>
        <time>2022-07-29T10:05:50Z</time>
      </trkpt>
      <trkpt lat="47.98125" lon="6.80141">
        <ele>864.8</ele>
        <time>2022-07-29T10:05:51Z</time>
      </trkpt>
      <trkpt lat="47.98137" lon="6.80093">
        <ele>863.4</ele>
        <time>2022-07-29T10:05:56Z</time>
      </trkpt>
      <trkpt lat="47.98139" lon="6.80085">
        <ele>863.2</ele>
        <time>2022-07-29T10:05:57Z</time>
      </trkpt>
      <trkpt lat="47.98142" lon="6.80077">
        <ele>863</ele>
        <time>2022-07-29T10:05:58Z</time>
      </trkpt>
      <trkpt lat="47.98143" lon="6.80068">
        <ele>862.8</ele>
        <time>2022-07-29T10:05:59Z</time>
      </trkpt>
      <trkpt lat="47.98147" lon="6.80042">
        <ele>862.6</ele>
        <time>2022-07-29T10:06:02Z</time>
      </trkpt>
      <trkpt lat="47.98149" lon="6.80034">
        <ele>862.4</ele>
        <time>2022-07-29T10:06:03Z</time>
      </trkpt>
      <trkpt lat="47.98152" lon="6.80029">
        <ele>862.2</ele>
        <time>2022-07-29T10:06:04Z</time>
      </trkpt>
      <trkpt lat="47.98154" lon="6.80021">
        <ele>861.8</ele>
        <time>2022-07-29T10:06:05Z</time>
      </trkpt>
      <trkpt lat="47.98156" lon="6.80016">
        <ele>861.8</ele>
        <time>2022-07-29T10:06:06Z</time>
      </trkpt>
      <trkpt lat="47.98158" lon="6.80007">
        <ele>861.4</ele>
        <time>2022-07-29T10:06:07Z</time>
      </trkpt>
      <trkpt lat="47.98163" lon="6.79986">
        <ele>860.8</ele>
        <time>2022-07-29T10:06:10Z</time>
      </trkpt>
      <trkpt lat="47.98165" lon="6.79979">
        <ele>860.6</ele>
        <time>2022-07-29T10:06:11Z</time>
      </trkpt>
      <trkpt lat="47.98166" lon="6.79974">
        <ele>860.6</ele>
        <time>2022-07-29T10:06:12Z</time>
      </trkpt>
      <trkpt lat="47.98168" lon="6.7997">
        <ele>860.6</ele>
        <time>2022-07-29T10:06:13Z</time>
      </trkpt>
      <trkpt lat="47.98169" lon="6.79964">
        <ele>860.6</ele>
        <time>2022-07-29T10:06:14Z</time>
      </trkpt>
      <trkpt lat="47.98172" lon="6.79956">
        <ele>860.6</ele>
        <time>2022-07-29T10:06:16Z</time>
      </trkpt>
      <trkpt lat="47.98173" lon="6.79953">
        <ele>860.8</ele>
        <time>2022-07-29T10:06:17Z</time>
      </trkpt>
      <trkpt lat="47.98175" lon="6.79949">
        <ele>861</ele>
        <time>2022-07-29T10:06:18Z</time>
      </trkpt>
      <trkpt lat="47.98176" lon="6.79946">
        <ele>861.4</ele>
        <time>2022-07-29T10:06:19Z</time>
      </trkpt>
      <trkpt lat="47.98177" lon="6.79942">
        <ele>861.4</ele>
        <time>2022-07-29T10:06:20Z</time>
      </trkpt>
      <trkpt lat="47.98185" lon="6.79923">
        <ele>862.6</ele>
        <time>2022-07-29T10:06:25Z</time>
      </trkpt>
      <trkpt lat="47.98186" lon="6.7992">
        <ele>862.8</ele>
        <time>2022-07-29T10:06:26Z</time>
      </trkpt>
      <trkpt lat="47.98187" lon="6.79917">
        <ele>862.8</ele>
        <time>2022-07-29T10:06:27Z</time>
      </trkpt>
      <trkpt lat="47.98188" lon="6.79914">
        <ele>863</ele>
        <time>2022-07-29T10:06:28Z</time>
      </trkpt>
      <trkpt lat="47.982" lon="6.79891">
        <ele>863.6</ele>
        <time>2022-07-29T10:06:34Z</time>
      </trkpt>
      <trkpt lat="47.98201" lon="6.79889">
        <ele>863.6</ele>
        <time>2022-07-29T10:06:35Z</time>
      </trkpt>
      <trkpt lat="47.98203" lon="6.79886">
        <ele>863.6</ele>
        <time>2022-07-29T10:06:36Z</time>
      </trkpt>
      <trkpt lat="47.98206" lon="6.79883">
        <ele>863.6</ele>
        <time>2022-07-29T10:06:37Z</time>
      </trkpt>
      <trkpt lat="47.98211" lon="6.79875">
        <ele>863.6</ele>
        <time>2022-07-29T10:06:40Z</time>
      </trkpt>
      <trkpt lat="47.98212" lon="6.79873">
        <ele>863.6</ele>
        <time>2022-07-29T10:06:41Z</time>
      </trkpt>
      <trkpt lat="47.98213" lon="6.79871">
        <ele>863.6</ele>
        <time>2022-07-29T10:06:42Z</time>
      </trkpt>
      <trkpt lat="47.98213" lon="6.7987">
        <ele>863.6</ele>
        <time>2022-07-29T10:06:43Z</time>
      </trkpt>
      <trkpt lat="47.98214" lon="6.79868">
        <ele>864</ele>
        <time>2022-07-29T10:06:44Z</time>
      </trkpt>
      <trkpt lat="47.98215" lon="6.79866">
        <ele>864</ele>
        <time>2022-07-29T10:06:45Z</time>
      </trkpt>
      <trkpt lat="47.98217" lon="6.79859">
        <ele>864.4</ele>
        <time>2022-07-29T10:06:48Z</time>
      </trkpt>
      <trkpt lat="47.98217" lon="6.79857">
        <ele>864.6</ele>
        <time>2022-07-29T10:06:49Z</time>
      </trkpt>
      <trkpt lat="47.98217" lon="6.79853">
        <ele>864.8</ele>
        <time>2022-07-29T10:06:50Z</time>
      </trkpt>
      <trkpt lat="47.98217" lon="6.7985">
        <ele>864.8</ele>
        <time>2022-07-29T10:06:51Z</time>
      </trkpt>
      <trkpt lat="47.98215" lon="6.79833">
        <ele>864.8</ele>
        <time>2022-07-29T10:06:55Z</time>
      </trkpt>
      <trkpt lat="47.9821" lon="6.79806">
        <ele>864.4</ele>
        <time>2022-07-29T10:07:00Z</time>
      </trkpt>
      <trkpt lat="47.98209" lon="6.79801">
        <ele>864.4</ele>
        <time>2022-07-29T10:07:01Z</time>
      </trkpt>
      <trkpt lat="47.98209" lon="6.79796">
        <ele>864.2</ele>
        <time>2022-07-29T10:07:02Z</time>
      </trkpt>
      <trkpt lat="47.98208" lon="6.79791">
        <ele>864.2</ele>
        <time>2022-07-29T10:07:03Z</time>
      </trkpt>
      <trkpt lat="47.98207" lon="6.79786">
        <ele>864.2</ele>
        <time>2022-07-29T10:07:04Z</time>
      </trkpt>
      <trkpt lat="47.98205" lon="6.79771">
        <ele>864.2</ele>
        <time>2022-07-29T10:07:07Z</time>
      </trkpt>
      <trkpt lat="47.98204" lon="6.79755">
        <ele>864.4</ele>
        <time>2022-07-29T10:07:10Z</time>
      </trkpt>
      <trkpt lat="47.98202" lon="6.79711">
        <ele>864.8</ele>
        <time>2022-07-29T10:07:18Z</time>
      </trkpt>
      <trkpt lat="47.98202" lon="6.79696">
        <ele>865.6</ele>
        <time>2022-07-29T10:07:21Z</time>
      </trkpt>
      <trkpt lat="47.98202" lon="6.79691">
        <ele>865.8</ele>
        <time>2022-07-29T10:07:22Z</time>
      </trkpt>
      <trkpt lat="47.98202" lon="6.79686">
        <ele>866</ele>
        <time>2022-07-29T10:07:23Z</time>
      </trkpt>
      <trkpt lat="47.98203" lon="6.79682">
        <ele>866</ele>
        <time>2022-07-29T10:07:24Z</time>
      </trkpt>
      <trkpt lat="47.98203" lon="6.79677">
        <ele>866.2</ele>
        <time>2022-07-29T10:07:25Z</time>
      </trkpt>
      <trkpt lat="47.98204" lon="6.79672">
        <ele>866.2</ele>
        <time>2022-07-29T10:07:26Z</time>
      </trkpt>
      <trkpt lat="47.98204" lon="6.79668">
        <ele>866.4</ele>
        <time>2022-07-29T10:07:27Z</time>
      </trkpt>
      <trkpt lat="47.98205" lon="6.79663">
        <ele>866.4</ele>
        <time>2022-07-29T10:07:28Z</time>
      </trkpt>
      <trkpt lat="47.98207" lon="6.79655">
        <ele>866.6</ele>
        <time>2022-07-29T10:07:30Z</time>
      </trkpt>
      <trkpt lat="47.98208" lon="6.7965">
        <ele>866.8</ele>
        <time>2022-07-29T10:07:31Z</time>
      </trkpt>
      <trkpt lat="47.9821" lon="6.79646">
        <ele>866.8</ele>
        <time>2022-07-29T10:07:32Z</time>
      </trkpt>
      <trkpt lat="47.98211" lon="6.79641">
        <ele>867</ele>
        <time>2022-07-29T10:07:33Z</time>
      </trkpt>
      <trkpt lat="47.98212" lon="6.79637">
        <ele>867.2</ele>
        <time>2022-07-29T10:07:34Z</time>
      </trkpt>
      <trkpt lat="47.98213" lon="6.79632">
        <ele>867.2</ele>
        <time>2022-07-29T10:07:35Z</time>
      </trkpt>
      <trkpt lat="47.9822" lon="6.79601">
        <ele>867.8</ele>
        <time>2022-07-29T10:07:42Z</time>
      </trkpt>
      <trkpt lat="47.98222" lon="6.79592">
        <ele>867.8</ele>
        <time>2022-07-29T10:07:44Z</time>
      </trkpt>
      <trkpt lat="47.98226" lon="6.7957">
        <ele>868.6</ele>
        <time>2022-07-29T10:07:49Z</time>
      </trkpt>
      <trkpt lat="47.98228" lon="6.79561">
        <ele>868.8</ele>
        <time>2022-07-29T10:07:51Z</time>
      </trkpt>
      <trkpt lat="47.98229" lon="6.79557">
        <ele>869</ele>
        <time>2022-07-29T10:07:52Z</time>
      </trkpt>
      <trkpt lat="47.98231" lon="6.79552">
        <ele>869</ele>
        <time>2022-07-29T10:07:53Z</time>
      </trkpt>
      <trkpt lat="47.98234" lon="6.79538">
        <ele>869.2</ele>
        <time>2022-07-29T10:07:56Z</time>
      </trkpt>
      <trkpt lat="47.98234" lon="6.79533">
        <ele>869.2</ele>
        <time>2022-07-29T10:07:57Z</time>
      </trkpt>
      <trkpt lat="47.98235" lon="6.79529">
        <ele>869.2</ele>
        <time>2022-07-29T10:07:58Z</time>
      </trkpt>
      <trkpt lat="47.98238" lon="6.79509">
        <ele>869.2</ele>
        <time>2022-07-29T10:08:03Z</time>
      </trkpt>
      <trkpt lat="47.98238" lon="6.79505">
        <ele>869.2</ele>
        <time>2022-07-29T10:08:04Z</time>
      </trkpt>
      <trkpt lat="47.98238" lon="6.79501">
        <ele>869.2</ele>
        <time>2022-07-29T10:08:05Z</time>
      </trkpt>
      <trkpt lat="47.98238" lon="6.79497">
        <ele>869.2</ele>
        <time>2022-07-29T10:08:06Z</time>
      </trkpt>
      <trkpt lat="47.98238" lon="6.79492">
        <ele>869.2</ele>
        <time>2022-07-29T10:08:07Z</time>
      </trkpt>
      <trkpt lat="47.98239" lon="6.79488">
        <ele>869.2</ele>
        <time>2022-07-29T10:08:08Z</time>
      </trkpt>
      <trkpt lat="47.98239" lon="6.79484">
        <ele>869.2</ele>
        <time>2022-07-29T10:08:09Z</time>
      </trkpt>
      <trkpt lat="47.98243" lon="6.79455">
        <ele>870</ele>
        <time>2022-07-29T10:08:16Z</time>
      </trkpt>
      <trkpt lat="47.98244" lon="6.79451">
        <ele>870.2</ele>
        <time>2022-07-29T10:08:17Z</time>
      </trkpt>
      <trkpt lat="47.98244" lon="6.79409">
        <ele>870.8</ele>
        <time>2022-07-29T10:08:26Z</time>
      </trkpt>
      <trkpt lat="47.98239" lon="6.79379">
        <ele>871</ele>
        <time>2022-07-29T10:08:33Z</time>
      </trkpt>
      <trkpt lat="47.98239" lon="6.79375">
        <ele>871</ele>
        <time>2022-07-29T10:08:34Z</time>
      </trkpt>
      <trkpt lat="47.98238" lon="6.79371">
        <ele>871</ele>
        <time>2022-07-29T10:08:35Z</time>
      </trkpt>
      <trkpt lat="47.98237" lon="6.79367">
        <ele>871</ele>
        <time>2022-07-29T10:08:36Z</time>
      </trkpt>
      <trkpt lat="47.98237" lon="6.79363">
        <ele>871.2</ele>
        <time>2022-07-29T10:08:37Z</time>
      </trkpt>
      <trkpt lat="47.98235" lon="6.79359">
        <ele>871.4</ele>
        <time>2022-07-29T10:08:38Z</time>
      </trkpt>
      <trkpt lat="47.98234" lon="6.79355">
        <ele>871.4</ele>
        <time>2022-07-29T10:08:39Z</time>
      </trkpt>
      <trkpt lat="47.98231" lon="6.79344">
        <ele>871.6</ele>
        <time>2022-07-29T10:08:42Z</time>
      </trkpt>
      <trkpt lat="47.98229" lon="6.7934">
        <ele>871.8</ele>
        <time>2022-07-29T10:08:43Z</time>
      </trkpt>
      <trkpt lat="47.98223" lon="6.79325">
        <ele>871.8</ele>
        <time>2022-07-29T10:08:47Z</time>
      </trkpt>
      <trkpt lat="47.98207" lon="6.79294">
        <ele>872</ele>
        <time>2022-07-29T10:08:56Z</time>
      </trkpt>
      <trkpt lat="47.98205" lon="6.79291">
        <ele>872</ele>
        <time>2022-07-29T10:08:57Z</time>
      </trkpt>
      <trkpt lat="47.98203" lon="6.79288">
        <ele>872</ele>
        <time>2022-07-29T10:08:58Z</time>
      </trkpt>
      <trkpt lat="47.98195" lon="6.79276">
        <ele>872.4</ele>
        <time>2022-07-29T10:09:02Z</time>
      </trkpt>
      <trkpt lat="47.9819" lon="6.79271">
        <ele>872.6</ele>
        <time>2022-07-29T10:09:04Z</time>
      </trkpt>
      <trkpt lat="47.98165" lon="6.79245">
        <ele>872.8</ele>
        <time>2022-07-29T10:09:13Z</time>
      </trkpt>
      <trkpt lat="47.98145" lon="6.79227">
        <ele>873</ele>
        <time>2022-07-29T10:09:20Z</time>
      </trkpt>
      <trkpt lat="47.98143" lon="6.79224">
        <ele>873</ele>
        <time>2022-07-29T10:09:21Z</time>
      </trkpt>
      <trkpt lat="47.9814" lon="6.79222">
        <ele>873</ele>
        <time>2022-07-29T10:09:22Z</time>
      </trkpt>
      <trkpt lat="47.98137" lon="6.79219">
        <ele>873.2</ele>
        <time>2022-07-29T10:09:23Z</time>
      </trkpt>
      <trkpt lat="47.98134" lon="6.79217">
        <ele>873.2</ele>
        <time>2022-07-29T10:09:24Z</time>
      </trkpt>
      <trkpt lat="47.98123" lon="6.79212">
        <ele>873.2</ele>
        <time>2022-07-29T10:09:28Z</time>
      </trkpt>
      <trkpt lat="47.98119" lon="6.79212">
        <ele>873.4</ele>
        <time>2022-07-29T10:09:29Z</time>
      </trkpt>
      <trkpt lat="47.9811" lon="6.79213">
        <ele>873.4</ele>
        <time>2022-07-29T10:09:32Z</time>
      </trkpt>
      <trkpt lat="47.98106" lon="6.79214">
        <ele>873.6</ele>
        <time>2022-07-29T10:09:33Z</time>
      </trkpt>
      <trkpt lat="47.98103" lon="6.79215">
        <ele>873.6</ele>
        <time>2022-07-29T10:09:34Z</time>
      </trkpt>
      <trkpt lat="47.98082" lon="6.79214">
        <ele>873.8</ele>
        <time>2022-07-29T10:09:41Z</time>
      </trkpt>
      <trkpt lat="47.98077" lon="6.79214">
        <ele>873.8</ele>
        <time>2022-07-29T10:09:43Z</time>
      </trkpt>
      <trkpt lat="47.98075" lon="6.79214">
        <ele>874</ele>
        <time>2022-07-29T10:09:44Z</time>
      </trkpt>
      <trkpt lat="47.98073" lon="6.79213">
        <ele>874</ele>
        <time>2022-07-29T10:09:45Z</time>
      </trkpt>
      <trkpt lat="47.98071" lon="6.79213">
        <ele>874</ele>
        <time>2022-07-29T10:09:46Z</time>
      </trkpt>
      <trkpt lat="47.98068" lon="6.79212">
        <ele>874</ele>
        <time>2022-07-29T10:09:47Z</time>
      </trkpt>
      <trkpt lat="47.98057" lon="6.79211">
        <ele>874</ele>
        <time>2022-07-29T10:09:50Z</time>
      </trkpt>
      <trkpt lat="47.98052" lon="6.7921">
        <ele>873.8</ele>
        <time>2022-07-29T10:09:51Z</time>
      </trkpt>
      <trkpt lat="47.98047" lon="6.79207">
        <ele>873.6</ele>
        <time>2022-07-29T10:09:52Z</time>
      </trkpt>
      <trkpt lat="47.98037" lon="6.79198">
        <ele>872.8</ele>
        <time>2022-07-29T10:09:54Z</time>
      </trkpt>
      <trkpt lat="47.98033" lon="6.79193">
        <ele>872.8</ele>
        <time>2022-07-29T10:09:55Z</time>
      </trkpt>
      <trkpt lat="47.98029" lon="6.79187">
        <ele>872.2</ele>
        <time>2022-07-29T10:09:56Z</time>
      </trkpt>
      <trkpt lat="47.98024" lon="6.79182">
        <ele>871.8</ele>
        <time>2022-07-29T10:09:57Z</time>
      </trkpt>
      <trkpt lat="47.9802" lon="6.79176">
        <ele>871.2</ele>
        <time>2022-07-29T10:09:58Z</time>
      </trkpt>
      <trkpt lat="47.98016" lon="6.79171">
        <ele>871</ele>
        <time>2022-07-29T10:09:59Z</time>
      </trkpt>
      <trkpt lat="47.98012" lon="6.79166">
        <ele>870.6</ele>
        <time>2022-07-29T10:10:00Z</time>
      </trkpt>
      <trkpt lat="47.98003" lon="6.79148">
        <ele>870.4</ele>
        <time>2022-07-29T10:10:03Z</time>
      </trkpt>
      <trkpt lat="47.97999" lon="6.79142">
        <ele>870.2</ele>
        <time>2022-07-29T10:10:04Z</time>
      </trkpt>
      <trkpt lat="47.97996" lon="6.79137">
        <ele>870.2</ele>
        <time>2022-07-29T10:10:05Z</time>
      </trkpt>
      <trkpt lat="47.97993" lon="6.79132">
        <ele>870.2</ele>
        <time>2022-07-29T10:10:06Z</time>
      </trkpt>
      <trkpt lat="47.97989" lon="6.79127">
        <ele>870.2</ele>
        <time>2022-07-29T10:10:07Z</time>
      </trkpt>
      <trkpt lat="47.97986" lon="6.79122">
        <ele>870.2</ele>
        <time>2022-07-29T10:10:08Z</time>
      </trkpt>
      <trkpt lat="47.97982" lon="6.79118">
        <ele>870</ele>
        <time>2022-07-29T10:10:09Z</time>
      </trkpt>
      <trkpt lat="47.97979" lon="6.79114">
        <ele>870</ele>
        <time>2022-07-29T10:10:10Z</time>
      </trkpt>
      <trkpt lat="47.97976" lon="6.79109">
        <ele>869.8</ele>
        <time>2022-07-29T10:10:11Z</time>
      </trkpt>
      <trkpt lat="47.97972" lon="6.79105">
        <ele>869.8</ele>
        <time>2022-07-29T10:10:12Z</time>
      </trkpt>
      <trkpt lat="47.97968" lon="6.791">
        <ele>869.6</ele>
        <time>2022-07-29T10:10:13Z</time>
      </trkpt>
      <trkpt lat="47.97965" lon="6.79096">
        <ele>869.6</ele>
        <time>2022-07-29T10:10:14Z</time>
      </trkpt>
      <trkpt lat="47.97962" lon="6.79091">
        <ele>869.6</ele>
        <time>2022-07-29T10:10:15Z</time>
      </trkpt>
      <trkpt lat="47.97959" lon="6.79086">
        <ele>869.6</ele>
        <time>2022-07-29T10:10:16Z</time>
      </trkpt>
      <trkpt lat="47.9795" lon="6.79072">
        <ele>869.4</ele>
        <time>2022-07-29T10:10:19Z</time>
      </trkpt>
      <trkpt lat="47.97938" lon="6.79054">
        <ele>869</ele>
        <time>2022-07-29T10:10:23Z</time>
      </trkpt>
      <trkpt lat="47.97936" lon="6.79049">
        <ele>869</ele>
        <time>2022-07-29T10:10:24Z</time>
      </trkpt>
      <trkpt lat="47.97933" lon="6.79045">
        <ele>869</ele>
        <time>2022-07-29T10:10:25Z</time>
      </trkpt>
      <trkpt lat="47.9793" lon="6.79041">
        <ele>869</ele>
        <time>2022-07-29T10:10:26Z</time>
      </trkpt>
      <trkpt lat="47.97927" lon="6.79037">
        <ele>869</ele>
        <time>2022-07-29T10:10:27Z</time>
      </trkpt>
      <trkpt lat="47.97923" lon="6.79031">
        <ele>868.6</ele>
        <time>2022-07-29T10:10:28Z</time>
      </trkpt>
      <trkpt lat="47.97905" lon="6.78998">
        <ele>867.6</ele>
        <time>2022-07-29T10:10:33Z</time>
      </trkpt>
      <trkpt lat="47.97892" lon="6.78975">
        <ele>866.4</ele>
        <time>2022-07-29T10:10:36Z</time>
      </trkpt>
      <trkpt lat="47.97884" lon="6.7896">
        <ele>865.8</ele>
        <time>2022-07-29T10:10:38Z</time>
      </trkpt>
      <trkpt lat="47.97881" lon="6.78954">
        <ele>865.6</ele>
        <time>2022-07-29T10:10:39Z</time>
      </trkpt>
      <trkpt lat="47.97878" lon="6.78947">
        <ele>865.4</ele>
        <time>2022-07-29T10:10:40Z</time>
      </trkpt>
      <trkpt lat="47.97876" lon="6.78941">
        <ele>864.6</ele>
        <time>2022-07-29T10:10:41Z</time>
      </trkpt>
      <trkpt lat="47.97874" lon="6.78934">
        <ele>864</ele>
        <time>2022-07-29T10:10:42Z</time>
      </trkpt>
      <trkpt lat="47.97872" lon="6.78926">
        <ele>863.4</ele>
        <time>2022-07-29T10:10:43Z</time>
      </trkpt>
      <trkpt lat="47.97871" lon="6.78918">
        <ele>863.2</ele>
        <time>2022-07-29T10:10:44Z</time>
      </trkpt>
      <trkpt lat="47.9787" lon="6.7891">
        <ele>862.6</ele>
        <time>2022-07-29T10:10:45Z</time>
      </trkpt>
      <trkpt lat="47.97866" lon="6.78887">
        <ele>861.6</ele>
        <time>2022-07-29T10:10:48Z</time>
      </trkpt>
      <trkpt lat="47.97864" lon="6.7888">
        <ele>861.4</ele>
        <time>2022-07-29T10:10:49Z</time>
      </trkpt>
      <trkpt lat="47.97861" lon="6.78874">
        <ele>861.2</ele>
        <time>2022-07-29T10:10:50Z</time>
      </trkpt>
      <trkpt lat="47.97859" lon="6.7887">
        <ele>861.4</ele>
        <time>2022-07-29T10:10:51Z</time>
      </trkpt>
      <trkpt lat="47.97859" lon="6.78869">
        <ele>861</ele>
        <time>2022-07-29T10:10:52Z</time>
      </trkpt>
      <trkpt lat="47.97859" lon="6.78869">
        <ele>860.8</ele>
        <time>2022-07-29T10:10:53Z</time>
      </trkpt>
      <trkpt lat="47.97859" lon="6.78869">
        <ele>860.6</ele>
        <time>2022-07-29T10:10:56Z</time>
      </trkpt>
      <trkpt lat="47.97858" lon="6.78867">
        <ele>860.2</ele>
        <time>2022-07-29T10:11:03Z</time>
      </trkpt>
      <trkpt lat="47.97857" lon="6.78866">
        <ele>859.8</ele>
        <time>2022-07-29T10:11:12Z</time>
      </trkpt>
      <trkpt lat="47.97857" lon="6.78865">
        <ele>859.6</ele>
        <time>2022-07-29T10:11:13Z</time>
      </trkpt>
      <trkpt lat="47.97856" lon="6.78862">
        <ele>859.4</ele>
        <time>2022-07-29T10:11:21Z</time>
      </trkpt>
      <trkpt lat="47.97854" lon="6.78844">
        <ele>859.2</ele>
        <time>2022-07-29T10:11:25Z</time>
      </trkpt>
      <trkpt lat="47.97854" lon="6.78836">
        <ele>859</ele>
        <time>2022-07-29T10:11:27Z</time>
      </trkpt>
      <trkpt lat="47.97855" lon="6.78832">
        <ele>859</ele>
        <time>2022-07-29T10:11:28Z</time>
      </trkpt>
      <trkpt lat="47.97855" lon="6.78829">
        <ele>859</ele>
        <time>2022-07-29T10:11:29Z</time>
      </trkpt>
      <trkpt lat="47.97854" lon="6.78804">
        <ele>859.6</ele>
        <time>2022-07-29T10:11:35Z</time>
      </trkpt>
      <trkpt lat="47.97848" lon="6.78787">
        <ele>860.4</ele>
        <time>2022-07-29T10:11:40Z</time>
      </trkpt>
      <trkpt lat="47.97848" lon="6.78785">
        <ele>860.6</ele>
        <time>2022-07-29T10:11:41Z</time>
      </trkpt>
      <trkpt lat="47.97847" lon="6.78782">
        <ele>860.6</ele>
        <time>2022-07-29T10:11:42Z</time>
      </trkpt>
      <trkpt lat="47.97845" lon="6.78773">
        <ele>860.8</ele>
        <time>2022-07-29T10:11:44Z</time>
      </trkpt>
      <trkpt lat="47.97844" lon="6.78767">
        <ele>860.8</ele>
        <time>2022-07-29T10:11:45Z</time>
      </trkpt>
      <trkpt lat="47.9784" lon="6.78755">
        <ele>860.4</ele>
        <time>2022-07-29T10:11:47Z</time>
      </trkpt>
      <trkpt lat="47.97838" lon="6.7875">
        <ele>860.2</ele>
        <time>2022-07-29T10:11:48Z</time>
      </trkpt>
      <trkpt lat="47.97835" lon="6.78744">
        <ele>859.8</ele>
        <time>2022-07-29T10:11:49Z</time>
      </trkpt>
      <trkpt lat="47.97832" lon="6.78738">
        <ele>859.4</ele>
        <time>2022-07-29T10:11:50Z</time>
      </trkpt>
      <trkpt lat="47.97828" lon="6.78732">
        <ele>858.8</ele>
        <time>2022-07-29T10:11:51Z</time>
      </trkpt>
      <trkpt lat="47.97823" lon="6.78727">
        <ele>858.4</ele>
        <time>2022-07-29T10:11:52Z</time>
      </trkpt>
      <trkpt lat="47.97814" lon="6.78719">
        <ele>857.4</ele>
        <time>2022-07-29T10:11:55Z</time>
      </trkpt>
      <trkpt lat="47.97812" lon="6.78716">
        <ele>856.8</ele>
        <time>2022-07-29T10:11:56Z</time>
      </trkpt>
      <trkpt lat="47.9781" lon="6.78713">
        <ele>856.4</ele>
        <time>2022-07-29T10:11:57Z</time>
      </trkpt>
      <trkpt lat="47.97809" lon="6.78709">
        <ele>855.2</ele>
        <time>2022-07-29T10:11:58Z</time>
      </trkpt>
      <trkpt lat="47.9781" lon="6.78705">
        <ele>854.8</ele>
        <time>2022-07-29T10:11:59Z</time>
      </trkpt>
      <trkpt lat="47.97806" lon="6.78697">
        <ele>854.2</ele>
        <time>2022-07-29T10:12:00Z</time>
      </trkpt>
      <trkpt lat="47.97806" lon="6.78692">
        <ele>854</ele>
        <time>2022-07-29T10:12:01Z</time>
      </trkpt>
      <trkpt lat="47.97805" lon="6.78687">
        <ele>853.4</ele>
        <time>2022-07-29T10:12:02Z</time>
      </trkpt>
      <trkpt lat="47.97804" lon="6.78683">
        <ele>853</ele>
        <time>2022-07-29T10:12:03Z</time>
      </trkpt>
      <trkpt lat="47.97801" lon="6.78679">
        <ele>851.8</ele>
        <time>2022-07-29T10:12:04Z</time>
      </trkpt>
      <trkpt lat="47.97799" lon="6.78675">
        <ele>851</ele>
        <time>2022-07-29T10:12:05Z</time>
      </trkpt>
      <trkpt lat="47.97797" lon="6.78672">
        <ele>850.8</ele>
        <time>2022-07-29T10:12:06Z</time>
      </trkpt>
      <trkpt lat="47.97795" lon="6.78667">
        <ele>850.4</ele>
        <time>2022-07-29T10:12:07Z</time>
      </trkpt>
      <trkpt lat="47.97794" lon="6.78663">
        <ele>850.4</ele>
        <time>2022-07-29T10:12:08Z</time>
      </trkpt>
      <trkpt lat="47.97793" lon="6.78658">
        <ele>850</ele>
        <time>2022-07-29T10:12:09Z</time>
      </trkpt>
      <trkpt lat="47.97792" lon="6.78651">
        <ele>849.8</ele>
        <time>2022-07-29T10:12:10Z</time>
      </trkpt>
      <trkpt lat="47.97791" lon="6.78645">
        <ele>849.8</ele>
        <time>2022-07-29T10:12:11Z</time>
      </trkpt>
      <trkpt lat="47.97789" lon="6.78641">
        <ele>849.6</ele>
        <time>2022-07-29T10:12:12Z</time>
      </trkpt>
      <trkpt lat="47.97787" lon="6.78638">
        <ele>849.6</ele>
        <time>2022-07-29T10:12:13Z</time>
      </trkpt>
      <trkpt lat="47.97786" lon="6.78634">
        <ele>849.6</ele>
        <time>2022-07-29T10:12:14Z</time>
      </trkpt>
      <trkpt lat="47.97784" lon="6.7863">
        <ele>849.6</ele>
        <time>2022-07-29T10:12:15Z</time>
      </trkpt>
      <trkpt lat="47.97782" lon="6.78624">
        <ele>849.6</ele>
        <time>2022-07-29T10:12:16Z</time>
      </trkpt>
      <trkpt lat="47.9778" lon="6.78618">
        <ele>849.6</ele>
        <time>2022-07-29T10:12:17Z</time>
      </trkpt>
      <trkpt lat="47.97778" lon="6.78609">
        <ele>849.4</ele>
        <time>2022-07-29T10:12:18Z</time>
      </trkpt>
      <trkpt lat="47.97772" lon="6.7859">
        <ele>849.4</ele>
        <time>2022-07-29T10:12:21Z</time>
      </trkpt>
      <trkpt lat="47.97767" lon="6.78584">
        <ele>849.2</ele>
        <time>2022-07-29T10:12:22Z</time>
      </trkpt>
      <trkpt lat="47.97764" lon="6.7858">
        <ele>849.2</ele>
        <time>2022-07-29T10:12:23Z</time>
      </trkpt>
      <trkpt lat="47.97761" lon="6.78578">
        <ele>849.2</ele>
        <time>2022-07-29T10:12:24Z</time>
      </trkpt>
      <trkpt lat="47.97757" lon="6.78576">
        <ele>849.2</ele>
        <time>2022-07-29T10:12:25Z</time>
      </trkpt>
      <trkpt lat="47.97753" lon="6.78573">
        <ele>849</ele>
        <time>2022-07-29T10:12:26Z</time>
      </trkpt>
      <trkpt lat="47.97748" lon="6.78569">
        <ele>848.6</ele>
        <time>2022-07-29T10:12:27Z</time>
      </trkpt>
      <trkpt lat="47.97743" lon="6.78567">
        <ele>848.2</ele>
        <time>2022-07-29T10:12:28Z</time>
      </trkpt>
      <trkpt lat="47.97732" lon="6.78558">
        <ele>847.8</ele>
        <time>2022-07-29T10:12:30Z</time>
      </trkpt>
      <trkpt lat="47.97722" lon="6.78549">
        <ele>847.2</ele>
        <time>2022-07-29T10:12:32Z</time>
      </trkpt>
      <trkpt lat="47.97715" lon="6.78544">
        <ele>846</ele>
        <time>2022-07-29T10:12:34Z</time>
      </trkpt>
      <trkpt lat="47.97711" lon="6.78541">
        <ele>845.8</ele>
        <time>2022-07-29T10:12:35Z</time>
      </trkpt>
      <trkpt lat="47.97707" lon="6.7854">
        <ele>845</ele>
        <time>2022-07-29T10:12:36Z</time>
      </trkpt>
      <trkpt lat="47.97702" lon="6.78539">
        <ele>844.4</ele>
        <time>2022-07-29T10:12:37Z</time>
      </trkpt>
      <trkpt lat="47.97698" lon="6.7854">
        <ele>843.8</ele>
        <time>2022-07-29T10:12:38Z</time>
      </trkpt>
      <trkpt lat="47.97693" lon="6.7854">
        <ele>843.4</ele>
        <time>2022-07-29T10:12:39Z</time>
      </trkpt>
      <trkpt lat="47.97688" lon="6.7854">
        <ele>843</ele>
        <time>2022-07-29T10:12:40Z</time>
      </trkpt>
      <trkpt lat="47.97683" lon="6.78539">
        <ele>842.6</ele>
        <time>2022-07-29T10:12:41Z</time>
      </trkpt>
      <trkpt lat="47.97669" lon="6.78535">
        <ele>841.8</ele>
        <time>2022-07-29T10:12:44Z</time>
      </trkpt>
      <trkpt lat="47.97661" lon="6.78532">
        <ele>841.6</ele>
        <time>2022-07-29T10:12:46Z</time>
      </trkpt>
      <trkpt lat="47.97657" lon="6.78528">
        <ele>841.6</ele>
        <time>2022-07-29T10:12:47Z</time>
      </trkpt>
      <trkpt lat="47.97654" lon="6.78525">
        <ele>841.4</ele>
        <time>2022-07-29T10:12:48Z</time>
      </trkpt>
      <trkpt lat="47.97652" lon="6.78521">
        <ele>841.4</ele>
        <time>2022-07-29T10:12:49Z</time>
      </trkpt>
      <trkpt lat="47.97649" lon="6.78516">
        <ele>841.4</ele>
        <time>2022-07-29T10:12:50Z</time>
      </trkpt>
      <trkpt lat="47.97647" lon="6.78512">
        <ele>841.4</ele>
        <time>2022-07-29T10:12:51Z</time>
      </trkpt>
      <trkpt lat="47.97645" lon="6.78509">
        <ele>841.4</ele>
        <time>2022-07-29T10:12:52Z</time>
      </trkpt>
      <trkpt lat="47.97643" lon="6.78505">
        <ele>841.4</ele>
        <time>2022-07-29T10:12:53Z</time>
      </trkpt>
      <trkpt lat="47.97642" lon="6.78502">
        <ele>841.4</ele>
        <time>2022-07-29T10:12:54Z</time>
      </trkpt>
      <trkpt lat="47.9764" lon="6.78499">
        <ele>841.4</ele>
        <time>2022-07-29T10:12:55Z</time>
      </trkpt>
      <trkpt lat="47.97638" lon="6.78497">
        <ele>841.4</ele>
        <time>2022-07-29T10:12:56Z</time>
      </trkpt>
      <trkpt lat="47.97636" lon="6.78495">
        <ele>841.4</ele>
        <time>2022-07-29T10:12:57Z</time>
      </trkpt>
      <trkpt lat="47.97634" lon="6.78494">
        <ele>841.4</ele>
        <time>2022-07-29T10:12:58Z</time>
      </trkpt>
      <trkpt lat="47.97632" lon="6.78493">
        <ele>841.4</ele>
        <time>2022-07-29T10:12:59Z</time>
      </trkpt>
      <trkpt lat="47.9763" lon="6.78492">
        <ele>841.6</ele>
        <time>2022-07-29T10:13:00Z</time>
      </trkpt>
      <trkpt lat="47.97628" lon="6.78492">
        <ele>841.6</ele>
        <time>2022-07-29T10:13:01Z</time>
      </trkpt>
      <trkpt lat="47.97626" lon="6.78492">
        <ele>841.8</ele>
        <time>2022-07-29T10:13:02Z</time>
      </trkpt>
      <trkpt lat="47.97624" lon="6.78492">
        <ele>841.8</ele>
        <time>2022-07-29T10:13:03Z</time>
      </trkpt>
      <trkpt lat="47.97621" lon="6.78493">
        <ele>841.8</ele>
        <time>2022-07-29T10:13:04Z</time>
      </trkpt>
      <trkpt lat="47.97615" lon="6.78494">
        <ele>842</ele>
        <time>2022-07-29T10:13:06Z</time>
      </trkpt>
      <trkpt lat="47.97612" lon="6.78494">
        <ele>842</ele>
        <time>2022-07-29T10:13:07Z</time>
      </trkpt>
      <trkpt lat="47.97592" lon="6.78489">
        <ele>842.6</ele>
        <time>2022-07-29T10:13:13Z</time>
      </trkpt>
      <trkpt lat="47.97573" lon="6.78479">
        <ele>843</ele>
        <time>2022-07-29T10:13:19Z</time>
      </trkpt>
      <trkpt lat="47.97558" lon="6.78466">
        <ele>843</ele>
        <time>2022-07-29T10:13:23Z</time>
      </trkpt>
      <trkpt lat="47.97555" lon="6.78462">
        <ele>843</ele>
        <time>2022-07-29T10:13:24Z</time>
      </trkpt>
      <trkpt lat="47.97552" lon="6.78459">
        <ele>843</ele>
        <time>2022-07-29T10:13:25Z</time>
      </trkpt>
      <trkpt lat="47.97549" lon="6.78455">
        <ele>843</ele>
        <time>2022-07-29T10:13:26Z</time>
      </trkpt>
      <trkpt lat="47.97543" lon="6.7845">
        <ele>843</ele>
        <time>2022-07-29T10:13:27Z</time>
      </trkpt>
      <trkpt lat="47.97537" lon="6.78443">
        <ele>842.6</ele>
        <time>2022-07-29T10:13:28Z</time>
      </trkpt>
      <trkpt lat="47.9753" lon="6.78435">
        <ele>842.4</ele>
        <time>2022-07-29T10:13:29Z</time>
      </trkpt>
      <trkpt lat="47.97526" lon="6.78428">
        <ele>841.8</ele>
        <time>2022-07-29T10:13:30Z</time>
      </trkpt>
      <trkpt lat="47.97522" lon="6.78419">
        <ele>840.8</ele>
        <time>2022-07-29T10:13:31Z</time>
      </trkpt>
      <trkpt lat="47.97519" lon="6.78411">
        <ele>840.4</ele>
        <time>2022-07-29T10:13:32Z</time>
      </trkpt>
      <trkpt lat="47.9751" lon="6.78394">
        <ele>839.8</ele>
        <time>2022-07-29T10:13:34Z</time>
      </trkpt>
      <trkpt lat="47.97497" lon="6.78369">
        <ele>838.4</ele>
        <time>2022-07-29T10:13:37Z</time>
      </trkpt>
      <trkpt lat="47.9748" lon="6.78355">
        <ele>837.8</ele>
        <time>2022-07-29T10:13:39Z</time>
      </trkpt>
      <trkpt lat="47.97476" lon="6.78351">
        <ele>837.2</ele>
        <time>2022-07-29T10:13:40Z</time>
      </trkpt>
      <trkpt lat="47.97472" lon="6.78347">
        <ele>837</ele>
        <time>2022-07-29T10:13:41Z</time>
      </trkpt>
      <trkpt lat="47.97468" lon="6.78343">
        <ele>836.8</ele>
        <time>2022-07-29T10:13:42Z</time>
      </trkpt>
      <trkpt lat="47.97466" lon="6.78339">
        <ele>836.8</ele>
        <time>2022-07-29T10:13:43Z</time>
      </trkpt>
      <trkpt lat="47.97462" lon="6.78333">
        <ele>836.8</ele>
        <time>2022-07-29T10:13:44Z</time>
      </trkpt>
      <trkpt lat="47.97461" lon="6.78329">
        <ele>836.8</ele>
        <time>2022-07-29T10:13:45Z</time>
      </trkpt>
      <trkpt lat="47.97458" lon="6.78325">
        <ele>836.8</ele>
        <time>2022-07-29T10:13:46Z</time>
      </trkpt>
      <trkpt lat="47.97457" lon="6.7832">
        <ele>837</ele>
        <time>2022-07-29T10:13:47Z</time>
      </trkpt>
      <trkpt lat="47.97454" lon="6.78316">
        <ele>837</ele>
        <time>2022-07-29T10:13:48Z</time>
      </trkpt>
      <trkpt lat="47.97449" lon="6.78307">
        <ele>837.4</ele>
        <time>2022-07-29T10:13:50Z</time>
      </trkpt>
      <trkpt lat="47.97445" lon="6.78303">
        <ele>837.6</ele>
        <time>2022-07-29T10:13:51Z</time>
      </trkpt>
      <trkpt lat="47.97425" lon="6.78282">
        <ele>838.4</ele>
        <time>2022-07-29T10:13:57Z</time>
      </trkpt>
      <trkpt lat="47.97423" lon="6.78278">
        <ele>838.4</ele>
        <time>2022-07-29T10:13:58Z</time>
      </trkpt>
      <trkpt lat="47.97422" lon="6.78274">
        <ele>838.4</ele>
        <time>2022-07-29T10:13:59Z</time>
      </trkpt>
      <trkpt lat="47.9742" lon="6.78269">
        <ele>838.6</ele>
        <time>2022-07-29T10:14:00Z</time>
      </trkpt>
      <trkpt lat="47.97418" lon="6.78264">
        <ele>838.6</ele>
        <time>2022-07-29T10:14:01Z</time>
      </trkpt>
      <trkpt lat="47.97415" lon="6.78252">
        <ele>838.8</ele>
        <time>2022-07-29T10:14:03Z</time>
      </trkpt>
      <trkpt lat="47.97411" lon="6.7824">
        <ele>839</ele>
        <time>2022-07-29T10:14:05Z</time>
      </trkpt>
      <trkpt lat="47.97409" lon="6.78229">
        <ele>839</ele>
        <time>2022-07-29T10:14:07Z</time>
      </trkpt>
      <trkpt lat="47.97407" lon="6.78222">
        <ele>838.8</ele>
        <time>2022-07-29T10:14:08Z</time>
      </trkpt>
      <trkpt lat="47.97405" lon="6.78216">
        <ele>839</ele>
        <time>2022-07-29T10:14:09Z</time>
      </trkpt>
      <trkpt lat="47.974" lon="6.78206">
        <ele>839</ele>
        <time>2022-07-29T10:14:11Z</time>
      </trkpt>
      <trkpt lat="47.97395" lon="6.78198">
        <ele>839.2</ele>
        <time>2022-07-29T10:14:13Z</time>
      </trkpt>
      <trkpt lat="47.97392" lon="6.78194">
        <ele>839.2</ele>
        <time>2022-07-29T10:14:14Z</time>
      </trkpt>
      <trkpt lat="47.97389" lon="6.78191">
        <ele>839.2</ele>
        <time>2022-07-29T10:14:15Z</time>
      </trkpt>
      <trkpt lat="47.97387" lon="6.78188">
        <ele>839.2</ele>
        <time>2022-07-29T10:14:16Z</time>
      </trkpt>
      <trkpt lat="47.97383" lon="6.78183">
        <ele>839.4</ele>
        <time>2022-07-29T10:14:18Z</time>
      </trkpt>
      <trkpt lat="47.97381" lon="6.78179">
        <ele>839.6</ele>
        <time>2022-07-29T10:14:19Z</time>
      </trkpt>
      <trkpt lat="47.97379" lon="6.78175">
        <ele>839.8</ele>
        <time>2022-07-29T10:14:20Z</time>
      </trkpt>
      <trkpt lat="47.97376" lon="6.7817">
        <ele>839.8</ele>
        <time>2022-07-29T10:14:21Z</time>
      </trkpt>
      <trkpt lat="47.97374" lon="6.78166">
        <ele>840.2</ele>
        <time>2022-07-29T10:14:22Z</time>
      </trkpt>
      <trkpt lat="47.97371" lon="6.78162">
        <ele>840.6</ele>
        <time>2022-07-29T10:14:23Z</time>
      </trkpt>
      <trkpt lat="47.97368" lon="6.78158">
        <ele>840.8</ele>
        <time>2022-07-29T10:14:24Z</time>
      </trkpt>
      <trkpt lat="47.97366" lon="6.78154">
        <ele>841</ele>
        <time>2022-07-29T10:14:25Z</time>
      </trkpt>
      <trkpt lat="47.97364" lon="6.78145">
        <ele>841.2</ele>
        <time>2022-07-29T10:14:27Z</time>
      </trkpt>
      <trkpt lat="47.97363" lon="6.78142">
        <ele>841.2</ele>
        <time>2022-07-29T10:14:28Z</time>
      </trkpt>
      <trkpt lat="47.97361" lon="6.78136">
        <ele>841.4</ele>
        <time>2022-07-29T10:14:29Z</time>
      </trkpt>
      <trkpt lat="47.97359" lon="6.78129">
        <ele>841.6</ele>
        <time>2022-07-29T10:14:30Z</time>
      </trkpt>
      <trkpt lat="47.97358" lon="6.78123">
        <ele>842</ele>
        <time>2022-07-29T10:14:31Z</time>
      </trkpt>
      <trkpt lat="47.97357" lon="6.78117">
        <ele>842.2</ele>
        <time>2022-07-29T10:14:32Z</time>
      </trkpt>
      <trkpt lat="47.97355" lon="6.78112">
        <ele>842.4</ele>
        <time>2022-07-29T10:14:33Z</time>
      </trkpt>
      <trkpt lat="47.97353" lon="6.78107">
        <ele>842.6</ele>
        <time>2022-07-29T10:14:34Z</time>
      </trkpt>
      <trkpt lat="47.9735" lon="6.78104">
        <ele>842.8</ele>
        <time>2022-07-29T10:14:35Z</time>
      </trkpt>
      <trkpt lat="47.97347" lon="6.78101">
        <ele>842.8</ele>
        <time>2022-07-29T10:14:36Z</time>
      </trkpt>
      <trkpt lat="47.97344" lon="6.78097">
        <ele>843</ele>
        <time>2022-07-29T10:14:37Z</time>
      </trkpt>
      <trkpt lat="47.9734" lon="6.78094">
        <ele>843.2</ele>
        <time>2022-07-29T10:14:38Z</time>
      </trkpt>
      <trkpt lat="47.97338" lon="6.78093">
        <ele>843.2</ele>
        <time>2022-07-29T10:14:39Z</time>
      </trkpt>
      <trkpt lat="47.97337" lon="6.78092">
        <ele>843.4</ele>
        <time>2022-07-29T10:14:40Z</time>
      </trkpt>
      <trkpt lat="47.97334" lon="6.78091">
        <ele>843.6</ele>
        <time>2022-07-29T10:14:41Z</time>
      </trkpt>
      <trkpt lat="47.97331" lon="6.78088">
        <ele>843.6</ele>
        <time>2022-07-29T10:14:42Z</time>
      </trkpt>
      <trkpt lat="47.97329" lon="6.78085">
        <ele>843.6</ele>
        <time>2022-07-29T10:14:43Z</time>
      </trkpt>
      <trkpt lat="47.97326" lon="6.78083">
        <ele>843.6</ele>
        <time>2022-07-29T10:14:44Z</time>
      </trkpt>
      <trkpt lat="47.97324" lon="6.7808">
        <ele>843.8</ele>
        <time>2022-07-29T10:14:45Z</time>
      </trkpt>
      <trkpt lat="47.97323" lon="6.78078">
        <ele>843.8</ele>
        <time>2022-07-29T10:14:46Z</time>
      </trkpt>
      <trkpt lat="47.9732" lon="6.78076">
        <ele>843.8</ele>
        <time>2022-07-29T10:14:47Z</time>
      </trkpt>
      <trkpt lat="47.97318" lon="6.78074">
        <ele>843.8</ele>
        <time>2022-07-29T10:14:48Z</time>
      </trkpt>
      <trkpt lat="47.97315" lon="6.78073">
        <ele>843.8</ele>
        <time>2022-07-29T10:14:49Z</time>
      </trkpt>
      <trkpt lat="47.97312" lon="6.78072">
        <ele>843.8</ele>
        <time>2022-07-29T10:14:50Z</time>
      </trkpt>
      <trkpt lat="47.97308" lon="6.78072">
        <ele>843.8</ele>
        <time>2022-07-29T10:14:51Z</time>
      </trkpt>
      <trkpt lat="47.97305" lon="6.78071">
        <ele>843.8</ele>
        <time>2022-07-29T10:14:52Z</time>
      </trkpt>
      <trkpt lat="47.97302" lon="6.7807">
        <ele>843.8</ele>
        <time>2022-07-29T10:14:53Z</time>
      </trkpt>
      <trkpt lat="47.97299" lon="6.78068">
        <ele>844</ele>
        <time>2022-07-29T10:14:54Z</time>
      </trkpt>
      <trkpt lat="47.97295" lon="6.78066">
        <ele>844</ele>
        <time>2022-07-29T10:14:55Z</time>
      </trkpt>
      <trkpt lat="47.97291" lon="6.78063">
        <ele>844</ele>
        <time>2022-07-29T10:14:56Z</time>
      </trkpt>
      <trkpt lat="47.97289" lon="6.78061">
        <ele>844</ele>
        <time>2022-07-29T10:14:57Z</time>
      </trkpt>
      <trkpt lat="47.9727" lon="6.7804">
        <ele>844.6</ele>
        <time>2022-07-29T10:15:03Z</time>
      </trkpt>
      <trkpt lat="47.97263" lon="6.78032">
        <ele>845</ele>
        <time>2022-07-29T10:15:06Z</time>
      </trkpt>
      <trkpt lat="47.9726" lon="6.78029">
        <ele>845</ele>
        <time>2022-07-29T10:15:07Z</time>
      </trkpt>
      <trkpt lat="47.97256" lon="6.78025">
        <ele>845</ele>
        <time>2022-07-29T10:15:08Z</time>
      </trkpt>
      <trkpt lat="47.97251" lon="6.78019">
        <ele>845</ele>
        <time>2022-07-29T10:15:10Z</time>
      </trkpt>
      <trkpt lat="47.97248" lon="6.78016">
        <ele>845</ele>
        <time>2022-07-29T10:15:11Z</time>
      </trkpt>
      <trkpt lat="47.97245" lon="6.78013">
        <ele>845</ele>
        <time>2022-07-29T10:15:12Z</time>
      </trkpt>
      <trkpt lat="47.97238" lon="6.78007">
        <ele>845.4</ele>
        <time>2022-07-29T10:15:14Z</time>
      </trkpt>
      <trkpt lat="47.97232" lon="6.78003">
        <ele>845.4</ele>
        <time>2022-07-29T10:15:16Z</time>
      </trkpt>
      <trkpt lat="47.9723" lon="6.78002">
        <ele>845.6</ele>
        <time>2022-07-29T10:15:17Z</time>
      </trkpt>
      <trkpt lat="47.97229" lon="6.78001">
        <ele>845.6</ele>
        <time>2022-07-29T10:15:18Z</time>
      </trkpt>
      <trkpt lat="47.97229" lon="6.78001">
        <ele>845.6</ele>
        <time>2022-07-29T10:15:19Z</time>
      </trkpt>
      <trkpt lat="47.97229" lon="6.78001">
        <ele>845.8</ele>
        <time>2022-07-29T10:15:20Z</time>
      </trkpt>
      <trkpt lat="47.97227" lon="6.78">
        <ele>846</ele>
        <time>2022-07-29T10:15:21Z</time>
      </trkpt>
      <trkpt lat="47.97226" lon="6.77998">
        <ele>846.2</ele>
        <time>2022-07-29T10:15:22Z</time>
      </trkpt>
      <trkpt lat="47.97225" lon="6.77992">
        <ele>846.4</ele>
        <time>2022-07-29T10:15:24Z</time>
      </trkpt>
      <trkpt lat="47.97225" lon="6.77989">
        <ele>846.4</ele>
        <time>2022-07-29T10:15:25Z</time>
      </trkpt>
      <trkpt lat="47.97225" lon="6.77983">
        <ele>846.6</ele>
        <time>2022-07-29T10:15:27Z</time>
      </trkpt>
      <trkpt lat="47.97226" lon="6.7798">
        <ele>846.8</ele>
        <time>2022-07-29T10:15:28Z</time>
      </trkpt>
      <trkpt lat="47.97227" lon="6.77973">
        <ele>846.8</ele>
        <time>2022-07-29T10:15:31Z</time>
      </trkpt>
      <trkpt lat="47.97228" lon="6.77959">
        <ele>847.2</ele>
        <time>2022-07-29T10:15:35Z</time>
      </trkpt>
      <trkpt lat="47.97227" lon="6.77947">
        <ele>847.4</ele>
        <time>2022-07-29T10:15:38Z</time>
      </trkpt>
      <trkpt lat="47.97227" lon="6.7792">
        <ele>848.2</ele>
        <time>2022-07-29T10:15:45Z</time>
      </trkpt>
      <trkpt lat="47.97229" lon="6.77906">
        <ele>848.4</ele>
        <time>2022-07-29T10:15:48Z</time>
      </trkpt>
      <trkpt lat="47.9723" lon="6.77897">
        <ele>848.8</ele>
        <time>2022-07-29T10:15:50Z</time>
      </trkpt>
      <trkpt lat="47.97231" lon="6.77893">
        <ele>849</ele>
        <time>2022-07-29T10:15:51Z</time>
      </trkpt>
      <trkpt lat="47.97231" lon="6.77888">
        <ele>849</ele>
        <time>2022-07-29T10:15:52Z</time>
      </trkpt>
      <trkpt lat="47.97233" lon="6.77863">
        <ele>849.6</ele>
        <time>2022-07-29T10:15:57Z</time>
      </trkpt>
      <trkpt lat="47.9724" lon="6.77833">
        <ele>849.8</ele>
        <time>2022-07-29T10:16:02Z</time>
      </trkpt>
      <trkpt lat="47.97242" lon="6.77826">
        <ele>849.8</ele>
        <time>2022-07-29T10:16:03Z</time>
      </trkpt>
      <trkpt lat="47.97246" lon="6.77805">
        <ele>849.4</ele>
        <time>2022-07-29T10:16:06Z</time>
      </trkpt>
      <trkpt lat="47.97249" lon="6.7779">
        <ele>849.2</ele>
        <time>2022-07-29T10:16:08Z</time>
      </trkpt>
      <trkpt lat="47.9725" lon="6.77783">
        <ele>848.8</ele>
        <time>2022-07-29T10:16:09Z</time>
      </trkpt>
      <trkpt lat="47.97252" lon="6.77768">
        <ele>848.4</ele>
        <time>2022-07-29T10:16:11Z</time>
      </trkpt>
      <trkpt lat="47.97254" lon="6.77754">
        <ele>848.2</ele>
        <time>2022-07-29T10:16:13Z</time>
      </trkpt>
      <trkpt lat="47.97255" lon="6.77746">
        <ele>848.2</ele>
        <time>2022-07-29T10:16:14Z</time>
      </trkpt>
      <trkpt lat="47.97255" lon="6.77712">
        <ele>847.2</ele>
        <time>2022-07-29T10:16:18Z</time>
      </trkpt>
      <trkpt lat="47.97251" lon="6.77681">
        <ele>846.2</ele>
        <time>2022-07-29T10:16:22Z</time>
      </trkpt>
      <trkpt lat="47.9725" lon="6.77673">
        <ele>845.8</ele>
        <time>2022-07-29T10:16:23Z</time>
      </trkpt>
      <trkpt lat="47.97248" lon="6.77665">
        <ele>845.6</ele>
        <time>2022-07-29T10:16:24Z</time>
      </trkpt>
      <trkpt lat="47.97247" lon="6.77657">
        <ele>845</ele>
        <time>2022-07-29T10:16:25Z</time>
      </trkpt>
      <trkpt lat="47.97248" lon="6.77648">
        <ele>844.8</ele>
        <time>2022-07-29T10:16:26Z</time>
      </trkpt>
      <trkpt lat="47.97249" lon="6.7764">
        <ele>844.4</ele>
        <time>2022-07-29T10:16:27Z</time>
      </trkpt>
      <trkpt lat="47.9725" lon="6.77631">
        <ele>844.4</ele>
        <time>2022-07-29T10:16:28Z</time>
      </trkpt>
      <trkpt lat="47.9725" lon="6.77614">
        <ele>844.2</ele>
        <time>2022-07-29T10:16:30Z</time>
      </trkpt>
      <trkpt lat="47.97249" lon="6.77604">
        <ele>844.2</ele>
        <time>2022-07-29T10:16:31Z</time>
      </trkpt>
      <trkpt lat="47.97248" lon="6.77595">
        <ele>843.8</ele>
        <time>2022-07-29T10:16:32Z</time>
      </trkpt>
      <trkpt lat="47.97248" lon="6.77578">
        <ele>843.2</ele>
        <time>2022-07-29T10:16:34Z</time>
      </trkpt>
      <trkpt lat="47.9725" lon="6.77561">
        <ele>842.6</ele>
        <time>2022-07-29T10:16:36Z</time>
      </trkpt>
      <trkpt lat="47.97251" lon="6.77552">
        <ele>842.6</ele>
        <time>2022-07-29T10:16:37Z</time>
      </trkpt>
      <trkpt lat="47.97252" lon="6.77543">
        <ele>842.4</ele>
        <time>2022-07-29T10:16:38Z</time>
      </trkpt>
      <trkpt lat="47.97251" lon="6.77535">
        <ele>842.4</ele>
        <time>2022-07-29T10:16:39Z</time>
      </trkpt>
      <trkpt lat="47.97251" lon="6.77527">
        <ele>842</ele>
        <time>2022-07-29T10:16:40Z</time>
      </trkpt>
      <trkpt lat="47.97251" lon="6.77519">
        <ele>842</ele>
        <time>2022-07-29T10:16:41Z</time>
      </trkpt>
      <trkpt lat="47.97251" lon="6.77508">
        <ele>841.8</ele>
        <time>2022-07-29T10:16:42Z</time>
      </trkpt>
      <trkpt lat="47.97251" lon="6.77499">
        <ele>841.6</ele>
        <time>2022-07-29T10:16:43Z</time>
      </trkpt>
      <trkpt lat="47.97251" lon="6.77481">
        <ele>841.8</ele>
        <time>2022-07-29T10:16:45Z</time>
      </trkpt>
      <trkpt lat="47.97252" lon="6.77457">
        <ele>842.2</ele>
        <time>2022-07-29T10:16:48Z</time>
      </trkpt>
      <trkpt lat="47.97252" lon="6.77449">
        <ele>842.2</ele>
        <time>2022-07-29T10:16:49Z</time>
      </trkpt>
      <trkpt lat="47.97248" lon="6.77432">
        <ele>842.4</ele>
        <time>2022-07-29T10:16:51Z</time>
      </trkpt>
      <trkpt lat="47.97244" lon="6.77425">
        <ele>842.4</ele>
        <time>2022-07-29T10:16:52Z</time>
      </trkpt>
      <trkpt lat="47.97241" lon="6.77415">
        <ele>842.6</ele>
        <time>2022-07-29T10:16:53Z</time>
      </trkpt>
      <trkpt lat="47.97238" lon="6.77407">
        <ele>842.6</ele>
        <time>2022-07-29T10:16:54Z</time>
      </trkpt>
      <trkpt lat="47.97238" lon="6.774">
        <ele>842.6</ele>
        <time>2022-07-29T10:16:55Z</time>
      </trkpt>
      <trkpt lat="47.97238" lon="6.77391">
        <ele>842.8</ele>
        <time>2022-07-29T10:16:56Z</time>
      </trkpt>
      <trkpt lat="47.97238" lon="6.77382">
        <ele>842.8</ele>
        <time>2022-07-29T10:16:57Z</time>
      </trkpt>
      <trkpt lat="47.97239" lon="6.77373">
        <ele>842.8</ele>
        <time>2022-07-29T10:16:58Z</time>
      </trkpt>
      <trkpt lat="47.9724" lon="6.77364">
        <ele>842.6</ele>
        <time>2022-07-29T10:16:59Z</time>
      </trkpt>
      <trkpt lat="47.9724" lon="6.77354">
        <ele>842.6</ele>
        <time>2022-07-29T10:17:00Z</time>
      </trkpt>
      <trkpt lat="47.97242" lon="6.77315">
        <ele>842.4</ele>
        <time>2022-07-29T10:17:04Z</time>
      </trkpt>
      <trkpt lat="47.97243" lon="6.77286">
        <ele>841.6</ele>
        <time>2022-07-29T10:17:07Z</time>
      </trkpt>
      <trkpt lat="47.97244" lon="6.77261">
        <ele>841.2</ele>
        <time>2022-07-29T10:17:10Z</time>
      </trkpt>
      <trkpt lat="47.97244" lon="6.77253">
        <ele>841.2</ele>
        <time>2022-07-29T10:17:11Z</time>
      </trkpt>
      <trkpt lat="47.97245" lon="6.77245">
        <ele>841.2</ele>
        <time>2022-07-29T10:17:12Z</time>
      </trkpt>
      <trkpt lat="47.97245" lon="6.77237">
        <ele>841.2</ele>
        <time>2022-07-29T10:17:13Z</time>
      </trkpt>
      <trkpt lat="47.97246" lon="6.77229">
        <ele>841.2</ele>
        <time>2022-07-29T10:17:14Z</time>
      </trkpt>
      <trkpt lat="47.9725" lon="6.77208">
        <ele>841.2</ele>
        <time>2022-07-29T10:17:17Z</time>
      </trkpt>
      <trkpt lat="47.97251" lon="6.77201">
        <ele>841.2</ele>
        <time>2022-07-29T10:17:18Z</time>
      </trkpt>
      <trkpt lat="47.97253" lon="6.77194">
        <ele>841.2</ele>
        <time>2022-07-29T10:17:19Z</time>
      </trkpt>
      <trkpt lat="47.97255" lon="6.77186">
        <ele>841.2</ele>
        <time>2022-07-29T10:17:20Z</time>
      </trkpt>
      <trkpt lat="47.97259" lon="6.77172">
        <ele>841.2</ele>
        <time>2022-07-29T10:17:22Z</time>
      </trkpt>
      <trkpt lat="47.97261" lon="6.77165">
        <ele>841.2</ele>
        <time>2022-07-29T10:17:23Z</time>
      </trkpt>
      <trkpt lat="47.97268" lon="6.77152">
        <ele>840.8</ele>
        <time>2022-07-29T10:17:25Z</time>
      </trkpt>
      <trkpt lat="47.97275" lon="6.77141">
        <ele>840.4</ele>
        <time>2022-07-29T10:17:27Z</time>
      </trkpt>
      <trkpt lat="47.97282" lon="6.77132">
        <ele>840.2</ele>
        <time>2022-07-29T10:17:29Z</time>
      </trkpt>
      <trkpt lat="47.97284" lon="6.77129">
        <ele>839.8</ele>
        <time>2022-07-29T10:17:30Z</time>
      </trkpt>
      <trkpt lat="47.97286" lon="6.77126">
        <ele>839.8</ele>
        <time>2022-07-29T10:17:31Z</time>
      </trkpt>
      <trkpt lat="47.97287" lon="6.77124">
        <ele>839.6</ele>
        <time>2022-07-29T10:17:32Z</time>
      </trkpt>
      <trkpt lat="47.97289" lon="6.77123">
        <ele>839.6</ele>
        <time>2022-07-29T10:17:33Z</time>
      </trkpt>
      <trkpt lat="47.97289" lon="6.77123">
        <ele>839.6</ele>
        <time>2022-07-29T10:17:34Z</time>
      </trkpt>
      <trkpt lat="47.97289" lon="6.77123">
        <ele>839.6</ele>
        <time>2022-07-29T10:17:36Z</time>
      </trkpt>
      <trkpt lat="47.97288" lon="6.77123">
        <ele>839.8</ele>
        <time>2022-07-29T10:17:40Z</time>
      </trkpt>
      <trkpt lat="47.97288" lon="6.77123">
        <ele>839.8</ele>
        <time>2022-07-29T10:17:41Z</time>
      </trkpt>
      <trkpt lat="47.97289" lon="6.77124">
        <ele>840</ele>
        <time>2022-07-29T10:17:48Z</time>
      </trkpt>
      <trkpt lat="47.97289" lon="6.77124">
        <ele>839.4</ele>
        <time>2022-07-29T10:18:22Z</time>
      </trkpt>
      <trkpt lat="47.97289" lon="6.77124">
        <ele>838.8</ele>
        <time>2022-07-29T10:19:11Z</time>
      </trkpt>
      <trkpt lat="47.97289" lon="6.77124">
        <ele>838.8</ele>
        <time>2022-07-29T10:20:03Z</time>
      </trkpt>
      <trkpt lat="47.97289" lon="6.77124">
        <ele>838.8</ele>
        <time>2022-07-29T10:21:12Z</time>
      </trkpt>
      <trkpt lat="47.97289" lon="6.77124">
        <ele>838.6</ele>
        <time>2022-07-29T10:22:09Z</time>
      </trkpt>
      <trkpt lat="47.97289" lon="6.77124">
        <ele>838.4</ele>
        <time>2022-07-29T10:22:40Z</time>
      </trkpt>
      <trkpt lat="47.97289" lon="6.77124">
        <ele>838</ele>
        <time>2022-07-29T10:24:19Z</time>
      </trkpt>
      <trkpt lat="47.97289" lon="6.77124">
        <ele>837.6</ele>
        <time>2022-07-29T10:25:43Z</time>
      </trkpt>
      <trkpt lat="47.97289" lon="6.77121">
        <ele>837.8</ele>
        <time>2022-07-29T10:27:14Z</time>
      </trkpt>
      <trkpt lat="47.9729" lon="6.77119">
        <ele>837.8</ele>
        <time>2022-07-29T10:27:15Z</time>
      </trkpt>
      <trkpt lat="47.97298" lon="6.77107">
        <ele>837.8</ele>
        <time>2022-07-29T10:27:21Z</time>
      </trkpt>
      <trkpt lat="47.97303" lon="6.77099">
        <ele>837.8</ele>
        <time>2022-07-29T10:27:24Z</time>
      </trkpt>
      <trkpt lat="47.97308" lon="6.77091">
        <ele>837.8</ele>
        <time>2022-07-29T10:27:26Z</time>
      </trkpt>
      <trkpt lat="47.97319" lon="6.77072">
        <ele>837.8</ele>
        <time>2022-07-29T10:27:31Z</time>
      </trkpt>
      <trkpt lat="47.97324" lon="6.77067">
        <ele>837.8</ele>
        <time>2022-07-29T10:27:33Z</time>
      </trkpt>
      <trkpt lat="47.9736" lon="6.77033">
        <ele>838</ele>
        <time>2022-07-29T10:27:44Z</time>
      </trkpt>
      <trkpt lat="47.97391" lon="6.77011">
        <ele>838</ele>
        <time>2022-07-29T10:27:52Z</time>
      </trkpt>
      <trkpt lat="47.97409" lon="6.77">
        <ele>838.4</ele>
        <time>2022-07-29T10:27:57Z</time>
      </trkpt>
      <trkpt lat="47.97412" lon="6.76998">
        <ele>838.6</ele>
        <time>2022-07-29T10:27:58Z</time>
      </trkpt>
      <trkpt lat="47.97416" lon="6.76996">
        <ele>838.8</ele>
        <time>2022-07-29T10:27:59Z</time>
      </trkpt>
      <trkpt lat="47.9744" lon="6.76993">
        <ele>839.2</ele>
        <time>2022-07-29T10:28:05Z</time>
      </trkpt>
      <trkpt lat="47.97443" lon="6.76993">
        <ele>839.2</ele>
        <time>2022-07-29T10:28:06Z</time>
      </trkpt>
      <trkpt lat="47.97463" lon="6.76998">
        <ele>839.2</ele>
        <time>2022-07-29T10:28:11Z</time>
      </trkpt>
      <trkpt lat="47.97467" lon="6.77">
        <ele>839.4</ele>
        <time>2022-07-29T10:28:12Z</time>
      </trkpt>
      <trkpt lat="47.9747" lon="6.77002">
        <ele>839.4</ele>
        <time>2022-07-29T10:28:13Z</time>
      </trkpt>
      <trkpt lat="47.97473" lon="6.77003">
        <ele>839.4</ele>
        <time>2022-07-29T10:28:14Z</time>
      </trkpt>
      <trkpt lat="47.97476" lon="6.77006">
        <ele>839.4</ele>
        <time>2022-07-29T10:28:15Z</time>
      </trkpt>
      <trkpt lat="47.97478" lon="6.77008">
        <ele>839.4</ele>
        <time>2022-07-29T10:28:16Z</time>
      </trkpt>
      <trkpt lat="47.97481" lon="6.77009">
        <ele>839.6</ele>
        <time>2022-07-29T10:28:17Z</time>
      </trkpt>
      <trkpt lat="47.97484" lon="6.77011">
        <ele>839.6</ele>
        <time>2022-07-29T10:28:18Z</time>
      </trkpt>
      <trkpt lat="47.9749" lon="6.77014">
        <ele>839.8</ele>
        <time>2022-07-29T10:28:20Z</time>
      </trkpt>
      <trkpt lat="47.97499" lon="6.77019">
        <ele>840.8</ele>
        <time>2022-07-29T10:28:23Z</time>
      </trkpt>
      <trkpt lat="47.97501" lon="6.7702">
        <ele>841</ele>
        <time>2022-07-29T10:28:24Z</time>
      </trkpt>
      <trkpt lat="47.97504" lon="6.77021">
        <ele>841.2</ele>
        <time>2022-07-29T10:28:25Z</time>
      </trkpt>
      <trkpt lat="47.97506" lon="6.77023">
        <ele>841.4</ele>
        <time>2022-07-29T10:28:26Z</time>
      </trkpt>
      <trkpt lat="47.97509" lon="6.77024">
        <ele>841.4</ele>
        <time>2022-07-29T10:28:27Z</time>
      </trkpt>
      <trkpt lat="47.97519" lon="6.77032">
        <ele>841.8</ele>
        <time>2022-07-29T10:28:31Z</time>
      </trkpt>
      <trkpt lat="47.97522" lon="6.77035">
        <ele>842</ele>
        <time>2022-07-29T10:28:32Z</time>
      </trkpt>
      <trkpt lat="47.97526" lon="6.77036">
        <ele>842</ele>
        <time>2022-07-29T10:28:33Z</time>
      </trkpt>
      <trkpt lat="47.9753" lon="6.77036">
        <ele>842.2</ele>
        <time>2022-07-29T10:28:34Z</time>
      </trkpt>
      <trkpt lat="47.97534" lon="6.77036">
        <ele>842.2</ele>
        <time>2022-07-29T10:28:35Z</time>
      </trkpt>
      <trkpt lat="47.97537" lon="6.77035">
        <ele>842.2</ele>
        <time>2022-07-29T10:28:36Z</time>
      </trkpt>
      <trkpt lat="47.9754" lon="6.77035">
        <ele>842.4</ele>
        <time>2022-07-29T10:28:37Z</time>
      </trkpt>
      <trkpt lat="47.97544" lon="6.77035">
        <ele>842.4</ele>
        <time>2022-07-29T10:28:38Z</time>
      </trkpt>
      <trkpt lat="47.97547" lon="6.77035">
        <ele>842.4</ele>
        <time>2022-07-29T10:28:39Z</time>
      </trkpt>
      <trkpt lat="47.97551" lon="6.77033">
        <ele>842.6</ele>
        <time>2022-07-29T10:28:40Z</time>
      </trkpt>
      <trkpt lat="47.97554" lon="6.77031">
        <ele>842.6</ele>
        <time>2022-07-29T10:28:41Z</time>
      </trkpt>
      <trkpt lat="47.97557" lon="6.77028">
        <ele>842.6</ele>
        <time>2022-07-29T10:28:42Z</time>
      </trkpt>
      <trkpt lat="47.97559" lon="6.77025">
        <ele>842.6</ele>
        <time>2022-07-29T10:28:43Z</time>
      </trkpt>
      <trkpt lat="47.97561" lon="6.77022">
        <ele>842.6</ele>
        <time>2022-07-29T10:28:44Z</time>
      </trkpt>
      <trkpt lat="47.97563" lon="6.77018">
        <ele>842.6</ele>
        <time>2022-07-29T10:28:45Z</time>
      </trkpt>
      <trkpt lat="47.97566" lon="6.77014">
        <ele>842.6</ele>
        <time>2022-07-29T10:28:46Z</time>
      </trkpt>
      <trkpt lat="47.97569" lon="6.7701">
        <ele>842.6</ele>
        <time>2022-07-29T10:28:47Z</time>
      </trkpt>
      <trkpt lat="47.97572" lon="6.77006">
        <ele>842.6</ele>
        <time>2022-07-29T10:28:48Z</time>
      </trkpt>
      <trkpt lat="47.97582" lon="6.76999">
        <ele>842.8</ele>
        <time>2022-07-29T10:28:51Z</time>
      </trkpt>
      <trkpt lat="47.97585" lon="6.76998">
        <ele>842.8</ele>
        <time>2022-07-29T10:28:52Z</time>
      </trkpt>
      <trkpt lat="47.97586" lon="6.76996">
        <ele>843</ele>
        <time>2022-07-29T10:28:53Z</time>
      </trkpt>
      <trkpt lat="47.97588" lon="6.76994">
        <ele>843.2</ele>
        <time>2022-07-29T10:28:54Z</time>
      </trkpt>
      <trkpt lat="47.97589" lon="6.76993">
        <ele>843.6</ele>
        <time>2022-07-29T10:28:55Z</time>
      </trkpt>
      <trkpt lat="47.9759" lon="6.76992">
        <ele>843.8</ele>
        <time>2022-07-29T10:28:56Z</time>
      </trkpt>
      <trkpt lat="47.97592" lon="6.76991">
        <ele>844.4</ele>
        <time>2022-07-29T10:28:57Z</time>
      </trkpt>
      <trkpt lat="47.97593" lon="6.7699">
        <ele>844.6</ele>
        <time>2022-07-29T10:28:58Z</time>
      </trkpt>
      <trkpt lat="47.97595" lon="6.76984">
        <ele>845.4</ele>
        <time>2022-07-29T10:29:00Z</time>
      </trkpt>
      <trkpt lat="47.97595" lon="6.76981">
        <ele>845.6</ele>
        <time>2022-07-29T10:29:01Z</time>
      </trkpt>
      <trkpt lat="47.97595" lon="6.76977">
        <ele>846</ele>
        <time>2022-07-29T10:29:02Z</time>
      </trkpt>
      <trkpt lat="47.97596" lon="6.76974">
        <ele>846.2</ele>
        <time>2022-07-29T10:29:03Z</time>
      </trkpt>
      <trkpt lat="47.97597" lon="6.76968">
        <ele>846.2</ele>
        <time>2022-07-29T10:29:04Z</time>
      </trkpt>
      <trkpt lat="47.97597" lon="6.76963">
        <ele>846.4</ele>
        <time>2022-07-29T10:29:05Z</time>
      </trkpt>
      <trkpt lat="47.97598" lon="6.76959">
        <ele>846.6</ele>
        <time>2022-07-29T10:29:06Z</time>
      </trkpt>
      <trkpt lat="47.97602" lon="6.76953">
        <ele>846.6</ele>
        <time>2022-07-29T10:29:07Z</time>
      </trkpt>
      <trkpt lat="47.97603" lon="6.76947">
        <ele>846.8</ele>
        <time>2022-07-29T10:29:08Z</time>
      </trkpt>
      <trkpt lat="47.97604" lon="6.7694">
        <ele>846.8</ele>
        <time>2022-07-29T10:29:09Z</time>
      </trkpt>
      <trkpt lat="47.97605" lon="6.76934">
        <ele>846.8</ele>
        <time>2022-07-29T10:29:10Z</time>
      </trkpt>
      <trkpt lat="47.97607" lon="6.76929">
        <ele>846.8</ele>
        <time>2022-07-29T10:29:11Z</time>
      </trkpt>
      <trkpt lat="47.97607" lon="6.76924">
        <ele>846.8</ele>
        <time>2022-07-29T10:29:12Z</time>
      </trkpt>
      <trkpt lat="47.97609" lon="6.76919">
        <ele>846.8</ele>
        <time>2022-07-29T10:29:13Z</time>
      </trkpt>
      <trkpt lat="47.9761" lon="6.76916">
        <ele>846.8</ele>
        <time>2022-07-29T10:29:14Z</time>
      </trkpt>
      <trkpt lat="47.97611" lon="6.76911">
        <ele>846.6</ele>
        <time>2022-07-29T10:29:15Z</time>
      </trkpt>
      <trkpt lat="47.97613" lon="6.76906">
        <ele>846.6</ele>
        <time>2022-07-29T10:29:16Z</time>
      </trkpt>
      <trkpt lat="47.97616" lon="6.769">
        <ele>846.2</ele>
        <time>2022-07-29T10:29:17Z</time>
      </trkpt>
      <trkpt lat="47.9762" lon="6.76895">
        <ele>846</ele>
        <time>2022-07-29T10:29:18Z</time>
      </trkpt>
      <trkpt lat="47.97623" lon="6.7689">
        <ele>846</ele>
        <time>2022-07-29T10:29:19Z</time>
      </trkpt>
      <trkpt lat="47.97626" lon="6.76886">
        <ele>846</ele>
        <time>2022-07-29T10:29:20Z</time>
      </trkpt>
      <trkpt lat="47.97626" lon="6.76883">
        <ele>846</ele>
        <time>2022-07-29T10:29:21Z</time>
      </trkpt>
      <trkpt lat="47.97625" lon="6.7688">
        <ele>845.8</ele>
        <time>2022-07-29T10:29:22Z</time>
      </trkpt>
      <trkpt lat="47.97625" lon="6.76878">
        <ele>845.8</ele>
        <time>2022-07-29T10:29:23Z</time>
      </trkpt>
      <trkpt lat="47.97625" lon="6.76878">
        <ele>845.8</ele>
        <time>2022-07-29T10:29:24Z</time>
      </trkpt>
      <trkpt lat="47.97625" lon="6.76878">
        <ele>845.8</ele>
        <time>2022-07-29T10:29:25Z</time>
      </trkpt>
      <trkpt lat="47.97625" lon="6.76878">
        <ele>845.6</ele>
        <time>2022-07-29T10:29:26Z</time>
      </trkpt>
      <trkpt lat="47.97625" lon="6.76875">
        <ele>846.4</ele>
        <time>2022-07-29T10:29:31Z</time>
      </trkpt>
      <trkpt lat="47.97627" lon="6.76868">
        <ele>846.4</ele>
        <time>2022-07-29T10:29:33Z</time>
      </trkpt>
      <trkpt lat="47.97631" lon="6.76855">
        <ele>846.2</ele>
        <time>2022-07-29T10:29:36Z</time>
      </trkpt>
      <trkpt lat="47.97635" lon="6.76844">
        <ele>846</ele>
        <time>2022-07-29T10:29:38Z</time>
      </trkpt>
      <trkpt lat="47.97639" lon="6.76832">
        <ele>845.4</ele>
        <time>2022-07-29T10:29:40Z</time>
      </trkpt>
      <trkpt lat="47.97645" lon="6.76811">
        <ele>844.2</ele>
        <time>2022-07-29T10:29:43Z</time>
      </trkpt>
      <trkpt lat="47.97646" lon="6.76803">
        <ele>843.6</ele>
        <time>2022-07-29T10:29:44Z</time>
      </trkpt>
      <trkpt lat="47.97646" lon="6.76785">
        <ele>842.8</ele>
        <time>2022-07-29T10:29:46Z</time>
      </trkpt>
      <trkpt lat="47.97646" lon="6.76777">
        <ele>842</ele>
        <time>2022-07-29T10:29:47Z</time>
      </trkpt>
      <trkpt lat="47.97646" lon="6.76769">
        <ele>841.8</ele>
        <time>2022-07-29T10:29:48Z</time>
      </trkpt>
      <trkpt lat="47.97646" lon="6.76761">
        <ele>840.4</ele>
        <time>2022-07-29T10:29:49Z</time>
      </trkpt>
      <trkpt lat="47.97647" lon="6.76743">
        <ele>839</ele>
        <time>2022-07-29T10:29:51Z</time>
      </trkpt>
      <trkpt lat="47.97648" lon="6.76735">
        <ele>838.6</ele>
        <time>2022-07-29T10:29:52Z</time>
      </trkpt>
      <trkpt lat="47.9765" lon="6.76728">
        <ele>837.8</ele>
        <time>2022-07-29T10:29:53Z</time>
      </trkpt>
      <trkpt lat="47.97652" lon="6.76722">
        <ele>837.2</ele>
        <time>2022-07-29T10:29:55Z</time>
      </trkpt>
      <trkpt lat="47.97655" lon="6.76715">
        <ele>837</ele>
        <time>2022-07-29T10:29:56Z</time>
      </trkpt>
      <trkpt lat="47.97656" lon="6.76708">
        <ele>836.8</ele>
        <time>2022-07-29T10:29:57Z</time>
      </trkpt>
      <trkpt lat="47.97657" lon="6.76702">
        <ele>836.6</ele>
        <time>2022-07-29T10:29:58Z</time>
      </trkpt>
      <trkpt lat="47.97658" lon="6.76697">
        <ele>836.4</ele>
        <time>2022-07-29T10:29:59Z</time>
      </trkpt>
      <trkpt lat="47.97658" lon="6.76692">
        <ele>836.2</ele>
        <time>2022-07-29T10:30:00Z</time>
      </trkpt>
      <trkpt lat="47.97659" lon="6.76686">
        <ele>836.2</ele>
        <time>2022-07-29T10:30:01Z</time>
      </trkpt>
      <trkpt lat="47.97659" lon="6.76682">
        <ele>836.2</ele>
        <time>2022-07-29T10:30:02Z</time>
      </trkpt>
      <trkpt lat="47.97659" lon="6.76677">
        <ele>836.2</ele>
        <time>2022-07-29T10:30:03Z</time>
      </trkpt>
      <trkpt lat="47.9766" lon="6.76671">
        <ele>836.2</ele>
        <time>2022-07-29T10:30:04Z</time>
      </trkpt>
      <trkpt lat="47.97662" lon="6.76656">
        <ele>836.2</ele>
        <time>2022-07-29T10:30:06Z</time>
      </trkpt>
      <trkpt lat="47.97668" lon="6.76608">
        <ele>835.4</ele>
        <time>2022-07-29T10:30:11Z</time>
      </trkpt>
      <trkpt lat="47.97671" lon="6.76577">
        <ele>834.2</ele>
        <time>2022-07-29T10:30:14Z</time>
      </trkpt>
      <trkpt lat="47.9767" lon="6.7657">
        <ele>833.2</ele>
        <time>2022-07-29T10:30:15Z</time>
      </trkpt>
      <trkpt lat="47.97669" lon="6.76565">
        <ele>833</ele>
        <time>2022-07-29T10:30:16Z</time>
      </trkpt>
      <trkpt lat="47.97669" lon="6.76561">
        <ele>832.4</ele>
        <time>2022-07-29T10:30:17Z</time>
      </trkpt>
      <trkpt lat="47.9767" lon="6.76555">
        <ele>832</ele>
        <time>2022-07-29T10:30:18Z</time>
      </trkpt>
      <trkpt lat="47.9767" lon="6.76547">
        <ele>831.4</ele>
        <time>2022-07-29T10:30:19Z</time>
      </trkpt>
      <trkpt lat="47.97667" lon="6.76531">
        <ele>830.8</ele>
        <time>2022-07-29T10:30:21Z</time>
      </trkpt>
      <trkpt lat="47.97665" lon="6.76523">
        <ele>830.4</ele>
        <time>2022-07-29T10:30:22Z</time>
      </trkpt>
      <trkpt lat="47.97664" lon="6.76511">
        <ele>829.2</ele>
        <time>2022-07-29T10:30:24Z</time>
      </trkpt>
      <trkpt lat="47.97665" lon="6.76504">
        <ele>828.8</ele>
        <time>2022-07-29T10:30:25Z</time>
      </trkpt>
      <trkpt lat="47.97666" lon="6.76496">
        <ele>828.2</ele>
        <time>2022-07-29T10:30:26Z</time>
      </trkpt>
      <trkpt lat="47.97665" lon="6.76487">
        <ele>828</ele>
        <time>2022-07-29T10:30:27Z</time>
      </trkpt>
      <trkpt lat="47.97665" lon="6.76471">
        <ele>827.2</ele>
        <time>2022-07-29T10:30:29Z</time>
      </trkpt>
      <trkpt lat="47.97665" lon="6.76464">
        <ele>827</ele>
        <time>2022-07-29T10:30:30Z</time>
      </trkpt>
      <trkpt lat="47.97664" lon="6.76451">
        <ele>826.8</ele>
        <time>2022-07-29T10:30:32Z</time>
      </trkpt>
      <trkpt lat="47.97664" lon="6.76444">
        <ele>826.8</ele>
        <time>2022-07-29T10:30:33Z</time>
      </trkpt>
      <trkpt lat="47.97664" lon="6.76437">
        <ele>826.8</ele>
        <time>2022-07-29T10:30:34Z</time>
      </trkpt>
      <trkpt lat="47.97662" lon="6.76421">
        <ele>826.6</ele>
        <time>2022-07-29T10:30:36Z</time>
      </trkpt>
      <trkpt lat="47.97661" lon="6.76399">
        <ele>826.2</ele>
        <time>2022-07-29T10:30:39Z</time>
      </trkpt>
      <trkpt lat="47.9766" lon="6.76384">
        <ele>826.2</ele>
        <time>2022-07-29T10:30:41Z</time>
      </trkpt>
      <trkpt lat="47.9766" lon="6.76365">
        <ele>826</ele>
        <time>2022-07-29T10:30:44Z</time>
      </trkpt>
      <trkpt lat="47.97661" lon="6.76332">
        <ele>826.2</ele>
        <time>2022-07-29T10:30:49Z</time>
      </trkpt>
      <trkpt lat="47.97661" lon="6.76326">
        <ele>826.2</ele>
        <time>2022-07-29T10:30:50Z</time>
      </trkpt>
      <trkpt lat="47.97661" lon="6.7632">
        <ele>826</ele>
        <time>2022-07-29T10:30:51Z</time>
      </trkpt>
      <trkpt lat="47.9766" lon="6.76312">
        <ele>825.8</ele>
        <time>2022-07-29T10:30:52Z</time>
      </trkpt>
      <trkpt lat="47.9766" lon="6.76295">
        <ele>825.6</ele>
        <time>2022-07-29T10:30:54Z</time>
      </trkpt>
      <trkpt lat="47.97658" lon="6.7628">
        <ele>825.2</ele>
        <time>2022-07-29T10:30:56Z</time>
      </trkpt>
      <trkpt lat="47.97657" lon="6.76273">
        <ele>825</ele>
        <time>2022-07-29T10:30:57Z</time>
      </trkpt>
      <trkpt lat="47.97656" lon="6.76267">
        <ele>824.8</ele>
        <time>2022-07-29T10:30:58Z</time>
      </trkpt>
      <trkpt lat="47.97655" lon="6.7626">
        <ele>824.6</ele>
        <time>2022-07-29T10:30:59Z</time>
      </trkpt>
      <trkpt lat="47.97655" lon="6.76255">
        <ele>824.6</ele>
        <time>2022-07-29T10:31:00Z</time>
      </trkpt>
      <trkpt lat="47.97655" lon="6.7625">
        <ele>824.4</ele>
        <time>2022-07-29T10:31:01Z</time>
      </trkpt>
      <trkpt lat="47.97654" lon="6.76244">
        <ele>824.4</ele>
        <time>2022-07-29T10:31:02Z</time>
      </trkpt>
      <trkpt lat="47.97653" lon="6.76237">
        <ele>824.4</ele>
        <time>2022-07-29T10:31:03Z</time>
      </trkpt>
      <trkpt lat="47.9765" lon="6.76211">
        <ele>824.4</ele>
        <time>2022-07-29T10:31:07Z</time>
      </trkpt>
      <trkpt lat="47.97643" lon="6.76172">
        <ele>824.4</ele>
        <time>2022-07-29T10:31:13Z</time>
      </trkpt>
      <trkpt lat="47.97641" lon="6.76163">
        <ele>824.4</ele>
        <time>2022-07-29T10:31:14Z</time>
      </trkpt>
      <trkpt lat="47.97635" lon="6.76132">
        <ele>824.4</ele>
        <time>2022-07-29T10:31:17Z</time>
      </trkpt>
      <trkpt lat="47.9763" lon="6.76114">
        <ele>823.8</ele>
        <time>2022-07-29T10:31:19Z</time>
      </trkpt>
      <trkpt lat="47.97629" lon="6.76108">
        <ele>823.2</ele>
        <time>2022-07-29T10:31:20Z</time>
      </trkpt>
      <trkpt lat="47.9763" lon="6.76103">
        <ele>823</ele>
        <time>2022-07-29T10:31:21Z</time>
      </trkpt>
      <trkpt lat="47.9763" lon="6.76098">
        <ele>822.8</ele>
        <time>2022-07-29T10:31:22Z</time>
      </trkpt>
      <trkpt lat="47.97631" lon="6.76092">
        <ele>822.8</ele>
        <time>2022-07-29T10:31:23Z</time>
      </trkpt>
      <trkpt lat="47.97633" lon="6.76087">
        <ele>822.6</ele>
        <time>2022-07-29T10:31:24Z</time>
      </trkpt>
      <trkpt lat="47.97634" lon="6.76081">
        <ele>822.2</ele>
        <time>2022-07-29T10:31:25Z</time>
      </trkpt>
      <trkpt lat="47.97634" lon="6.76065">
        <ele>821.8</ele>
        <time>2022-07-29T10:31:28Z</time>
      </trkpt>
      <trkpt lat="47.97632" lon="6.76061">
        <ele>821.8</ele>
        <time>2022-07-29T10:31:29Z</time>
      </trkpt>
      <trkpt lat="47.97629" lon="6.76058">
        <ele>821.8</ele>
        <time>2022-07-29T10:31:30Z</time>
      </trkpt>
      <trkpt lat="47.97627" lon="6.76058">
        <ele>821.8</ele>
        <time>2022-07-29T10:31:31Z</time>
      </trkpt>
      <trkpt lat="47.97624" lon="6.76057">
        <ele>821.8</ele>
        <time>2022-07-29T10:31:32Z</time>
      </trkpt>
      <trkpt lat="47.9762" lon="6.76058">
        <ele>821.6</ele>
        <time>2022-07-29T10:31:33Z</time>
      </trkpt>
      <trkpt lat="47.97618" lon="6.7606">
        <ele>821.6</ele>
        <time>2022-07-29T10:31:34Z</time>
      </trkpt>
      <trkpt lat="47.97615" lon="6.76064">
        <ele>821.4</ele>
        <time>2022-07-29T10:31:35Z</time>
      </trkpt>
      <trkpt lat="47.97614" lon="6.76067">
        <ele>821.2</ele>
        <time>2022-07-29T10:31:36Z</time>
      </trkpt>
      <trkpt lat="47.97614" lon="6.76072">
        <ele>821.2</ele>
        <time>2022-07-29T10:31:37Z</time>
      </trkpt>
      <trkpt lat="47.97615" lon="6.76079">
        <ele>820.8</ele>
        <time>2022-07-29T10:31:38Z</time>
      </trkpt>
      <trkpt lat="47.97615" lon="6.76086">
        <ele>820.4</ele>
        <time>2022-07-29T10:31:39Z</time>
      </trkpt>
      <trkpt lat="47.97615" lon="6.76097">
        <ele>820.2</ele>
        <time>2022-07-29T10:31:40Z</time>
      </trkpt>
      <trkpt lat="47.97615" lon="6.76117">
        <ele>818.2</ele>
        <time>2022-07-29T10:31:42Z</time>
      </trkpt>
      <trkpt lat="47.97615" lon="6.76129">
        <ele>817</ele>
        <time>2022-07-29T10:31:43Z</time>
      </trkpt>
      <trkpt lat="47.97616" lon="6.76145">
        <ele>815.8</ele>
        <time>2022-07-29T10:31:45Z</time>
      </trkpt>
      <trkpt lat="47.97615" lon="6.7615">
        <ele>815.4</ele>
        <time>2022-07-29T10:31:46Z</time>
      </trkpt>
      <trkpt lat="47.97614" lon="6.76154">
        <ele>814.6</ele>
        <time>2022-07-29T10:31:47Z</time>
      </trkpt>
      <trkpt lat="47.97613" lon="6.76157">
        <ele>814</ele>
        <time>2022-07-29T10:31:48Z</time>
      </trkpt>
      <trkpt lat="47.97612" lon="6.76162">
        <ele>813.4</ele>
        <time>2022-07-29T10:31:49Z</time>
      </trkpt>
      <trkpt lat="47.97611" lon="6.76166">
        <ele>812.8</ele>
        <time>2022-07-29T10:31:50Z</time>
      </trkpt>
      <trkpt lat="47.97611" lon="6.76172">
        <ele>811.6</ele>
        <time>2022-07-29T10:31:51Z</time>
      </trkpt>
      <trkpt lat="47.97611" lon="6.76179">
        <ele>811</ele>
        <time>2022-07-29T10:31:52Z</time>
      </trkpt>
      <trkpt lat="47.97611" lon="6.76185">
        <ele>810.8</ele>
        <time>2022-07-29T10:31:53Z</time>
      </trkpt>
      <trkpt lat="47.9761" lon="6.7619">
        <ele>810.2</ele>
        <time>2022-07-29T10:31:54Z</time>
      </trkpt>
      <trkpt lat="47.9761" lon="6.76196">
        <ele>810</ele>
        <time>2022-07-29T10:31:55Z</time>
      </trkpt>
      <trkpt lat="47.9761" lon="6.76204">
        <ele>809.8</ele>
        <time>2022-07-29T10:31:56Z</time>
      </trkpt>
      <trkpt lat="47.97609" lon="6.76217">
        <ele>809.2</ele>
        <time>2022-07-29T10:31:58Z</time>
      </trkpt>
      <trkpt lat="47.97608" lon="6.76235">
        <ele>807</ele>
        <time>2022-07-29T10:32:01Z</time>
      </trkpt>
      <trkpt lat="47.97608" lon="6.76241">
        <ele>806.6</ele>
        <time>2022-07-29T10:32:02Z</time>
      </trkpt>
      <trkpt lat="47.97607" lon="6.76257">
        <ele>805.8</ele>
        <time>2022-07-29T10:32:04Z</time>
      </trkpt>
      <trkpt lat="47.97606" lon="6.76273">
        <ele>805.2</ele>
        <time>2022-07-29T10:32:06Z</time>
      </trkpt>
      <trkpt lat="47.97605" lon="6.76281">
        <ele>804.8</ele>
        <time>2022-07-29T10:32:07Z</time>
      </trkpt>
      <trkpt lat="47.97604" lon="6.76289">
        <ele>804.6</ele>
        <time>2022-07-29T10:32:08Z</time>
      </trkpt>
      <trkpt lat="47.97604" lon="6.76299">
        <ele>804.4</ele>
        <time>2022-07-29T10:32:09Z</time>
      </trkpt>
      <trkpt lat="47.97603" lon="6.76308">
        <ele>804</ele>
        <time>2022-07-29T10:32:10Z</time>
      </trkpt>
      <trkpt lat="47.97602" lon="6.76315">
        <ele>803.4</ele>
        <time>2022-07-29T10:32:11Z</time>
      </trkpt>
      <trkpt lat="47.97601" lon="6.76318">
        <ele>802.6</ele>
        <time>2022-07-29T10:32:12Z</time>
      </trkpt>
      <trkpt lat="47.976" lon="6.7632">
        <ele>802.4</ele>
        <time>2022-07-29T10:32:13Z</time>
      </trkpt>
      <trkpt lat="47.97597" lon="6.76319">
        <ele>801.8</ele>
        <time>2022-07-29T10:32:14Z</time>
      </trkpt>
      <trkpt lat="47.97596" lon="6.76316">
        <ele>801.4</ele>
        <time>2022-07-29T10:32:15Z</time>
      </trkpt>
      <trkpt lat="47.97595" lon="6.76313">
        <ele>801</ele>
        <time>2022-07-29T10:32:16Z</time>
      </trkpt>
      <trkpt lat="47.97594" lon="6.76309">
        <ele>800.8</ele>
        <time>2022-07-29T10:32:17Z</time>
      </trkpt>
      <trkpt lat="47.97592" lon="6.76303">
        <ele>800.2</ele>
        <time>2022-07-29T10:32:18Z</time>
      </trkpt>
      <trkpt lat="47.9759" lon="6.76295">
        <ele>799.8</ele>
        <time>2022-07-29T10:32:19Z</time>
      </trkpt>
      <trkpt lat="47.97588" lon="6.76284">
        <ele>799.6</ele>
        <time>2022-07-29T10:32:20Z</time>
      </trkpt>
      <trkpt lat="47.97585" lon="6.76263">
        <ele>798.8</ele>
        <time>2022-07-29T10:32:22Z</time>
      </trkpt>
      <trkpt lat="47.97583" lon="6.76253">
        <ele>797.4</ele>
        <time>2022-07-29T10:32:23Z</time>
      </trkpt>
      <trkpt lat="47.9758" lon="6.76243">
        <ele>797</ele>
        <time>2022-07-29T10:32:24Z</time>
      </trkpt>
      <trkpt lat="47.97577" lon="6.76233">
        <ele>795.8</ele>
        <time>2022-07-29T10:32:25Z</time>
      </trkpt>
      <trkpt lat="47.97569" lon="6.76213">
        <ele>794.4</ele>
        <time>2022-07-29T10:32:27Z</time>
      </trkpt>
      <trkpt lat="47.97562" lon="6.76193">
        <ele>793.6</ele>
        <time>2022-07-29T10:32:29Z</time>
      </trkpt>
      <trkpt lat="47.97559" lon="6.76183">
        <ele>793</ele>
        <time>2022-07-29T10:32:30Z</time>
      </trkpt>
      <trkpt lat="47.97554" lon="6.76164">
        <ele>791.8</ele>
        <time>2022-07-29T10:32:32Z</time>
      </trkpt>
      <trkpt lat="47.97552" lon="6.76154">
        <ele>791.8</ele>
        <time>2022-07-29T10:32:33Z</time>
      </trkpt>
      <trkpt lat="47.97551" lon="6.76146">
        <ele>791.2</ele>
        <time>2022-07-29T10:32:34Z</time>
      </trkpt>
      <trkpt lat="47.9755" lon="6.76138">
        <ele>791.4</ele>
        <time>2022-07-29T10:32:35Z</time>
      </trkpt>
      <trkpt lat="47.97549" lon="6.7613">
        <ele>791.2</ele>
        <time>2022-07-29T10:32:36Z</time>
      </trkpt>
      <trkpt lat="47.97548" lon="6.76122">
        <ele>791</ele>
        <time>2022-07-29T10:32:37Z</time>
      </trkpt>
      <trkpt lat="47.97547" lon="6.76114">
        <ele>791.2</ele>
        <time>2022-07-29T10:32:38Z</time>
      </trkpt>
      <trkpt lat="47.97546" lon="6.76107">
        <ele>791.2</ele>
        <time>2022-07-29T10:32:39Z</time>
      </trkpt>
      <trkpt lat="47.97545" lon="6.761">
        <ele>791.2</ele>
        <time>2022-07-29T10:32:40Z</time>
      </trkpt>
      <trkpt lat="47.97543" lon="6.76093">
        <ele>791.2</ele>
        <time>2022-07-29T10:32:41Z</time>
      </trkpt>
      <trkpt lat="47.97541" lon="6.76079">
        <ele>791.4</ele>
        <time>2022-07-29T10:32:43Z</time>
      </trkpt>
      <trkpt lat="47.9754" lon="6.76073">
        <ele>791.4</ele>
        <time>2022-07-29T10:32:44Z</time>
      </trkpt>
      <trkpt lat="47.97539" lon="6.76067">
        <ele>791.4</ele>
        <time>2022-07-29T10:32:45Z</time>
      </trkpt>
      <trkpt lat="47.97538" lon="6.76061">
        <ele>791.4</ele>
        <time>2022-07-29T10:32:46Z</time>
      </trkpt>
      <trkpt lat="47.97538" lon="6.76055">
        <ele>791.4</ele>
        <time>2022-07-29T10:32:47Z</time>
      </trkpt>
      <trkpt lat="47.97537" lon="6.7605">
        <ele>791.4</ele>
        <time>2022-07-29T10:32:48Z</time>
      </trkpt>
      <trkpt lat="47.97536" lon="6.76044">
        <ele>791.4</ele>
        <time>2022-07-29T10:32:49Z</time>
      </trkpt>
      <trkpt lat="47.97535" lon="6.76038">
        <ele>791.4</ele>
        <time>2022-07-29T10:32:50Z</time>
      </trkpt>
      <trkpt lat="47.97532" lon="6.7602">
        <ele>791.4</ele>
        <time>2022-07-29T10:32:53Z</time>
      </trkpt>
      <trkpt lat="47.97532" lon="6.75994">
        <ele>791.4</ele>
        <time>2022-07-29T10:32:57Z</time>
      </trkpt>
      <trkpt lat="47.97535" lon="6.75983">
        <ele>791.2</ele>
        <time>2022-07-29T10:32:59Z</time>
      </trkpt>
      <trkpt lat="47.97536" lon="6.75977">
        <ele>791.2</ele>
        <time>2022-07-29T10:33:00Z</time>
      </trkpt>
      <trkpt lat="47.97539" lon="6.75969">
        <ele>791</ele>
        <time>2022-07-29T10:33:01Z</time>
      </trkpt>
      <trkpt lat="47.97541" lon="6.75964">
        <ele>790.6</ele>
        <time>2022-07-29T10:33:02Z</time>
      </trkpt>
      <trkpt lat="47.97548" lon="6.75948">
        <ele>790.4</ele>
        <time>2022-07-29T10:33:05Z</time>
      </trkpt>
      <trkpt lat="47.9756" lon="6.75925">
        <ele>789.8</ele>
        <time>2022-07-29T10:33:09Z</time>
      </trkpt>
      <trkpt lat="47.97562" lon="6.75919">
        <ele>789.8</ele>
        <time>2022-07-29T10:33:10Z</time>
      </trkpt>
      <trkpt lat="47.97567" lon="6.75907">
        <ele>789.6</ele>
        <time>2022-07-29T10:33:12Z</time>
      </trkpt>
      <trkpt lat="47.97569" lon="6.75901">
        <ele>789.2</ele>
        <time>2022-07-29T10:33:13Z</time>
      </trkpt>
      <trkpt lat="47.97575" lon="6.75877">
        <ele>788.8</ele>
        <time>2022-07-29T10:33:16Z</time>
      </trkpt>
      <trkpt lat="47.97576" lon="6.75869">
        <ele>788.8</ele>
        <time>2022-07-29T10:33:17Z</time>
      </trkpt>
      <trkpt lat="47.97582" lon="6.75816">
        <ele>787.6</ele>
        <time>2022-07-29T10:33:22Z</time>
      </trkpt>
      <trkpt lat="47.97589" lon="6.75783">
        <ele>786.4</ele>
        <time>2022-07-29T10:33:25Z</time>
      </trkpt>
      <trkpt lat="47.97594" lon="6.7576">
        <ele>785.2</ele>
        <time>2022-07-29T10:33:27Z</time>
      </trkpt>
      <trkpt lat="47.97596" lon="6.75748">
        <ele>784.8</ele>
        <time>2022-07-29T10:33:28Z</time>
      </trkpt>
      <trkpt lat="47.97598" lon="6.75736">
        <ele>784.2</ele>
        <time>2022-07-29T10:33:29Z</time>
      </trkpt>
      <trkpt lat="47.97601" lon="6.75725">
        <ele>784</ele>
        <time>2022-07-29T10:33:30Z</time>
      </trkpt>
      <trkpt lat="47.97605" lon="6.75702">
        <ele>782.8</ele>
        <time>2022-07-29T10:33:32Z</time>
      </trkpt>
      <trkpt lat="47.9761" lon="6.7567">
        <ele>781.6</ele>
        <time>2022-07-29T10:33:35Z</time>
      </trkpt>
      <trkpt lat="47.97612" lon="6.7566">
        <ele>781.2</ele>
        <time>2022-07-29T10:33:36Z</time>
      </trkpt>
      <trkpt lat="47.97614" lon="6.7565">
        <ele>781</ele>
        <time>2022-07-29T10:33:37Z</time>
      </trkpt>
      <trkpt lat="47.97616" lon="6.75642">
        <ele>780.6</ele>
        <time>2022-07-29T10:33:38Z</time>
      </trkpt>
      <trkpt lat="47.97617" lon="6.75635">
        <ele>780.6</ele>
        <time>2022-07-29T10:33:39Z</time>
      </trkpt>
      <trkpt lat="47.97618" lon="6.7563">
        <ele>780.4</ele>
        <time>2022-07-29T10:33:40Z</time>
      </trkpt>
      <trkpt lat="47.97617" lon="6.75626">
        <ele>780.4</ele>
        <time>2022-07-29T10:33:41Z</time>
      </trkpt>
      <trkpt lat="47.97616" lon="6.75623">
        <ele>780.2</ele>
        <time>2022-07-29T10:33:42Z</time>
      </trkpt>
      <trkpt lat="47.97614" lon="6.75619">
        <ele>780.2</ele>
        <time>2022-07-29T10:33:43Z</time>
      </trkpt>
      <trkpt lat="47.97611" lon="6.75616">
        <ele>780</ele>
        <time>2022-07-29T10:33:44Z</time>
      </trkpt>
      <trkpt lat="47.97608" lon="6.75612">
        <ele>780</ele>
        <time>2022-07-29T10:33:45Z</time>
      </trkpt>
      <trkpt lat="47.97606" lon="6.75608">
        <ele>779.8</ele>
        <time>2022-07-29T10:33:46Z</time>
      </trkpt>
      <trkpt lat="47.97601" lon="6.75598">
        <ele>779.6</ele>
        <time>2022-07-29T10:33:48Z</time>
      </trkpt>
      <trkpt lat="47.97598" lon="6.75592">
        <ele>779.4</ele>
        <time>2022-07-29T10:33:49Z</time>
      </trkpt>
      <trkpt lat="47.97596" lon="6.75587">
        <ele>779.4</ele>
        <time>2022-07-29T10:33:50Z</time>
      </trkpt>
      <trkpt lat="47.97593" lon="6.75582">
        <ele>779.2</ele>
        <time>2022-07-29T10:33:51Z</time>
      </trkpt>
      <trkpt lat="47.97586" lon="6.75571">
        <ele>778.8</ele>
        <time>2022-07-29T10:33:53Z</time>
      </trkpt>
      <trkpt lat="47.97581" lon="6.75556">
        <ele>778.4</ele>
        <time>2022-07-29T10:33:55Z</time>
      </trkpt>
      <trkpt lat="47.97579" lon="6.75549">
        <ele>777.8</ele>
        <time>2022-07-29T10:33:56Z</time>
      </trkpt>
      <trkpt lat="47.97578" lon="6.75541">
        <ele>777.2</ele>
        <time>2022-07-29T10:33:57Z</time>
      </trkpt>
      <trkpt lat="47.97577" lon="6.75533">
        <ele>776.2</ele>
        <time>2022-07-29T10:33:58Z</time>
      </trkpt>
      <trkpt lat="47.97577" lon="6.75523">
        <ele>775.8</ele>
        <time>2022-07-29T10:33:59Z</time>
      </trkpt>
      <trkpt lat="47.97576" lon="6.75515">
        <ele>775.2</ele>
        <time>2022-07-29T10:34:00Z</time>
      </trkpt>
      <trkpt lat="47.97576" lon="6.75505">
        <ele>775.2</ele>
        <time>2022-07-29T10:34:01Z</time>
      </trkpt>
      <trkpt lat="47.97575" lon="6.75471">
        <ele>774</ele>
        <time>2022-07-29T10:34:04Z</time>
      </trkpt>
      <trkpt lat="47.97576" lon="6.75447">
        <ele>772.8</ele>
        <time>2022-07-29T10:34:06Z</time>
      </trkpt>
      <trkpt lat="47.97576" lon="6.75436">
        <ele>772</ele>
        <time>2022-07-29T10:34:07Z</time>
      </trkpt>
      <trkpt lat="47.97576" lon="6.75413">
        <ele>771</ele>
        <time>2022-07-29T10:34:09Z</time>
      </trkpt>
      <trkpt lat="47.97577" lon="6.75401">
        <ele>770.4</ele>
        <time>2022-07-29T10:34:10Z</time>
      </trkpt>
      <trkpt lat="47.97578" lon="6.7539">
        <ele>769.8</ele>
        <time>2022-07-29T10:34:11Z</time>
      </trkpt>
      <trkpt lat="47.97582" lon="6.75355">
        <ele>767.8</ele>
        <time>2022-07-29T10:34:14Z</time>
      </trkpt>
      <trkpt lat="47.97588" lon="6.75334">
        <ele>767</ele>
        <time>2022-07-29T10:34:16Z</time>
      </trkpt>
      <trkpt lat="47.97604" lon="6.75296">
        <ele>766</ele>
        <time>2022-07-29T10:34:20Z</time>
      </trkpt>
      <trkpt lat="47.97607" lon="6.75287">
        <ele>765.8</ele>
        <time>2022-07-29T10:34:21Z</time>
      </trkpt>
      <trkpt lat="47.97611" lon="6.75278">
        <ele>765.4</ele>
        <time>2022-07-29T10:34:22Z</time>
      </trkpt>
      <trkpt lat="47.97613" lon="6.75269">
        <ele>765</ele>
        <time>2022-07-29T10:34:23Z</time>
      </trkpt>
      <trkpt lat="47.97616" lon="6.7526">
        <ele>764.6</ele>
        <time>2022-07-29T10:34:24Z</time>
      </trkpt>
      <trkpt lat="47.97618" lon="6.75251">
        <ele>764</ele>
        <time>2022-07-29T10:34:25Z</time>
      </trkpt>
      <trkpt lat="47.97622" lon="6.75243">
        <ele>763.6</ele>
        <time>2022-07-29T10:34:26Z</time>
      </trkpt>
      <trkpt lat="47.97625" lon="6.75228">
        <ele>762.2</ele>
        <time>2022-07-29T10:34:28Z</time>
      </trkpt>
      <trkpt lat="47.97626" lon="6.75222">
        <ele>761</ele>
        <time>2022-07-29T10:34:29Z</time>
      </trkpt>
      <trkpt lat="47.97625" lon="6.75217">
        <ele>760.6</ele>
        <time>2022-07-29T10:34:30Z</time>
      </trkpt>
      <trkpt lat="47.97623" lon="6.75213">
        <ele>759.6</ele>
        <time>2022-07-29T10:34:31Z</time>
      </trkpt>
      <trkpt lat="47.9762" lon="6.75211">
        <ele>758.8</ele>
        <time>2022-07-29T10:34:32Z</time>
      </trkpt>
      <trkpt lat="47.97616" lon="6.75211">
        <ele>758.4</ele>
        <time>2022-07-29T10:34:33Z</time>
      </trkpt>
      <trkpt lat="47.97611" lon="6.75211">
        <ele>758</ele>
        <time>2022-07-29T10:34:34Z</time>
      </trkpt>
      <trkpt lat="47.97602" lon="6.75215">
        <ele>757.6</ele>
        <time>2022-07-29T10:34:36Z</time>
      </trkpt>
      <trkpt lat="47.97598" lon="6.75218">
        <ele>757.4</ele>
        <time>2022-07-29T10:34:37Z</time>
      </trkpt>
      <trkpt lat="47.97594" lon="6.7522">
        <ele>756.4</ele>
        <time>2022-07-29T10:34:38Z</time>
      </trkpt>
      <trkpt lat="47.9759" lon="6.75222">
        <ele>756</ele>
        <time>2022-07-29T10:34:39Z</time>
      </trkpt>
      <trkpt lat="47.97582" lon="6.75227">
        <ele>755.2</ele>
        <time>2022-07-29T10:34:41Z</time>
      </trkpt>
      <trkpt lat="47.97574" lon="6.75232">
        <ele>754.8</ele>
        <time>2022-07-29T10:34:43Z</time>
      </trkpt>
      <trkpt lat="47.97566" lon="6.75237">
        <ele>754.6</ele>
        <time>2022-07-29T10:34:45Z</time>
      </trkpt>
      <trkpt lat="47.97561" lon="6.75241">
        <ele>754.4</ele>
        <time>2022-07-29T10:34:46Z</time>
      </trkpt>
      <trkpt lat="47.97557" lon="6.75245">
        <ele>754.2</ele>
        <time>2022-07-29T10:34:47Z</time>
      </trkpt>
      <trkpt lat="47.97551" lon="6.75255">
        <ele>754</ele>
        <time>2022-07-29T10:34:49Z</time>
      </trkpt>
      <trkpt lat="47.97548" lon="6.7526">
        <ele>753.8</ele>
        <time>2022-07-29T10:34:50Z</time>
      </trkpt>
      <trkpt lat="47.97541" lon="6.75269">
        <ele>753.4</ele>
        <time>2022-07-29T10:34:52Z</time>
      </trkpt>
      <trkpt lat="47.97534" lon="6.75281">
        <ele>753</ele>
        <time>2022-07-29T10:34:54Z</time>
      </trkpt>
      <trkpt lat="47.97531" lon="6.75288">
        <ele>753</ele>
        <time>2022-07-29T10:34:55Z</time>
      </trkpt>
      <trkpt lat="47.97525" lon="6.75302">
        <ele>752.6</ele>
        <time>2022-07-29T10:34:57Z</time>
      </trkpt>
      <trkpt lat="47.9752" lon="6.75317">
        <ele>752</ele>
        <time>2022-07-29T10:34:59Z</time>
      </trkpt>
      <trkpt lat="47.97519" lon="6.75325">
        <ele>751.8</ele>
        <time>2022-07-29T10:35:00Z</time>
      </trkpt>
      <trkpt lat="47.97517" lon="6.75333">
        <ele>751.4</ele>
        <time>2022-07-29T10:35:01Z</time>
      </trkpt>
      <trkpt lat="47.97515" lon="6.75351">
        <ele>750.6</ele>
        <time>2022-07-29T10:35:03Z</time>
      </trkpt>
      <trkpt lat="47.97516" lon="6.7536">
        <ele>750.2</ele>
        <time>2022-07-29T10:35:04Z</time>
      </trkpt>
      <trkpt lat="47.97515" lon="6.75377">
        <ele>749.6</ele>
        <time>2022-07-29T10:35:06Z</time>
      </trkpt>
      <trkpt lat="47.97514" lon="6.75385">
        <ele>749.2</ele>
        <time>2022-07-29T10:35:07Z</time>
      </trkpt>
      <trkpt lat="47.97509" lon="6.75424">
        <ele>748</ele>
        <time>2022-07-29T10:35:11Z</time>
      </trkpt>
      <trkpt lat="47.97504" lon="6.7546">
        <ele>746.4</ele>
        <time>2022-07-29T10:35:14Z</time>
      </trkpt>
      <trkpt lat="47.97502" lon="6.75472">
        <ele>746</ele>
        <time>2022-07-29T10:35:15Z</time>
      </trkpt>
      <trkpt lat="47.97498" lon="6.75484">
        <ele>745</ele>
        <time>2022-07-29T10:35:16Z</time>
      </trkpt>
      <trkpt lat="47.97495" lon="6.75496">
        <ele>743.8</ele>
        <time>2022-07-29T10:35:17Z</time>
      </trkpt>
      <trkpt lat="47.97491" lon="6.75507">
        <ele>743.2</ele>
        <time>2022-07-29T10:35:18Z</time>
      </trkpt>
      <trkpt lat="47.97487" lon="6.75519">
        <ele>742.2</ele>
        <time>2022-07-29T10:35:19Z</time>
      </trkpt>
      <trkpt lat="47.97481" lon="6.75541">
        <ele>740.8</ele>
        <time>2022-07-29T10:35:21Z</time>
      </trkpt>
      <trkpt lat="47.97476" lon="6.75564">
        <ele>738.4</ele>
        <time>2022-07-29T10:35:23Z</time>
      </trkpt>
      <trkpt lat="47.97474" lon="6.75574">
        <ele>738</ele>
        <time>2022-07-29T10:35:24Z</time>
      </trkpt>
      <trkpt lat="47.97473" lon="6.75584">
        <ele>736.8</ele>
        <time>2022-07-29T10:35:25Z</time>
      </trkpt>
      <trkpt lat="47.9747" lon="6.75594">
        <ele>735.6</ele>
        <time>2022-07-29T10:35:26Z</time>
      </trkpt>
      <trkpt lat="47.97464" lon="6.75619">
        <ele>733.8</ele>
        <time>2022-07-29T10:35:28Z</time>
      </trkpt>
      <trkpt lat="47.97462" lon="6.75632">
        <ele>733.4</ele>
        <time>2022-07-29T10:35:29Z</time>
      </trkpt>
      <trkpt lat="47.97459" lon="6.75644">
        <ele>732.4</ele>
        <time>2022-07-29T10:35:30Z</time>
      </trkpt>
      <trkpt lat="47.97459" lon="6.75654">
        <ele>732.2</ele>
        <time>2022-07-29T10:35:31Z</time>
      </trkpt>
      <trkpt lat="47.97458" lon="6.75661">
        <ele>731.6</ele>
        <time>2022-07-29T10:35:32Z</time>
      </trkpt>
      <trkpt lat="47.97457" lon="6.75666">
        <ele>729.8</ele>
        <time>2022-07-29T10:35:33Z</time>
      </trkpt>
      <trkpt lat="47.97455" lon="6.75671">
        <ele>729.2</ele>
        <time>2022-07-29T10:35:34Z</time>
      </trkpt>
      <trkpt lat="47.97453" lon="6.75674">
        <ele>728</ele>
        <time>2022-07-29T10:35:35Z</time>
      </trkpt>
      <trkpt lat="47.97451" lon="6.75675">
        <ele>727.8</ele>
        <time>2022-07-29T10:35:36Z</time>
      </trkpt>
      <trkpt lat="47.97449" lon="6.75674">
        <ele>727</ele>
        <time>2022-07-29T10:35:37Z</time>
      </trkpt>
      <trkpt lat="47.97449" lon="6.75671">
        <ele>726.6</ele>
        <time>2022-07-29T10:35:38Z</time>
      </trkpt>
      <trkpt lat="47.97448" lon="6.75665">
        <ele>726</ele>
        <time>2022-07-29T10:35:39Z</time>
      </trkpt>
      <trkpt lat="47.97446" lon="6.75659">
        <ele>725.8</ele>
        <time>2022-07-29T10:35:40Z</time>
      </trkpt>
      <trkpt lat="47.97444" lon="6.75651">
        <ele>725.4</ele>
        <time>2022-07-29T10:35:41Z</time>
      </trkpt>
      <trkpt lat="47.97442" lon="6.75643">
        <ele>725</ele>
        <time>2022-07-29T10:35:42Z</time>
      </trkpt>
      <trkpt lat="47.97438" lon="6.75628">
        <ele>724.4</ele>
        <time>2022-07-29T10:35:44Z</time>
      </trkpt>
      <trkpt lat="47.97434" lon="6.75619">
        <ele>723</ele>
        <time>2022-07-29T10:35:46Z</time>
      </trkpt>
      <trkpt lat="47.97432" lon="6.75616">
        <ele>722.6</ele>
        <time>2022-07-29T10:35:47Z</time>
      </trkpt>
      <trkpt lat="47.97431" lon="6.75614">
        <ele>721.6</ele>
        <time>2022-07-29T10:35:48Z</time>
      </trkpt>
      <trkpt lat="47.9743" lon="6.75613">
        <ele>721.2</ele>
        <time>2022-07-29T10:35:49Z</time>
      </trkpt>
      <trkpt lat="47.97429" lon="6.75612">
        <ele>720.6</ele>
        <time>2022-07-29T10:35:50Z</time>
      </trkpt>
      <trkpt lat="47.97428" lon="6.75611">
        <ele>719.4</ele>
        <time>2022-07-29T10:35:51Z</time>
      </trkpt>
      <trkpt lat="47.97426" lon="6.75611">
        <ele>719.2</ele>
        <time>2022-07-29T10:35:52Z</time>
      </trkpt>
      <trkpt lat="47.97425" lon="6.75611">
        <ele>718.4</ele>
        <time>2022-07-29T10:35:53Z</time>
      </trkpt>
      <trkpt lat="47.97424" lon="6.75611">
        <ele>718.2</ele>
        <time>2022-07-29T10:35:54Z</time>
      </trkpt>
      <trkpt lat="47.97423" lon="6.75612">
        <ele>717.8</ele>
        <time>2022-07-29T10:35:55Z</time>
      </trkpt>
      <trkpt lat="47.97421" lon="6.75612">
        <ele>717.4</ele>
        <time>2022-07-29T10:35:56Z</time>
      </trkpt>
      <trkpt lat="47.97419" lon="6.75613">
        <ele>716.8</ele>
        <time>2022-07-29T10:35:57Z</time>
      </trkpt>
      <trkpt lat="47.97417" lon="6.75614">
        <ele>716.4</ele>
        <time>2022-07-29T10:35:58Z</time>
      </trkpt>
      <trkpt lat="47.97411" lon="6.75617">
        <ele>715.6</ele>
        <time>2022-07-29T10:36:00Z</time>
      </trkpt>
      <trkpt lat="47.97404" lon="6.75624">
        <ele>714.6</ele>
        <time>2022-07-29T10:36:03Z</time>
      </trkpt>
      <trkpt lat="47.97395" lon="6.75631">
        <ele>713</ele>
        <time>2022-07-29T10:36:06Z</time>
      </trkpt>
      <trkpt lat="47.97392" lon="6.75632">
        <ele>712.6</ele>
        <time>2022-07-29T10:36:07Z</time>
      </trkpt>
      <trkpt lat="47.97389" lon="6.75634">
        <ele>711.8</ele>
        <time>2022-07-29T10:36:08Z</time>
      </trkpt>
      <trkpt lat="47.97385" lon="6.75636">
        <ele>711.4</ele>
        <time>2022-07-29T10:36:09Z</time>
      </trkpt>
      <trkpt lat="47.97376" lon="6.75637">
        <ele>710.8</ele>
        <time>2022-07-29T10:36:11Z</time>
      </trkpt>
      <trkpt lat="47.97366" lon="6.75636">
        <ele>710.2</ele>
        <time>2022-07-29T10:36:13Z</time>
      </trkpt>
      <trkpt lat="47.97359" lon="6.75636">
        <ele>709.4</ele>
        <time>2022-07-29T10:36:14Z</time>
      </trkpt>
      <trkpt lat="47.97353" lon="6.75638">
        <ele>708.4</ele>
        <time>2022-07-29T10:36:15Z</time>
      </trkpt>
      <trkpt lat="47.97348" lon="6.75641">
        <ele>708</ele>
        <time>2022-07-29T10:36:16Z</time>
      </trkpt>
      <trkpt lat="47.97343" lon="6.75644">
        <ele>706.4</ele>
        <time>2022-07-29T10:36:17Z</time>
      </trkpt>
      <trkpt lat="47.97337" lon="6.75646">
        <ele>704.8</ele>
        <time>2022-07-29T10:36:18Z</time>
      </trkpt>
      <trkpt lat="47.97332" lon="6.7565">
        <ele>704.2</ele>
        <time>2022-07-29T10:36:19Z</time>
      </trkpt>
      <trkpt lat="47.97328" lon="6.75653">
        <ele>703.2</ele>
        <time>2022-07-29T10:36:20Z</time>
      </trkpt>
      <trkpt lat="47.97325" lon="6.75656">
        <ele>703</ele>
        <time>2022-07-29T10:36:21Z</time>
      </trkpt>
      <trkpt lat="47.97322" lon="6.7566">
        <ele>701.6</ele>
        <time>2022-07-29T10:36:22Z</time>
      </trkpt>
      <trkpt lat="47.9732" lon="6.75665">
        <ele>700.8</ele>
        <time>2022-07-29T10:36:23Z</time>
      </trkpt>
      <trkpt lat="47.97319" lon="6.7567">
        <ele>699.6</ele>
        <time>2022-07-29T10:36:24Z</time>
      </trkpt>
      <trkpt lat="47.97318" lon="6.75676">
        <ele>699</ele>
        <time>2022-07-29T10:36:25Z</time>
      </trkpt>
      <trkpt lat="47.97318" lon="6.75681">
        <ele>697.8</ele>
        <time>2022-07-29T10:36:26Z</time>
      </trkpt>
      <trkpt lat="47.97317" lon="6.75687">
        <ele>697.4</ele>
        <time>2022-07-29T10:36:27Z</time>
      </trkpt>
      <trkpt lat="47.97316" lon="6.75692">
        <ele>697.2</ele>
        <time>2022-07-29T10:36:28Z</time>
      </trkpt>
      <trkpt lat="47.97315" lon="6.75698">
        <ele>696.8</ele>
        <time>2022-07-29T10:36:29Z</time>
      </trkpt>
      <trkpt lat="47.97313" lon="6.75709">
        <ele>696.6</ele>
        <time>2022-07-29T10:36:31Z</time>
      </trkpt>
      <trkpt lat="47.97305" lon="6.75746">
        <ele>696.2</ele>
        <time>2022-07-29T10:36:37Z</time>
      </trkpt>
      <trkpt lat="47.973" lon="6.75774">
        <ele>696</ele>
        <time>2022-07-29T10:36:41Z</time>
      </trkpt>
      <trkpt lat="47.97298" lon="6.75787">
        <ele>696</ele>
        <time>2022-07-29T10:36:43Z</time>
      </trkpt>
      <trkpt lat="47.97297" lon="6.75793">
        <ele>696</ele>
        <time>2022-07-29T10:36:44Z</time>
      </trkpt>
      <trkpt lat="47.97292" lon="6.75803">
        <ele>695.8</ele>
        <time>2022-07-29T10:36:46Z</time>
      </trkpt>
      <trkpt lat="47.97288" lon="6.75807">
        <ele>695.8</ele>
        <time>2022-07-29T10:36:47Z</time>
      </trkpt>
      <trkpt lat="47.97283" lon="6.75812">
        <ele>695.8</ele>
        <time>2022-07-29T10:36:48Z</time>
      </trkpt>
      <trkpt lat="47.97279" lon="6.75819">
        <ele>695.6</ele>
        <time>2022-07-29T10:36:49Z</time>
      </trkpt>
      <trkpt lat="47.97274" lon="6.75827">
        <ele>695.6</ele>
        <time>2022-07-29T10:36:50Z</time>
      </trkpt>
      <trkpt lat="47.97253" lon="6.75865">
        <ele>694.2</ele>
        <time>2022-07-29T10:36:54Z</time>
      </trkpt>
      <trkpt lat="47.97247" lon="6.75875">
        <ele>693.8</ele>
        <time>2022-07-29T10:36:55Z</time>
      </trkpt>
      <trkpt lat="47.97241" lon="6.75884">
        <ele>692.8</ele>
        <time>2022-07-29T10:36:56Z</time>
      </trkpt>
      <trkpt lat="47.97235" lon="6.75894">
        <ele>692.4</ele>
        <time>2022-07-29T10:36:57Z</time>
      </trkpt>
      <trkpt lat="47.9723" lon="6.75905">
        <ele>691.2</ele>
        <time>2022-07-29T10:36:58Z</time>
      </trkpt>
      <trkpt lat="47.97226" lon="6.75917">
        <ele>690.6</ele>
        <time>2022-07-29T10:36:59Z</time>
      </trkpt>
      <trkpt lat="47.97223" lon="6.75929">
        <ele>690</ele>
        <time>2022-07-29T10:37:00Z</time>
      </trkpt>
      <trkpt lat="47.97216" lon="6.7595">
        <ele>688.2</ele>
        <time>2022-07-29T10:37:02Z</time>
      </trkpt>
      <trkpt lat="47.97213" lon="6.75958">
        <ele>687.6</ele>
        <time>2022-07-29T10:37:03Z</time>
      </trkpt>
      <trkpt lat="47.9721" lon="6.75966">
        <ele>687</ele>
        <time>2022-07-29T10:37:04Z</time>
      </trkpt>
      <trkpt lat="47.97207" lon="6.75974">
        <ele>686.4</ele>
        <time>2022-07-29T10:37:05Z</time>
      </trkpt>
      <trkpt lat="47.97205" lon="6.75983">
        <ele>686.2</ele>
        <time>2022-07-29T10:37:06Z</time>
      </trkpt>
      <trkpt lat="47.97203" lon="6.75992">
        <ele>685.4</ele>
        <time>2022-07-29T10:37:07Z</time>
      </trkpt>
      <trkpt lat="47.97198" lon="6.76015">
        <ele>684.4</ele>
        <time>2022-07-29T10:37:10Z</time>
      </trkpt>
      <trkpt lat="47.97197" lon="6.76019">
        <ele>684</ele>
        <time>2022-07-29T10:37:11Z</time>
      </trkpt>
      <trkpt lat="47.97197" lon="6.76023">
        <ele>683.8</ele>
        <time>2022-07-29T10:37:12Z</time>
      </trkpt>
      <trkpt lat="47.97196" lon="6.76027">
        <ele>683.8</ele>
        <time>2022-07-29T10:37:13Z</time>
      </trkpt>
      <trkpt lat="47.97195" lon="6.76031">
        <ele>683.8</ele>
        <time>2022-07-29T10:37:14Z</time>
      </trkpt>
      <trkpt lat="47.97195" lon="6.76035">
        <ele>683.8</ele>
        <time>2022-07-29T10:37:15Z</time>
      </trkpt>
      <trkpt lat="47.97192" lon="6.76046">
        <ele>683.8</ele>
        <time>2022-07-29T10:37:17Z</time>
      </trkpt>
      <trkpt lat="47.97192" lon="6.76052">
        <ele>683.8</ele>
        <time>2022-07-29T10:37:18Z</time>
      </trkpt>
      <trkpt lat="47.97191" lon="6.76066">
        <ele>684</ele>
        <time>2022-07-29T10:37:20Z</time>
      </trkpt>
      <trkpt lat="47.9719" lon="6.76072">
        <ele>684</ele>
        <time>2022-07-29T10:37:21Z</time>
      </trkpt>
      <trkpt lat="47.97187" lon="6.76085">
        <ele>684</ele>
        <time>2022-07-29T10:37:23Z</time>
      </trkpt>
      <trkpt lat="47.97185" lon="6.76106">
        <ele>683.6</ele>
        <time>2022-07-29T10:37:26Z</time>
      </trkpt>
      <trkpt lat="47.97186" lon="6.76114">
        <ele>683.4</ele>
        <time>2022-07-29T10:37:27Z</time>
      </trkpt>
      <trkpt lat="47.97186" lon="6.76122">
        <ele>683.2</ele>
        <time>2022-07-29T10:37:28Z</time>
      </trkpt>
      <trkpt lat="47.97188" lon="6.76142">
        <ele>682.6</ele>
        <time>2022-07-29T10:37:30Z</time>
      </trkpt>
      <trkpt lat="47.97189" lon="6.76153">
        <ele>682.4</ele>
        <time>2022-07-29T10:37:31Z</time>
      </trkpt>
      <trkpt lat="47.97191" lon="6.76164">
        <ele>682</ele>
        <time>2022-07-29T10:37:32Z</time>
      </trkpt>
      <trkpt lat="47.97192" lon="6.76176">
        <ele>681.6</ele>
        <time>2022-07-29T10:37:33Z</time>
      </trkpt>
      <trkpt lat="47.97194" lon="6.76189">
        <ele>681</ele>
        <time>2022-07-29T10:37:34Z</time>
      </trkpt>
      <trkpt lat="47.97195" lon="6.76201">
        <ele>680.8</ele>
        <time>2022-07-29T10:37:35Z</time>
      </trkpt>
      <trkpt lat="47.97191" lon="6.76222">
        <ele>679.6</ele>
        <time>2022-07-29T10:37:37Z</time>
      </trkpt>
      <trkpt lat="47.97186" lon="6.76234">
        <ele>679.4</ele>
        <time>2022-07-29T10:37:38Z</time>
      </trkpt>
      <trkpt lat="47.97183" lon="6.76246">
        <ele>679</ele>
        <time>2022-07-29T10:37:39Z</time>
      </trkpt>
      <trkpt lat="47.97179" lon="6.76258">
        <ele>678.2</ele>
        <time>2022-07-29T10:37:40Z</time>
      </trkpt>
      <trkpt lat="47.97177" lon="6.7627">
        <ele>676.6</ele>
        <time>2022-07-29T10:37:41Z</time>
      </trkpt>
      <trkpt lat="47.97173" lon="6.76292">
        <ele>674.8</ele>
        <time>2022-07-29T10:37:43Z</time>
      </trkpt>
      <trkpt lat="47.9717" lon="6.76297">
        <ele>674.6</ele>
        <time>2022-07-29T10:37:44Z</time>
      </trkpt>
      <trkpt lat="47.97167" lon="6.763">
        <ele>674.2</ele>
        <time>2022-07-29T10:37:45Z</time>
      </trkpt>
      <trkpt lat="47.97164" lon="6.763">
        <ele>674</ele>
        <time>2022-07-29T10:37:46Z</time>
      </trkpt>
      <trkpt lat="47.97161" lon="6.76297">
        <ele>674</ele>
        <time>2022-07-29T10:37:47Z</time>
      </trkpt>
      <trkpt lat="47.9716" lon="6.76293">
        <ele>673.8</ele>
        <time>2022-07-29T10:37:48Z</time>
      </trkpt>
      <trkpt lat="47.97158" lon="6.76289">
        <ele>673.8</ele>
        <time>2022-07-29T10:37:49Z</time>
      </trkpt>
      <trkpt lat="47.97156" lon="6.76284">
        <ele>673.8</ele>
        <time>2022-07-29T10:37:50Z</time>
      </trkpt>
      <trkpt lat="47.97153" lon="6.7628">
        <ele>673.8</ele>
        <time>2022-07-29T10:37:51Z</time>
      </trkpt>
      <trkpt lat="47.97152" lon="6.76277">
        <ele>674</ele>
        <time>2022-07-29T10:37:52Z</time>
      </trkpt>
      <trkpt lat="47.9715" lon="6.76274">
        <ele>674</ele>
        <time>2022-07-29T10:37:53Z</time>
      </trkpt>
      <trkpt lat="47.97148" lon="6.76271">
        <ele>674</ele>
        <time>2022-07-29T10:37:54Z</time>
      </trkpt>
      <trkpt lat="47.97147" lon="6.76268">
        <ele>674.4</ele>
        <time>2022-07-29T10:37:55Z</time>
      </trkpt>
      <trkpt lat="47.97143" lon="6.76258">
        <ele>675</ele>
        <time>2022-07-29T10:37:58Z</time>
      </trkpt>
      <trkpt lat="47.97142" lon="6.76255">
        <ele>675.2</ele>
        <time>2022-07-29T10:37:59Z</time>
      </trkpt>
      <trkpt lat="47.97141" lon="6.76252">
        <ele>675.2</ele>
        <time>2022-07-29T10:38:00Z</time>
      </trkpt>
      <trkpt lat="47.9714" lon="6.76248">
        <ele>675.8</ele>
        <time>2022-07-29T10:38:01Z</time>
      </trkpt>
      <trkpt lat="47.97138" lon="6.76245">
        <ele>676</ele>
        <time>2022-07-29T10:38:02Z</time>
      </trkpt>
      <trkpt lat="47.97135" lon="6.76242">
        <ele>676.6</ele>
        <time>2022-07-29T10:38:03Z</time>
      </trkpt>
      <trkpt lat="47.97133" lon="6.76239">
        <ele>676.8</ele>
        <time>2022-07-29T10:38:04Z</time>
      </trkpt>
      <trkpt lat="47.9713" lon="6.76235">
        <ele>676.8</ele>
        <time>2022-07-29T10:38:05Z</time>
      </trkpt>
      <trkpt lat="47.97128" lon="6.76232">
        <ele>677</ele>
        <time>2022-07-29T10:38:06Z</time>
      </trkpt>
      <trkpt lat="47.97126" lon="6.76229">
        <ele>677.2</ele>
        <time>2022-07-29T10:38:07Z</time>
      </trkpt>
      <trkpt lat="47.97117" lon="6.76218">
        <ele>677.2</ele>
        <time>2022-07-29T10:38:10Z</time>
      </trkpt>
      <trkpt lat="47.9709" lon="6.76184">
        <ele>676.6</ele>
        <time>2022-07-29T10:38:15Z</time>
      </trkpt>
      <trkpt lat="47.97077" lon="6.76165">
        <ele>675.2</ele>
        <time>2022-07-29T10:38:17Z</time>
      </trkpt>
      <trkpt lat="47.97064" lon="6.76145">
        <ele>674.2</ele>
        <time>2022-07-29T10:38:19Z</time>
      </trkpt>
      <trkpt lat="47.97058" lon="6.76134">
        <ele>673.4</ele>
        <time>2022-07-29T10:38:20Z</time>
      </trkpt>
      <trkpt lat="47.97051" lon="6.76123">
        <ele>671.4</ele>
        <time>2022-07-29T10:38:21Z</time>
      </trkpt>
      <trkpt lat="47.97046" lon="6.7611">
        <ele>670.2</ele>
        <time>2022-07-29T10:38:22Z</time>
      </trkpt>
      <trkpt lat="47.97042" lon="6.76098">
        <ele>669.6</ele>
        <time>2022-07-29T10:38:23Z</time>
      </trkpt>
      <trkpt lat="47.97037" lon="6.76088">
        <ele>667.8</ele>
        <time>2022-07-29T10:38:24Z</time>
      </trkpt>
      <trkpt lat="47.97033" lon="6.76079">
        <ele>667</ele>
        <time>2022-07-29T10:38:25Z</time>
      </trkpt>
      <trkpt lat="47.97029" lon="6.7607">
        <ele>666</ele>
        <time>2022-07-29T10:38:26Z</time>
      </trkpt>
      <trkpt lat="47.97025" lon="6.76063">
        <ele>665.4</ele>
        <time>2022-07-29T10:38:27Z</time>
      </trkpt>
      <trkpt lat="47.97019" lon="6.76056">
        <ele>664.4</ele>
        <time>2022-07-29T10:38:28Z</time>
      </trkpt>
      <trkpt lat="47.97015" lon="6.76049">
        <ele>664</ele>
        <time>2022-07-29T10:38:29Z</time>
      </trkpt>
      <trkpt lat="47.9701" lon="6.76043">
        <ele>663</ele>
        <time>2022-07-29T10:38:30Z</time>
      </trkpt>
      <trkpt lat="47.97007" lon="6.76038">
        <ele>661.8</ele>
        <time>2022-07-29T10:38:31Z</time>
      </trkpt>
      <trkpt lat="47.97003" lon="6.76034">
        <ele>661.2</ele>
        <time>2022-07-29T10:38:32Z</time>
      </trkpt>
      <trkpt lat="47.97" lon="6.76033">
        <ele>660.4</ele>
        <time>2022-07-29T10:38:33Z</time>
      </trkpt>
      <trkpt lat="47.96997" lon="6.76032">
        <ele>660.2</ele>
        <time>2022-07-29T10:38:34Z</time>
      </trkpt>
      <trkpt lat="47.96994" lon="6.76033">
        <ele>659.8</ele>
        <time>2022-07-29T10:38:35Z</time>
      </trkpt>
      <trkpt lat="47.96993" lon="6.76036">
        <ele>659.6</ele>
        <time>2022-07-29T10:38:36Z</time>
      </trkpt>
      <trkpt lat="47.96992" lon="6.76038">
        <ele>659.6</ele>
        <time>2022-07-29T10:38:37Z</time>
      </trkpt>
      <trkpt lat="47.9699" lon="6.76041">
        <ele>659.6</ele>
        <time>2022-07-29T10:38:38Z</time>
      </trkpt>
      <trkpt lat="47.96988" lon="6.76043">
        <ele>659.6</ele>
        <time>2022-07-29T10:38:39Z</time>
      </trkpt>
      <trkpt lat="47.96986" lon="6.76044">
        <ele>659.6</ele>
        <time>2022-07-29T10:38:40Z</time>
      </trkpt>
      <trkpt lat="47.96981" lon="6.76045">
        <ele>660</ele>
        <time>2022-07-29T10:38:42Z</time>
      </trkpt>
      <trkpt lat="47.96979" lon="6.76045">
        <ele>660.2</ele>
        <time>2022-07-29T10:38:43Z</time>
      </trkpt>
      <trkpt lat="47.96977" lon="6.76045">
        <ele>660.4</ele>
        <time>2022-07-29T10:38:44Z</time>
      </trkpt>
      <trkpt lat="47.96975" lon="6.76044">
        <ele>660.4</ele>
        <time>2022-07-29T10:38:45Z</time>
      </trkpt>
      <trkpt lat="47.96973" lon="6.76043">
        <ele>660.8</ele>
        <time>2022-07-29T10:38:46Z</time>
      </trkpt>
      <trkpt lat="47.96971" lon="6.76042">
        <ele>661</ele>
        <time>2022-07-29T10:38:47Z</time>
      </trkpt>
      <trkpt lat="47.96968" lon="6.76041">
        <ele>661.6</ele>
        <time>2022-07-29T10:38:48Z</time>
      </trkpt>
      <trkpt lat="47.96966" lon="6.76039">
        <ele>662</ele>
        <time>2022-07-29T10:38:49Z</time>
      </trkpt>
      <trkpt lat="47.96965" lon="6.76038">
        <ele>662.2</ele>
        <time>2022-07-29T10:38:50Z</time>
      </trkpt>
      <trkpt lat="47.96963" lon="6.76035">
        <ele>662.4</ele>
        <time>2022-07-29T10:38:51Z</time>
      </trkpt>
      <trkpt lat="47.96961" lon="6.76033">
        <ele>662.6</ele>
        <time>2022-07-29T10:38:52Z</time>
      </trkpt>
      <trkpt lat="47.96959" lon="6.76031">
        <ele>663</ele>
        <time>2022-07-29T10:38:53Z</time>
      </trkpt>
      <trkpt lat="47.96958" lon="6.76029">
        <ele>663</ele>
        <time>2022-07-29T10:38:54Z</time>
      </trkpt>
      <trkpt lat="47.96956" lon="6.76027">
        <ele>663.2</ele>
        <time>2022-07-29T10:38:55Z</time>
      </trkpt>
      <trkpt lat="47.96954" lon="6.76025">
        <ele>663.4</ele>
        <time>2022-07-29T10:38:56Z</time>
      </trkpt>
      <trkpt lat="47.96952" lon="6.76023">
        <ele>663.6</ele>
        <time>2022-07-29T10:38:57Z</time>
      </trkpt>
      <trkpt lat="47.96951" lon="6.7602">
        <ele>664</ele>
        <time>2022-07-29T10:38:58Z</time>
      </trkpt>
      <trkpt lat="47.9695" lon="6.76019">
        <ele>664.2</ele>
        <time>2022-07-29T10:38:59Z</time>
      </trkpt>
      <trkpt lat="47.96948" lon="6.76019">
        <ele>664.6</ele>
        <time>2022-07-29T10:39:00Z</time>
      </trkpt>
      <trkpt lat="47.96944" lon="6.76017">
        <ele>664.8</ele>
        <time>2022-07-29T10:39:02Z</time>
      </trkpt>
      <trkpt lat="47.96942" lon="6.76016">
        <ele>665</ele>
        <time>2022-07-29T10:39:03Z</time>
      </trkpt>
      <trkpt lat="47.9694" lon="6.76016">
        <ele>665.2</ele>
        <time>2022-07-29T10:39:04Z</time>
      </trkpt>
      <trkpt lat="47.96938" lon="6.76015">
        <ele>665.2</ele>
        <time>2022-07-29T10:39:05Z</time>
      </trkpt>
      <trkpt lat="47.96935" lon="6.76014">
        <ele>665.6</ele>
        <time>2022-07-29T10:39:06Z</time>
      </trkpt>
      <trkpt lat="47.96933" lon="6.76013">
        <ele>665.8</ele>
        <time>2022-07-29T10:39:07Z</time>
      </trkpt>
      <trkpt lat="47.96931" lon="6.76012">
        <ele>666.2</ele>
        <time>2022-07-29T10:39:08Z</time>
      </trkpt>
      <trkpt lat="47.96929" lon="6.76011">
        <ele>666.2</ele>
        <time>2022-07-29T10:39:09Z</time>
      </trkpt>
      <trkpt lat="47.96926" lon="6.7601">
        <ele>666.4</ele>
        <time>2022-07-29T10:39:10Z</time>
      </trkpt>
      <trkpt lat="47.96924" lon="6.76008">
        <ele>666.4</ele>
        <time>2022-07-29T10:39:11Z</time>
      </trkpt>
      <trkpt lat="47.96921" lon="6.76007">
        <ele>666.6</ele>
        <time>2022-07-29T10:39:12Z</time>
      </trkpt>
      <trkpt lat="47.96918" lon="6.76007">
        <ele>666.8</ele>
        <time>2022-07-29T10:39:13Z</time>
      </trkpt>
      <trkpt lat="47.96916" lon="6.76006">
        <ele>666.8</ele>
        <time>2022-07-29T10:39:14Z</time>
      </trkpt>
      <trkpt lat="47.96914" lon="6.76007">
        <ele>667</ele>
        <time>2022-07-29T10:39:15Z</time>
      </trkpt>
      <trkpt lat="47.96912" lon="6.76007">
        <ele>667</ele>
        <time>2022-07-29T10:39:16Z</time>
      </trkpt>
      <trkpt lat="47.9691" lon="6.76007">
        <ele>667.2</ele>
        <time>2022-07-29T10:39:17Z</time>
      </trkpt>
      <trkpt lat="47.96908" lon="6.76008">
        <ele>667.4</ele>
        <time>2022-07-29T10:39:18Z</time>
      </trkpt>
      <trkpt lat="47.96905" lon="6.76008">
        <ele>667.4</ele>
        <time>2022-07-29T10:39:19Z</time>
      </trkpt>
      <trkpt lat="47.96904" lon="6.76009">
        <ele>667.6</ele>
        <time>2022-07-29T10:39:20Z</time>
      </trkpt>
      <trkpt lat="47.96902" lon="6.76009">
        <ele>667.6</ele>
        <time>2022-07-29T10:39:21Z</time>
      </trkpt>
      <trkpt lat="47.969" lon="6.76009">
        <ele>667.6</ele>
        <time>2022-07-29T10:39:22Z</time>
      </trkpt>
      <trkpt lat="47.96899" lon="6.7601">
        <ele>667.6</ele>
        <time>2022-07-29T10:39:23Z</time>
      </trkpt>
      <trkpt lat="47.96897" lon="6.76011">
        <ele>668</ele>
        <time>2022-07-29T10:39:24Z</time>
      </trkpt>
      <trkpt lat="47.96895" lon="6.76012">
        <ele>668.2</ele>
        <time>2022-07-29T10:39:25Z</time>
      </trkpt>
      <trkpt lat="47.96892" lon="6.76012">
        <ele>668.2</ele>
        <time>2022-07-29T10:39:26Z</time>
      </trkpt>
      <trkpt lat="47.9689" lon="6.76012">
        <ele>668.4</ele>
        <time>2022-07-29T10:39:27Z</time>
      </trkpt>
      <trkpt lat="47.96887" lon="6.76013">
        <ele>668.6</ele>
        <time>2022-07-29T10:39:28Z</time>
      </trkpt>
      <trkpt lat="47.96884" lon="6.76013">
        <ele>668.8</ele>
        <time>2022-07-29T10:39:29Z</time>
      </trkpt>
      <trkpt lat="47.96882" lon="6.76014">
        <ele>668.8</ele>
        <time>2022-07-29T10:39:30Z</time>
      </trkpt>
      <trkpt lat="47.96881" lon="6.76015">
        <ele>669</ele>
        <time>2022-07-29T10:39:31Z</time>
      </trkpt>
      <trkpt lat="47.96879" lon="6.76017">
        <ele>669</ele>
        <time>2022-07-29T10:39:32Z</time>
      </trkpt>
      <trkpt lat="47.96878" lon="6.76018">
        <ele>669.2</ele>
        <time>2022-07-29T10:39:33Z</time>
      </trkpt>
      <trkpt lat="47.96876" lon="6.76018">
        <ele>669.4</ele>
        <time>2022-07-29T10:39:34Z</time>
      </trkpt>
      <trkpt lat="47.96874" lon="6.76018">
        <ele>669.6</ele>
        <time>2022-07-29T10:39:35Z</time>
      </trkpt>
      <trkpt lat="47.96871" lon="6.76019">
        <ele>669.6</ele>
        <time>2022-07-29T10:39:36Z</time>
      </trkpt>
      <trkpt lat="47.96869" lon="6.7602">
        <ele>669.8</ele>
        <time>2022-07-29T10:39:37Z</time>
      </trkpt>
      <trkpt lat="47.96867" lon="6.76019">
        <ele>669.8</ele>
        <time>2022-07-29T10:39:38Z</time>
      </trkpt>
      <trkpt lat="47.96865" lon="6.76018">
        <ele>670</ele>
        <time>2022-07-29T10:39:39Z</time>
      </trkpt>
      <trkpt lat="47.96864" lon="6.76018">
        <ele>670</ele>
        <time>2022-07-29T10:39:40Z</time>
      </trkpt>
      <trkpt lat="47.96863" lon="6.76019">
        <ele>670</ele>
        <time>2022-07-29T10:39:41Z</time>
      </trkpt>
      <trkpt lat="47.96863" lon="6.76019">
        <ele>670.2</ele>
        <time>2022-07-29T10:39:42Z</time>
      </trkpt>
      <trkpt lat="47.96863" lon="6.76019">
        <ele>670.4</ele>
        <time>2022-07-29T10:39:43Z</time>
      </trkpt>
      <trkpt lat="47.9686" lon="6.76019">
        <ele>670.4</ele>
        <time>2022-07-29T10:39:44Z</time>
      </trkpt>
      <trkpt lat="47.96858" lon="6.76019">
        <ele>671</ele>
        <time>2022-07-29T10:39:45Z</time>
      </trkpt>
      <trkpt lat="47.96855" lon="6.76019">
        <ele>671.2</ele>
        <time>2022-07-29T10:39:46Z</time>
      </trkpt>
      <trkpt lat="47.96854" lon="6.7602">
        <ele>671.4</ele>
        <time>2022-07-29T10:39:47Z</time>
      </trkpt>
      <trkpt lat="47.96852" lon="6.7602">
        <ele>671.4</ele>
        <time>2022-07-29T10:39:48Z</time>
      </trkpt>
      <trkpt lat="47.9685" lon="6.76021">
        <ele>671.6</ele>
        <time>2022-07-29T10:39:49Z</time>
      </trkpt>
      <trkpt lat="47.96849" lon="6.76021">
        <ele>671.8</ele>
        <time>2022-07-29T10:39:50Z</time>
      </trkpt>
      <trkpt lat="47.96847" lon="6.76021">
        <ele>672.4</ele>
        <time>2022-07-29T10:39:51Z</time>
      </trkpt>
      <trkpt lat="47.96846" lon="6.76021">
        <ele>672.8</ele>
        <time>2022-07-29T10:39:52Z</time>
      </trkpt>
      <trkpt lat="47.96844" lon="6.7602">
        <ele>673</ele>
        <time>2022-07-29T10:39:53Z</time>
      </trkpt>
      <trkpt lat="47.96843" lon="6.7602">
        <ele>673.2</ele>
        <time>2022-07-29T10:39:54Z</time>
      </trkpt>
      <trkpt lat="47.96842" lon="6.76021">
        <ele>673.4</ele>
        <time>2022-07-29T10:39:55Z</time>
      </trkpt>
      <trkpt lat="47.96841" lon="6.76021">
        <ele>673.8</ele>
        <time>2022-07-29T10:39:56Z</time>
      </trkpt>
      <trkpt lat="47.96839" lon="6.76021">
        <ele>674.2</ele>
        <time>2022-07-29T10:39:57Z</time>
      </trkpt>
      <trkpt lat="47.96838" lon="6.76021">
        <ele>674.4</ele>
        <time>2022-07-29T10:39:58Z</time>
      </trkpt>
      <trkpt lat="47.96836" lon="6.76021">
        <ele>674.6</ele>
        <time>2022-07-29T10:39:59Z</time>
      </trkpt>
      <trkpt lat="47.96834" lon="6.76021">
        <ele>674.8</ele>
        <time>2022-07-29T10:40:00Z</time>
      </trkpt>
      <trkpt lat="47.96833" lon="6.76021">
        <ele>675</ele>
        <time>2022-07-29T10:40:01Z</time>
      </trkpt>
      <trkpt lat="47.96832" lon="6.76022">
        <ele>675.2</ele>
        <time>2022-07-29T10:40:02Z</time>
      </trkpt>
      <trkpt lat="47.96831" lon="6.76022">
        <ele>675.4</ele>
        <time>2022-07-29T10:40:03Z</time>
      </trkpt>
      <trkpt lat="47.96829" lon="6.76023">
        <ele>675.6</ele>
        <time>2022-07-29T10:40:04Z</time>
      </trkpt>
      <trkpt lat="47.96828" lon="6.76022">
        <ele>675.8</ele>
        <time>2022-07-29T10:40:05Z</time>
      </trkpt>
      <trkpt lat="47.96827" lon="6.76023">
        <ele>676</ele>
        <time>2022-07-29T10:40:06Z</time>
      </trkpt>
      <trkpt lat="47.96825" lon="6.76024">
        <ele>676.4</ele>
        <time>2022-07-29T10:40:07Z</time>
      </trkpt>
      <trkpt lat="47.96823" lon="6.76025">
        <ele>676.4</ele>
        <time>2022-07-29T10:40:08Z</time>
      </trkpt>
      <trkpt lat="47.96822" lon="6.76025">
        <ele>676.6</ele>
        <time>2022-07-29T10:40:09Z</time>
      </trkpt>
      <trkpt lat="47.9682" lon="6.76026">
        <ele>677</ele>
        <time>2022-07-29T10:40:10Z</time>
      </trkpt>
      <trkpt lat="47.96818" lon="6.76028">
        <ele>677.2</ele>
        <time>2022-07-29T10:40:11Z</time>
      </trkpt>
      <trkpt lat="47.96817" lon="6.76029">
        <ele>677.4</ele>
        <time>2022-07-29T10:40:12Z</time>
      </trkpt>
      <trkpt lat="47.96816" lon="6.7603">
        <ele>677.4</ele>
        <time>2022-07-29T10:40:13Z</time>
      </trkpt>
      <trkpt lat="47.96816" lon="6.7603">
        <ele>677.6</ele>
        <time>2022-07-29T10:40:14Z</time>
      </trkpt>
      <trkpt lat="47.96815" lon="6.7603">
        <ele>677.6</ele>
        <time>2022-07-29T10:40:15Z</time>
      </trkpt>
      <trkpt lat="47.96815" lon="6.76031">
        <ele>677.8</ele>
        <time>2022-07-29T10:40:16Z</time>
      </trkpt>
      <trkpt lat="47.96815" lon="6.76031">
        <ele>677.8</ele>
        <time>2022-07-29T10:40:17Z</time>
      </trkpt>
      <trkpt lat="47.96815" lon="6.76031">
        <ele>678</ele>
        <time>2022-07-29T10:40:18Z</time>
      </trkpt>
      <trkpt lat="47.96812" lon="6.76034">
        <ele>678.2</ele>
        <time>2022-07-29T10:40:46Z</time>
      </trkpt>
      <trkpt lat="47.96809" lon="6.76036">
        <ele>678.2</ele>
        <time>2022-07-29T10:40:48Z</time>
      </trkpt>
      <trkpt lat="47.96807" lon="6.76038">
        <ele>678.2</ele>
        <time>2022-07-29T10:40:49Z</time>
      </trkpt>
      <trkpt lat="47.96802" lon="6.76042">
        <ele>678.2</ele>
        <time>2022-07-29T10:40:52Z</time>
      </trkpt>
      <trkpt lat="47.968" lon="6.76044">
        <ele>678.2</ele>
        <time>2022-07-29T10:40:53Z</time>
      </trkpt>
      <trkpt lat="47.96798" lon="6.76046">
        <ele>678.2</ele>
        <time>2022-07-29T10:40:54Z</time>
      </trkpt>
      <trkpt lat="47.9679" lon="6.7605">
        <ele>678</ele>
        <time>2022-07-29T10:40:56Z</time>
      </trkpt>
      <trkpt lat="47.96783" lon="6.76053">
        <ele>677.8</ele>
        <time>2022-07-29T10:40:58Z</time>
      </trkpt>
      <trkpt lat="47.96781" lon="6.76055">
        <ele>677.8</ele>
        <time>2022-07-29T10:40:59Z</time>
      </trkpt>
      <trkpt lat="47.96779" lon="6.76058">
        <ele>677.8</ele>
        <time>2022-07-29T10:41:00Z</time>
      </trkpt>
      <trkpt lat="47.96777" lon="6.76061">
        <ele>677.6</ele>
        <time>2022-07-29T10:41:01Z</time>
      </trkpt>
      <trkpt lat="47.96775" lon="6.76064">
        <ele>677.6</ele>
        <time>2022-07-29T10:41:02Z</time>
      </trkpt>
      <trkpt lat="47.9677" lon="6.76068">
        <ele>677.6</ele>
        <time>2022-07-29T10:41:03Z</time>
      </trkpt>
      <trkpt lat="47.96764" lon="6.76072">
        <ele>677.4</ele>
        <time>2022-07-29T10:41:04Z</time>
      </trkpt>
      <trkpt lat="47.96751" lon="6.76084">
        <ele>676.6</ele>
        <time>2022-07-29T10:41:07Z</time>
      </trkpt>
      <trkpt lat="47.96746" lon="6.76087">
        <ele>676.2</ele>
        <time>2022-07-29T10:41:08Z</time>
      </trkpt>
      <trkpt lat="47.96741" lon="6.76086">
        <ele>675.4</ele>
        <time>2022-07-29T10:41:10Z</time>
      </trkpt>
      <trkpt lat="47.96739" lon="6.76083">
        <ele>675.2</ele>
        <time>2022-07-29T10:41:11Z</time>
      </trkpt>
      <trkpt lat="47.96736" lon="6.76081">
        <ele>674.8</ele>
        <time>2022-07-29T10:41:12Z</time>
      </trkpt>
      <trkpt lat="47.96736" lon="6.76081">
        <ele>674.4</ele>
        <time>2022-07-29T10:41:13Z</time>
      </trkpt>
      <trkpt lat="47.96736" lon="6.76081">
        <ele>674.4</ele>
        <time>2022-07-29T10:41:14Z</time>
      </trkpt>
      <trkpt lat="47.96736" lon="6.76081">
        <ele>674.2</ele>
        <time>2022-07-29T10:41:15Z</time>
      </trkpt>
      <trkpt lat="47.96736" lon="6.76081">
        <ele>674.2</ele>
        <time>2022-07-29T10:41:16Z</time>
      </trkpt>
      <trkpt lat="47.96736" lon="6.76081">
        <ele>674</ele>
        <time>2022-07-29T10:41:17Z</time>
      </trkpt>
      <trkpt lat="47.96736" lon="6.7608">
        <ele>674</ele>
        <time>2022-07-29T10:41:21Z</time>
      </trkpt>
      <trkpt lat="47.96735" lon="6.76075">
        <ele>674</ele>
        <time>2022-07-29T10:41:23Z</time>
      </trkpt>
      <trkpt lat="47.96732" lon="6.76069">
        <ele>674</ele>
        <time>2022-07-29T10:41:26Z</time>
      </trkpt>
      <trkpt lat="47.96732" lon="6.76066">
        <ele>674</ele>
        <time>2022-07-29T10:41:28Z</time>
      </trkpt>
      <trkpt lat="47.96732" lon="6.76064">
        <ele>674</ele>
        <time>2022-07-29T10:41:29Z</time>
      </trkpt>
      <trkpt lat="47.96731" lon="6.76061">
        <ele>673.8</ele>
        <time>2022-07-29T10:41:30Z</time>
      </trkpt>
      <trkpt lat="47.96726" lon="6.76043">
        <ele>673.6</ele>
        <time>2022-07-29T10:41:36Z</time>
      </trkpt>
      <trkpt lat="47.96726" lon="6.76038">
        <ele>673.6</ele>
        <time>2022-07-29T10:41:37Z</time>
      </trkpt>
      <trkpt lat="47.96727" lon="6.76032">
        <ele>673.6</ele>
        <time>2022-07-29T10:41:38Z</time>
      </trkpt>
      <trkpt lat="47.96727" lon="6.76026">
        <ele>673.4</ele>
        <time>2022-07-29T10:41:39Z</time>
      </trkpt>
      <trkpt lat="47.96727" lon="6.76019">
        <ele>673</ele>
        <time>2022-07-29T10:41:40Z</time>
      </trkpt>
      <trkpt lat="47.96728" lon="6.76005">
        <ele>672</ele>
        <time>2022-07-29T10:41:42Z</time>
      </trkpt>
      <trkpt lat="47.96728" lon="6.76">
        <ele>671.8</ele>
        <time>2022-07-29T10:41:43Z</time>
      </trkpt>
      <trkpt lat="47.96729" lon="6.75995">
        <ele>671.4</ele>
        <time>2022-07-29T10:41:44Z</time>
      </trkpt>
      <trkpt lat="47.96729" lon="6.75987">
        <ele>671.2</ele>
        <time>2022-07-29T10:41:45Z</time>
      </trkpt>
      <trkpt lat="47.96728" lon="6.75981">
        <ele>670.2</ele>
        <time>2022-07-29T10:41:46Z</time>
      </trkpt>
      <trkpt lat="47.96729" lon="6.75974">
        <ele>668.2</ele>
        <time>2022-07-29T10:41:48Z</time>
      </trkpt>
      <trkpt lat="47.96729" lon="6.75972">
        <ele>667.2</ele>
        <time>2022-07-29T10:41:49Z</time>
      </trkpt>
      <trkpt lat="47.9673" lon="6.75969">
        <ele>666.8</ele>
        <time>2022-07-29T10:41:50Z</time>
      </trkpt>
      <trkpt lat="47.9673" lon="6.75967">
        <ele>665.8</ele>
        <time>2022-07-29T10:41:51Z</time>
      </trkpt>
      <trkpt lat="47.9673" lon="6.75966">
        <ele>665</ele>
        <time>2022-07-29T10:41:52Z</time>
      </trkpt>
      <trkpt lat="47.9673" lon="6.75966">
        <ele>663.8</ele>
        <time>2022-07-29T10:41:53Z</time>
      </trkpt>
      <trkpt lat="47.9673" lon="6.75966">
        <ele>663.2</ele>
        <time>2022-07-29T10:41:54Z</time>
      </trkpt>
      <trkpt lat="47.9673" lon="6.75966">
        <ele>662.6</ele>
        <time>2022-07-29T10:41:55Z</time>
      </trkpt>
      <trkpt lat="47.9673" lon="6.75966">
        <ele>661.6</ele>
        <time>2022-07-29T10:41:57Z</time>
      </trkpt>
      <trkpt lat="47.9673" lon="6.75965">
        <ele>661.4</ele>
        <time>2022-07-29T10:41:58Z</time>
      </trkpt>
      <trkpt lat="47.96729" lon="6.7595">
        <ele>660.8</ele>
        <time>2022-07-29T10:42:01Z</time>
      </trkpt>
      <trkpt lat="47.9673" lon="6.75938">
        <ele>660.2</ele>
        <time>2022-07-29T10:42:03Z</time>
      </trkpt>
      <trkpt lat="47.96731" lon="6.75928">
        <ele>659.8</ele>
        <time>2022-07-29T10:42:05Z</time>
      </trkpt>
      <trkpt lat="47.96731" lon="6.75921">
        <ele>659.4</ele>
        <time>2022-07-29T10:42:06Z</time>
      </trkpt>
      <trkpt lat="47.96731" lon="6.75914">
        <ele>658</ele>
        <time>2022-07-29T10:42:07Z</time>
      </trkpt>
      <trkpt lat="47.96731" lon="6.75904">
        <ele>655.6</ele>
        <time>2022-07-29T10:42:09Z</time>
      </trkpt>
      <trkpt lat="47.9673" lon="6.75901">
        <ele>655</ele>
        <time>2022-07-29T10:42:10Z</time>
      </trkpt>
      <trkpt lat="47.96729" lon="6.75895">
        <ele>654.2</ele>
        <time>2022-07-29T10:42:11Z</time>
      </trkpt>
      <trkpt lat="47.96729" lon="6.7589">
        <ele>653.8</ele>
        <time>2022-07-29T10:42:12Z</time>
      </trkpt>
      <trkpt lat="47.96728" lon="6.75886">
        <ele>653.2</ele>
        <time>2022-07-29T10:42:13Z</time>
      </trkpt>
      <trkpt lat="47.96727" lon="6.75882">
        <ele>652.8</ele>
        <time>2022-07-29T10:42:14Z</time>
      </trkpt>
      <trkpt lat="47.96726" lon="6.75881">
        <ele>652.4</ele>
        <time>2022-07-29T10:42:15Z</time>
      </trkpt>
      <trkpt lat="47.96726" lon="6.75881">
        <ele>652</ele>
        <time>2022-07-29T10:42:16Z</time>
      </trkpt>
      <trkpt lat="47.96726" lon="6.75881">
        <ele>651.8</ele>
        <time>2022-07-29T10:42:17Z</time>
      </trkpt>
      <trkpt lat="47.96726" lon="6.75881">
        <ele>651.8</ele>
        <time>2022-07-29T10:42:18Z</time>
      </trkpt>
      <trkpt lat="47.96726" lon="6.7588">
        <ele>651.6</ele>
        <time>2022-07-29T10:42:19Z</time>
      </trkpt>
      <trkpt lat="47.96726" lon="6.75878">
        <ele>651.6</ele>
        <time>2022-07-29T10:42:20Z</time>
      </trkpt>
      <trkpt lat="47.96725" lon="6.75871">
        <ele>651.2</ele>
        <time>2022-07-29T10:42:22Z</time>
      </trkpt>
      <trkpt lat="47.96725" lon="6.75868">
        <ele>651.2</ele>
        <time>2022-07-29T10:42:23Z</time>
      </trkpt>
      <trkpt lat="47.96725" lon="6.75864">
        <ele>651</ele>
        <time>2022-07-29T10:42:24Z</time>
      </trkpt>
      <trkpt lat="47.96725" lon="6.75862">
        <ele>650.8</ele>
        <time>2022-07-29T10:42:25Z</time>
      </trkpt>
      <trkpt lat="47.96725" lon="6.75861">
        <ele>650.6</ele>
        <time>2022-07-29T10:42:26Z</time>
      </trkpt>
      <trkpt lat="47.96724" lon="6.7586">
        <ele>650.4</ele>
        <time>2022-07-29T10:42:27Z</time>
      </trkpt>
      <trkpt lat="47.96724" lon="6.7586">
        <ele>650.2</ele>
        <time>2022-07-29T10:42:28Z</time>
      </trkpt>
      <trkpt lat="47.96724" lon="6.7586">
        <ele>649.6</ele>
        <time>2022-07-29T10:42:29Z</time>
      </trkpt>
      <trkpt lat="47.96724" lon="6.7586">
        <ele>648.6</ele>
        <time>2022-07-29T10:42:34Z</time>
      </trkpt>
      <trkpt lat="47.96724" lon="6.7586">
        <ele>648.4</ele>
        <time>2022-07-29T10:42:38Z</time>
      </trkpt>
      <trkpt lat="47.96724" lon="6.75857">
        <ele>648</ele>
        <time>2022-07-29T10:42:42Z</time>
      </trkpt>
      <trkpt lat="47.96719" lon="6.75844">
        <ele>647.6</ele>
        <time>2022-07-29T10:42:45Z</time>
      </trkpt>
      <trkpt lat="47.96718" lon="6.7584">
        <ele>647.6</ele>
        <time>2022-07-29T10:42:46Z</time>
      </trkpt>
      <trkpt lat="47.96714" lon="6.75827">
        <ele>646.8</ele>
        <time>2022-07-29T10:42:49Z</time>
      </trkpt>
      <trkpt lat="47.96714" lon="6.75822">
        <ele>646.4</ele>
        <time>2022-07-29T10:42:50Z</time>
      </trkpt>
      <trkpt lat="47.96714" lon="6.75819">
        <ele>645.6</ele>
        <time>2022-07-29T10:42:51Z</time>
      </trkpt>
      <trkpt lat="47.96713" lon="6.75816">
        <ele>645</ele>
        <time>2022-07-29T10:42:52Z</time>
      </trkpt>
      <trkpt lat="47.96711" lon="6.75807">
        <ele>643.6</ele>
        <time>2022-07-29T10:42:55Z</time>
      </trkpt>
      <trkpt lat="47.96711" lon="6.75806">
        <ele>643</ele>
        <time>2022-07-29T10:42:56Z</time>
      </trkpt>
      <trkpt lat="47.9671" lon="6.75805">
        <ele>642.4</ele>
        <time>2022-07-29T10:42:57Z</time>
      </trkpt>
      <trkpt lat="47.9671" lon="6.75805">
        <ele>641.8</ele>
        <time>2022-07-29T10:42:58Z</time>
      </trkpt>
      <trkpt lat="47.96709" lon="6.75805">
        <ele>641</ele>
        <time>2022-07-29T10:43:00Z</time>
      </trkpt>
      <trkpt lat="47.96709" lon="6.75805">
        <ele>640.6</ele>
        <time>2022-07-29T10:43:04Z</time>
      </trkpt>
      <trkpt lat="47.96709" lon="6.75805">
        <ele>640.2</ele>
        <time>2022-07-29T10:43:14Z</time>
      </trkpt>
      <trkpt lat="47.96706" lon="6.75796">
        <ele>640.2</ele>
        <time>2022-07-29T10:43:19Z</time>
      </trkpt>
      <trkpt lat="47.96703" lon="6.75788">
        <ele>640</ele>
        <time>2022-07-29T10:43:21Z</time>
      </trkpt>
      <trkpt lat="47.96695" lon="6.75768">
        <ele>640</ele>
        <time>2022-07-29T10:43:27Z</time>
      </trkpt>
      <trkpt lat="47.96694" lon="6.75765">
        <ele>640</ele>
        <time>2022-07-29T10:43:28Z</time>
      </trkpt>
      <trkpt lat="47.9669" lon="6.7575">
        <ele>639.8</ele>
        <time>2022-07-29T10:43:31Z</time>
      </trkpt>
      <trkpt lat="47.96684" lon="6.75734">
        <ele>639.8</ele>
        <time>2022-07-29T10:43:33Z</time>
      </trkpt>
      <trkpt lat="47.96678" lon="6.75717">
        <ele>639.4</ele>
        <time>2022-07-29T10:43:35Z</time>
      </trkpt>
      <trkpt lat="47.96675" lon="6.75711">
        <ele>638.8</ele>
        <time>2022-07-29T10:43:36Z</time>
      </trkpt>
      <trkpt lat="47.96673" lon="6.75702">
        <ele>638.4</ele>
        <time>2022-07-29T10:43:37Z</time>
      </trkpt>
      <trkpt lat="47.9667" lon="6.75696">
        <ele>638.2</ele>
        <time>2022-07-29T10:43:38Z</time>
      </trkpt>
      <trkpt lat="47.96669" lon="6.7569">
        <ele>637.8</ele>
        <time>2022-07-29T10:43:39Z</time>
      </trkpt>
      <trkpt lat="47.96668" lon="6.75685">
        <ele>637.6</ele>
        <time>2022-07-29T10:43:40Z</time>
      </trkpt>
      <trkpt lat="47.96667" lon="6.75667">
        <ele>637</ele>
        <time>2022-07-29T10:43:42Z</time>
      </trkpt>
      <trkpt lat="47.96666" lon="6.7566">
        <ele>636.4</ele>
        <time>2022-07-29T10:43:43Z</time>
      </trkpt>
      <trkpt lat="47.96665" lon="6.75648">
        <ele>635</ele>
        <time>2022-07-29T10:43:45Z</time>
      </trkpt>
      <trkpt lat="47.96664" lon="6.75642">
        <ele>634.4</ele>
        <time>2022-07-29T10:43:46Z</time>
      </trkpt>
      <trkpt lat="47.96664" lon="6.75637">
        <ele>634.2</ele>
        <time>2022-07-29T10:43:47Z</time>
      </trkpt>
      <trkpt lat="47.96662" lon="6.75631">
        <ele>633.8</ele>
        <time>2022-07-29T10:43:48Z</time>
      </trkpt>
      <trkpt lat="47.96663" lon="6.75628">
        <ele>633.2</ele>
        <time>2022-07-29T10:43:49Z</time>
      </trkpt>
      <trkpt lat="47.96664" lon="6.75624">
        <ele>632.4</ele>
        <time>2022-07-29T10:43:50Z</time>
      </trkpt>
      <trkpt lat="47.96664" lon="6.7562">
        <ele>632.2</ele>
        <time>2022-07-29T10:43:51Z</time>
      </trkpt>
      <trkpt lat="47.96664" lon="6.75614">
        <ele>632</ele>
        <time>2022-07-29T10:43:52Z</time>
      </trkpt>
      <trkpt lat="47.96665" lon="6.75608">
        <ele>631.8</ele>
        <time>2022-07-29T10:43:53Z</time>
      </trkpt>
      <trkpt lat="47.96665" lon="6.75604">
        <ele>631.4</ele>
        <time>2022-07-29T10:43:54Z</time>
      </trkpt>
      <trkpt lat="47.96667" lon="6.756">
        <ele>631.2</ele>
        <time>2022-07-29T10:43:55Z</time>
      </trkpt>
      <trkpt lat="47.96668" lon="6.75597">
        <ele>631.2</ele>
        <time>2022-07-29T10:43:56Z</time>
      </trkpt>
      <trkpt lat="47.96674" lon="6.75594">
        <ele>630.4</ele>
        <time>2022-07-29T10:43:57Z</time>
      </trkpt>
      <trkpt lat="47.96678" lon="6.75592">
        <ele>630.2</ele>
        <time>2022-07-29T10:43:58Z</time>
      </trkpt>
      <trkpt lat="47.96683" lon="6.75588">
        <ele>629.8</ele>
        <time>2022-07-29T10:44:00Z</time>
      </trkpt>
      <trkpt lat="47.96683" lon="6.75585">
        <ele>629.6</ele>
        <time>2022-07-29T10:44:01Z</time>
      </trkpt>
      <trkpt lat="47.96684" lon="6.75581">
        <ele>629.4</ele>
        <time>2022-07-29T10:44:02Z</time>
      </trkpt>
      <trkpt lat="47.96684" lon="6.75578">
        <ele>628.4</ele>
        <time>2022-07-29T10:44:03Z</time>
      </trkpt>
      <trkpt lat="47.96684" lon="6.75574">
        <ele>627.8</ele>
        <time>2022-07-29T10:44:04Z</time>
      </trkpt>
      <trkpt lat="47.96683" lon="6.75571">
        <ele>627.6</ele>
        <time>2022-07-29T10:44:05Z</time>
      </trkpt>
      <trkpt lat="47.96684" lon="6.75569">
        <ele>626.6</ele>
        <time>2022-07-29T10:44:06Z</time>
      </trkpt>
      <trkpt lat="47.96684" lon="6.75566">
        <ele>626.2</ele>
        <time>2022-07-29T10:44:07Z</time>
      </trkpt>
      <trkpt lat="47.96685" lon="6.75561">
        <ele>625.4</ele>
        <time>2022-07-29T10:44:09Z</time>
      </trkpt>
      <trkpt lat="47.96686" lon="6.75558">
        <ele>624.8</ele>
        <time>2022-07-29T10:44:10Z</time>
      </trkpt>
      <trkpt lat="47.96686" lon="6.75555">
        <ele>624.4</ele>
        <time>2022-07-29T10:44:11Z</time>
      </trkpt>
      <trkpt lat="47.96686" lon="6.75552">
        <ele>624</ele>
        <time>2022-07-29T10:44:12Z</time>
      </trkpt>
      <trkpt lat="47.96686" lon="6.75548">
        <ele>623.4</ele>
        <time>2022-07-29T10:44:13Z</time>
      </trkpt>
      <trkpt lat="47.96686" lon="6.75544">
        <ele>623.4</ele>
        <time>2022-07-29T10:44:14Z</time>
      </trkpt>
      <trkpt lat="47.96685" lon="6.75541">
        <ele>623.2</ele>
        <time>2022-07-29T10:44:15Z</time>
      </trkpt>
      <trkpt lat="47.96684" lon="6.75538">
        <ele>623.2</ele>
        <time>2022-07-29T10:44:16Z</time>
      </trkpt>
      <trkpt lat="47.96684" lon="6.75533">
        <ele>623.2</ele>
        <time>2022-07-29T10:44:18Z</time>
      </trkpt>
      <trkpt lat="47.96681" lon="6.75525">
        <ele>623.2</ele>
        <time>2022-07-29T10:44:20Z</time>
      </trkpt>
      <trkpt lat="47.9668" lon="6.75521">
        <ele>623.8</ele>
        <time>2022-07-29T10:44:22Z</time>
      </trkpt>
      <trkpt lat="47.9668" lon="6.75521">
        <ele>624.2</ele>
        <time>2022-07-29T10:44:23Z</time>
      </trkpt>
      <trkpt lat="47.96679" lon="6.75521">
        <ele>624.8</ele>
        <time>2022-07-29T10:44:24Z</time>
      </trkpt>
      <trkpt lat="47.96679" lon="6.75521">
        <ele>625</ele>
        <time>2022-07-29T10:44:25Z</time>
      </trkpt>
      <trkpt lat="47.96679" lon="6.7552">
        <ele>625.4</ele>
        <time>2022-07-29T10:44:26Z</time>
      </trkpt>
      <trkpt lat="47.96676" lon="6.75514">
        <ele>626.6</ele>
        <time>2022-07-29T10:44:30Z</time>
      </trkpt>
      <trkpt lat="47.96675" lon="6.75512">
        <ele>627</ele>
        <time>2022-07-29T10:44:31Z</time>
      </trkpt>
      <trkpt lat="47.96673" lon="6.75508">
        <ele>627.4</ele>
        <time>2022-07-29T10:44:34Z</time>
      </trkpt>
      <trkpt lat="47.96673" lon="6.75506">
        <ele>627.6</ele>
        <time>2022-07-29T10:44:35Z</time>
      </trkpt>
      <trkpt lat="47.96672" lon="6.75503">
        <ele>627.6</ele>
        <time>2022-07-29T10:44:36Z</time>
      </trkpt>
      <trkpt lat="47.9667" lon="6.75499">
        <ele>627.6</ele>
        <time>2022-07-29T10:44:37Z</time>
      </trkpt>
      <trkpt lat="47.96669" lon="6.75495">
        <ele>627.6</ele>
        <time>2022-07-29T10:44:38Z</time>
      </trkpt>
      <trkpt lat="47.96665" lon="6.75475">
        <ele>627.4</ele>
        <time>2022-07-29T10:44:42Z</time>
      </trkpt>
      <trkpt lat="47.96665" lon="6.75471">
        <ele>627.4</ele>
        <time>2022-07-29T10:44:43Z</time>
      </trkpt>
      <trkpt lat="47.96664" lon="6.75468">
        <ele>627.4</ele>
        <time>2022-07-29T10:44:44Z</time>
      </trkpt>
      <trkpt lat="47.96664" lon="6.75464">
        <ele>627.4</ele>
        <time>2022-07-29T10:44:45Z</time>
      </trkpt>
      <trkpt lat="47.96662" lon="6.75459">
        <ele>627.4</ele>
        <time>2022-07-29T10:44:47Z</time>
      </trkpt>
      <trkpt lat="47.96663" lon="6.75457">
        <ele>627.6</ele>
        <time>2022-07-29T10:44:48Z</time>
      </trkpt>
      <trkpt lat="47.96662" lon="6.75454">
        <ele>627.6</ele>
        <time>2022-07-29T10:44:49Z</time>
      </trkpt>
      <trkpt lat="47.96661" lon="6.75451">
        <ele>627.8</ele>
        <time>2022-07-29T10:44:50Z</time>
      </trkpt>
      <trkpt lat="47.9666" lon="6.75446">
        <ele>628.6</ele>
        <time>2022-07-29T10:44:53Z</time>
      </trkpt>
      <trkpt lat="47.9666" lon="6.75446">
        <ele>628.6</ele>
        <time>2022-07-29T10:44:54Z</time>
      </trkpt>
      <trkpt lat="47.9666" lon="6.75446">
        <ele>628.8</ele>
        <time>2022-07-29T10:45:01Z</time>
      </trkpt>
      <trkpt lat="47.96658" lon="6.75439">
        <ele>628.8</ele>
        <time>2022-07-29T10:45:17Z</time>
      </trkpt>
      <trkpt lat="47.96658" lon="6.75436">
        <ele>628.8</ele>
        <time>2022-07-29T10:45:18Z</time>
      </trkpt>
      <trkpt lat="47.96658" lon="6.7543">
        <ele>628.6</ele>
        <time>2022-07-29T10:45:20Z</time>
      </trkpt>
      <trkpt lat="47.96657" lon="6.75427">
        <ele>628.6</ele>
        <time>2022-07-29T10:45:21Z</time>
      </trkpt>
      <trkpt lat="47.96657" lon="6.75425">
        <ele>628.6</ele>
        <time>2022-07-29T10:45:22Z</time>
      </trkpt>
      <trkpt lat="47.96656" lon="6.75421">
        <ele>628.6</ele>
        <time>2022-07-29T10:45:23Z</time>
      </trkpt>
      <trkpt lat="47.96655" lon="6.75418">
        <ele>628.6</ele>
        <time>2022-07-29T10:45:24Z</time>
      </trkpt>
      <trkpt lat="47.96654" lon="6.75416">
        <ele>628.8</ele>
        <time>2022-07-29T10:45:25Z</time>
      </trkpt>
      <trkpt lat="47.96654" lon="6.75413">
        <ele>628.8</ele>
        <time>2022-07-29T10:45:26Z</time>
      </trkpt>
      <trkpt lat="47.96654" lon="6.75411">
        <ele>629.2</ele>
        <time>2022-07-29T10:45:27Z</time>
      </trkpt>
      <trkpt lat="47.96653" lon="6.75408">
        <ele>629.4</ele>
        <time>2022-07-29T10:45:28Z</time>
      </trkpt>
      <trkpt lat="47.96653" lon="6.75405">
        <ele>630</ele>
        <time>2022-07-29T10:45:29Z</time>
      </trkpt>
      <trkpt lat="47.96652" lon="6.75402">
        <ele>630.2</ele>
        <time>2022-07-29T10:45:30Z</time>
      </trkpt>
      <trkpt lat="47.96649" lon="6.75391">
        <ele>631</ele>
        <time>2022-07-29T10:45:33Z</time>
      </trkpt>
      <trkpt lat="47.96647" lon="6.75386">
        <ele>631.2</ele>
        <time>2022-07-29T10:45:34Z</time>
      </trkpt>
      <trkpt lat="47.96639" lon="6.75362">
        <ele>631.2</ele>
        <time>2022-07-29T10:45:38Z</time>
      </trkpt>
      <trkpt lat="47.96638" lon="6.75355">
        <ele>631</ele>
        <time>2022-07-29T10:45:39Z</time>
      </trkpt>
      <trkpt lat="47.96635" lon="6.75347">
        <ele>630.8</ele>
        <time>2022-07-29T10:45:40Z</time>
      </trkpt>
      <trkpt lat="47.96632" lon="6.75339">
        <ele>630.6</ele>
        <time>2022-07-29T10:45:41Z</time>
      </trkpt>
      <trkpt lat="47.9663" lon="6.75333">
        <ele>630.4</ele>
        <time>2022-07-29T10:45:42Z</time>
      </trkpt>
      <trkpt lat="47.96627" lon="6.7533">
        <ele>630</ele>
        <time>2022-07-29T10:45:43Z</time>
      </trkpt>
      <trkpt lat="47.96624" lon="6.75327">
        <ele>629.8</ele>
        <time>2022-07-29T10:45:44Z</time>
      </trkpt>
      <trkpt lat="47.96622" lon="6.75327">
        <ele>629.6</ele>
        <time>2022-07-29T10:45:45Z</time>
      </trkpt>
      <trkpt lat="47.96617" lon="6.75327">
        <ele>629.4</ele>
        <time>2022-07-29T10:45:46Z</time>
      </trkpt>
      <trkpt lat="47.96611" lon="6.75332">
        <ele>629</ele>
        <time>2022-07-29T10:45:48Z</time>
      </trkpt>
      <trkpt lat="47.9661" lon="6.75335">
        <ele>628.8</ele>
        <time>2022-07-29T10:45:49Z</time>
      </trkpt>
      <trkpt lat="47.96609" lon="6.75337">
        <ele>628.8</ele>
        <time>2022-07-29T10:45:50Z</time>
      </trkpt>
      <trkpt lat="47.96607" lon="6.75339">
        <ele>628.6</ele>
        <time>2022-07-29T10:45:51Z</time>
      </trkpt>
      <trkpt lat="47.96604" lon="6.75341">
        <ele>628.4</ele>
        <time>2022-07-29T10:45:52Z</time>
      </trkpt>
      <trkpt lat="47.966" lon="6.75341">
        <ele>628.2</ele>
        <time>2022-07-29T10:45:53Z</time>
      </trkpt>
      <trkpt lat="47.96596" lon="6.75342">
        <ele>628</ele>
        <time>2022-07-29T10:45:54Z</time>
      </trkpt>
      <trkpt lat="47.96591" lon="6.75342">
        <ele>628</ele>
        <time>2022-07-29T10:45:55Z</time>
      </trkpt>
      <trkpt lat="47.96584" lon="6.75342">
        <ele>627.8</ele>
        <time>2022-07-29T10:45:58Z</time>
      </trkpt>
      <trkpt lat="47.96581" lon="6.75342">
        <ele>627.8</ele>
        <time>2022-07-29T10:45:59Z</time>
      </trkpt>
      <trkpt lat="47.96577" lon="6.75342">
        <ele>628</ele>
        <time>2022-07-29T10:46:00Z</time>
      </trkpt>
      <trkpt lat="47.96575" lon="6.75341">
        <ele>627.8</ele>
        <time>2022-07-29T10:46:01Z</time>
      </trkpt>
      <trkpt lat="47.96567" lon="6.75338">
        <ele>628</ele>
        <time>2022-07-29T10:46:03Z</time>
      </trkpt>
      <trkpt lat="47.96564" lon="6.75338">
        <ele>628</ele>
        <time>2022-07-29T10:46:04Z</time>
      </trkpt>
      <trkpt lat="47.96562" lon="6.75337">
        <ele>628.2</ele>
        <time>2022-07-29T10:46:05Z</time>
      </trkpt>
      <trkpt lat="47.96555" lon="6.75334">
        <ele>628.4</ele>
        <time>2022-07-29T10:46:07Z</time>
      </trkpt>
      <trkpt lat="47.96549" lon="6.75333">
        <ele>628.6</ele>
        <time>2022-07-29T10:46:08Z</time>
      </trkpt>
      <trkpt lat="47.96544" lon="6.75333">
        <ele>628.8</ele>
        <time>2022-07-29T10:46:10Z</time>
      </trkpt>
      <trkpt lat="47.96541" lon="6.75332">
        <ele>628.8</ele>
        <time>2022-07-29T10:46:11Z</time>
      </trkpt>
      <trkpt lat="47.96535" lon="6.75332">
        <ele>629</ele>
        <time>2022-07-29T10:46:13Z</time>
      </trkpt>
      <trkpt lat="47.96529" lon="6.75334">
        <ele>629</ele>
        <time>2022-07-29T10:46:16Z</time>
      </trkpt>
      <trkpt lat="47.96527" lon="6.75335">
        <ele>629</ele>
        <time>2022-07-29T10:46:17Z</time>
      </trkpt>
      <trkpt lat="47.96522" lon="6.75337">
        <ele>629</ele>
        <time>2022-07-29T10:46:19Z</time>
      </trkpt>
      <trkpt lat="47.96518" lon="6.75339">
        <ele>629.2</ele>
        <time>2022-07-29T10:46:22Z</time>
      </trkpt>
      <trkpt lat="47.96517" lon="6.75339">
        <ele>629.4</ele>
        <time>2022-07-29T10:46:23Z</time>
      </trkpt>
      <trkpt lat="47.96515" lon="6.75338">
        <ele>629.4</ele>
        <time>2022-07-29T10:46:24Z</time>
      </trkpt>
      <trkpt lat="47.96513" lon="6.75338">
        <ele>629.4</ele>
        <time>2022-07-29T10:46:25Z</time>
      </trkpt>
      <trkpt lat="47.9651" lon="6.75336">
        <ele>629.6</ele>
        <time>2022-07-29T10:46:28Z</time>
      </trkpt>
      <trkpt lat="47.9651" lon="6.75336">
        <ele>629.6</ele>
        <time>2022-07-29T10:46:29Z</time>
      </trkpt>
      <trkpt lat="47.9651" lon="6.75335">
        <ele>629.6</ele>
        <time>2022-07-29T10:46:30Z</time>
      </trkpt>
      <trkpt lat="47.96509" lon="6.75334">
        <ele>629.6</ele>
        <time>2022-07-29T10:46:31Z</time>
      </trkpt>
      <trkpt lat="47.96509" lon="6.75333">
        <ele>629.4</ele>
        <time>2022-07-29T10:46:32Z</time>
      </trkpt>
      <trkpt lat="47.96508" lon="6.7533">
        <ele>629.2</ele>
        <time>2022-07-29T10:46:33Z</time>
      </trkpt>
      <trkpt lat="47.96505" lon="6.75323">
        <ele>628.6</ele>
        <time>2022-07-29T10:46:35Z</time>
      </trkpt>
      <trkpt lat="47.96503" lon="6.75319">
        <ele>628.4</ele>
        <time>2022-07-29T10:46:36Z</time>
      </trkpt>
      <trkpt lat="47.96502" lon="6.75316">
        <ele>627.6</ele>
        <time>2022-07-29T10:46:37Z</time>
      </trkpt>
      <trkpt lat="47.96501" lon="6.75313">
        <ele>627</ele>
        <time>2022-07-29T10:46:38Z</time>
      </trkpt>
      <trkpt lat="47.96499" lon="6.75309">
        <ele>626.2</ele>
        <time>2022-07-29T10:46:39Z</time>
      </trkpt>
      <trkpt lat="47.96496" lon="6.75302">
        <ele>626</ele>
        <time>2022-07-29T10:46:40Z</time>
      </trkpt>
      <trkpt lat="47.96494" lon="6.75297">
        <ele>625.6</ele>
        <time>2022-07-29T10:46:41Z</time>
      </trkpt>
      <trkpt lat="47.9649" lon="6.75291">
        <ele>625.6</ele>
        <time>2022-07-29T10:46:42Z</time>
      </trkpt>
      <trkpt lat="47.96486" lon="6.75288">
        <ele>625.4</ele>
        <time>2022-07-29T10:46:43Z</time>
      </trkpt>
      <trkpt lat="47.96482" lon="6.75286">
        <ele>625</ele>
        <time>2022-07-29T10:46:44Z</time>
      </trkpt>
      <trkpt lat="47.96479" lon="6.75286">
        <ele>624.6</ele>
        <time>2022-07-29T10:46:45Z</time>
      </trkpt>
      <trkpt lat="47.96475" lon="6.75284">
        <ele>624</ele>
        <time>2022-07-29T10:46:46Z</time>
      </trkpt>
      <trkpt lat="47.96473" lon="6.75284">
        <ele>623.8</ele>
        <time>2022-07-29T10:46:47Z</time>
      </trkpt>
      <trkpt lat="47.96472" lon="6.75284">
        <ele>623.6</ele>
        <time>2022-07-29T10:46:48Z</time>
      </trkpt>
      <trkpt lat="47.96472" lon="6.75284">
        <ele>623.6</ele>
        <time>2022-07-29T10:46:49Z</time>
      </trkpt>
      <trkpt lat="47.96471" lon="6.75284">
        <ele>623.6</ele>
        <time>2022-07-29T10:46:50Z</time>
      </trkpt>
      <trkpt lat="47.9647" lon="6.75284">
        <ele>623.6</ele>
        <time>2022-07-29T10:46:51Z</time>
      </trkpt>
      <trkpt lat="47.96463" lon="6.75287">
        <ele>624.2</ele>
        <time>2022-07-29T10:46:55Z</time>
      </trkpt>
      <trkpt lat="47.96462" lon="6.75288">
        <ele>624.2</ele>
        <time>2022-07-29T10:46:56Z</time>
      </trkpt>
      <trkpt lat="47.96462" lon="6.75288">
        <ele>624.4</ele>
        <time>2022-07-29T10:46:57Z</time>
      </trkpt>
      <trkpt lat="47.96461" lon="6.75288">
        <ele>624.6</ele>
        <time>2022-07-29T10:46:58Z</time>
      </trkpt>
      <trkpt lat="47.96459" lon="6.75289">
        <ele>624.8</ele>
        <time>2022-07-29T10:46:59Z</time>
      </trkpt>
      <trkpt lat="47.96456" lon="6.7529">
        <ele>625</ele>
        <time>2022-07-29T10:47:00Z</time>
      </trkpt>
      <trkpt lat="47.96453" lon="6.75292">
        <ele>625</ele>
        <time>2022-07-29T10:47:01Z</time>
      </trkpt>
      <trkpt lat="47.96446" lon="6.75295">
        <ele>625.2</ele>
        <time>2022-07-29T10:47:04Z</time>
      </trkpt>
      <trkpt lat="47.96444" lon="6.75297">
        <ele>625.2</ele>
        <time>2022-07-29T10:47:05Z</time>
      </trkpt>
      <trkpt lat="47.96441" lon="6.75297">
        <ele>625.2</ele>
        <time>2022-07-29T10:47:06Z</time>
      </trkpt>
      <trkpt lat="47.96437" lon="6.75297">
        <ele>625.2</ele>
        <time>2022-07-29T10:47:07Z</time>
      </trkpt>
      <trkpt lat="47.96427" lon="6.75294">
        <ele>625.2</ele>
        <time>2022-07-29T10:47:09Z</time>
      </trkpt>
      <trkpt lat="47.96418" lon="6.75289">
        <ele>625</ele>
        <time>2022-07-29T10:47:12Z</time>
      </trkpt>
      <trkpt lat="47.96416" lon="6.75287">
        <ele>625</ele>
        <time>2022-07-29T10:47:13Z</time>
      </trkpt>
      <trkpt lat="47.96414" lon="6.75285">
        <ele>625</ele>
        <time>2022-07-29T10:47:14Z</time>
      </trkpt>
      <trkpt lat="47.96412" lon="6.75282">
        <ele>624.8</ele>
        <time>2022-07-29T10:47:15Z</time>
      </trkpt>
      <trkpt lat="47.96411" lon="6.75282">
        <ele>624.8</ele>
        <time>2022-07-29T10:47:16Z</time>
      </trkpt>
      <trkpt lat="47.96411" lon="6.75281">
        <ele>624.8</ele>
        <time>2022-07-29T10:47:17Z</time>
      </trkpt>
      <trkpt lat="47.96411" lon="6.7528">
        <ele>624.8</ele>
        <time>2022-07-29T10:47:18Z</time>
      </trkpt>
      <trkpt lat="47.9641" lon="6.75278">
        <ele>625.2</ele>
        <time>2022-07-29T10:47:19Z</time>
      </trkpt>
      <trkpt lat="47.96409" lon="6.75276">
        <ele>625.4</ele>
        <time>2022-07-29T10:47:20Z</time>
      </trkpt>
      <trkpt lat="47.96408" lon="6.75272">
        <ele>625.8</ele>
        <time>2022-07-29T10:47:22Z</time>
      </trkpt>
      <trkpt lat="47.96408" lon="6.7527">
        <ele>625.8</ele>
        <time>2022-07-29T10:47:23Z</time>
      </trkpt>
      <trkpt lat="47.96408" lon="6.75268">
        <ele>626</ele>
        <time>2022-07-29T10:47:24Z</time>
      </trkpt>
      <trkpt lat="47.96407" lon="6.75266">
        <ele>626.2</ele>
        <time>2022-07-29T10:47:25Z</time>
      </trkpt>
      <trkpt lat="47.96406" lon="6.75266">
        <ele>626</ele>
        <time>2022-07-29T10:47:26Z</time>
      </trkpt>
      <trkpt lat="47.96406" lon="6.75265">
        <ele>626.4</ele>
        <time>2022-07-29T10:47:27Z</time>
      </trkpt>
      <trkpt lat="47.96405" lon="6.75263">
        <ele>626.4</ele>
        <time>2022-07-29T10:47:28Z</time>
      </trkpt>
      <trkpt lat="47.96404" lon="6.75262">
        <ele>626.6</ele>
        <time>2022-07-29T10:47:29Z</time>
      </trkpt>
      <trkpt lat="47.96404" lon="6.75261">
        <ele>626.8</ele>
        <time>2022-07-29T10:47:30Z</time>
      </trkpt>
      <trkpt lat="47.96403" lon="6.75259">
        <ele>627.2</ele>
        <time>2022-07-29T10:47:31Z</time>
      </trkpt>
      <trkpt lat="47.96402" lon="6.75258">
        <ele>627.4</ele>
        <time>2022-07-29T10:47:32Z</time>
      </trkpt>
      <trkpt lat="47.964" lon="6.75253">
        <ele>627.6</ele>
        <time>2022-07-29T10:47:34Z</time>
      </trkpt>
      <trkpt lat="47.96397" lon="6.75247">
        <ele>627.6</ele>
        <time>2022-07-29T10:47:36Z</time>
      </trkpt>
      <trkpt lat="47.96395" lon="6.75245">
        <ele>627.8</ele>
        <time>2022-07-29T10:47:37Z</time>
      </trkpt>
      <trkpt lat="47.96393" lon="6.75243">
        <ele>628</ele>
        <time>2022-07-29T10:47:38Z</time>
      </trkpt>
      <trkpt lat="47.96392" lon="6.75242">
        <ele>628</ele>
        <time>2022-07-29T10:47:39Z</time>
      </trkpt>
      <trkpt lat="47.96391" lon="6.7524">
        <ele>628.2</ele>
        <time>2022-07-29T10:47:40Z</time>
      </trkpt>
      <trkpt lat="47.96389" lon="6.75237">
        <ele>628.2</ele>
        <time>2022-07-29T10:47:41Z</time>
      </trkpt>
      <trkpt lat="47.96388" lon="6.75236">
        <ele>628.4</ele>
        <time>2022-07-29T10:47:42Z</time>
      </trkpt>
      <trkpt lat="47.96386" lon="6.75234">
        <ele>628.4</ele>
        <time>2022-07-29T10:47:43Z</time>
      </trkpt>
      <trkpt lat="47.96385" lon="6.75233">
        <ele>628.8</ele>
        <time>2022-07-29T10:47:44Z</time>
      </trkpt>
      <trkpt lat="47.96384" lon="6.75232">
        <ele>629</ele>
        <time>2022-07-29T10:47:45Z</time>
      </trkpt>
      <trkpt lat="47.96383" lon="6.75232">
        <ele>629</ele>
        <time>2022-07-29T10:47:46Z</time>
      </trkpt>
      <trkpt lat="47.96382" lon="6.75231">
        <ele>629.2</ele>
        <time>2022-07-29T10:47:47Z</time>
      </trkpt>
      <trkpt lat="47.96381" lon="6.7523">
        <ele>629.2</ele>
        <time>2022-07-29T10:47:48Z</time>
      </trkpt>
      <trkpt lat="47.96381" lon="6.7523">
        <ele>629.4</ele>
        <time>2022-07-29T10:47:49Z</time>
      </trkpt>
      <trkpt lat="47.9638" lon="6.75229">
        <ele>629.4</ele>
        <time>2022-07-29T10:47:50Z</time>
      </trkpt>
      <trkpt lat="47.96379" lon="6.75228">
        <ele>629.8</ele>
        <time>2022-07-29T10:47:51Z</time>
      </trkpt>
      <trkpt lat="47.96379" lon="6.75227">
        <ele>629.8</ele>
        <time>2022-07-29T10:47:52Z</time>
      </trkpt>
      <trkpt lat="47.96379" lon="6.75226">
        <ele>630.2</ele>
        <time>2022-07-29T10:47:53Z</time>
      </trkpt>
      <trkpt lat="47.96378" lon="6.75223">
        <ele>630.4</ele>
        <time>2022-07-29T10:47:54Z</time>
      </trkpt>
      <trkpt lat="47.96377" lon="6.75222">
        <ele>630.6</ele>
        <time>2022-07-29T10:47:55Z</time>
      </trkpt>
      <trkpt lat="47.96376" lon="6.75219">
        <ele>630.8</ele>
        <time>2022-07-29T10:47:56Z</time>
      </trkpt>
      <trkpt lat="47.96375" lon="6.75217">
        <ele>631</ele>
        <time>2022-07-29T10:47:57Z</time>
      </trkpt>
      <trkpt lat="47.96373" lon="6.75215">
        <ele>631.2</ele>
        <time>2022-07-29T10:47:58Z</time>
      </trkpt>
      <trkpt lat="47.96372" lon="6.75212">
        <ele>631.2</ele>
        <time>2022-07-29T10:47:59Z</time>
      </trkpt>
      <trkpt lat="47.9637" lon="6.75209">
        <ele>631.4</ele>
        <time>2022-07-29T10:48:00Z</time>
      </trkpt>
      <trkpt lat="47.9637" lon="6.75206">
        <ele>631.4</ele>
        <time>2022-07-29T10:48:01Z</time>
      </trkpt>
      <trkpt lat="47.96369" lon="6.75203">
        <ele>631.8</ele>
        <time>2022-07-29T10:48:02Z</time>
      </trkpt>
      <trkpt lat="47.96368" lon="6.752">
        <ele>632</ele>
        <time>2022-07-29T10:48:03Z</time>
      </trkpt>
      <trkpt lat="47.96366" lon="6.75198">
        <ele>632</ele>
        <time>2022-07-29T10:48:04Z</time>
      </trkpt>
      <trkpt lat="47.96364" lon="6.75195">
        <ele>632.2</ele>
        <time>2022-07-29T10:48:05Z</time>
      </trkpt>
      <trkpt lat="47.96363" lon="6.75194">
        <ele>632.2</ele>
        <time>2022-07-29T10:48:06Z</time>
      </trkpt>
      <trkpt lat="47.96362" lon="6.75194">
        <ele>632.4</ele>
        <time>2022-07-29T10:48:07Z</time>
      </trkpt>
      <trkpt lat="47.96362" lon="6.75193">
        <ele>632.6</ele>
        <time>2022-07-29T10:48:08Z</time>
      </trkpt>
      <trkpt lat="47.96362" lon="6.75192">
        <ele>632.6</ele>
        <time>2022-07-29T10:48:09Z</time>
      </trkpt>
      <trkpt lat="47.96361" lon="6.75191">
        <ele>632.8</ele>
        <time>2022-07-29T10:48:10Z</time>
      </trkpt>
      <trkpt lat="47.9636" lon="6.7519">
        <ele>632.8</ele>
        <time>2022-07-29T10:48:11Z</time>
      </trkpt>
      <trkpt lat="47.96358" lon="6.75188">
        <ele>633.2</ele>
        <time>2022-07-29T10:48:12Z</time>
      </trkpt>
      <trkpt lat="47.96358" lon="6.75186">
        <ele>633.4</ele>
        <time>2022-07-29T10:48:13Z</time>
      </trkpt>
      <trkpt lat="47.96357" lon="6.75184">
        <ele>633.6</ele>
        <time>2022-07-29T10:48:14Z</time>
      </trkpt>
      <trkpt lat="47.96357" lon="6.75182">
        <ele>633.8</ele>
        <time>2022-07-29T10:48:15Z</time>
      </trkpt>
      <trkpt lat="47.96356" lon="6.7518">
        <ele>633.8</ele>
        <time>2022-07-29T10:48:16Z</time>
      </trkpt>
      <trkpt lat="47.96355" lon="6.75178">
        <ele>634</ele>
        <time>2022-07-29T10:48:17Z</time>
      </trkpt>
      <trkpt lat="47.96353" lon="6.75175">
        <ele>634</ele>
        <time>2022-07-29T10:48:18Z</time>
      </trkpt>
      <trkpt lat="47.96352" lon="6.75173">
        <ele>634</ele>
        <time>2022-07-29T10:48:19Z</time>
      </trkpt>
      <trkpt lat="47.96349" lon="6.75171">
        <ele>634.2</ele>
        <time>2022-07-29T10:48:20Z</time>
      </trkpt>
      <trkpt lat="47.96347" lon="6.7517">
        <ele>634.4</ele>
        <time>2022-07-29T10:48:21Z</time>
      </trkpt>
      <trkpt lat="47.96346" lon="6.7517">
        <ele>634.6</ele>
        <time>2022-07-29T10:48:22Z</time>
      </trkpt>
      <trkpt lat="47.96346" lon="6.75168">
        <ele>634.8</ele>
        <time>2022-07-29T10:48:23Z</time>
      </trkpt>
      <trkpt lat="47.96346" lon="6.75168">
        <ele>634.8</ele>
        <time>2022-07-29T10:48:24Z</time>
      </trkpt>
      <trkpt lat="47.96346" lon="6.75167">
        <ele>635</ele>
        <time>2022-07-29T10:48:25Z</time>
      </trkpt>
      <trkpt lat="47.96345" lon="6.75164">
        <ele>635.2</ele>
        <time>2022-07-29T10:48:26Z</time>
      </trkpt>
      <trkpt lat="47.96344" lon="6.75163">
        <ele>635.8</ele>
        <time>2022-07-29T10:48:27Z</time>
      </trkpt>
      <trkpt lat="47.96343" lon="6.75161">
        <ele>636.2</ele>
        <time>2022-07-29T10:48:28Z</time>
      </trkpt>
      <trkpt lat="47.96342" lon="6.75159">
        <ele>636.6</ele>
        <time>2022-07-29T10:48:29Z</time>
      </trkpt>
      <trkpt lat="47.96341" lon="6.75157">
        <ele>637.2</ele>
        <time>2022-07-29T10:48:30Z</time>
      </trkpt>
      <trkpt lat="47.9634" lon="6.75154">
        <ele>637.4</ele>
        <time>2022-07-29T10:48:31Z</time>
      </trkpt>
      <trkpt lat="47.96339" lon="6.75152">
        <ele>637.6</ele>
        <time>2022-07-29T10:48:32Z</time>
      </trkpt>
      <trkpt lat="47.96338" lon="6.7515">
        <ele>637.8</ele>
        <time>2022-07-29T10:48:33Z</time>
      </trkpt>
      <trkpt lat="47.96336" lon="6.75147">
        <ele>637.8</ele>
        <time>2022-07-29T10:48:34Z</time>
      </trkpt>
      <trkpt lat="47.96336" lon="6.75144">
        <ele>638</ele>
        <time>2022-07-29T10:48:35Z</time>
      </trkpt>
      <trkpt lat="47.96334" lon="6.75142">
        <ele>638.2</ele>
        <time>2022-07-29T10:48:36Z</time>
      </trkpt>
      <trkpt lat="47.96333" lon="6.7514">
        <ele>638.2</ele>
        <time>2022-07-29T10:48:37Z</time>
      </trkpt>
      <trkpt lat="47.96332" lon="6.75139">
        <ele>638.4</ele>
        <time>2022-07-29T10:48:38Z</time>
      </trkpt>
      <trkpt lat="47.96331" lon="6.75137">
        <ele>638.6</ele>
        <time>2022-07-29T10:48:39Z</time>
      </trkpt>
      <trkpt lat="47.96329" lon="6.75134">
        <ele>638.6</ele>
        <time>2022-07-29T10:48:40Z</time>
      </trkpt>
      <trkpt lat="47.96329" lon="6.75131">
        <ele>638.8</ele>
        <time>2022-07-29T10:48:41Z</time>
      </trkpt>
      <trkpt lat="47.96328" lon="6.75128">
        <ele>638.8</ele>
        <time>2022-07-29T10:48:42Z</time>
      </trkpt>
      <trkpt lat="47.96329" lon="6.75125">
        <ele>638.8</ele>
        <time>2022-07-29T10:48:43Z</time>
      </trkpt>
      <trkpt lat="47.96329" lon="6.75123">
        <ele>638.8</ele>
        <time>2022-07-29T10:48:44Z</time>
      </trkpt>
      <trkpt lat="47.96329" lon="6.75122">
        <ele>639</ele>
        <time>2022-07-29T10:48:45Z</time>
      </trkpt>
      <trkpt lat="47.96328" lon="6.7512">
        <ele>639</ele>
        <time>2022-07-29T10:48:46Z</time>
      </trkpt>
      <trkpt lat="47.96327" lon="6.75117">
        <ele>639</ele>
        <time>2022-07-29T10:48:47Z</time>
      </trkpt>
      <trkpt lat="47.96327" lon="6.75114">
        <ele>639.2</ele>
        <time>2022-07-29T10:48:48Z</time>
      </trkpt>
      <trkpt lat="47.96325" lon="6.75111">
        <ele>639.2</ele>
        <time>2022-07-29T10:48:49Z</time>
      </trkpt>
      <trkpt lat="47.96324" lon="6.75108">
        <ele>639.4</ele>
        <time>2022-07-29T10:48:50Z</time>
      </trkpt>
      <trkpt lat="47.96324" lon="6.75105">
        <ele>639.4</ele>
        <time>2022-07-29T10:48:51Z</time>
      </trkpt>
      <trkpt lat="47.96324" lon="6.75102">
        <ele>639.6</ele>
        <time>2022-07-29T10:48:52Z</time>
      </trkpt>
      <trkpt lat="47.96323" lon="6.75098">
        <ele>639.6</ele>
        <time>2022-07-29T10:48:53Z</time>
      </trkpt>
      <trkpt lat="47.96322" lon="6.75096">
        <ele>639.8</ele>
        <time>2022-07-29T10:48:54Z</time>
      </trkpt>
      <trkpt lat="47.96323" lon="6.75094">
        <ele>639.8</ele>
        <time>2022-07-29T10:48:55Z</time>
      </trkpt>
      <trkpt lat="47.96322" lon="6.75093">
        <ele>640.2</ele>
        <time>2022-07-29T10:48:56Z</time>
      </trkpt>
      <trkpt lat="47.96322" lon="6.75091">
        <ele>640.2</ele>
        <time>2022-07-29T10:48:57Z</time>
      </trkpt>
      <trkpt lat="47.96321" lon="6.75088">
        <ele>640.4</ele>
        <time>2022-07-29T10:48:58Z</time>
      </trkpt>
      <trkpt lat="47.96321" lon="6.75086">
        <ele>640.4</ele>
        <time>2022-07-29T10:48:59Z</time>
      </trkpt>
      <trkpt lat="47.9632" lon="6.75084">
        <ele>640.6</ele>
        <time>2022-07-29T10:49:00Z</time>
      </trkpt>
      <trkpt lat="47.9632" lon="6.75082">
        <ele>640.8</ele>
        <time>2022-07-29T10:49:01Z</time>
      </trkpt>
      <trkpt lat="47.96319" lon="6.7508">
        <ele>640.8</ele>
        <time>2022-07-29T10:49:02Z</time>
      </trkpt>
      <trkpt lat="47.96319" lon="6.75078">
        <ele>641.6</ele>
        <time>2022-07-29T10:49:03Z</time>
      </trkpt>
      <trkpt lat="47.96318" lon="6.75076">
        <ele>642</ele>
        <time>2022-07-29T10:49:04Z</time>
      </trkpt>
      <trkpt lat="47.96318" lon="6.75075">
        <ele>642.4</ele>
        <time>2022-07-29T10:49:05Z</time>
      </trkpt>
      <trkpt lat="47.96318" lon="6.75074">
        <ele>642.8</ele>
        <time>2022-07-29T10:49:06Z</time>
      </trkpt>
      <trkpt lat="47.96318" lon="6.75073">
        <ele>643.2</ele>
        <time>2022-07-29T10:49:07Z</time>
      </trkpt>
      <trkpt lat="47.96318" lon="6.75071">
        <ele>643.8</ele>
        <time>2022-07-29T10:49:08Z</time>
      </trkpt>
      <trkpt lat="47.96319" lon="6.75068">
        <ele>644</ele>
        <time>2022-07-29T10:49:09Z</time>
      </trkpt>
      <trkpt lat="47.96319" lon="6.75065">
        <ele>644.2</ele>
        <time>2022-07-29T10:49:10Z</time>
      </trkpt>
      <trkpt lat="47.96318" lon="6.75062">
        <ele>644.2</ele>
        <time>2022-07-29T10:49:11Z</time>
      </trkpt>
      <trkpt lat="47.96318" lon="6.75059">
        <ele>644.4</ele>
        <time>2022-07-29T10:49:12Z</time>
      </trkpt>
      <trkpt lat="47.96317" lon="6.75056">
        <ele>644.4</ele>
        <time>2022-07-29T10:49:13Z</time>
      </trkpt>
      <trkpt lat="47.96316" lon="6.75054">
        <ele>644.4</ele>
        <time>2022-07-29T10:49:14Z</time>
      </trkpt>
      <trkpt lat="47.96317" lon="6.75051">
        <ele>644.4</ele>
        <time>2022-07-29T10:49:15Z</time>
      </trkpt>
      <trkpt lat="47.96317" lon="6.75049">
        <ele>644.4</ele>
        <time>2022-07-29T10:49:16Z</time>
      </trkpt>
      <trkpt lat="47.96316" lon="6.75046">
        <ele>644.2</ele>
        <time>2022-07-29T10:49:17Z</time>
      </trkpt>
      <trkpt lat="47.96316" lon="6.75043">
        <ele>644.2</ele>
        <time>2022-07-29T10:49:18Z</time>
      </trkpt>
      <trkpt lat="47.96316" lon="6.7504">
        <ele>644</ele>
        <time>2022-07-29T10:49:19Z</time>
      </trkpt>
      <trkpt lat="47.96316" lon="6.75037">
        <ele>644</ele>
        <time>2022-07-29T10:49:20Z</time>
      </trkpt>
      <trkpt lat="47.96316" lon="6.75036">
        <ele>643.4</ele>
        <time>2022-07-29T10:49:21Z</time>
      </trkpt>
      <trkpt lat="47.96316" lon="6.75036">
        <ele>643.4</ele>
        <time>2022-07-29T10:49:22Z</time>
      </trkpt>
      <trkpt lat="47.96316" lon="6.75036">
        <ele>642.8</ele>
        <time>2022-07-29T10:49:24Z</time>
      </trkpt>
      <trkpt lat="47.96315" lon="6.75034">
        <ele>642.4</ele>
        <time>2022-07-29T10:49:26Z</time>
      </trkpt>
      <trkpt lat="47.96315" lon="6.75032">
        <ele>642.4</ele>
        <time>2022-07-29T10:49:27Z</time>
      </trkpt>
      <trkpt lat="47.96314" lon="6.75031">
        <ele>642.4</ele>
        <time>2022-07-29T10:49:28Z</time>
      </trkpt>
      <trkpt lat="47.96314" lon="6.75028">
        <ele>642.4</ele>
        <time>2022-07-29T10:49:30Z</time>
      </trkpt>
      <trkpt lat="47.96313" lon="6.75027">
        <ele>642.4</ele>
        <time>2022-07-29T10:49:31Z</time>
      </trkpt>
      <trkpt lat="47.96313" lon="6.75026">
        <ele>642.4</ele>
        <time>2022-07-29T10:49:32Z</time>
      </trkpt>
      <trkpt lat="47.96312" lon="6.75025">
        <ele>642.4</ele>
        <time>2022-07-29T10:49:33Z</time>
      </trkpt>
      <trkpt lat="47.96312" lon="6.75025">
        <ele>642.4</ele>
        <time>2022-07-29T10:49:34Z</time>
      </trkpt>
      <trkpt lat="47.96312" lon="6.75025">
        <ele>642.4</ele>
        <time>2022-07-29T10:49:35Z</time>
      </trkpt>
      <trkpt lat="47.96312" lon="6.75024">
        <ele>642.4</ele>
        <time>2022-07-29T10:49:36Z</time>
      </trkpt>
      <trkpt lat="47.96312" lon="6.75023">
        <ele>642.2</ele>
        <time>2022-07-29T10:49:38Z</time>
      </trkpt>
      <trkpt lat="47.96312" lon="6.75022">
        <ele>642.2</ele>
        <time>2022-07-29T10:49:39Z</time>
      </trkpt>
      <trkpt lat="47.96312" lon="6.75018">
        <ele>641.8</ele>
        <time>2022-07-29T10:49:43Z</time>
      </trkpt>
      <trkpt lat="47.96312" lon="6.75017">
        <ele>641.6</ele>
        <time>2022-07-29T10:49:44Z</time>
      </trkpt>
      <trkpt lat="47.96312" lon="6.75016">
        <ele>641.4</ele>
        <time>2022-07-29T10:49:45Z</time>
      </trkpt>
      <trkpt lat="47.96312" lon="6.75014">
        <ele>641.4</ele>
        <time>2022-07-29T10:49:46Z</time>
      </trkpt>
      <trkpt lat="47.96312" lon="6.75014">
        <ele>641.2</ele>
        <time>2022-07-29T10:49:47Z</time>
      </trkpt>
      <trkpt lat="47.96312" lon="6.75013">
        <ele>641</ele>
        <time>2022-07-29T10:49:48Z</time>
      </trkpt>
      <trkpt lat="47.96312" lon="6.75013">
        <ele>640.6</ele>
        <time>2022-07-29T10:49:49Z</time>
      </trkpt>
      <trkpt lat="47.96312" lon="6.75013">
        <ele>640.4</ele>
        <time>2022-07-29T10:49:50Z</time>
      </trkpt>
      <trkpt lat="47.96313" lon="6.75009">
        <ele>639.8</ele>
        <time>2022-07-29T10:49:53Z</time>
      </trkpt>
      <trkpt lat="47.96312" lon="6.75007">
        <ele>639.4</ele>
        <time>2022-07-29T10:49:56Z</time>
      </trkpt>
      <trkpt lat="47.96312" lon="6.75007">
        <ele>639</ele>
        <time>2022-07-29T10:49:57Z</time>
      </trkpt>
      <trkpt lat="47.96311" lon="6.75005">
        <ele>638.8</ele>
        <time>2022-07-29T10:49:58Z</time>
      </trkpt>
      <trkpt lat="47.96311" lon="6.75003">
        <ele>638.6</ele>
        <time>2022-07-29T10:49:59Z</time>
      </trkpt>
      <trkpt lat="47.9631" lon="6.75003">
        <ele>638.4</ele>
        <time>2022-07-29T10:50:00Z</time>
      </trkpt>
      <trkpt lat="47.9631" lon="6.75003">
        <ele>637.6</ele>
        <time>2022-07-29T10:50:04Z</time>
      </trkpt>
      <trkpt lat="47.96309" lon="6.74999">
        <ele>637.2</ele>
        <time>2022-07-29T10:50:06Z</time>
      </trkpt>
      <trkpt lat="47.96305" lon="6.74992">
        <ele>637</ele>
        <time>2022-07-29T10:50:09Z</time>
      </trkpt>
      <trkpt lat="47.96303" lon="6.7499">
        <ele>636.8</ele>
        <time>2022-07-29T10:50:10Z</time>
      </trkpt>
      <trkpt lat="47.96301" lon="6.74987">
        <ele>636.2</ele>
        <time>2022-07-29T10:50:12Z</time>
      </trkpt>
      <trkpt lat="47.96301" lon="6.74987">
        <ele>635.2</ele>
        <time>2022-07-29T10:50:13Z</time>
      </trkpt>
      <trkpt lat="47.96301" lon="6.74987">
        <ele>634.8</ele>
        <time>2022-07-29T10:50:14Z</time>
      </trkpt>
      <trkpt lat="47.96299" lon="6.74984">
        <ele>633.6</ele>
        <time>2022-07-29T10:50:20Z</time>
      </trkpt>
      <trkpt lat="47.96299" lon="6.74984">
        <ele>633.6</ele>
        <time>2022-07-29T10:50:21Z</time>
      </trkpt>
      <trkpt lat="47.96298" lon="6.74983">
        <ele>632.4</ele>
        <time>2022-07-29T10:50:25Z</time>
      </trkpt>
      <trkpt lat="47.96298" lon="6.74982">
        <ele>632</ele>
        <time>2022-07-29T10:50:27Z</time>
      </trkpt>
      <trkpt lat="47.96298" lon="6.74981">
        <ele>631.4</ele>
        <time>2022-07-29T10:50:34Z</time>
      </trkpt>
      <trkpt lat="47.96297" lon="6.74979">
        <ele>631.2</ele>
        <time>2022-07-29T10:50:35Z</time>
      </trkpt>
      <trkpt lat="47.96297" lon="6.74979">
        <ele>630.6</ele>
        <time>2022-07-29T10:50:41Z</time>
      </trkpt>
      <trkpt lat="47.96297" lon="6.74979">
        <ele>630.2</ele>
        <time>2022-07-29T10:50:43Z</time>
      </trkpt>
      <trkpt lat="47.96297" lon="6.74979">
        <ele>629.6</ele>
        <time>2022-07-29T10:50:48Z</time>
      </trkpt>
      <trkpt lat="47.96297" lon="6.74976">
        <ele>629</ele>
        <time>2022-07-29T10:50:50Z</time>
      </trkpt>
      <trkpt lat="47.96298" lon="6.7497">
        <ele>628.2</ele>
        <time>2022-07-29T10:50:55Z</time>
      </trkpt>
      <trkpt lat="47.96298" lon="6.7497">
        <ele>628</ele>
        <time>2022-07-29T10:50:56Z</time>
      </trkpt>
      <trkpt lat="47.96298" lon="6.7497">
        <ele>627.6</ele>
        <time>2022-07-29T10:50:58Z</time>
      </trkpt>
      <trkpt lat="47.96298" lon="6.74969">
        <ele>626.8</ele>
        <time>2022-07-29T10:51:00Z</time>
      </trkpt>
      <trkpt lat="47.96298" lon="6.74968">
        <ele>626.6</ele>
        <time>2022-07-29T10:51:01Z</time>
      </trkpt>
      <trkpt lat="47.96298" lon="6.74963">
        <ele>625.8</ele>
        <time>2022-07-29T10:51:07Z</time>
      </trkpt>
      <trkpt lat="47.96298" lon="6.74962">
        <ele>625.4</ele>
        <time>2022-07-29T10:51:10Z</time>
      </trkpt>
      <trkpt lat="47.96299" lon="6.74958">
        <ele>625.2</ele>
        <time>2022-07-29T10:51:13Z</time>
      </trkpt>
      <trkpt lat="47.96298" lon="6.74955">
        <ele>625</ele>
        <time>2022-07-29T10:51:15Z</time>
      </trkpt>
      <trkpt lat="47.96298" lon="6.74955">
        <ele>625</ele>
        <time>2022-07-29T10:51:16Z</time>
      </trkpt>
      <trkpt lat="47.96298" lon="6.74954">
        <ele>624.8</ele>
        <time>2022-07-29T10:51:17Z</time>
      </trkpt>
      <trkpt lat="47.96297" lon="6.74952">
        <ele>624.6</ele>
        <time>2022-07-29T10:51:18Z</time>
      </trkpt>
      <trkpt lat="47.96296" lon="6.74951">
        <ele>624.4</ele>
        <time>2022-07-29T10:51:19Z</time>
      </trkpt>
      <trkpt lat="47.96295" lon="6.7495">
        <ele>624.2</ele>
        <time>2022-07-29T10:51:20Z</time>
      </trkpt>
      <trkpt lat="47.96294" lon="6.74949">
        <ele>624.2</ele>
        <time>2022-07-29T10:51:21Z</time>
      </trkpt>
      <trkpt lat="47.96294" lon="6.74948">
        <ele>624.6</ele>
        <time>2022-07-29T10:51:30Z</time>
      </trkpt>
      <trkpt lat="47.96294" lon="6.74945">
        <ele>624.6</ele>
        <time>2022-07-29T10:51:48Z</time>
      </trkpt>
      <trkpt lat="47.96291" lon="6.74932">
        <ele>624.8</ele>
        <time>2022-07-29T10:51:53Z</time>
      </trkpt>
      <trkpt lat="47.9629" lon="6.74928">
        <ele>624.8</ele>
        <time>2022-07-29T10:51:55Z</time>
      </trkpt>
      <trkpt lat="47.9629" lon="6.74925">
        <ele>624.8</ele>
        <time>2022-07-29T10:51:56Z</time>
      </trkpt>
      <trkpt lat="47.9629" lon="6.74923">
        <ele>625</ele>
        <time>2022-07-29T10:51:57Z</time>
      </trkpt>
      <trkpt lat="47.9629" lon="6.74921">
        <ele>625.2</ele>
        <time>2022-07-29T10:51:58Z</time>
      </trkpt>
      <trkpt lat="47.9629" lon="6.74919">
        <ele>625.2</ele>
        <time>2022-07-29T10:51:59Z</time>
      </trkpt>
      <trkpt lat="47.9629" lon="6.74916">
        <ele>625.2</ele>
        <time>2022-07-29T10:52:00Z</time>
      </trkpt>
      <trkpt lat="47.96291" lon="6.74909">
        <ele>625.4</ele>
        <time>2022-07-29T10:52:03Z</time>
      </trkpt>
      <trkpt lat="47.96293" lon="6.74906">
        <ele>625.4</ele>
        <time>2022-07-29T10:52:04Z</time>
      </trkpt>
      <trkpt lat="47.96295" lon="6.74905">
        <ele>625.4</ele>
        <time>2022-07-29T10:52:05Z</time>
      </trkpt>
      <trkpt lat="47.96298" lon="6.74902">
        <ele>625.4</ele>
        <time>2022-07-29T10:52:07Z</time>
      </trkpt>
      <trkpt lat="47.96299" lon="6.74902">
        <ele>625.4</ele>
        <time>2022-07-29T10:52:08Z</time>
      </trkpt>
      <trkpt lat="47.96301" lon="6.74902">
        <ele>625.6</ele>
        <time>2022-07-29T10:52:09Z</time>
      </trkpt>
      <trkpt lat="47.96304" lon="6.74902">
        <ele>625.6</ele>
        <time>2022-07-29T10:52:10Z</time>
      </trkpt>
      <trkpt lat="47.96306" lon="6.74901">
        <ele>625.6</ele>
        <time>2022-07-29T10:52:11Z</time>
      </trkpt>
      <trkpt lat="47.96308" lon="6.74901">
        <ele>625.6</ele>
        <time>2022-07-29T10:52:12Z</time>
      </trkpt>
      <trkpt lat="47.96321" lon="6.74894">
        <ele>626</ele>
        <time>2022-07-29T10:52:18Z</time>
      </trkpt>
      <trkpt lat="47.96323" lon="6.74892">
        <ele>626</ele>
        <time>2022-07-29T10:52:19Z</time>
      </trkpt>
      <trkpt lat="47.96327" lon="6.74891">
        <ele>626.2</ele>
        <time>2022-07-29T10:52:21Z</time>
      </trkpt>
      <trkpt lat="47.9633" lon="6.7489">
        <ele>626.4</ele>
        <time>2022-07-29T10:52:22Z</time>
      </trkpt>
      <trkpt lat="47.96332" lon="6.74889">
        <ele>626.6</ele>
        <time>2022-07-29T10:52:23Z</time>
      </trkpt>
      <trkpt lat="47.96336" lon="6.74886">
        <ele>627.2</ele>
        <time>2022-07-29T10:52:25Z</time>
      </trkpt>
      <trkpt lat="47.96338" lon="6.74885">
        <ele>627.4</ele>
        <time>2022-07-29T10:52:26Z</time>
      </trkpt>
      <trkpt lat="47.9634" lon="6.74884">
        <ele>627.8</ele>
        <time>2022-07-29T10:52:27Z</time>
      </trkpt>
      <trkpt lat="47.96342" lon="6.74884">
        <ele>627.8</ele>
        <time>2022-07-29T10:52:28Z</time>
      </trkpt>
      <trkpt lat="47.96344" lon="6.74884">
        <ele>628</ele>
        <time>2022-07-29T10:52:29Z</time>
      </trkpt>
      <trkpt lat="47.96347" lon="6.74884">
        <ele>628</ele>
        <time>2022-07-29T10:52:30Z</time>
      </trkpt>
      <trkpt lat="47.96354" lon="6.74883">
        <ele>628.2</ele>
        <time>2022-07-29T10:52:33Z</time>
      </trkpt>
      <trkpt lat="47.96356" lon="6.74883">
        <ele>628.2</ele>
        <time>2022-07-29T10:52:34Z</time>
      </trkpt>
      <trkpt lat="47.96358" lon="6.74883">
        <ele>628.4</ele>
        <time>2022-07-29T10:52:35Z</time>
      </trkpt>
      <trkpt lat="47.9636" lon="6.74883">
        <ele>628.6</ele>
        <time>2022-07-29T10:52:36Z</time>
      </trkpt>
      <trkpt lat="47.96362" lon="6.74883">
        <ele>628.8</ele>
        <time>2022-07-29T10:52:37Z</time>
      </trkpt>
      <trkpt lat="47.96364" lon="6.74883">
        <ele>629</ele>
        <time>2022-07-29T10:52:38Z</time>
      </trkpt>
      <trkpt lat="47.96365" lon="6.74883">
        <ele>629.2</ele>
        <time>2022-07-29T10:52:39Z</time>
      </trkpt>
      <trkpt lat="47.96367" lon="6.74882">
        <ele>629.6</ele>
        <time>2022-07-29T10:52:40Z</time>
      </trkpt>
      <trkpt lat="47.96369" lon="6.74882">
        <ele>629.8</ele>
        <time>2022-07-29T10:52:41Z</time>
      </trkpt>
      <trkpt lat="47.9637" lon="6.74881">
        <ele>630</ele>
        <time>2022-07-29T10:52:42Z</time>
      </trkpt>
      <trkpt lat="47.96372" lon="6.74881">
        <ele>630.2</ele>
        <time>2022-07-29T10:52:43Z</time>
      </trkpt>
      <trkpt lat="47.96374" lon="6.7488">
        <ele>630.4</ele>
        <time>2022-07-29T10:52:44Z</time>
      </trkpt>
      <trkpt lat="47.96375" lon="6.74879">
        <ele>630.6</ele>
        <time>2022-07-29T10:52:45Z</time>
      </trkpt>
      <trkpt lat="47.96377" lon="6.74878">
        <ele>630.8</ele>
        <time>2022-07-29T10:52:46Z</time>
      </trkpt>
      <trkpt lat="47.96379" lon="6.74876">
        <ele>631.2</ele>
        <time>2022-07-29T10:52:47Z</time>
      </trkpt>
      <trkpt lat="47.96381" lon="6.74874">
        <ele>631.4</ele>
        <time>2022-07-29T10:52:48Z</time>
      </trkpt>
      <trkpt lat="47.96382" lon="6.74872">
        <ele>631.8</ele>
        <time>2022-07-29T10:52:49Z</time>
      </trkpt>
      <trkpt lat="47.96383" lon="6.74869">
        <ele>631.8</ele>
        <time>2022-07-29T10:52:50Z</time>
      </trkpt>
      <trkpt lat="47.96384" lon="6.74866">
        <ele>632</ele>
        <time>2022-07-29T10:52:51Z</time>
      </trkpt>
      <trkpt lat="47.96385" lon="6.74864">
        <ele>632.2</ele>
        <time>2022-07-29T10:52:52Z</time>
      </trkpt>
      <trkpt lat="47.96386" lon="6.74862">
        <ele>632.2</ele>
        <time>2022-07-29T10:52:53Z</time>
      </trkpt>
      <trkpt lat="47.96387" lon="6.7486">
        <ele>632.2</ele>
        <time>2022-07-29T10:52:54Z</time>
      </trkpt>
      <trkpt lat="47.96388" lon="6.74858">
        <ele>632.4</ele>
        <time>2022-07-29T10:52:55Z</time>
      </trkpt>
      <trkpt lat="47.96388" lon="6.74855">
        <ele>632.4</ele>
        <time>2022-07-29T10:52:56Z</time>
      </trkpt>
      <trkpt lat="47.96389" lon="6.74853">
        <ele>632.6</ele>
        <time>2022-07-29T10:52:57Z</time>
      </trkpt>
      <trkpt lat="47.9639" lon="6.7485">
        <ele>632.6</ele>
        <time>2022-07-29T10:52:58Z</time>
      </trkpt>
      <trkpt lat="47.9639" lon="6.74848">
        <ele>632.8</ele>
        <time>2022-07-29T10:52:59Z</time>
      </trkpt>
      <trkpt lat="47.96391" lon="6.74845">
        <ele>632.8</ele>
        <time>2022-07-29T10:53:00Z</time>
      </trkpt>
      <trkpt lat="47.96392" lon="6.74843">
        <ele>633.2</ele>
        <time>2022-07-29T10:53:01Z</time>
      </trkpt>
      <trkpt lat="47.96393" lon="6.74841">
        <ele>633.2</ele>
        <time>2022-07-29T10:53:02Z</time>
      </trkpt>
      <trkpt lat="47.96394" lon="6.74839">
        <ele>633.6</ele>
        <time>2022-07-29T10:53:03Z</time>
      </trkpt>
      <trkpt lat="47.96395" lon="6.74837">
        <ele>633.6</ele>
        <time>2022-07-29T10:53:04Z</time>
      </trkpt>
      <trkpt lat="47.96396" lon="6.74836">
        <ele>633.8</ele>
        <time>2022-07-29T10:53:05Z</time>
      </trkpt>
      <trkpt lat="47.96396" lon="6.74836">
        <ele>633.8</ele>
        <time>2022-07-29T10:53:06Z</time>
      </trkpt>
      <trkpt lat="47.96396" lon="6.74836">
        <ele>633.8</ele>
        <time>2022-07-29T10:53:07Z</time>
      </trkpt>
      <trkpt lat="47.96399" lon="6.74831">
        <ele>634</ele>
        <time>2022-07-29T10:53:13Z</time>
      </trkpt>
      <trkpt lat="47.964" lon="6.74828">
        <ele>634</ele>
        <time>2022-07-29T10:53:14Z</time>
      </trkpt>
      <trkpt lat="47.964" lon="6.74825">
        <ele>634</ele>
        <time>2022-07-29T10:53:15Z</time>
      </trkpt>
      <trkpt lat="47.964" lon="6.74822">
        <ele>634</ele>
        <time>2022-07-29T10:53:16Z</time>
      </trkpt>
      <trkpt lat="47.964" lon="6.7482">
        <ele>634</ele>
        <time>2022-07-29T10:53:17Z</time>
      </trkpt>
      <trkpt lat="47.964" lon="6.74818">
        <ele>634</ele>
        <time>2022-07-29T10:53:18Z</time>
      </trkpt>
      <trkpt lat="47.964" lon="6.74815">
        <ele>634</ele>
        <time>2022-07-29T10:53:19Z</time>
      </trkpt>
      <trkpt lat="47.964" lon="6.74812">
        <ele>634</ele>
        <time>2022-07-29T10:53:20Z</time>
      </trkpt>
      <trkpt lat="47.96399" lon="6.74805">
        <ele>634</ele>
        <time>2022-07-29T10:53:22Z</time>
      </trkpt>
      <trkpt lat="47.96398" lon="6.74802">
        <ele>634.2</ele>
        <time>2022-07-29T10:53:23Z</time>
      </trkpt>
      <trkpt lat="47.96397" lon="6.74799">
        <ele>634.2</ele>
        <time>2022-07-29T10:53:24Z</time>
      </trkpt>
      <trkpt lat="47.96395" lon="6.74797">
        <ele>634.2</ele>
        <time>2022-07-29T10:53:25Z</time>
      </trkpt>
      <trkpt lat="47.96394" lon="6.74795">
        <ele>634.4</ele>
        <time>2022-07-29T10:53:26Z</time>
      </trkpt>
      <trkpt lat="47.96392" lon="6.74794">
        <ele>634.4</ele>
        <time>2022-07-29T10:53:27Z</time>
      </trkpt>
      <trkpt lat="47.96391" lon="6.74794">
        <ele>634.4</ele>
        <time>2022-07-29T10:53:28Z</time>
      </trkpt>
      <trkpt lat="47.96389" lon="6.74793">
        <ele>634.6</ele>
        <time>2022-07-29T10:53:29Z</time>
      </trkpt>
      <trkpt lat="47.96388" lon="6.74792">
        <ele>634.6</ele>
        <time>2022-07-29T10:53:30Z</time>
      </trkpt>
      <trkpt lat="47.96387" lon="6.74789">
        <ele>634.8</ele>
        <time>2022-07-29T10:53:32Z</time>
      </trkpt>
      <trkpt lat="47.96386" lon="6.74786">
        <ele>635</ele>
        <time>2022-07-29T10:53:33Z</time>
      </trkpt>
      <trkpt lat="47.96386" lon="6.74785">
        <ele>635.2</ele>
        <time>2022-07-29T10:53:34Z</time>
      </trkpt>
      <trkpt lat="47.96386" lon="6.74782">
        <ele>635.4</ele>
        <time>2022-07-29T10:53:35Z</time>
      </trkpt>
      <trkpt lat="47.96385" lon="6.74779">
        <ele>635.6</ele>
        <time>2022-07-29T10:53:36Z</time>
      </trkpt>
      <trkpt lat="47.96385" lon="6.74776">
        <ele>635.8</ele>
        <time>2022-07-29T10:53:37Z</time>
      </trkpt>
      <trkpt lat="47.96384" lon="6.74772">
        <ele>636</ele>
        <time>2022-07-29T10:53:39Z</time>
      </trkpt>
      <trkpt lat="47.96384" lon="6.7477">
        <ele>636.2</ele>
        <time>2022-07-29T10:53:40Z</time>
      </trkpt>
      <trkpt lat="47.96383" lon="6.74768">
        <ele>636.2</ele>
        <time>2022-07-29T10:53:41Z</time>
      </trkpt>
      <trkpt lat="47.96381" lon="6.74761">
        <ele>636.4</ele>
        <time>2022-07-29T10:53:44Z</time>
      </trkpt>
      <trkpt lat="47.9638" lon="6.7476">
        <ele>636.6</ele>
        <time>2022-07-29T10:53:45Z</time>
      </trkpt>
      <trkpt lat="47.9638" lon="6.74758">
        <ele>636.8</ele>
        <time>2022-07-29T10:53:46Z</time>
      </trkpt>
      <trkpt lat="47.96379" lon="6.74756">
        <ele>637</ele>
        <time>2022-07-29T10:53:47Z</time>
      </trkpt>
      <trkpt lat="47.96378" lon="6.74754">
        <ele>637.2</ele>
        <time>2022-07-29T10:53:48Z</time>
      </trkpt>
      <trkpt lat="47.96377" lon="6.74753">
        <ele>637.2</ele>
        <time>2022-07-29T10:53:49Z</time>
      </trkpt>
      <trkpt lat="47.96376" lon="6.7475">
        <ele>637.4</ele>
        <time>2022-07-29T10:53:50Z</time>
      </trkpt>
      <trkpt lat="47.96375" lon="6.74748">
        <ele>637.4</ele>
        <time>2022-07-29T10:53:51Z</time>
      </trkpt>
      <trkpt lat="47.96374" lon="6.74746">
        <ele>637.6</ele>
        <time>2022-07-29T10:53:52Z</time>
      </trkpt>
      <trkpt lat="47.96374" lon="6.74743">
        <ele>637.8</ele>
        <time>2022-07-29T10:53:53Z</time>
      </trkpt>
      <trkpt lat="47.96373" lon="6.74741">
        <ele>637.8</ele>
        <time>2022-07-29T10:53:54Z</time>
      </trkpt>
      <trkpt lat="47.96371" lon="6.74739">
        <ele>637.8</ele>
        <time>2022-07-29T10:53:55Z</time>
      </trkpt>
      <trkpt lat="47.9637" lon="6.74737">
        <ele>637.8</ele>
        <time>2022-07-29T10:53:56Z</time>
      </trkpt>
      <trkpt lat="47.96369" lon="6.74735">
        <ele>638</ele>
        <time>2022-07-29T10:53:57Z</time>
      </trkpt>
      <trkpt lat="47.96367" lon="6.74735">
        <ele>638.2</ele>
        <time>2022-07-29T10:53:58Z</time>
      </trkpt>
      <trkpt lat="47.96365" lon="6.74734">
        <ele>638.4</ele>
        <time>2022-07-29T10:53:59Z</time>
      </trkpt>
      <trkpt lat="47.96363" lon="6.74733">
        <ele>638.6</ele>
        <time>2022-07-29T10:54:00Z</time>
      </trkpt>
      <trkpt lat="47.96361" lon="6.74731">
        <ele>638.6</ele>
        <time>2022-07-29T10:54:01Z</time>
      </trkpt>
      <trkpt lat="47.9636" lon="6.7473">
        <ele>638.8</ele>
        <time>2022-07-29T10:54:02Z</time>
      </trkpt>
      <trkpt lat="47.96359" lon="6.74728">
        <ele>638.8</ele>
        <time>2022-07-29T10:54:03Z</time>
      </trkpt>
      <trkpt lat="47.96358" lon="6.74727">
        <ele>638.8</ele>
        <time>2022-07-29T10:54:04Z</time>
      </trkpt>
      <trkpt lat="47.96357" lon="6.74725">
        <ele>638.8</ele>
        <time>2022-07-29T10:54:05Z</time>
      </trkpt>
      <trkpt lat="47.96355" lon="6.74723">
        <ele>639</ele>
        <time>2022-07-29T10:54:06Z</time>
      </trkpt>
      <trkpt lat="47.96353" lon="6.74721">
        <ele>639</ele>
        <time>2022-07-29T10:54:07Z</time>
      </trkpt>
      <trkpt lat="47.96352" lon="6.74718">
        <ele>639</ele>
        <time>2022-07-29T10:54:08Z</time>
      </trkpt>
      <trkpt lat="47.9635" lon="6.74716">
        <ele>639</ele>
        <time>2022-07-29T10:54:09Z</time>
      </trkpt>
      <trkpt lat="47.9635" lon="6.74713">
        <ele>639.2</ele>
        <time>2022-07-29T10:54:10Z</time>
      </trkpt>
      <trkpt lat="47.96349" lon="6.74711">
        <ele>639.2</ele>
        <time>2022-07-29T10:54:11Z</time>
      </trkpt>
      <trkpt lat="47.96349" lon="6.74708">
        <ele>639.4</ele>
        <time>2022-07-29T10:54:12Z</time>
      </trkpt>
      <trkpt lat="47.96349" lon="6.74705">
        <ele>639.4</ele>
        <time>2022-07-29T10:54:13Z</time>
      </trkpt>
      <trkpt lat="47.96349" lon="6.74702">
        <ele>639.4</ele>
        <time>2022-07-29T10:54:14Z</time>
      </trkpt>
      <trkpt lat="47.96348" lon="6.74699">
        <ele>639.4</ele>
        <time>2022-07-29T10:54:15Z</time>
      </trkpt>
      <trkpt lat="47.96348" lon="6.74696">
        <ele>639.6</ele>
        <time>2022-07-29T10:54:16Z</time>
      </trkpt>
      <trkpt lat="47.96348" lon="6.74693">
        <ele>639.8</ele>
        <time>2022-07-29T10:54:17Z</time>
      </trkpt>
      <trkpt lat="47.96348" lon="6.74683">
        <ele>640.2</ele>
        <time>2022-07-29T10:54:20Z</time>
      </trkpt>
      <trkpt lat="47.96348" lon="6.74679">
        <ele>640.2</ele>
        <time>2022-07-29T10:54:22Z</time>
      </trkpt>
      <trkpt lat="47.96348" lon="6.74678">
        <ele>640.2</ele>
        <time>2022-07-29T10:54:23Z</time>
      </trkpt>
      <trkpt lat="47.96348" lon="6.74678">
        <ele>640.4</ele>
        <time>2022-07-29T10:54:24Z</time>
      </trkpt>
      <trkpt lat="47.96347" lon="6.74677">
        <ele>640.4</ele>
        <time>2022-07-29T10:54:27Z</time>
      </trkpt>
      <trkpt lat="47.96348" lon="6.74668">
        <ele>640.4</ele>
        <time>2022-07-29T10:54:31Z</time>
      </trkpt>
      <trkpt lat="47.9635" lon="6.74665">
        <ele>640.4</ele>
        <time>2022-07-29T10:54:32Z</time>
      </trkpt>
      <trkpt lat="47.96356" lon="6.74659">
        <ele>640.4</ele>
        <time>2022-07-29T10:54:34Z</time>
      </trkpt>
      <trkpt lat="47.9636" lon="6.74657">
        <ele>640.2</ele>
        <time>2022-07-29T10:54:35Z</time>
      </trkpt>
      <trkpt lat="47.96364" lon="6.74655">
        <ele>640</ele>
        <time>2022-07-29T10:54:36Z</time>
      </trkpt>
      <trkpt lat="47.96367" lon="6.74652">
        <ele>639.8</ele>
        <time>2022-07-29T10:54:37Z</time>
      </trkpt>
      <trkpt lat="47.96372" lon="6.74644">
        <ele>638.6</ele>
        <time>2022-07-29T10:54:39Z</time>
      </trkpt>
      <trkpt lat="47.96374" lon="6.74641">
        <ele>638</ele>
        <time>2022-07-29T10:54:40Z</time>
      </trkpt>
      <trkpt lat="47.96376" lon="6.74636">
        <ele>637.8</ele>
        <time>2022-07-29T10:54:41Z</time>
      </trkpt>
      <trkpt lat="47.96377" lon="6.74632">
        <ele>637.2</ele>
        <time>2022-07-29T10:54:42Z</time>
      </trkpt>
      <trkpt lat="47.96377" lon="6.74627">
        <ele>637</ele>
        <time>2022-07-29T10:54:43Z</time>
      </trkpt>
      <trkpt lat="47.96377" lon="6.74623">
        <ele>636.2</ele>
        <time>2022-07-29T10:54:44Z</time>
      </trkpt>
      <trkpt lat="47.96377" lon="6.7462">
        <ele>636</ele>
        <time>2022-07-29T10:54:45Z</time>
      </trkpt>
      <trkpt lat="47.96377" lon="6.74617">
        <ele>635.8</ele>
        <time>2022-07-29T10:54:46Z</time>
      </trkpt>
      <trkpt lat="47.96376" lon="6.74614">
        <ele>635.4</ele>
        <time>2022-07-29T10:54:47Z</time>
      </trkpt>
      <trkpt lat="47.96375" lon="6.7461">
        <ele>635.2</ele>
        <time>2022-07-29T10:54:48Z</time>
      </trkpt>
      <trkpt lat="47.96375" lon="6.74606">
        <ele>635</ele>
        <time>2022-07-29T10:54:49Z</time>
      </trkpt>
      <trkpt lat="47.96375" lon="6.746">
        <ele>634.8</ele>
        <time>2022-07-29T10:54:51Z</time>
      </trkpt>
      <trkpt lat="47.96375" lon="6.74595">
        <ele>634.8</ele>
        <time>2022-07-29T10:54:52Z</time>
      </trkpt>
      <trkpt lat="47.96374" lon="6.7459">
        <ele>634.6</ele>
        <time>2022-07-29T10:54:53Z</time>
      </trkpt>
      <trkpt lat="47.96373" lon="6.74585">
        <ele>634.6</ele>
        <time>2022-07-29T10:54:54Z</time>
      </trkpt>
      <trkpt lat="47.96373" lon="6.74581">
        <ele>634.4</ele>
        <time>2022-07-29T10:54:55Z</time>
      </trkpt>
      <trkpt lat="47.96372" lon="6.74577">
        <ele>634.4</ele>
        <time>2022-07-29T10:54:56Z</time>
      </trkpt>
      <trkpt lat="47.9637" lon="6.74572">
        <ele>634.4</ele>
        <time>2022-07-29T10:54:57Z</time>
      </trkpt>
      <trkpt lat="47.96366" lon="6.74565">
        <ele>634.2</ele>
        <time>2022-07-29T10:54:59Z</time>
      </trkpt>
      <trkpt lat="47.96364" lon="6.74562">
        <ele>634.2</ele>
        <time>2022-07-29T10:55:00Z</time>
      </trkpt>
      <trkpt lat="47.96361" lon="6.74559">
        <ele>634</ele>
        <time>2022-07-29T10:55:01Z</time>
      </trkpt>
      <trkpt lat="47.96358" lon="6.74555">
        <ele>633.8</ele>
        <time>2022-07-29T10:55:03Z</time>
      </trkpt>
      <trkpt lat="47.96356" lon="6.74552">
        <ele>633.6</ele>
        <time>2022-07-29T10:55:04Z</time>
      </trkpt>
      <trkpt lat="47.96345" lon="6.74538">
        <ele>633.2</ele>
        <time>2022-07-29T10:55:08Z</time>
      </trkpt>
      <trkpt lat="47.96343" lon="6.74531">
        <ele>633</ele>
        <time>2022-07-29T10:55:10Z</time>
      </trkpt>
      <trkpt lat="47.96344" lon="6.74527">
        <ele>632.8</ele>
        <time>2022-07-29T10:55:11Z</time>
      </trkpt>
      <trkpt lat="47.96343" lon="6.74525">
        <ele>632.8</ele>
        <time>2022-07-29T10:55:12Z</time>
      </trkpt>
      <trkpt lat="47.96342" lon="6.74523">
        <ele>632.6</ele>
        <time>2022-07-29T10:55:13Z</time>
      </trkpt>
      <trkpt lat="47.96341" lon="6.74521">
        <ele>632.4</ele>
        <time>2022-07-29T10:55:14Z</time>
      </trkpt>
      <trkpt lat="47.9634" lon="6.74518">
        <ele>632.4</ele>
        <time>2022-07-29T10:55:15Z</time>
      </trkpt>
      <trkpt lat="47.9634" lon="6.74518">
        <ele>632.4</ele>
        <time>2022-07-29T10:55:16Z</time>
      </trkpt>
      <trkpt lat="47.9634" lon="6.74517">
        <ele>632.6</ele>
        <time>2022-07-29T10:55:18Z</time>
      </trkpt>
      <trkpt lat="47.9634" lon="6.74516">
        <ele>632.8</ele>
        <time>2022-07-29T10:55:19Z</time>
      </trkpt>
      <trkpt lat="47.9634" lon="6.74516">
        <ele>633.2</ele>
        <time>2022-07-29T10:55:20Z</time>
      </trkpt>
      <trkpt lat="47.9634" lon="6.74516">
        <ele>633.2</ele>
        <time>2022-07-29T10:55:21Z</time>
      </trkpt>
      <trkpt lat="47.96339" lon="6.74514">
        <ele>633.4</ele>
        <time>2022-07-29T10:55:22Z</time>
      </trkpt>
      <trkpt lat="47.96339" lon="6.74511">
        <ele>633.4</ele>
        <time>2022-07-29T10:55:23Z</time>
      </trkpt>
      <trkpt lat="47.9634" lon="6.74507">
        <ele>633.4</ele>
        <time>2022-07-29T10:55:24Z</time>
      </trkpt>
      <trkpt lat="47.96341" lon="6.74504">
        <ele>633.6</ele>
        <time>2022-07-29T10:55:25Z</time>
      </trkpt>
      <trkpt lat="47.96341" lon="6.74501">
        <ele>633.4</ele>
        <time>2022-07-29T10:55:26Z</time>
      </trkpt>
      <trkpt lat="47.96341" lon="6.74498">
        <ele>633.4</ele>
        <time>2022-07-29T10:55:27Z</time>
      </trkpt>
      <trkpt lat="47.9634" lon="6.74495">
        <ele>633.4</ele>
        <time>2022-07-29T10:55:28Z</time>
      </trkpt>
      <trkpt lat="47.9634" lon="6.74492">
        <ele>633.4</ele>
        <time>2022-07-29T10:55:29Z</time>
      </trkpt>
      <trkpt lat="47.96341" lon="6.74483">
        <ele>633</ele>
        <time>2022-07-29T10:55:31Z</time>
      </trkpt>
      <trkpt lat="47.96342" lon="6.74479">
        <ele>632.6</ele>
        <time>2022-07-29T10:55:32Z</time>
      </trkpt>
      <trkpt lat="47.96343" lon="6.74474">
        <ele>632.4</ele>
        <time>2022-07-29T10:55:33Z</time>
      </trkpt>
      <trkpt lat="47.96343" lon="6.74469">
        <ele>632.2</ele>
        <time>2022-07-29T10:55:34Z</time>
      </trkpt>
      <trkpt lat="47.96341" lon="6.74464">
        <ele>631.8</ele>
        <time>2022-07-29T10:55:35Z</time>
      </trkpt>
      <trkpt lat="47.9634" lon="6.7446">
        <ele>631</ele>
        <time>2022-07-29T10:55:36Z</time>
      </trkpt>
      <trkpt lat="47.96339" lon="6.74456">
        <ele>630.6</ele>
        <time>2022-07-29T10:55:37Z</time>
      </trkpt>
      <trkpt lat="47.96338" lon="6.74451">
        <ele>630</ele>
        <time>2022-07-29T10:55:38Z</time>
      </trkpt>
      <trkpt lat="47.96338" lon="6.74447">
        <ele>629.8</ele>
        <time>2022-07-29T10:55:39Z</time>
      </trkpt>
      <trkpt lat="47.96338" lon="6.74435">
        <ele>628.6</ele>
        <time>2022-07-29T10:55:41Z</time>
      </trkpt>
      <trkpt lat="47.96338" lon="6.7443">
        <ele>628.4</ele>
        <time>2022-07-29T10:55:42Z</time>
      </trkpt>
      <trkpt lat="47.96338" lon="6.74426">
        <ele>628.2</ele>
        <time>2022-07-29T10:55:43Z</time>
      </trkpt>
      <trkpt lat="47.96339" lon="6.74423">
        <ele>627.8</ele>
        <time>2022-07-29T10:55:44Z</time>
      </trkpt>
      <trkpt lat="47.9634" lon="6.7442">
        <ele>627.6</ele>
        <time>2022-07-29T10:55:45Z</time>
      </trkpt>
      <trkpt lat="47.9634" lon="6.74417">
        <ele>627.4</ele>
        <time>2022-07-29T10:55:46Z</time>
      </trkpt>
      <trkpt lat="47.96339" lon="6.74413">
        <ele>627</ele>
        <time>2022-07-29T10:55:47Z</time>
      </trkpt>
      <trkpt lat="47.96339" lon="6.74405">
        <ele>626.6</ele>
        <time>2022-07-29T10:55:49Z</time>
      </trkpt>
      <trkpt lat="47.96338" lon="6.74402">
        <ele>626.4</ele>
        <time>2022-07-29T10:55:50Z</time>
      </trkpt>
      <trkpt lat="47.96339" lon="6.744">
        <ele>626.2</ele>
        <time>2022-07-29T10:55:51Z</time>
      </trkpt>
      <trkpt lat="47.96339" lon="6.74398">
        <ele>625.4</ele>
        <time>2022-07-29T10:55:52Z</time>
      </trkpt>
      <trkpt lat="47.96339" lon="6.74396">
        <ele>625</ele>
        <time>2022-07-29T10:55:53Z</time>
      </trkpt>
      <trkpt lat="47.9634" lon="6.74394">
        <ele>624.8</ele>
        <time>2022-07-29T10:55:54Z</time>
      </trkpt>
      <trkpt lat="47.96341" lon="6.74391">
        <ele>624.6</ele>
        <time>2022-07-29T10:55:55Z</time>
      </trkpt>
      <trkpt lat="47.96341" lon="6.74388">
        <ele>624.4</ele>
        <time>2022-07-29T10:55:56Z</time>
      </trkpt>
      <trkpt lat="47.96341" lon="6.74385">
        <ele>624.4</ele>
        <time>2022-07-29T10:55:57Z</time>
      </trkpt>
      <trkpt lat="47.96339" lon="6.74372">
        <ele>624.2</ele>
        <time>2022-07-29T10:56:00Z</time>
      </trkpt>
      <trkpt lat="47.96339" lon="6.74369">
        <ele>624.2</ele>
        <time>2022-07-29T10:56:01Z</time>
      </trkpt>
      <trkpt lat="47.96338" lon="6.74365">
        <ele>624</ele>
        <time>2022-07-29T10:56:02Z</time>
      </trkpt>
      <trkpt lat="47.96337" lon="6.74361">
        <ele>624</ele>
        <time>2022-07-29T10:56:03Z</time>
      </trkpt>
      <trkpt lat="47.96333" lon="6.74353">
        <ele>623.8</ele>
        <time>2022-07-29T10:56:05Z</time>
      </trkpt>
      <trkpt lat="47.96331" lon="6.7435">
        <ele>623.8</ele>
        <time>2022-07-29T10:56:06Z</time>
      </trkpt>
      <trkpt lat="47.9633" lon="6.74345">
        <ele>623.4</ele>
        <time>2022-07-29T10:56:07Z</time>
      </trkpt>
      <trkpt lat="47.9633" lon="6.74341">
        <ele>623</ele>
        <time>2022-07-29T10:56:08Z</time>
      </trkpt>
      <trkpt lat="47.96331" lon="6.74337">
        <ele>622.8</ele>
        <time>2022-07-29T10:56:09Z</time>
      </trkpt>
      <trkpt lat="47.96332" lon="6.74329">
        <ele>622</ele>
        <time>2022-07-29T10:56:11Z</time>
      </trkpt>
      <trkpt lat="47.96331" lon="6.74324">
        <ele>621.6</ele>
        <time>2022-07-29T10:56:12Z</time>
      </trkpt>
      <trkpt lat="47.9633" lon="6.7432">
        <ele>621.4</ele>
        <time>2022-07-29T10:56:13Z</time>
      </trkpt>
      <trkpt lat="47.96331" lon="6.74316">
        <ele>621.2</ele>
        <time>2022-07-29T10:56:14Z</time>
      </trkpt>
      <trkpt lat="47.96332" lon="6.7431">
        <ele>620.8</ele>
        <time>2022-07-29T10:56:15Z</time>
      </trkpt>
      <trkpt lat="47.96333" lon="6.74295">
        <ele>619.8</ele>
        <time>2022-07-29T10:56:17Z</time>
      </trkpt>
      <trkpt lat="47.96332" lon="6.74276">
        <ele>619.2</ele>
        <time>2022-07-29T10:56:19Z</time>
      </trkpt>
      <trkpt lat="47.9633" lon="6.74269">
        <ele>618.4</ele>
        <time>2022-07-29T10:56:20Z</time>
      </trkpt>
      <trkpt lat="47.96326" lon="6.74261">
        <ele>617</ele>
        <time>2022-07-29T10:56:21Z</time>
      </trkpt>
      <trkpt lat="47.96323" lon="6.74256">
        <ele>616.6</ele>
        <time>2022-07-29T10:56:22Z</time>
      </trkpt>
      <trkpt lat="47.9632" lon="6.74251">
        <ele>616</ele>
        <time>2022-07-29T10:56:23Z</time>
      </trkpt>
      <trkpt lat="47.96317" lon="6.74246">
        <ele>616</ele>
        <time>2022-07-29T10:56:24Z</time>
      </trkpt>
      <trkpt lat="47.96315" lon="6.74242">
        <ele>615.4</ele>
        <time>2022-07-29T10:56:25Z</time>
      </trkpt>
      <trkpt lat="47.96315" lon="6.74239">
        <ele>615.2</ele>
        <time>2022-07-29T10:56:26Z</time>
      </trkpt>
      <trkpt lat="47.96313" lon="6.74236">
        <ele>614.8</ele>
        <time>2022-07-29T10:56:27Z</time>
      </trkpt>
      <trkpt lat="47.96313" lon="6.74231">
        <ele>614.4</ele>
        <time>2022-07-29T10:56:28Z</time>
      </trkpt>
      <trkpt lat="47.96314" lon="6.74227">
        <ele>614.4</ele>
        <time>2022-07-29T10:56:29Z</time>
      </trkpt>
      <trkpt lat="47.96313" lon="6.74222">
        <ele>614.2</ele>
        <time>2022-07-29T10:56:30Z</time>
      </trkpt>
      <trkpt lat="47.96312" lon="6.74218">
        <ele>614</ele>
        <time>2022-07-29T10:56:31Z</time>
      </trkpt>
      <trkpt lat="47.9631" lon="6.74215">
        <ele>613.8</ele>
        <time>2022-07-29T10:56:32Z</time>
      </trkpt>
      <trkpt lat="47.96306" lon="6.74206">
        <ele>613.2</ele>
        <time>2022-07-29T10:56:34Z</time>
      </trkpt>
      <trkpt lat="47.96304" lon="6.74203">
        <ele>612.8</ele>
        <time>2022-07-29T10:56:35Z</time>
      </trkpt>
      <trkpt lat="47.96302" lon="6.74197">
        <ele>612.2</ele>
        <time>2022-07-29T10:56:37Z</time>
      </trkpt>
      <trkpt lat="47.96301" lon="6.74194">
        <ele>611.8</ele>
        <time>2022-07-29T10:56:38Z</time>
      </trkpt>
      <trkpt lat="47.96298" lon="6.74192">
        <ele>611.4</ele>
        <time>2022-07-29T10:56:39Z</time>
      </trkpt>
      <trkpt lat="47.96296" lon="6.7419">
        <ele>611.4</ele>
        <time>2022-07-29T10:56:40Z</time>
      </trkpt>
      <trkpt lat="47.96289" lon="6.74187">
        <ele>610.2</ele>
        <time>2022-07-29T10:56:42Z</time>
      </trkpt>
      <trkpt lat="47.96285" lon="6.74186">
        <ele>610</ele>
        <time>2022-07-29T10:56:43Z</time>
      </trkpt>
      <trkpt lat="47.9628" lon="6.74185">
        <ele>609</ele>
        <time>2022-07-29T10:56:44Z</time>
      </trkpt>
      <trkpt lat="47.96276" lon="6.74185">
        <ele>608</ele>
        <time>2022-07-29T10:56:46Z</time>
      </trkpt>
      <trkpt lat="47.96274" lon="6.74186">
        <ele>607.6</ele>
        <time>2022-07-29T10:56:47Z</time>
      </trkpt>
      <trkpt lat="47.96271" lon="6.74187">
        <ele>607.4</ele>
        <time>2022-07-29T10:56:48Z</time>
      </trkpt>
      <trkpt lat="47.96269" lon="6.74189">
        <ele>607.2</ele>
        <time>2022-07-29T10:56:49Z</time>
      </trkpt>
      <trkpt lat="47.96267" lon="6.74191">
        <ele>606.6</ele>
        <time>2022-07-29T10:56:50Z</time>
      </trkpt>
      <trkpt lat="47.96263" lon="6.74196">
        <ele>606</ele>
        <time>2022-07-29T10:56:52Z</time>
      </trkpt>
      <trkpt lat="47.96261" lon="6.74197">
        <ele>605.8</ele>
        <time>2022-07-29T10:56:53Z</time>
      </trkpt>
      <trkpt lat="47.96259" lon="6.74197">
        <ele>605.8</ele>
        <time>2022-07-29T10:56:54Z</time>
      </trkpt>
      <trkpt lat="47.96259" lon="6.74197">
        <ele>605.6</ele>
        <time>2022-07-29T10:56:55Z</time>
      </trkpt>
      <trkpt lat="47.96259" lon="6.74197">
        <ele>605.4</ele>
        <time>2022-07-29T10:56:56Z</time>
      </trkpt>
      <trkpt lat="47.96259" lon="6.74196">
        <ele>605.2</ele>
        <time>2022-07-29T10:56:57Z</time>
      </trkpt>
      <trkpt lat="47.96259" lon="6.74195">
        <ele>605</ele>
        <time>2022-07-29T10:56:58Z</time>
      </trkpt>
      <trkpt lat="47.9626" lon="6.74193">
        <ele>604.8</ele>
        <time>2022-07-29T10:56:59Z</time>
      </trkpt>
      <trkpt lat="47.96261" lon="6.7419">
        <ele>604.4</ele>
        <time>2022-07-29T10:57:00Z</time>
      </trkpt>
      <trkpt lat="47.96265" lon="6.74185">
        <ele>603.8</ele>
        <time>2022-07-29T10:57:02Z</time>
      </trkpt>
      <trkpt lat="47.96267" lon="6.74182">
        <ele>603.6</ele>
        <time>2022-07-29T10:57:03Z</time>
      </trkpt>
      <trkpt lat="47.96268" lon="6.7418">
        <ele>602.8</ele>
        <time>2022-07-29T10:57:04Z</time>
      </trkpt>
      <trkpt lat="47.9627" lon="6.74176">
        <ele>602</ele>
        <time>2022-07-29T10:57:06Z</time>
      </trkpt>
      <trkpt lat="47.96272" lon="6.74175">
        <ele>602</ele>
        <time>2022-07-29T10:57:07Z</time>
      </trkpt>
      <trkpt lat="47.96273" lon="6.74172">
        <ele>601.4</ele>
        <time>2022-07-29T10:57:08Z</time>
      </trkpt>
      <trkpt lat="47.96276" lon="6.74169">
        <ele>600.8</ele>
        <time>2022-07-29T10:57:10Z</time>
      </trkpt>
      <trkpt lat="47.96278" lon="6.74168">
        <ele>600.6</ele>
        <time>2022-07-29T10:57:11Z</time>
      </trkpt>
      <trkpt lat="47.96281" lon="6.74166">
        <ele>600.4</ele>
        <time>2022-07-29T10:57:12Z</time>
      </trkpt>
      <trkpt lat="47.9629" lon="6.74161">
        <ele>599.4</ele>
        <time>2022-07-29T10:57:16Z</time>
      </trkpt>
      <trkpt lat="47.96292" lon="6.74159">
        <ele>599.2</ele>
        <time>2022-07-29T10:57:17Z</time>
      </trkpt>
      <trkpt lat="47.96294" lon="6.74159">
        <ele>598.8</ele>
        <time>2022-07-29T10:57:18Z</time>
      </trkpt>
      <trkpt lat="47.96296" lon="6.7416">
        <ele>598.4</ele>
        <time>2022-07-29T10:57:19Z</time>
      </trkpt>
      <trkpt lat="47.963" lon="6.74161">
        <ele>598</ele>
        <time>2022-07-29T10:57:20Z</time>
      </trkpt>
      <trkpt lat="47.96304" lon="6.74163">
        <ele>597.6</ele>
        <time>2022-07-29T10:57:21Z</time>
      </trkpt>
      <trkpt lat="47.96309" lon="6.74165">
        <ele>596.8</ele>
        <time>2022-07-29T10:57:22Z</time>
      </trkpt>
      <trkpt lat="47.96314" lon="6.74167">
        <ele>596.6</ele>
        <time>2022-07-29T10:57:23Z</time>
      </trkpt>
      <trkpt lat="47.96318" lon="6.74169">
        <ele>595.8</ele>
        <time>2022-07-29T10:57:24Z</time>
      </trkpt>
      <trkpt lat="47.96323" lon="6.74173">
        <ele>594.8</ele>
        <time>2022-07-29T10:57:26Z</time>
      </trkpt>
      <trkpt lat="47.96325" lon="6.74174">
        <ele>594.4</ele>
        <time>2022-07-29T10:57:27Z</time>
      </trkpt>
      <trkpt lat="47.96327" lon="6.74175">
        <ele>594.2</ele>
        <time>2022-07-29T10:57:28Z</time>
      </trkpt>
      <trkpt lat="47.96329" lon="6.74176">
        <ele>594</ele>
        <time>2022-07-29T10:57:29Z</time>
      </trkpt>
      <trkpt lat="47.96331" lon="6.74177">
        <ele>594</ele>
        <time>2022-07-29T10:57:30Z</time>
      </trkpt>
      <trkpt lat="47.96333" lon="6.74179">
        <ele>594</ele>
        <time>2022-07-29T10:57:31Z</time>
      </trkpt>
      <trkpt lat="47.96337" lon="6.74183">
        <ele>593.8</ele>
        <time>2022-07-29T10:57:33Z</time>
      </trkpt>
      <trkpt lat="47.96339" lon="6.74185">
        <ele>593.8</ele>
        <time>2022-07-29T10:57:34Z</time>
      </trkpt>
      <trkpt lat="47.96342" lon="6.74195">
        <ele>593.8</ele>
        <time>2022-07-29T10:57:37Z</time>
      </trkpt>
      <trkpt lat="47.96343" lon="6.74197">
        <ele>593.8</ele>
        <time>2022-07-29T10:57:38Z</time>
      </trkpt>
      <trkpt lat="47.96345" lon="6.74198">
        <ele>593.8</ele>
        <time>2022-07-29T10:57:39Z</time>
      </trkpt>
      <trkpt lat="47.96346" lon="6.74199">
        <ele>593.6</ele>
        <time>2022-07-29T10:57:40Z</time>
      </trkpt>
      <trkpt lat="47.96348" lon="6.74199">
        <ele>593.6</ele>
        <time>2022-07-29T10:57:41Z</time>
      </trkpt>
      <trkpt lat="47.9635" lon="6.74201">
        <ele>593.4</ele>
        <time>2022-07-29T10:57:42Z</time>
      </trkpt>
      <trkpt lat="47.96352" lon="6.74203">
        <ele>593.2</ele>
        <time>2022-07-29T10:57:43Z</time>
      </trkpt>
      <trkpt lat="47.96357" lon="6.74206">
        <ele>593</ele>
        <time>2022-07-29T10:57:45Z</time>
      </trkpt>
      <trkpt lat="47.96358" lon="6.74208">
        <ele>592.8</ele>
        <time>2022-07-29T10:57:46Z</time>
      </trkpt>
      <trkpt lat="47.96359" lon="6.74208">
        <ele>593</ele>
        <time>2022-07-29T10:57:47Z</time>
      </trkpt>
      <trkpt lat="47.9636" lon="6.7421">
        <ele>593</ele>
        <time>2022-07-29T10:57:48Z</time>
      </trkpt>
      <trkpt lat="47.96361" lon="6.74211">
        <ele>592.8</ele>
        <time>2022-07-29T10:57:49Z</time>
      </trkpt>
      <trkpt lat="47.96364" lon="6.74212">
        <ele>592.8</ele>
        <time>2022-07-29T10:57:50Z</time>
      </trkpt>
      <trkpt lat="47.9637" lon="6.74217">
        <ele>592.8</ele>
        <time>2022-07-29T10:57:54Z</time>
      </trkpt>
      <trkpt lat="47.96371" lon="6.74217">
        <ele>592.8</ele>
        <time>2022-07-29T10:57:55Z</time>
      </trkpt>
      <trkpt lat="47.96372" lon="6.74218">
        <ele>592.8</ele>
        <time>2022-07-29T10:57:56Z</time>
      </trkpt>
      <trkpt lat="47.96373" lon="6.74219">
        <ele>593</ele>
        <time>2022-07-29T10:57:57Z</time>
      </trkpt>
      <trkpt lat="47.96374" lon="6.7422">
        <ele>593</ele>
        <time>2022-07-29T10:57:58Z</time>
      </trkpt>
      <trkpt lat="47.96374" lon="6.74221">
        <ele>593</ele>
        <time>2022-07-29T10:57:59Z</time>
      </trkpt>
      <trkpt lat="47.96375" lon="6.74223">
        <ele>593</ele>
        <time>2022-07-29T10:58:00Z</time>
      </trkpt>
      <trkpt lat="47.96376" lon="6.74225">
        <ele>592.8</ele>
        <time>2022-07-29T10:58:01Z</time>
      </trkpt>
      <trkpt lat="47.96379" lon="6.7423">
        <ele>592.8</ele>
        <time>2022-07-29T10:58:03Z</time>
      </trkpt>
      <trkpt lat="47.96382" lon="6.74234">
        <ele>592.8</ele>
        <time>2022-07-29T10:58:04Z</time>
      </trkpt>
      <trkpt lat="47.96387" lon="6.74241">
        <ele>592.8</ele>
        <time>2022-07-29T10:58:06Z</time>
      </trkpt>
      <trkpt lat="47.96389" lon="6.74241">
        <ele>592.8</ele>
        <time>2022-07-29T10:58:07Z</time>
      </trkpt>
      <trkpt lat="47.96391" lon="6.74241">
        <ele>592.4</ele>
        <time>2022-07-29T10:58:08Z</time>
      </trkpt>
      <trkpt lat="47.96393" lon="6.7424">
        <ele>592</ele>
        <time>2022-07-29T10:58:09Z</time>
      </trkpt>
      <trkpt lat="47.96395" lon="6.7424">
        <ele>591.6</ele>
        <time>2022-07-29T10:58:10Z</time>
      </trkpt>
      <trkpt lat="47.96397" lon="6.7424">
        <ele>591</ele>
        <time>2022-07-29T10:58:11Z</time>
      </trkpt>
      <trkpt lat="47.96399" lon="6.7424">
        <ele>590.6</ele>
        <time>2022-07-29T10:58:12Z</time>
      </trkpt>
      <trkpt lat="47.96402" lon="6.74239">
        <ele>590.2</ele>
        <time>2022-07-29T10:58:14Z</time>
      </trkpt>
      <trkpt lat="47.96403" lon="6.74237">
        <ele>590.2</ele>
        <time>2022-07-29T10:58:15Z</time>
      </trkpt>
      <trkpt lat="47.96403" lon="6.74236">
        <ele>590</ele>
        <time>2022-07-29T10:58:16Z</time>
      </trkpt>
      <trkpt lat="47.96404" lon="6.74235">
        <ele>590</ele>
        <time>2022-07-29T10:58:17Z</time>
      </trkpt>
      <trkpt lat="47.96405" lon="6.74234">
        <ele>590</ele>
        <time>2022-07-29T10:58:18Z</time>
      </trkpt>
      <trkpt lat="47.96405" lon="6.74234">
        <ele>590</ele>
        <time>2022-07-29T10:58:19Z</time>
      </trkpt>
      <trkpt lat="47.96405" lon="6.74234">
        <ele>590</ele>
        <time>2022-07-29T10:58:21Z</time>
      </trkpt>
      <trkpt lat="47.96404" lon="6.74235">
        <ele>590</ele>
        <time>2022-07-29T10:58:32Z</time>
      </trkpt>
      <trkpt lat="47.96404" lon="6.74235">
        <ele>590.2</ele>
        <time>2022-07-29T10:58:41Z</time>
      </trkpt>
      <trkpt lat="47.96404" lon="6.74235">
        <ele>590.2</ele>
        <time>2022-07-29T10:58:43Z</time>
      </trkpt>
      <trkpt lat="47.96404" lon="6.74235">
        <ele>590</ele>
        <time>2022-07-29T10:59:00Z</time>
      </trkpt>
      <trkpt lat="47.96406" lon="6.74237">
        <ele>590.4</ele>
        <time>2022-07-29T10:59:17Z</time>
      </trkpt>
      <trkpt lat="47.96407" lon="6.74239">
        <ele>590.4</ele>
        <time>2022-07-29T10:59:18Z</time>
      </trkpt>
      <trkpt lat="47.96409" lon="6.74241">
        <ele>590.4</ele>
        <time>2022-07-29T10:59:19Z</time>
      </trkpt>
      <trkpt lat="47.96411" lon="6.74243">
        <ele>590.4</ele>
        <time>2022-07-29T10:59:20Z</time>
      </trkpt>
      <trkpt lat="47.96412" lon="6.74245">
        <ele>590.2</ele>
        <time>2022-07-29T10:59:21Z</time>
      </trkpt>
      <trkpt lat="47.96412" lon="6.74248">
        <ele>590.2</ele>
        <time>2022-07-29T10:59:22Z</time>
      </trkpt>
      <trkpt lat="47.96412" lon="6.7425">
        <ele>590.2</ele>
        <time>2022-07-29T10:59:23Z</time>
      </trkpt>
      <trkpt lat="47.96411" lon="6.74252">
        <ele>590</ele>
        <time>2022-07-29T10:59:24Z</time>
      </trkpt>
      <trkpt lat="47.96405" lon="6.7426">
        <ele>589.4</ele>
        <time>2022-07-29T10:59:27Z</time>
      </trkpt>
      <trkpt lat="47.96405" lon="6.74265">
        <ele>588.8</ele>
        <time>2022-07-29T10:59:28Z</time>
      </trkpt>
      <trkpt lat="47.96407" lon="6.74269">
        <ele>588.6</ele>
        <time>2022-07-29T10:59:29Z</time>
      </trkpt>
      <trkpt lat="47.9641" lon="6.74272">
        <ele>588.2</ele>
        <time>2022-07-29T10:59:30Z</time>
      </trkpt>
      <trkpt lat="47.96414" lon="6.74274">
        <ele>587.8</ele>
        <time>2022-07-29T10:59:31Z</time>
      </trkpt>
      <trkpt lat="47.9642" lon="6.74276">
        <ele>586.8</ele>
        <time>2022-07-29T10:59:33Z</time>
      </trkpt>
      <trkpt lat="47.96422" lon="6.74275">
        <ele>586.4</ele>
        <time>2022-07-29T10:59:34Z</time>
      </trkpt>
      <trkpt lat="47.96424" lon="6.74274">
        <ele>586</ele>
        <time>2022-07-29T10:59:35Z</time>
      </trkpt>
      <trkpt lat="47.96425" lon="6.74275">
        <ele>585.6</ele>
        <time>2022-07-29T10:59:36Z</time>
      </trkpt>
      <trkpt lat="47.96426" lon="6.74276">
        <ele>585.2</ele>
        <time>2022-07-29T10:59:37Z</time>
      </trkpt>
      <trkpt lat="47.96427" lon="6.74279">
        <ele>585</ele>
        <time>2022-07-29T10:59:38Z</time>
      </trkpt>
      <trkpt lat="47.96428" lon="6.74283">
        <ele>584.2</ele>
        <time>2022-07-29T10:59:39Z</time>
      </trkpt>
      <trkpt lat="47.96428" lon="6.74299">
        <ele>582.6</ele>
        <time>2022-07-29T10:59:42Z</time>
      </trkpt>
      <trkpt lat="47.96428" lon="6.74306">
        <ele>582.4</ele>
        <time>2022-07-29T10:59:43Z</time>
      </trkpt>
      <trkpt lat="47.96428" lon="6.74313">
        <ele>581.4</ele>
        <time>2022-07-29T10:59:44Z</time>
      </trkpt>
      <trkpt lat="47.96427" lon="6.7432">
        <ele>581</ele>
        <time>2022-07-29T10:59:45Z</time>
      </trkpt>
      <trkpt lat="47.96426" lon="6.74324">
        <ele>580.2</ele>
        <time>2022-07-29T10:59:46Z</time>
      </trkpt>
      <trkpt lat="47.96425" lon="6.74327">
        <ele>579.4</ele>
        <time>2022-07-29T10:59:47Z</time>
      </trkpt>
      <trkpt lat="47.96424" lon="6.74329">
        <ele>578.6</ele>
        <time>2022-07-29T10:59:48Z</time>
      </trkpt>
      <trkpt lat="47.96424" lon="6.74333">
        <ele>577.4</ele>
        <time>2022-07-29T10:59:49Z</time>
      </trkpt>
      <trkpt lat="47.96423" lon="6.74337">
        <ele>577.2</ele>
        <time>2022-07-29T10:59:50Z</time>
      </trkpt>
      <trkpt lat="47.96423" lon="6.74342">
        <ele>576.8</ele>
        <time>2022-07-29T10:59:51Z</time>
      </trkpt>
      <trkpt lat="47.96423" lon="6.74347">
        <ele>576.8</ele>
        <time>2022-07-29T10:59:52Z</time>
      </trkpt>
      <trkpt lat="47.96422" lon="6.74351">
        <ele>576.6</ele>
        <time>2022-07-29T10:59:53Z</time>
      </trkpt>
      <trkpt lat="47.96422" lon="6.74356">
        <ele>576.6</ele>
        <time>2022-07-29T10:59:54Z</time>
      </trkpt>
      <trkpt lat="47.96422" lon="6.7436">
        <ele>576.4</ele>
        <time>2022-07-29T10:59:55Z</time>
      </trkpt>
      <trkpt lat="47.96423" lon="6.74365">
        <ele>576.4</ele>
        <time>2022-07-29T10:59:56Z</time>
      </trkpt>
      <trkpt lat="47.96425" lon="6.74369">
        <ele>576.4</ele>
        <time>2022-07-29T10:59:57Z</time>
      </trkpt>
      <trkpt lat="47.96427" lon="6.74373">
        <ele>576.2</ele>
        <time>2022-07-29T10:59:58Z</time>
      </trkpt>
      <trkpt lat="47.96429" lon="6.74378">
        <ele>576</ele>
        <time>2022-07-29T10:59:59Z</time>
      </trkpt>
      <trkpt lat="47.96431" lon="6.74384">
        <ele>575.8</ele>
        <time>2022-07-29T11:00:00Z</time>
      </trkpt>
      <trkpt lat="47.96439" lon="6.74398">
        <ele>575.2</ele>
        <time>2022-07-29T11:00:02Z</time>
      </trkpt>
      <trkpt lat="47.96443" lon="6.74405">
        <ele>575.2</ele>
        <time>2022-07-29T11:00:03Z</time>
      </trkpt>
      <trkpt lat="47.96448" lon="6.74423">
        <ele>574.6</ele>
        <time>2022-07-29T11:00:05Z</time>
      </trkpt>
      <trkpt lat="47.9645" lon="6.74433">
        <ele>574.2</ele>
        <time>2022-07-29T11:00:06Z</time>
      </trkpt>
      <trkpt lat="47.96452" lon="6.74442">
        <ele>573.4</ele>
        <time>2022-07-29T11:00:07Z</time>
      </trkpt>
      <trkpt lat="47.96454" lon="6.74449">
        <ele>573</ele>
        <time>2022-07-29T11:00:08Z</time>
      </trkpt>
      <trkpt lat="47.96456" lon="6.74455">
        <ele>572.6</ele>
        <time>2022-07-29T11:00:09Z</time>
      </trkpt>
      <trkpt lat="47.96457" lon="6.74461">
        <ele>572.4</ele>
        <time>2022-07-29T11:00:10Z</time>
      </trkpt>
      <trkpt lat="47.96459" lon="6.74466">
        <ele>570.6</ele>
        <time>2022-07-29T11:00:11Z</time>
      </trkpt>
      <trkpt lat="47.9646" lon="6.7447">
        <ele>570.2</ele>
        <time>2022-07-29T11:00:12Z</time>
      </trkpt>
      <trkpt lat="47.96462" lon="6.74474">
        <ele>569.6</ele>
        <time>2022-07-29T11:00:13Z</time>
      </trkpt>
      <trkpt lat="47.96465" lon="6.74479">
        <ele>569.2</ele>
        <time>2022-07-29T11:00:14Z</time>
      </trkpt>
      <trkpt lat="47.96468" lon="6.74482">
        <ele>569</ele>
        <time>2022-07-29T11:00:15Z</time>
      </trkpt>
      <trkpt lat="47.96473" lon="6.74484">
        <ele>568.8</ele>
        <time>2022-07-29T11:00:16Z</time>
      </trkpt>
      <trkpt lat="47.96478" lon="6.74486">
        <ele>568.4</ele>
        <time>2022-07-29T11:00:17Z</time>
      </trkpt>
      <trkpt lat="47.96482" lon="6.74486">
        <ele>567.4</ele>
        <time>2022-07-29T11:00:18Z</time>
      </trkpt>
      <trkpt lat="47.96487" lon="6.74488">
        <ele>566.8</ele>
        <time>2022-07-29T11:00:19Z</time>
      </trkpt>
      <trkpt lat="47.96492" lon="6.7449">
        <ele>566</ele>
        <time>2022-07-29T11:00:20Z</time>
      </trkpt>
      <trkpt lat="47.96496" lon="6.74492">
        <ele>565.6</ele>
        <time>2022-07-29T11:00:21Z</time>
      </trkpt>
      <trkpt lat="47.96499" lon="6.74494">
        <ele>564.6</ele>
        <time>2022-07-29T11:00:22Z</time>
      </trkpt>
      <trkpt lat="47.96502" lon="6.74496">
        <ele>563.4</ele>
        <time>2022-07-29T11:00:23Z</time>
      </trkpt>
      <trkpt lat="47.96506" lon="6.74498">
        <ele>562.6</ele>
        <time>2022-07-29T11:00:24Z</time>
      </trkpt>
      <trkpt lat="47.96509" lon="6.745">
        <ele>561.4</ele>
        <time>2022-07-29T11:00:25Z</time>
      </trkpt>
      <trkpt lat="47.96512" lon="6.74503">
        <ele>561</ele>
        <time>2022-07-29T11:00:26Z</time>
      </trkpt>
      <trkpt lat="47.96514" lon="6.74507">
        <ele>560.2</ele>
        <time>2022-07-29T11:00:27Z</time>
      </trkpt>
      <trkpt lat="47.96516" lon="6.74511">
        <ele>559.8</ele>
        <time>2022-07-29T11:00:28Z</time>
      </trkpt>
      <trkpt lat="47.96519" lon="6.74517">
        <ele>559.2</ele>
        <time>2022-07-29T11:00:29Z</time>
      </trkpt>
      <trkpt lat="47.9652" lon="6.74523">
        <ele>559</ele>
        <time>2022-07-29T11:00:30Z</time>
      </trkpt>
      <trkpt lat="47.96524" lon="6.74539">
        <ele>557.8</ele>
        <time>2022-07-29T11:00:32Z</time>
      </trkpt>
      <trkpt lat="47.96527" lon="6.74555">
        <ele>555.6</ele>
        <time>2022-07-29T11:00:34Z</time>
      </trkpt>
      <trkpt lat="47.9653" lon="6.74562">
        <ele>555.2</ele>
        <time>2022-07-29T11:00:35Z</time>
      </trkpt>
      <trkpt lat="47.96534" lon="6.74569">
        <ele>554.6</ele>
        <time>2022-07-29T11:00:36Z</time>
      </trkpt>
      <trkpt lat="47.96536" lon="6.74575">
        <ele>554</ele>
        <time>2022-07-29T11:00:37Z</time>
      </trkpt>
      <trkpt lat="47.96539" lon="6.7458">
        <ele>553.2</ele>
        <time>2022-07-29T11:00:38Z</time>
      </trkpt>
      <trkpt lat="47.96542" lon="6.74585">
        <ele>552.4</ele>
        <time>2022-07-29T11:00:39Z</time>
      </trkpt>
      <trkpt lat="47.96544" lon="6.74591">
        <ele>552.2</ele>
        <time>2022-07-29T11:00:40Z</time>
      </trkpt>
      <trkpt lat="47.96548" lon="6.74597">
        <ele>551.6</ele>
        <time>2022-07-29T11:00:41Z</time>
      </trkpt>
      <trkpt lat="47.9655" lon="6.74603">
        <ele>551.4</ele>
        <time>2022-07-29T11:00:42Z</time>
      </trkpt>
      <trkpt lat="47.96553" lon="6.74609">
        <ele>550.4</ele>
        <time>2022-07-29T11:00:43Z</time>
      </trkpt>
      <trkpt lat="47.96554" lon="6.74613">
        <ele>549.8</ele>
        <time>2022-07-29T11:00:44Z</time>
      </trkpt>
      <trkpt lat="47.96557" lon="6.74617">
        <ele>548.8</ele>
        <time>2022-07-29T11:00:45Z</time>
      </trkpt>
      <trkpt lat="47.96558" lon="6.7462">
        <ele>548.2</ele>
        <time>2022-07-29T11:00:46Z</time>
      </trkpt>
      <trkpt lat="47.9656" lon="6.74623">
        <ele>547.2</ele>
        <time>2022-07-29T11:00:47Z</time>
      </trkpt>
      <trkpt lat="47.96561" lon="6.74623">
        <ele>546.8</ele>
        <time>2022-07-29T11:00:48Z</time>
      </trkpt>
      <trkpt lat="47.96561" lon="6.74623">
        <ele>546.8</ele>
        <time>2022-07-29T11:00:49Z</time>
      </trkpt>
      <trkpt lat="47.96561" lon="6.74623">
        <ele>546.6</ele>
        <time>2022-07-29T11:00:50Z</time>
      </trkpt>
      <trkpt lat="47.96561" lon="6.74623">
        <ele>546.2</ele>
        <time>2022-07-29T11:00:53Z</time>
      </trkpt>
      <trkpt lat="47.96561" lon="6.74623">
        <ele>546</ele>
        <time>2022-07-29T11:01:04Z</time>
      </trkpt>
      <trkpt lat="47.96561" lon="6.74623">
        <ele>546.2</ele>
        <time>2022-07-29T11:01:16Z</time>
      </trkpt>
      <trkpt lat="47.96562" lon="6.74626">
        <ele>546.2</ele>
        <time>2022-07-29T11:01:26Z</time>
      </trkpt>
      <trkpt lat="47.96562" lon="6.74627">
        <ele>546.2</ele>
        <time>2022-07-29T11:01:27Z</time>
      </trkpt>
      <trkpt lat="47.96562" lon="6.74628">
        <ele>546.2</ele>
        <time>2022-07-29T11:01:28Z</time>
      </trkpt>
      <trkpt lat="47.96562" lon="6.7463">
        <ele>546.4</ele>
        <time>2022-07-29T11:01:29Z</time>
      </trkpt>
      <trkpt lat="47.96563" lon="6.74632">
        <ele>546.4</ele>
        <time>2022-07-29T11:01:30Z</time>
      </trkpt>
      <trkpt lat="47.96565" lon="6.74643">
        <ele>546.4</ele>
        <time>2022-07-29T11:01:35Z</time>
      </trkpt>
      <trkpt lat="47.96566" lon="6.74645">
        <ele>546.6</ele>
        <time>2022-07-29T11:01:36Z</time>
      </trkpt>
      <trkpt lat="47.96576" lon="6.74669">
        <ele>546.6</ele>
        <time>2022-07-29T11:01:42Z</time>
      </trkpt>
      <trkpt lat="47.96581" lon="6.74681">
        <ele>546.6</ele>
        <time>2022-07-29T11:01:45Z</time>
      </trkpt>
      <trkpt lat="47.96588" lon="6.74696">
        <ele>546.4</ele>
        <time>2022-07-29T11:01:48Z</time>
      </trkpt>
      <trkpt lat="47.96592" lon="6.74718">
        <ele>546.2</ele>
        <time>2022-07-29T11:01:52Z</time>
      </trkpt>
      <trkpt lat="47.96593" lon="6.74724">
        <ele>545.8</ele>
        <time>2022-07-29T11:01:53Z</time>
      </trkpt>
      <trkpt lat="47.96596" lon="6.74739">
        <ele>545.4</ele>
        <time>2022-07-29T11:01:56Z</time>
      </trkpt>
      <trkpt lat="47.96597" lon="6.74742">
        <ele>545.2</ele>
        <time>2022-07-29T11:01:57Z</time>
      </trkpt>
      <trkpt lat="47.96597" lon="6.74745">
        <ele>545</ele>
        <time>2022-07-29T11:01:58Z</time>
      </trkpt>
      <trkpt lat="47.96598" lon="6.74746">
        <ele>545</ele>
        <time>2022-07-29T11:01:59Z</time>
      </trkpt>
      <trkpt lat="47.96598" lon="6.74746">
        <ele>544.8</ele>
        <time>2022-07-29T11:02:00Z</time>
      </trkpt>
      <trkpt lat="47.96598" lon="6.74746">
        <ele>544.8</ele>
        <time>2022-07-29T11:02:02Z</time>
      </trkpt>
      <trkpt lat="47.96601" lon="6.74758">
        <ele>545</ele>
        <time>2022-07-29T11:02:20Z</time>
      </trkpt>
      <trkpt lat="47.96606" lon="6.74786">
        <ele>544.8</ele>
        <time>2022-07-29T11:02:25Z</time>
      </trkpt>
      <trkpt lat="47.96606" lon="6.74792">
        <ele>544.4</ele>
        <time>2022-07-29T11:02:26Z</time>
      </trkpt>
      <trkpt lat="47.96607" lon="6.74804">
        <ele>543.8</ele>
        <time>2022-07-29T11:02:28Z</time>
      </trkpt>
      <trkpt lat="47.96607" lon="6.74808">
        <ele>543.6</ele>
        <time>2022-07-29T11:02:29Z</time>
      </trkpt>
      <trkpt lat="47.96606" lon="6.74813">
        <ele>543.6</ele>
        <time>2022-07-29T11:02:30Z</time>
      </trkpt>
      <trkpt lat="47.96606" lon="6.74817">
        <ele>543.4</ele>
        <time>2022-07-29T11:02:31Z</time>
      </trkpt>
      <trkpt lat="47.96606" lon="6.74821">
        <ele>543.4</ele>
        <time>2022-07-29T11:02:32Z</time>
      </trkpt>
      <trkpt lat="47.96607" lon="6.74825">
        <ele>543.4</ele>
        <time>2022-07-29T11:02:33Z</time>
      </trkpt>
      <trkpt lat="47.96608" lon="6.74829">
        <ele>543.2</ele>
        <time>2022-07-29T11:02:34Z</time>
      </trkpt>
      <trkpt lat="47.96608" lon="6.74833">
        <ele>543.2</ele>
        <time>2022-07-29T11:02:35Z</time>
      </trkpt>
      <trkpt lat="47.96609" lon="6.74837">
        <ele>543.2</ele>
        <time>2022-07-29T11:02:36Z</time>
      </trkpt>
      <trkpt lat="47.9661" lon="6.74841">
        <ele>543.2</ele>
        <time>2022-07-29T11:02:37Z</time>
      </trkpt>
      <trkpt lat="47.96612" lon="6.74845">
        <ele>543.2</ele>
        <time>2022-07-29T11:02:38Z</time>
      </trkpt>
      <trkpt lat="47.96613" lon="6.74849">
        <ele>543.2</ele>
        <time>2022-07-29T11:02:39Z</time>
      </trkpt>
      <trkpt lat="47.96615" lon="6.74866">
        <ele>543.2</ele>
        <time>2022-07-29T11:02:42Z</time>
      </trkpt>
      <trkpt lat="47.96615" lon="6.74882">
        <ele>543</ele>
        <time>2022-07-29T11:02:44Z</time>
      </trkpt>
      <trkpt lat="47.96613" lon="6.74901">
        <ele>542</ele>
        <time>2022-07-29T11:02:46Z</time>
      </trkpt>
      <trkpt lat="47.96614" lon="6.74919">
        <ele>540.8</ele>
        <time>2022-07-29T11:02:48Z</time>
      </trkpt>
      <trkpt lat="47.96619" lon="6.74926">
        <ele>540.4</ele>
        <time>2022-07-29T11:02:49Z</time>
      </trkpt>
      <trkpt lat="47.96624" lon="6.74933">
        <ele>540.2</ele>
        <time>2022-07-29T11:02:50Z</time>
      </trkpt>
      <trkpt lat="47.9663" lon="6.74937">
        <ele>539.6</ele>
        <time>2022-07-29T11:02:51Z</time>
      </trkpt>
      <trkpt lat="47.96637" lon="6.74939">
        <ele>539.4</ele>
        <time>2022-07-29T11:02:52Z</time>
      </trkpt>
      <trkpt lat="47.96643" lon="6.7494">
        <ele>538.4</ele>
        <time>2022-07-29T11:02:53Z</time>
      </trkpt>
      <trkpt lat="47.96656" lon="6.74936">
        <ele>537</ele>
        <time>2022-07-29T11:02:55Z</time>
      </trkpt>
      <trkpt lat="47.96661" lon="6.7493">
        <ele>536</ele>
        <time>2022-07-29T11:02:56Z</time>
      </trkpt>
      <trkpt lat="47.96665" lon="6.74923">
        <ele>535.6</ele>
        <time>2022-07-29T11:02:57Z</time>
      </trkpt>
      <trkpt lat="47.96669" lon="6.74915">
        <ele>534.6</ele>
        <time>2022-07-29T11:02:58Z</time>
      </trkpt>
      <trkpt lat="47.96673" lon="6.74906">
        <ele>534.2</ele>
        <time>2022-07-29T11:02:59Z</time>
      </trkpt>
      <trkpt lat="47.96676" lon="6.74897">
        <ele>533.8</ele>
        <time>2022-07-29T11:03:00Z</time>
      </trkpt>
      <trkpt lat="47.96683" lon="6.74877">
        <ele>533</ele>
        <time>2022-07-29T11:03:02Z</time>
      </trkpt>
      <trkpt lat="47.96691" lon="6.74858">
        <ele>532.2</ele>
        <time>2022-07-29T11:03:04Z</time>
      </trkpt>
      <trkpt lat="47.96695" lon="6.74848">
        <ele>531.8</ele>
        <time>2022-07-29T11:03:05Z</time>
      </trkpt>
      <trkpt lat="47.96715" lon="6.7481">
        <ele>530.6</ele>
        <time>2022-07-29T11:03:09Z</time>
      </trkpt>
      <trkpt lat="47.96721" lon="6.74801">
        <ele>529.8</ele>
        <time>2022-07-29T11:03:10Z</time>
      </trkpt>
      <trkpt lat="47.96727" lon="6.74792">
        <ele>528.8</ele>
        <time>2022-07-29T11:03:11Z</time>
      </trkpt>
      <trkpt lat="47.96739" lon="6.74775">
        <ele>527.6</ele>
        <time>2022-07-29T11:03:13Z</time>
      </trkpt>
      <trkpt lat="47.96744" lon="6.74767">
        <ele>526.6</ele>
        <time>2022-07-29T11:03:14Z</time>
      </trkpt>
      <trkpt lat="47.9675" lon="6.74748">
        <ele>525.2</ele>
        <time>2022-07-29T11:03:16Z</time>
      </trkpt>
      <trkpt lat="47.96752" lon="6.74737">
        <ele>524.4</ele>
        <time>2022-07-29T11:03:17Z</time>
      </trkpt>
      <trkpt lat="47.96753" lon="6.74726">
        <ele>523.6</ele>
        <time>2022-07-29T11:03:18Z</time>
      </trkpt>
      <trkpt lat="47.96754" lon="6.74716">
        <ele>523.4</ele>
        <time>2022-07-29T11:03:19Z</time>
      </trkpt>
      <trkpt lat="47.96755" lon="6.74706">
        <ele>522.8</ele>
        <time>2022-07-29T11:03:20Z</time>
      </trkpt>
      <trkpt lat="47.96754" lon="6.74696">
        <ele>522.4</ele>
        <time>2022-07-29T11:03:21Z</time>
      </trkpt>
      <trkpt lat="47.96754" lon="6.74687">
        <ele>522.4</ele>
        <time>2022-07-29T11:03:22Z</time>
      </trkpt>
      <trkpt lat="47.96753" lon="6.74679">
        <ele>522</ele>
        <time>2022-07-29T11:03:23Z</time>
      </trkpt>
      <trkpt lat="47.96753" lon="6.74671">
        <ele>522</ele>
        <time>2022-07-29T11:03:24Z</time>
      </trkpt>
      <trkpt lat="47.96753" lon="6.74665">
        <ele>522</ele>
        <time>2022-07-29T11:03:25Z</time>
      </trkpt>
      <trkpt lat="47.96753" lon="6.74658">
        <ele>521.8</ele>
        <time>2022-07-29T11:03:26Z</time>
      </trkpt>
      <trkpt lat="47.96754" lon="6.74653">
        <ele>522</ele>
        <time>2022-07-29T11:03:27Z</time>
      </trkpt>
      <trkpt lat="47.96755" lon="6.74648">
        <ele>522.2</ele>
        <time>2022-07-29T11:03:28Z</time>
      </trkpt>
      <trkpt lat="47.96755" lon="6.74643">
        <ele>522.2</ele>
        <time>2022-07-29T11:03:29Z</time>
      </trkpt>
      <trkpt lat="47.96756" lon="6.74638">
        <ele>522.4</ele>
        <time>2022-07-29T11:03:30Z</time>
      </trkpt>
      <trkpt lat="47.96757" lon="6.74633">
        <ele>522.4</ele>
        <time>2022-07-29T11:03:31Z</time>
      </trkpt>
      <trkpt lat="47.96758" lon="6.74628">
        <ele>522.4</ele>
        <time>2022-07-29T11:03:32Z</time>
      </trkpt>
      <trkpt lat="47.96761" lon="6.74615">
        <ele>522.8</ele>
        <time>2022-07-29T11:03:35Z</time>
      </trkpt>
      <trkpt lat="47.96763" lon="6.74611">
        <ele>523</ele>
        <time>2022-07-29T11:03:36Z</time>
      </trkpt>
      <trkpt lat="47.96764" lon="6.74607">
        <ele>523.2</ele>
        <time>2022-07-29T11:03:37Z</time>
      </trkpt>
      <trkpt lat="47.96765" lon="6.74603">
        <ele>523.4</ele>
        <time>2022-07-29T11:03:38Z</time>
      </trkpt>
      <trkpt lat="47.96767" lon="6.74599">
        <ele>523.6</ele>
        <time>2022-07-29T11:03:39Z</time>
      </trkpt>
      <trkpt lat="47.96768" lon="6.74595">
        <ele>523.8</ele>
        <time>2022-07-29T11:03:40Z</time>
      </trkpt>
      <trkpt lat="47.9677" lon="6.74591">
        <ele>524</ele>
        <time>2022-07-29T11:03:41Z</time>
      </trkpt>
      <trkpt lat="47.96771" lon="6.74587">
        <ele>524</ele>
        <time>2022-07-29T11:03:42Z</time>
      </trkpt>
      <trkpt lat="47.96773" lon="6.74583">
        <ele>524</ele>
        <time>2022-07-29T11:03:43Z</time>
      </trkpt>
      <trkpt lat="47.96777" lon="6.74573">
        <ele>524.2</ele>
        <time>2022-07-29T11:03:46Z</time>
      </trkpt>
      <trkpt lat="47.96778" lon="6.74571">
        <ele>524.6</ele>
        <time>2022-07-29T11:03:47Z</time>
      </trkpt>
      <trkpt lat="47.9678" lon="6.7457">
        <ele>524.6</ele>
        <time>2022-07-29T11:03:48Z</time>
      </trkpt>
      <trkpt lat="47.96781" lon="6.7457">
        <ele>524.8</ele>
        <time>2022-07-29T11:03:49Z</time>
      </trkpt>
      <trkpt lat="47.96782" lon="6.74573">
        <ele>524.8</ele>
        <time>2022-07-29T11:03:50Z</time>
      </trkpt>
      <trkpt lat="47.96781" lon="6.74575">
        <ele>525</ele>
        <time>2022-07-29T11:03:51Z</time>
      </trkpt>
      <trkpt lat="47.96777" lon="6.74583">
        <ele>525.2</ele>
        <time>2022-07-29T11:03:54Z</time>
      </trkpt>
      <trkpt lat="47.96776" lon="6.74586">
        <ele>525.4</ele>
        <time>2022-07-29T11:03:55Z</time>
      </trkpt>
      <trkpt lat="47.96775" lon="6.74588">
        <ele>525.4</ele>
        <time>2022-07-29T11:03:56Z</time>
      </trkpt>
      <trkpt lat="47.96774" lon="6.74591">
        <ele>525.4</ele>
        <time>2022-07-29T11:03:57Z</time>
      </trkpt>
      <trkpt lat="47.96773" lon="6.74594">
        <ele>525.6</ele>
        <time>2022-07-29T11:03:58Z</time>
      </trkpt>
      <trkpt lat="47.96771" lon="6.74601">
        <ele>526</ele>
        <time>2022-07-29T11:04:01Z</time>
      </trkpt>
      <trkpt lat="47.96771" lon="6.74604">
        <ele>526</ele>
        <time>2022-07-29T11:04:02Z</time>
      </trkpt>
      <trkpt lat="47.96769" lon="6.74622">
        <ele>527.2</ele>
        <time>2022-07-29T11:04:08Z</time>
      </trkpt>
      <trkpt lat="47.96769" lon="6.74624">
        <ele>527.2</ele>
        <time>2022-07-29T11:04:09Z</time>
      </trkpt>
      <trkpt lat="47.9677" lon="6.74627">
        <ele>527.4</ele>
        <time>2022-07-29T11:04:10Z</time>
      </trkpt>
      <trkpt lat="47.96771" lon="6.7463">
        <ele>527.6</ele>
        <time>2022-07-29T11:04:11Z</time>
      </trkpt>
      <trkpt lat="47.96771" lon="6.74632">
        <ele>527.8</ele>
        <time>2022-07-29T11:04:12Z</time>
      </trkpt>
      <trkpt lat="47.96772" lon="6.74635">
        <ele>527.8</ele>
        <time>2022-07-29T11:04:13Z</time>
      </trkpt>
      <trkpt lat="47.96774" lon="6.74637">
        <ele>527.8</ele>
        <time>2022-07-29T11:04:14Z</time>
      </trkpt>
      <trkpt lat="47.96775" lon="6.74638">
        <ele>528</ele>
        <time>2022-07-29T11:04:15Z</time>
      </trkpt>
      <trkpt lat="47.96777" lon="6.74639">
        <ele>528.2</ele>
        <time>2022-07-29T11:04:16Z</time>
      </trkpt>
      <trkpt lat="47.96779" lon="6.7464">
        <ele>528.4</ele>
        <time>2022-07-29T11:04:17Z</time>
      </trkpt>
      <trkpt lat="47.9678" lon="6.74641">
        <ele>528.6</ele>
        <time>2022-07-29T11:04:18Z</time>
      </trkpt>
      <trkpt lat="47.96782" lon="6.74642">
        <ele>528.8</ele>
        <time>2022-07-29T11:04:19Z</time>
      </trkpt>
      <trkpt lat="47.96784" lon="6.74642">
        <ele>529</ele>
        <time>2022-07-29T11:04:20Z</time>
      </trkpt>
      <trkpt lat="47.96785" lon="6.74641">
        <ele>529.4</ele>
        <time>2022-07-29T11:04:21Z</time>
      </trkpt>
      <trkpt lat="47.96787" lon="6.74641">
        <ele>529.8</ele>
        <time>2022-07-29T11:04:22Z</time>
      </trkpt>
      <trkpt lat="47.96789" lon="6.7464">
        <ele>529.8</ele>
        <time>2022-07-29T11:04:23Z</time>
      </trkpt>
      <trkpt lat="47.9679" lon="6.74639">
        <ele>530</ele>
        <time>2022-07-29T11:04:24Z</time>
      </trkpt>
      <trkpt lat="47.96792" lon="6.74637">
        <ele>530.2</ele>
        <time>2022-07-29T11:04:25Z</time>
      </trkpt>
      <trkpt lat="47.96793" lon="6.74636">
        <ele>530.2</ele>
        <time>2022-07-29T11:04:26Z</time>
      </trkpt>
      <trkpt lat="47.96794" lon="6.74634">
        <ele>530.4</ele>
        <time>2022-07-29T11:04:27Z</time>
      </trkpt>
      <trkpt lat="47.96795" lon="6.74632">
        <ele>530.6</ele>
        <time>2022-07-29T11:04:28Z</time>
      </trkpt>
      <trkpt lat="47.96797" lon="6.7463">
        <ele>530.6</ele>
        <time>2022-07-29T11:04:29Z</time>
      </trkpt>
      <trkpt lat="47.96798" lon="6.74629">
        <ele>530.8</ele>
        <time>2022-07-29T11:04:30Z</time>
      </trkpt>
      <trkpt lat="47.96798" lon="6.74627">
        <ele>531</ele>
        <time>2022-07-29T11:04:31Z</time>
      </trkpt>
      <trkpt lat="47.96799" lon="6.74625">
        <ele>531</ele>
        <time>2022-07-29T11:04:32Z</time>
      </trkpt>
      <trkpt lat="47.968" lon="6.74623">
        <ele>531.2</ele>
        <time>2022-07-29T11:04:33Z</time>
      </trkpt>
      <trkpt lat="47.96801" lon="6.74621">
        <ele>531.4</ele>
        <time>2022-07-29T11:04:34Z</time>
      </trkpt>
      <trkpt lat="47.96802" lon="6.74618">
        <ele>531.6</ele>
        <time>2022-07-29T11:04:35Z</time>
      </trkpt>
      <trkpt lat="47.96803" lon="6.74617">
        <ele>531.8</ele>
        <time>2022-07-29T11:04:36Z</time>
      </trkpt>
      <trkpt lat="47.96804" lon="6.74615">
        <ele>532</ele>
        <time>2022-07-29T11:04:37Z</time>
      </trkpt>
      <trkpt lat="47.96806" lon="6.74613">
        <ele>532.2</ele>
        <time>2022-07-29T11:04:38Z</time>
      </trkpt>
      <trkpt lat="47.96807" lon="6.74612">
        <ele>532.4</ele>
        <time>2022-07-29T11:04:39Z</time>
      </trkpt>
      <trkpt lat="47.96808" lon="6.7461">
        <ele>532.8</ele>
        <time>2022-07-29T11:04:40Z</time>
      </trkpt>
      <trkpt lat="47.96809" lon="6.74609">
        <ele>532.8</ele>
        <time>2022-07-29T11:04:41Z</time>
      </trkpt>
      <trkpt lat="47.9681" lon="6.74607">
        <ele>533</ele>
        <time>2022-07-29T11:04:42Z</time>
      </trkpt>
      <trkpt lat="47.96811" lon="6.74605">
        <ele>533.2</ele>
        <time>2022-07-29T11:04:43Z</time>
      </trkpt>
      <trkpt lat="47.96812" lon="6.74603">
        <ele>533.4</ele>
        <time>2022-07-29T11:04:44Z</time>
      </trkpt>
      <trkpt lat="47.96814" lon="6.74601">
        <ele>533.4</ele>
        <time>2022-07-29T11:04:45Z</time>
      </trkpt>
      <trkpt lat="47.96815" lon="6.74599">
        <ele>533.6</ele>
        <time>2022-07-29T11:04:46Z</time>
      </trkpt>
      <trkpt lat="47.96816" lon="6.74597">
        <ele>533.6</ele>
        <time>2022-07-29T11:04:47Z</time>
      </trkpt>
      <trkpt lat="47.96816" lon="6.74596">
        <ele>533.8</ele>
        <time>2022-07-29T11:04:48Z</time>
      </trkpt>
      <trkpt lat="47.96817" lon="6.74593">
        <ele>534</ele>
        <time>2022-07-29T11:04:49Z</time>
      </trkpt>
      <trkpt lat="47.96818" lon="6.74592">
        <ele>534.2</ele>
        <time>2022-07-29T11:04:50Z</time>
      </trkpt>
      <trkpt lat="47.96819" lon="6.7459">
        <ele>534.4</ele>
        <time>2022-07-29T11:04:51Z</time>
      </trkpt>
      <trkpt lat="47.9682" lon="6.74588">
        <ele>534.4</ele>
        <time>2022-07-29T11:04:52Z</time>
      </trkpt>
      <trkpt lat="47.96821" lon="6.74586">
        <ele>534.6</ele>
        <time>2022-07-29T11:04:53Z</time>
      </trkpt>
      <trkpt lat="47.96822" lon="6.74584">
        <ele>534.8</ele>
        <time>2022-07-29T11:04:54Z</time>
      </trkpt>
      <trkpt lat="47.96823" lon="6.74583">
        <ele>534.8</ele>
        <time>2022-07-29T11:04:55Z</time>
      </trkpt>
      <trkpt lat="47.96823" lon="6.74582">
        <ele>534.8</ele>
        <time>2022-07-29T11:04:56Z</time>
      </trkpt>
      <trkpt lat="47.96824" lon="6.7458">
        <ele>535.2</ele>
        <time>2022-07-29T11:04:57Z</time>
      </trkpt>
      <trkpt lat="47.96825" lon="6.74578">
        <ele>535.6</ele>
        <time>2022-07-29T11:04:58Z</time>
      </trkpt>
      <trkpt lat="47.96826" lon="6.74575">
        <ele>535.6</ele>
        <time>2022-07-29T11:04:59Z</time>
      </trkpt>
      <trkpt lat="47.96827" lon="6.74573">
        <ele>535.8</ele>
        <time>2022-07-29T11:05:00Z</time>
      </trkpt>
      <trkpt lat="47.96827" lon="6.7457">
        <ele>536</ele>
        <time>2022-07-29T11:05:01Z</time>
      </trkpt>
      <trkpt lat="47.96828" lon="6.74568">
        <ele>536.2</ele>
        <time>2022-07-29T11:05:02Z</time>
      </trkpt>
      <trkpt lat="47.96829" lon="6.74566">
        <ele>536.2</ele>
        <time>2022-07-29T11:05:03Z</time>
      </trkpt>
      <trkpt lat="47.9683" lon="6.74564">
        <ele>536.4</ele>
        <time>2022-07-29T11:05:04Z</time>
      </trkpt>
      <trkpt lat="47.9683" lon="6.74561">
        <ele>536.4</ele>
        <time>2022-07-29T11:05:05Z</time>
      </trkpt>
      <trkpt lat="47.96831" lon="6.74558">
        <ele>536.6</ele>
        <time>2022-07-29T11:05:06Z</time>
      </trkpt>
      <trkpt lat="47.96832" lon="6.74555">
        <ele>536.6</ele>
        <time>2022-07-29T11:05:07Z</time>
      </trkpt>
      <trkpt lat="47.96834" lon="6.74553">
        <ele>536.8</ele>
        <time>2022-07-29T11:05:08Z</time>
      </trkpt>
      <trkpt lat="47.96835" lon="6.74551">
        <ele>537</ele>
        <time>2022-07-29T11:05:09Z</time>
      </trkpt>
      <trkpt lat="47.96837" lon="6.74548">
        <ele>537.2</ele>
        <time>2022-07-29T11:05:10Z</time>
      </trkpt>
      <trkpt lat="47.96838" lon="6.74546">
        <ele>537.4</ele>
        <time>2022-07-29T11:05:11Z</time>
      </trkpt>
      <trkpt lat="47.9684" lon="6.74544">
        <ele>537.4</ele>
        <time>2022-07-29T11:05:12Z</time>
      </trkpt>
      <trkpt lat="47.96841" lon="6.74542">
        <ele>537.6</ele>
        <time>2022-07-29T11:05:13Z</time>
      </trkpt>
      <trkpt lat="47.96843" lon="6.74541">
        <ele>537.8</ele>
        <time>2022-07-29T11:05:14Z</time>
      </trkpt>
      <trkpt lat="47.96844" lon="6.74541">
        <ele>537.8</ele>
        <time>2022-07-29T11:05:15Z</time>
      </trkpt>
      <trkpt lat="47.96846" lon="6.7454">
        <ele>538</ele>
        <time>2022-07-29T11:05:16Z</time>
      </trkpt>
      <trkpt lat="47.96848" lon="6.7454">
        <ele>538.2</ele>
        <time>2022-07-29T11:05:17Z</time>
      </trkpt>
      <trkpt lat="47.96849" lon="6.7454">
        <ele>538.6</ele>
        <time>2022-07-29T11:05:18Z</time>
      </trkpt>
      <trkpt lat="47.9685" lon="6.7454">
        <ele>538.8</ele>
        <time>2022-07-29T11:05:19Z</time>
      </trkpt>
      <trkpt lat="47.96852" lon="6.74541">
        <ele>539.2</ele>
        <time>2022-07-29T11:05:20Z</time>
      </trkpt>
      <trkpt lat="47.96854" lon="6.74542">
        <ele>539.2</ele>
        <time>2022-07-29T11:05:21Z</time>
      </trkpt>
      <trkpt lat="47.96855" lon="6.74543">
        <ele>539.2</ele>
        <time>2022-07-29T11:05:22Z</time>
      </trkpt>
      <trkpt lat="47.96857" lon="6.74543">
        <ele>539.6</ele>
        <time>2022-07-29T11:05:23Z</time>
      </trkpt>
      <trkpt lat="47.96858" lon="6.74545">
        <ele>540</ele>
        <time>2022-07-29T11:05:24Z</time>
      </trkpt>
      <trkpt lat="47.9686" lon="6.74546">
        <ele>540.4</ele>
        <time>2022-07-29T11:05:25Z</time>
      </trkpt>
      <trkpt lat="47.96861" lon="6.74548">
        <ele>540.4</ele>
        <time>2022-07-29T11:05:26Z</time>
      </trkpt>
      <trkpt lat="47.96862" lon="6.7455">
        <ele>540.6</ele>
        <time>2022-07-29T11:05:27Z</time>
      </trkpt>
      <trkpt lat="47.96863" lon="6.74552">
        <ele>540.6</ele>
        <time>2022-07-29T11:05:28Z</time>
      </trkpt>
      <trkpt lat="47.96864" lon="6.74554">
        <ele>540.8</ele>
        <time>2022-07-29T11:05:29Z</time>
      </trkpt>
      <trkpt lat="47.96865" lon="6.74555">
        <ele>540.8</ele>
        <time>2022-07-29T11:05:30Z</time>
      </trkpt>
      <trkpt lat="47.96866" lon="6.74556">
        <ele>541</ele>
        <time>2022-07-29T11:05:31Z</time>
      </trkpt>
      <trkpt lat="47.96868" lon="6.74558">
        <ele>541.2</ele>
        <time>2022-07-29T11:05:32Z</time>
      </trkpt>
      <trkpt lat="47.96869" lon="6.74559">
        <ele>541.4</ele>
        <time>2022-07-29T11:05:33Z</time>
      </trkpt>
      <trkpt lat="47.96871" lon="6.74561">
        <ele>541.4</ele>
        <time>2022-07-29T11:05:34Z</time>
      </trkpt>
      <trkpt lat="47.96872" lon="6.74563">
        <ele>541.6</ele>
        <time>2022-07-29T11:05:35Z</time>
      </trkpt>
      <trkpt lat="47.96874" lon="6.74564">
        <ele>541.8</ele>
        <time>2022-07-29T11:05:36Z</time>
      </trkpt>
      <trkpt lat="47.96875" lon="6.74565">
        <ele>541.8</ele>
        <time>2022-07-29T11:05:37Z</time>
      </trkpt>
      <trkpt lat="47.96877" lon="6.74566">
        <ele>541.8</ele>
        <time>2022-07-29T11:05:38Z</time>
      </trkpt>
      <trkpt lat="47.96879" lon="6.74567">
        <ele>541.8</ele>
        <time>2022-07-29T11:05:39Z</time>
      </trkpt>
      <trkpt lat="47.96881" lon="6.74567">
        <ele>542.2</ele>
        <time>2022-07-29T11:05:40Z</time>
      </trkpt>
      <trkpt lat="47.96883" lon="6.74567">
        <ele>542.2</ele>
        <time>2022-07-29T11:05:41Z</time>
      </trkpt>
      <trkpt lat="47.96884" lon="6.74567">
        <ele>542.4</ele>
        <time>2022-07-29T11:05:42Z</time>
      </trkpt>
      <trkpt lat="47.96886" lon="6.74567">
        <ele>542.4</ele>
        <time>2022-07-29T11:05:43Z</time>
      </trkpt>
      <trkpt lat="47.96888" lon="6.74565">
        <ele>542.6</ele>
        <time>2022-07-29T11:05:44Z</time>
      </trkpt>
      <trkpt lat="47.9689" lon="6.74565">
        <ele>542.6</ele>
        <time>2022-07-29T11:05:45Z</time>
      </trkpt>
      <trkpt lat="47.96892" lon="6.74564">
        <ele>542.8</ele>
        <time>2022-07-29T11:05:46Z</time>
      </trkpt>
      <trkpt lat="47.96894" lon="6.74563">
        <ele>543</ele>
        <time>2022-07-29T11:05:47Z</time>
      </trkpt>
      <trkpt lat="47.96896" lon="6.74562">
        <ele>543.2</ele>
        <time>2022-07-29T11:05:48Z</time>
      </trkpt>
      <trkpt lat="47.96897" lon="6.74561">
        <ele>543.4</ele>
        <time>2022-07-29T11:05:49Z</time>
      </trkpt>
      <trkpt lat="47.96899" lon="6.7456">
        <ele>543.6</ele>
        <time>2022-07-29T11:05:50Z</time>
      </trkpt>
      <trkpt lat="47.96901" lon="6.74559">
        <ele>543.8</ele>
        <time>2022-07-29T11:05:51Z</time>
      </trkpt>
      <trkpt lat="47.96902" lon="6.74558">
        <ele>544</ele>
        <time>2022-07-29T11:05:52Z</time>
      </trkpt>
      <trkpt lat="47.96904" lon="6.74557">
        <ele>544</ele>
        <time>2022-07-29T11:05:53Z</time>
      </trkpt>
      <trkpt lat="47.96905" lon="6.74555">
        <ele>544.4</ele>
        <time>2022-07-29T11:05:54Z</time>
      </trkpt>
      <trkpt lat="47.96907" lon="6.74554">
        <ele>544.4</ele>
        <time>2022-07-29T11:05:55Z</time>
      </trkpt>
      <trkpt lat="47.96908" lon="6.74553">
        <ele>544.6</ele>
        <time>2022-07-29T11:05:56Z</time>
      </trkpt>
      <trkpt lat="47.9691" lon="6.74552">
        <ele>544.8</ele>
        <time>2022-07-29T11:05:57Z</time>
      </trkpt>
      <trkpt lat="47.96911" lon="6.7455">
        <ele>545</ele>
        <time>2022-07-29T11:05:58Z</time>
      </trkpt>
      <trkpt lat="47.96912" lon="6.74549">
        <ele>545.2</ele>
        <time>2022-07-29T11:05:59Z</time>
      </trkpt>
      <trkpt lat="47.96913" lon="6.74547">
        <ele>545.2</ele>
        <time>2022-07-29T11:06:00Z</time>
      </trkpt>
      <trkpt lat="47.96915" lon="6.74545">
        <ele>545.4</ele>
        <time>2022-07-29T11:06:01Z</time>
      </trkpt>
      <trkpt lat="47.96916" lon="6.74543">
        <ele>545.6</ele>
        <time>2022-07-29T11:06:02Z</time>
      </trkpt>
      <trkpt lat="47.96918" lon="6.74542">
        <ele>546</ele>
        <time>2022-07-29T11:06:03Z</time>
      </trkpt>
      <trkpt lat="47.96919" lon="6.7454">
        <ele>546</ele>
        <time>2022-07-29T11:06:04Z</time>
      </trkpt>
      <trkpt lat="47.96921" lon="6.74538">
        <ele>546.2</ele>
        <time>2022-07-29T11:06:05Z</time>
      </trkpt>
      <trkpt lat="47.96922" lon="6.74536">
        <ele>546.4</ele>
        <time>2022-07-29T11:06:06Z</time>
      </trkpt>
      <trkpt lat="47.96923" lon="6.74533">
        <ele>546.6</ele>
        <time>2022-07-29T11:06:07Z</time>
      </trkpt>
      <trkpt lat="47.96925" lon="6.74531">
        <ele>546.8</ele>
        <time>2022-07-29T11:06:08Z</time>
      </trkpt>
      <trkpt lat="47.96926" lon="6.74529">
        <ele>546.8</ele>
        <time>2022-07-29T11:06:09Z</time>
      </trkpt>
      <trkpt lat="47.96928" lon="6.74527">
        <ele>547</ele>
        <time>2022-07-29T11:06:10Z</time>
      </trkpt>
      <trkpt lat="47.96929" lon="6.74524">
        <ele>547</ele>
        <time>2022-07-29T11:06:11Z</time>
      </trkpt>
      <trkpt lat="47.96931" lon="6.74522">
        <ele>547.2</ele>
        <time>2022-07-29T11:06:12Z</time>
      </trkpt>
      <trkpt lat="47.96932" lon="6.74519">
        <ele>547.2</ele>
        <time>2022-07-29T11:06:13Z</time>
      </trkpt>
      <trkpt lat="47.96933" lon="6.74516">
        <ele>547.4</ele>
        <time>2022-07-29T11:06:14Z</time>
      </trkpt>
      <trkpt lat="47.96935" lon="6.74514">
        <ele>547.6</ele>
        <time>2022-07-29T11:06:15Z</time>
      </trkpt>
      <trkpt lat="47.96937" lon="6.74513">
        <ele>547.6</ele>
        <time>2022-07-29T11:06:16Z</time>
      </trkpt>
      <trkpt lat="47.96939" lon="6.74511">
        <ele>547.8</ele>
        <time>2022-07-29T11:06:17Z</time>
      </trkpt>
      <trkpt lat="47.9694" lon="6.7451">
        <ele>548</ele>
        <time>2022-07-29T11:06:18Z</time>
      </trkpt>
      <trkpt lat="47.96942" lon="6.74509">
        <ele>548.2</ele>
        <time>2022-07-29T11:06:19Z</time>
      </trkpt>
      <trkpt lat="47.96944" lon="6.74508">
        <ele>548.2</ele>
        <time>2022-07-29T11:06:20Z</time>
      </trkpt>
      <trkpt lat="47.96946" lon="6.74507">
        <ele>548.4</ele>
        <time>2022-07-29T11:06:21Z</time>
      </trkpt>
      <trkpt lat="47.96948" lon="6.74506">
        <ele>548.6</ele>
        <time>2022-07-29T11:06:22Z</time>
      </trkpt>
      <trkpt lat="47.96949" lon="6.74505">
        <ele>548.8</ele>
        <time>2022-07-29T11:06:23Z</time>
      </trkpt>
      <trkpt lat="47.96951" lon="6.74504">
        <ele>548.8</ele>
        <time>2022-07-29T11:06:24Z</time>
      </trkpt>
      <trkpt lat="47.96953" lon="6.74503">
        <ele>549</ele>
        <time>2022-07-29T11:06:25Z</time>
      </trkpt>
      <trkpt lat="47.96955" lon="6.74503">
        <ele>549.2</ele>
        <time>2022-07-29T11:06:26Z</time>
      </trkpt>
      <trkpt lat="47.96957" lon="6.74502">
        <ele>549.2</ele>
        <time>2022-07-29T11:06:27Z</time>
      </trkpt>
      <trkpt lat="47.96959" lon="6.74501">
        <ele>549.4</ele>
        <time>2022-07-29T11:06:28Z</time>
      </trkpt>
      <trkpt lat="47.96961" lon="6.74501">
        <ele>549.4</ele>
        <time>2022-07-29T11:06:29Z</time>
      </trkpt>
      <trkpt lat="47.96963" lon="6.74501">
        <ele>549.6</ele>
        <time>2022-07-29T11:06:30Z</time>
      </trkpt>
      <trkpt lat="47.96965" lon="6.745">
        <ele>549.8</ele>
        <time>2022-07-29T11:06:31Z</time>
      </trkpt>
      <trkpt lat="47.96967" lon="6.745">
        <ele>549.8</ele>
        <time>2022-07-29T11:06:32Z</time>
      </trkpt>
      <trkpt lat="47.96969" lon="6.745">
        <ele>550</ele>
        <time>2022-07-29T11:06:33Z</time>
      </trkpt>
      <trkpt lat="47.96971" lon="6.74499">
        <ele>550.2</ele>
        <time>2022-07-29T11:06:34Z</time>
      </trkpt>
      <trkpt lat="47.96972" lon="6.74499">
        <ele>550.8</ele>
        <time>2022-07-29T11:06:35Z</time>
      </trkpt>
      <trkpt lat="47.96974" lon="6.74498">
        <ele>550.8</ele>
        <time>2022-07-29T11:06:36Z</time>
      </trkpt>
      <trkpt lat="47.96976" lon="6.74498">
        <ele>551</ele>
        <time>2022-07-29T11:06:37Z</time>
      </trkpt>
      <trkpt lat="47.96978" lon="6.74497">
        <ele>551.2</ele>
        <time>2022-07-29T11:06:38Z</time>
      </trkpt>
      <trkpt lat="47.9698" lon="6.74496">
        <ele>551.4</ele>
        <time>2022-07-29T11:06:39Z</time>
      </trkpt>
      <trkpt lat="47.96981" lon="6.74495">
        <ele>551.6</ele>
        <time>2022-07-29T11:06:40Z</time>
      </trkpt>
      <trkpt lat="47.96983" lon="6.74494">
        <ele>551.6</ele>
        <time>2022-07-29T11:06:41Z</time>
      </trkpt>
      <trkpt lat="47.96984" lon="6.74492">
        <ele>551.8</ele>
        <time>2022-07-29T11:06:42Z</time>
      </trkpt>
      <trkpt lat="47.96986" lon="6.7449">
        <ele>552</ele>
        <time>2022-07-29T11:06:43Z</time>
      </trkpt>
      <trkpt lat="47.96987" lon="6.74488">
        <ele>552.2</ele>
        <time>2022-07-29T11:06:44Z</time>
      </trkpt>
      <trkpt lat="47.96988" lon="6.74485">
        <ele>552.2</ele>
        <time>2022-07-29T11:06:45Z</time>
      </trkpt>
      <trkpt lat="47.9699" lon="6.74483">
        <ele>552.4</ele>
        <time>2022-07-29T11:06:46Z</time>
      </trkpt>
      <trkpt lat="47.96991" lon="6.74481">
        <ele>552.6</ele>
        <time>2022-07-29T11:06:47Z</time>
      </trkpt>
      <trkpt lat="47.96992" lon="6.74479">
        <ele>552.6</ele>
        <time>2022-07-29T11:06:48Z</time>
      </trkpt>
      <trkpt lat="47.96993" lon="6.74477">
        <ele>552.8</ele>
        <time>2022-07-29T11:06:49Z</time>
      </trkpt>
      <trkpt lat="47.96994" lon="6.74475">
        <ele>553</ele>
        <time>2022-07-29T11:06:50Z</time>
      </trkpt>
      <trkpt lat="47.96995" lon="6.74473">
        <ele>553.2</ele>
        <time>2022-07-29T11:06:51Z</time>
      </trkpt>
      <trkpt lat="47.96996" lon="6.74472">
        <ele>553.4</ele>
        <time>2022-07-29T11:06:52Z</time>
      </trkpt>
      <trkpt lat="47.96997" lon="6.7447">
        <ele>553.4</ele>
        <time>2022-07-29T11:06:53Z</time>
      </trkpt>
      <trkpt lat="47.96998" lon="6.74468">
        <ele>553.6</ele>
        <time>2022-07-29T11:06:54Z</time>
      </trkpt>
      <trkpt lat="47.96998" lon="6.74466">
        <ele>553.8</ele>
        <time>2022-07-29T11:06:55Z</time>
      </trkpt>
      <trkpt lat="47.96999" lon="6.74464">
        <ele>554</ele>
        <time>2022-07-29T11:06:56Z</time>
      </trkpt>
      <trkpt lat="47.97" lon="6.74461">
        <ele>554.2</ele>
        <time>2022-07-29T11:06:57Z</time>
      </trkpt>
      <trkpt lat="47.97002" lon="6.74459">
        <ele>554.2</ele>
        <time>2022-07-29T11:06:58Z</time>
      </trkpt>
      <trkpt lat="47.97003" lon="6.74456">
        <ele>554.4</ele>
        <time>2022-07-29T11:06:59Z</time>
      </trkpt>
      <trkpt lat="47.97004" lon="6.74454">
        <ele>554.6</ele>
        <time>2022-07-29T11:07:00Z</time>
      </trkpt>
      <trkpt lat="47.97005" lon="6.74452">
        <ele>554.6</ele>
        <time>2022-07-29T11:07:01Z</time>
      </trkpt>
      <trkpt lat="47.97006" lon="6.74449">
        <ele>554.8</ele>
        <time>2022-07-29T11:07:02Z</time>
      </trkpt>
      <trkpt lat="47.97008" lon="6.74447">
        <ele>555</ele>
        <time>2022-07-29T11:07:03Z</time>
      </trkpt>
      <trkpt lat="47.97009" lon="6.74445">
        <ele>555</ele>
        <time>2022-07-29T11:07:04Z</time>
      </trkpt>
      <trkpt lat="47.9701" lon="6.74442">
        <ele>555.2</ele>
        <time>2022-07-29T11:07:05Z</time>
      </trkpt>
      <trkpt lat="47.97012" lon="6.7444">
        <ele>555.2</ele>
        <time>2022-07-29T11:07:06Z</time>
      </trkpt>
      <trkpt lat="47.97013" lon="6.74438">
        <ele>555.4</ele>
        <time>2022-07-29T11:07:07Z</time>
      </trkpt>
      <trkpt lat="47.97014" lon="6.74436">
        <ele>555.6</ele>
        <time>2022-07-29T11:07:08Z</time>
      </trkpt>
      <trkpt lat="47.97015" lon="6.74434">
        <ele>555.8</ele>
        <time>2022-07-29T11:07:09Z</time>
      </trkpt>
      <trkpt lat="47.97016" lon="6.74432">
        <ele>555.8</ele>
        <time>2022-07-29T11:07:10Z</time>
      </trkpt>
      <trkpt lat="47.97018" lon="6.7443">
        <ele>556.2</ele>
        <time>2022-07-29T11:07:11Z</time>
      </trkpt>
      <trkpt lat="47.97019" lon="6.74428">
        <ele>556.2</ele>
        <time>2022-07-29T11:07:12Z</time>
      </trkpt>
      <trkpt lat="47.97021" lon="6.74427">
        <ele>556.6</ele>
        <time>2022-07-29T11:07:13Z</time>
      </trkpt>
      <trkpt lat="47.97023" lon="6.74425">
        <ele>556.6</ele>
        <time>2022-07-29T11:07:14Z</time>
      </trkpt>
      <trkpt lat="47.97025" lon="6.74423">
        <ele>557</ele>
        <time>2022-07-29T11:07:15Z</time>
      </trkpt>
      <trkpt lat="47.97026" lon="6.74421">
        <ele>557</ele>
        <time>2022-07-29T11:07:16Z</time>
      </trkpt>
      <trkpt lat="47.97028" lon="6.74419">
        <ele>557.4</ele>
        <time>2022-07-29T11:07:17Z</time>
      </trkpt>
      <trkpt lat="47.97029" lon="6.74417">
        <ele>557.4</ele>
        <time>2022-07-29T11:07:18Z</time>
      </trkpt>
      <trkpt lat="47.97031" lon="6.74415">
        <ele>557.6</ele>
        <time>2022-07-29T11:07:19Z</time>
      </trkpt>
      <trkpt lat="47.97032" lon="6.74413">
        <ele>557.6</ele>
        <time>2022-07-29T11:07:20Z</time>
      </trkpt>
      <trkpt lat="47.97034" lon="6.74411">
        <ele>557.8</ele>
        <time>2022-07-29T11:07:21Z</time>
      </trkpt>
      <trkpt lat="47.97035" lon="6.74409">
        <ele>558</ele>
        <time>2022-07-29T11:07:22Z</time>
      </trkpt>
      <trkpt lat="47.97037" lon="6.74408">
        <ele>558</ele>
        <time>2022-07-29T11:07:23Z</time>
      </trkpt>
      <trkpt lat="47.97039" lon="6.74407">
        <ele>558.2</ele>
        <time>2022-07-29T11:07:24Z</time>
      </trkpt>
      <trkpt lat="47.9704" lon="6.74405">
        <ele>558.4</ele>
        <time>2022-07-29T11:07:25Z</time>
      </trkpt>
      <trkpt lat="47.97042" lon="6.74404">
        <ele>558.6</ele>
        <time>2022-07-29T11:07:26Z</time>
      </trkpt>
      <trkpt lat="47.97043" lon="6.74402">
        <ele>558.8</ele>
        <time>2022-07-29T11:07:27Z</time>
      </trkpt>
      <trkpt lat="47.97045" lon="6.744">
        <ele>558.8</ele>
        <time>2022-07-29T11:07:28Z</time>
      </trkpt>
      <trkpt lat="47.97046" lon="6.74399">
        <ele>559</ele>
        <time>2022-07-29T11:07:29Z</time>
      </trkpt>
      <trkpt lat="47.97048" lon="6.74397">
        <ele>559.2</ele>
        <time>2022-07-29T11:07:30Z</time>
      </trkpt>
      <trkpt lat="47.97049" lon="6.74395">
        <ele>559.2</ele>
        <time>2022-07-29T11:07:31Z</time>
      </trkpt>
      <trkpt lat="47.97051" lon="6.74394">
        <ele>559.2</ele>
        <time>2022-07-29T11:07:32Z</time>
      </trkpt>
      <trkpt lat="47.97053" lon="6.74393">
        <ele>559.4</ele>
        <time>2022-07-29T11:07:33Z</time>
      </trkpt>
      <trkpt lat="47.97054" lon="6.74392">
        <ele>559.6</ele>
        <time>2022-07-29T11:07:34Z</time>
      </trkpt>
      <trkpt lat="47.97056" lon="6.7439">
        <ele>559.8</ele>
        <time>2022-07-29T11:07:35Z</time>
      </trkpt>
      <trkpt lat="47.97057" lon="6.74388">
        <ele>559.8</ele>
        <time>2022-07-29T11:07:36Z</time>
      </trkpt>
      <trkpt lat="47.97058" lon="6.74386">
        <ele>560</ele>
        <time>2022-07-29T11:07:37Z</time>
      </trkpt>
      <trkpt lat="47.97059" lon="6.74384">
        <ele>560.2</ele>
        <time>2022-07-29T11:07:38Z</time>
      </trkpt>
      <trkpt lat="47.97061" lon="6.74382">
        <ele>560.2</ele>
        <time>2022-07-29T11:07:39Z</time>
      </trkpt>
      <trkpt lat="47.97063" lon="6.74381">
        <ele>560.4</ele>
        <time>2022-07-29T11:07:40Z</time>
      </trkpt>
      <trkpt lat="47.97065" lon="6.74379">
        <ele>560.6</ele>
        <time>2022-07-29T11:07:41Z</time>
      </trkpt>
      <trkpt lat="47.97066" lon="6.74377">
        <ele>560.6</ele>
        <time>2022-07-29T11:07:42Z</time>
      </trkpt>
      <trkpt lat="47.97068" lon="6.74375">
        <ele>560.8</ele>
        <time>2022-07-29T11:07:43Z</time>
      </trkpt>
      <trkpt lat="47.9707" lon="6.74373">
        <ele>561</ele>
        <time>2022-07-29T11:07:44Z</time>
      </trkpt>
      <trkpt lat="47.97071" lon="6.74371">
        <ele>561.4</ele>
        <time>2022-07-29T11:07:45Z</time>
      </trkpt>
      <trkpt lat="47.97073" lon="6.7437">
        <ele>561.6</ele>
        <time>2022-07-29T11:07:46Z</time>
      </trkpt>
      <trkpt lat="47.97075" lon="6.74368">
        <ele>562</ele>
        <time>2022-07-29T11:07:47Z</time>
      </trkpt>
      <trkpt lat="47.97076" lon="6.74367">
        <ele>562</ele>
        <time>2022-07-29T11:07:48Z</time>
      </trkpt>
      <trkpt lat="47.97078" lon="6.74365">
        <ele>562.2</ele>
        <time>2022-07-29T11:07:49Z</time>
      </trkpt>
      <trkpt lat="47.9708" lon="6.74363">
        <ele>562.4</ele>
        <time>2022-07-29T11:07:50Z</time>
      </trkpt>
      <trkpt lat="47.97081" lon="6.74361">
        <ele>562.6</ele>
        <time>2022-07-29T11:07:51Z</time>
      </trkpt>
      <trkpt lat="47.97083" lon="6.7436">
        <ele>562.6</ele>
        <time>2022-07-29T11:07:52Z</time>
      </trkpt>
      <trkpt lat="47.97084" lon="6.74358">
        <ele>562.8</ele>
        <time>2022-07-29T11:07:53Z</time>
      </trkpt>
      <trkpt lat="47.97086" lon="6.74356">
        <ele>562.8</ele>
        <time>2022-07-29T11:07:54Z</time>
      </trkpt>
      <trkpt lat="47.97087" lon="6.74354">
        <ele>562.8</ele>
        <time>2022-07-29T11:07:55Z</time>
      </trkpt>
      <trkpt lat="47.97088" lon="6.74352">
        <ele>563</ele>
        <time>2022-07-29T11:07:56Z</time>
      </trkpt>
      <trkpt lat="47.97089" lon="6.7435">
        <ele>563</ele>
        <time>2022-07-29T11:07:57Z</time>
      </trkpt>
      <trkpt lat="47.97091" lon="6.74348">
        <ele>563.4</ele>
        <time>2022-07-29T11:07:58Z</time>
      </trkpt>
      <trkpt lat="47.97093" lon="6.74347">
        <ele>563.4</ele>
        <time>2022-07-29T11:07:59Z</time>
      </trkpt>
      <trkpt lat="47.97095" lon="6.74345">
        <ele>563.6</ele>
        <time>2022-07-29T11:08:00Z</time>
      </trkpt>
      <trkpt lat="47.97096" lon="6.74343">
        <ele>564</ele>
        <time>2022-07-29T11:08:01Z</time>
      </trkpt>
      <trkpt lat="47.97098" lon="6.74341">
        <ele>564</ele>
        <time>2022-07-29T11:08:02Z</time>
      </trkpt>
      <trkpt lat="47.971" lon="6.7434">
        <ele>564.2</ele>
        <time>2022-07-29T11:08:03Z</time>
      </trkpt>
      <trkpt lat="47.97101" lon="6.74338">
        <ele>564.4</ele>
        <time>2022-07-29T11:08:04Z</time>
      </trkpt>
      <trkpt lat="47.97103" lon="6.74336">
        <ele>564.6</ele>
        <time>2022-07-29T11:08:05Z</time>
      </trkpt>
      <trkpt lat="47.97105" lon="6.74334">
        <ele>564.6</ele>
        <time>2022-07-29T11:08:06Z</time>
      </trkpt>
      <trkpt lat="47.97106" lon="6.74332">
        <ele>564.8</ele>
        <time>2022-07-29T11:08:07Z</time>
      </trkpt>
      <trkpt lat="47.97108" lon="6.7433">
        <ele>565</ele>
        <time>2022-07-29T11:08:08Z</time>
      </trkpt>
      <trkpt lat="47.97109" lon="6.74329">
        <ele>565</ele>
        <time>2022-07-29T11:08:09Z</time>
      </trkpt>
      <trkpt lat="47.97111" lon="6.74327">
        <ele>565.2</ele>
        <time>2022-07-29T11:08:10Z</time>
      </trkpt>
      <trkpt lat="47.97112" lon="6.74325">
        <ele>565.2</ele>
        <time>2022-07-29T11:08:11Z</time>
      </trkpt>
      <trkpt lat="47.97114" lon="6.74323">
        <ele>565.6</ele>
        <time>2022-07-29T11:08:12Z</time>
      </trkpt>
      <trkpt lat="47.97116" lon="6.74321">
        <ele>565.8</ele>
        <time>2022-07-29T11:08:13Z</time>
      </trkpt>
      <trkpt lat="47.97117" lon="6.74319">
        <ele>566</ele>
        <time>2022-07-29T11:08:14Z</time>
      </trkpt>
      <trkpt lat="47.97119" lon="6.74317">
        <ele>566</ele>
        <time>2022-07-29T11:08:15Z</time>
      </trkpt>
      <trkpt lat="47.97121" lon="6.74315">
        <ele>566.2</ele>
        <time>2022-07-29T11:08:16Z</time>
      </trkpt>
      <trkpt lat="47.97122" lon="6.74314">
        <ele>566.2</ele>
        <time>2022-07-29T11:08:17Z</time>
      </trkpt>
      <trkpt lat="47.97124" lon="6.74312">
        <ele>566.4</ele>
        <time>2022-07-29T11:08:18Z</time>
      </trkpt>
      <trkpt lat="47.97126" lon="6.7431">
        <ele>566.4</ele>
        <time>2022-07-29T11:08:19Z</time>
      </trkpt>
      <trkpt lat="47.97128" lon="6.74308">
        <ele>566.6</ele>
        <time>2022-07-29T11:08:20Z</time>
      </trkpt>
      <trkpt lat="47.97129" lon="6.74307">
        <ele>566.6</ele>
        <time>2022-07-29T11:08:21Z</time>
      </trkpt>
      <trkpt lat="47.97131" lon="6.74305">
        <ele>566.8</ele>
        <time>2022-07-29T11:08:22Z</time>
      </trkpt>
      <trkpt lat="47.97132" lon="6.74303">
        <ele>567</ele>
        <time>2022-07-29T11:08:23Z</time>
      </trkpt>
      <trkpt lat="47.97134" lon="6.74301">
        <ele>567</ele>
        <time>2022-07-29T11:08:24Z</time>
      </trkpt>
      <trkpt lat="47.97135" lon="6.74299">
        <ele>567.2</ele>
        <time>2022-07-29T11:08:25Z</time>
      </trkpt>
      <trkpt lat="47.97137" lon="6.74297">
        <ele>567.4</ele>
        <time>2022-07-29T11:08:26Z</time>
      </trkpt>
      <trkpt lat="47.97138" lon="6.74295">
        <ele>567.4</ele>
        <time>2022-07-29T11:08:27Z</time>
      </trkpt>
      <trkpt lat="47.9714" lon="6.74293">
        <ele>567.8</ele>
        <time>2022-07-29T11:08:28Z</time>
      </trkpt>
      <trkpt lat="47.97141" lon="6.74291">
        <ele>567.8</ele>
        <time>2022-07-29T11:08:29Z</time>
      </trkpt>
      <trkpt lat="47.97143" lon="6.7429">
        <ele>568.2</ele>
        <time>2022-07-29T11:08:30Z</time>
      </trkpt>
      <trkpt lat="47.97145" lon="6.74288">
        <ele>568.2</ele>
        <time>2022-07-29T11:08:31Z</time>
      </trkpt>
      <trkpt lat="47.97146" lon="6.74287">
        <ele>568.2</ele>
        <time>2022-07-29T11:08:32Z</time>
      </trkpt>
      <trkpt lat="47.97148" lon="6.74286">
        <ele>568.2</ele>
        <time>2022-07-29T11:08:33Z</time>
      </trkpt>
      <trkpt lat="47.9715" lon="6.74284">
        <ele>568.4</ele>
        <time>2022-07-29T11:08:34Z</time>
      </trkpt>
      <trkpt lat="47.97152" lon="6.74283">
        <ele>568.8</ele>
        <time>2022-07-29T11:08:35Z</time>
      </trkpt>
      <trkpt lat="47.97154" lon="6.74282">
        <ele>569</ele>
        <time>2022-07-29T11:08:36Z</time>
      </trkpt>
      <trkpt lat="47.97155" lon="6.74282">
        <ele>569.2</ele>
        <time>2022-07-29T11:08:37Z</time>
      </trkpt>
      <trkpt lat="47.97157" lon="6.74281">
        <ele>569.2</ele>
        <time>2022-07-29T11:08:38Z</time>
      </trkpt>
      <trkpt lat="47.97159" lon="6.74281">
        <ele>569.4</ele>
        <time>2022-07-29T11:08:39Z</time>
      </trkpt>
      <trkpt lat="47.97161" lon="6.74281">
        <ele>569.4</ele>
        <time>2022-07-29T11:08:40Z</time>
      </trkpt>
      <trkpt lat="47.97163" lon="6.74282">
        <ele>569.4</ele>
        <time>2022-07-29T11:08:41Z</time>
      </trkpt>
      <trkpt lat="47.97165" lon="6.74284">
        <ele>569.6</ele>
        <time>2022-07-29T11:08:42Z</time>
      </trkpt>
      <trkpt lat="47.97167" lon="6.74285">
        <ele>569.6</ele>
        <time>2022-07-29T11:08:43Z</time>
      </trkpt>
      <trkpt lat="47.97168" lon="6.74286">
        <ele>569.8</ele>
        <time>2022-07-29T11:08:44Z</time>
      </trkpt>
      <trkpt lat="47.9717" lon="6.74288">
        <ele>570</ele>
        <time>2022-07-29T11:08:45Z</time>
      </trkpt>
      <trkpt lat="47.9717" lon="6.7429">
        <ele>570.2</ele>
        <time>2022-07-29T11:08:46Z</time>
      </trkpt>
      <trkpt lat="47.97171" lon="6.74292">
        <ele>570.4</ele>
        <time>2022-07-29T11:08:47Z</time>
      </trkpt>
      <trkpt lat="47.97172" lon="6.74294">
        <ele>570.6</ele>
        <time>2022-07-29T11:08:48Z</time>
      </trkpt>
      <trkpt lat="47.97173" lon="6.74296">
        <ele>570.6</ele>
        <time>2022-07-29T11:08:49Z</time>
      </trkpt>
      <trkpt lat="47.97174" lon="6.74299">
        <ele>570.8</ele>
        <time>2022-07-29T11:08:50Z</time>
      </trkpt>
      <trkpt lat="47.97174" lon="6.74301">
        <ele>571</ele>
        <time>2022-07-29T11:08:51Z</time>
      </trkpt>
      <trkpt lat="47.97174" lon="6.74303">
        <ele>571.2</ele>
        <time>2022-07-29T11:08:52Z</time>
      </trkpt>
      <trkpt lat="47.97173" lon="6.74306">
        <ele>571.4</ele>
        <time>2022-07-29T11:08:53Z</time>
      </trkpt>
      <trkpt lat="47.97173" lon="6.74308">
        <ele>571.6</ele>
        <time>2022-07-29T11:08:54Z</time>
      </trkpt>
      <trkpt lat="47.97173" lon="6.74311">
        <ele>572</ele>
        <time>2022-07-29T11:08:55Z</time>
      </trkpt>
      <trkpt lat="47.97172" lon="6.74313">
        <ele>572.2</ele>
        <time>2022-07-29T11:08:56Z</time>
      </trkpt>
      <trkpt lat="47.97172" lon="6.74315">
        <ele>572.6</ele>
        <time>2022-07-29T11:08:57Z</time>
      </trkpt>
      <trkpt lat="47.97172" lon="6.74318">
        <ele>572.8</ele>
        <time>2022-07-29T11:08:58Z</time>
      </trkpt>
      <trkpt lat="47.97171" lon="6.7432">
        <ele>573</ele>
        <time>2022-07-29T11:08:59Z</time>
      </trkpt>
      <trkpt lat="47.9717" lon="6.74322">
        <ele>573</ele>
        <time>2022-07-29T11:09:00Z</time>
      </trkpt>
      <trkpt lat="47.9717" lon="6.74324">
        <ele>573.6</ele>
        <time>2022-07-29T11:09:01Z</time>
      </trkpt>
      <trkpt lat="47.97169" lon="6.74327">
        <ele>573.8</ele>
        <time>2022-07-29T11:09:02Z</time>
      </trkpt>
      <trkpt lat="47.97168" lon="6.74329">
        <ele>574</ele>
        <time>2022-07-29T11:09:03Z</time>
      </trkpt>
      <trkpt lat="47.97168" lon="6.74331">
        <ele>574.2</ele>
        <time>2022-07-29T11:09:04Z</time>
      </trkpt>
      <trkpt lat="47.97167" lon="6.74334">
        <ele>574.4</ele>
        <time>2022-07-29T11:09:05Z</time>
      </trkpt>
      <trkpt lat="47.97166" lon="6.74336">
        <ele>574.6</ele>
        <time>2022-07-29T11:09:06Z</time>
      </trkpt>
      <trkpt lat="47.97165" lon="6.74338">
        <ele>574.8</ele>
        <time>2022-07-29T11:09:07Z</time>
      </trkpt>
      <trkpt lat="47.97165" lon="6.74341">
        <ele>574.8</ele>
        <time>2022-07-29T11:09:08Z</time>
      </trkpt>
      <trkpt lat="47.97164" lon="6.74343">
        <ele>575</ele>
        <time>2022-07-29T11:09:09Z</time>
      </trkpt>
      <trkpt lat="47.97163" lon="6.74346">
        <ele>575.4</ele>
        <time>2022-07-29T11:09:10Z</time>
      </trkpt>
      <trkpt lat="47.97162" lon="6.74348">
        <ele>575.6</ele>
        <time>2022-07-29T11:09:11Z</time>
      </trkpt>
      <trkpt lat="47.97162" lon="6.7435">
        <ele>575.8</ele>
        <time>2022-07-29T11:09:12Z</time>
      </trkpt>
      <trkpt lat="47.97161" lon="6.74353">
        <ele>576.2</ele>
        <time>2022-07-29T11:09:13Z</time>
      </trkpt>
      <trkpt lat="47.9716" lon="6.74355">
        <ele>576.4</ele>
        <time>2022-07-29T11:09:14Z</time>
      </trkpt>
      <trkpt lat="47.97159" lon="6.74357">
        <ele>576.6</ele>
        <time>2022-07-29T11:09:15Z</time>
      </trkpt>
      <trkpt lat="47.97159" lon="6.74359">
        <ele>576.8</ele>
        <time>2022-07-29T11:09:16Z</time>
      </trkpt>
      <trkpt lat="47.97158" lon="6.74361">
        <ele>577</ele>
        <time>2022-07-29T11:09:17Z</time>
      </trkpt>
      <trkpt lat="47.97157" lon="6.74363">
        <ele>577.2</ele>
        <time>2022-07-29T11:09:18Z</time>
      </trkpt>
      <trkpt lat="47.97156" lon="6.74365">
        <ele>577.4</ele>
        <time>2022-07-29T11:09:19Z</time>
      </trkpt>
      <trkpt lat="47.97156" lon="6.74367">
        <ele>577.8</ele>
        <time>2022-07-29T11:09:20Z</time>
      </trkpt>
      <trkpt lat="47.97155" lon="6.74369">
        <ele>578</ele>
        <time>2022-07-29T11:09:21Z</time>
      </trkpt>
      <trkpt lat="47.97154" lon="6.74371">
        <ele>578.2</ele>
        <time>2022-07-29T11:09:22Z</time>
      </trkpt>
      <trkpt lat="47.97153" lon="6.74373">
        <ele>578.2</ele>
        <time>2022-07-29T11:09:23Z</time>
      </trkpt>
      <trkpt lat="47.97153" lon="6.74375">
        <ele>578.6</ele>
        <time>2022-07-29T11:09:24Z</time>
      </trkpt>
      <trkpt lat="47.97152" lon="6.74378">
        <ele>578.6</ele>
        <time>2022-07-29T11:09:25Z</time>
      </trkpt>
      <trkpt lat="47.97152" lon="6.7438">
        <ele>578.8</ele>
        <time>2022-07-29T11:09:26Z</time>
      </trkpt>
      <trkpt lat="47.97151" lon="6.74383">
        <ele>579</ele>
        <time>2022-07-29T11:09:27Z</time>
      </trkpt>
      <trkpt lat="47.97151" lon="6.74385">
        <ele>579.2</ele>
        <time>2022-07-29T11:09:28Z</time>
      </trkpt>
      <trkpt lat="47.9715" lon="6.74387">
        <ele>579.4</ele>
        <time>2022-07-29T11:09:29Z</time>
      </trkpt>
      <trkpt lat="47.97149" lon="6.7439">
        <ele>579.6</ele>
        <time>2022-07-29T11:09:30Z</time>
      </trkpt>
      <trkpt lat="47.97149" lon="6.74392">
        <ele>579.8</ele>
        <time>2022-07-29T11:09:31Z</time>
      </trkpt>
      <trkpt lat="47.97148" lon="6.74394">
        <ele>580</ele>
        <time>2022-07-29T11:09:32Z</time>
      </trkpt>
      <trkpt lat="47.97147" lon="6.74397">
        <ele>580.4</ele>
        <time>2022-07-29T11:09:33Z</time>
      </trkpt>
      <trkpt lat="47.97147" lon="6.74399">
        <ele>580.4</ele>
        <time>2022-07-29T11:09:34Z</time>
      </trkpt>
      <trkpt lat="47.97146" lon="6.74401">
        <ele>580.8</ele>
        <time>2022-07-29T11:09:35Z</time>
      </trkpt>
      <trkpt lat="47.97145" lon="6.74403">
        <ele>581</ele>
        <time>2022-07-29T11:09:36Z</time>
      </trkpt>
      <trkpt lat="47.97145" lon="6.74406">
        <ele>581.2</ele>
        <time>2022-07-29T11:09:37Z</time>
      </trkpt>
      <trkpt lat="47.97144" lon="6.74408">
        <ele>581.6</ele>
        <time>2022-07-29T11:09:38Z</time>
      </trkpt>
      <trkpt lat="47.97144" lon="6.7441">
        <ele>581.8</ele>
        <time>2022-07-29T11:09:39Z</time>
      </trkpt>
      <trkpt lat="47.97143" lon="6.74412">
        <ele>581.8</ele>
        <time>2022-07-29T11:09:40Z</time>
      </trkpt>
      <trkpt lat="47.97142" lon="6.74414">
        <ele>582</ele>
        <time>2022-07-29T11:09:41Z</time>
      </trkpt>
      <trkpt lat="47.97141" lon="6.74416">
        <ele>582.2</ele>
        <time>2022-07-29T11:09:42Z</time>
      </trkpt>
      <trkpt lat="47.9714" lon="6.74419">
        <ele>582.2</ele>
        <time>2022-07-29T11:09:43Z</time>
      </trkpt>
      <trkpt lat="47.9714" lon="6.74421">
        <ele>582.4</ele>
        <time>2022-07-29T11:09:44Z</time>
      </trkpt>
      <trkpt lat="47.97139" lon="6.74423">
        <ele>582.6</ele>
        <time>2022-07-29T11:09:45Z</time>
      </trkpt>
      <trkpt lat="47.97139" lon="6.74426">
        <ele>582.6</ele>
        <time>2022-07-29T11:09:46Z</time>
      </trkpt>
      <trkpt lat="47.97138" lon="6.74428">
        <ele>583</ele>
        <time>2022-07-29T11:09:47Z</time>
      </trkpt>
      <trkpt lat="47.97138" lon="6.74431">
        <ele>583.2</ele>
        <time>2022-07-29T11:09:48Z</time>
      </trkpt>
      <trkpt lat="47.97137" lon="6.74433">
        <ele>583.4</ele>
        <time>2022-07-29T11:09:49Z</time>
      </trkpt>
      <trkpt lat="47.97137" lon="6.74435">
        <ele>583.6</ele>
        <time>2022-07-29T11:09:50Z</time>
      </trkpt>
      <trkpt lat="47.97136" lon="6.74438">
        <ele>583.8</ele>
        <time>2022-07-29T11:09:51Z</time>
      </trkpt>
      <trkpt lat="47.97135" lon="6.7444">
        <ele>584</ele>
        <time>2022-07-29T11:09:52Z</time>
      </trkpt>
      <trkpt lat="47.97135" lon="6.74443">
        <ele>584.2</ele>
        <time>2022-07-29T11:09:53Z</time>
      </trkpt>
      <trkpt lat="47.97134" lon="6.74445">
        <ele>584.2</ele>
        <time>2022-07-29T11:09:54Z</time>
      </trkpt>
      <trkpt lat="47.97133" lon="6.74447">
        <ele>584.4</ele>
        <time>2022-07-29T11:09:55Z</time>
      </trkpt>
      <trkpt lat="47.97133" lon="6.7445">
        <ele>584.6</ele>
        <time>2022-07-29T11:09:56Z</time>
      </trkpt>
      <trkpt lat="47.97132" lon="6.74451">
        <ele>584.6</ele>
        <time>2022-07-29T11:09:57Z</time>
      </trkpt>
      <trkpt lat="47.97131" lon="6.74453">
        <ele>585</ele>
        <time>2022-07-29T11:09:58Z</time>
      </trkpt>
      <trkpt lat="47.97131" lon="6.74455">
        <ele>585</ele>
        <time>2022-07-29T11:09:59Z</time>
      </trkpt>
      <trkpt lat="47.9713" lon="6.74458">
        <ele>585.4</ele>
        <time>2022-07-29T11:10:00Z</time>
      </trkpt>
      <trkpt lat="47.97129" lon="6.7446">
        <ele>585.4</ele>
        <time>2022-07-29T11:10:01Z</time>
      </trkpt>
      <trkpt lat="47.97128" lon="6.74463">
        <ele>585.6</ele>
        <time>2022-07-29T11:10:02Z</time>
      </trkpt>
      <trkpt lat="47.97128" lon="6.74466">
        <ele>585.8</ele>
        <time>2022-07-29T11:10:03Z</time>
      </trkpt>
      <trkpt lat="47.97127" lon="6.74468">
        <ele>586</ele>
        <time>2022-07-29T11:10:04Z</time>
      </trkpt>
      <trkpt lat="47.97126" lon="6.7447">
        <ele>586.2</ele>
        <time>2022-07-29T11:10:05Z</time>
      </trkpt>
      <trkpt lat="47.97126" lon="6.74473">
        <ele>586.4</ele>
        <time>2022-07-29T11:10:06Z</time>
      </trkpt>
      <trkpt lat="47.97125" lon="6.74475">
        <ele>586.4</ele>
        <time>2022-07-29T11:10:07Z</time>
      </trkpt>
      <trkpt lat="47.97124" lon="6.74478">
        <ele>586.6</ele>
        <time>2022-07-29T11:10:08Z</time>
      </trkpt>
      <trkpt lat="47.97123" lon="6.7448">
        <ele>586.8</ele>
        <time>2022-07-29T11:10:09Z</time>
      </trkpt>
      <trkpt lat="47.97122" lon="6.74482">
        <ele>587</ele>
        <time>2022-07-29T11:10:10Z</time>
      </trkpt>
      <trkpt lat="47.97121" lon="6.74484">
        <ele>587</ele>
        <time>2022-07-29T11:10:11Z</time>
      </trkpt>
      <trkpt lat="47.9712" lon="6.74486">
        <ele>587.2</ele>
        <time>2022-07-29T11:10:12Z</time>
      </trkpt>
      <trkpt lat="47.97119" lon="6.74489">
        <ele>587.2</ele>
        <time>2022-07-29T11:10:13Z</time>
      </trkpt>
      <trkpt lat="47.97118" lon="6.74491">
        <ele>587.4</ele>
        <time>2022-07-29T11:10:14Z</time>
      </trkpt>
      <trkpt lat="47.97117" lon="6.74493">
        <ele>587.4</ele>
        <time>2022-07-29T11:10:15Z</time>
      </trkpt>
      <trkpt lat="47.97116" lon="6.74496">
        <ele>587.8</ele>
        <time>2022-07-29T11:10:16Z</time>
      </trkpt>
      <trkpt lat="47.97116" lon="6.74498">
        <ele>587.8</ele>
        <time>2022-07-29T11:10:17Z</time>
      </trkpt>
      <trkpt lat="47.97115" lon="6.74501">
        <ele>588</ele>
        <time>2022-07-29T11:10:18Z</time>
      </trkpt>
      <trkpt lat="47.97114" lon="6.74503">
        <ele>588</ele>
        <time>2022-07-29T11:10:19Z</time>
      </trkpt>
      <trkpt lat="47.97113" lon="6.74505">
        <ele>588.4</ele>
        <time>2022-07-29T11:10:20Z</time>
      </trkpt>
      <trkpt lat="47.97113" lon="6.74508">
        <ele>588.6</ele>
        <time>2022-07-29T11:10:21Z</time>
      </trkpt>
      <trkpt lat="47.97112" lon="6.7451">
        <ele>588.6</ele>
        <time>2022-07-29T11:10:22Z</time>
      </trkpt>
      <trkpt lat="47.97111" lon="6.74512">
        <ele>588.8</ele>
        <time>2022-07-29T11:10:23Z</time>
      </trkpt>
      <trkpt lat="47.9711" lon="6.74514">
        <ele>588.8</ele>
        <time>2022-07-29T11:10:24Z</time>
      </trkpt>
      <trkpt lat="47.97109" lon="6.74517">
        <ele>589</ele>
        <time>2022-07-29T11:10:25Z</time>
      </trkpt>
      <trkpt lat="47.97108" lon="6.74519">
        <ele>589.2</ele>
        <time>2022-07-29T11:10:26Z</time>
      </trkpt>
      <trkpt lat="47.97108" lon="6.74522">
        <ele>589.4</ele>
        <time>2022-07-29T11:10:27Z</time>
      </trkpt>
      <trkpt lat="47.97107" lon="6.74524">
        <ele>589.4</ele>
        <time>2022-07-29T11:10:28Z</time>
      </trkpt>
      <trkpt lat="47.97106" lon="6.74527">
        <ele>589.6</ele>
        <time>2022-07-29T11:10:29Z</time>
      </trkpt>
      <trkpt lat="47.97105" lon="6.74529">
        <ele>589.8</ele>
        <time>2022-07-29T11:10:30Z</time>
      </trkpt>
      <trkpt lat="47.97104" lon="6.74531">
        <ele>589.8</ele>
        <time>2022-07-29T11:10:31Z</time>
      </trkpt>
      <trkpt lat="47.97104" lon="6.74533">
        <ele>590</ele>
        <time>2022-07-29T11:10:32Z</time>
      </trkpt>
      <trkpt lat="47.97103" lon="6.74535">
        <ele>590.2</ele>
        <time>2022-07-29T11:10:33Z</time>
      </trkpt>
      <trkpt lat="47.97102" lon="6.74538">
        <ele>590.4</ele>
        <time>2022-07-29T11:10:34Z</time>
      </trkpt>
      <trkpt lat="47.97102" lon="6.7454">
        <ele>590.4</ele>
        <time>2022-07-29T11:10:35Z</time>
      </trkpt>
      <trkpt lat="47.97101" lon="6.74542">
        <ele>590.6</ele>
        <time>2022-07-29T11:10:36Z</time>
      </trkpt>
      <trkpt lat="47.971" lon="6.74544">
        <ele>590.6</ele>
        <time>2022-07-29T11:10:37Z</time>
      </trkpt>
      <trkpt lat="47.97099" lon="6.74547">
        <ele>590.8</ele>
        <time>2022-07-29T11:10:38Z</time>
      </trkpt>
      <trkpt lat="47.97098" lon="6.74549">
        <ele>590.8</ele>
        <time>2022-07-29T11:10:39Z</time>
      </trkpt>
      <trkpt lat="47.97097" lon="6.74551">
        <ele>591</ele>
        <time>2022-07-29T11:10:40Z</time>
      </trkpt>
      <trkpt lat="47.97096" lon="6.74554">
        <ele>591.2</ele>
        <time>2022-07-29T11:10:41Z</time>
      </trkpt>
      <trkpt lat="47.97095" lon="6.74556">
        <ele>591.4</ele>
        <time>2022-07-29T11:10:42Z</time>
      </trkpt>
      <trkpt lat="47.97094" lon="6.74558">
        <ele>591.4</ele>
        <time>2022-07-29T11:10:43Z</time>
      </trkpt>
      <trkpt lat="47.97093" lon="6.74561">
        <ele>591.6</ele>
        <time>2022-07-29T11:10:44Z</time>
      </trkpt>
      <trkpt lat="47.97092" lon="6.74563">
        <ele>591.6</ele>
        <time>2022-07-29T11:10:45Z</time>
      </trkpt>
      <trkpt lat="47.97092" lon="6.74565">
        <ele>591.8</ele>
        <time>2022-07-29T11:10:46Z</time>
      </trkpt>
      <trkpt lat="47.97091" lon="6.74567">
        <ele>592</ele>
        <time>2022-07-29T11:10:47Z</time>
      </trkpt>
      <trkpt lat="47.9709" lon="6.74569">
        <ele>592</ele>
        <time>2022-07-29T11:10:48Z</time>
      </trkpt>
      <trkpt lat="47.97089" lon="6.74572">
        <ele>592.4</ele>
        <time>2022-07-29T11:10:49Z</time>
      </trkpt>
      <trkpt lat="47.97088" lon="6.74574">
        <ele>592.8</ele>
        <time>2022-07-29T11:10:50Z</time>
      </trkpt>
      <trkpt lat="47.97087" lon="6.74577">
        <ele>592.8</ele>
        <time>2022-07-29T11:10:51Z</time>
      </trkpt>
      <trkpt lat="47.97087" lon="6.7458">
        <ele>593</ele>
        <time>2022-07-29T11:10:52Z</time>
      </trkpt>
      <trkpt lat="47.97087" lon="6.74583">
        <ele>593.2</ele>
        <time>2022-07-29T11:10:53Z</time>
      </trkpt>
      <trkpt lat="47.97087" lon="6.74585">
        <ele>593.2</ele>
        <time>2022-07-29T11:10:54Z</time>
      </trkpt>
      <trkpt lat="47.97087" lon="6.74588">
        <ele>593.4</ele>
        <time>2022-07-29T11:10:55Z</time>
      </trkpt>
      <trkpt lat="47.97087" lon="6.74591">
        <ele>593.6</ele>
        <time>2022-07-29T11:10:56Z</time>
      </trkpt>
      <trkpt lat="47.97087" lon="6.74593">
        <ele>593.6</ele>
        <time>2022-07-29T11:10:57Z</time>
      </trkpt>
      <trkpt lat="47.97088" lon="6.74595">
        <ele>593.8</ele>
        <time>2022-07-29T11:10:58Z</time>
      </trkpt>
      <trkpt lat="47.97088" lon="6.74597">
        <ele>594.2</ele>
        <time>2022-07-29T11:10:59Z</time>
      </trkpt>
      <trkpt lat="47.9709" lon="6.746">
        <ele>594.2</ele>
        <time>2022-07-29T11:11:00Z</time>
      </trkpt>
      <trkpt lat="47.97091" lon="6.74602">
        <ele>594.4</ele>
        <time>2022-07-29T11:11:01Z</time>
      </trkpt>
      <trkpt lat="47.97093" lon="6.74603">
        <ele>594.6</ele>
        <time>2022-07-29T11:11:02Z</time>
      </trkpt>
      <trkpt lat="47.97094" lon="6.74605">
        <ele>594.8</ele>
        <time>2022-07-29T11:11:03Z</time>
      </trkpt>
      <trkpt lat="47.97096" lon="6.74605">
        <ele>595</ele>
        <time>2022-07-29T11:11:04Z</time>
      </trkpt>
      <trkpt lat="47.97097" lon="6.74604">
        <ele>595.4</ele>
        <time>2022-07-29T11:11:05Z</time>
      </trkpt>
      <trkpt lat="47.97099" lon="6.74604">
        <ele>595.6</ele>
        <time>2022-07-29T11:11:06Z</time>
      </trkpt>
      <trkpt lat="47.97101" lon="6.74603">
        <ele>595.6</ele>
        <time>2022-07-29T11:11:07Z</time>
      </trkpt>
      <trkpt lat="47.97102" lon="6.74601">
        <ele>595.8</ele>
        <time>2022-07-29T11:11:08Z</time>
      </trkpt>
      <trkpt lat="47.97104" lon="6.746">
        <ele>595.8</ele>
        <time>2022-07-29T11:11:09Z</time>
      </trkpt>
      <trkpt lat="47.97105" lon="6.74597">
        <ele>595.8</ele>
        <time>2022-07-29T11:11:10Z</time>
      </trkpt>
      <trkpt lat="47.97106" lon="6.74595">
        <ele>596</ele>
        <time>2022-07-29T11:11:11Z</time>
      </trkpt>
      <trkpt lat="47.97107" lon="6.74593">
        <ele>596.2</ele>
        <time>2022-07-29T11:11:12Z</time>
      </trkpt>
      <trkpt lat="47.97108" lon="6.74591">
        <ele>596.4</ele>
        <time>2022-07-29T11:11:13Z</time>
      </trkpt>
      <trkpt lat="47.97109" lon="6.74589">
        <ele>596.6</ele>
        <time>2022-07-29T11:11:14Z</time>
      </trkpt>
      <trkpt lat="47.9711" lon="6.74586">
        <ele>596.8</ele>
        <time>2022-07-29T11:11:15Z</time>
      </trkpt>
      <trkpt lat="47.97111" lon="6.74584">
        <ele>597</ele>
        <time>2022-07-29T11:11:16Z</time>
      </trkpt>
      <trkpt lat="47.97112" lon="6.74582">
        <ele>597.2</ele>
        <time>2022-07-29T11:11:17Z</time>
      </trkpt>
      <trkpt lat="47.97113" lon="6.7458">
        <ele>597.4</ele>
        <time>2022-07-29T11:11:18Z</time>
      </trkpt>
      <trkpt lat="47.97114" lon="6.74577">
        <ele>597.6</ele>
        <time>2022-07-29T11:11:19Z</time>
      </trkpt>
      <trkpt lat="47.97115" lon="6.74575">
        <ele>597.8</ele>
        <time>2022-07-29T11:11:20Z</time>
      </trkpt>
      <trkpt lat="47.97116" lon="6.74573">
        <ele>598.2</ele>
        <time>2022-07-29T11:11:21Z</time>
      </trkpt>
      <trkpt lat="47.97117" lon="6.7457">
        <ele>598.2</ele>
        <time>2022-07-29T11:11:22Z</time>
      </trkpt>
      <trkpt lat="47.97118" lon="6.74568">
        <ele>598.4</ele>
        <time>2022-07-29T11:11:23Z</time>
      </trkpt>
      <trkpt lat="47.97119" lon="6.74565">
        <ele>598.4</ele>
        <time>2022-07-29T11:11:24Z</time>
      </trkpt>
      <trkpt lat="47.9712" lon="6.74563">
        <ele>598.6</ele>
        <time>2022-07-29T11:11:25Z</time>
      </trkpt>
      <trkpt lat="47.97121" lon="6.74561">
        <ele>598.8</ele>
        <time>2022-07-29T11:11:26Z</time>
      </trkpt>
      <trkpt lat="47.97122" lon="6.74558">
        <ele>598.8</ele>
        <time>2022-07-29T11:11:27Z</time>
      </trkpt>
      <trkpt lat="47.97123" lon="6.74556">
        <ele>599</ele>
        <time>2022-07-29T11:11:28Z</time>
      </trkpt>
      <trkpt lat="47.97124" lon="6.74554">
        <ele>599.2</ele>
        <time>2022-07-29T11:11:29Z</time>
      </trkpt>
      <trkpt lat="47.97125" lon="6.74551">
        <ele>599.4</ele>
        <time>2022-07-29T11:11:30Z</time>
      </trkpt>
      <trkpt lat="47.97125" lon="6.74548">
        <ele>599.6</ele>
        <time>2022-07-29T11:11:31Z</time>
      </trkpt>
      <trkpt lat="47.97126" lon="6.74546">
        <ele>599.8</ele>
        <time>2022-07-29T11:11:32Z</time>
      </trkpt>
      <trkpt lat="47.97127" lon="6.74543">
        <ele>600.2</ele>
        <time>2022-07-29T11:11:33Z</time>
      </trkpt>
      <trkpt lat="47.97128" lon="6.74541">
        <ele>600.2</ele>
        <time>2022-07-29T11:11:34Z</time>
      </trkpt>
      <trkpt lat="47.9713" lon="6.74538">
        <ele>600.6</ele>
        <time>2022-07-29T11:11:35Z</time>
      </trkpt>
      <trkpt lat="47.97131" lon="6.74536">
        <ele>600.6</ele>
        <time>2022-07-29T11:11:36Z</time>
      </trkpt>
      <trkpt lat="47.97132" lon="6.74533">
        <ele>600.8</ele>
        <time>2022-07-29T11:11:37Z</time>
      </trkpt>
      <trkpt lat="47.97133" lon="6.7453">
        <ele>601</ele>
        <time>2022-07-29T11:11:38Z</time>
      </trkpt>
      <trkpt lat="47.97134" lon="6.74528">
        <ele>601.2</ele>
        <time>2022-07-29T11:11:39Z</time>
      </trkpt>
      <trkpt lat="47.97136" lon="6.74526">
        <ele>601.2</ele>
        <time>2022-07-29T11:11:40Z</time>
      </trkpt>
      <trkpt lat="47.97137" lon="6.74524">
        <ele>601.4</ele>
        <time>2022-07-29T11:11:41Z</time>
      </trkpt>
      <trkpt lat="47.97139" lon="6.74521">
        <ele>601.6</ele>
        <time>2022-07-29T11:11:42Z</time>
      </trkpt>
      <trkpt lat="47.97141" lon="6.74519">
        <ele>601.8</ele>
        <time>2022-07-29T11:11:43Z</time>
      </trkpt>
      <trkpt lat="47.97142" lon="6.74517">
        <ele>602</ele>
        <time>2022-07-29T11:11:44Z</time>
      </trkpt>
      <trkpt lat="47.97144" lon="6.74514">
        <ele>602</ele>
        <time>2022-07-29T11:11:45Z</time>
      </trkpt>
      <trkpt lat="47.97145" lon="6.74512">
        <ele>602</ele>
        <time>2022-07-29T11:11:46Z</time>
      </trkpt>
      <trkpt lat="47.97147" lon="6.7451">
        <ele>602.2</ele>
        <time>2022-07-29T11:11:47Z</time>
      </trkpt>
      <trkpt lat="47.97148" lon="6.74508">
        <ele>602.2</ele>
        <time>2022-07-29T11:11:48Z</time>
      </trkpt>
      <trkpt lat="47.9715" lon="6.74506">
        <ele>602.4</ele>
        <time>2022-07-29T11:11:49Z</time>
      </trkpt>
      <trkpt lat="47.97151" lon="6.74504">
        <ele>602.6</ele>
        <time>2022-07-29T11:11:50Z</time>
      </trkpt>
      <trkpt lat="47.97152" lon="6.74501">
        <ele>602.6</ele>
        <time>2022-07-29T11:11:51Z</time>
      </trkpt>
      <trkpt lat="47.97153" lon="6.74499">
        <ele>602.8</ele>
        <time>2022-07-29T11:11:52Z</time>
      </trkpt>
      <trkpt lat="47.97155" lon="6.74497">
        <ele>602.8</ele>
        <time>2022-07-29T11:11:53Z</time>
      </trkpt>
      <trkpt lat="47.97156" lon="6.74495">
        <ele>603</ele>
        <time>2022-07-29T11:11:54Z</time>
      </trkpt>
      <trkpt lat="47.97158" lon="6.74493">
        <ele>603.2</ele>
        <time>2022-07-29T11:11:55Z</time>
      </trkpt>
      <trkpt lat="47.97159" lon="6.74491">
        <ele>603.2</ele>
        <time>2022-07-29T11:11:56Z</time>
      </trkpt>
      <trkpt lat="47.97161" lon="6.74489">
        <ele>603.4</ele>
        <time>2022-07-29T11:11:57Z</time>
      </trkpt>
      <trkpt lat="47.97163" lon="6.74487">
        <ele>603.4</ele>
        <time>2022-07-29T11:11:58Z</time>
      </trkpt>
      <trkpt lat="47.97164" lon="6.74485">
        <ele>603.6</ele>
        <time>2022-07-29T11:11:59Z</time>
      </trkpt>
      <trkpt lat="47.97165" lon="6.74483">
        <ele>603.8</ele>
        <time>2022-07-29T11:12:00Z</time>
      </trkpt>
      <trkpt lat="47.97167" lon="6.7448">
        <ele>604</ele>
        <time>2022-07-29T11:12:01Z</time>
      </trkpt>
      <trkpt lat="47.97168" lon="6.74478">
        <ele>604.2</ele>
        <time>2022-07-29T11:12:02Z</time>
      </trkpt>
      <trkpt lat="47.9717" lon="6.74476">
        <ele>604.2</ele>
        <time>2022-07-29T11:12:03Z</time>
      </trkpt>
      <trkpt lat="47.97171" lon="6.74474">
        <ele>604.4</ele>
        <time>2022-07-29T11:12:04Z</time>
      </trkpt>
      <trkpt lat="47.97173" lon="6.74472">
        <ele>604.4</ele>
        <time>2022-07-29T11:12:05Z</time>
      </trkpt>
      <trkpt lat="47.97174" lon="6.7447">
        <ele>604.6</ele>
        <time>2022-07-29T11:12:06Z</time>
      </trkpt>
      <trkpt lat="47.97176" lon="6.74468">
        <ele>604.6</ele>
        <time>2022-07-29T11:12:07Z</time>
      </trkpt>
      <trkpt lat="47.97177" lon="6.74466">
        <ele>604.8</ele>
        <time>2022-07-29T11:12:08Z</time>
      </trkpt>
      <trkpt lat="47.97179" lon="6.74464">
        <ele>605</ele>
        <time>2022-07-29T11:12:09Z</time>
      </trkpt>
      <trkpt lat="47.9718" lon="6.74462">
        <ele>605</ele>
        <time>2022-07-29T11:12:10Z</time>
      </trkpt>
      <trkpt lat="47.97182" lon="6.7446">
        <ele>605.2</ele>
        <time>2022-07-29T11:12:11Z</time>
      </trkpt>
      <trkpt lat="47.97183" lon="6.74458">
        <ele>605.4</ele>
        <time>2022-07-29T11:12:12Z</time>
      </trkpt>
      <trkpt lat="47.97184" lon="6.74456">
        <ele>605.6</ele>
        <time>2022-07-29T11:12:13Z</time>
      </trkpt>
      <trkpt lat="47.97186" lon="6.74454">
        <ele>605.6</ele>
        <time>2022-07-29T11:12:14Z</time>
      </trkpt>
      <trkpt lat="47.97187" lon="6.74452">
        <ele>606</ele>
        <time>2022-07-29T11:12:15Z</time>
      </trkpt>
      <trkpt lat="47.97188" lon="6.74449">
        <ele>606.2</ele>
        <time>2022-07-29T11:12:16Z</time>
      </trkpt>
      <trkpt lat="47.9719" lon="6.74447">
        <ele>606.4</ele>
        <time>2022-07-29T11:12:17Z</time>
      </trkpt>
      <trkpt lat="47.97191" lon="6.74445">
        <ele>606.4</ele>
        <time>2022-07-29T11:12:18Z</time>
      </trkpt>
      <trkpt lat="47.97193" lon="6.74443">
        <ele>606.6</ele>
        <time>2022-07-29T11:12:19Z</time>
      </trkpt>
      <trkpt lat="47.97194" lon="6.74442">
        <ele>606.6</ele>
        <time>2022-07-29T11:12:20Z</time>
      </trkpt>
      <trkpt lat="47.97196" lon="6.7444">
        <ele>606.8</ele>
        <time>2022-07-29T11:12:21Z</time>
      </trkpt>
      <trkpt lat="47.97197" lon="6.74438">
        <ele>607</ele>
        <time>2022-07-29T11:12:22Z</time>
      </trkpt>
      <trkpt lat="47.97199" lon="6.74436">
        <ele>607</ele>
        <time>2022-07-29T11:12:23Z</time>
      </trkpt>
      <trkpt lat="47.972" lon="6.74434">
        <ele>607.4</ele>
        <time>2022-07-29T11:12:24Z</time>
      </trkpt>
      <trkpt lat="47.97202" lon="6.74432">
        <ele>607.6</ele>
        <time>2022-07-29T11:12:25Z</time>
      </trkpt>
      <trkpt lat="47.97203" lon="6.7443">
        <ele>607.6</ele>
        <time>2022-07-29T11:12:26Z</time>
      </trkpt>
      <trkpt lat="47.97204" lon="6.74427">
        <ele>607.8</ele>
        <time>2022-07-29T11:12:27Z</time>
      </trkpt>
      <trkpt lat="47.97206" lon="6.74425">
        <ele>607.8</ele>
        <time>2022-07-29T11:12:28Z</time>
      </trkpt>
      <trkpt lat="47.97207" lon="6.74422">
        <ele>608</ele>
        <time>2022-07-29T11:12:29Z</time>
      </trkpt>
      <trkpt lat="47.97209" lon="6.7442">
        <ele>608.2</ele>
        <time>2022-07-29T11:12:30Z</time>
      </trkpt>
      <trkpt lat="47.9721" lon="6.74418">
        <ele>608.4</ele>
        <time>2022-07-29T11:12:31Z</time>
      </trkpt>
      <trkpt lat="47.97212" lon="6.74416">
        <ele>608.4</ele>
        <time>2022-07-29T11:12:32Z</time>
      </trkpt>
      <trkpt lat="47.97214" lon="6.74415">
        <ele>608.6</ele>
        <time>2022-07-29T11:12:33Z</time>
      </trkpt>
      <trkpt lat="47.97215" lon="6.74412">
        <ele>609</ele>
        <time>2022-07-29T11:12:34Z</time>
      </trkpt>
      <trkpt lat="47.97216" lon="6.7441">
        <ele>609</ele>
        <time>2022-07-29T11:12:35Z</time>
      </trkpt>
      <trkpt lat="47.97218" lon="6.74408">
        <ele>609.2</ele>
        <time>2022-07-29T11:12:36Z</time>
      </trkpt>
      <trkpt lat="47.97219" lon="6.74406">
        <ele>609.4</ele>
        <time>2022-07-29T11:12:37Z</time>
      </trkpt>
      <trkpt lat="47.97221" lon="6.74404">
        <ele>609.6</ele>
        <time>2022-07-29T11:12:38Z</time>
      </trkpt>
      <trkpt lat="47.97222" lon="6.74402">
        <ele>609.6</ele>
        <time>2022-07-29T11:12:39Z</time>
      </trkpt>
      <trkpt lat="47.97224" lon="6.74399">
        <ele>610</ele>
        <time>2022-07-29T11:12:40Z</time>
      </trkpt>
      <trkpt lat="47.97225" lon="6.74397">
        <ele>610.2</ele>
        <time>2022-07-29T11:12:41Z</time>
      </trkpt>
      <trkpt lat="47.97227" lon="6.74395">
        <ele>610.2</ele>
        <time>2022-07-29T11:12:42Z</time>
      </trkpt>
      <trkpt lat="47.97228" lon="6.74393">
        <ele>610.4</ele>
        <time>2022-07-29T11:12:43Z</time>
      </trkpt>
      <trkpt lat="47.97229" lon="6.74391">
        <ele>610.4</ele>
        <time>2022-07-29T11:12:44Z</time>
      </trkpt>
      <trkpt lat="47.97231" lon="6.74389">
        <ele>610.6</ele>
        <time>2022-07-29T11:12:45Z</time>
      </trkpt>
      <trkpt lat="47.97232" lon="6.74387">
        <ele>610.8</ele>
        <time>2022-07-29T11:12:46Z</time>
      </trkpt>
      <trkpt lat="47.97234" lon="6.74385">
        <ele>611</ele>
        <time>2022-07-29T11:12:47Z</time>
      </trkpt>
      <trkpt lat="47.97235" lon="6.74383">
        <ele>611.2</ele>
        <time>2022-07-29T11:12:48Z</time>
      </trkpt>
      <trkpt lat="47.97237" lon="6.74381">
        <ele>611.4</ele>
        <time>2022-07-29T11:12:49Z</time>
      </trkpt>
      <trkpt lat="47.97238" lon="6.7438">
        <ele>611.8</ele>
        <time>2022-07-29T11:12:50Z</time>
      </trkpt>
      <trkpt lat="47.9724" lon="6.74378">
        <ele>611.8</ele>
        <time>2022-07-29T11:12:51Z</time>
      </trkpt>
      <trkpt lat="47.97242" lon="6.74376">
        <ele>612.4</ele>
        <time>2022-07-29T11:12:52Z</time>
      </trkpt>
      <trkpt lat="47.97243" lon="6.74374">
        <ele>612.4</ele>
        <time>2022-07-29T11:12:53Z</time>
      </trkpt>
      <trkpt lat="47.97245" lon="6.74372">
        <ele>612.6</ele>
        <time>2022-07-29T11:12:54Z</time>
      </trkpt>
      <trkpt lat="47.97247" lon="6.74371">
        <ele>612.6</ele>
        <time>2022-07-29T11:12:55Z</time>
      </trkpt>
      <trkpt lat="47.97248" lon="6.74369">
        <ele>612.8</ele>
        <time>2022-07-29T11:12:56Z</time>
      </trkpt>
      <trkpt lat="47.9725" lon="6.74368">
        <ele>613</ele>
        <time>2022-07-29T11:12:57Z</time>
      </trkpt>
      <trkpt lat="47.97252" lon="6.74366">
        <ele>613.2</ele>
        <time>2022-07-29T11:12:58Z</time>
      </trkpt>
      <trkpt lat="47.97254" lon="6.74365">
        <ele>613.4</ele>
        <time>2022-07-29T11:12:59Z</time>
      </trkpt>
      <trkpt lat="47.97256" lon="6.74364">
        <ele>613.6</ele>
        <time>2022-07-29T11:13:00Z</time>
      </trkpt>
      <trkpt lat="47.97258" lon="6.74364">
        <ele>613.6</ele>
        <time>2022-07-29T11:13:01Z</time>
      </trkpt>
      <trkpt lat="47.9726" lon="6.74364">
        <ele>613.8</ele>
        <time>2022-07-29T11:13:02Z</time>
      </trkpt>
      <trkpt lat="47.97262" lon="6.74365">
        <ele>614</ele>
        <time>2022-07-29T11:13:03Z</time>
      </trkpt>
      <trkpt lat="47.97264" lon="6.74366">
        <ele>614.2</ele>
        <time>2022-07-29T11:13:04Z</time>
      </trkpt>
      <trkpt lat="47.97266" lon="6.74367">
        <ele>614.2</ele>
        <time>2022-07-29T11:13:05Z</time>
      </trkpt>
      <trkpt lat="47.97267" lon="6.74368">
        <ele>614.4</ele>
        <time>2022-07-29T11:13:06Z</time>
      </trkpt>
      <trkpt lat="47.97269" lon="6.7437">
        <ele>614.8</ele>
        <time>2022-07-29T11:13:07Z</time>
      </trkpt>
      <trkpt lat="47.9727" lon="6.74373">
        <ele>615</ele>
        <time>2022-07-29T11:13:08Z</time>
      </trkpt>
      <trkpt lat="47.97271" lon="6.74375">
        <ele>615.2</ele>
        <time>2022-07-29T11:13:09Z</time>
      </trkpt>
      <trkpt lat="47.97272" lon="6.74378">
        <ele>615.4</ele>
        <time>2022-07-29T11:13:10Z</time>
      </trkpt>
      <trkpt lat="47.97273" lon="6.74381">
        <ele>615.4</ele>
        <time>2022-07-29T11:13:11Z</time>
      </trkpt>
      <trkpt lat="47.97273" lon="6.74383">
        <ele>615.8</ele>
        <time>2022-07-29T11:13:12Z</time>
      </trkpt>
      <trkpt lat="47.97273" lon="6.74386">
        <ele>615.8</ele>
        <time>2022-07-29T11:13:13Z</time>
      </trkpt>
      <trkpt lat="47.97273" lon="6.74389">
        <ele>616</ele>
        <time>2022-07-29T11:13:14Z</time>
      </trkpt>
      <trkpt lat="47.97272" lon="6.74392">
        <ele>616.2</ele>
        <time>2022-07-29T11:13:15Z</time>
      </trkpt>
      <trkpt lat="47.97272" lon="6.74395">
        <ele>616.4</ele>
        <time>2022-07-29T11:13:16Z</time>
      </trkpt>
      <trkpt lat="47.97271" lon="6.74398">
        <ele>616.6</ele>
        <time>2022-07-29T11:13:17Z</time>
      </trkpt>
      <trkpt lat="47.97271" lon="6.74401">
        <ele>616.8</ele>
        <time>2022-07-29T11:13:18Z</time>
      </trkpt>
      <trkpt lat="47.9727" lon="6.74404">
        <ele>616.8</ele>
        <time>2022-07-29T11:13:19Z</time>
      </trkpt>
      <trkpt lat="47.9727" lon="6.74406">
        <ele>617</ele>
        <time>2022-07-29T11:13:20Z</time>
      </trkpt>
      <trkpt lat="47.97269" lon="6.74409">
        <ele>617</ele>
        <time>2022-07-29T11:13:21Z</time>
      </trkpt>
      <trkpt lat="47.9727" lon="6.74411">
        <ele>617</ele>
        <time>2022-07-29T11:13:22Z</time>
      </trkpt>
      <trkpt lat="47.97271" lon="6.74413">
        <ele>617.2</ele>
        <time>2022-07-29T11:13:23Z</time>
      </trkpt>
      <trkpt lat="47.97273" lon="6.74414">
        <ele>617.2</ele>
        <time>2022-07-29T11:13:24Z</time>
      </trkpt>
      <trkpt lat="47.97276" lon="6.74414">
        <ele>617.2</ele>
        <time>2022-07-29T11:13:25Z</time>
      </trkpt>
      <trkpt lat="47.97278" lon="6.74414">
        <ele>617.4</ele>
        <time>2022-07-29T11:13:26Z</time>
      </trkpt>
      <trkpt lat="47.97281" lon="6.74413">
        <ele>617.4</ele>
        <time>2022-07-29T11:13:27Z</time>
      </trkpt>
      <trkpt lat="47.97283" lon="6.74412">
        <ele>617.6</ele>
        <time>2022-07-29T11:13:28Z</time>
      </trkpt>
      <trkpt lat="47.97285" lon="6.7441">
        <ele>617.6</ele>
        <time>2022-07-29T11:13:29Z</time>
      </trkpt>
      <trkpt lat="47.97286" lon="6.74409">
        <ele>617.6</ele>
        <time>2022-07-29T11:13:30Z</time>
      </trkpt>
      <trkpt lat="47.97288" lon="6.74406">
        <ele>617.6</ele>
        <time>2022-07-29T11:13:31Z</time>
      </trkpt>
      <trkpt lat="47.9729" lon="6.74404">
        <ele>618</ele>
        <time>2022-07-29T11:13:32Z</time>
      </trkpt>
      <trkpt lat="47.97292" lon="6.74401">
        <ele>618</ele>
        <time>2022-07-29T11:13:33Z</time>
      </trkpt>
      <trkpt lat="47.97294" lon="6.74399">
        <ele>618.2</ele>
        <time>2022-07-29T11:13:34Z</time>
      </trkpt>
      <trkpt lat="47.97296" lon="6.74395">
        <ele>618.2</ele>
        <time>2022-07-29T11:13:35Z</time>
      </trkpt>
      <trkpt lat="47.97297" lon="6.74392">
        <ele>618</ele>
        <time>2022-07-29T11:13:36Z</time>
      </trkpt>
      <trkpt lat="47.973" lon="6.74388">
        <ele>617.8</ele>
        <time>2022-07-29T11:13:37Z</time>
      </trkpt>
      <trkpt lat="47.97302" lon="6.74384">
        <ele>617.8</ele>
        <time>2022-07-29T11:13:38Z</time>
      </trkpt>
      <trkpt lat="47.97304" lon="6.7438">
        <ele>617.8</ele>
        <time>2022-07-29T11:13:39Z</time>
      </trkpt>
      <trkpt lat="47.97307" lon="6.74377">
        <ele>618</ele>
        <time>2022-07-29T11:13:40Z</time>
      </trkpt>
      <trkpt lat="47.97309" lon="6.74373">
        <ele>617.6</ele>
        <time>2022-07-29T11:13:41Z</time>
      </trkpt>
      <trkpt lat="47.97324" lon="6.74358">
        <ele>617.4</ele>
        <time>2022-07-29T11:13:46Z</time>
      </trkpt>
      <trkpt lat="47.97327" lon="6.74357">
        <ele>617.4</ele>
        <time>2022-07-29T11:13:47Z</time>
      </trkpt>
      <trkpt lat="47.97329" lon="6.74355">
        <ele>617.6</ele>
        <time>2022-07-29T11:13:48Z</time>
      </trkpt>
      <trkpt lat="47.97332" lon="6.74354">
        <ele>617.6</ele>
        <time>2022-07-29T11:13:49Z</time>
      </trkpt>
      <trkpt lat="47.97334" lon="6.74353">
        <ele>617.8</ele>
        <time>2022-07-29T11:13:50Z</time>
      </trkpt>
      <trkpt lat="47.97337" lon="6.74353">
        <ele>617.8</ele>
        <time>2022-07-29T11:13:51Z</time>
      </trkpt>
      <trkpt lat="47.97339" lon="6.74353">
        <ele>618</ele>
        <time>2022-07-29T11:13:52Z</time>
      </trkpt>
      <trkpt lat="47.97341" lon="6.74354">
        <ele>618.2</ele>
        <time>2022-07-29T11:13:53Z</time>
      </trkpt>
      <trkpt lat="47.97343" lon="6.74355">
        <ele>618.2</ele>
        <time>2022-07-29T11:13:54Z</time>
      </trkpt>
      <trkpt lat="47.97345" lon="6.74356">
        <ele>618.4</ele>
        <time>2022-07-29T11:13:55Z</time>
      </trkpt>
      <trkpt lat="47.97347" lon="6.74356">
        <ele>618.6</ele>
        <time>2022-07-29T11:13:56Z</time>
      </trkpt>
      <trkpt lat="47.97365" lon="6.7436">
        <ele>618.6</ele>
        <time>2022-07-29T11:14:00Z</time>
      </trkpt>
      <trkpt lat="47.97375" lon="6.74357">
        <ele>618.4</ele>
        <time>2022-07-29T11:14:02Z</time>
      </trkpt>
      <trkpt lat="47.97379" lon="6.74354">
        <ele>618.4</ele>
        <time>2022-07-29T11:14:03Z</time>
      </trkpt>
      <trkpt lat="47.97383" lon="6.7435">
        <ele>617.8</ele>
        <time>2022-07-29T11:14:04Z</time>
      </trkpt>
      <trkpt lat="47.97387" lon="6.74344">
        <ele>617.6</ele>
        <time>2022-07-29T11:14:05Z</time>
      </trkpt>
      <trkpt lat="47.97392" lon="6.74338">
        <ele>616.6</ele>
        <time>2022-07-29T11:14:06Z</time>
      </trkpt>
      <trkpt lat="47.97396" lon="6.74332">
        <ele>616.4</ele>
        <time>2022-07-29T11:14:07Z</time>
      </trkpt>
      <trkpt lat="47.974" lon="6.74325">
        <ele>616</ele>
        <time>2022-07-29T11:14:08Z</time>
      </trkpt>
      <trkpt lat="47.97402" lon="6.74318">
        <ele>615.4</ele>
        <time>2022-07-29T11:14:09Z</time>
      </trkpt>
      <trkpt lat="47.97405" lon="6.7431">
        <ele>615.2</ele>
        <time>2022-07-29T11:14:10Z</time>
      </trkpt>
      <trkpt lat="47.97412" lon="6.74297">
        <ele>614.4</ele>
        <time>2022-07-29T11:14:12Z</time>
      </trkpt>
      <trkpt lat="47.97417" lon="6.74292">
        <ele>614</ele>
        <time>2022-07-29T11:14:13Z</time>
      </trkpt>
      <trkpt lat="47.97422" lon="6.74287">
        <ele>613.8</ele>
        <time>2022-07-29T11:14:14Z</time>
      </trkpt>
      <trkpt lat="47.97428" lon="6.74282">
        <ele>613.2</ele>
        <time>2022-07-29T11:14:15Z</time>
      </trkpt>
      <trkpt lat="47.97435" lon="6.74277">
        <ele>612.4</ele>
        <time>2022-07-29T11:14:16Z</time>
      </trkpt>
      <trkpt lat="47.97442" lon="6.74272">
        <ele>612</ele>
        <time>2022-07-29T11:14:17Z</time>
      </trkpt>
      <trkpt lat="47.97449" lon="6.7427">
        <ele>611.4</ele>
        <time>2022-07-29T11:14:18Z</time>
      </trkpt>
      <trkpt lat="47.97455" lon="6.74268">
        <ele>611</ele>
        <time>2022-07-29T11:14:19Z</time>
      </trkpt>
      <trkpt lat="47.97461" lon="6.74267">
        <ele>610.6</ele>
        <time>2022-07-29T11:14:20Z</time>
      </trkpt>
      <trkpt lat="47.97469" lon="6.74267">
        <ele>610.2</ele>
        <time>2022-07-29T11:14:21Z</time>
      </trkpt>
      <trkpt lat="47.97492" lon="6.74265">
        <ele>609.2</ele>
        <time>2022-07-29T11:14:24Z</time>
      </trkpt>
      <trkpt lat="47.97499" lon="6.74266">
        <ele>608.4</ele>
        <time>2022-07-29T11:14:25Z</time>
      </trkpt>
      <trkpt lat="47.97506" lon="6.74269">
        <ele>608</ele>
        <time>2022-07-29T11:14:26Z</time>
      </trkpt>
      <trkpt lat="47.97514" lon="6.74273">
        <ele>607.2</ele>
        <time>2022-07-29T11:14:27Z</time>
      </trkpt>
      <trkpt lat="47.9752" lon="6.74278">
        <ele>607</ele>
        <time>2022-07-29T11:14:28Z</time>
      </trkpt>
      <trkpt lat="47.97526" lon="6.74284">
        <ele>606.2</ele>
        <time>2022-07-29T11:14:29Z</time>
      </trkpt>
      <trkpt lat="47.9753" lon="6.74289">
        <ele>605.8</ele>
        <time>2022-07-29T11:14:30Z</time>
      </trkpt>
      <trkpt lat="47.97533" lon="6.74293">
        <ele>605.2</ele>
        <time>2022-07-29T11:14:31Z</time>
      </trkpt>
      <trkpt lat="47.97536" lon="6.74295">
        <ele>604.8</ele>
        <time>2022-07-29T11:14:32Z</time>
      </trkpt>
      <trkpt lat="47.9754" lon="6.74295">
        <ele>603.6</ele>
        <time>2022-07-29T11:14:33Z</time>
      </trkpt>
      <trkpt lat="47.97543" lon="6.74291">
        <ele>602.4</ele>
        <time>2022-07-29T11:14:34Z</time>
      </trkpt>
      <trkpt lat="47.97546" lon="6.74285">
        <ele>602</ele>
        <time>2022-07-29T11:14:35Z</time>
      </trkpt>
      <trkpt lat="47.97549" lon="6.74278">
        <ele>601.2</ele>
        <time>2022-07-29T11:14:36Z</time>
      </trkpt>
      <trkpt lat="47.97551" lon="6.7427">
        <ele>601</ele>
        <time>2022-07-29T11:14:37Z</time>
      </trkpt>
      <trkpt lat="47.97553" lon="6.74264">
        <ele>600.6</ele>
        <time>2022-07-29T11:14:38Z</time>
      </trkpt>
      <trkpt lat="47.97555" lon="6.74256">
        <ele>600.2</ele>
        <time>2022-07-29T11:14:39Z</time>
      </trkpt>
      <trkpt lat="47.9756" lon="6.74235">
        <ele>599.4</ele>
        <time>2022-07-29T11:14:42Z</time>
      </trkpt>
      <trkpt lat="47.97562" lon="6.74228">
        <ele>599.2</ele>
        <time>2022-07-29T11:14:43Z</time>
      </trkpt>
      <trkpt lat="47.9757" lon="6.74197">
        <ele>598.2</ele>
        <time>2022-07-29T11:14:48Z</time>
      </trkpt>
      <trkpt lat="47.97571" lon="6.74192">
        <ele>598</ele>
        <time>2022-07-29T11:14:49Z</time>
      </trkpt>
      <trkpt lat="47.97574" lon="6.74188">
        <ele>598</ele>
        <time>2022-07-29T11:14:50Z</time>
      </trkpt>
      <trkpt lat="47.97576" lon="6.74185">
        <ele>597.8</ele>
        <time>2022-07-29T11:14:51Z</time>
      </trkpt>
      <trkpt lat="47.97579" lon="6.74181">
        <ele>597.6</ele>
        <time>2022-07-29T11:14:52Z</time>
      </trkpt>
      <trkpt lat="47.97587" lon="6.74167">
        <ele>597.6</ele>
        <time>2022-07-29T11:14:55Z</time>
      </trkpt>
      <trkpt lat="47.97592" lon="6.74156">
        <ele>597.2</ele>
        <time>2022-07-29T11:14:57Z</time>
      </trkpt>
      <trkpt lat="47.97596" lon="6.7415">
        <ele>597</ele>
        <time>2022-07-29T11:14:58Z</time>
      </trkpt>
      <trkpt lat="47.97602" lon="6.74135">
        <ele>595.8</ele>
        <time>2022-07-29T11:15:00Z</time>
      </trkpt>
      <trkpt lat="47.97613" lon="6.74108">
        <ele>593.8</ele>
        <time>2022-07-29T11:15:03Z</time>
      </trkpt>
      <trkpt lat="47.97617" lon="6.74098">
        <ele>593</ele>
        <time>2022-07-29T11:15:04Z</time>
      </trkpt>
      <trkpt lat="47.97621" lon="6.74089">
        <ele>591.8</ele>
        <time>2022-07-29T11:15:05Z</time>
      </trkpt>
      <trkpt lat="47.97624" lon="6.74079">
        <ele>591.4</ele>
        <time>2022-07-29T11:15:06Z</time>
      </trkpt>
      <trkpt lat="47.97627" lon="6.7407">
        <ele>590.6</ele>
        <time>2022-07-29T11:15:07Z</time>
      </trkpt>
      <trkpt lat="47.97631" lon="6.74061">
        <ele>590</ele>
        <time>2022-07-29T11:15:08Z</time>
      </trkpt>
      <trkpt lat="47.97634" lon="6.74053">
        <ele>589.6</ele>
        <time>2022-07-29T11:15:09Z</time>
      </trkpt>
      <trkpt lat="47.97638" lon="6.74045">
        <ele>589.4</ele>
        <time>2022-07-29T11:15:10Z</time>
      </trkpt>
      <trkpt lat="47.97646" lon="6.74029">
        <ele>588.6</ele>
        <time>2022-07-29T11:15:12Z</time>
      </trkpt>
      <trkpt lat="47.9765" lon="6.74022">
        <ele>588.6</ele>
        <time>2022-07-29T11:15:13Z</time>
      </trkpt>
      <trkpt lat="47.97653" lon="6.74016">
        <ele>588.4</ele>
        <time>2022-07-29T11:15:14Z</time>
      </trkpt>
      <trkpt lat="47.97656" lon="6.7401">
        <ele>588.2</ele>
        <time>2022-07-29T11:15:15Z</time>
      </trkpt>
      <trkpt lat="47.97659" lon="6.74005">
        <ele>587.8</ele>
        <time>2022-07-29T11:15:16Z</time>
      </trkpt>
      <trkpt lat="47.97664" lon="6.73999">
        <ele>587.6</ele>
        <time>2022-07-29T11:15:17Z</time>
      </trkpt>
      <trkpt lat="47.97669" lon="6.73993">
        <ele>587.4</ele>
        <time>2022-07-29T11:15:18Z</time>
      </trkpt>
      <trkpt lat="47.97675" lon="6.73986">
        <ele>587</ele>
        <time>2022-07-29T11:15:19Z</time>
      </trkpt>
      <trkpt lat="47.97684" lon="6.73973">
        <ele>586.6</ele>
        <time>2022-07-29T11:15:21Z</time>
      </trkpt>
      <trkpt lat="47.97688" lon="6.73966">
        <ele>586</ele>
        <time>2022-07-29T11:15:22Z</time>
      </trkpt>
      <trkpt lat="47.97693" lon="6.73959">
        <ele>585.4</ele>
        <time>2022-07-29T11:15:23Z</time>
      </trkpt>
      <trkpt lat="47.97696" lon="6.73952">
        <ele>585.2</ele>
        <time>2022-07-29T11:15:24Z</time>
      </trkpt>
      <trkpt lat="47.97701" lon="6.73943">
        <ele>584.8</ele>
        <time>2022-07-29T11:15:25Z</time>
      </trkpt>
      <trkpt lat="47.97709" lon="6.73926">
        <ele>583.6</ele>
        <time>2022-07-29T11:15:27Z</time>
      </trkpt>
      <trkpt lat="47.97718" lon="6.73909">
        <ele>582.8</ele>
        <time>2022-07-29T11:15:29Z</time>
      </trkpt>
      <trkpt lat="47.97723" lon="6.73899">
        <ele>582.2</ele>
        <time>2022-07-29T11:15:30Z</time>
      </trkpt>
      <trkpt lat="47.97734" lon="6.73881">
        <ele>580.6</ele>
        <time>2022-07-29T11:15:32Z</time>
      </trkpt>
      <trkpt lat="47.97743" lon="6.73859">
        <ele>579</ele>
        <time>2022-07-29T11:15:34Z</time>
      </trkpt>
      <trkpt lat="47.97748" lon="6.73845">
        <ele>578.4</ele>
        <time>2022-07-29T11:15:35Z</time>
      </trkpt>
      <trkpt lat="47.97754" lon="6.73833">
        <ele>577.6</ele>
        <time>2022-07-29T11:15:36Z</time>
      </trkpt>
      <trkpt lat="47.97759" lon="6.73822">
        <ele>576.4</ele>
        <time>2022-07-29T11:15:37Z</time>
      </trkpt>
      <trkpt lat="47.97772" lon="6.73802">
        <ele>575.4</ele>
        <time>2022-07-29T11:15:39Z</time>
      </trkpt>
      <trkpt lat="47.97777" lon="6.73791">
        <ele>574.8</ele>
        <time>2022-07-29T11:15:40Z</time>
      </trkpt>
      <trkpt lat="47.97783" lon="6.73782">
        <ele>574</ele>
        <time>2022-07-29T11:15:41Z</time>
      </trkpt>
      <trkpt lat="47.97789" lon="6.73772">
        <ele>573.6</ele>
        <time>2022-07-29T11:15:42Z</time>
      </trkpt>
      <trkpt lat="47.97795" lon="6.73764">
        <ele>572.6</ele>
        <time>2022-07-29T11:15:43Z</time>
      </trkpt>
      <trkpt lat="47.978" lon="6.73757">
        <ele>572.2</ele>
        <time>2022-07-29T11:15:44Z</time>
      </trkpt>
      <trkpt lat="47.97806" lon="6.7375">
        <ele>571.4</ele>
        <time>2022-07-29T11:15:45Z</time>
      </trkpt>
      <trkpt lat="47.97811" lon="6.73743">
        <ele>571</ele>
        <time>2022-07-29T11:15:46Z</time>
      </trkpt>
      <trkpt lat="47.97815" lon="6.73736">
        <ele>570.8</ele>
        <time>2022-07-29T11:15:47Z</time>
      </trkpt>
      <trkpt lat="47.97819" lon="6.7373">
        <ele>570.8</ele>
        <time>2022-07-29T11:15:48Z</time>
      </trkpt>
      <trkpt lat="47.97824" lon="6.73724">
        <ele>570.8</ele>
        <time>2022-07-29T11:15:49Z</time>
      </trkpt>
      <trkpt lat="47.97828" lon="6.73718">
        <ele>570.6</ele>
        <time>2022-07-29T11:15:50Z</time>
      </trkpt>
      <trkpt lat="47.97833" lon="6.73712">
        <ele>570.6</ele>
        <time>2022-07-29T11:15:51Z</time>
      </trkpt>
      <trkpt lat="47.97845" lon="6.7369">
        <ele>570.2</ele>
        <time>2022-07-29T11:15:54Z</time>
      </trkpt>
      <trkpt lat="47.97848" lon="6.73683">
        <ele>570</ele>
        <time>2022-07-29T11:15:55Z</time>
      </trkpt>
      <trkpt lat="47.97853" lon="6.73668">
        <ele>569.4</ele>
        <time>2022-07-29T11:15:57Z</time>
      </trkpt>
      <trkpt lat="47.97856" lon="6.73661">
        <ele>569.2</ele>
        <time>2022-07-29T11:15:58Z</time>
      </trkpt>
      <trkpt lat="47.97859" lon="6.73654">
        <ele>568.8</ele>
        <time>2022-07-29T11:15:59Z</time>
      </trkpt>
      <trkpt lat="47.97861" lon="6.73647">
        <ele>568.6</ele>
        <time>2022-07-29T11:16:00Z</time>
      </trkpt>
      <trkpt lat="47.97866" lon="6.73633">
        <ele>568</ele>
        <time>2022-07-29T11:16:02Z</time>
      </trkpt>
      <trkpt lat="47.97869" lon="6.73626">
        <ele>568</ele>
        <time>2022-07-29T11:16:03Z</time>
      </trkpt>
      <trkpt lat="47.97871" lon="6.7362">
        <ele>567.8</ele>
        <time>2022-07-29T11:16:04Z</time>
      </trkpt>
      <trkpt lat="47.97874" lon="6.73614">
        <ele>567.6</ele>
        <time>2022-07-29T11:16:05Z</time>
      </trkpt>
      <trkpt lat="47.97877" lon="6.73608">
        <ele>567.6</ele>
        <time>2022-07-29T11:16:06Z</time>
      </trkpt>
      <trkpt lat="47.97879" lon="6.73602">
        <ele>567.6</ele>
        <time>2022-07-29T11:16:07Z</time>
      </trkpt>
      <trkpt lat="47.97882" lon="6.73597">
        <ele>567.4</ele>
        <time>2022-07-29T11:16:08Z</time>
      </trkpt>
      <trkpt lat="47.97884" lon="6.73593">
        <ele>567.4</ele>
        <time>2022-07-29T11:16:09Z</time>
      </trkpt>
      <trkpt lat="47.97886" lon="6.7359">
        <ele>567.4</ele>
        <time>2022-07-29T11:16:10Z</time>
      </trkpt>
      <trkpt lat="47.97887" lon="6.73587">
        <ele>567.4</ele>
        <time>2022-07-29T11:16:11Z</time>
      </trkpt>
      <trkpt lat="47.97888" lon="6.73584">
        <ele>567.4</ele>
        <time>2022-07-29T11:16:12Z</time>
      </trkpt>
      <trkpt lat="47.9789" lon="6.7358">
        <ele>567.6</ele>
        <time>2022-07-29T11:16:13Z</time>
      </trkpt>
      <trkpt lat="47.97903" lon="6.73552">
        <ele>567.6</ele>
        <time>2022-07-29T11:16:19Z</time>
      </trkpt>
      <trkpt lat="47.97914" lon="6.7353">
        <ele>566.8</ele>
        <time>2022-07-29T11:16:24Z</time>
      </trkpt>
      <trkpt lat="47.97917" lon="6.73527">
        <ele>566.8</ele>
        <time>2022-07-29T11:16:25Z</time>
      </trkpt>
      <trkpt lat="47.97922" lon="6.73521">
        <ele>566.2</ele>
        <time>2022-07-29T11:16:27Z</time>
      </trkpt>
      <trkpt lat="47.97925" lon="6.73518">
        <ele>566</ele>
        <time>2022-07-29T11:16:28Z</time>
      </trkpt>
      <trkpt lat="47.97927" lon="6.73515">
        <ele>566</ele>
        <time>2022-07-29T11:16:29Z</time>
      </trkpt>
      <trkpt lat="47.9793" lon="6.73512">
        <ele>566</ele>
        <time>2022-07-29T11:16:30Z</time>
      </trkpt>
      <trkpt lat="47.97933" lon="6.7351">
        <ele>566</ele>
        <time>2022-07-29T11:16:31Z</time>
      </trkpt>
      <trkpt lat="47.97935" lon="6.73507">
        <ele>566</ele>
        <time>2022-07-29T11:16:32Z</time>
      </trkpt>
      <trkpt lat="47.97938" lon="6.73504">
        <ele>566</ele>
        <time>2022-07-29T11:16:33Z</time>
      </trkpt>
      <trkpt lat="47.97941" lon="6.73501">
        <ele>566</ele>
        <time>2022-07-29T11:16:34Z</time>
      </trkpt>
      <trkpt lat="47.9796" lon="6.73488">
        <ele>566.2</ele>
        <time>2022-07-29T11:16:39Z</time>
      </trkpt>
      <trkpt lat="47.97964" lon="6.73486">
        <ele>566.2</ele>
        <time>2022-07-29T11:16:40Z</time>
      </trkpt>
      <trkpt lat="47.97986" lon="6.73469">
        <ele>566</ele>
        <time>2022-07-29T11:16:45Z</time>
      </trkpt>
      <trkpt lat="47.9799" lon="6.73465">
        <ele>565.6</ele>
        <time>2022-07-29T11:16:46Z</time>
      </trkpt>
      <trkpt lat="47.97994" lon="6.7346">
        <ele>565.4</ele>
        <time>2022-07-29T11:16:47Z</time>
      </trkpt>
      <trkpt lat="47.98011" lon="6.73442">
        <ele>564.8</ele>
        <time>2022-07-29T11:16:51Z</time>
      </trkpt>
      <trkpt lat="47.98019" lon="6.73432">
        <ele>564.4</ele>
        <time>2022-07-29T11:16:53Z</time>
      </trkpt>
      <trkpt lat="47.98022" lon="6.73428">
        <ele>564.4</ele>
        <time>2022-07-29T11:16:54Z</time>
      </trkpt>
      <trkpt lat="47.98026" lon="6.73424">
        <ele>564.4</ele>
        <time>2022-07-29T11:16:55Z</time>
      </trkpt>
      <trkpt lat="47.9803" lon="6.7342">
        <ele>564.2</ele>
        <time>2022-07-29T11:16:56Z</time>
      </trkpt>
      <trkpt lat="47.98033" lon="6.73415">
        <ele>564.2</ele>
        <time>2022-07-29T11:16:57Z</time>
      </trkpt>
      <trkpt lat="47.98037" lon="6.73411">
        <ele>564.4</ele>
        <time>2022-07-29T11:16:58Z</time>
      </trkpt>
      <trkpt lat="47.98041" lon="6.73407">
        <ele>564.4</ele>
        <time>2022-07-29T11:16:59Z</time>
      </trkpt>
      <trkpt lat="47.98044" lon="6.73403">
        <ele>564.6</ele>
        <time>2022-07-29T11:17:00Z</time>
      </trkpt>
      <trkpt lat="47.98056" lon="6.73391">
        <ele>564.4</ele>
        <time>2022-07-29T11:17:03Z</time>
      </trkpt>
      <trkpt lat="47.9806" lon="6.73388">
        <ele>564.4</ele>
        <time>2022-07-29T11:17:04Z</time>
      </trkpt>
      <trkpt lat="47.98063" lon="6.73384">
        <ele>564.6</ele>
        <time>2022-07-29T11:17:05Z</time>
      </trkpt>
      <trkpt lat="47.98066" lon="6.73381">
        <ele>564.6</ele>
        <time>2022-07-29T11:17:06Z</time>
      </trkpt>
      <trkpt lat="47.9807" lon="6.73378">
        <ele>564.6</ele>
        <time>2022-07-29T11:17:07Z</time>
      </trkpt>
      <trkpt lat="47.98078" lon="6.73374">
        <ele>564.6</ele>
        <time>2022-07-29T11:17:09Z</time>
      </trkpt>
      <trkpt lat="47.98086" lon="6.7337">
        <ele>564.6</ele>
        <time>2022-07-29T11:17:11Z</time>
      </trkpt>
      <trkpt lat="47.9809" lon="6.73369">
        <ele>564.8</ele>
        <time>2022-07-29T11:17:12Z</time>
      </trkpt>
      <trkpt lat="47.98094" lon="6.73368">
        <ele>564.8</ele>
        <time>2022-07-29T11:17:13Z</time>
      </trkpt>
      <trkpt lat="47.98098" lon="6.73367">
        <ele>565</ele>
        <time>2022-07-29T11:17:14Z</time>
      </trkpt>
      <trkpt lat="47.9811" lon="6.73368">
        <ele>565.2</ele>
        <time>2022-07-29T11:17:17Z</time>
      </trkpt>
      <trkpt lat="47.98117" lon="6.7337">
        <ele>565.4</ele>
        <time>2022-07-29T11:17:19Z</time>
      </trkpt>
      <trkpt lat="47.98121" lon="6.73372">
        <ele>565.4</ele>
        <time>2022-07-29T11:17:20Z</time>
      </trkpt>
      <trkpt lat="47.98123" lon="6.73373">
        <ele>565.6</ele>
        <time>2022-07-29T11:17:21Z</time>
      </trkpt>
      <trkpt lat="47.98126" lon="6.73374">
        <ele>565.6</ele>
        <time>2022-07-29T11:17:22Z</time>
      </trkpt>
      <trkpt lat="47.9813" lon="6.73375">
        <ele>566</ele>
        <time>2022-07-29T11:17:23Z</time>
      </trkpt>
      <trkpt lat="47.98148" lon="6.7338">
        <ele>566</ele>
        <time>2022-07-29T11:17:27Z</time>
      </trkpt>
      <trkpt lat="47.98174" lon="6.73381">
        <ele>565.4</ele>
        <time>2022-07-29T11:17:31Z</time>
      </trkpt>
      <trkpt lat="47.9818" lon="6.73383">
        <ele>564.6</ele>
        <time>2022-07-29T11:17:32Z</time>
      </trkpt>
      <trkpt lat="47.98186" lon="6.73387">
        <ele>564.2</ele>
        <time>2022-07-29T11:17:33Z</time>
      </trkpt>
      <trkpt lat="47.98191" lon="6.73392">
        <ele>563.6</ele>
        <time>2022-07-29T11:17:34Z</time>
      </trkpt>
      <trkpt lat="47.98195" lon="6.73397">
        <ele>563.4</ele>
        <time>2022-07-29T11:17:35Z</time>
      </trkpt>
      <trkpt lat="47.98199" lon="6.73401">
        <ele>562.8</ele>
        <time>2022-07-29T11:17:36Z</time>
      </trkpt>
      <trkpt lat="47.98204" lon="6.73404">
        <ele>562.4</ele>
        <time>2022-07-29T11:17:37Z</time>
      </trkpt>
      <trkpt lat="47.98209" lon="6.73404">
        <ele>562</ele>
        <time>2022-07-29T11:17:38Z</time>
      </trkpt>
      <trkpt lat="47.98215" lon="6.73402">
        <ele>561.8</ele>
        <time>2022-07-29T11:17:39Z</time>
      </trkpt>
      <trkpt lat="47.98227" lon="6.73395">
        <ele>561.2</ele>
        <time>2022-07-29T11:17:41Z</time>
      </trkpt>
      <trkpt lat="47.98232" lon="6.73392">
        <ele>561</ele>
        <time>2022-07-29T11:17:42Z</time>
      </trkpt>
      <trkpt lat="47.98238" lon="6.73389">
        <ele>560.8</ele>
        <time>2022-07-29T11:17:43Z</time>
      </trkpt>
      <trkpt lat="47.98243" lon="6.73388">
        <ele>560.6</ele>
        <time>2022-07-29T11:17:44Z</time>
      </trkpt>
      <trkpt lat="47.98249" lon="6.73386">
        <ele>560.2</ele>
        <time>2022-07-29T11:17:45Z</time>
      </trkpt>
      <trkpt lat="47.98254" lon="6.73385">
        <ele>560</ele>
        <time>2022-07-29T11:17:46Z</time>
      </trkpt>
      <trkpt lat="47.98279" lon="6.7338">
        <ele>559.2</ele>
        <time>2022-07-29T11:17:50Z</time>
      </trkpt>
      <trkpt lat="47.98292" lon="6.73378">
        <ele>558.8</ele>
        <time>2022-07-29T11:17:52Z</time>
      </trkpt>
      <trkpt lat="47.98299" lon="6.73378">
        <ele>558.6</ele>
        <time>2022-07-29T11:17:53Z</time>
      </trkpt>
      <trkpt lat="47.98312" lon="6.73382">
        <ele>558</ele>
        <time>2022-07-29T11:17:55Z</time>
      </trkpt>
      <trkpt lat="47.98325" lon="6.73389">
        <ele>557</ele>
        <time>2022-07-29T11:17:57Z</time>
      </trkpt>
      <trkpt lat="47.98332" lon="6.73393">
        <ele>556.6</ele>
        <time>2022-07-29T11:17:58Z</time>
      </trkpt>
      <trkpt lat="47.98339" lon="6.73394">
        <ele>556</ele>
        <time>2022-07-29T11:17:59Z</time>
      </trkpt>
      <trkpt lat="47.98346" lon="6.73394">
        <ele>555.6</ele>
        <time>2022-07-29T11:18:00Z</time>
      </trkpt>
      <trkpt lat="47.98354" lon="6.73393">
        <ele>554.2</ele>
        <time>2022-07-29T11:18:01Z</time>
      </trkpt>
      <trkpt lat="47.98362" lon="6.73391">
        <ele>554</ele>
        <time>2022-07-29T11:18:02Z</time>
      </trkpt>
      <trkpt lat="47.98369" lon="6.73392">
        <ele>553</ele>
        <time>2022-07-29T11:18:03Z</time>
      </trkpt>
      <trkpt lat="47.98375" lon="6.73394">
        <ele>551.6</ele>
        <time>2022-07-29T11:18:04Z</time>
      </trkpt>
      <trkpt lat="47.9838" lon="6.73398">
        <ele>551</ele>
        <time>2022-07-29T11:18:05Z</time>
      </trkpt>
      <trkpt lat="47.98384" lon="6.73402">
        <ele>549.8</ele>
        <time>2022-07-29T11:18:06Z</time>
      </trkpt>
      <trkpt lat="47.98387" lon="6.73407">
        <ele>549.2</ele>
        <time>2022-07-29T11:18:07Z</time>
      </trkpt>
      <trkpt lat="47.9839" lon="6.73414">
        <ele>548.6</ele>
        <time>2022-07-29T11:18:08Z</time>
      </trkpt>
      <trkpt lat="47.98393" lon="6.73422">
        <ele>548.4</ele>
        <time>2022-07-29T11:18:09Z</time>
      </trkpt>
      <trkpt lat="47.98396" lon="6.73429">
        <ele>548</ele>
        <time>2022-07-29T11:18:10Z</time>
      </trkpt>
      <trkpt lat="47.98399" lon="6.73434">
        <ele>547.8</ele>
        <time>2022-07-29T11:18:11Z</time>
      </trkpt>
      <trkpt lat="47.98402" lon="6.7344">
        <ele>547.8</ele>
        <time>2022-07-29T11:18:12Z</time>
      </trkpt>
      <trkpt lat="47.98405" lon="6.73443">
        <ele>547.8</ele>
        <time>2022-07-29T11:18:13Z</time>
      </trkpt>
      <trkpt lat="47.98409" lon="6.73446">
        <ele>547.8</ele>
        <time>2022-07-29T11:18:14Z</time>
      </trkpt>
      <trkpt lat="47.98414" lon="6.73447">
        <ele>547.8</ele>
        <time>2022-07-29T11:18:15Z</time>
      </trkpt>
      <trkpt lat="47.98418" lon="6.73447">
        <ele>547.8</ele>
        <time>2022-07-29T11:18:16Z</time>
      </trkpt>
      <trkpt lat="47.98422" lon="6.73446">
        <ele>547.8</ele>
        <time>2022-07-29T11:18:17Z</time>
      </trkpt>
      <trkpt lat="47.98426" lon="6.73444">
        <ele>548</ele>
        <time>2022-07-29T11:18:18Z</time>
      </trkpt>
      <trkpt lat="47.98429" lon="6.73442">
        <ele>548.8</ele>
        <time>2022-07-29T11:18:19Z</time>
      </trkpt>
      <trkpt lat="47.98433" lon="6.7344">
        <ele>549</ele>
        <time>2022-07-29T11:18:20Z</time>
      </trkpt>
      <trkpt lat="47.98437" lon="6.73438">
        <ele>549.2</ele>
        <time>2022-07-29T11:18:21Z</time>
      </trkpt>
      <trkpt lat="47.98441" lon="6.73436">
        <ele>549.4</ele>
        <time>2022-07-29T11:18:22Z</time>
      </trkpt>
      <trkpt lat="47.98455" lon="6.7343">
        <ele>549.8</ele>
        <time>2022-07-29T11:18:26Z</time>
      </trkpt>
      <trkpt lat="47.98488" lon="6.73423">
        <ele>550</ele>
        <time>2022-07-29T11:18:34Z</time>
      </trkpt>
      <trkpt lat="47.98505" lon="6.73436">
        <ele>549.2</ele>
        <time>2022-07-29T11:18:38Z</time>
      </trkpt>
      <trkpt lat="47.98509" lon="6.73441">
        <ele>549</ele>
        <time>2022-07-29T11:18:39Z</time>
      </trkpt>
      <trkpt lat="47.98511" lon="6.73448">
        <ele>548.6</ele>
        <time>2022-07-29T11:18:40Z</time>
      </trkpt>
      <trkpt lat="47.98513" lon="6.73456">
        <ele>548.4</ele>
        <time>2022-07-29T11:18:41Z</time>
      </trkpt>
      <trkpt lat="47.98515" lon="6.73465">
        <ele>547.8</ele>
        <time>2022-07-29T11:18:42Z</time>
      </trkpt>
      <trkpt lat="47.98516" lon="6.73475">
        <ele>547.8</ele>
        <time>2022-07-29T11:18:43Z</time>
      </trkpt>
      <trkpt lat="47.98518" lon="6.73485">
        <ele>547.4</ele>
        <time>2022-07-29T11:18:44Z</time>
      </trkpt>
      <trkpt lat="47.98525" lon="6.73502">
        <ele>545.6</ele>
        <time>2022-07-29T11:18:46Z</time>
      </trkpt>
      <trkpt lat="47.98529" lon="6.73511">
        <ele>544</ele>
        <time>2022-07-29T11:18:47Z</time>
      </trkpt>
      <trkpt lat="47.98532" lon="6.7352">
        <ele>543.4</ele>
        <time>2022-07-29T11:18:48Z</time>
      </trkpt>
      <trkpt lat="47.98535" lon="6.7353">
        <ele>542.6</ele>
        <time>2022-07-29T11:18:49Z</time>
      </trkpt>
      <trkpt lat="47.98537" lon="6.73541">
        <ele>542.2</ele>
        <time>2022-07-29T11:18:50Z</time>
      </trkpt>
      <trkpt lat="47.98542" lon="6.73578">
        <ele>540.8</ele>
        <time>2022-07-29T11:18:53Z</time>
      </trkpt>
      <trkpt lat="47.98545" lon="6.73601">
        <ele>539.2</ele>
        <time>2022-07-29T11:18:55Z</time>
      </trkpt>
      <trkpt lat="47.98546" lon="6.73611">
        <ele>538.4</ele>
        <time>2022-07-29T11:18:56Z</time>
      </trkpt>
      <trkpt lat="47.98547" lon="6.73621">
        <ele>538</ele>
        <time>2022-07-29T11:18:57Z</time>
      </trkpt>
      <trkpt lat="47.98549" lon="6.73631">
        <ele>537.2</ele>
        <time>2022-07-29T11:18:58Z</time>
      </trkpt>
      <trkpt lat="47.9855" lon="6.7364">
        <ele>536.8</ele>
        <time>2022-07-29T11:18:59Z</time>
      </trkpt>
      <trkpt lat="47.9855" lon="6.73648">
        <ele>536.4</ele>
        <time>2022-07-29T11:19:00Z</time>
      </trkpt>
      <trkpt lat="47.98551" lon="6.73657">
        <ele>536.4</ele>
        <time>2022-07-29T11:19:01Z</time>
      </trkpt>
      <trkpt lat="47.98551" lon="6.73664">
        <ele>536.2</ele>
        <time>2022-07-29T11:19:02Z</time>
      </trkpt>
      <trkpt lat="47.98551" lon="6.73671">
        <ele>536.2</ele>
        <time>2022-07-29T11:19:03Z</time>
      </trkpt>
      <trkpt lat="47.98551" lon="6.73678">
        <ele>536</ele>
        <time>2022-07-29T11:19:04Z</time>
      </trkpt>
      <trkpt lat="47.9855" lon="6.73685">
        <ele>536.2</ele>
        <time>2022-07-29T11:19:05Z</time>
      </trkpt>
      <trkpt lat="47.9855" lon="6.73692">
        <ele>536.2</ele>
        <time>2022-07-29T11:19:06Z</time>
      </trkpt>
      <trkpt lat="47.98552" lon="6.73727">
        <ele>536</ele>
        <time>2022-07-29T11:19:10Z</time>
      </trkpt>
      <trkpt lat="47.98559" lon="6.73747">
        <ele>536</ele>
        <time>2022-07-29T11:19:12Z</time>
      </trkpt>
      <trkpt lat="47.98563" lon="6.73756">
        <ele>535.6</ele>
        <time>2022-07-29T11:19:13Z</time>
      </trkpt>
      <trkpt lat="47.98567" lon="6.73766">
        <ele>535.2</ele>
        <time>2022-07-29T11:19:14Z</time>
      </trkpt>
      <trkpt lat="47.98571" lon="6.73775">
        <ele>534.8</ele>
        <time>2022-07-29T11:19:15Z</time>
      </trkpt>
      <trkpt lat="47.98576" lon="6.73783">
        <ele>533.8</ele>
        <time>2022-07-29T11:19:16Z</time>
      </trkpt>
      <trkpt lat="47.98581" lon="6.73791">
        <ele>533.4</ele>
        <time>2022-07-29T11:19:17Z</time>
      </trkpt>
      <trkpt lat="47.98587" lon="6.73798">
        <ele>532.4</ele>
        <time>2022-07-29T11:19:18Z</time>
      </trkpt>
      <trkpt lat="47.98593" lon="6.73807">
        <ele>532</ele>
        <time>2022-07-29T11:19:19Z</time>
      </trkpt>
      <trkpt lat="47.98604" lon="6.73826">
        <ele>531.6</ele>
        <time>2022-07-29T11:19:21Z</time>
      </trkpt>
      <trkpt lat="47.9861" lon="6.73836">
        <ele>531.2</ele>
        <time>2022-07-29T11:19:22Z</time>
      </trkpt>
      <trkpt lat="47.98616" lon="6.73847">
        <ele>530.4</ele>
        <time>2022-07-29T11:19:23Z</time>
      </trkpt>
      <trkpt lat="47.98622" lon="6.73858">
        <ele>529.8</ele>
        <time>2022-07-29T11:19:24Z</time>
      </trkpt>
      <trkpt lat="47.9863" lon="6.73868">
        <ele>529</ele>
        <time>2022-07-29T11:19:25Z</time>
      </trkpt>
      <trkpt lat="47.98638" lon="6.73877">
        <ele>528.6</ele>
        <time>2022-07-29T11:19:26Z</time>
      </trkpt>
      <trkpt lat="47.98646" lon="6.73885">
        <ele>527.6</ele>
        <time>2022-07-29T11:19:27Z</time>
      </trkpt>
      <trkpt lat="47.98663" lon="6.73902">
        <ele>526.2</ele>
        <time>2022-07-29T11:19:29Z</time>
      </trkpt>
      <trkpt lat="47.98681" lon="6.73917">
        <ele>524.4</ele>
        <time>2022-07-29T11:19:31Z</time>
      </trkpt>
      <trkpt lat="47.98691" lon="6.73926">
        <ele>523.4</ele>
        <time>2022-07-29T11:19:32Z</time>
      </trkpt>
      <trkpt lat="47.98706" lon="6.73949">
        <ele>522</ele>
        <time>2022-07-29T11:19:34Z</time>
      </trkpt>
      <trkpt lat="47.98713" lon="6.73962">
        <ele>521.4</ele>
        <time>2022-07-29T11:19:35Z</time>
      </trkpt>
      <trkpt lat="47.9872" lon="6.73977">
        <ele>520</ele>
        <time>2022-07-29T11:19:36Z</time>
      </trkpt>
      <trkpt lat="47.98735" lon="6.74005">
        <ele>518.4</ele>
        <time>2022-07-29T11:19:38Z</time>
      </trkpt>
      <trkpt lat="47.98744" lon="6.74016">
        <ele>517.4</ele>
        <time>2022-07-29T11:19:39Z</time>
      </trkpt>
      <trkpt lat="47.98754" lon="6.74024">
        <ele>516</ele>
        <time>2022-07-29T11:19:40Z</time>
      </trkpt>
      <trkpt lat="47.98763" lon="6.74029">
        <ele>514.6</ele>
        <time>2022-07-29T11:19:41Z</time>
      </trkpt>
      <trkpt lat="47.98773" lon="6.74033">
        <ele>514</ele>
        <time>2022-07-29T11:19:42Z</time>
      </trkpt>
      <trkpt lat="47.98784" lon="6.74035">
        <ele>512.6</ele>
        <time>2022-07-29T11:19:43Z</time>
      </trkpt>
      <trkpt lat="47.98795" lon="6.74034">
        <ele>512.2</ele>
        <time>2022-07-29T11:19:44Z</time>
      </trkpt>
      <trkpt lat="47.98807" lon="6.74034">
        <ele>511.8</ele>
        <time>2022-07-29T11:19:45Z</time>
      </trkpt>
      <trkpt lat="47.98817" lon="6.74034">
        <ele>511.4</ele>
        <time>2022-07-29T11:19:46Z</time>
      </trkpt>
      <trkpt lat="47.98827" lon="6.74033">
        <ele>510.8</ele>
        <time>2022-07-29T11:19:47Z</time>
      </trkpt>
      <trkpt lat="47.98834" lon="6.74028">
        <ele>510.4</ele>
        <time>2022-07-29T11:19:48Z</time>
      </trkpt>
      <trkpt lat="47.98839" lon="6.74018">
        <ele>509.8</ele>
        <time>2022-07-29T11:19:49Z</time>
      </trkpt>
      <trkpt lat="47.98841" lon="6.74006">
        <ele>508.8</ele>
        <time>2022-07-29T11:19:50Z</time>
      </trkpt>
      <trkpt lat="47.98839" lon="6.73995">
        <ele>508.4</ele>
        <time>2022-07-29T11:19:51Z</time>
      </trkpt>
      <trkpt lat="47.98833" lon="6.73984">
        <ele>507.6</ele>
        <time>2022-07-29T11:19:52Z</time>
      </trkpt>
      <trkpt lat="47.98819" lon="6.73965">
        <ele>506</ele>
        <time>2022-07-29T11:19:54Z</time>
      </trkpt>
      <trkpt lat="47.98813" lon="6.73953">
        <ele>505.6</ele>
        <time>2022-07-29T11:19:55Z</time>
      </trkpt>
      <trkpt lat="47.9881" lon="6.73939">
        <ele>504.8</ele>
        <time>2022-07-29T11:19:56Z</time>
      </trkpt>
      <trkpt lat="47.9881" lon="6.73924">
        <ele>503.6</ele>
        <time>2022-07-29T11:19:57Z</time>
      </trkpt>
      <trkpt lat="47.98814" lon="6.7391">
        <ele>503.2</ele>
        <time>2022-07-29T11:19:58Z</time>
      </trkpt>
      <trkpt lat="47.98819" lon="6.73897">
        <ele>502.4</ele>
        <time>2022-07-29T11:19:59Z</time>
      </trkpt>
      <trkpt lat="47.98825" lon="6.73885">
        <ele>501.8</ele>
        <time>2022-07-29T11:20:00Z</time>
      </trkpt>
      <trkpt lat="47.98831" lon="6.73877">
        <ele>500.4</ele>
        <time>2022-07-29T11:20:01Z</time>
      </trkpt>
      <trkpt lat="47.98837" lon="6.73871">
        <ele>499.6</ele>
        <time>2022-07-29T11:20:02Z</time>
      </trkpt>
      <trkpt lat="47.98843" lon="6.73866">
        <ele>498.6</ele>
        <time>2022-07-29T11:20:03Z</time>
      </trkpt>
      <trkpt lat="47.98849" lon="6.73865">
        <ele>498.2</ele>
        <time>2022-07-29T11:20:04Z</time>
      </trkpt>
      <trkpt lat="47.98855" lon="6.73866">
        <ele>497.6</ele>
        <time>2022-07-29T11:20:05Z</time>
      </trkpt>
      <trkpt lat="47.98863" lon="6.73869">
        <ele>496.6</ele>
        <time>2022-07-29T11:20:06Z</time>
      </trkpt>
      <trkpt lat="47.9887" lon="6.73871">
        <ele>496.2</ele>
        <time>2022-07-29T11:20:07Z</time>
      </trkpt>
      <trkpt lat="47.98877" lon="6.73874">
        <ele>495.2</ele>
        <time>2022-07-29T11:20:08Z</time>
      </trkpt>
      <trkpt lat="47.98892" lon="6.73879">
        <ele>493.4</ele>
        <time>2022-07-29T11:20:10Z</time>
      </trkpt>
      <trkpt lat="47.98908" lon="6.73878">
        <ele>492.4</ele>
        <time>2022-07-29T11:20:12Z</time>
      </trkpt>
      <trkpt lat="47.9892" lon="6.73874">
        <ele>491.4</ele>
        <time>2022-07-29T11:20:14Z</time>
      </trkpt>
      <trkpt lat="47.98925" lon="6.73873">
        <ele>491</ele>
        <time>2022-07-29T11:20:15Z</time>
      </trkpt>
      <trkpt lat="47.9893" lon="6.73873">
        <ele>490.6</ele>
        <time>2022-07-29T11:20:16Z</time>
      </trkpt>
      <trkpt lat="47.98935" lon="6.73874">
        <ele>489.8</ele>
        <time>2022-07-29T11:20:17Z</time>
      </trkpt>
      <trkpt lat="47.9894" lon="6.73876">
        <ele>489.6</ele>
        <time>2022-07-29T11:20:18Z</time>
      </trkpt>
      <trkpt lat="47.98944" lon="6.73876">
        <ele>489</ele>
        <time>2022-07-29T11:20:19Z</time>
      </trkpt>
      <trkpt lat="47.98948" lon="6.73876">
        <ele>488.8</ele>
        <time>2022-07-29T11:20:20Z</time>
      </trkpt>
      <trkpt lat="47.98952" lon="6.73876">
        <ele>488.4</ele>
        <time>2022-07-29T11:20:21Z</time>
      </trkpt>
      <trkpt lat="47.98957" lon="6.73874">
        <ele>487.8</ele>
        <time>2022-07-29T11:20:22Z</time>
      </trkpt>
      <trkpt lat="47.98962" lon="6.7387">
        <ele>487</ele>
        <time>2022-07-29T11:20:23Z</time>
      </trkpt>
      <trkpt lat="47.98966" lon="6.73866">
        <ele>485.8</ele>
        <time>2022-07-29T11:20:24Z</time>
      </trkpt>
      <trkpt lat="47.98969" lon="6.7386">
        <ele>485.4</ele>
        <time>2022-07-29T11:20:25Z</time>
      </trkpt>
      <trkpt lat="47.98972" lon="6.73853">
        <ele>484.4</ele>
        <time>2022-07-29T11:20:26Z</time>
      </trkpt>
      <trkpt lat="47.98974" lon="6.73847">
        <ele>484</ele>
        <time>2022-07-29T11:20:27Z</time>
      </trkpt>
      <trkpt lat="47.98976" lon="6.73841">
        <ele>483.4</ele>
        <time>2022-07-29T11:20:28Z</time>
      </trkpt>
      <trkpt lat="47.9898" lon="6.73835">
        <ele>483.2</ele>
        <time>2022-07-29T11:20:29Z</time>
      </trkpt>
      <trkpt lat="47.98987" lon="6.73819">
        <ele>481.8</ele>
        <time>2022-07-29T11:20:31Z</time>
      </trkpt>
      <trkpt lat="47.98997" lon="6.73802">
        <ele>479.8</ele>
        <time>2022-07-29T11:20:33Z</time>
      </trkpt>
      <trkpt lat="47.99008" lon="6.73784">
        <ele>477.8</ele>
        <time>2022-07-29T11:20:35Z</time>
      </trkpt>
      <trkpt lat="47.99021" lon="6.73766">
        <ele>476.4</ele>
        <time>2022-07-29T11:20:37Z</time>
      </trkpt>
      <trkpt lat="47.99035" lon="6.73752">
        <ele>475.2</ele>
        <time>2022-07-29T11:20:39Z</time>
      </trkpt>
      <trkpt lat="47.99042" lon="6.73745">
        <ele>475</ele>
        <time>2022-07-29T11:20:40Z</time>
      </trkpt>
      <trkpt lat="47.99048" lon="6.73737">
        <ele>474</ele>
        <time>2022-07-29T11:20:41Z</time>
      </trkpt>
      <trkpt lat="47.99052" lon="6.73726">
        <ele>473</ele>
        <time>2022-07-29T11:20:42Z</time>
      </trkpt>
      <trkpt lat="47.99056" lon="6.73717">
        <ele>472.6</ele>
        <time>2022-07-29T11:20:43Z</time>
      </trkpt>
      <trkpt lat="47.99059" lon="6.73709">
        <ele>472.2</ele>
        <time>2022-07-29T11:20:44Z</time>
      </trkpt>
      <trkpt lat="47.99061" lon="6.73701">
        <ele>472.2</ele>
        <time>2022-07-29T11:20:45Z</time>
      </trkpt>
      <trkpt lat="47.99063" lon="6.73694">
        <ele>472.2</ele>
        <time>2022-07-29T11:20:46Z</time>
      </trkpt>
      <trkpt lat="47.99066" lon="6.73687">
        <ele>472</ele>
        <time>2022-07-29T11:20:47Z</time>
      </trkpt>
      <trkpt lat="47.99068" lon="6.7368">
        <ele>472</ele>
        <time>2022-07-29T11:20:48Z</time>
      </trkpt>
      <trkpt lat="47.9907" lon="6.73675">
        <ele>472</ele>
        <time>2022-07-29T11:20:49Z</time>
      </trkpt>
      <trkpt lat="47.99073" lon="6.7367">
        <ele>472.2</ele>
        <time>2022-07-29T11:20:50Z</time>
      </trkpt>
      <trkpt lat="47.99076" lon="6.73666">
        <ele>472.6</ele>
        <time>2022-07-29T11:20:51Z</time>
      </trkpt>
      <trkpt lat="47.99082" lon="6.73657">
        <ele>473</ele>
        <time>2022-07-29T11:20:53Z</time>
      </trkpt>
      <trkpt lat="47.99088" lon="6.73648">
        <ele>473.6</ele>
        <time>2022-07-29T11:20:55Z</time>
      </trkpt>
      <trkpt lat="47.99091" lon="6.73644">
        <ele>473.8</ele>
        <time>2022-07-29T11:20:56Z</time>
      </trkpt>
      <trkpt lat="47.99094" lon="6.73639">
        <ele>474</ele>
        <time>2022-07-29T11:20:57Z</time>
      </trkpt>
      <trkpt lat="47.99098" lon="6.73635">
        <ele>474.2</ele>
        <time>2022-07-29T11:20:58Z</time>
      </trkpt>
      <trkpt lat="47.99111" lon="6.73617">
        <ele>475</ele>
        <time>2022-07-29T11:21:02Z</time>
      </trkpt>
      <trkpt lat="47.99119" lon="6.73609">
        <ele>475.2</ele>
        <time>2022-07-29T11:21:04Z</time>
      </trkpt>
      <trkpt lat="47.99156" lon="6.73582">
        <ele>476</ele>
        <time>2022-07-29T11:21:13Z</time>
      </trkpt>
      <trkpt lat="47.9917" lon="6.73566">
        <ele>476.2</ele>
        <time>2022-07-29T11:21:17Z</time>
      </trkpt>
      <trkpt lat="47.99175" lon="6.73556">
        <ele>476.2</ele>
        <time>2022-07-29T11:21:19Z</time>
      </trkpt>
      <trkpt lat="47.99178" lon="6.73551">
        <ele>476.4</ele>
        <time>2022-07-29T11:21:20Z</time>
      </trkpt>
      <trkpt lat="47.9918" lon="6.73546">
        <ele>476.4</ele>
        <time>2022-07-29T11:21:21Z</time>
      </trkpt>
      <trkpt lat="47.99183" lon="6.73542">
        <ele>476.4</ele>
        <time>2022-07-29T11:21:22Z</time>
      </trkpt>
      <trkpt lat="47.99186" lon="6.73538">
        <ele>476.4</ele>
        <time>2022-07-29T11:21:23Z</time>
      </trkpt>
      <trkpt lat="47.99188" lon="6.73534">
        <ele>476.6</ele>
        <time>2022-07-29T11:21:24Z</time>
      </trkpt>
      <trkpt lat="47.9919" lon="6.73529">
        <ele>476.8</ele>
        <time>2022-07-29T11:21:25Z</time>
      </trkpt>
      <trkpt lat="47.99193" lon="6.73526">
        <ele>476.8</ele>
        <time>2022-07-29T11:21:26Z</time>
      </trkpt>
      <trkpt lat="47.99195" lon="6.73522">
        <ele>477</ele>
        <time>2022-07-29T11:21:27Z</time>
      </trkpt>
      <trkpt lat="47.99198" lon="6.73519">
        <ele>477</ele>
        <time>2022-07-29T11:21:28Z</time>
      </trkpt>
      <trkpt lat="47.99202" lon="6.73519">
        <ele>477.2</ele>
        <time>2022-07-29T11:21:29Z</time>
      </trkpt>
      <trkpt lat="47.99205" lon="6.73519">
        <ele>477.2</ele>
        <time>2022-07-29T11:21:30Z</time>
      </trkpt>
      <trkpt lat="47.99209" lon="6.7352">
        <ele>477.4</ele>
        <time>2022-07-29T11:21:31Z</time>
      </trkpt>
      <trkpt lat="47.99212" lon="6.73521">
        <ele>477.6</ele>
        <time>2022-07-29T11:21:32Z</time>
      </trkpt>
      <trkpt lat="47.99216" lon="6.73521">
        <ele>478</ele>
        <time>2022-07-29T11:21:33Z</time>
      </trkpt>
      <trkpt lat="47.99223" lon="6.73519">
        <ele>478.6</ele>
        <time>2022-07-29T11:21:35Z</time>
      </trkpt>
      <trkpt lat="47.99227" lon="6.73518">
        <ele>478.8</ele>
        <time>2022-07-29T11:21:36Z</time>
      </trkpt>
      <trkpt lat="47.99234" lon="6.73516">
        <ele>479.6</ele>
        <time>2022-07-29T11:21:38Z</time>
      </trkpt>
      <trkpt lat="47.99237" lon="6.73515">
        <ele>479.6</ele>
        <time>2022-07-29T11:21:39Z</time>
      </trkpt>
      <trkpt lat="47.99241" lon="6.73514">
        <ele>479.8</ele>
        <time>2022-07-29T11:21:40Z</time>
      </trkpt>
      <trkpt lat="47.99244" lon="6.73513">
        <ele>480</ele>
        <time>2022-07-29T11:21:41Z</time>
      </trkpt>
      <trkpt lat="47.99248" lon="6.73513">
        <ele>480</ele>
        <time>2022-07-29T11:21:42Z</time>
      </trkpt>
      <trkpt lat="47.99252" lon="6.73513">
        <ele>480</ele>
        <time>2022-07-29T11:21:43Z</time>
      </trkpt>
      <trkpt lat="47.99256" lon="6.73513">
        <ele>480</ele>
        <time>2022-07-29T11:21:44Z</time>
      </trkpt>
      <trkpt lat="47.9926" lon="6.73512">
        <ele>480</ele>
        <time>2022-07-29T11:21:45Z</time>
      </trkpt>
      <trkpt lat="47.99264" lon="6.73512">
        <ele>480</ele>
        <time>2022-07-29T11:21:46Z</time>
      </trkpt>
      <trkpt lat="47.99268" lon="6.73511">
        <ele>480</ele>
        <time>2022-07-29T11:21:47Z</time>
      </trkpt>
      <trkpt lat="47.99272" lon="6.7351">
        <ele>480</ele>
        <time>2022-07-29T11:21:48Z</time>
      </trkpt>
      <trkpt lat="47.99276" lon="6.73509">
        <ele>480</ele>
        <time>2022-07-29T11:21:49Z</time>
      </trkpt>
      <trkpt lat="47.99281" lon="6.73508">
        <ele>480</ele>
        <time>2022-07-29T11:21:50Z</time>
      </trkpt>
      <trkpt lat="47.99285" lon="6.73508">
        <ele>480</ele>
        <time>2022-07-29T11:21:51Z</time>
      </trkpt>
      <trkpt lat="47.99289" lon="6.73508">
        <ele>479.8</ele>
        <time>2022-07-29T11:21:52Z</time>
      </trkpt>
      <trkpt lat="47.99293" lon="6.73508">
        <ele>479.8</ele>
        <time>2022-07-29T11:21:53Z</time>
      </trkpt>
      <trkpt lat="47.99298" lon="6.73508">
        <ele>479.8</ele>
        <time>2022-07-29T11:21:54Z</time>
      </trkpt>
      <trkpt lat="47.99302" lon="6.73509">
        <ele>479.8</ele>
        <time>2022-07-29T11:21:55Z</time>
      </trkpt>
      <trkpt lat="47.99306" lon="6.73509">
        <ele>479.6</ele>
        <time>2022-07-29T11:21:56Z</time>
      </trkpt>
      <trkpt lat="47.99311" lon="6.7351">
        <ele>479.6</ele>
        <time>2022-07-29T11:21:57Z</time>
      </trkpt>
      <trkpt lat="47.99315" lon="6.7351">
        <ele>479.6</ele>
        <time>2022-07-29T11:21:58Z</time>
      </trkpt>
      <trkpt lat="47.99328" lon="6.73506">
        <ele>479.6</ele>
        <time>2022-07-29T11:22:01Z</time>
      </trkpt>
      <trkpt lat="47.99344" lon="6.73497">
        <ele>479.6</ele>
        <time>2022-07-29T11:22:05Z</time>
      </trkpt>
      <trkpt lat="47.99379" lon="6.73472">
        <ele>480.2</ele>
        <time>2022-07-29T11:22:14Z</time>
      </trkpt>
      <trkpt lat="47.99386" lon="6.73467">
        <ele>480.2</ele>
        <time>2022-07-29T11:22:16Z</time>
      </trkpt>
      <trkpt lat="47.9939" lon="6.73465">
        <ele>480.2</ele>
        <time>2022-07-29T11:22:17Z</time>
      </trkpt>
      <trkpt lat="47.99393" lon="6.73462">
        <ele>480.2</ele>
        <time>2022-07-29T11:22:18Z</time>
      </trkpt>
      <trkpt lat="47.99397" lon="6.7346">
        <ele>480.4</ele>
        <time>2022-07-29T11:22:19Z</time>
      </trkpt>
      <trkpt lat="47.994" lon="6.73458">
        <ele>480.4</ele>
        <time>2022-07-29T11:22:20Z</time>
      </trkpt>
      <trkpt lat="47.99404" lon="6.73456">
        <ele>480.4</ele>
        <time>2022-07-29T11:22:21Z</time>
      </trkpt>
      <trkpt lat="47.99407" lon="6.73454">
        <ele>480.4</ele>
        <time>2022-07-29T11:22:22Z</time>
      </trkpt>
      <trkpt lat="47.9941" lon="6.73452">
        <ele>480.6</ele>
        <time>2022-07-29T11:22:23Z</time>
      </trkpt>
      <trkpt lat="47.99414" lon="6.7345">
        <ele>480.6</ele>
        <time>2022-07-29T11:22:24Z</time>
      </trkpt>
      <trkpt lat="47.99417" lon="6.73447">
        <ele>480.8</ele>
        <time>2022-07-29T11:22:25Z</time>
      </trkpt>
      <trkpt lat="47.9942" lon="6.73445">
        <ele>481</ele>
        <time>2022-07-29T11:22:26Z</time>
      </trkpt>
      <trkpt lat="47.99423" lon="6.73442">
        <ele>481.2</ele>
        <time>2022-07-29T11:22:27Z</time>
      </trkpt>
      <trkpt lat="47.99433" lon="6.73434">
        <ele>481.6</ele>
        <time>2022-07-29T11:22:30Z</time>
      </trkpt>
      <trkpt lat="47.9944" lon="6.73429">
        <ele>482.2</ele>
        <time>2022-07-29T11:22:32Z</time>
      </trkpt>
      <trkpt lat="47.99443" lon="6.73427">
        <ele>482.4</ele>
        <time>2022-07-29T11:22:33Z</time>
      </trkpt>
      <trkpt lat="47.99446" lon="6.73424">
        <ele>482.4</ele>
        <time>2022-07-29T11:22:34Z</time>
      </trkpt>
      <trkpt lat="47.99454" lon="6.73415">
        <ele>483.4</ele>
        <time>2022-07-29T11:22:37Z</time>
      </trkpt>
      <trkpt lat="47.9946" lon="6.73409">
        <ele>483.8</ele>
        <time>2022-07-29T11:22:39Z</time>
      </trkpt>
      <trkpt lat="47.99463" lon="6.73406">
        <ele>484</ele>
        <time>2022-07-29T11:22:40Z</time>
      </trkpt>
      <trkpt lat="47.99466" lon="6.73403">
        <ele>484.4</ele>
        <time>2022-07-29T11:22:41Z</time>
      </trkpt>
      <trkpt lat="47.9947" lon="6.73401">
        <ele>484.6</ele>
        <time>2022-07-29T11:22:42Z</time>
      </trkpt>
      <trkpt lat="47.99473" lon="6.73398">
        <ele>484.8</ele>
        <time>2022-07-29T11:22:43Z</time>
      </trkpt>
      <trkpt lat="47.99476" lon="6.73396">
        <ele>485</ele>
        <time>2022-07-29T11:22:44Z</time>
      </trkpt>
      <trkpt lat="47.9948" lon="6.73393">
        <ele>485</ele>
        <time>2022-07-29T11:22:45Z</time>
      </trkpt>
      <trkpt lat="47.99483" lon="6.73391">
        <ele>485.2</ele>
        <time>2022-07-29T11:22:46Z</time>
      </trkpt>
      <trkpt lat="47.99486" lon="6.7339">
        <ele>485.4</ele>
        <time>2022-07-29T11:22:47Z</time>
      </trkpt>
      <trkpt lat="47.9949" lon="6.73389">
        <ele>485.8</ele>
        <time>2022-07-29T11:22:48Z</time>
      </trkpt>
      <trkpt lat="47.99494" lon="6.73389">
        <ele>485.8</ele>
        <time>2022-07-29T11:22:49Z</time>
      </trkpt>
      <trkpt lat="47.99497" lon="6.73389">
        <ele>486</ele>
        <time>2022-07-29T11:22:50Z</time>
      </trkpt>
      <trkpt lat="47.99499" lon="6.73389">
        <ele>486.4</ele>
        <time>2022-07-29T11:22:51Z</time>
      </trkpt>
      <trkpt lat="47.99501" lon="6.73389">
        <ele>486.6</ele>
        <time>2022-07-29T11:22:52Z</time>
      </trkpt>
      <trkpt lat="47.99503" lon="6.7339">
        <ele>486.8</ele>
        <time>2022-07-29T11:22:53Z</time>
      </trkpt>
      <trkpt lat="47.99505" lon="6.7339">
        <ele>487</ele>
        <time>2022-07-29T11:22:54Z</time>
      </trkpt>
      <trkpt lat="47.99508" lon="6.7339">
        <ele>487.2</ele>
        <time>2022-07-29T11:22:55Z</time>
      </trkpt>
      <trkpt lat="47.9951" lon="6.73388">
        <ele>487.4</ele>
        <time>2022-07-29T11:22:56Z</time>
      </trkpt>
      <trkpt lat="47.99512" lon="6.73385">
        <ele>487.6</ele>
        <time>2022-07-29T11:22:57Z</time>
      </trkpt>
      <trkpt lat="47.99513" lon="6.73381">
        <ele>487.6</ele>
        <time>2022-07-29T11:22:58Z</time>
      </trkpt>
      <trkpt lat="47.99515" lon="6.73377">
        <ele>487.8</ele>
        <time>2022-07-29T11:22:59Z</time>
      </trkpt>
      <trkpt lat="47.99518" lon="6.73372">
        <ele>487.8</ele>
        <time>2022-07-29T11:23:00Z</time>
      </trkpt>
      <trkpt lat="47.9952" lon="6.73368">
        <ele>487.8</ele>
        <time>2022-07-29T11:23:01Z</time>
      </trkpt>
      <trkpt lat="47.99523" lon="6.73365">
        <ele>487.8</ele>
        <time>2022-07-29T11:23:02Z</time>
      </trkpt>
      <trkpt lat="47.99525" lon="6.73362">
        <ele>487.8</ele>
        <time>2022-07-29T11:23:03Z</time>
      </trkpt>
      <trkpt lat="47.99527" lon="6.73359">
        <ele>487.8</ele>
        <time>2022-07-29T11:23:04Z</time>
      </trkpt>
      <trkpt lat="47.9953" lon="6.73357">
        <ele>487.6</ele>
        <time>2022-07-29T11:23:05Z</time>
      </trkpt>
      <trkpt lat="47.99532" lon="6.73354">
        <ele>487.4</ele>
        <time>2022-07-29T11:23:06Z</time>
      </trkpt>
      <trkpt lat="47.99535" lon="6.73352">
        <ele>487.4</ele>
        <time>2022-07-29T11:23:07Z</time>
      </trkpt>
      <trkpt lat="47.99539" lon="6.73349">
        <ele>487.2</ele>
        <time>2022-07-29T11:23:08Z</time>
      </trkpt>
      <trkpt lat="47.99543" lon="6.73345">
        <ele>487</ele>
        <time>2022-07-29T11:23:09Z</time>
      </trkpt>
      <trkpt lat="47.99548" lon="6.73342">
        <ele>486.8</ele>
        <time>2022-07-29T11:23:10Z</time>
      </trkpt>
      <trkpt lat="47.99553" lon="6.73338">
        <ele>486.8</ele>
        <time>2022-07-29T11:23:11Z</time>
      </trkpt>
      <trkpt lat="47.99559" lon="6.73334">
        <ele>486.6</ele>
        <time>2022-07-29T11:23:12Z</time>
      </trkpt>
      <trkpt lat="47.99572" lon="6.73324">
        <ele>485.8</ele>
        <time>2022-07-29T11:23:14Z</time>
      </trkpt>
      <trkpt lat="47.99579" lon="6.73318">
        <ele>485.4</ele>
        <time>2022-07-29T11:23:15Z</time>
      </trkpt>
      <trkpt lat="47.99594" lon="6.73303">
        <ele>484</ele>
        <time>2022-07-29T11:23:17Z</time>
      </trkpt>
      <trkpt lat="47.99603" lon="6.73295">
        <ele>482.8</ele>
        <time>2022-07-29T11:23:18Z</time>
      </trkpt>
      <trkpt lat="47.9962" lon="6.73279">
        <ele>481.4</ele>
        <time>2022-07-29T11:23:20Z</time>
      </trkpt>
      <trkpt lat="47.9963" lon="6.73274">
        <ele>480.6</ele>
        <time>2022-07-29T11:23:21Z</time>
      </trkpt>
      <trkpt lat="47.99641" lon="6.73274">
        <ele>479.4</ele>
        <time>2022-07-29T11:23:22Z</time>
      </trkpt>
      <trkpt lat="47.99651" lon="6.73278">
        <ele>479</ele>
        <time>2022-07-29T11:23:23Z</time>
      </trkpt>
      <trkpt lat="47.99661" lon="6.73285">
        <ele>477.4</ele>
        <time>2022-07-29T11:23:24Z</time>
      </trkpt>
      <trkpt lat="47.99667" lon="6.73296">
        <ele>476.6</ele>
        <time>2022-07-29T11:23:25Z</time>
      </trkpt>
      <trkpt lat="47.99673" lon="6.73311">
        <ele>475.2</ele>
        <time>2022-07-29T11:23:26Z</time>
      </trkpt>
      <trkpt lat="47.99677" lon="6.73327">
        <ele>474</ele>
        <time>2022-07-29T11:23:27Z</time>
      </trkpt>
      <trkpt lat="47.99681" lon="6.73343">
        <ele>473.6</ele>
        <time>2022-07-29T11:23:28Z</time>
      </trkpt>
      <trkpt lat="47.99685" lon="6.73358">
        <ele>472.6</ele>
        <time>2022-07-29T11:23:29Z</time>
      </trkpt>
      <trkpt lat="47.99693" lon="6.73387">
        <ele>470.8</ele>
        <time>2022-07-29T11:23:31Z</time>
      </trkpt>
      <trkpt lat="47.99701" lon="6.73417">
        <ele>469.2</ele>
        <time>2022-07-29T11:23:33Z</time>
      </trkpt>
      <trkpt lat="47.99702" lon="6.73449">
        <ele>467.8</ele>
        <time>2022-07-29T11:23:35Z</time>
      </trkpt>
      <trkpt lat="47.99702" lon="6.7348">
        <ele>466.4</ele>
        <time>2022-07-29T11:23:37Z</time>
      </trkpt>
      <trkpt lat="47.99701" lon="6.73496">
        <ele>465.8</ele>
        <time>2022-07-29T11:23:38Z</time>
      </trkpt>
      <trkpt lat="47.997" lon="6.73526">
        <ele>464.8</ele>
        <time>2022-07-29T11:23:40Z</time>
      </trkpt>
      <trkpt lat="47.997" lon="6.7354">
        <ele>464.6</ele>
        <time>2022-07-29T11:23:41Z</time>
      </trkpt>
      <trkpt lat="47.99698" lon="6.73553">
        <ele>463.6</ele>
        <time>2022-07-29T11:23:42Z</time>
      </trkpt>
      <trkpt lat="47.99695" lon="6.73566">
        <ele>463</ele>
        <time>2022-07-29T11:23:43Z</time>
      </trkpt>
      <trkpt lat="47.99692" lon="6.73579">
        <ele>462.8</ele>
        <time>2022-07-29T11:23:44Z</time>
      </trkpt>
      <trkpt lat="47.99689" lon="6.73591">
        <ele>462.4</ele>
        <time>2022-07-29T11:23:45Z</time>
      </trkpt>
      <trkpt lat="47.99685" lon="6.73603">
        <ele>462.2</ele>
        <time>2022-07-29T11:23:46Z</time>
      </trkpt>
      <trkpt lat="47.99682" lon="6.73614">
        <ele>462</ele>
        <time>2022-07-29T11:23:47Z</time>
      </trkpt>
      <trkpt lat="47.99679" lon="6.73625">
        <ele>462</ele>
        <time>2022-07-29T11:23:48Z</time>
      </trkpt>
      <trkpt lat="47.99676" lon="6.73637">
        <ele>461.6</ele>
        <time>2022-07-29T11:23:49Z</time>
      </trkpt>
      <trkpt lat="47.99676" lon="6.73648">
        <ele>461.4</ele>
        <time>2022-07-29T11:23:50Z</time>
      </trkpt>
      <trkpt lat="47.99679" lon="6.73657">
        <ele>461</ele>
        <time>2022-07-29T11:23:51Z</time>
      </trkpt>
      <trkpt lat="47.99682" lon="6.73663">
        <ele>460.8</ele>
        <time>2022-07-29T11:23:52Z</time>
      </trkpt>
      <trkpt lat="47.99688" lon="6.73666">
        <ele>460.6</ele>
        <time>2022-07-29T11:23:53Z</time>
      </trkpt>
      <trkpt lat="47.99694" lon="6.73666">
        <ele>460.6</ele>
        <time>2022-07-29T11:23:54Z</time>
      </trkpt>
      <trkpt lat="47.99712" lon="6.73662">
        <ele>460.6</ele>
        <time>2022-07-29T11:23:57Z</time>
      </trkpt>
      <trkpt lat="47.99717" lon="6.73662">
        <ele>460.4</ele>
        <time>2022-07-29T11:23:58Z</time>
      </trkpt>
      <trkpt lat="47.9972" lon="6.73662">
        <ele>460.4</ele>
        <time>2022-07-29T11:23:59Z</time>
      </trkpt>
      <trkpt lat="47.99723" lon="6.73661">
        <ele>460.4</ele>
        <time>2022-07-29T11:24:00Z</time>
      </trkpt>
      <trkpt lat="47.99725" lon="6.7366">
        <ele>460.4</ele>
        <time>2022-07-29T11:24:01Z</time>
      </trkpt>
      <trkpt lat="47.99726" lon="6.73659">
        <ele>460.4</ele>
        <time>2022-07-29T11:24:02Z</time>
      </trkpt>
      <trkpt lat="47.99727" lon="6.73658">
        <ele>460.4</ele>
        <time>2022-07-29T11:24:03Z</time>
      </trkpt>
      <trkpt lat="47.99728" lon="6.73656">
        <ele>460.4</ele>
        <time>2022-07-29T11:24:04Z</time>
      </trkpt>
      <trkpt lat="47.99729" lon="6.73653">
        <ele>460.4</ele>
        <time>2022-07-29T11:24:05Z</time>
      </trkpt>
      <trkpt lat="47.9973" lon="6.73651">
        <ele>460.4</ele>
        <time>2022-07-29T11:24:06Z</time>
      </trkpt>
      <trkpt lat="47.99732" lon="6.73649">
        <ele>460.4</ele>
        <time>2022-07-29T11:24:07Z</time>
      </trkpt>
      <trkpt lat="47.99733" lon="6.73647">
        <ele>460.4</ele>
        <time>2022-07-29T11:24:08Z</time>
      </trkpt>
      <trkpt lat="47.99735" lon="6.73644">
        <ele>460.4</ele>
        <time>2022-07-29T11:24:09Z</time>
      </trkpt>
      <trkpt lat="47.99738" lon="6.73634">
        <ele>460</ele>
        <time>2022-07-29T11:24:12Z</time>
      </trkpt>
      <trkpt lat="47.9974" lon="6.73632">
        <ele>460</ele>
        <time>2022-07-29T11:24:13Z</time>
      </trkpt>
      <trkpt lat="47.99741" lon="6.73624">
        <ele>459.4</ele>
        <time>2022-07-29T11:24:15Z</time>
      </trkpt>
      <trkpt lat="47.99741" lon="6.73621">
        <ele>458.8</ele>
        <time>2022-07-29T11:24:16Z</time>
      </trkpt>
      <trkpt lat="47.99741" lon="6.73617">
        <ele>458.2</ele>
        <time>2022-07-29T11:24:17Z</time>
      </trkpt>
      <trkpt lat="47.99741" lon="6.73613">
        <ele>457.4</ele>
        <time>2022-07-29T11:24:18Z</time>
      </trkpt>
      <trkpt lat="47.99741" lon="6.73608">
        <ele>456</ele>
        <time>2022-07-29T11:24:19Z</time>
      </trkpt>
      <trkpt lat="47.99741" lon="6.73604">
        <ele>455.4</ele>
        <time>2022-07-29T11:24:20Z</time>
      </trkpt>
      <trkpt lat="47.99743" lon="6.73601">
        <ele>453.8</ele>
        <time>2022-07-29T11:24:21Z</time>
      </trkpt>
      <trkpt lat="47.99746" lon="6.73595">
        <ele>453.4</ele>
        <time>2022-07-29T11:24:22Z</time>
      </trkpt>
      <trkpt lat="47.99751" lon="6.73587">
        <ele>452.8</ele>
        <time>2022-07-29T11:24:23Z</time>
      </trkpt>
      <trkpt lat="47.99754" lon="6.7358">
        <ele>452.4</ele>
        <time>2022-07-29T11:24:24Z</time>
      </trkpt>
      <trkpt lat="47.99757" lon="6.73572">
        <ele>451.8</ele>
        <time>2022-07-29T11:24:25Z</time>
      </trkpt>
      <trkpt lat="47.9976" lon="6.73564">
        <ele>450.8</ele>
        <time>2022-07-29T11:24:26Z</time>
      </trkpt>
      <trkpt lat="47.99762" lon="6.73558">
        <ele>449.8</ele>
        <time>2022-07-29T11:24:27Z</time>
      </trkpt>
      <trkpt lat="47.99765" lon="6.73552">
        <ele>448.4</ele>
        <time>2022-07-29T11:24:28Z</time>
      </trkpt>
      <trkpt lat="47.99768" lon="6.73546">
        <ele>447.8</ele>
        <time>2022-07-29T11:24:29Z</time>
      </trkpt>
      <trkpt lat="47.9977" lon="6.73541">
        <ele>447</ele>
        <time>2022-07-29T11:24:30Z</time>
      </trkpt>
      <trkpt lat="47.99772" lon="6.73535">
        <ele>446.8</ele>
        <time>2022-07-29T11:24:31Z</time>
      </trkpt>
      <trkpt lat="47.99773" lon="6.73529">
        <ele>445.6</ele>
        <time>2022-07-29T11:24:32Z</time>
      </trkpt>
      <trkpt lat="47.99774" lon="6.73524">
        <ele>445.2</ele>
        <time>2022-07-29T11:24:33Z</time>
      </trkpt>
      <trkpt lat="47.99775" lon="6.7352">
        <ele>444.6</ele>
        <time>2022-07-29T11:24:34Z</time>
      </trkpt>
      <trkpt lat="47.99777" lon="6.73513">
        <ele>443.8</ele>
        <time>2022-07-29T11:24:35Z</time>
      </trkpt>
      <trkpt lat="47.99782" lon="6.73507">
        <ele>443</ele>
        <time>2022-07-29T11:24:36Z</time>
      </trkpt>
      <trkpt lat="47.99785" lon="6.73499">
        <ele>442.2</ele>
        <time>2022-07-29T11:24:37Z</time>
      </trkpt>
      <trkpt lat="47.99789" lon="6.73492">
        <ele>441.8</ele>
        <time>2022-07-29T11:24:38Z</time>
      </trkpt>
      <trkpt lat="47.99797" lon="6.73482">
        <ele>440.4</ele>
        <time>2022-07-29T11:24:40Z</time>
      </trkpt>
      <trkpt lat="47.998" lon="6.73476">
        <ele>439.4</ele>
        <time>2022-07-29T11:24:41Z</time>
      </trkpt>
      <trkpt lat="47.99803" lon="6.73469">
        <ele>439</ele>
        <time>2022-07-29T11:24:42Z</time>
      </trkpt>
      <trkpt lat="47.99807" lon="6.73461">
        <ele>437.8</ele>
        <time>2022-07-29T11:24:43Z</time>
      </trkpt>
      <trkpt lat="47.99808" lon="6.73453">
        <ele>436.8</ele>
        <time>2022-07-29T11:24:44Z</time>
      </trkpt>
      <trkpt lat="47.9981" lon="6.73445">
        <ele>436.4</ele>
        <time>2022-07-29T11:24:45Z</time>
      </trkpt>
      <trkpt lat="47.99816" lon="6.73435">
        <ele>435.8</ele>
        <time>2022-07-29T11:24:47Z</time>
      </trkpt>
      <trkpt lat="47.9982" lon="6.73428">
        <ele>435.4</ele>
        <time>2022-07-29T11:24:48Z</time>
      </trkpt>
      <trkpt lat="47.99824" lon="6.73423">
        <ele>435.4</ele>
        <time>2022-07-29T11:24:49Z</time>
      </trkpt>
      <trkpt lat="47.99827" lon="6.7342">
        <ele>435</ele>
        <time>2022-07-29T11:24:50Z</time>
      </trkpt>
      <trkpt lat="47.9983" lon="6.73416">
        <ele>434.6</ele>
        <time>2022-07-29T11:24:51Z</time>
      </trkpt>
      <trkpt lat="47.99834" lon="6.73413">
        <ele>434.6</ele>
        <time>2022-07-29T11:24:52Z</time>
      </trkpt>
      <trkpt lat="47.99837" lon="6.73411">
        <ele>434.4</ele>
        <time>2022-07-29T11:24:53Z</time>
      </trkpt>
      <trkpt lat="47.9984" lon="6.73408">
        <ele>434.4</ele>
        <time>2022-07-29T11:24:54Z</time>
      </trkpt>
      <trkpt lat="47.99842" lon="6.73404">
        <ele>434.4</ele>
        <time>2022-07-29T11:24:55Z</time>
      </trkpt>
      <trkpt lat="47.99844" lon="6.73398">
        <ele>434.4</ele>
        <time>2022-07-29T11:24:56Z</time>
      </trkpt>
      <trkpt lat="47.99845" lon="6.73394">
        <ele>434.4</ele>
        <time>2022-07-29T11:24:57Z</time>
      </trkpt>
      <trkpt lat="47.99847" lon="6.73391">
        <ele>434.4</ele>
        <time>2022-07-29T11:24:58Z</time>
      </trkpt>
      <trkpt lat="47.99849" lon="6.73388">
        <ele>434.4</ele>
        <time>2022-07-29T11:24:59Z</time>
      </trkpt>
      <trkpt lat="47.99853" lon="6.7338">
        <ele>434.2</ele>
        <time>2022-07-29T11:25:01Z</time>
      </trkpt>
      <trkpt lat="47.99854" lon="6.73377">
        <ele>434.2</ele>
        <time>2022-07-29T11:25:02Z</time>
      </trkpt>
      <trkpt lat="47.99855" lon="6.73374">
        <ele>434.2</ele>
        <time>2022-07-29T11:25:03Z</time>
      </trkpt>
      <trkpt lat="47.99857" lon="6.7337">
        <ele>434.2</ele>
        <time>2022-07-29T11:25:04Z</time>
      </trkpt>
      <trkpt lat="47.99869" lon="6.73355">
        <ele>433.6</ele>
        <time>2022-07-29T11:25:08Z</time>
      </trkpt>
      <trkpt lat="47.99871" lon="6.73353">
        <ele>433.4</ele>
        <time>2022-07-29T11:25:09Z</time>
      </trkpt>
      <trkpt lat="47.99873" lon="6.73351">
        <ele>433.2</ele>
        <time>2022-07-29T11:25:10Z</time>
      </trkpt>
      <trkpt lat="47.99875" lon="6.73348">
        <ele>433.2</ele>
        <time>2022-07-29T11:25:11Z</time>
      </trkpt>
      <trkpt lat="47.99877" lon="6.73344">
        <ele>433</ele>
        <time>2022-07-29T11:25:12Z</time>
      </trkpt>
      <trkpt lat="47.99878" lon="6.73338">
        <ele>433</ele>
        <time>2022-07-29T11:25:13Z</time>
      </trkpt>
      <trkpt lat="47.99878" lon="6.7333">
        <ele>432.8</ele>
        <time>2022-07-29T11:25:14Z</time>
      </trkpt>
      <trkpt lat="47.99877" lon="6.73323">
        <ele>432.2</ele>
        <time>2022-07-29T11:25:15Z</time>
      </trkpt>
      <trkpt lat="47.99876" lon="6.73317">
        <ele>432.4</ele>
        <time>2022-07-29T11:25:16Z</time>
      </trkpt>
      <trkpt lat="47.99875" lon="6.73312">
        <ele>432.2</ele>
        <time>2022-07-29T11:25:17Z</time>
      </trkpt>
      <trkpt lat="47.99874" lon="6.73308">
        <ele>432</ele>
        <time>2022-07-29T11:25:18Z</time>
      </trkpt>
      <trkpt lat="47.99873" lon="6.73304">
        <ele>432</ele>
        <time>2022-07-29T11:25:19Z</time>
      </trkpt>
      <trkpt lat="47.99873" lon="6.733">
        <ele>431.8</ele>
        <time>2022-07-29T11:25:20Z</time>
      </trkpt>
      <trkpt lat="47.99873" lon="6.73297">
        <ele>432</ele>
        <time>2022-07-29T11:25:21Z</time>
      </trkpt>
      <trkpt lat="47.99874" lon="6.73292">
        <ele>432</ele>
        <time>2022-07-29T11:25:22Z</time>
      </trkpt>
      <trkpt lat="47.99874" lon="6.73287">
        <ele>432</ele>
        <time>2022-07-29T11:25:23Z</time>
      </trkpt>
      <trkpt lat="47.99874" lon="6.73281">
        <ele>432</ele>
        <time>2022-07-29T11:25:24Z</time>
      </trkpt>
      <trkpt lat="47.99873" lon="6.73277">
        <ele>432.2</ele>
        <time>2022-07-29T11:25:25Z</time>
      </trkpt>
      <trkpt lat="47.99874" lon="6.73273">
        <ele>432.4</ele>
        <time>2022-07-29T11:25:26Z</time>
      </trkpt>
      <trkpt lat="47.99875" lon="6.73268">
        <ele>433</ele>
        <time>2022-07-29T11:25:27Z</time>
      </trkpt>
      <trkpt lat="47.99874" lon="6.73263">
        <ele>433.4</ele>
        <time>2022-07-29T11:25:28Z</time>
      </trkpt>
      <trkpt lat="47.99876" lon="6.73249">
        <ele>434</ele>
        <time>2022-07-29T11:25:30Z</time>
      </trkpt>
      <trkpt lat="47.99876" lon="6.73239">
        <ele>434.4</ele>
        <time>2022-07-29T11:25:32Z</time>
      </trkpt>
      <trkpt lat="47.99877" lon="6.73223">
        <ele>435.4</ele>
        <time>2022-07-29T11:25:35Z</time>
      </trkpt>
      <trkpt lat="47.99876" lon="6.73213">
        <ele>436.2</ele>
        <time>2022-07-29T11:25:37Z</time>
      </trkpt>
      <trkpt lat="47.99874" lon="6.73197">
        <ele>436.6</ele>
        <time>2022-07-29T11:25:40Z</time>
      </trkpt>
      <trkpt lat="47.99873" lon="6.73193">
        <ele>436.6</ele>
        <time>2022-07-29T11:25:41Z</time>
      </trkpt>
      <trkpt lat="47.99871" lon="6.7319">
        <ele>436.6</ele>
        <time>2022-07-29T11:25:42Z</time>
      </trkpt>
      <trkpt lat="47.99869" lon="6.73188">
        <ele>436.8</ele>
        <time>2022-07-29T11:25:43Z</time>
      </trkpt>
      <trkpt lat="47.99868" lon="6.73185">
        <ele>436.8</ele>
        <time>2022-07-29T11:25:44Z</time>
      </trkpt>
      <trkpt lat="47.99867" lon="6.73182">
        <ele>436.8</ele>
        <time>2022-07-29T11:25:45Z</time>
      </trkpt>
      <trkpt lat="47.99867" lon="6.73179">
        <ele>436.8</ele>
        <time>2022-07-29T11:25:46Z</time>
      </trkpt>
      <trkpt lat="47.99867" lon="6.73177">
        <ele>436.8</ele>
        <time>2022-07-29T11:25:47Z</time>
      </trkpt>
      <trkpt lat="47.99866" lon="6.73174">
        <ele>437</ele>
        <time>2022-07-29T11:25:48Z</time>
      </trkpt>
      <trkpt lat="47.99866" lon="6.73171">
        <ele>437.6</ele>
        <time>2022-07-29T11:25:49Z</time>
      </trkpt>
      <trkpt lat="47.99865" lon="6.73168">
        <ele>437.8</ele>
        <time>2022-07-29T11:25:50Z</time>
      </trkpt>
      <trkpt lat="47.99863" lon="6.73165">
        <ele>438.2</ele>
        <time>2022-07-29T11:25:51Z</time>
      </trkpt>
      <trkpt lat="47.99862" lon="6.73162">
        <ele>438.2</ele>
        <time>2022-07-29T11:25:52Z</time>
      </trkpt>
      <trkpt lat="47.99861" lon="6.73158">
        <ele>438.2</ele>
        <time>2022-07-29T11:25:53Z</time>
      </trkpt>
      <trkpt lat="47.9986" lon="6.73154">
        <ele>438.2</ele>
        <time>2022-07-29T11:25:54Z</time>
      </trkpt>
      <trkpt lat="47.99859" lon="6.73149">
        <ele>438.2</ele>
        <time>2022-07-29T11:25:55Z</time>
      </trkpt>
      <trkpt lat="47.99856" lon="6.73143">
        <ele>438.4</ele>
        <time>2022-07-29T11:25:56Z</time>
      </trkpt>
      <trkpt lat="47.99853" lon="6.7314">
        <ele>438.4</ele>
        <time>2022-07-29T11:25:57Z</time>
      </trkpt>
      <trkpt lat="47.9985" lon="6.73138">
        <ele>438.6</ele>
        <time>2022-07-29T11:25:58Z</time>
      </trkpt>
      <trkpt lat="47.99847" lon="6.73138">
        <ele>438.4</ele>
        <time>2022-07-29T11:25:59Z</time>
      </trkpt>
      <trkpt lat="47.99845" lon="6.73138">
        <ele>438.4</ele>
        <time>2022-07-29T11:26:00Z</time>
      </trkpt>
      <trkpt lat="47.99843" lon="6.73137">
        <ele>438.4</ele>
        <time>2022-07-29T11:26:01Z</time>
      </trkpt>
      <trkpt lat="47.99841" lon="6.73134">
        <ele>438.4</ele>
        <time>2022-07-29T11:26:02Z</time>
      </trkpt>
      <trkpt lat="47.9984" lon="6.73131">
        <ele>438.4</ele>
        <time>2022-07-29T11:26:03Z</time>
      </trkpt>
      <trkpt lat="47.99839" lon="6.73128">
        <ele>438.4</ele>
        <time>2022-07-29T11:26:04Z</time>
      </trkpt>
      <trkpt lat="47.99838" lon="6.73125">
        <ele>439.2</ele>
        <time>2022-07-29T11:26:05Z</time>
      </trkpt>
      <trkpt lat="47.99837" lon="6.73122">
        <ele>439.4</ele>
        <time>2022-07-29T11:26:06Z</time>
      </trkpt>
      <trkpt lat="47.99837" lon="6.7312">
        <ele>440</ele>
        <time>2022-07-29T11:26:07Z</time>
      </trkpt>
      <trkpt lat="47.99836" lon="6.73118">
        <ele>440.2</ele>
        <time>2022-07-29T11:26:08Z</time>
      </trkpt>
      <trkpt lat="47.99835" lon="6.73116">
        <ele>440.6</ele>
        <time>2022-07-29T11:26:09Z</time>
      </trkpt>
      <trkpt lat="47.99835" lon="6.73116">
        <ele>440.8</ele>
        <time>2022-07-29T11:26:10Z</time>
      </trkpt>
      <trkpt lat="47.99834" lon="6.73114">
        <ele>441.4</ele>
        <time>2022-07-29T11:26:16Z</time>
      </trkpt>
      <trkpt lat="47.99833" lon="6.73111">
        <ele>441.4</ele>
        <time>2022-07-29T11:26:17Z</time>
      </trkpt>
      <trkpt lat="47.99832" lon="6.73108">
        <ele>441.4</ele>
        <time>2022-07-29T11:26:18Z</time>
      </trkpt>
      <trkpt lat="47.99831" lon="6.73105">
        <ele>441.4</ele>
        <time>2022-07-29T11:26:19Z</time>
      </trkpt>
      <trkpt lat="47.99831" lon="6.73101">
        <ele>441.4</ele>
        <time>2022-07-29T11:26:20Z</time>
      </trkpt>
      <trkpt lat="47.99831" lon="6.73096">
        <ele>441.2</ele>
        <time>2022-07-29T11:26:21Z</time>
      </trkpt>
      <trkpt lat="47.99831" lon="6.7309">
        <ele>441.2</ele>
        <time>2022-07-29T11:26:22Z</time>
      </trkpt>
      <trkpt lat="47.9983" lon="6.73083">
        <ele>441</ele>
        <time>2022-07-29T11:26:23Z</time>
      </trkpt>
      <trkpt lat="47.99829" lon="6.73077">
        <ele>440.6</ele>
        <time>2022-07-29T11:26:24Z</time>
      </trkpt>
      <trkpt lat="47.99827" lon="6.73071">
        <ele>440.2</ele>
        <time>2022-07-29T11:26:25Z</time>
      </trkpt>
      <trkpt lat="47.99826" lon="6.73064">
        <ele>439.8</ele>
        <time>2022-07-29T11:26:26Z</time>
      </trkpt>
      <trkpt lat="47.99825" lon="6.73058">
        <ele>439.4</ele>
        <time>2022-07-29T11:26:27Z</time>
      </trkpt>
      <trkpt lat="47.99825" lon="6.73053">
        <ele>438.8</ele>
        <time>2022-07-29T11:26:28Z</time>
      </trkpt>
      <trkpt lat="47.99825" lon="6.73049">
        <ele>438.6</ele>
        <time>2022-07-29T11:26:29Z</time>
      </trkpt>
      <trkpt lat="47.99825" lon="6.73044">
        <ele>438.6</ele>
        <time>2022-07-29T11:26:30Z</time>
      </trkpt>
      <trkpt lat="47.99827" lon="6.73038">
        <ele>438.4</ele>
        <time>2022-07-29T11:26:31Z</time>
      </trkpt>
      <trkpt lat="47.99828" lon="6.73032">
        <ele>438.4</ele>
        <time>2022-07-29T11:26:32Z</time>
      </trkpt>
      <trkpt lat="47.99825" lon="6.7302">
        <ele>437.6</ele>
        <time>2022-07-29T11:26:34Z</time>
      </trkpt>
      <trkpt lat="47.99823" lon="6.73014">
        <ele>437.2</ele>
        <time>2022-07-29T11:26:35Z</time>
      </trkpt>
      <trkpt lat="47.99821" lon="6.73007">
        <ele>437</ele>
        <time>2022-07-29T11:26:36Z</time>
      </trkpt>
      <trkpt lat="47.99819" lon="6.73">
        <ele>436.8</ele>
        <time>2022-07-29T11:26:37Z</time>
      </trkpt>
      <trkpt lat="47.99817" lon="6.72994">
        <ele>436.8</ele>
        <time>2022-07-29T11:26:38Z</time>
      </trkpt>
      <trkpt lat="47.99815" lon="6.72988">
        <ele>436.4</ele>
        <time>2022-07-29T11:26:39Z</time>
      </trkpt>
      <trkpt lat="47.99813" lon="6.72983">
        <ele>436.2</ele>
        <time>2022-07-29T11:26:40Z</time>
      </trkpt>
      <trkpt lat="47.99811" lon="6.72978">
        <ele>436</ele>
        <time>2022-07-29T11:26:41Z</time>
      </trkpt>
      <trkpt lat="47.9981" lon="6.72973">
        <ele>435.8</ele>
        <time>2022-07-29T11:26:42Z</time>
      </trkpt>
      <trkpt lat="47.9981" lon="6.72968">
        <ele>435.6</ele>
        <time>2022-07-29T11:26:43Z</time>
      </trkpt>
      <trkpt lat="47.99811" lon="6.72962">
        <ele>435.4</ele>
        <time>2022-07-29T11:26:44Z</time>
      </trkpt>
      <trkpt lat="47.99814" lon="6.72957">
        <ele>435.2</ele>
        <time>2022-07-29T11:26:45Z</time>
      </trkpt>
      <trkpt lat="47.99818" lon="6.72951">
        <ele>435</ele>
        <time>2022-07-29T11:26:46Z</time>
      </trkpt>
      <trkpt lat="47.99821" lon="6.72946">
        <ele>434.8</ele>
        <time>2022-07-29T11:26:47Z</time>
      </trkpt>
      <trkpt lat="47.99825" lon="6.7294">
        <ele>434.6</ele>
        <time>2022-07-29T11:26:48Z</time>
      </trkpt>
      <trkpt lat="47.99832" lon="6.7293">
        <ele>434.2</ele>
        <time>2022-07-29T11:26:50Z</time>
      </trkpt>
      <trkpt lat="47.99834" lon="6.72927">
        <ele>434.2</ele>
        <time>2022-07-29T11:26:51Z</time>
      </trkpt>
      <trkpt lat="47.99838" lon="6.72924">
        <ele>434</ele>
        <time>2022-07-29T11:26:52Z</time>
      </trkpt>
      <trkpt lat="47.99842" lon="6.7292">
        <ele>433.8</ele>
        <time>2022-07-29T11:26:53Z</time>
      </trkpt>
      <trkpt lat="47.99847" lon="6.72916">
        <ele>433.6</ele>
        <time>2022-07-29T11:26:54Z</time>
      </trkpt>
      <trkpt lat="47.99852" lon="6.72912">
        <ele>433.4</ele>
        <time>2022-07-29T11:26:55Z</time>
      </trkpt>
      <trkpt lat="47.99856" lon="6.7291">
        <ele>433.2</ele>
        <time>2022-07-29T11:26:56Z</time>
      </trkpt>
      <trkpt lat="47.9986" lon="6.72908">
        <ele>432.4</ele>
        <time>2022-07-29T11:26:57Z</time>
      </trkpt>
      <trkpt lat="47.99864" lon="6.72906">
        <ele>432</ele>
        <time>2022-07-29T11:26:58Z</time>
      </trkpt>
      <trkpt lat="47.99866" lon="6.72903">
        <ele>431.4</ele>
        <time>2022-07-29T11:26:59Z</time>
      </trkpt>
      <trkpt lat="47.99868" lon="6.72899">
        <ele>431.2</ele>
        <time>2022-07-29T11:27:00Z</time>
      </trkpt>
      <trkpt lat="47.9987" lon="6.72894">
        <ele>431</ele>
        <time>2022-07-29T11:27:01Z</time>
      </trkpt>
      <trkpt lat="47.99873" lon="6.72888">
        <ele>430.8</ele>
        <time>2022-07-29T11:27:02Z</time>
      </trkpt>
      <trkpt lat="47.99874" lon="6.72882">
        <ele>430.8</ele>
        <time>2022-07-29T11:27:03Z</time>
      </trkpt>
      <trkpt lat="47.99875" lon="6.72875">
        <ele>430.2</ele>
        <time>2022-07-29T11:27:04Z</time>
      </trkpt>
      <trkpt lat="47.99877" lon="6.72864">
        <ele>430</ele>
        <time>2022-07-29T11:27:06Z</time>
      </trkpt>
      <trkpt lat="47.99878" lon="6.7286">
        <ele>430</ele>
        <time>2022-07-29T11:27:07Z</time>
      </trkpt>
      <trkpt lat="47.99879" lon="6.72856">
        <ele>429.8</ele>
        <time>2022-07-29T11:27:08Z</time>
      </trkpt>
      <trkpt lat="47.99884" lon="6.72841">
        <ele>428.4</ele>
        <time>2022-07-29T11:27:11Z</time>
      </trkpt>
      <trkpt lat="47.99886" lon="6.72842">
        <ele>428.2</ele>
        <time>2022-07-29T11:27:12Z</time>
      </trkpt>
      <trkpt lat="47.99888" lon="6.72845">
        <ele>427.2</ele>
        <time>2022-07-29T11:27:13Z</time>
      </trkpt>
      <trkpt lat="47.9989" lon="6.72848">
        <ele>426.6</ele>
        <time>2022-07-29T11:27:14Z</time>
      </trkpt>
      <trkpt lat="47.99892" lon="6.72851">
        <ele>425.4</ele>
        <time>2022-07-29T11:27:15Z</time>
      </trkpt>
      <trkpt lat="47.99893" lon="6.72853">
        <ele>425</ele>
        <time>2022-07-29T11:27:16Z</time>
      </trkpt>
      <trkpt lat="47.99895" lon="6.72857">
        <ele>424.8</ele>
        <time>2022-07-29T11:27:17Z</time>
      </trkpt>
      <trkpt lat="47.99901" lon="6.72867">
        <ele>424.4</ele>
        <time>2022-07-29T11:27:20Z</time>
      </trkpt>
      <trkpt lat="47.99914" lon="6.72893">
        <ele>424.4</ele>
        <time>2022-07-29T11:27:27Z</time>
      </trkpt>
      <trkpt lat="47.9992" lon="6.7292">
        <ele>425</ele>
        <time>2022-07-29T11:27:33Z</time>
      </trkpt>
      <trkpt lat="47.99923" lon="6.72922">
        <ele>425</ele>
        <time>2022-07-29T11:27:34Z</time>
      </trkpt>
      <trkpt lat="47.99951" lon="6.72925">
        <ele>425.2</ele>
        <time>2022-07-29T11:27:42Z</time>
      </trkpt>
      <trkpt lat="47.99968" lon="6.72926">
        <ele>425.2</ele>
        <time>2022-07-29T11:27:46Z</time>
      </trkpt>
      <trkpt lat="47.99985" lon="6.72929">
        <ele>424.8</ele>
        <time>2022-07-29T11:27:50Z</time>
      </trkpt>
      <trkpt lat="48.00006" lon="6.72926">
        <ele>424.8</ele>
        <time>2022-07-29T11:27:55Z</time>
      </trkpt>
      <trkpt lat="48.00014" lon="6.72922">
        <ele>424.8</ele>
        <time>2022-07-29T11:27:57Z</time>
      </trkpt>
      <trkpt lat="48.00018" lon="6.7292">
        <ele>424.8</ele>
        <time>2022-07-29T11:27:58Z</time>
      </trkpt>
      <trkpt lat="48.00032" lon="6.72903">
        <ele>424.8</ele>
        <time>2022-07-29T11:28:02Z</time>
      </trkpt>
      <trkpt lat="48.00038" lon="6.72891">
        <ele>424.6</ele>
        <time>2022-07-29T11:28:04Z</time>
      </trkpt>
      <trkpt lat="48.00043" lon="6.7287">
        <ele>424.6</ele>
        <time>2022-07-29T11:28:07Z</time>
      </trkpt>
      <trkpt lat="48.00044" lon="6.72814">
        <ele>423.4</ele>
        <time>2022-07-29T11:28:14Z</time>
      </trkpt>
      <trkpt lat="48.00045" lon="6.72785">
        <ele>423</ele>
        <time>2022-07-29T11:28:17Z</time>
      </trkpt>
      <trkpt lat="48.00047" lon="6.72775">
        <ele>422.6</ele>
        <time>2022-07-29T11:28:18Z</time>
      </trkpt>
      <trkpt lat="48.00051" lon="6.72755">
        <ele>422.2</ele>
        <time>2022-07-29T11:28:20Z</time>
      </trkpt>
      <trkpt lat="48.00056" lon="6.7272">
        <ele>420.4</ele>
        <time>2022-07-29T11:28:23Z</time>
      </trkpt>
      <trkpt lat="48.00056" lon="6.72709">
        <ele>420</ele>
        <time>2022-07-29T11:28:24Z</time>
      </trkpt>
      <trkpt lat="48.00054" lon="6.72698">
        <ele>419.4</ele>
        <time>2022-07-29T11:28:25Z</time>
      </trkpt>
      <trkpt lat="48.00051" lon="6.72685">
        <ele>419</ele>
        <time>2022-07-29T11:28:26Z</time>
      </trkpt>
      <trkpt lat="48.00049" lon="6.72674">
        <ele>417.8</ele>
        <time>2022-07-29T11:28:27Z</time>
      </trkpt>
      <trkpt lat="48.00048" lon="6.72664">
        <ele>417.2</ele>
        <time>2022-07-29T11:28:28Z</time>
      </trkpt>
      <trkpt lat="48.00048" lon="6.72655">
        <ele>416.2</ele>
        <time>2022-07-29T11:28:29Z</time>
      </trkpt>
      <trkpt lat="48.0005" lon="6.72645">
        <ele>416</ele>
        <time>2022-07-29T11:28:30Z</time>
      </trkpt>
      <trkpt lat="48.00051" lon="6.72636">
        <ele>415.6</ele>
        <time>2022-07-29T11:28:31Z</time>
      </trkpt>
      <trkpt lat="48.00053" lon="6.72627">
        <ele>415</ele>
        <time>2022-07-29T11:28:32Z</time>
      </trkpt>
      <trkpt lat="48.00056" lon="6.72611">
        <ele>414</ele>
        <time>2022-07-29T11:28:34Z</time>
      </trkpt>
      <trkpt lat="48.00057" lon="6.72603">
        <ele>413.4</ele>
        <time>2022-07-29T11:28:35Z</time>
      </trkpt>
      <trkpt lat="48.00058" lon="6.72595">
        <ele>412.8</ele>
        <time>2022-07-29T11:28:36Z</time>
      </trkpt>
      <trkpt lat="48.00059" lon="6.72589">
        <ele>412.8</ele>
        <time>2022-07-29T11:28:37Z</time>
      </trkpt>
      <trkpt lat="48.0006" lon="6.72584">
        <ele>412.6</ele>
        <time>2022-07-29T11:28:38Z</time>
      </trkpt>
      <trkpt lat="48.00062" lon="6.72582">
        <ele>412.6</ele>
        <time>2022-07-29T11:28:39Z</time>
      </trkpt>
      <trkpt lat="48.00065" lon="6.7258">
        <ele>412.2</ele>
        <time>2022-07-29T11:28:40Z</time>
      </trkpt>
      <trkpt lat="48.00068" lon="6.7258">
        <ele>412</ele>
        <time>2022-07-29T11:28:41Z</time>
      </trkpt>
      <trkpt lat="48.00071" lon="6.72579">
        <ele>412</ele>
        <time>2022-07-29T11:28:42Z</time>
      </trkpt>
      <trkpt lat="48.00083" lon="6.72581">
        <ele>411.8</ele>
        <time>2022-07-29T11:28:45Z</time>
      </trkpt>
      <trkpt lat="48.00095" lon="6.72582">
        <ele>411.4</ele>
        <time>2022-07-29T11:28:48Z</time>
      </trkpt>
      <trkpt lat="48.00104" lon="6.72582">
        <ele>411.6</ele>
        <time>2022-07-29T11:28:50Z</time>
      </trkpt>
      <trkpt lat="48.00108" lon="6.72581">
        <ele>411.4</ele>
        <time>2022-07-29T11:28:51Z</time>
      </trkpt>
      <trkpt lat="48.00113" lon="6.72581">
        <ele>411.4</ele>
        <time>2022-07-29T11:28:52Z</time>
      </trkpt>
      <trkpt lat="48.00117" lon="6.72582">
        <ele>411.4</ele>
        <time>2022-07-29T11:28:53Z</time>
      </trkpt>
      <trkpt lat="48.00121" lon="6.72581">
        <ele>411.4</ele>
        <time>2022-07-29T11:28:54Z</time>
      </trkpt>
      <trkpt lat="48.00142" lon="6.72578">
        <ele>411.4</ele>
        <time>2022-07-29T11:28:59Z</time>
      </trkpt>
      <trkpt lat="48.00146" lon="6.72578">
        <ele>411.4</ele>
        <time>2022-07-29T11:29:00Z</time>
      </trkpt>
      <trkpt lat="48.00184" lon="6.72581">
        <ele>411.4</ele>
        <time>2022-07-29T11:29:08Z</time>
      </trkpt>
      <trkpt lat="48.00207" lon="6.72579">
        <ele>411.2</ele>
        <time>2022-07-29T11:29:13Z</time>
      </trkpt>
      <trkpt lat="48.00232" lon="6.72559">
        <ele>411.2</ele>
        <time>2022-07-29T11:29:18Z</time>
      </trkpt>
      <trkpt lat="48.00253" lon="6.72529">
        <ele>411.2</ele>
        <time>2022-07-29T11:29:24Z</time>
      </trkpt>
      <trkpt lat="48.00256" lon="6.72523">
        <ele>411.2</ele>
        <time>2022-07-29T11:29:25Z</time>
      </trkpt>
      <trkpt lat="48.00258" lon="6.72517">
        <ele>411</ele>
        <time>2022-07-29T11:29:26Z</time>
      </trkpt>
      <trkpt lat="48.00266" lon="6.72491">
        <ele>410.8</ele>
        <time>2022-07-29T11:29:30Z</time>
      </trkpt>
      <trkpt lat="48.00269" lon="6.72484">
        <ele>410.8</ele>
        <time>2022-07-29T11:29:31Z</time>
      </trkpt>
      <trkpt lat="48.0028" lon="6.72461">
        <ele>410.8</ele>
        <time>2022-07-29T11:29:35Z</time>
      </trkpt>
      <trkpt lat="48.00303" lon="6.72425">
        <ele>411</ele>
        <time>2022-07-29T11:29:42Z</time>
      </trkpt>
      <trkpt lat="48.00327" lon="6.72402">
        <ele>411</ele>
        <time>2022-07-29T11:29:48Z</time>
      </trkpt>
      <trkpt lat="48.00359" lon="6.72382">
        <ele>411.2</ele>
        <time>2022-07-29T11:29:55Z</time>
      </trkpt>
      <trkpt lat="48.00395" lon="6.72355">
        <ele>410.6</ele>
        <time>2022-07-29T11:30:03Z</time>
      </trkpt>
      <trkpt lat="48.00408" lon="6.72347">
        <ele>410.4</ele>
        <time>2022-07-29T11:30:06Z</time>
      </trkpt>
      <trkpt lat="48.00413" lon="6.72344">
        <ele>410.4</ele>
        <time>2022-07-29T11:30:07Z</time>
      </trkpt>
      <trkpt lat="48.00417" lon="6.72341">
        <ele>410.2</ele>
        <time>2022-07-29T11:30:08Z</time>
      </trkpt>
      <trkpt lat="48.0043" lon="6.7233">
        <ele>410.2</ele>
        <time>2022-07-29T11:30:11Z</time>
      </trkpt>
      <trkpt lat="48.00434" lon="6.72327">
        <ele>410.2</ele>
        <time>2022-07-29T11:30:12Z</time>
      </trkpt>
      <trkpt lat="48.00438" lon="6.72324">
        <ele>410.2</ele>
        <time>2022-07-29T11:30:13Z</time>
      </trkpt>
      <trkpt lat="48.00446" lon="6.72317">
        <ele>410</ele>
        <time>2022-07-29T11:30:15Z</time>
      </trkpt>
      <trkpt lat="48.0045" lon="6.72316">
        <ele>410</ele>
        <time>2022-07-29T11:30:16Z</time>
      </trkpt>
      <trkpt lat="48.00454" lon="6.72316">
        <ele>410</ele>
        <time>2022-07-29T11:30:17Z</time>
      </trkpt>
      <trkpt lat="48.00457" lon="6.72318">
        <ele>410</ele>
        <time>2022-07-29T11:30:18Z</time>
      </trkpt>
      <trkpt lat="48.00459" lon="6.72321">
        <ele>410.2</ele>
        <time>2022-07-29T11:30:19Z</time>
      </trkpt>
      <trkpt lat="48.0046" lon="6.72326">
        <ele>410.4</ele>
        <time>2022-07-29T11:30:20Z</time>
      </trkpt>
      <trkpt lat="48.00465" lon="6.72359">
        <ele>410.4</ele>
        <time>2022-07-29T11:30:25Z</time>
      </trkpt>
      <trkpt lat="48.00467" lon="6.72365">
        <ele>410.4</ele>
        <time>2022-07-29T11:30:26Z</time>
      </trkpt>
      <trkpt lat="48.0047" lon="6.72378">
        <ele>410.4</ele>
        <time>2022-07-29T11:30:28Z</time>
      </trkpt>
      <trkpt lat="48.00476" lon="6.72386">
        <ele>410.4</ele>
        <time>2022-07-29T11:30:30Z</time>
      </trkpt>
      <trkpt lat="48.0048" lon="6.72386">
        <ele>410.2</ele>
        <time>2022-07-29T11:30:31Z</time>
      </trkpt>
      <trkpt lat="48.00487" lon="6.72379">
        <ele>410.2</ele>
        <time>2022-07-29T11:30:33Z</time>
      </trkpt>
      <trkpt lat="48.00498" lon="6.72365">
        <ele>410</ele>
        <time>2022-07-29T11:30:36Z</time>
      </trkpt>
      <trkpt lat="48.00505" lon="6.72355">
        <ele>410</ele>
        <time>2022-07-29T11:30:38Z</time>
      </trkpt>
      <trkpt lat="48.00513" lon="6.72346">
        <ele>409.8</ele>
        <time>2022-07-29T11:30:40Z</time>
      </trkpt>
      <trkpt lat="48.00539" lon="6.72317">
        <ele>409.6</ele>
        <time>2022-07-29T11:30:46Z</time>
      </trkpt>
      <trkpt lat="48.00543" lon="6.72312">
        <ele>409.6</ele>
        <time>2022-07-29T11:30:47Z</time>
      </trkpt>
      <trkpt lat="48.00563" lon="6.72287">
        <ele>409.4</ele>
        <time>2022-07-29T11:30:52Z</time>
      </trkpt>
      <trkpt lat="48.00571" lon="6.72278">
        <ele>409.6</ele>
        <time>2022-07-29T11:30:54Z</time>
      </trkpt>
      <trkpt lat="48.00575" lon="6.72273">
        <ele>409.6</ele>
        <time>2022-07-29T11:30:55Z</time>
      </trkpt>
      <trkpt lat="48.00584" lon="6.72263">
        <ele>409.6</ele>
        <time>2022-07-29T11:30:57Z</time>
      </trkpt>
      <trkpt lat="48.00592" lon="6.72253">
        <ele>409.4</ele>
        <time>2022-07-29T11:30:59Z</time>
      </trkpt>
      <trkpt lat="48.00596" lon="6.72248">
        <ele>409.4</ele>
        <time>2022-07-29T11:31:00Z</time>
      </trkpt>
      <trkpt lat="48.00604" lon="6.72239">
        <ele>409.4</ele>
        <time>2022-07-29T11:31:02Z</time>
      </trkpt>
      <trkpt lat="48.00649" lon="6.72186">
        <ele>408.8</ele>
        <time>2022-07-29T11:31:13Z</time>
      </trkpt>
      <trkpt lat="48.00653" lon="6.72181">
        <ele>408.8</ele>
        <time>2022-07-29T11:31:14Z</time>
      </trkpt>
      <trkpt lat="48.0069" lon="6.72136">
        <ele>409.2</ele>
        <time>2022-07-29T11:31:23Z</time>
      </trkpt>
      <trkpt lat="48.0071" lon="6.72111">
        <ele>409.4</ele>
        <time>2022-07-29T11:31:28Z</time>
      </trkpt>
      <trkpt lat="48.00713" lon="6.72105">
        <ele>409.4</ele>
        <time>2022-07-29T11:31:29Z</time>
      </trkpt>
      <trkpt lat="48.00715" lon="6.72098">
        <ele>409.4</ele>
        <time>2022-07-29T11:31:30Z</time>
      </trkpt>
      <trkpt lat="48.00714" lon="6.72091">
        <ele>409.4</ele>
        <time>2022-07-29T11:31:31Z</time>
      </trkpt>
      <trkpt lat="48.00713" lon="6.72084">
        <ele>409.2</ele>
        <time>2022-07-29T11:31:32Z</time>
      </trkpt>
      <trkpt lat="48.00708" lon="6.7207">
        <ele>409.2</ele>
        <time>2022-07-29T11:31:34Z</time>
      </trkpt>
      <trkpt lat="48.00705" lon="6.72063">
        <ele>409.2</ele>
        <time>2022-07-29T11:31:35Z</time>
      </trkpt>
      <trkpt lat="48.00703" lon="6.72056">
        <ele>409.2</ele>
        <time>2022-07-29T11:31:36Z</time>
      </trkpt>
      <trkpt lat="48.00693" lon="6.72019">
        <ele>408.8</ele>
        <time>2022-07-29T11:31:41Z</time>
      </trkpt>
      <trkpt lat="48.00692" lon="6.72012">
        <ele>408.8</ele>
        <time>2022-07-29T11:31:42Z</time>
      </trkpt>
      <trkpt lat="48.00692" lon="6.72005">
        <ele>408.6</ele>
        <time>2022-07-29T11:31:43Z</time>
      </trkpt>
      <trkpt lat="48.00692" lon="6.71998">
        <ele>408.6</ele>
        <time>2022-07-29T11:31:44Z</time>
      </trkpt>
      <trkpt lat="48.00692" lon="6.71992">
        <ele>408.4</ele>
        <time>2022-07-29T11:31:45Z</time>
      </trkpt>
      <trkpt lat="48.00693" lon="6.71987">
        <ele>408.4</ele>
        <time>2022-07-29T11:31:46Z</time>
      </trkpt>
      <trkpt lat="48.00691" lon="6.71983">
        <ele>408.4</ele>
        <time>2022-07-29T11:31:47Z</time>
      </trkpt>
      <trkpt lat="48.00689" lon="6.71981">
        <ele>408.4</ele>
        <time>2022-07-29T11:31:48Z</time>
      </trkpt>
      <trkpt lat="48.00686" lon="6.71983">
        <ele>408.6</ele>
        <time>2022-07-29T11:31:49Z</time>
      </trkpt>
      <trkpt lat="48.00684" lon="6.71986">
        <ele>408.6</ele>
        <time>2022-07-29T11:31:50Z</time>
      </trkpt>
      <trkpt lat="48.00682" lon="6.71991">
        <ele>408.6</ele>
        <time>2022-07-29T11:31:51Z</time>
      </trkpt>
      <trkpt lat="48.00679" lon="6.72001">
        <ele>408.8</ele>
        <time>2022-07-29T11:31:53Z</time>
      </trkpt>
      <trkpt lat="48.00677" lon="6.72004">
        <ele>408.8</ele>
        <time>2022-07-29T11:31:54Z</time>
      </trkpt>
      <trkpt lat="48.00674" lon="6.72007">
        <ele>408.8</ele>
        <time>2022-07-29T11:31:55Z</time>
      </trkpt>
      <trkpt lat="48.00671" lon="6.72009">
        <ele>408.8</ele>
        <time>2022-07-29T11:31:56Z</time>
      </trkpt>
      <trkpt lat="48.00667" lon="6.7201">
        <ele>408.8</ele>
        <time>2022-07-29T11:31:57Z</time>
      </trkpt>
      <trkpt lat="48.00664" lon="6.7201">
        <ele>408.8</ele>
        <time>2022-07-29T11:31:58Z</time>
      </trkpt>
      <trkpt lat="48.00661" lon="6.72009">
        <ele>408.8</ele>
        <time>2022-07-29T11:31:59Z</time>
      </trkpt>
      <trkpt lat="48.00659" lon="6.72007">
        <ele>408.6</ele>
        <time>2022-07-29T11:32:00Z</time>
      </trkpt>
      <trkpt lat="48.00658" lon="6.72004">
        <ele>408.8</ele>
        <time>2022-07-29T11:32:01Z</time>
      </trkpt>
      <trkpt lat="48.00657" lon="6.72001">
        <ele>408.6</ele>
        <time>2022-07-29T11:32:02Z</time>
      </trkpt>
      <trkpt lat="48.00656" lon="6.71999">
        <ele>408.6</ele>
        <time>2022-07-29T11:32:03Z</time>
      </trkpt>
      <trkpt lat="48.00656" lon="6.71998">
        <ele>408.6</ele>
        <time>2022-07-29T11:32:06Z</time>
      </trkpt>
      <trkpt lat="48.00656" lon="6.71998">
        <ele>409</ele>
        <time>2022-07-29T11:32:14Z</time>
      </trkpt>
    </trkseg>
  </trk>
</gpx>